<?xml version="1.0" encoding="UTF-8" standalone="no" ?>
<gpx xmlns="http://www.topografix.com/GPX/1/1" xmlns:xsi="http://www.w3.org/2001/XMLSchema-instance" xsi:schemaLocation="http://www.topografix.com/GPX/1/1 http://www.topografix.com/GPX/1/1/gpx.xsd" version="1.1" creator="VisuGPX - https://www.visugpx.com">
  <metadata>
    <name>mont barron depuis le petit port</name>
    <desc><![CDATA[réalisé avec GPS du téléphone]]></desc>
  </metadata>
  <trk>
    <name><![CDATA[SpeedView]]></name>
    <trkseg>
      <trkpt lat="45.90621" lon="6.15754">
        <ele>502</ele>
        <time>2011-04-10T08:18:38Z</time>
      </trkpt>
      <trkpt lat="45.90621" lon="6.15755">
        <ele>502</ele>
        <time>2011-04-10T08:18:39Z</time>
      </trkpt>
      <trkpt lat="45.90621" lon="6.15756">
        <ele>501</ele>
        <time>2011-04-10T08:18:40Z</time>
      </trkpt>
      <trkpt lat="45.90621" lon="6.15758">
        <ele>501</ele>
        <time>2011-04-10T08:18:45Z</time>
      </trkpt>
      <trkpt lat="45.90622" lon="6.15763">
        <ele>501</ele>
        <time>2011-04-10T08:18:46Z</time>
      </trkpt>
      <trkpt lat="45.90621" lon="6.15768">
        <ele>501</ele>
        <time>2011-04-10T08:18:47Z</time>
      </trkpt>
      <trkpt lat="45.90621" lon="6.1577">
        <ele>500</ele>
        <time>2011-04-10T08:18:48Z</time>
      </trkpt>
      <trkpt lat="45.9062" lon="6.1577">
        <ele>501</ele>
        <time>2011-04-10T08:18:49Z</time>
      </trkpt>
      <trkpt lat="45.90619" lon="6.15772">
        <ele>501</ele>
        <time>2011-04-10T08:18:50Z</time>
      </trkpt>
      <trkpt lat="45.90618" lon="6.15775">
        <ele>501</ele>
        <time>2011-04-10T08:18:51Z</time>
      </trkpt>
      <trkpt lat="45.90619" lon="6.15776">
        <ele>502</ele>
        <time>2011-04-10T08:18:52Z</time>
      </trkpt>
      <trkpt lat="45.90619" lon="6.15777">
        <ele>502</ele>
        <time>2011-04-10T08:18:53Z</time>
      </trkpt>
      <trkpt lat="45.90618" lon="6.15778">
        <ele>502</ele>
        <time>2011-04-10T08:18:54Z</time>
      </trkpt>
      <trkpt lat="45.90617" lon="6.15778">
        <ele>502</ele>
        <time>2011-04-10T08:18:55Z</time>
      </trkpt>
      <trkpt lat="45.90615" lon="6.15781">
        <ele>501</ele>
        <time>2011-04-10T08:18:58Z</time>
      </trkpt>
      <trkpt lat="45.90615" lon="6.15781">
        <ele>501</ele>
        <time>2011-04-10T08:18:59Z</time>
      </trkpt>
      <trkpt lat="45.90614" lon="6.1578">
        <ele>501</ele>
        <time>2011-04-10T08:19:00Z</time>
      </trkpt>
      <trkpt lat="45.90613" lon="6.1578">
        <ele>500</ele>
        <time>2011-04-10T08:19:02Z</time>
      </trkpt>
      <trkpt lat="45.90613" lon="6.15781">
        <ele>501</ele>
        <time>2011-04-10T08:19:03Z</time>
      </trkpt>
      <trkpt lat="45.90612" lon="6.15781">
        <ele>500</ele>
        <time>2011-04-10T08:19:04Z</time>
      </trkpt>
      <trkpt lat="45.9061" lon="6.15781">
        <ele>499</ele>
        <time>2011-04-10T08:19:05Z</time>
      </trkpt>
      <trkpt lat="45.9061" lon="6.15781">
        <ele>499</ele>
        <time>2011-04-10T08:19:06Z</time>
      </trkpt>
      <trkpt lat="45.90609" lon="6.15781">
        <ele>499</ele>
        <time>2011-04-10T08:19:07Z</time>
      </trkpt>
      <trkpt lat="45.90608" lon="6.15782">
        <ele>500</ele>
        <time>2011-04-10T08:19:08Z</time>
      </trkpt>
      <trkpt lat="45.90606" lon="6.15782">
        <ele>501</ele>
        <time>2011-04-10T08:19:09Z</time>
      </trkpt>
      <trkpt lat="45.90606" lon="6.15782">
        <ele>501</ele>
        <time>2011-04-10T08:19:10Z</time>
      </trkpt>
      <trkpt lat="45.90605" lon="6.15783">
        <ele>501</ele>
        <time>2011-04-10T08:19:11Z</time>
      </trkpt>
      <trkpt lat="45.90603" lon="6.15783">
        <ele>501</ele>
        <time>2011-04-10T08:19:12Z</time>
      </trkpt>
      <trkpt lat="45.90601" lon="6.15784">
        <ele>501</ele>
        <time>2011-04-10T08:19:13Z</time>
      </trkpt>
      <trkpt lat="45.906" lon="6.15784">
        <ele>501</ele>
        <time>2011-04-10T08:19:14Z</time>
      </trkpt>
      <trkpt lat="45.90599" lon="6.15786">
        <ele>502</ele>
        <time>2011-04-10T08:19:15Z</time>
      </trkpt>
      <trkpt lat="45.90598" lon="6.15786">
        <ele>502</ele>
        <time>2011-04-10T08:19:16Z</time>
      </trkpt>
      <trkpt lat="45.90596" lon="6.15786">
        <ele>503</ele>
        <time>2011-04-10T08:19:17Z</time>
      </trkpt>
      <trkpt lat="45.90594" lon="6.15786">
        <ele>503</ele>
        <time>2011-04-10T08:19:18Z</time>
      </trkpt>
      <trkpt lat="45.90593" lon="6.15787">
        <ele>503</ele>
        <time>2011-04-10T08:19:19Z</time>
      </trkpt>
      <trkpt lat="45.90592" lon="6.15787">
        <ele>503</ele>
        <time>2011-04-10T08:19:20Z</time>
      </trkpt>
      <trkpt lat="45.90592" lon="6.15789">
        <ele>503</ele>
        <time>2011-04-10T08:19:21Z</time>
      </trkpt>
      <trkpt lat="45.9059" lon="6.15793">
        <ele>502</ele>
        <time>2011-04-10T08:19:24Z</time>
      </trkpt>
      <trkpt lat="45.90589" lon="6.15795">
        <ele>502</ele>
        <time>2011-04-10T08:19:25Z</time>
      </trkpt>
      <trkpt lat="45.90588" lon="6.15796">
        <ele>502</ele>
        <time>2011-04-10T08:19:26Z</time>
      </trkpt>
      <trkpt lat="45.90588" lon="6.15798">
        <ele>501</ele>
        <time>2011-04-10T08:19:27Z</time>
      </trkpt>
      <trkpt lat="45.90588" lon="6.15799">
        <ele>501</ele>
        <time>2011-04-10T08:19:28Z</time>
      </trkpt>
      <trkpt lat="45.90588" lon="6.15801">
        <ele>500</ele>
        <time>2011-04-10T08:19:29Z</time>
      </trkpt>
      <trkpt lat="45.90588" lon="6.15804">
        <ele>500</ele>
        <time>2011-04-10T08:19:30Z</time>
      </trkpt>
      <trkpt lat="45.90588" lon="6.15805">
        <ele>500</ele>
        <time>2011-04-10T08:19:31Z</time>
      </trkpt>
      <trkpt lat="45.90588" lon="6.15807">
        <ele>499</ele>
        <time>2011-04-10T08:19:32Z</time>
      </trkpt>
      <trkpt lat="45.90588" lon="6.15809">
        <ele>498</ele>
        <time>2011-04-10T08:19:33Z</time>
      </trkpt>
      <trkpt lat="45.90588" lon="6.15811">
        <ele>498</ele>
        <time>2011-04-10T08:19:34Z</time>
      </trkpt>
      <trkpt lat="45.90588" lon="6.15814">
        <ele>497</ele>
        <time>2011-04-10T08:19:35Z</time>
      </trkpt>
      <trkpt lat="45.90588" lon="6.15815">
        <ele>497</ele>
        <time>2011-04-10T08:19:36Z</time>
      </trkpt>
      <trkpt lat="45.90588" lon="6.15818">
        <ele>497</ele>
        <time>2011-04-10T08:19:37Z</time>
      </trkpt>
      <trkpt lat="45.90588" lon="6.15821">
        <ele>499</ele>
        <time>2011-04-10T08:19:38Z</time>
      </trkpt>
      <trkpt lat="45.90587" lon="6.15822">
        <ele>498</ele>
        <time>2011-04-10T08:19:39Z</time>
      </trkpt>
      <trkpt lat="45.90587" lon="6.15823">
        <ele>499</ele>
        <time>2011-04-10T08:19:40Z</time>
      </trkpt>
      <trkpt lat="45.90587" lon="6.15825">
        <ele>500</ele>
        <time>2011-04-10T08:19:41Z</time>
      </trkpt>
      <trkpt lat="45.90587" lon="6.15826">
        <ele>501</ele>
        <time>2011-04-10T08:19:42Z</time>
      </trkpt>
      <trkpt lat="45.90587" lon="6.15827">
        <ele>501</ele>
        <time>2011-04-10T08:19:43Z</time>
      </trkpt>
      <trkpt lat="45.90587" lon="6.15829">
        <ele>501</ele>
        <time>2011-04-10T08:19:44Z</time>
      </trkpt>
      <trkpt lat="45.90587" lon="6.1583">
        <ele>501</ele>
        <time>2011-04-10T08:19:45Z</time>
      </trkpt>
      <trkpt lat="45.90586" lon="6.15832">
        <ele>501</ele>
        <time>2011-04-10T08:19:46Z</time>
      </trkpt>
      <trkpt lat="45.90586" lon="6.15834">
        <ele>502</ele>
        <time>2011-04-10T08:19:47Z</time>
      </trkpt>
      <trkpt lat="45.90586" lon="6.15836">
        <ele>502</ele>
        <time>2011-04-10T08:19:48Z</time>
      </trkpt>
      <trkpt lat="45.90586" lon="6.15837">
        <ele>502</ele>
        <time>2011-04-10T08:19:49Z</time>
      </trkpt>
      <trkpt lat="45.90585" lon="6.15838">
        <ele>502</ele>
        <time>2011-04-10T08:19:50Z</time>
      </trkpt>
      <trkpt lat="45.90584" lon="6.15839">
        <ele>502</ele>
        <time>2011-04-10T08:19:51Z</time>
      </trkpt>
      <trkpt lat="45.90583" lon="6.1584">
        <ele>502</ele>
        <time>2011-04-10T08:19:52Z</time>
      </trkpt>
      <trkpt lat="45.90582" lon="6.15841">
        <ele>502</ele>
        <time>2011-04-10T08:19:53Z</time>
      </trkpt>
      <trkpt lat="45.90581" lon="6.15841">
        <ele>502</ele>
        <time>2011-04-10T08:19:54Z</time>
      </trkpt>
      <trkpt lat="45.90581" lon="6.15842">
        <ele>501</ele>
        <time>2011-04-10T08:19:55Z</time>
      </trkpt>
      <trkpt lat="45.9058" lon="6.15842">
        <ele>501</ele>
        <time>2011-04-10T08:19:56Z</time>
      </trkpt>
      <trkpt lat="45.90577" lon="6.15845">
        <ele>501</ele>
        <time>2011-04-10T08:19:58Z</time>
      </trkpt>
      <trkpt lat="45.90577" lon="6.15847">
        <ele>501</ele>
        <time>2011-04-10T08:19:59Z</time>
      </trkpt>
      <trkpt lat="45.90575" lon="6.15848">
        <ele>501</ele>
        <time>2011-04-10T08:20:00Z</time>
      </trkpt>
      <trkpt lat="45.90572" lon="6.15852">
        <ele>499</ele>
        <time>2011-04-10T08:20:02Z</time>
      </trkpt>
      <trkpt lat="45.9057" lon="6.15853">
        <ele>499</ele>
        <time>2011-04-10T08:20:03Z</time>
      </trkpt>
      <trkpt lat="45.9057" lon="6.15855">
        <ele>500</ele>
        <time>2011-04-10T08:20:04Z</time>
      </trkpt>
      <trkpt lat="45.90569" lon="6.15853">
        <ele>500</ele>
        <time>2011-04-10T08:20:05Z</time>
      </trkpt>
      <trkpt lat="45.90568" lon="6.15855">
        <ele>500</ele>
        <time>2011-04-10T08:20:06Z</time>
      </trkpt>
      <trkpt lat="45.90566" lon="6.15856">
        <ele>500</ele>
        <time>2011-04-10T08:20:07Z</time>
      </trkpt>
      <trkpt lat="45.90566" lon="6.15857">
        <ele>499</ele>
        <time>2011-04-10T08:20:08Z</time>
      </trkpt>
      <trkpt lat="45.90564" lon="6.15857">
        <ele>499</ele>
        <time>2011-04-10T08:20:09Z</time>
      </trkpt>
      <trkpt lat="45.90564" lon="6.15859">
        <ele>500</ele>
        <time>2011-04-10T08:20:10Z</time>
      </trkpt>
      <trkpt lat="45.90564" lon="6.1586">
        <ele>500</ele>
        <time>2011-04-10T08:20:11Z</time>
      </trkpt>
      <trkpt lat="45.90563" lon="6.15859">
        <ele>501</ele>
        <time>2011-04-10T08:20:12Z</time>
      </trkpt>
      <trkpt lat="45.90562" lon="6.15859">
        <ele>501</ele>
        <time>2011-04-10T08:20:13Z</time>
      </trkpt>
      <trkpt lat="45.90559" lon="6.15859">
        <ele>501</ele>
        <time>2011-04-10T08:20:15Z</time>
      </trkpt>
      <trkpt lat="45.90559" lon="6.1586">
        <ele>500</ele>
        <time>2011-04-10T08:20:16Z</time>
      </trkpt>
      <trkpt lat="45.90558" lon="6.15862">
        <ele>500</ele>
        <time>2011-04-10T08:20:17Z</time>
      </trkpt>
      <trkpt lat="45.90557" lon="6.15865">
        <ele>499</ele>
        <time>2011-04-10T08:20:18Z</time>
      </trkpt>
      <trkpt lat="45.90555" lon="6.15866">
        <ele>499</ele>
        <time>2011-04-10T08:20:19Z</time>
      </trkpt>
      <trkpt lat="45.90554" lon="6.15868">
        <ele>499</ele>
        <time>2011-04-10T08:20:20Z</time>
      </trkpt>
      <trkpt lat="45.90552" lon="6.1587">
        <ele>498</ele>
        <time>2011-04-10T08:20:21Z</time>
      </trkpt>
      <trkpt lat="45.90552" lon="6.15871">
        <ele>498</ele>
        <time>2011-04-10T08:20:22Z</time>
      </trkpt>
      <trkpt lat="45.9055" lon="6.15872">
        <ele>498</ele>
        <time>2011-04-10T08:20:23Z</time>
      </trkpt>
      <trkpt lat="45.90549" lon="6.15873">
        <ele>498</ele>
        <time>2011-04-10T08:20:24Z</time>
      </trkpt>
      <trkpt lat="45.90548" lon="6.15872">
        <ele>498</ele>
        <time>2011-04-10T08:20:25Z</time>
      </trkpt>
      <trkpt lat="45.90546" lon="6.15874">
        <ele>497</ele>
        <time>2011-04-10T08:20:26Z</time>
      </trkpt>
      <trkpt lat="45.90544" lon="6.15875">
        <ele>498</ele>
        <time>2011-04-10T08:20:27Z</time>
      </trkpt>
      <trkpt lat="45.90542" lon="6.15877">
        <ele>499</ele>
        <time>2011-04-10T08:20:28Z</time>
      </trkpt>
      <trkpt lat="45.9054" lon="6.15879">
        <ele>499</ele>
        <time>2011-04-10T08:20:29Z</time>
      </trkpt>
      <trkpt lat="45.90539" lon="6.15879">
        <ele>500</ele>
        <time>2011-04-10T08:20:30Z</time>
      </trkpt>
      <trkpt lat="45.90538" lon="6.1588">
        <ele>500</ele>
        <time>2011-04-10T08:20:31Z</time>
      </trkpt>
      <trkpt lat="45.90536" lon="6.1588">
        <ele>501</ele>
        <time>2011-04-10T08:20:32Z</time>
      </trkpt>
      <trkpt lat="45.90534" lon="6.15879">
        <ele>501</ele>
        <time>2011-04-10T08:20:33Z</time>
      </trkpt>
      <trkpt lat="45.90533" lon="6.15879">
        <ele>501</ele>
        <time>2011-04-10T08:20:34Z</time>
      </trkpt>
      <trkpt lat="45.90532" lon="6.1588">
        <ele>500</ele>
        <time>2011-04-10T08:20:35Z</time>
      </trkpt>
      <trkpt lat="45.9053" lon="6.15881">
        <ele>499</ele>
        <time>2011-04-10T08:20:36Z</time>
      </trkpt>
      <trkpt lat="45.90529" lon="6.15882">
        <ele>499</ele>
        <time>2011-04-10T08:20:37Z</time>
      </trkpt>
      <trkpt lat="45.90527" lon="6.15883">
        <ele>497</ele>
        <time>2011-04-10T08:20:38Z</time>
      </trkpt>
      <trkpt lat="45.90526" lon="6.15884">
        <ele>498</ele>
        <time>2011-04-10T08:20:39Z</time>
      </trkpt>
      <trkpt lat="45.90525" lon="6.15885">
        <ele>497</ele>
        <time>2011-04-10T08:20:40Z</time>
      </trkpt>
      <trkpt lat="45.90524" lon="6.15886">
        <ele>498</ele>
        <time>2011-04-10T08:20:41Z</time>
      </trkpt>
      <trkpt lat="45.90523" lon="6.15887">
        <ele>497</ele>
        <time>2011-04-10T08:20:42Z</time>
      </trkpt>
      <trkpt lat="45.90522" lon="6.15887">
        <ele>498</ele>
        <time>2011-04-10T08:20:43Z</time>
      </trkpt>
      <trkpt lat="45.9052" lon="6.15888">
        <ele>498</ele>
        <time>2011-04-10T08:20:44Z</time>
      </trkpt>
      <trkpt lat="45.90519" lon="6.15889">
        <ele>497</ele>
        <time>2011-04-10T08:20:45Z</time>
      </trkpt>
      <trkpt lat="45.90517" lon="6.1589">
        <ele>497</ele>
        <time>2011-04-10T08:20:46Z</time>
      </trkpt>
      <trkpt lat="45.90517" lon="6.1589">
        <ele>497</ele>
        <time>2011-04-10T08:20:47Z</time>
      </trkpt>
      <trkpt lat="45.90515" lon="6.15892">
        <ele>497</ele>
        <time>2011-04-10T08:20:48Z</time>
      </trkpt>
      <trkpt lat="45.90514" lon="6.15895">
        <ele>495</ele>
        <time>2011-04-10T08:20:50Z</time>
      </trkpt>
      <trkpt lat="45.90513" lon="6.15896">
        <ele>495</ele>
        <time>2011-04-10T08:20:51Z</time>
      </trkpt>
      <trkpt lat="45.90512" lon="6.15897">
        <ele>495</ele>
        <time>2011-04-10T08:20:52Z</time>
      </trkpt>
      <trkpt lat="45.90511" lon="6.15897">
        <ele>495</ele>
        <time>2011-04-10T08:20:53Z</time>
      </trkpt>
      <trkpt lat="45.90511" lon="6.15899">
        <ele>495</ele>
        <time>2011-04-10T08:20:54Z</time>
      </trkpt>
      <trkpt lat="45.9051" lon="6.15901">
        <ele>495</ele>
        <time>2011-04-10T08:20:55Z</time>
      </trkpt>
      <trkpt lat="45.90509" lon="6.15905">
        <ele>496</ele>
        <time>2011-04-10T08:20:57Z</time>
      </trkpt>
      <trkpt lat="45.90507" lon="6.15906">
        <ele>496</ele>
        <time>2011-04-10T08:20:58Z</time>
      </trkpt>
      <trkpt lat="45.90507" lon="6.15907">
        <ele>496</ele>
        <time>2011-04-10T08:20:59Z</time>
      </trkpt>
      <trkpt lat="45.90506" lon="6.15909">
        <ele>496</ele>
        <time>2011-04-10T08:21:00Z</time>
      </trkpt>
      <trkpt lat="45.90504" lon="6.15911">
        <ele>496</ele>
        <time>2011-04-10T08:21:02Z</time>
      </trkpt>
      <trkpt lat="45.90503" lon="6.15911">
        <ele>495</ele>
        <time>2011-04-10T08:21:03Z</time>
      </trkpt>
      <trkpt lat="45.90502" lon="6.15914">
        <ele>495</ele>
        <time>2011-04-10T08:21:04Z</time>
      </trkpt>
      <trkpt lat="45.90501" lon="6.15912">
        <ele>496</ele>
        <time>2011-04-10T08:21:05Z</time>
      </trkpt>
      <trkpt lat="45.90499" lon="6.15913">
        <ele>496</ele>
        <time>2011-04-10T08:21:06Z</time>
      </trkpt>
      <trkpt lat="45.90497" lon="6.15912">
        <ele>497</ele>
        <time>2011-04-10T08:21:07Z</time>
      </trkpt>
      <trkpt lat="45.90496" lon="6.15914">
        <ele>497</ele>
        <time>2011-04-10T08:21:09Z</time>
      </trkpt>
      <trkpt lat="45.90496" lon="6.15915">
        <ele>496</ele>
        <time>2011-04-10T08:21:10Z</time>
      </trkpt>
      <trkpt lat="45.90495" lon="6.15917">
        <ele>497</ele>
        <time>2011-04-10T08:21:11Z</time>
      </trkpt>
      <trkpt lat="45.90493" lon="6.15917">
        <ele>497</ele>
        <time>2011-04-10T08:21:12Z</time>
      </trkpt>
      <trkpt lat="45.90492" lon="6.15919">
        <ele>497</ele>
        <time>2011-04-10T08:21:13Z</time>
      </trkpt>
      <trkpt lat="45.90491" lon="6.15922">
        <ele>497</ele>
        <time>2011-04-10T08:21:14Z</time>
      </trkpt>
      <trkpt lat="45.90489" lon="6.15924">
        <ele>497</ele>
        <time>2011-04-10T08:21:15Z</time>
      </trkpt>
      <trkpt lat="45.90488" lon="6.15925">
        <ele>497</ele>
        <time>2011-04-10T08:21:16Z</time>
      </trkpt>
      <trkpt lat="45.90487" lon="6.15926">
        <ele>499</ele>
        <time>2011-04-10T08:21:17Z</time>
      </trkpt>
      <trkpt lat="45.90486" lon="6.15928">
        <ele>498</ele>
        <time>2011-04-10T08:21:18Z</time>
      </trkpt>
      <trkpt lat="45.90484" lon="6.1593">
        <ele>498</ele>
        <time>2011-04-10T08:21:19Z</time>
      </trkpt>
      <trkpt lat="45.90483" lon="6.15929">
        <ele>499</ele>
        <time>2011-04-10T08:21:20Z</time>
      </trkpt>
      <trkpt lat="45.90483" lon="6.15933">
        <ele>502</ele>
        <time>2011-04-10T08:21:40Z</time>
      </trkpt>
      <trkpt lat="45.90481" lon="6.15934">
        <ele>502</ele>
        <time>2011-04-10T08:21:41Z</time>
      </trkpt>
      <trkpt lat="45.90478" lon="6.15935">
        <ele>501</ele>
        <time>2011-04-10T08:21:42Z</time>
      </trkpt>
      <trkpt lat="45.90476" lon="6.15938">
        <ele>500</ele>
        <time>2011-04-10T08:21:43Z</time>
      </trkpt>
      <trkpt lat="45.90474" lon="6.15939">
        <ele>500</ele>
        <time>2011-04-10T08:21:44Z</time>
      </trkpt>
      <trkpt lat="45.90473" lon="6.1594">
        <ele>500</ele>
        <time>2011-04-10T08:21:45Z</time>
      </trkpt>
      <trkpt lat="45.9047" lon="6.15943">
        <ele>499</ele>
        <time>2011-04-10T08:21:46Z</time>
      </trkpt>
      <trkpt lat="45.90468" lon="6.15943">
        <ele>498</ele>
        <time>2011-04-10T08:21:47Z</time>
      </trkpt>
      <trkpt lat="45.90466" lon="6.15944">
        <ele>498</ele>
        <time>2011-04-10T08:21:48Z</time>
      </trkpt>
      <trkpt lat="45.90465" lon="6.15947">
        <ele>497</ele>
        <time>2011-04-10T08:21:49Z</time>
      </trkpt>
      <trkpt lat="45.90463" lon="6.15947">
        <ele>497</ele>
        <time>2011-04-10T08:21:50Z</time>
      </trkpt>
      <trkpt lat="45.90462" lon="6.1595">
        <ele>497</ele>
        <time>2011-04-10T08:21:51Z</time>
      </trkpt>
      <trkpt lat="45.90462" lon="6.15953">
        <ele>497</ele>
        <time>2011-04-10T08:21:52Z</time>
      </trkpt>
      <trkpt lat="45.90463" lon="6.15953">
        <ele>497</ele>
        <time>2011-04-10T08:21:53Z</time>
      </trkpt>
      <trkpt lat="45.90462" lon="6.15953">
        <ele>497</ele>
        <time>2011-04-10T08:21:54Z</time>
      </trkpt>
      <trkpt lat="45.90463" lon="6.15954">
        <ele>496</ele>
        <time>2011-04-10T08:21:55Z</time>
      </trkpt>
      <trkpt lat="45.90464" lon="6.15952">
        <ele>496</ele>
        <time>2011-04-10T08:21:56Z</time>
      </trkpt>
      <trkpt lat="45.90465" lon="6.15953">
        <ele>496</ele>
        <time>2011-04-10T08:21:57Z</time>
      </trkpt>
      <trkpt lat="45.90466" lon="6.15953">
        <ele>496</ele>
        <time>2011-04-10T08:21:58Z</time>
      </trkpt>
      <trkpt lat="45.90467" lon="6.15953">
        <ele>496</ele>
        <time>2011-04-10T08:21:59Z</time>
      </trkpt>
      <trkpt lat="45.90467" lon="6.15953">
        <ele>496</ele>
        <time>2011-04-10T08:22:00Z</time>
      </trkpt>
      <trkpt lat="45.90469" lon="6.15954">
        <ele>496</ele>
        <time>2011-04-10T08:22:02Z</time>
      </trkpt>
      <trkpt lat="45.90471" lon="6.1595">
        <ele>495</ele>
        <time>2011-04-10T08:22:04Z</time>
      </trkpt>
      <trkpt lat="45.90473" lon="6.15947">
        <ele>495</ele>
        <time>2011-04-10T08:22:05Z</time>
      </trkpt>
      <trkpt lat="45.90474" lon="6.15948">
        <ele>495</ele>
        <time>2011-04-10T08:22:06Z</time>
      </trkpt>
      <trkpt lat="45.90475" lon="6.15947">
        <ele>494</ele>
        <time>2011-04-10T08:22:07Z</time>
      </trkpt>
      <trkpt lat="45.90476" lon="6.15946">
        <ele>495</ele>
        <time>2011-04-10T08:22:08Z</time>
      </trkpt>
      <trkpt lat="45.90477" lon="6.15945">
        <ele>495</ele>
        <time>2011-04-10T08:22:09Z</time>
      </trkpt>
      <trkpt lat="45.90477" lon="6.15944">
        <ele>495</ele>
        <time>2011-04-10T08:22:10Z</time>
      </trkpt>
      <trkpt lat="45.90478" lon="6.15941">
        <ele>495</ele>
        <time>2011-04-10T08:22:11Z</time>
      </trkpt>
      <trkpt lat="45.9048" lon="6.1594">
        <ele>496</ele>
        <time>2011-04-10T08:22:12Z</time>
      </trkpt>
      <trkpt lat="45.90482" lon="6.15938">
        <ele>496</ele>
        <time>2011-04-10T08:22:13Z</time>
      </trkpt>
      <trkpt lat="45.90484" lon="6.15937">
        <ele>496</ele>
        <time>2011-04-10T08:22:14Z</time>
      </trkpt>
      <trkpt lat="45.90485" lon="6.15937">
        <ele>496</ele>
        <time>2011-04-10T08:22:15Z</time>
      </trkpt>
      <trkpt lat="45.90487" lon="6.15935">
        <ele>497</ele>
        <time>2011-04-10T08:22:16Z</time>
      </trkpt>
      <trkpt lat="45.90488" lon="6.15933">
        <ele>496</ele>
        <time>2011-04-10T08:22:17Z</time>
      </trkpt>
      <trkpt lat="45.9049" lon="6.1593">
        <ele>497</ele>
        <time>2011-04-10T08:22:18Z</time>
      </trkpt>
      <trkpt lat="45.90491" lon="6.15929">
        <ele>496</ele>
        <time>2011-04-10T08:22:19Z</time>
      </trkpt>
      <trkpt lat="45.90492" lon="6.15928">
        <ele>496</ele>
        <time>2011-04-10T08:22:20Z</time>
      </trkpt>
      <trkpt lat="45.90494" lon="6.15928">
        <ele>496</ele>
        <time>2011-04-10T08:22:21Z</time>
      </trkpt>
      <trkpt lat="45.90496" lon="6.15926">
        <ele>496</ele>
        <time>2011-04-10T08:22:22Z</time>
      </trkpt>
      <trkpt lat="45.90497" lon="6.15925">
        <ele>496</ele>
        <time>2011-04-10T08:22:23Z</time>
      </trkpt>
      <trkpt lat="45.90498" lon="6.15924">
        <ele>496</ele>
        <time>2011-04-10T08:22:24Z</time>
      </trkpt>
      <trkpt lat="45.90499" lon="6.15923">
        <ele>496</ele>
        <time>2011-04-10T08:22:25Z</time>
      </trkpt>
      <trkpt lat="45.905" lon="6.15922">
        <ele>495</ele>
        <time>2011-04-10T08:22:26Z</time>
      </trkpt>
      <trkpt lat="45.90501" lon="6.15921">
        <ele>495</ele>
        <time>2011-04-10T08:22:27Z</time>
      </trkpt>
      <trkpt lat="45.90502" lon="6.15919">
        <ele>496</ele>
        <time>2011-04-10T08:22:28Z</time>
      </trkpt>
      <trkpt lat="45.90503" lon="6.15918">
        <ele>496</ele>
        <time>2011-04-10T08:22:29Z</time>
      </trkpt>
      <trkpt lat="45.90503" lon="6.15917">
        <ele>496</ele>
        <time>2011-04-10T08:22:30Z</time>
      </trkpt>
      <trkpt lat="45.90504" lon="6.15916">
        <ele>496</ele>
        <time>2011-04-10T08:22:31Z</time>
      </trkpt>
      <trkpt lat="45.90505" lon="6.15915">
        <ele>496</ele>
        <time>2011-04-10T08:22:32Z</time>
      </trkpt>
      <trkpt lat="45.90506" lon="6.15914">
        <ele>496</ele>
        <time>2011-04-10T08:22:33Z</time>
      </trkpt>
      <trkpt lat="45.90507" lon="6.15912">
        <ele>496</ele>
        <time>2011-04-10T08:22:34Z</time>
      </trkpt>
      <trkpt lat="45.90509" lon="6.15911">
        <ele>495</ele>
        <time>2011-04-10T08:22:35Z</time>
      </trkpt>
      <trkpt lat="45.90511" lon="6.15911">
        <ele>495</ele>
        <time>2011-04-10T08:22:36Z</time>
      </trkpt>
      <trkpt lat="45.90513" lon="6.15911">
        <ele>495</ele>
        <time>2011-04-10T08:22:37Z</time>
      </trkpt>
      <trkpt lat="45.90514" lon="6.1591">
        <ele>495</ele>
        <time>2011-04-10T08:22:38Z</time>
      </trkpt>
      <trkpt lat="45.90516" lon="6.15908">
        <ele>495</ele>
        <time>2011-04-10T08:22:39Z</time>
      </trkpt>
      <trkpt lat="45.90518" lon="6.15907">
        <ele>495</ele>
        <time>2011-04-10T08:22:40Z</time>
      </trkpt>
      <trkpt lat="45.9052" lon="6.15905">
        <ele>495</ele>
        <time>2011-04-10T08:22:41Z</time>
      </trkpt>
      <trkpt lat="45.90521" lon="6.15902">
        <ele>495</ele>
        <time>2011-04-10T08:22:42Z</time>
      </trkpt>
      <trkpt lat="45.90523" lon="6.159">
        <ele>495</ele>
        <time>2011-04-10T08:22:43Z</time>
      </trkpt>
      <trkpt lat="45.90525" lon="6.15896">
        <ele>496</ele>
        <time>2011-04-10T08:22:44Z</time>
      </trkpt>
      <trkpt lat="45.90526" lon="6.15895">
        <ele>495</ele>
        <time>2011-04-10T08:22:45Z</time>
      </trkpt>
      <trkpt lat="45.90527" lon="6.15895">
        <ele>495</ele>
        <time>2011-04-10T08:22:46Z</time>
      </trkpt>
      <trkpt lat="45.90529" lon="6.15893">
        <ele>495</ele>
        <time>2011-04-10T08:22:47Z</time>
      </trkpt>
      <trkpt lat="45.9053" lon="6.1589">
        <ele>495</ele>
        <time>2011-04-10T08:22:48Z</time>
      </trkpt>
      <trkpt lat="45.90532" lon="6.15889">
        <ele>494</ele>
        <time>2011-04-10T08:22:49Z</time>
      </trkpt>
      <trkpt lat="45.90534" lon="6.15889">
        <ele>494</ele>
        <time>2011-04-10T08:22:50Z</time>
      </trkpt>
      <trkpt lat="45.90534" lon="6.15889">
        <ele>494</ele>
        <time>2011-04-10T08:22:51Z</time>
      </trkpt>
      <trkpt lat="45.90536" lon="6.15888">
        <ele>494</ele>
        <time>2011-04-10T08:22:52Z</time>
      </trkpt>
      <trkpt lat="45.90536" lon="6.15886">
        <ele>497</ele>
        <time>2011-04-10T08:22:53Z</time>
      </trkpt>
      <trkpt lat="45.90537" lon="6.15887">
        <ele>498</ele>
        <time>2011-04-10T08:22:54Z</time>
      </trkpt>
      <trkpt lat="45.90538" lon="6.15886">
        <ele>500</ele>
        <time>2011-04-10T08:22:55Z</time>
      </trkpt>
      <trkpt lat="45.90539" lon="6.15885">
        <ele>501</ele>
        <time>2011-04-10T08:22:56Z</time>
      </trkpt>
      <trkpt lat="45.9054" lon="6.15883">
        <ele>502</ele>
        <time>2011-04-10T08:22:57Z</time>
      </trkpt>
      <trkpt lat="45.9054" lon="6.15883">
        <ele>502</ele>
        <time>2011-04-10T08:22:58Z</time>
      </trkpt>
      <trkpt lat="45.90541" lon="6.15882">
        <ele>502</ele>
        <time>2011-04-10T08:22:59Z</time>
      </trkpt>
      <trkpt lat="45.90543" lon="6.15882">
        <ele>502</ele>
        <time>2011-04-10T08:23:00Z</time>
      </trkpt>
      <trkpt lat="45.90544" lon="6.15881">
        <ele>503</ele>
        <time>2011-04-10T08:23:02Z</time>
      </trkpt>
      <trkpt lat="45.90546" lon="6.1588">
        <ele>503</ele>
        <time>2011-04-10T08:23:03Z</time>
      </trkpt>
      <trkpt lat="45.90547" lon="6.1588">
        <ele>502</ele>
        <time>2011-04-10T08:23:04Z</time>
      </trkpt>
      <trkpt lat="45.90548" lon="6.15879">
        <ele>502</ele>
        <time>2011-04-10T08:23:05Z</time>
      </trkpt>
      <trkpt lat="45.90549" lon="6.15877">
        <ele>502</ele>
        <time>2011-04-10T08:23:07Z</time>
      </trkpt>
      <trkpt lat="45.90549" lon="6.15875">
        <ele>503</ele>
        <time>2011-04-10T08:23:08Z</time>
      </trkpt>
      <trkpt lat="45.9055" lon="6.15874">
        <ele>503</ele>
        <time>2011-04-10T08:23:09Z</time>
      </trkpt>
      <trkpt lat="45.90552" lon="6.15874">
        <ele>502</ele>
        <time>2011-04-10T08:23:10Z</time>
      </trkpt>
      <trkpt lat="45.90554" lon="6.15873">
        <ele>502</ele>
        <time>2011-04-10T08:23:11Z</time>
      </trkpt>
      <trkpt lat="45.90555" lon="6.15871">
        <ele>503</ele>
        <time>2011-04-10T08:23:12Z</time>
      </trkpt>
      <trkpt lat="45.90556" lon="6.1587">
        <ele>503</ele>
        <time>2011-04-10T08:23:13Z</time>
      </trkpt>
      <trkpt lat="45.90556" lon="6.15868">
        <ele>503</ele>
        <time>2011-04-10T08:23:14Z</time>
      </trkpt>
      <trkpt lat="45.90558" lon="6.15865">
        <ele>503</ele>
        <time>2011-04-10T08:23:15Z</time>
      </trkpt>
      <trkpt lat="45.90558" lon="6.15864">
        <ele>503</ele>
        <time>2011-04-10T08:23:16Z</time>
      </trkpt>
      <trkpt lat="45.90559" lon="6.15862">
        <ele>503</ele>
        <time>2011-04-10T08:23:17Z</time>
      </trkpt>
      <trkpt lat="45.90559" lon="6.1586">
        <ele>502</ele>
        <time>2011-04-10T08:23:19Z</time>
      </trkpt>
      <trkpt lat="45.90562" lon="6.15858">
        <ele>502</ele>
        <time>2011-04-10T08:23:20Z</time>
      </trkpt>
      <trkpt lat="45.90563" lon="6.15857">
        <ele>501</ele>
        <time>2011-04-10T08:23:21Z</time>
      </trkpt>
      <trkpt lat="45.90564" lon="6.15854">
        <ele>499</ele>
        <time>2011-04-10T08:23:22Z</time>
      </trkpt>
      <trkpt lat="45.90565" lon="6.15853">
        <ele>498</ele>
        <time>2011-04-10T08:23:23Z</time>
      </trkpt>
      <trkpt lat="45.90566" lon="6.15853">
        <ele>497</ele>
        <time>2011-04-10T08:23:24Z</time>
      </trkpt>
      <trkpt lat="45.90568" lon="6.15853">
        <ele>497</ele>
        <time>2011-04-10T08:23:25Z</time>
      </trkpt>
      <trkpt lat="45.90569" lon="6.15856">
        <ele>497</ele>
        <time>2011-04-10T08:23:26Z</time>
      </trkpt>
      <trkpt lat="45.90571" lon="6.15856">
        <ele>497</ele>
        <time>2011-04-10T08:23:27Z</time>
      </trkpt>
      <trkpt lat="45.90572" lon="6.15858">
        <ele>497</ele>
        <time>2011-04-10T08:23:28Z</time>
      </trkpt>
      <trkpt lat="45.90574" lon="6.15859">
        <ele>497</ele>
        <time>2011-04-10T08:23:29Z</time>
      </trkpt>
      <trkpt lat="45.90576" lon="6.15861">
        <ele>497</ele>
        <time>2011-04-10T08:23:30Z</time>
      </trkpt>
      <trkpt lat="45.90577" lon="6.15861">
        <ele>497</ele>
        <time>2011-04-10T08:23:31Z</time>
      </trkpt>
      <trkpt lat="45.90579" lon="6.15859">
        <ele>497</ele>
        <time>2011-04-10T08:23:32Z</time>
      </trkpt>
      <trkpt lat="45.90581" lon="6.15857">
        <ele>496</ele>
        <time>2011-04-10T08:23:33Z</time>
      </trkpt>
      <trkpt lat="45.90583" lon="6.15855">
        <ele>496</ele>
        <time>2011-04-10T08:23:34Z</time>
      </trkpt>
      <trkpt lat="45.90584" lon="6.15852">
        <ele>494</ele>
        <time>2011-04-10T08:23:35Z</time>
      </trkpt>
      <trkpt lat="45.90585" lon="6.15849">
        <ele>495</ele>
        <time>2011-04-10T08:23:36Z</time>
      </trkpt>
      <trkpt lat="45.90586" lon="6.15847">
        <ele>495</ele>
        <time>2011-04-10T08:23:37Z</time>
      </trkpt>
      <trkpt lat="45.90586" lon="6.15844">
        <ele>495</ele>
        <time>2011-04-10T08:23:38Z</time>
      </trkpt>
      <trkpt lat="45.90587" lon="6.15841">
        <ele>495</ele>
        <time>2011-04-10T08:23:39Z</time>
      </trkpt>
      <trkpt lat="45.90587" lon="6.15838">
        <ele>494</ele>
        <time>2011-04-10T08:23:40Z</time>
      </trkpt>
      <trkpt lat="45.90586" lon="6.15837">
        <ele>494</ele>
        <time>2011-04-10T08:23:41Z</time>
      </trkpt>
      <trkpt lat="45.90586" lon="6.15834">
        <ele>494</ele>
        <time>2011-04-10T08:23:42Z</time>
      </trkpt>
      <trkpt lat="45.90586" lon="6.15831">
        <ele>495</ele>
        <time>2011-04-10T08:23:43Z</time>
      </trkpt>
      <trkpt lat="45.90586" lon="6.15829">
        <ele>495</ele>
        <time>2011-04-10T08:23:44Z</time>
      </trkpt>
      <trkpt lat="45.90586" lon="6.15827">
        <ele>495</ele>
        <time>2011-04-10T08:23:45Z</time>
      </trkpt>
      <trkpt lat="45.90586" lon="6.15825">
        <ele>495</ele>
        <time>2011-04-10T08:23:46Z</time>
      </trkpt>
      <trkpt lat="45.90587" lon="6.15821">
        <ele>495</ele>
        <time>2011-04-10T08:23:47Z</time>
      </trkpt>
      <trkpt lat="45.90588" lon="6.15818">
        <ele>495</ele>
        <time>2011-04-10T08:23:48Z</time>
      </trkpt>
      <trkpt lat="45.90589" lon="6.15815">
        <ele>495</ele>
        <time>2011-04-10T08:23:49Z</time>
      </trkpt>
      <trkpt lat="45.90589" lon="6.15812">
        <ele>495</ele>
        <time>2011-04-10T08:23:50Z</time>
      </trkpt>
      <trkpt lat="45.9059" lon="6.15809">
        <ele>495</ele>
        <time>2011-04-10T08:23:51Z</time>
      </trkpt>
      <trkpt lat="45.90591" lon="6.15807">
        <ele>495</ele>
        <time>2011-04-10T08:23:52Z</time>
      </trkpt>
      <trkpt lat="45.90592" lon="6.15805">
        <ele>495</ele>
        <time>2011-04-10T08:23:53Z</time>
      </trkpt>
      <trkpt lat="45.90592" lon="6.15803">
        <ele>494</ele>
        <time>2011-04-10T08:23:54Z</time>
      </trkpt>
      <trkpt lat="45.90593" lon="6.15801">
        <ele>495</ele>
        <time>2011-04-10T08:23:55Z</time>
      </trkpt>
      <trkpt lat="45.90594" lon="6.15799">
        <ele>494</ele>
        <time>2011-04-10T08:23:56Z</time>
      </trkpt>
      <trkpt lat="45.90596" lon="6.15798">
        <ele>494</ele>
        <time>2011-04-10T08:23:57Z</time>
      </trkpt>
      <trkpt lat="45.90597" lon="6.15797">
        <ele>494</ele>
        <time>2011-04-10T08:23:58Z</time>
      </trkpt>
      <trkpt lat="45.90598" lon="6.15796">
        <ele>494</ele>
        <time>2011-04-10T08:23:59Z</time>
      </trkpt>
      <trkpt lat="45.90598" lon="6.15795">
        <ele>494</ele>
        <time>2011-04-10T08:24:00Z</time>
      </trkpt>
      <trkpt lat="45.90601" lon="6.15793">
        <ele>493</ele>
        <time>2011-04-10T08:24:02Z</time>
      </trkpt>
      <trkpt lat="45.90603" lon="6.15792">
        <ele>493</ele>
        <time>2011-04-10T08:24:03Z</time>
      </trkpt>
      <trkpt lat="45.90605" lon="6.15792">
        <ele>493</ele>
        <time>2011-04-10T08:24:04Z</time>
      </trkpt>
      <trkpt lat="45.90606" lon="6.15791">
        <ele>493</ele>
        <time>2011-04-10T08:24:05Z</time>
      </trkpt>
      <trkpt lat="45.90607" lon="6.15791">
        <ele>493</ele>
        <time>2011-04-10T08:24:06Z</time>
      </trkpt>
      <trkpt lat="45.90609" lon="6.15791">
        <ele>493</ele>
        <time>2011-04-10T08:24:07Z</time>
      </trkpt>
      <trkpt lat="45.90611" lon="6.15791">
        <ele>493</ele>
        <time>2011-04-10T08:24:08Z</time>
      </trkpt>
      <trkpt lat="45.90613" lon="6.1579">
        <ele>494</ele>
        <time>2011-04-10T08:24:09Z</time>
      </trkpt>
      <trkpt lat="45.90614" lon="6.1579">
        <ele>494</ele>
        <time>2011-04-10T08:24:10Z</time>
      </trkpt>
      <trkpt lat="45.90617" lon="6.15789">
        <ele>494</ele>
        <time>2011-04-10T08:24:12Z</time>
      </trkpt>
      <trkpt lat="45.90618" lon="6.15788">
        <ele>494</ele>
        <time>2011-04-10T08:24:13Z</time>
      </trkpt>
      <trkpt lat="45.90618" lon="6.15787">
        <ele>495</ele>
        <time>2011-04-10T08:24:14Z</time>
      </trkpt>
      <trkpt lat="45.9062" lon="6.15785">
        <ele>495</ele>
        <time>2011-04-10T08:24:15Z</time>
      </trkpt>
      <trkpt lat="45.90621" lon="6.15785">
        <ele>495</ele>
        <time>2011-04-10T08:24:16Z</time>
      </trkpt>
      <trkpt lat="45.90623" lon="6.15784">
        <ele>495</ele>
        <time>2011-04-10T08:24:17Z</time>
      </trkpt>
      <trkpt lat="45.90623" lon="6.15785">
        <ele>494</ele>
        <time>2011-04-10T08:24:18Z</time>
      </trkpt>
      <trkpt lat="45.90623" lon="6.15786">
        <ele>494</ele>
        <time>2011-04-10T08:24:19Z</time>
      </trkpt>
      <trkpt lat="45.90623" lon="6.15786">
        <ele>494</ele>
        <time>2011-04-10T08:24:20Z</time>
      </trkpt>
      <trkpt lat="45.9062" lon="6.15786">
        <ele>494</ele>
        <time>2011-04-10T08:24:31Z</time>
      </trkpt>
      <trkpt lat="45.90618" lon="6.15786">
        <ele>493</ele>
        <time>2011-04-10T08:24:32Z</time>
      </trkpt>
      <trkpt lat="45.90616" lon="6.15787">
        <ele>494</ele>
        <time>2011-04-10T08:24:33Z</time>
      </trkpt>
      <trkpt lat="45.90615" lon="6.15787">
        <ele>494</ele>
        <time>2011-04-10T08:24:34Z</time>
      </trkpt>
      <trkpt lat="45.90615" lon="6.15787">
        <ele>494</ele>
        <time>2011-04-10T08:24:34Z</time>
      </trkpt>
      <trkpt lat="45.90615" lon="6.15787">
        <ele>494</ele>
        <time>2011-04-10T08:24:35Z</time>
      </trkpt>
      <trkpt lat="45.90613" lon="6.15787">
        <ele>495</ele>
        <time>2011-04-10T08:24:36Z</time>
      </trkpt>
      <trkpt lat="45.90612" lon="6.15787">
        <ele>495</ele>
        <time>2011-04-10T08:24:37Z</time>
      </trkpt>
      <trkpt lat="45.90611" lon="6.15786">
        <ele>495</ele>
        <time>2011-04-10T08:24:38Z</time>
      </trkpt>
      <trkpt lat="45.90609" lon="6.15786">
        <ele>495</ele>
        <time>2011-04-10T08:24:39Z</time>
      </trkpt>
      <trkpt lat="45.90608" lon="6.15786">
        <ele>495</ele>
        <time>2011-04-10T08:24:40Z</time>
      </trkpt>
      <trkpt lat="45.90607" lon="6.15787">
        <ele>495</ele>
        <time>2011-04-10T08:24:41Z</time>
      </trkpt>
      <trkpt lat="45.90606" lon="6.15787">
        <ele>496</ele>
        <time>2011-04-10T08:24:42Z</time>
      </trkpt>
      <trkpt lat="45.90605" lon="6.15787">
        <ele>496</ele>
        <time>2011-04-10T08:24:43Z</time>
      </trkpt>
      <trkpt lat="45.90603" lon="6.15787">
        <ele>497</ele>
        <time>2011-04-10T08:24:44Z</time>
      </trkpt>
      <trkpt lat="45.90602" lon="6.15787">
        <ele>497</ele>
        <time>2011-04-10T08:24:45Z</time>
      </trkpt>
      <trkpt lat="45.90601" lon="6.15788">
        <ele>497</ele>
        <time>2011-04-10T08:24:46Z</time>
      </trkpt>
      <trkpt lat="45.906" lon="6.15788">
        <ele>497</ele>
        <time>2011-04-10T08:24:47Z</time>
      </trkpt>
      <trkpt lat="45.90598" lon="6.15789">
        <ele>497</ele>
        <time>2011-04-10T08:24:48Z</time>
      </trkpt>
      <trkpt lat="45.90597" lon="6.15789">
        <ele>497</ele>
        <time>2011-04-10T08:24:49Z</time>
      </trkpt>
      <trkpt lat="45.90596" lon="6.1579">
        <ele>497</ele>
        <time>2011-04-10T08:24:50Z</time>
      </trkpt>
      <trkpt lat="45.90595" lon="6.15791">
        <ele>497</ele>
        <time>2011-04-10T08:24:51Z</time>
      </trkpt>
      <trkpt lat="45.90594" lon="6.15793">
        <ele>496</ele>
        <time>2011-04-10T08:24:52Z</time>
      </trkpt>
      <trkpt lat="45.90593" lon="6.15794">
        <ele>496</ele>
        <time>2011-04-10T08:24:53Z</time>
      </trkpt>
      <trkpt lat="45.90592" lon="6.15796">
        <ele>496</ele>
        <time>2011-04-10T08:24:54Z</time>
      </trkpt>
      <trkpt lat="45.90591" lon="6.15797">
        <ele>497</ele>
        <time>2011-04-10T08:24:55Z</time>
      </trkpt>
      <trkpt lat="45.90591" lon="6.15797">
        <ele>497</ele>
        <time>2011-04-10T08:24:56Z</time>
      </trkpt>
      <trkpt lat="45.90591" lon="6.15798">
        <ele>496</ele>
        <time>2011-04-10T08:25:26Z</time>
      </trkpt>
      <trkpt lat="45.90591" lon="6.15799">
        <ele>497</ele>
        <time>2011-04-10T08:25:27Z</time>
      </trkpt>
      <trkpt lat="45.9059" lon="6.15801">
        <ele>497</ele>
        <time>2011-04-10T08:25:31Z</time>
      </trkpt>
      <trkpt lat="45.9059" lon="6.15802">
        <ele>497</ele>
        <time>2011-04-10T08:25:32Z</time>
      </trkpt>
      <trkpt lat="45.90589" lon="6.15804">
        <ele>497</ele>
        <time>2011-04-10T08:25:33Z</time>
      </trkpt>
      <trkpt lat="45.90588" lon="6.15807">
        <ele>497</ele>
        <time>2011-04-10T08:25:39Z</time>
      </trkpt>
      <trkpt lat="45.90588" lon="6.15811">
        <ele>497</ele>
        <time>2011-04-10T08:25:40Z</time>
      </trkpt>
      <trkpt lat="45.90588" lon="6.15814">
        <ele>498</ele>
        <time>2011-04-10T08:25:41Z</time>
      </trkpt>
      <trkpt lat="45.90587" lon="6.15818">
        <ele>498</ele>
        <time>2011-04-10T08:25:42Z</time>
      </trkpt>
      <trkpt lat="45.90587" lon="6.1582">
        <ele>498</ele>
        <time>2011-04-10T08:25:43Z</time>
      </trkpt>
      <trkpt lat="45.90587" lon="6.15823">
        <ele>498</ele>
        <time>2011-04-10T08:25:44Z</time>
      </trkpt>
      <trkpt lat="45.90588" lon="6.15826">
        <ele>497</ele>
        <time>2011-04-10T08:25:45Z</time>
      </trkpt>
      <trkpt lat="45.90587" lon="6.15828">
        <ele>497</ele>
        <time>2011-04-10T08:25:46Z</time>
      </trkpt>
      <trkpt lat="45.90588" lon="6.15829">
        <ele>497</ele>
        <time>2011-04-10T08:25:47Z</time>
      </trkpt>
      <trkpt lat="45.90589" lon="6.1583">
        <ele>497</ele>
        <time>2011-04-10T08:25:48Z</time>
      </trkpt>
      <trkpt lat="45.90588" lon="6.15833">
        <ele>498</ele>
        <time>2011-04-10T08:25:49Z</time>
      </trkpt>
      <trkpt lat="45.90588" lon="6.15834">
        <ele>498</ele>
        <time>2011-04-10T08:25:50Z</time>
      </trkpt>
      <trkpt lat="45.90588" lon="6.15835">
        <ele>498</ele>
        <time>2011-04-10T08:25:51Z</time>
      </trkpt>
      <trkpt lat="45.90588" lon="6.15838">
        <ele>498</ele>
        <time>2011-04-10T08:25:52Z</time>
      </trkpt>
      <trkpt lat="45.90587" lon="6.1584">
        <ele>497</ele>
        <time>2011-04-10T08:25:53Z</time>
      </trkpt>
      <trkpt lat="45.90586" lon="6.15843">
        <ele>498</ele>
        <time>2011-04-10T08:25:55Z</time>
      </trkpt>
      <trkpt lat="45.90584" lon="6.15845">
        <ele>498</ele>
        <time>2011-04-10T08:25:56Z</time>
      </trkpt>
      <trkpt lat="45.90583" lon="6.15846">
        <ele>498</ele>
        <time>2011-04-10T08:25:57Z</time>
      </trkpt>
      <trkpt lat="45.90581" lon="6.15848">
        <ele>498</ele>
        <time>2011-04-10T08:25:58Z</time>
      </trkpt>
      <trkpt lat="45.9058" lon="6.1585">
        <ele>497</ele>
        <time>2011-04-10T08:25:59Z</time>
      </trkpt>
      <trkpt lat="45.9058" lon="6.15851">
        <ele>497</ele>
        <time>2011-04-10T08:26:00Z</time>
      </trkpt>
      <trkpt lat="45.90581" lon="6.15851">
        <ele>497</ele>
        <time>2011-04-10T08:26:01Z</time>
      </trkpt>
      <trkpt lat="45.90582" lon="6.1585">
        <ele>497</ele>
        <time>2011-04-10T08:26:06Z</time>
      </trkpt>
      <trkpt lat="45.90581" lon="6.15851">
        <ele>497</ele>
        <time>2011-04-10T08:26:07Z</time>
      </trkpt>
      <trkpt lat="45.9058" lon="6.15852">
        <ele>497</ele>
        <time>2011-04-10T08:26:08Z</time>
      </trkpt>
      <trkpt lat="45.90578" lon="6.15854">
        <ele>497</ele>
        <time>2011-04-10T08:26:09Z</time>
      </trkpt>
      <trkpt lat="45.90577" lon="6.15855">
        <ele>497</ele>
        <time>2011-04-10T08:26:10Z</time>
      </trkpt>
      <trkpt lat="45.90575" lon="6.15856">
        <ele>498</ele>
        <time>2011-04-10T08:26:11Z</time>
      </trkpt>
      <trkpt lat="45.90572" lon="6.15857">
        <ele>497</ele>
        <time>2011-04-10T08:26:12Z</time>
      </trkpt>
      <trkpt lat="45.90569" lon="6.15856">
        <ele>498</ele>
        <time>2011-04-10T08:26:14Z</time>
      </trkpt>
      <trkpt lat="45.90567" lon="6.15857">
        <ele>498</ele>
        <time>2011-04-10T08:26:15Z</time>
      </trkpt>
      <trkpt lat="45.90565" lon="6.15857">
        <ele>498</ele>
        <time>2011-04-10T08:26:16Z</time>
      </trkpt>
      <trkpt lat="45.90564" lon="6.15859">
        <ele>497</ele>
        <time>2011-04-10T08:26:17Z</time>
      </trkpt>
      <trkpt lat="45.90563" lon="6.1586">
        <ele>497</ele>
        <time>2011-04-10T08:26:18Z</time>
      </trkpt>
      <trkpt lat="45.90562" lon="6.1586">
        <ele>496</ele>
        <time>2011-04-10T08:26:19Z</time>
      </trkpt>
      <trkpt lat="45.90562" lon="6.15861">
        <ele>496</ele>
        <time>2011-04-10T08:26:20Z</time>
      </trkpt>
      <trkpt lat="45.90561" lon="6.15863">
        <ele>496</ele>
        <time>2011-04-10T08:26:21Z</time>
      </trkpt>
      <trkpt lat="45.90559" lon="6.15863">
        <ele>495</ele>
        <time>2011-04-10T08:26:22Z</time>
      </trkpt>
      <trkpt lat="45.90559" lon="6.15862">
        <ele>494</ele>
        <time>2011-04-10T08:26:23Z</time>
      </trkpt>
      <trkpt lat="45.90557" lon="6.15863">
        <ele>494</ele>
        <time>2011-04-10T08:26:24Z</time>
      </trkpt>
      <trkpt lat="45.90555" lon="6.15863">
        <ele>495</ele>
        <time>2011-04-10T08:26:25Z</time>
      </trkpt>
      <trkpt lat="45.90554" lon="6.15863">
        <ele>494</ele>
        <time>2011-04-10T08:26:26Z</time>
      </trkpt>
      <trkpt lat="45.90553" lon="6.15863">
        <ele>494</ele>
        <time>2011-04-10T08:26:27Z</time>
      </trkpt>
      <trkpt lat="45.90552" lon="6.15864">
        <ele>494</ele>
        <time>2011-04-10T08:26:28Z</time>
      </trkpt>
      <trkpt lat="45.90551" lon="6.15865">
        <ele>494</ele>
        <time>2011-04-10T08:26:29Z</time>
      </trkpt>
      <trkpt lat="45.90549" lon="6.15866">
        <ele>494</ele>
        <time>2011-04-10T08:26:30Z</time>
      </trkpt>
      <trkpt lat="45.90549" lon="6.15866">
        <ele>495</ele>
        <time>2011-04-10T08:26:31Z</time>
      </trkpt>
      <trkpt lat="45.90548" lon="6.15866">
        <ele>494</ele>
        <time>2011-04-10T08:26:32Z</time>
      </trkpt>
      <trkpt lat="45.90547" lon="6.15867">
        <ele>494</ele>
        <time>2011-04-10T08:26:33Z</time>
      </trkpt>
      <trkpt lat="45.90545" lon="6.15868">
        <ele>494</ele>
        <time>2011-04-10T08:26:34Z</time>
      </trkpt>
      <trkpt lat="45.90544" lon="6.1587">
        <ele>494</ele>
        <time>2011-04-10T08:26:35Z</time>
      </trkpt>
      <trkpt lat="45.90543" lon="6.15871">
        <ele>493</ele>
        <time>2011-04-10T08:26:36Z</time>
      </trkpt>
      <trkpt lat="45.90542" lon="6.15873">
        <ele>493</ele>
        <time>2011-04-10T08:26:38Z</time>
      </trkpt>
      <trkpt lat="45.90541" lon="6.15873">
        <ele>493</ele>
        <time>2011-04-10T08:26:39Z</time>
      </trkpt>
      <trkpt lat="45.90541" lon="6.15875">
        <ele>493</ele>
        <time>2011-04-10T08:26:40Z</time>
      </trkpt>
      <trkpt lat="45.90539" lon="6.15878">
        <ele>493</ele>
        <time>2011-04-10T08:26:41Z</time>
      </trkpt>
      <trkpt lat="45.90538" lon="6.15879">
        <ele>493</ele>
        <time>2011-04-10T08:26:42Z</time>
      </trkpt>
      <trkpt lat="45.90536" lon="6.1588">
        <ele>494</ele>
        <time>2011-04-10T08:26:43Z</time>
      </trkpt>
      <trkpt lat="45.90536" lon="6.15882">
        <ele>494</ele>
        <time>2011-04-10T08:26:44Z</time>
      </trkpt>
      <trkpt lat="45.90535" lon="6.15883">
        <ele>495</ele>
        <time>2011-04-10T08:26:45Z</time>
      </trkpt>
      <trkpt lat="45.90534" lon="6.15884">
        <ele>494</ele>
        <time>2011-04-10T08:26:46Z</time>
      </trkpt>
      <trkpt lat="45.90533" lon="6.15884">
        <ele>494</ele>
        <time>2011-04-10T08:26:47Z</time>
      </trkpt>
      <trkpt lat="45.90533" lon="6.15886">
        <ele>494</ele>
        <time>2011-04-10T08:26:48Z</time>
      </trkpt>
      <trkpt lat="45.90531" lon="6.15887">
        <ele>494</ele>
        <time>2011-04-10T08:26:49Z</time>
      </trkpt>
      <trkpt lat="45.9053" lon="6.15889">
        <ele>494</ele>
        <time>2011-04-10T08:26:50Z</time>
      </trkpt>
      <trkpt lat="45.90529" lon="6.1589">
        <ele>494</ele>
        <time>2011-04-10T08:26:51Z</time>
      </trkpt>
      <trkpt lat="45.90528" lon="6.15892">
        <ele>494</ele>
        <time>2011-04-10T08:26:52Z</time>
      </trkpt>
      <trkpt lat="45.90527" lon="6.15894">
        <ele>494</ele>
        <time>2011-04-10T08:26:53Z</time>
      </trkpt>
      <trkpt lat="45.90527" lon="6.15895">
        <ele>495</ele>
        <time>2011-04-10T08:26:54Z</time>
      </trkpt>
      <trkpt lat="45.90526" lon="6.15897">
        <ele>495</ele>
        <time>2011-04-10T08:26:55Z</time>
      </trkpt>
      <trkpt lat="45.90526" lon="6.15899">
        <ele>496</ele>
        <time>2011-04-10T08:26:56Z</time>
      </trkpt>
      <trkpt lat="45.90525" lon="6.159">
        <ele>496</ele>
        <time>2011-04-10T08:26:57Z</time>
      </trkpt>
      <trkpt lat="45.90524" lon="6.15901">
        <ele>496</ele>
        <time>2011-04-10T08:26:58Z</time>
      </trkpt>
      <trkpt lat="45.90524" lon="6.15903">
        <ele>495</ele>
        <time>2011-04-10T08:26:59Z</time>
      </trkpt>
      <trkpt lat="45.90522" lon="6.15904">
        <ele>495</ele>
        <time>2011-04-10T08:27:00Z</time>
      </trkpt>
      <trkpt lat="45.90519" lon="6.15907">
        <ele>495</ele>
        <time>2011-04-10T08:27:02Z</time>
      </trkpt>
      <trkpt lat="45.90519" lon="6.15908">
        <ele>495</ele>
        <time>2011-04-10T08:27:03Z</time>
      </trkpt>
      <trkpt lat="45.90515" lon="6.15908">
        <ele>495</ele>
        <time>2011-04-10T08:27:04Z</time>
      </trkpt>
      <trkpt lat="45.90514" lon="6.15909">
        <ele>494</ele>
        <time>2011-04-10T08:27:05Z</time>
      </trkpt>
      <trkpt lat="45.90512" lon="6.1591">
        <ele>494</ele>
        <time>2011-04-10T08:27:06Z</time>
      </trkpt>
      <trkpt lat="45.90511" lon="6.15911">
        <ele>492</ele>
        <time>2011-04-10T08:27:07Z</time>
      </trkpt>
      <trkpt lat="45.90509" lon="6.15911">
        <ele>493</ele>
        <time>2011-04-10T08:27:08Z</time>
      </trkpt>
      <trkpt lat="45.90507" lon="6.15912">
        <ele>492</ele>
        <time>2011-04-10T08:27:09Z</time>
      </trkpt>
      <trkpt lat="45.90506" lon="6.15912">
        <ele>492</ele>
        <time>2011-04-10T08:27:10Z</time>
      </trkpt>
      <trkpt lat="45.90505" lon="6.15914">
        <ele>492</ele>
        <time>2011-04-10T08:27:11Z</time>
      </trkpt>
      <trkpt lat="45.90504" lon="6.15915">
        <ele>493</ele>
        <time>2011-04-10T08:27:12Z</time>
      </trkpt>
      <trkpt lat="45.90503" lon="6.15916">
        <ele>492</ele>
        <time>2011-04-10T08:27:13Z</time>
      </trkpt>
      <trkpt lat="45.90502" lon="6.15916">
        <ele>492</ele>
        <time>2011-04-10T08:27:14Z</time>
      </trkpt>
      <trkpt lat="45.905" lon="6.15917">
        <ele>491</ele>
        <time>2011-04-10T08:27:15Z</time>
      </trkpt>
      <trkpt lat="45.905" lon="6.15918">
        <ele>491</ele>
        <time>2011-04-10T08:27:16Z</time>
      </trkpt>
      <trkpt lat="45.90499" lon="6.15919">
        <ele>492</ele>
        <time>2011-04-10T08:27:17Z</time>
      </trkpt>
      <trkpt lat="45.90498" lon="6.15921">
        <ele>492</ele>
        <time>2011-04-10T08:27:18Z</time>
      </trkpt>
      <trkpt lat="45.90497" lon="6.15922">
        <ele>492</ele>
        <time>2011-04-10T08:27:19Z</time>
      </trkpt>
      <trkpt lat="45.90496" lon="6.15923">
        <ele>492</ele>
        <time>2011-04-10T08:27:20Z</time>
      </trkpt>
      <trkpt lat="45.90493" lon="6.15924">
        <ele>491</ele>
        <time>2011-04-10T08:27:21Z</time>
      </trkpt>
      <trkpt lat="45.90492" lon="6.15925">
        <ele>491</ele>
        <time>2011-04-10T08:27:22Z</time>
      </trkpt>
      <trkpt lat="45.90492" lon="6.15926">
        <ele>491</ele>
        <time>2011-04-10T08:27:23Z</time>
      </trkpt>
      <trkpt lat="45.90491" lon="6.15926">
        <ele>491</ele>
        <time>2011-04-10T08:27:24Z</time>
      </trkpt>
      <trkpt lat="45.90489" lon="6.15927">
        <ele>491</ele>
        <time>2011-04-10T08:27:25Z</time>
      </trkpt>
      <trkpt lat="45.90488" lon="6.15929">
        <ele>492</ele>
        <time>2011-04-10T08:27:26Z</time>
      </trkpt>
      <trkpt lat="45.90487" lon="6.15931">
        <ele>492</ele>
        <time>2011-04-10T08:27:27Z</time>
      </trkpt>
      <trkpt lat="45.90486" lon="6.15932">
        <ele>492</ele>
        <time>2011-04-10T08:27:28Z</time>
      </trkpt>
      <trkpt lat="45.90484" lon="6.15933">
        <ele>492</ele>
        <time>2011-04-10T08:27:29Z</time>
      </trkpt>
      <trkpt lat="45.90484" lon="6.15935">
        <ele>492</ele>
        <time>2011-04-10T08:27:30Z</time>
      </trkpt>
      <trkpt lat="45.90483" lon="6.15936">
        <ele>491</ele>
        <time>2011-04-10T08:27:31Z</time>
      </trkpt>
      <trkpt lat="45.90481" lon="6.15936">
        <ele>492</ele>
        <time>2011-04-10T08:27:32Z</time>
      </trkpt>
      <trkpt lat="45.90479" lon="6.15937">
        <ele>491</ele>
        <time>2011-04-10T08:27:33Z</time>
      </trkpt>
      <trkpt lat="45.90478" lon="6.15939">
        <ele>491</ele>
        <time>2011-04-10T08:27:34Z</time>
      </trkpt>
      <trkpt lat="45.90476" lon="6.1594">
        <ele>491</ele>
        <time>2011-04-10T08:27:35Z</time>
      </trkpt>
      <trkpt lat="45.90476" lon="6.15943">
        <ele>492</ele>
        <time>2011-04-10T08:27:36Z</time>
      </trkpt>
      <trkpt lat="45.90475" lon="6.15944">
        <ele>491</ele>
        <time>2011-04-10T08:27:37Z</time>
      </trkpt>
      <trkpt lat="45.90474" lon="6.15945">
        <ele>491</ele>
        <time>2011-04-10T08:27:38Z</time>
      </trkpt>
      <trkpt lat="45.90472" lon="6.15946">
        <ele>492</ele>
        <time>2011-04-10T08:27:39Z</time>
      </trkpt>
      <trkpt lat="45.90471" lon="6.15947">
        <ele>492</ele>
        <time>2011-04-10T08:27:40Z</time>
      </trkpt>
      <trkpt lat="45.9047" lon="6.15948">
        <ele>491</ele>
        <time>2011-04-10T08:27:41Z</time>
      </trkpt>
      <trkpt lat="45.90469" lon="6.15949">
        <ele>491</ele>
        <time>2011-04-10T08:27:42Z</time>
      </trkpt>
      <trkpt lat="45.90469" lon="6.1595">
        <ele>491</ele>
        <time>2011-04-10T08:27:43Z</time>
      </trkpt>
      <trkpt lat="45.90467" lon="6.15951">
        <ele>492</ele>
        <time>2011-04-10T08:27:44Z</time>
      </trkpt>
      <trkpt lat="45.90466" lon="6.15952">
        <ele>492</ele>
        <time>2011-04-10T08:27:45Z</time>
      </trkpt>
      <trkpt lat="45.90464" lon="6.15954">
        <ele>492</ele>
        <time>2011-04-10T08:27:46Z</time>
      </trkpt>
      <trkpt lat="45.90462" lon="6.15955">
        <ele>491</ele>
        <time>2011-04-10T08:27:47Z</time>
      </trkpt>
      <trkpt lat="45.90461" lon="6.15955">
        <ele>491</ele>
        <time>2011-04-10T08:27:48Z</time>
      </trkpt>
      <trkpt lat="45.9046" lon="6.15956">
        <ele>491</ele>
        <time>2011-04-10T08:27:49Z</time>
      </trkpt>
      <trkpt lat="45.90458" lon="6.15956">
        <ele>492</ele>
        <time>2011-04-10T08:27:50Z</time>
      </trkpt>
      <trkpt lat="45.90457" lon="6.15957">
        <ele>492</ele>
        <time>2011-04-10T08:27:51Z</time>
      </trkpt>
      <trkpt lat="45.90455" lon="6.15958">
        <ele>492</ele>
        <time>2011-04-10T08:27:52Z</time>
      </trkpt>
      <trkpt lat="45.90455" lon="6.1596">
        <ele>492</ele>
        <time>2011-04-10T08:27:53Z</time>
      </trkpt>
      <trkpt lat="45.90454" lon="6.15961">
        <ele>492</ele>
        <time>2011-04-10T08:27:54Z</time>
      </trkpt>
      <trkpt lat="45.90453" lon="6.15963">
        <ele>492</ele>
        <time>2011-04-10T08:27:55Z</time>
      </trkpt>
      <trkpt lat="45.90452" lon="6.15965">
        <ele>491</ele>
        <time>2011-04-10T08:27:56Z</time>
      </trkpt>
      <trkpt lat="45.90452" lon="6.15967">
        <ele>492</ele>
        <time>2011-04-10T08:27:57Z</time>
      </trkpt>
      <trkpt lat="45.90452" lon="6.15968">
        <ele>492</ele>
        <time>2011-04-10T08:27:58Z</time>
      </trkpt>
      <trkpt lat="45.9045" lon="6.1597">
        <ele>492</ele>
        <time>2011-04-10T08:27:59Z</time>
      </trkpt>
      <trkpt lat="45.90448" lon="6.1597">
        <ele>493</ele>
        <time>2011-04-10T08:28:00Z</time>
      </trkpt>
      <trkpt lat="45.90446" lon="6.15973">
        <ele>493</ele>
        <time>2011-04-10T08:28:02Z</time>
      </trkpt>
      <trkpt lat="45.90445" lon="6.15974">
        <ele>493</ele>
        <time>2011-04-10T08:28:03Z</time>
      </trkpt>
      <trkpt lat="45.90444" lon="6.15975">
        <ele>493</ele>
        <time>2011-04-10T08:28:04Z</time>
      </trkpt>
      <trkpt lat="45.90442" lon="6.15974">
        <ele>493</ele>
        <time>2011-04-10T08:28:05Z</time>
      </trkpt>
      <trkpt lat="45.9044" lon="6.15975">
        <ele>493</ele>
        <time>2011-04-10T08:28:07Z</time>
      </trkpt>
      <trkpt lat="45.90438" lon="6.15976">
        <ele>493</ele>
        <time>2011-04-10T08:28:08Z</time>
      </trkpt>
      <trkpt lat="45.90437" lon="6.15976">
        <ele>493</ele>
        <time>2011-04-10T08:28:09Z</time>
      </trkpt>
      <trkpt lat="45.90436" lon="6.15976">
        <ele>493</ele>
        <time>2011-04-10T08:28:10Z</time>
      </trkpt>
      <trkpt lat="45.90435" lon="6.15978">
        <ele>494</ele>
        <time>2011-04-10T08:28:11Z</time>
      </trkpt>
      <trkpt lat="45.90434" lon="6.15978">
        <ele>495</ele>
        <time>2011-04-10T08:28:12Z</time>
      </trkpt>
      <trkpt lat="45.90433" lon="6.1598">
        <ele>495</ele>
        <time>2011-04-10T08:28:13Z</time>
      </trkpt>
      <trkpt lat="45.90432" lon="6.1598">
        <ele>496</ele>
        <time>2011-04-10T08:28:14Z</time>
      </trkpt>
      <trkpt lat="45.90431" lon="6.15978">
        <ele>496</ele>
        <time>2011-04-10T08:28:15Z</time>
      </trkpt>
      <trkpt lat="45.90429" lon="6.15979">
        <ele>496</ele>
        <time>2011-04-10T08:28:16Z</time>
      </trkpt>
      <trkpt lat="45.90428" lon="6.1598">
        <ele>497</ele>
        <time>2011-04-10T08:28:17Z</time>
      </trkpt>
      <trkpt lat="45.90426" lon="6.15982">
        <ele>497</ele>
        <time>2011-04-10T08:28:18Z</time>
      </trkpt>
      <trkpt lat="45.90425" lon="6.15983">
        <ele>497</ele>
        <time>2011-04-10T08:28:19Z</time>
      </trkpt>
      <trkpt lat="45.90423" lon="6.15983">
        <ele>498</ele>
        <time>2011-04-10T08:28:20Z</time>
      </trkpt>
      <trkpt lat="45.90422" lon="6.15983">
        <ele>498</ele>
        <time>2011-04-10T08:28:21Z</time>
      </trkpt>
      <trkpt lat="45.90421" lon="6.15984">
        <ele>497</ele>
        <time>2011-04-10T08:28:22Z</time>
      </trkpt>
      <trkpt lat="45.90418" lon="6.15984">
        <ele>497</ele>
        <time>2011-04-10T08:28:23Z</time>
      </trkpt>
      <trkpt lat="45.90416" lon="6.15984">
        <ele>497</ele>
        <time>2011-04-10T08:28:24Z</time>
      </trkpt>
      <trkpt lat="45.90415" lon="6.15984">
        <ele>497</ele>
        <time>2011-04-10T08:28:25Z</time>
      </trkpt>
      <trkpt lat="45.90413" lon="6.15985">
        <ele>497</ele>
        <time>2011-04-10T08:28:26Z</time>
      </trkpt>
      <trkpt lat="45.90411" lon="6.15984">
        <ele>497</ele>
        <time>2011-04-10T08:28:27Z</time>
      </trkpt>
      <trkpt lat="45.9041" lon="6.15985">
        <ele>497</ele>
        <time>2011-04-10T08:28:28Z</time>
      </trkpt>
      <trkpt lat="45.90409" lon="6.15987">
        <ele>496</ele>
        <time>2011-04-10T08:28:29Z</time>
      </trkpt>
      <trkpt lat="45.90409" lon="6.15987">
        <ele>496</ele>
        <time>2011-04-10T08:28:30Z</time>
      </trkpt>
      <trkpt lat="45.90408" lon="6.15988">
        <ele>496</ele>
        <time>2011-04-10T08:28:31Z</time>
      </trkpt>
      <trkpt lat="45.90406" lon="6.15988">
        <ele>496</ele>
        <time>2011-04-10T08:28:32Z</time>
      </trkpt>
      <trkpt lat="45.90404" lon="6.15988">
        <ele>496</ele>
        <time>2011-04-10T08:28:33Z</time>
      </trkpt>
      <trkpt lat="45.90403" lon="6.15989">
        <ele>496</ele>
        <time>2011-04-10T08:28:34Z</time>
      </trkpt>
      <trkpt lat="45.90402" lon="6.15989">
        <ele>496</ele>
        <time>2011-04-10T08:28:35Z</time>
      </trkpt>
      <trkpt lat="45.904" lon="6.15989">
        <ele>495</ele>
        <time>2011-04-10T08:28:36Z</time>
      </trkpt>
      <trkpt lat="45.904" lon="6.1599">
        <ele>495</ele>
        <time>2011-04-10T08:28:37Z</time>
      </trkpt>
      <trkpt lat="45.90399" lon="6.15991">
        <ele>496</ele>
        <time>2011-04-10T08:28:38Z</time>
      </trkpt>
      <trkpt lat="45.90398" lon="6.15992">
        <ele>495</ele>
        <time>2011-04-10T08:28:39Z</time>
      </trkpt>
      <trkpt lat="45.90398" lon="6.15993">
        <ele>496</ele>
        <time>2011-04-10T08:28:40Z</time>
      </trkpt>
      <trkpt lat="45.90397" lon="6.15993">
        <ele>496</ele>
        <time>2011-04-10T08:28:41Z</time>
      </trkpt>
      <trkpt lat="45.90397" lon="6.15994">
        <ele>496</ele>
        <time>2011-04-10T08:28:42Z</time>
      </trkpt>
      <trkpt lat="45.90396" lon="6.15996">
        <ele>496</ele>
        <time>2011-04-10T08:28:43Z</time>
      </trkpt>
      <trkpt lat="45.90396" lon="6.15997">
        <ele>496</ele>
        <time>2011-04-10T08:28:44Z</time>
      </trkpt>
      <trkpt lat="45.90396" lon="6.15998">
        <ele>496</ele>
        <time>2011-04-10T08:28:45Z</time>
      </trkpt>
      <trkpt lat="45.90395" lon="6.16">
        <ele>496</ele>
        <time>2011-04-10T08:28:46Z</time>
      </trkpt>
      <trkpt lat="45.90395" lon="6.16003">
        <ele>497</ele>
        <time>2011-04-10T08:28:47Z</time>
      </trkpt>
      <trkpt lat="45.90394" lon="6.16004">
        <ele>496</ele>
        <time>2011-04-10T08:28:48Z</time>
      </trkpt>
      <trkpt lat="45.90394" lon="6.16006">
        <ele>496</ele>
        <time>2011-04-10T08:28:49Z</time>
      </trkpt>
      <trkpt lat="45.90394" lon="6.16009">
        <ele>497</ele>
        <time>2011-04-10T08:28:50Z</time>
      </trkpt>
      <trkpt lat="45.90394" lon="6.16011">
        <ele>497</ele>
        <time>2011-04-10T08:28:51Z</time>
      </trkpt>
      <trkpt lat="45.90394" lon="6.16012">
        <ele>497</ele>
        <time>2011-04-10T08:28:52Z</time>
      </trkpt>
      <trkpt lat="45.90393" lon="6.16013">
        <ele>497</ele>
        <time>2011-04-10T08:28:53Z</time>
      </trkpt>
      <trkpt lat="45.90392" lon="6.16013">
        <ele>498</ele>
        <time>2011-04-10T08:28:54Z</time>
      </trkpt>
      <trkpt lat="45.90391" lon="6.16013">
        <ele>498</ele>
        <time>2011-04-10T08:28:55Z</time>
      </trkpt>
      <trkpt lat="45.90391" lon="6.16013">
        <ele>499</ele>
        <time>2011-04-10T08:28:56Z</time>
      </trkpt>
      <trkpt lat="45.9039" lon="6.16015">
        <ele>499</ele>
        <time>2011-04-10T08:28:57Z</time>
      </trkpt>
      <trkpt lat="45.90391" lon="6.16018">
        <ele>499</ele>
        <time>2011-04-10T08:28:58Z</time>
      </trkpt>
      <trkpt lat="45.90392" lon="6.16021">
        <ele>499</ele>
        <time>2011-04-10T08:28:59Z</time>
      </trkpt>
      <trkpt lat="45.90392" lon="6.16023">
        <ele>498</ele>
        <time>2011-04-10T08:29:00Z</time>
      </trkpt>
      <trkpt lat="45.90392" lon="6.16024">
        <ele>499</ele>
        <time>2011-04-10T08:29:02Z</time>
      </trkpt>
      <trkpt lat="45.90393" lon="6.16026">
        <ele>499</ele>
        <time>2011-04-10T08:29:03Z</time>
      </trkpt>
      <trkpt lat="45.90393" lon="6.16027">
        <ele>498</ele>
        <time>2011-04-10T08:29:04Z</time>
      </trkpt>
      <trkpt lat="45.90394" lon="6.16029">
        <ele>498</ele>
        <time>2011-04-10T08:29:05Z</time>
      </trkpt>
      <trkpt lat="45.90394" lon="6.1603">
        <ele>498</ele>
        <time>2011-04-10T08:29:06Z</time>
      </trkpt>
      <trkpt lat="45.90394" lon="6.16031">
        <ele>498</ele>
        <time>2011-04-10T08:29:07Z</time>
      </trkpt>
      <trkpt lat="45.90395" lon="6.16033">
        <ele>498</ele>
        <time>2011-04-10T08:29:08Z</time>
      </trkpt>
      <trkpt lat="45.90395" lon="6.16035">
        <ele>499</ele>
        <time>2011-04-10T08:29:09Z</time>
      </trkpt>
      <trkpt lat="45.90396" lon="6.16035">
        <ele>499</ele>
        <time>2011-04-10T08:29:10Z</time>
      </trkpt>
      <trkpt lat="45.90397" lon="6.16036">
        <ele>499</ele>
        <time>2011-04-10T08:29:11Z</time>
      </trkpt>
      <trkpt lat="45.90397" lon="6.16037">
        <ele>499</ele>
        <time>2011-04-10T08:29:12Z</time>
      </trkpt>
      <trkpt lat="45.90397" lon="6.16039">
        <ele>499</ele>
        <time>2011-04-10T08:29:13Z</time>
      </trkpt>
      <trkpt lat="45.90397" lon="6.16041">
        <ele>499</ele>
        <time>2011-04-10T08:29:14Z</time>
      </trkpt>
      <trkpt lat="45.90398" lon="6.16042">
        <ele>499</ele>
        <time>2011-04-10T08:29:15Z</time>
      </trkpt>
      <trkpt lat="45.90399" lon="6.16043">
        <ele>500</ele>
        <time>2011-04-10T08:29:16Z</time>
      </trkpt>
      <trkpt lat="45.90399" lon="6.16046">
        <ele>500</ele>
        <time>2011-04-10T08:29:17Z</time>
      </trkpt>
      <trkpt lat="45.904" lon="6.16048">
        <ele>500</ele>
        <time>2011-04-10T08:29:18Z</time>
      </trkpt>
      <trkpt lat="45.904" lon="6.16048">
        <ele>500</ele>
        <time>2011-04-10T08:29:19Z</time>
      </trkpt>
      <trkpt lat="45.90401" lon="6.1605">
        <ele>500</ele>
        <time>2011-04-10T08:29:20Z</time>
      </trkpt>
      <trkpt lat="45.90401" lon="6.1605">
        <ele>500</ele>
        <time>2011-04-10T08:29:21Z</time>
      </trkpt>
      <trkpt lat="45.90401" lon="6.16051">
        <ele>500</ele>
        <time>2011-04-10T08:29:22Z</time>
      </trkpt>
      <trkpt lat="45.904" lon="6.16052">
        <ele>501</ele>
        <time>2011-04-10T08:29:23Z</time>
      </trkpt>
      <trkpt lat="45.904" lon="6.16054">
        <ele>501</ele>
        <time>2011-04-10T08:29:24Z</time>
      </trkpt>
      <trkpt lat="45.904" lon="6.16055">
        <ele>502</ele>
        <time>2011-04-10T08:29:25Z</time>
      </trkpt>
      <trkpt lat="45.904" lon="6.16057">
        <ele>502</ele>
        <time>2011-04-10T08:29:26Z</time>
      </trkpt>
      <trkpt lat="45.904" lon="6.16057">
        <ele>503</ele>
        <time>2011-04-10T08:29:27Z</time>
      </trkpt>
      <trkpt lat="45.90401" lon="6.16058">
        <ele>503</ele>
        <time>2011-04-10T08:29:28Z</time>
      </trkpt>
      <trkpt lat="45.90401" lon="6.16061">
        <ele>504</ele>
        <time>2011-04-10T08:29:29Z</time>
      </trkpt>
      <trkpt lat="45.90401" lon="6.16063">
        <ele>504</ele>
        <time>2011-04-10T08:29:30Z</time>
      </trkpt>
      <trkpt lat="45.90402" lon="6.16065">
        <ele>504</ele>
        <time>2011-04-10T08:29:32Z</time>
      </trkpt>
      <trkpt lat="45.90402" lon="6.16066">
        <ele>504</ele>
        <time>2011-04-10T08:29:33Z</time>
      </trkpt>
      <trkpt lat="45.90403" lon="6.16068">
        <ele>505</ele>
        <time>2011-04-10T08:29:34Z</time>
      </trkpt>
      <trkpt lat="45.90403" lon="6.16069">
        <ele>505</ele>
        <time>2011-04-10T08:29:35Z</time>
      </trkpt>
      <trkpt lat="45.90403" lon="6.1607">
        <ele>505</ele>
        <time>2011-04-10T08:29:36Z</time>
      </trkpt>
      <trkpt lat="45.90404" lon="6.16071">
        <ele>505</ele>
        <time>2011-04-10T08:29:38Z</time>
      </trkpt>
      <trkpt lat="45.90403" lon="6.16072">
        <ele>505</ele>
        <time>2011-04-10T08:29:39Z</time>
      </trkpt>
      <trkpt lat="45.90404" lon="6.16073">
        <ele>505</ele>
        <time>2011-04-10T08:29:40Z</time>
      </trkpt>
      <trkpt lat="45.90406" lon="6.16074">
        <ele>505</ele>
        <time>2011-04-10T08:29:41Z</time>
      </trkpt>
      <trkpt lat="45.90407" lon="6.16076">
        <ele>506</ele>
        <time>2011-04-10T08:29:42Z</time>
      </trkpt>
      <trkpt lat="45.90407" lon="6.16077">
        <ele>506</ele>
        <time>2011-04-10T08:29:43Z</time>
      </trkpt>
      <trkpt lat="45.90407" lon="6.16079">
        <ele>506</ele>
        <time>2011-04-10T08:29:44Z</time>
      </trkpt>
      <trkpt lat="45.90407" lon="6.1608">
        <ele>506</ele>
        <time>2011-04-10T08:29:45Z</time>
      </trkpt>
      <trkpt lat="45.90407" lon="6.16081">
        <ele>506</ele>
        <time>2011-04-10T08:29:46Z</time>
      </trkpt>
      <trkpt lat="45.90407" lon="6.16084">
        <ele>506</ele>
        <time>2011-04-10T08:29:47Z</time>
      </trkpt>
      <trkpt lat="45.90407" lon="6.16084">
        <ele>506</ele>
        <time>2011-04-10T08:29:48Z</time>
      </trkpt>
      <trkpt lat="45.90408" lon="6.16085">
        <ele>507</ele>
        <time>2011-04-10T08:29:49Z</time>
      </trkpt>
      <trkpt lat="45.90409" lon="6.16087">
        <ele>507</ele>
        <time>2011-04-10T08:29:50Z</time>
      </trkpt>
      <trkpt lat="45.90409" lon="6.16088">
        <ele>507</ele>
        <time>2011-04-10T08:29:51Z</time>
      </trkpt>
      <trkpt lat="45.90409" lon="6.16088">
        <ele>508</ele>
        <time>2011-04-10T08:29:52Z</time>
      </trkpt>
      <trkpt lat="45.9041" lon="6.16091">
        <ele>507</ele>
        <time>2011-04-10T08:29:53Z</time>
      </trkpt>
      <trkpt lat="45.90411" lon="6.16092">
        <ele>507</ele>
        <time>2011-04-10T08:29:54Z</time>
      </trkpt>
      <trkpt lat="45.90412" lon="6.16094">
        <ele>507</ele>
        <time>2011-04-10T08:29:55Z</time>
      </trkpt>
      <trkpt lat="45.90412" lon="6.16094">
        <ele>508</ele>
        <time>2011-04-10T08:29:56Z</time>
      </trkpt>
      <trkpt lat="45.90413" lon="6.16096">
        <ele>508</ele>
        <time>2011-04-10T08:29:57Z</time>
      </trkpt>
      <trkpt lat="45.90414" lon="6.16096">
        <ele>508</ele>
        <time>2011-04-10T08:29:58Z</time>
      </trkpt>
      <trkpt lat="45.90414" lon="6.16096">
        <ele>508</ele>
        <time>2011-04-10T08:29:59Z</time>
      </trkpt>
      <trkpt lat="45.90415" lon="6.16096">
        <ele>508</ele>
        <time>2011-04-10T08:30:00Z</time>
      </trkpt>
      <trkpt lat="45.90414" lon="6.16096">
        <ele>508</ele>
        <time>2011-04-10T08:30:01Z</time>
      </trkpt>
      <trkpt lat="45.90415" lon="6.16097">
        <ele>509</ele>
        <time>2011-04-10T08:30:02Z</time>
      </trkpt>
      <trkpt lat="45.90415" lon="6.16098">
        <ele>509</ele>
        <time>2011-04-10T08:30:03Z</time>
      </trkpt>
      <trkpt lat="45.90414" lon="6.161">
        <ele>509</ele>
        <time>2011-04-10T08:30:04Z</time>
      </trkpt>
      <trkpt lat="45.90414" lon="6.161">
        <ele>509</ele>
        <time>2011-04-10T08:30:05Z</time>
      </trkpt>
      <trkpt lat="45.90415" lon="6.161">
        <ele>509</ele>
        <time>2011-04-10T08:30:06Z</time>
      </trkpt>
      <trkpt lat="45.90416" lon="6.16101">
        <ele>509</ele>
        <time>2011-04-10T08:30:07Z</time>
      </trkpt>
      <trkpt lat="45.90416" lon="6.16103">
        <ele>511</ele>
        <time>2011-04-10T08:30:08Z</time>
      </trkpt>
      <trkpt lat="45.90417" lon="6.16105">
        <ele>511</ele>
        <time>2011-04-10T08:30:09Z</time>
      </trkpt>
      <trkpt lat="45.90418" lon="6.16107">
        <ele>511</ele>
        <time>2011-04-10T08:30:10Z</time>
      </trkpt>
      <trkpt lat="45.90419" lon="6.16109">
        <ele>512</ele>
        <time>2011-04-10T08:30:11Z</time>
      </trkpt>
      <trkpt lat="45.90419" lon="6.16111">
        <ele>509</ele>
        <time>2011-04-10T08:30:12Z</time>
      </trkpt>
      <trkpt lat="45.90421" lon="6.16113">
        <ele>508</ele>
        <time>2011-04-10T08:30:13Z</time>
      </trkpt>
      <trkpt lat="45.90421" lon="6.16115">
        <ele>509</ele>
        <time>2011-04-10T08:30:14Z</time>
      </trkpt>
      <trkpt lat="45.90421" lon="6.16115">
        <ele>508</ele>
        <time>2011-04-10T08:30:15Z</time>
      </trkpt>
      <trkpt lat="45.90422" lon="6.16116">
        <ele>508</ele>
        <time>2011-04-10T08:30:16Z</time>
      </trkpt>
      <trkpt lat="45.90422" lon="6.16117">
        <ele>509</ele>
        <time>2011-04-10T08:30:17Z</time>
      </trkpt>
      <trkpt lat="45.90422" lon="6.16119">
        <ele>509</ele>
        <time>2011-04-10T08:30:18Z</time>
      </trkpt>
      <trkpt lat="45.90423" lon="6.16121">
        <ele>509</ele>
        <time>2011-04-10T08:30:19Z</time>
      </trkpt>
      <trkpt lat="45.90423" lon="6.16121">
        <ele>509</ele>
        <time>2011-04-10T08:30:20Z</time>
      </trkpt>
      <trkpt lat="45.90423" lon="6.16123">
        <ele>509</ele>
        <time>2011-04-10T08:30:21Z</time>
      </trkpt>
      <trkpt lat="45.90424" lon="6.16124">
        <ele>509</ele>
        <time>2011-04-10T08:30:22Z</time>
      </trkpt>
      <trkpt lat="45.90424" lon="6.16125">
        <ele>509</ele>
        <time>2011-04-10T08:30:23Z</time>
      </trkpt>
      <trkpt lat="45.90425" lon="6.16127">
        <ele>509</ele>
        <time>2011-04-10T08:30:24Z</time>
      </trkpt>
      <trkpt lat="45.90425" lon="6.16127">
        <ele>510</ele>
        <time>2011-04-10T08:30:25Z</time>
      </trkpt>
      <trkpt lat="45.90425" lon="6.16128">
        <ele>510</ele>
        <time>2011-04-10T08:30:26Z</time>
      </trkpt>
      <trkpt lat="45.90426" lon="6.16129">
        <ele>511</ele>
        <time>2011-04-10T08:30:27Z</time>
      </trkpt>
      <trkpt lat="45.90426" lon="6.1613">
        <ele>511</ele>
        <time>2011-04-10T08:30:28Z</time>
      </trkpt>
      <trkpt lat="45.90426" lon="6.16131">
        <ele>511</ele>
        <time>2011-04-10T08:30:29Z</time>
      </trkpt>
      <trkpt lat="45.90427" lon="6.16132">
        <ele>511</ele>
        <time>2011-04-10T08:30:30Z</time>
      </trkpt>
      <trkpt lat="45.90428" lon="6.16134">
        <ele>511</ele>
        <time>2011-04-10T08:30:31Z</time>
      </trkpt>
      <trkpt lat="45.90428" lon="6.16136">
        <ele>511</ele>
        <time>2011-04-10T08:30:32Z</time>
      </trkpt>
      <trkpt lat="45.90428" lon="6.16137">
        <ele>511</ele>
        <time>2011-04-10T08:30:33Z</time>
      </trkpt>
      <trkpt lat="45.90428" lon="6.16137">
        <ele>512</ele>
        <time>2011-04-10T08:30:34Z</time>
      </trkpt>
      <trkpt lat="45.90429" lon="6.16138">
        <ele>512</ele>
        <time>2011-04-10T08:30:35Z</time>
      </trkpt>
      <trkpt lat="45.9043" lon="6.16138">
        <ele>513</ele>
        <time>2011-04-10T08:30:36Z</time>
      </trkpt>
      <trkpt lat="45.9043" lon="6.16139">
        <ele>513</ele>
        <time>2011-04-10T08:30:37Z</time>
      </trkpt>
      <trkpt lat="45.90431" lon="6.1614">
        <ele>513</ele>
        <time>2011-04-10T08:30:38Z</time>
      </trkpt>
      <trkpt lat="45.90431" lon="6.1614">
        <ele>513</ele>
        <time>2011-04-10T08:30:39Z</time>
      </trkpt>
      <trkpt lat="45.90432" lon="6.16142">
        <ele>513</ele>
        <time>2011-04-10T08:30:40Z</time>
      </trkpt>
      <trkpt lat="45.90432" lon="6.16143">
        <ele>513</ele>
        <time>2011-04-10T08:30:41Z</time>
      </trkpt>
      <trkpt lat="45.90433" lon="6.16144">
        <ele>513</ele>
        <time>2011-04-10T08:30:42Z</time>
      </trkpt>
      <trkpt lat="45.90433" lon="6.16144">
        <ele>513</ele>
        <time>2011-04-10T08:30:43Z</time>
      </trkpt>
      <trkpt lat="45.90434" lon="6.16145">
        <ele>515</ele>
        <time>2011-04-10T08:30:44Z</time>
      </trkpt>
      <trkpt lat="45.90435" lon="6.16146">
        <ele>515</ele>
        <time>2011-04-10T08:30:45Z</time>
      </trkpt>
      <trkpt lat="45.90435" lon="6.16148">
        <ele>515</ele>
        <time>2011-04-10T08:30:46Z</time>
      </trkpt>
      <trkpt lat="45.90436" lon="6.16149">
        <ele>516</ele>
        <time>2011-04-10T08:30:47Z</time>
      </trkpt>
      <trkpt lat="45.90436" lon="6.1615">
        <ele>516</ele>
        <time>2011-04-10T08:30:48Z</time>
      </trkpt>
      <trkpt lat="45.90436" lon="6.16151">
        <ele>516</ele>
        <time>2011-04-10T08:30:49Z</time>
      </trkpt>
      <trkpt lat="45.90437" lon="6.16151">
        <ele>515</ele>
        <time>2011-04-10T08:30:50Z</time>
      </trkpt>
      <trkpt lat="45.90437" lon="6.16152">
        <ele>518</ele>
        <time>2011-04-10T08:30:51Z</time>
      </trkpt>
      <trkpt lat="45.90437" lon="6.16152">
        <ele>519</ele>
        <time>2011-04-10T08:30:52Z</time>
      </trkpt>
      <trkpt lat="45.90437" lon="6.16153">
        <ele>520</ele>
        <time>2011-04-10T08:30:53Z</time>
      </trkpt>
      <trkpt lat="45.90437" lon="6.16153">
        <ele>520</ele>
        <time>2011-04-10T08:30:54Z</time>
      </trkpt>
      <trkpt lat="45.90438" lon="6.16153">
        <ele>520</ele>
        <time>2011-04-10T08:30:55Z</time>
      </trkpt>
      <trkpt lat="45.90439" lon="6.16154">
        <ele>521</ele>
        <time>2011-04-10T08:30:56Z</time>
      </trkpt>
      <trkpt lat="45.90439" lon="6.16155">
        <ele>520</ele>
        <time>2011-04-10T08:30:57Z</time>
      </trkpt>
      <trkpt lat="45.90441" lon="6.16158">
        <ele>520</ele>
        <time>2011-04-10T08:31:02Z</time>
      </trkpt>
      <trkpt lat="45.90442" lon="6.1616">
        <ele>520</ele>
        <time>2011-04-10T08:31:03Z</time>
      </trkpt>
      <trkpt lat="45.90443" lon="6.16161">
        <ele>519</ele>
        <time>2011-04-10T08:31:04Z</time>
      </trkpt>
      <trkpt lat="45.90444" lon="6.16162">
        <ele>519</ele>
        <time>2011-04-10T08:31:05Z</time>
      </trkpt>
      <trkpt lat="45.90445" lon="6.16163">
        <ele>520</ele>
        <time>2011-04-10T08:31:06Z</time>
      </trkpt>
      <trkpt lat="45.90445" lon="6.16164">
        <ele>520</ele>
        <time>2011-04-10T08:31:07Z</time>
      </trkpt>
      <trkpt lat="45.90446" lon="6.16165">
        <ele>520</ele>
        <time>2011-04-10T08:31:08Z</time>
      </trkpt>
      <trkpt lat="45.90446" lon="6.16166">
        <ele>520</ele>
        <time>2011-04-10T08:31:09Z</time>
      </trkpt>
      <trkpt lat="45.90447" lon="6.16167">
        <ele>520</ele>
        <time>2011-04-10T08:31:10Z</time>
      </trkpt>
      <trkpt lat="45.90447" lon="6.16168">
        <ele>520</ele>
        <time>2011-04-10T08:31:11Z</time>
      </trkpt>
      <trkpt lat="45.90448" lon="6.16169">
        <ele>521</ele>
        <time>2011-04-10T08:31:12Z</time>
      </trkpt>
      <trkpt lat="45.90448" lon="6.1617">
        <ele>520</ele>
        <time>2011-04-10T08:31:13Z</time>
      </trkpt>
      <trkpt lat="45.90448" lon="6.16172">
        <ele>521</ele>
        <time>2011-04-10T08:31:14Z</time>
      </trkpt>
      <trkpt lat="45.90448" lon="6.16172">
        <ele>521</ele>
        <time>2011-04-10T08:31:15Z</time>
      </trkpt>
      <trkpt lat="45.90448" lon="6.16172">
        <ele>521</ele>
        <time>2011-04-10T08:31:16Z</time>
      </trkpt>
      <trkpt lat="45.90448" lon="6.16172">
        <ele>521</ele>
        <time>2011-04-10T08:31:17Z</time>
      </trkpt>
      <trkpt lat="45.90448" lon="6.16172">
        <ele>521</ele>
        <time>2011-04-10T08:31:18Z</time>
      </trkpt>
      <trkpt lat="45.90448" lon="6.16175">
        <ele>521</ele>
        <time>2011-04-10T08:31:19Z</time>
      </trkpt>
      <trkpt lat="45.9045" lon="6.16175">
        <ele>521</ele>
        <time>2011-04-10T08:31:20Z</time>
      </trkpt>
      <trkpt lat="45.90451" lon="6.1618">
        <ele>521</ele>
        <time>2011-04-10T08:31:21Z</time>
      </trkpt>
      <trkpt lat="45.90451" lon="6.16181">
        <ele>521</ele>
        <time>2011-04-10T08:31:22Z</time>
      </trkpt>
      <trkpt lat="45.9045" lon="6.1618">
        <ele>521</ele>
        <time>2011-04-10T08:31:23Z</time>
      </trkpt>
      <trkpt lat="45.9045" lon="6.16182">
        <ele>522</ele>
        <time>2011-04-10T08:31:24Z</time>
      </trkpt>
      <trkpt lat="45.90452" lon="6.16183">
        <ele>522</ele>
        <time>2011-04-10T08:31:25Z</time>
      </trkpt>
      <trkpt lat="45.90453" lon="6.16182">
        <ele>522</ele>
        <time>2011-04-10T08:31:26Z</time>
      </trkpt>
      <trkpt lat="45.90453" lon="6.16183">
        <ele>522</ele>
        <time>2011-04-10T08:31:27Z</time>
      </trkpt>
      <trkpt lat="45.90456" lon="6.16184">
        <ele>523</ele>
        <time>2011-04-10T08:31:28Z</time>
      </trkpt>
      <trkpt lat="45.90456" lon="6.16185">
        <ele>523</ele>
        <time>2011-04-10T08:31:29Z</time>
      </trkpt>
      <trkpt lat="45.90455" lon="6.16187">
        <ele>523</ele>
        <time>2011-04-10T08:31:30Z</time>
      </trkpt>
      <trkpt lat="45.90455" lon="6.16189">
        <ele>522</ele>
        <time>2011-04-10T08:31:31Z</time>
      </trkpt>
      <trkpt lat="45.90456" lon="6.16189">
        <ele>522</ele>
        <time>2011-04-10T08:31:32Z</time>
      </trkpt>
      <trkpt lat="45.90458" lon="6.1619">
        <ele>522</ele>
        <time>2011-04-10T08:31:33Z</time>
      </trkpt>
      <trkpt lat="45.90457" lon="6.16191">
        <ele>523</ele>
        <time>2011-04-10T08:31:34Z</time>
      </trkpt>
      <trkpt lat="45.90457" lon="6.16192">
        <ele>523</ele>
        <time>2011-04-10T08:31:35Z</time>
      </trkpt>
      <trkpt lat="45.90457" lon="6.16194">
        <ele>524</ele>
        <time>2011-04-10T08:31:36Z</time>
      </trkpt>
      <trkpt lat="45.90457" lon="6.16196">
        <ele>524</ele>
        <time>2011-04-10T08:31:37Z</time>
      </trkpt>
      <trkpt lat="45.90458" lon="6.16196">
        <ele>524</ele>
        <time>2011-04-10T08:31:38Z</time>
      </trkpt>
      <trkpt lat="45.90458" lon="6.16197">
        <ele>525</ele>
        <time>2011-04-10T08:31:39Z</time>
      </trkpt>
      <trkpt lat="45.90458" lon="6.16199">
        <ele>525</ele>
        <time>2011-04-10T08:31:40Z</time>
      </trkpt>
      <trkpt lat="45.90459" lon="6.16199">
        <ele>525</ele>
        <time>2011-04-10T08:31:41Z</time>
      </trkpt>
      <trkpt lat="45.90459" lon="6.16201">
        <ele>525</ele>
        <time>2011-04-10T08:31:42Z</time>
      </trkpt>
      <trkpt lat="45.90459" lon="6.16202">
        <ele>525</ele>
        <time>2011-04-10T08:31:43Z</time>
      </trkpt>
      <trkpt lat="45.90459" lon="6.16203">
        <ele>526</ele>
        <time>2011-04-10T08:31:44Z</time>
      </trkpt>
      <trkpt lat="45.90459" lon="6.16204">
        <ele>526</ele>
        <time>2011-04-10T08:31:45Z</time>
      </trkpt>
      <trkpt lat="45.90458" lon="6.16205">
        <ele>525</ele>
        <time>2011-04-10T08:31:46Z</time>
      </trkpt>
      <trkpt lat="45.90459" lon="6.16205">
        <ele>526</ele>
        <time>2011-04-10T08:31:47Z</time>
      </trkpt>
      <trkpt lat="45.90459" lon="6.16206">
        <ele>525</ele>
        <time>2011-04-10T08:31:48Z</time>
      </trkpt>
      <trkpt lat="45.90459" lon="6.16208">
        <ele>525</ele>
        <time>2011-04-10T08:31:49Z</time>
      </trkpt>
      <trkpt lat="45.90459" lon="6.16209">
        <ele>525</ele>
        <time>2011-04-10T08:31:50Z</time>
      </trkpt>
      <trkpt lat="45.90459" lon="6.1621">
        <ele>526</ele>
        <time>2011-04-10T08:31:51Z</time>
      </trkpt>
      <trkpt lat="45.90459" lon="6.16211">
        <ele>526</ele>
        <time>2011-04-10T08:31:52Z</time>
      </trkpt>
      <trkpt lat="45.90459" lon="6.16212">
        <ele>526</ele>
        <time>2011-04-10T08:31:53Z</time>
      </trkpt>
      <trkpt lat="45.90458" lon="6.16213">
        <ele>526</ele>
        <time>2011-04-10T08:31:54Z</time>
      </trkpt>
      <trkpt lat="45.90459" lon="6.16213">
        <ele>527</ele>
        <time>2011-04-10T08:31:55Z</time>
      </trkpt>
      <trkpt lat="45.90459" lon="6.16215">
        <ele>526</ele>
        <time>2011-04-10T08:31:56Z</time>
      </trkpt>
      <trkpt lat="45.90458" lon="6.16215">
        <ele>526</ele>
        <time>2011-04-10T08:31:57Z</time>
      </trkpt>
      <trkpt lat="45.90458" lon="6.16216">
        <ele>526</ele>
        <time>2011-04-10T08:31:58Z</time>
      </trkpt>
      <trkpt lat="45.90458" lon="6.16217">
        <ele>526</ele>
        <time>2011-04-10T08:31:59Z</time>
      </trkpt>
      <trkpt lat="45.90459" lon="6.16218">
        <ele>527</ele>
        <time>2011-04-10T08:32:00Z</time>
      </trkpt>
      <trkpt lat="45.9046" lon="6.16222">
        <ele>527</ele>
        <time>2011-04-10T08:32:02Z</time>
      </trkpt>
      <trkpt lat="45.9046" lon="6.16224">
        <ele>527</ele>
        <time>2011-04-10T08:32:03Z</time>
      </trkpt>
      <trkpt lat="45.9046" lon="6.16224">
        <ele>526</ele>
        <time>2011-04-10T08:32:04Z</time>
      </trkpt>
      <trkpt lat="45.9046" lon="6.16226">
        <ele>527</ele>
        <time>2011-04-10T08:32:05Z</time>
      </trkpt>
      <trkpt lat="45.9046" lon="6.16227">
        <ele>527</ele>
        <time>2011-04-10T08:32:06Z</time>
      </trkpt>
      <trkpt lat="45.9046" lon="6.16228">
        <ele>527</ele>
        <time>2011-04-10T08:32:07Z</time>
      </trkpt>
      <trkpt lat="45.90461" lon="6.16228">
        <ele>528</ele>
        <time>2011-04-10T08:32:08Z</time>
      </trkpt>
      <trkpt lat="45.9046" lon="6.16228">
        <ele>531</ele>
        <time>2011-04-10T08:32:09Z</time>
      </trkpt>
      <trkpt lat="45.9046" lon="6.16229">
        <ele>532</ele>
        <time>2011-04-10T08:32:10Z</time>
      </trkpt>
      <trkpt lat="45.90459" lon="6.1623">
        <ele>532</ele>
        <time>2011-04-10T08:32:11Z</time>
      </trkpt>
      <trkpt lat="45.90459" lon="6.16231">
        <ele>533</ele>
        <time>2011-04-10T08:32:12Z</time>
      </trkpt>
      <trkpt lat="45.90459" lon="6.16231">
        <ele>533</ele>
        <time>2011-04-10T08:32:13Z</time>
      </trkpt>
      <trkpt lat="45.90458" lon="6.16232">
        <ele>533</ele>
        <time>2011-04-10T08:32:14Z</time>
      </trkpt>
      <trkpt lat="45.90459" lon="6.16234">
        <ele>532</ele>
        <time>2011-04-10T08:32:15Z</time>
      </trkpt>
      <trkpt lat="45.90458" lon="6.16235">
        <ele>533</ele>
        <time>2011-04-10T08:32:16Z</time>
      </trkpt>
      <trkpt lat="45.90458" lon="6.16236">
        <ele>533</ele>
        <time>2011-04-10T08:32:17Z</time>
      </trkpt>
      <trkpt lat="45.90458" lon="6.16237">
        <ele>533</ele>
        <time>2011-04-10T08:32:18Z</time>
      </trkpt>
      <trkpt lat="45.90459" lon="6.16238">
        <ele>533</ele>
        <time>2011-04-10T08:32:19Z</time>
      </trkpt>
      <trkpt lat="45.90458" lon="6.16239">
        <ele>534</ele>
        <time>2011-04-10T08:32:20Z</time>
      </trkpt>
      <trkpt lat="45.90459" lon="6.16239">
        <ele>535</ele>
        <time>2011-04-10T08:32:21Z</time>
      </trkpt>
      <trkpt lat="45.90458" lon="6.1624">
        <ele>537</ele>
        <time>2011-04-10T08:32:22Z</time>
      </trkpt>
      <trkpt lat="45.90458" lon="6.16241">
        <ele>538</ele>
        <time>2011-04-10T08:32:23Z</time>
      </trkpt>
      <trkpt lat="45.90458" lon="6.16242">
        <ele>540</ele>
        <time>2011-04-10T08:32:24Z</time>
      </trkpt>
      <trkpt lat="45.90458" lon="6.16244">
        <ele>541</ele>
        <time>2011-04-10T08:32:25Z</time>
      </trkpt>
      <trkpt lat="45.90458" lon="6.16245">
        <ele>541</ele>
        <time>2011-04-10T08:32:26Z</time>
      </trkpt>
      <trkpt lat="45.90457" lon="6.16246">
        <ele>542</ele>
        <time>2011-04-10T08:32:27Z</time>
      </trkpt>
      <trkpt lat="45.90458" lon="6.16247">
        <ele>541</ele>
        <time>2011-04-10T08:32:28Z</time>
      </trkpt>
      <trkpt lat="45.90458" lon="6.16247">
        <ele>541</ele>
        <time>2011-04-10T08:32:29Z</time>
      </trkpt>
      <trkpt lat="45.90458" lon="6.16246">
        <ele>541</ele>
        <time>2011-04-10T08:32:30Z</time>
      </trkpt>
      <trkpt lat="45.90458" lon="6.16248">
        <ele>541</ele>
        <time>2011-04-10T08:32:31Z</time>
      </trkpt>
      <trkpt lat="45.90458" lon="6.16249">
        <ele>541</ele>
        <time>2011-04-10T08:32:32Z</time>
      </trkpt>
      <trkpt lat="45.90457" lon="6.16249">
        <ele>541</ele>
        <time>2011-04-10T08:32:33Z</time>
      </trkpt>
      <trkpt lat="45.90457" lon="6.16249">
        <ele>542</ele>
        <time>2011-04-10T08:32:34Z</time>
      </trkpt>
      <trkpt lat="45.90458" lon="6.1625">
        <ele>542</ele>
        <time>2011-04-10T08:32:35Z</time>
      </trkpt>
      <trkpt lat="45.90458" lon="6.16252">
        <ele>542</ele>
        <time>2011-04-10T08:32:36Z</time>
      </trkpt>
      <trkpt lat="45.90458" lon="6.16253">
        <ele>541</ele>
        <time>2011-04-10T08:32:37Z</time>
      </trkpt>
      <trkpt lat="45.90458" lon="6.16254">
        <ele>541</ele>
        <time>2011-04-10T08:32:38Z</time>
      </trkpt>
      <trkpt lat="45.90457" lon="6.16254">
        <ele>541</ele>
        <time>2011-04-10T08:32:39Z</time>
      </trkpt>
      <trkpt lat="45.90457" lon="6.16256">
        <ele>541</ele>
        <time>2011-04-10T08:32:40Z</time>
      </trkpt>
      <trkpt lat="45.90457" lon="6.16256">
        <ele>542</ele>
        <time>2011-04-10T08:32:41Z</time>
      </trkpt>
      <trkpt lat="45.90456" lon="6.16258">
        <ele>542</ele>
        <time>2011-04-10T08:32:42Z</time>
      </trkpt>
      <trkpt lat="45.90456" lon="6.16258">
        <ele>541</ele>
        <time>2011-04-10T08:32:43Z</time>
      </trkpt>
      <trkpt lat="45.90456" lon="6.1626">
        <ele>542</ele>
        <time>2011-04-10T08:32:44Z</time>
      </trkpt>
      <trkpt lat="45.90456" lon="6.1626">
        <ele>542</ele>
        <time>2011-04-10T08:32:45Z</time>
      </trkpt>
      <trkpt lat="45.90455" lon="6.16261">
        <ele>542</ele>
        <time>2011-04-10T08:32:46Z</time>
      </trkpt>
      <trkpt lat="45.90456" lon="6.16263">
        <ele>542</ele>
        <time>2011-04-10T08:32:47Z</time>
      </trkpt>
      <trkpt lat="45.90456" lon="6.16264">
        <ele>542</ele>
        <time>2011-04-10T08:32:48Z</time>
      </trkpt>
      <trkpt lat="45.90457" lon="6.16268">
        <ele>541</ele>
        <time>2011-04-10T08:32:49Z</time>
      </trkpt>
      <trkpt lat="45.90456" lon="6.16269">
        <ele>541</ele>
        <time>2011-04-10T08:32:50Z</time>
      </trkpt>
      <trkpt lat="45.90458" lon="6.16271">
        <ele>542</ele>
        <time>2011-04-10T08:32:51Z</time>
      </trkpt>
      <trkpt lat="45.90458" lon="6.16273">
        <ele>542</ele>
        <time>2011-04-10T08:32:52Z</time>
      </trkpt>
      <trkpt lat="45.90458" lon="6.16275">
        <ele>542</ele>
        <time>2011-04-10T08:32:53Z</time>
      </trkpt>
      <trkpt lat="45.90458" lon="6.16276">
        <ele>542</ele>
        <time>2011-04-10T08:32:54Z</time>
      </trkpt>
      <trkpt lat="45.90459" lon="6.16278">
        <ele>542</ele>
        <time>2011-04-10T08:32:55Z</time>
      </trkpt>
      <trkpt lat="45.90459" lon="6.16279">
        <ele>542</ele>
        <time>2011-04-10T08:32:56Z</time>
      </trkpt>
      <trkpt lat="45.90458" lon="6.1628">
        <ele>542</ele>
        <time>2011-04-10T08:32:57Z</time>
      </trkpt>
      <trkpt lat="45.90457" lon="6.16281">
        <ele>541</ele>
        <time>2011-04-10T08:32:58Z</time>
      </trkpt>
      <trkpt lat="45.90457" lon="6.16282">
        <ele>542</ele>
        <time>2011-04-10T08:32:59Z</time>
      </trkpt>
      <trkpt lat="45.90456" lon="6.16283">
        <ele>542</ele>
        <time>2011-04-10T08:33:00Z</time>
      </trkpt>
      <trkpt lat="45.90456" lon="6.16285">
        <ele>542</ele>
        <time>2011-04-10T08:33:02Z</time>
      </trkpt>
      <trkpt lat="45.90456" lon="6.16285">
        <ele>543</ele>
        <time>2011-04-10T08:33:03Z</time>
      </trkpt>
      <trkpt lat="45.90455" lon="6.16287">
        <ele>543</ele>
        <time>2011-04-10T08:33:04Z</time>
      </trkpt>
      <trkpt lat="45.90455" lon="6.16289">
        <ele>542</ele>
        <time>2011-04-10T08:33:06Z</time>
      </trkpt>
      <trkpt lat="45.90455" lon="6.16289">
        <ele>543</ele>
        <time>2011-04-10T08:33:07Z</time>
      </trkpt>
      <trkpt lat="45.90455" lon="6.1629">
        <ele>542</ele>
        <time>2011-04-10T08:33:08Z</time>
      </trkpt>
      <trkpt lat="45.90456" lon="6.16291">
        <ele>542</ele>
        <time>2011-04-10T08:33:09Z</time>
      </trkpt>
      <trkpt lat="45.90456" lon="6.16291">
        <ele>542</ele>
        <time>2011-04-10T08:33:10Z</time>
      </trkpt>
      <trkpt lat="45.90455" lon="6.16292">
        <ele>542</ele>
        <time>2011-04-10T08:33:11Z</time>
      </trkpt>
      <trkpt lat="45.90455" lon="6.16293">
        <ele>542</ele>
        <time>2011-04-10T08:33:12Z</time>
      </trkpt>
      <trkpt lat="45.90455" lon="6.16294">
        <ele>543</ele>
        <time>2011-04-10T08:33:13Z</time>
      </trkpt>
      <trkpt lat="45.90455" lon="6.16294">
        <ele>543</ele>
        <time>2011-04-10T08:33:14Z</time>
      </trkpt>
      <trkpt lat="45.90454" lon="6.16295">
        <ele>543</ele>
        <time>2011-04-10T08:33:15Z</time>
      </trkpt>
      <trkpt lat="45.90454" lon="6.16296">
        <ele>543</ele>
        <time>2011-04-10T08:33:16Z</time>
      </trkpt>
      <trkpt lat="45.90455" lon="6.16297">
        <ele>544</ele>
        <time>2011-04-10T08:33:17Z</time>
      </trkpt>
      <trkpt lat="45.90454" lon="6.16298">
        <ele>544</ele>
        <time>2011-04-10T08:33:18Z</time>
      </trkpt>
      <trkpt lat="45.90454" lon="6.16298">
        <ele>544</ele>
        <time>2011-04-10T08:33:19Z</time>
      </trkpt>
      <trkpt lat="45.90453" lon="6.16298">
        <ele>545</ele>
        <time>2011-04-10T08:33:20Z</time>
      </trkpt>
      <trkpt lat="45.90453" lon="6.16298">
        <ele>545</ele>
        <time>2011-04-10T08:33:21Z</time>
      </trkpt>
      <trkpt lat="45.90454" lon="6.16299">
        <ele>545</ele>
        <time>2011-04-10T08:33:22Z</time>
      </trkpt>
      <trkpt lat="45.90453" lon="6.163">
        <ele>546</ele>
        <time>2011-04-10T08:33:24Z</time>
      </trkpt>
      <trkpt lat="45.90453" lon="6.16302">
        <ele>545</ele>
        <time>2011-04-10T08:33:25Z</time>
      </trkpt>
      <trkpt lat="45.90453" lon="6.16304">
        <ele>545</ele>
        <time>2011-04-10T08:33:27Z</time>
      </trkpt>
      <trkpt lat="45.90454" lon="6.16306">
        <ele>544</ele>
        <time>2011-04-10T08:33:28Z</time>
      </trkpt>
      <trkpt lat="45.90454" lon="6.16307">
        <ele>544</ele>
        <time>2011-04-10T08:33:29Z</time>
      </trkpt>
      <trkpt lat="45.90455" lon="6.1631">
        <ele>544</ele>
        <time>2011-04-10T08:33:30Z</time>
      </trkpt>
      <trkpt lat="45.90454" lon="6.16311">
        <ele>544</ele>
        <time>2011-04-10T08:33:31Z</time>
      </trkpt>
      <trkpt lat="45.90455" lon="6.16312">
        <ele>545</ele>
        <time>2011-04-10T08:33:32Z</time>
      </trkpt>
      <trkpt lat="45.90454" lon="6.16313">
        <ele>545</ele>
        <time>2011-04-10T08:33:33Z</time>
      </trkpt>
      <trkpt lat="45.90454" lon="6.16314">
        <ele>545</ele>
        <time>2011-04-10T08:33:34Z</time>
      </trkpt>
      <trkpt lat="45.90453" lon="6.16316">
        <ele>546</ele>
        <time>2011-04-10T08:33:35Z</time>
      </trkpt>
      <trkpt lat="45.90453" lon="6.16316">
        <ele>547</ele>
        <time>2011-04-10T08:33:36Z</time>
      </trkpt>
      <trkpt lat="45.90453" lon="6.16317">
        <ele>547</ele>
        <time>2011-04-10T08:33:37Z</time>
      </trkpt>
      <trkpt lat="45.90453" lon="6.16318">
        <ele>547</ele>
        <time>2011-04-10T08:33:38Z</time>
      </trkpt>
      <trkpt lat="45.90454" lon="6.16319">
        <ele>547</ele>
        <time>2011-04-10T08:33:39Z</time>
      </trkpt>
      <trkpt lat="45.90454" lon="6.16321">
        <ele>547</ele>
        <time>2011-04-10T08:33:40Z</time>
      </trkpt>
      <trkpt lat="45.90453" lon="6.16321">
        <ele>548</ele>
        <time>2011-04-10T08:33:41Z</time>
      </trkpt>
      <trkpt lat="45.90453" lon="6.16322">
        <ele>548</ele>
        <time>2011-04-10T08:33:42Z</time>
      </trkpt>
      <trkpt lat="45.90453" lon="6.16323">
        <ele>549</ele>
        <time>2011-04-10T08:33:43Z</time>
      </trkpt>
      <trkpt lat="45.90453" lon="6.16323">
        <ele>549</ele>
        <time>2011-04-10T08:33:44Z</time>
      </trkpt>
      <trkpt lat="45.90453" lon="6.16324">
        <ele>550</ele>
        <time>2011-04-10T08:33:45Z</time>
      </trkpt>
      <trkpt lat="45.90452" lon="6.16326">
        <ele>551</ele>
        <time>2011-04-10T08:33:46Z</time>
      </trkpt>
      <trkpt lat="45.90454" lon="6.16328">
        <ele>551</ele>
        <time>2011-04-10T08:33:47Z</time>
      </trkpt>
      <trkpt lat="45.90454" lon="6.16329">
        <ele>552</ele>
        <time>2011-04-10T08:33:48Z</time>
      </trkpt>
      <trkpt lat="45.90453" lon="6.16331">
        <ele>552</ele>
        <time>2011-04-10T08:33:49Z</time>
      </trkpt>
      <trkpt lat="45.90454" lon="6.16332">
        <ele>553</ele>
        <time>2011-04-10T08:33:50Z</time>
      </trkpt>
      <trkpt lat="45.90453" lon="6.16333">
        <ele>553</ele>
        <time>2011-04-10T08:33:51Z</time>
      </trkpt>
      <trkpt lat="45.90454" lon="6.16337">
        <ele>554</ele>
        <time>2011-04-10T08:34:04Z</time>
      </trkpt>
      <trkpt lat="45.90455" lon="6.16339">
        <ele>554</ele>
        <time>2011-04-10T08:34:05Z</time>
      </trkpt>
      <trkpt lat="45.90457" lon="6.16341">
        <ele>554</ele>
        <time>2011-04-10T08:34:06Z</time>
      </trkpt>
      <trkpt lat="45.90458" lon="6.16342">
        <ele>555</ele>
        <time>2011-04-10T08:34:07Z</time>
      </trkpt>
      <trkpt lat="45.90459" lon="6.16344">
        <ele>556</ele>
        <time>2011-04-10T08:34:08Z</time>
      </trkpt>
      <trkpt lat="45.90459" lon="6.16347">
        <ele>555</ele>
        <time>2011-04-10T08:34:09Z</time>
      </trkpt>
      <trkpt lat="45.90459" lon="6.16348">
        <ele>556</ele>
        <time>2011-04-10T08:34:10Z</time>
      </trkpt>
      <trkpt lat="45.9046" lon="6.16349">
        <ele>556</ele>
        <time>2011-04-10T08:34:11Z</time>
      </trkpt>
      <trkpt lat="45.90461" lon="6.16349">
        <ele>555</ele>
        <time>2011-04-10T08:34:12Z</time>
      </trkpt>
      <trkpt lat="45.90462" lon="6.1635">
        <ele>555</ele>
        <time>2011-04-10T08:34:13Z</time>
      </trkpt>
      <trkpt lat="45.90461" lon="6.16351">
        <ele>555</ele>
        <time>2011-04-10T08:34:14Z</time>
      </trkpt>
      <trkpt lat="45.90461" lon="6.16352">
        <ele>555</ele>
        <time>2011-04-10T08:34:15Z</time>
      </trkpt>
      <trkpt lat="45.90462" lon="6.16353">
        <ele>556</ele>
        <time>2011-04-10T08:34:16Z</time>
      </trkpt>
      <trkpt lat="45.90462" lon="6.16355">
        <ele>557</ele>
        <time>2011-04-10T08:34:17Z</time>
      </trkpt>
      <trkpt lat="45.90462" lon="6.16358">
        <ele>558</ele>
        <time>2011-04-10T08:34:19Z</time>
      </trkpt>
      <trkpt lat="45.90462" lon="6.1636">
        <ele>558</ele>
        <time>2011-04-10T08:34:20Z</time>
      </trkpt>
      <trkpt lat="45.90462" lon="6.16361">
        <ele>559</ele>
        <time>2011-04-10T08:34:21Z</time>
      </trkpt>
      <trkpt lat="45.90463" lon="6.16363">
        <ele>559</ele>
        <time>2011-04-10T08:34:22Z</time>
      </trkpt>
      <trkpt lat="45.90462" lon="6.16363">
        <ele>559</ele>
        <time>2011-04-10T08:34:23Z</time>
      </trkpt>
      <trkpt lat="45.90463" lon="6.16363">
        <ele>559</ele>
        <time>2011-04-10T08:34:24Z</time>
      </trkpt>
      <trkpt lat="45.90462" lon="6.16364">
        <ele>560</ele>
        <time>2011-04-10T08:34:25Z</time>
      </trkpt>
      <trkpt lat="45.90462" lon="6.16365">
        <ele>560</ele>
        <time>2011-04-10T08:34:26Z</time>
      </trkpt>
      <trkpt lat="45.90463" lon="6.16365">
        <ele>560</ele>
        <time>2011-04-10T08:34:27Z</time>
      </trkpt>
      <trkpt lat="45.90462" lon="6.16366">
        <ele>560</ele>
        <time>2011-04-10T08:34:28Z</time>
      </trkpt>
      <trkpt lat="45.90462" lon="6.16364">
        <ele>561</ele>
        <time>2011-04-10T08:34:29Z</time>
      </trkpt>
      <trkpt lat="45.90462" lon="6.16365">
        <ele>562</ele>
        <time>2011-04-10T08:34:30Z</time>
      </trkpt>
      <trkpt lat="45.90462" lon="6.16366">
        <ele>562</ele>
        <time>2011-04-10T08:34:31Z</time>
      </trkpt>
      <trkpt lat="45.90463" lon="6.16367">
        <ele>562</ele>
        <time>2011-04-10T08:34:32Z</time>
      </trkpt>
      <trkpt lat="45.90463" lon="6.16368">
        <ele>563</ele>
        <time>2011-04-10T08:34:33Z</time>
      </trkpt>
      <trkpt lat="45.90463" lon="6.1637">
        <ele>563</ele>
        <time>2011-04-10T08:34:34Z</time>
      </trkpt>
      <trkpt lat="45.90463" lon="6.16371">
        <ele>564</ele>
        <time>2011-04-10T08:34:35Z</time>
      </trkpt>
      <trkpt lat="45.90464" lon="6.16371">
        <ele>563</ele>
        <time>2011-04-10T08:34:36Z</time>
      </trkpt>
      <trkpt lat="45.90465" lon="6.16372">
        <ele>564</ele>
        <time>2011-04-10T08:34:37Z</time>
      </trkpt>
      <trkpt lat="45.90463" lon="6.16373">
        <ele>564</ele>
        <time>2011-04-10T08:34:38Z</time>
      </trkpt>
      <trkpt lat="45.90463" lon="6.16373">
        <ele>565</ele>
        <time>2011-04-10T08:34:39Z</time>
      </trkpt>
      <trkpt lat="45.90465" lon="6.16373">
        <ele>566</ele>
        <time>2011-04-10T08:34:40Z</time>
      </trkpt>
      <trkpt lat="45.90463" lon="6.16374">
        <ele>565</ele>
        <time>2011-04-10T08:34:41Z</time>
      </trkpt>
      <trkpt lat="45.90466" lon="6.16375">
        <ele>566</ele>
        <time>2011-04-10T08:34:42Z</time>
      </trkpt>
      <trkpt lat="45.90466" lon="6.16377">
        <ele>566</ele>
        <time>2011-04-10T08:34:43Z</time>
      </trkpt>
      <trkpt lat="45.90466" lon="6.16377">
        <ele>566</ele>
        <time>2011-04-10T08:34:44Z</time>
      </trkpt>
      <trkpt lat="45.90467" lon="6.16377">
        <ele>567</ele>
        <time>2011-04-10T08:34:45Z</time>
      </trkpt>
      <trkpt lat="45.90467" lon="6.16378">
        <ele>567</ele>
        <time>2011-04-10T08:34:46Z</time>
      </trkpt>
      <trkpt lat="45.90469" lon="6.16378">
        <ele>568</ele>
        <time>2011-04-10T08:35:22Z</time>
      </trkpt>
      <trkpt lat="45.90474" lon="6.16381">
        <ele>569</ele>
        <time>2011-04-10T08:35:23Z</time>
      </trkpt>
      <trkpt lat="45.9048" lon="6.16385">
        <ele>570</ele>
        <time>2011-04-10T08:35:24Z</time>
      </trkpt>
      <trkpt lat="45.90482" lon="6.16386">
        <ele>570</ele>
        <time>2011-04-10T08:35:25Z</time>
      </trkpt>
      <trkpt lat="45.90483" lon="6.16388">
        <ele>571</ele>
        <time>2011-04-10T08:35:26Z</time>
      </trkpt>
      <trkpt lat="45.90485" lon="6.1639">
        <ele>571</ele>
        <time>2011-04-10T08:35:27Z</time>
      </trkpt>
      <trkpt lat="45.90489" lon="6.1639">
        <ele>571</ele>
        <time>2011-04-10T08:35:28Z</time>
      </trkpt>
      <trkpt lat="45.90492" lon="6.16393">
        <ele>572</ele>
        <time>2011-04-10T08:35:29Z</time>
      </trkpt>
      <trkpt lat="45.90495" lon="6.16394">
        <ele>572</ele>
        <time>2011-04-10T08:35:32Z</time>
      </trkpt>
      <trkpt lat="45.90496" lon="6.16395">
        <ele>571</ele>
        <time>2011-04-10T08:35:33Z</time>
      </trkpt>
      <trkpt lat="45.90498" lon="6.16399">
        <ele>572</ele>
        <time>2011-04-10T08:35:34Z</time>
      </trkpt>
      <trkpt lat="45.905" lon="6.164">
        <ele>572</ele>
        <time>2011-04-10T08:35:35Z</time>
      </trkpt>
      <trkpt lat="45.90502" lon="6.16401">
        <ele>573</ele>
        <time>2011-04-10T08:35:36Z</time>
      </trkpt>
      <trkpt lat="45.90503" lon="6.16404">
        <ele>572</ele>
        <time>2011-04-10T08:35:37Z</time>
      </trkpt>
      <trkpt lat="45.90504" lon="6.16403">
        <ele>572</ele>
        <time>2011-04-10T08:35:38Z</time>
      </trkpt>
      <trkpt lat="45.90506" lon="6.16406">
        <ele>571</ele>
        <time>2011-04-10T08:35:40Z</time>
      </trkpt>
      <trkpt lat="45.90508" lon="6.16408">
        <ele>571</ele>
        <time>2011-04-10T08:35:41Z</time>
      </trkpt>
      <trkpt lat="45.9051" lon="6.16408">
        <ele>572</ele>
        <time>2011-04-10T08:35:42Z</time>
      </trkpt>
      <trkpt lat="45.90512" lon="6.16408">
        <ele>571</ele>
        <time>2011-04-10T08:35:43Z</time>
      </trkpt>
      <trkpt lat="45.90513" lon="6.16409">
        <ele>571</ele>
        <time>2011-04-10T08:35:44Z</time>
      </trkpt>
      <trkpt lat="45.90513" lon="6.16408">
        <ele>572</ele>
        <time>2011-04-10T08:35:45Z</time>
      </trkpt>
      <trkpt lat="45.90512" lon="6.16408">
        <ele>573</ele>
        <time>2011-04-10T08:35:46Z</time>
      </trkpt>
      <trkpt lat="45.90512" lon="6.16407">
        <ele>573</ele>
        <time>2011-04-10T08:35:47Z</time>
      </trkpt>
      <trkpt lat="45.90512" lon="6.16405">
        <ele>571</ele>
        <time>2011-04-10T08:35:48Z</time>
      </trkpt>
      <trkpt lat="45.90511" lon="6.16404">
        <ele>571</ele>
        <time>2011-04-10T08:35:49Z</time>
      </trkpt>
      <trkpt lat="45.90511" lon="6.16404">
        <ele>570</ele>
        <time>2011-04-10T08:35:50Z</time>
      </trkpt>
      <trkpt lat="45.90509" lon="6.16403">
        <ele>569</ele>
        <time>2011-04-10T08:35:51Z</time>
      </trkpt>
      <trkpt lat="45.90509" lon="6.16401">
        <ele>569</ele>
        <time>2011-04-10T08:35:52Z</time>
      </trkpt>
      <trkpt lat="45.90507" lon="6.16401">
        <ele>570</ele>
        <time>2011-04-10T08:35:53Z</time>
      </trkpt>
      <trkpt lat="45.90506" lon="6.164">
        <ele>571</ele>
        <time>2011-04-10T08:35:54Z</time>
      </trkpt>
      <trkpt lat="45.90507" lon="6.16399">
        <ele>570</ele>
        <time>2011-04-10T08:35:55Z</time>
      </trkpt>
      <trkpt lat="45.90506" lon="6.16398">
        <ele>570</ele>
        <time>2011-04-10T08:35:56Z</time>
      </trkpt>
      <trkpt lat="45.90505" lon="6.16397">
        <ele>570</ele>
        <time>2011-04-10T08:35:57Z</time>
      </trkpt>
      <trkpt lat="45.90505" lon="6.16398">
        <ele>570</ele>
        <time>2011-04-10T08:35:58Z</time>
      </trkpt>
      <trkpt lat="45.90504" lon="6.16396">
        <ele>570</ele>
        <time>2011-04-10T08:35:59Z</time>
      </trkpt>
      <trkpt lat="45.90503" lon="6.16395">
        <ele>571</ele>
        <time>2011-04-10T08:36:00Z</time>
      </trkpt>
      <trkpt lat="45.90502" lon="6.16394">
        <ele>572</ele>
        <time>2011-04-10T08:36:02Z</time>
      </trkpt>
      <trkpt lat="45.90501" lon="6.16395">
        <ele>573</ele>
        <time>2011-04-10T08:36:03Z</time>
      </trkpt>
      <trkpt lat="45.905" lon="6.16395">
        <ele>573</ele>
        <time>2011-04-10T08:36:04Z</time>
      </trkpt>
      <trkpt lat="45.905" lon="6.16395">
        <ele>573</ele>
        <time>2011-04-10T08:36:05Z</time>
      </trkpt>
      <trkpt lat="45.90499" lon="6.16395">
        <ele>574</ele>
        <time>2011-04-10T08:36:06Z</time>
      </trkpt>
      <trkpt lat="45.90498" lon="6.16394">
        <ele>575</ele>
        <time>2011-04-10T08:36:07Z</time>
      </trkpt>
      <trkpt lat="45.90498" lon="6.16394">
        <ele>575</ele>
        <time>2011-04-10T08:36:08Z</time>
      </trkpt>
      <trkpt lat="45.90497" lon="6.16395">
        <ele>575</ele>
        <time>2011-04-10T08:36:09Z</time>
      </trkpt>
      <trkpt lat="45.90496" lon="6.16396">
        <ele>575</ele>
        <time>2011-04-10T08:36:10Z</time>
      </trkpt>
      <trkpt lat="45.90495" lon="6.16396">
        <ele>575</ele>
        <time>2011-04-10T08:36:11Z</time>
      </trkpt>
      <trkpt lat="45.90493" lon="6.16396">
        <ele>576</ele>
        <time>2011-04-10T08:36:12Z</time>
      </trkpt>
      <trkpt lat="45.90493" lon="6.16396">
        <ele>576</ele>
        <time>2011-04-10T08:36:13Z</time>
      </trkpt>
      <trkpt lat="45.90493" lon="6.16397">
        <ele>577</ele>
        <time>2011-04-10T08:36:14Z</time>
      </trkpt>
      <trkpt lat="45.90492" lon="6.16396">
        <ele>577</ele>
        <time>2011-04-10T08:36:15Z</time>
      </trkpt>
      <trkpt lat="45.90491" lon="6.16396">
        <ele>578</ele>
        <time>2011-04-10T08:36:16Z</time>
      </trkpt>
      <trkpt lat="45.9049" lon="6.16395">
        <ele>578</ele>
        <time>2011-04-10T08:36:17Z</time>
      </trkpt>
      <trkpt lat="45.90489" lon="6.16394">
        <ele>578</ele>
        <time>2011-04-10T08:36:18Z</time>
      </trkpt>
      <trkpt lat="45.90488" lon="6.16394">
        <ele>578</ele>
        <time>2011-04-10T08:36:19Z</time>
      </trkpt>
      <trkpt lat="45.90487" lon="6.16395">
        <ele>579</ele>
        <time>2011-04-10T08:36:20Z</time>
      </trkpt>
      <trkpt lat="45.90485" lon="6.16394">
        <ele>579</ele>
        <time>2011-04-10T08:36:21Z</time>
      </trkpt>
      <trkpt lat="45.90483" lon="6.16393">
        <ele>581</ele>
        <time>2011-04-10T08:36:22Z</time>
      </trkpt>
      <trkpt lat="45.90482" lon="6.16393">
        <ele>581</ele>
        <time>2011-04-10T08:36:23Z</time>
      </trkpt>
      <trkpt lat="45.90481" lon="6.16393">
        <ele>581</ele>
        <time>2011-04-10T08:36:24Z</time>
      </trkpt>
      <trkpt lat="45.90481" lon="6.16394">
        <ele>581</ele>
        <time>2011-04-10T08:36:25Z</time>
      </trkpt>
      <trkpt lat="45.90481" lon="6.16393">
        <ele>581</ele>
        <time>2011-04-10T08:36:26Z</time>
      </trkpt>
      <trkpt lat="45.9048" lon="6.16393">
        <ele>581</ele>
        <time>2011-04-10T08:36:27Z</time>
      </trkpt>
      <trkpt lat="45.9048" lon="6.16394">
        <ele>582</ele>
        <time>2011-04-10T08:36:28Z</time>
      </trkpt>
      <trkpt lat="45.90478" lon="6.16395">
        <ele>581</ele>
        <time>2011-04-10T08:36:29Z</time>
      </trkpt>
      <trkpt lat="45.90478" lon="6.16396">
        <ele>581</ele>
        <time>2011-04-10T08:36:30Z</time>
      </trkpt>
      <trkpt lat="45.90479" lon="6.16397">
        <ele>582</ele>
        <time>2011-04-10T08:36:31Z</time>
      </trkpt>
      <trkpt lat="45.90477" lon="6.16395">
        <ele>583</ele>
        <time>2011-04-10T08:36:32Z</time>
      </trkpt>
      <trkpt lat="45.90476" lon="6.16395">
        <ele>583</ele>
        <time>2011-04-10T08:36:33Z</time>
      </trkpt>
      <trkpt lat="45.90475" lon="6.16394">
        <ele>583</ele>
        <time>2011-04-10T08:36:34Z</time>
      </trkpt>
      <trkpt lat="45.90475" lon="6.16394">
        <ele>583</ele>
        <time>2011-04-10T08:36:35Z</time>
      </trkpt>
      <trkpt lat="45.90474" lon="6.16394">
        <ele>584</ele>
        <time>2011-04-10T08:36:36Z</time>
      </trkpt>
      <trkpt lat="45.90474" lon="6.16394">
        <ele>584</ele>
        <time>2011-04-10T08:36:37Z</time>
      </trkpt>
      <trkpt lat="45.90474" lon="6.16394">
        <ele>584</ele>
        <time>2011-04-10T08:36:38Z</time>
      </trkpt>
      <trkpt lat="45.90474" lon="6.16396">
        <ele>584</ele>
        <time>2011-04-10T08:36:39Z</time>
      </trkpt>
      <trkpt lat="45.90473" lon="6.16397">
        <ele>583</ele>
        <time>2011-04-10T08:36:40Z</time>
      </trkpt>
      <trkpt lat="45.90471" lon="6.16398">
        <ele>583</ele>
        <time>2011-04-10T08:36:41Z</time>
      </trkpt>
      <trkpt lat="45.9047" lon="6.164">
        <ele>583</ele>
        <time>2011-04-10T08:36:42Z</time>
      </trkpt>
      <trkpt lat="45.90468" lon="6.164">
        <ele>583</ele>
        <time>2011-04-10T08:36:43Z</time>
      </trkpt>
      <trkpt lat="45.90469" lon="6.16402">
        <ele>584</ele>
        <time>2011-04-10T08:36:44Z</time>
      </trkpt>
      <trkpt lat="45.90468" lon="6.16404">
        <ele>586</ele>
        <time>2011-04-10T08:36:45Z</time>
      </trkpt>
      <trkpt lat="45.90467" lon="6.16406">
        <ele>586</ele>
        <time>2011-04-10T08:36:46Z</time>
      </trkpt>
      <trkpt lat="45.90467" lon="6.16408">
        <ele>586</ele>
        <time>2011-04-10T08:36:47Z</time>
      </trkpt>
      <trkpt lat="45.90467" lon="6.16409">
        <ele>586</ele>
        <time>2011-04-10T08:36:48Z</time>
      </trkpt>
      <trkpt lat="45.90466" lon="6.16407">
        <ele>587</ele>
        <time>2011-04-10T08:36:49Z</time>
      </trkpt>
      <trkpt lat="45.90464" lon="6.16409">
        <ele>588</ele>
        <time>2011-04-10T08:36:50Z</time>
      </trkpt>
      <trkpt lat="45.90464" lon="6.16409">
        <ele>587</ele>
        <time>2011-04-10T08:36:51Z</time>
      </trkpt>
      <trkpt lat="45.9046" lon="6.16412">
        <ele>589</ele>
        <time>2011-04-10T08:36:58Z</time>
      </trkpt>
      <trkpt lat="45.90458" lon="6.16413">
        <ele>589</ele>
        <time>2011-04-10T08:36:59Z</time>
      </trkpt>
      <trkpt lat="45.90458" lon="6.16413">
        <ele>590</ele>
        <time>2011-04-10T08:37:00Z</time>
      </trkpt>
      <trkpt lat="45.90453" lon="6.1641">
        <ele>591</ele>
        <time>2011-04-10T08:37:02Z</time>
      </trkpt>
      <trkpt lat="45.90454" lon="6.16414">
        <ele>589</ele>
        <time>2011-04-10T08:38:02Z</time>
      </trkpt>
      <trkpt lat="45.90455" lon="6.16416">
        <ele>588</ele>
        <time>2011-04-10T08:38:03Z</time>
      </trkpt>
      <trkpt lat="45.90456" lon="6.16416">
        <ele>589</ele>
        <time>2011-04-10T08:38:04Z</time>
      </trkpt>
      <trkpt lat="45.90456" lon="6.16417">
        <ele>588</ele>
        <time>2011-04-10T08:38:05Z</time>
      </trkpt>
      <trkpt lat="45.90459" lon="6.16422">
        <ele>592</ele>
        <time>2011-04-10T08:38:48Z</time>
      </trkpt>
      <trkpt lat="45.90458" lon="6.16425">
        <ele>592</ele>
        <time>2011-04-10T08:38:49Z</time>
      </trkpt>
      <trkpt lat="45.90455" lon="6.16431">
        <ele>594</ele>
        <time>2011-04-10T08:38:50Z</time>
      </trkpt>
      <trkpt lat="45.90453" lon="6.16432">
        <ele>595</ele>
        <time>2011-04-10T08:38:51Z</time>
      </trkpt>
      <trkpt lat="45.90451" lon="6.16432">
        <ele>596</ele>
        <time>2011-04-10T08:38:52Z</time>
      </trkpt>
      <trkpt lat="45.90449" lon="6.16434">
        <ele>596</ele>
        <time>2011-04-10T08:38:53Z</time>
      </trkpt>
      <trkpt lat="45.90447" lon="6.16437">
        <ele>597</ele>
        <time>2011-04-10T08:38:54Z</time>
      </trkpt>
      <trkpt lat="45.90444" lon="6.16436">
        <ele>598</ele>
        <time>2011-04-10T08:38:55Z</time>
      </trkpt>
      <trkpt lat="45.90443" lon="6.16436">
        <ele>598</ele>
        <time>2011-04-10T08:38:56Z</time>
      </trkpt>
      <trkpt lat="45.90441" lon="6.16437">
        <ele>599</ele>
        <time>2011-04-10T08:38:57Z</time>
      </trkpt>
      <trkpt lat="45.90438" lon="6.16438">
        <ele>599</ele>
        <time>2011-04-10T08:38:58Z</time>
      </trkpt>
      <trkpt lat="45.90434" lon="6.16438">
        <ele>600</ele>
        <time>2011-04-10T08:38:59Z</time>
      </trkpt>
      <trkpt lat="45.90435" lon="6.16439">
        <ele>601</ele>
        <time>2011-04-10T08:39:00Z</time>
      </trkpt>
      <trkpt lat="45.90434" lon="6.16439">
        <ele>602</ele>
        <time>2011-04-10T08:39:02Z</time>
      </trkpt>
      <trkpt lat="45.90431" lon="6.16438">
        <ele>603</ele>
        <time>2011-04-10T08:39:03Z</time>
      </trkpt>
      <trkpt lat="45.90431" lon="6.1644">
        <ele>603</ele>
        <time>2011-04-10T08:39:04Z</time>
      </trkpt>
      <trkpt lat="45.9043" lon="6.1644">
        <ele>603</ele>
        <time>2011-04-10T08:39:05Z</time>
      </trkpt>
      <trkpt lat="45.9043" lon="6.16441">
        <ele>603</ele>
        <time>2011-04-10T08:40:05Z</time>
      </trkpt>
      <trkpt lat="45.90433" lon="6.16446">
        <ele>604</ele>
        <time>2011-04-10T08:40:06Z</time>
      </trkpt>
      <trkpt lat="45.90436" lon="6.16447">
        <ele>605</ele>
        <time>2011-04-10T08:40:07Z</time>
      </trkpt>
      <trkpt lat="45.9044" lon="6.16451">
        <ele>605</ele>
        <time>2011-04-10T08:40:08Z</time>
      </trkpt>
      <trkpt lat="45.90443" lon="6.16456">
        <ele>607</ele>
        <time>2011-04-10T08:40:09Z</time>
      </trkpt>
      <trkpt lat="45.90446" lon="6.16459">
        <ele>607</ele>
        <time>2011-04-10T08:40:10Z</time>
      </trkpt>
      <trkpt lat="45.90448" lon="6.16461">
        <ele>608</ele>
        <time>2011-04-10T08:40:11Z</time>
      </trkpt>
      <trkpt lat="45.90451" lon="6.16462">
        <ele>609</ele>
        <time>2011-04-10T08:40:12Z</time>
      </trkpt>
      <trkpt lat="45.90454" lon="6.1646">
        <ele>609</ele>
        <time>2011-04-10T08:40:13Z</time>
      </trkpt>
      <trkpt lat="45.90455" lon="6.16464">
        <ele>608</ele>
        <time>2011-04-10T08:40:14Z</time>
      </trkpt>
      <trkpt lat="45.90459" lon="6.16466">
        <ele>610</ele>
        <time>2011-04-10T08:40:25Z</time>
      </trkpt>
      <trkpt lat="45.90458" lon="6.16463">
        <ele>611</ele>
        <time>2011-04-10T08:40:26Z</time>
      </trkpt>
      <trkpt lat="45.90459" lon="6.16465">
        <ele>611</ele>
        <time>2011-04-10T08:41:35Z</time>
      </trkpt>
      <trkpt lat="45.90462" lon="6.16472">
        <ele>612</ele>
        <time>2011-04-10T08:41:36Z</time>
      </trkpt>
      <trkpt lat="45.90465" lon="6.16475">
        <ele>611</ele>
        <time>2011-04-10T08:41:37Z</time>
      </trkpt>
      <trkpt lat="45.90468" lon="6.16476">
        <ele>611</ele>
        <time>2011-04-10T08:41:38Z</time>
      </trkpt>
      <trkpt lat="45.90472" lon="6.1648">
        <ele>612</ele>
        <time>2011-04-10T08:41:39Z</time>
      </trkpt>
      <trkpt lat="45.90474" lon="6.16482">
        <ele>612</ele>
        <time>2011-04-10T08:41:40Z</time>
      </trkpt>
      <trkpt lat="45.90476" lon="6.16485">
        <ele>613</ele>
        <time>2011-04-10T08:41:41Z</time>
      </trkpt>
      <trkpt lat="45.90477" lon="6.16486">
        <ele>613</ele>
        <time>2011-04-10T08:41:42Z</time>
      </trkpt>
      <trkpt lat="45.90478" lon="6.16483">
        <ele>615</ele>
        <time>2011-04-10T08:41:43Z</time>
      </trkpt>
      <trkpt lat="45.9048" lon="6.16483">
        <ele>616</ele>
        <time>2011-04-10T08:41:44Z</time>
      </trkpt>
      <trkpt lat="45.90481" lon="6.16485">
        <ele>616</ele>
        <time>2011-04-10T08:41:45Z</time>
      </trkpt>
      <trkpt lat="45.90481" lon="6.16485">
        <ele>616</ele>
        <time>2011-04-10T08:41:46Z</time>
      </trkpt>
      <trkpt lat="45.90482" lon="6.16487">
        <ele>616</ele>
        <time>2011-04-10T08:41:47Z</time>
      </trkpt>
      <trkpt lat="45.90483" lon="6.16488">
        <ele>617</ele>
        <time>2011-04-10T08:41:48Z</time>
      </trkpt>
      <trkpt lat="45.90483" lon="6.1649">
        <ele>617</ele>
        <time>2011-04-10T08:41:49Z</time>
      </trkpt>
      <trkpt lat="45.90484" lon="6.16492">
        <ele>617</ele>
        <time>2011-04-10T08:41:50Z</time>
      </trkpt>
      <trkpt lat="45.90485" lon="6.16494">
        <ele>618</ele>
        <time>2011-04-10T08:41:51Z</time>
      </trkpt>
      <trkpt lat="45.90491" lon="6.16491">
        <ele>622</ele>
        <time>2011-04-10T08:42:16Z</time>
      </trkpt>
      <trkpt lat="45.90497" lon="6.16494">
        <ele>623</ele>
        <time>2011-04-10T08:42:17Z</time>
      </trkpt>
      <trkpt lat="45.905" lon="6.16499">
        <ele>624</ele>
        <time>2011-04-10T08:42:18Z</time>
      </trkpt>
      <trkpt lat="45.90504" lon="6.16503">
        <ele>623</ele>
        <time>2011-04-10T08:42:19Z</time>
      </trkpt>
      <trkpt lat="45.90506" lon="6.16504">
        <ele>624</ele>
        <time>2011-04-10T08:42:20Z</time>
      </trkpt>
      <trkpt lat="45.90509" lon="6.16505">
        <ele>626</ele>
        <time>2011-04-10T08:42:21Z</time>
      </trkpt>
      <trkpt lat="45.90511" lon="6.16506">
        <ele>626</ele>
        <time>2011-04-10T08:42:22Z</time>
      </trkpt>
      <trkpt lat="45.90512" lon="6.16506">
        <ele>626</ele>
        <time>2011-04-10T08:42:23Z</time>
      </trkpt>
      <trkpt lat="45.90513" lon="6.16505">
        <ele>626</ele>
        <time>2011-04-10T08:42:24Z</time>
      </trkpt>
      <trkpt lat="45.90514" lon="6.16505">
        <ele>627</ele>
        <time>2011-04-10T08:42:25Z</time>
      </trkpt>
      <trkpt lat="45.90513" lon="6.16506">
        <ele>627</ele>
        <time>2011-04-10T08:42:26Z</time>
      </trkpt>
      <trkpt lat="45.90515" lon="6.16505">
        <ele>628</ele>
        <time>2011-04-10T08:42:27Z</time>
      </trkpt>
      <trkpt lat="45.90517" lon="6.16506">
        <ele>628</ele>
        <time>2011-04-10T08:42:28Z</time>
      </trkpt>
      <trkpt lat="45.90519" lon="6.16507">
        <ele>628</ele>
        <time>2011-04-10T08:42:29Z</time>
      </trkpt>
      <trkpt lat="45.9052" lon="6.16505">
        <ele>628</ele>
        <time>2011-04-10T08:42:30Z</time>
      </trkpt>
      <trkpt lat="45.90521" lon="6.16505">
        <ele>629</ele>
        <time>2011-04-10T08:42:31Z</time>
      </trkpt>
      <trkpt lat="45.90522" lon="6.16505">
        <ele>628</ele>
        <time>2011-04-10T08:42:32Z</time>
      </trkpt>
      <trkpt lat="45.90524" lon="6.16508">
        <ele>628</ele>
        <time>2011-04-10T08:42:33Z</time>
      </trkpt>
      <trkpt lat="45.90525" lon="6.1651">
        <ele>629</ele>
        <time>2011-04-10T08:42:34Z</time>
      </trkpt>
      <trkpt lat="45.90525" lon="6.16512">
        <ele>629</ele>
        <time>2011-04-10T08:42:35Z</time>
      </trkpt>
      <trkpt lat="45.90526" lon="6.16509">
        <ele>629</ele>
        <time>2011-04-10T08:42:36Z</time>
      </trkpt>
      <trkpt lat="45.90525" lon="6.1651">
        <ele>630</ele>
        <time>2011-04-10T08:42:37Z</time>
      </trkpt>
      <trkpt lat="45.90527" lon="6.16507">
        <ele>630</ele>
        <time>2011-04-10T08:42:38Z</time>
      </trkpt>
      <trkpt lat="45.90528" lon="6.16506">
        <ele>632</ele>
        <time>2011-04-10T08:42:39Z</time>
      </trkpt>
      <trkpt lat="45.90528" lon="6.16506">
        <ele>633</ele>
        <time>2011-04-10T08:42:40Z</time>
      </trkpt>
      <trkpt lat="45.90529" lon="6.16506">
        <ele>633</ele>
        <time>2011-04-10T08:42:41Z</time>
      </trkpt>
      <trkpt lat="45.90529" lon="6.16509">
        <ele>633</ele>
        <time>2011-04-10T08:42:42Z</time>
      </trkpt>
      <trkpt lat="45.90529" lon="6.16509">
        <ele>633</ele>
        <time>2011-04-10T08:42:43Z</time>
      </trkpt>
      <trkpt lat="45.90531" lon="6.16511">
        <ele>633</ele>
        <time>2011-04-10T08:42:44Z</time>
      </trkpt>
      <trkpt lat="45.90531" lon="6.16512">
        <ele>634</ele>
        <time>2011-04-10T08:42:45Z</time>
      </trkpt>
      <trkpt lat="45.90533" lon="6.16512">
        <ele>634</ele>
        <time>2011-04-10T08:42:46Z</time>
      </trkpt>
      <trkpt lat="45.90533" lon="6.16511">
        <ele>635</ele>
        <time>2011-04-10T08:42:47Z</time>
      </trkpt>
      <trkpt lat="45.90534" lon="6.1651">
        <ele>634</ele>
        <time>2011-04-10T08:42:48Z</time>
      </trkpt>
      <trkpt lat="45.90534" lon="6.16509">
        <ele>635</ele>
        <time>2011-04-10T08:42:49Z</time>
      </trkpt>
      <trkpt lat="45.90535" lon="6.16508">
        <ele>635</ele>
        <time>2011-04-10T08:42:50Z</time>
      </trkpt>
      <trkpt lat="45.90535" lon="6.16509">
        <ele>635</ele>
        <time>2011-04-10T08:42:51Z</time>
      </trkpt>
      <trkpt lat="45.90535" lon="6.16511">
        <ele>635</ele>
        <time>2011-04-10T08:42:52Z</time>
      </trkpt>
      <trkpt lat="45.90536" lon="6.16511">
        <ele>635</ele>
        <time>2011-04-10T08:42:53Z</time>
      </trkpt>
      <trkpt lat="45.90537" lon="6.16512">
        <ele>634</ele>
        <time>2011-04-10T08:42:54Z</time>
      </trkpt>
      <trkpt lat="45.90539" lon="6.16514">
        <ele>634</ele>
        <time>2011-04-10T08:42:55Z</time>
      </trkpt>
      <trkpt lat="45.9054" lon="6.16515">
        <ele>634</ele>
        <time>2011-04-10T08:42:56Z</time>
      </trkpt>
      <trkpt lat="45.90541" lon="6.16515">
        <ele>634</ele>
        <time>2011-04-10T08:42:57Z</time>
      </trkpt>
      <trkpt lat="45.90541" lon="6.16516">
        <ele>634</ele>
        <time>2011-04-10T08:42:58Z</time>
      </trkpt>
      <trkpt lat="45.90542" lon="6.16518">
        <ele>634</ele>
        <time>2011-04-10T08:42:59Z</time>
      </trkpt>
      <trkpt lat="45.90543" lon="6.16519">
        <ele>635</ele>
        <time>2011-04-10T08:43:00Z</time>
      </trkpt>
      <trkpt lat="45.90544" lon="6.1652">
        <ele>634</ele>
        <time>2011-04-10T08:43:02Z</time>
      </trkpt>
      <trkpt lat="45.90546" lon="6.16521">
        <ele>634</ele>
        <time>2011-04-10T08:43:03Z</time>
      </trkpt>
      <trkpt lat="45.90546" lon="6.16522">
        <ele>634</ele>
        <time>2011-04-10T08:43:04Z</time>
      </trkpt>
      <trkpt lat="45.90552" lon="6.16528">
        <ele>634</ele>
        <time>2011-04-10T08:43:06Z</time>
      </trkpt>
      <trkpt lat="45.90555" lon="6.16529">
        <ele>632</ele>
        <time>2011-04-10T08:43:07Z</time>
      </trkpt>
      <trkpt lat="45.90555" lon="6.1653">
        <ele>632</ele>
        <time>2011-04-10T08:43:08Z</time>
      </trkpt>
      <trkpt lat="45.90555" lon="6.16528">
        <ele>633</ele>
        <time>2011-04-10T08:43:09Z</time>
      </trkpt>
      <trkpt lat="45.90555" lon="6.16528">
        <ele>633</ele>
        <time>2011-04-10T08:43:10Z</time>
      </trkpt>
      <trkpt lat="45.90555" lon="6.16528">
        <ele>634</ele>
        <time>2011-04-10T08:43:11Z</time>
      </trkpt>
      <trkpt lat="45.90556" lon="6.16528">
        <ele>635</ele>
        <time>2011-04-10T08:43:12Z</time>
      </trkpt>
      <trkpt lat="45.90555" lon="6.16527">
        <ele>634</ele>
        <time>2011-04-10T08:43:13Z</time>
      </trkpt>
      <trkpt lat="45.90552" lon="6.16527">
        <ele>635</ele>
        <time>2011-04-10T08:43:48Z</time>
      </trkpt>
      <trkpt lat="45.9055" lon="6.16527">
        <ele>637</ele>
        <time>2011-04-10T08:43:49Z</time>
      </trkpt>
      <trkpt lat="45.90548" lon="6.16528">
        <ele>638</ele>
        <time>2011-04-10T08:43:50Z</time>
      </trkpt>
      <trkpt lat="45.90546" lon="6.16528">
        <ele>639</ele>
        <time>2011-04-10T08:43:51Z</time>
      </trkpt>
      <trkpt lat="45.90546" lon="6.16526">
        <ele>640</ele>
        <time>2011-04-10T08:43:52Z</time>
      </trkpt>
      <trkpt lat="45.90545" lon="6.16527">
        <ele>640</ele>
        <time>2011-04-10T08:43:53Z</time>
      </trkpt>
      <trkpt lat="45.90544" lon="6.16526">
        <ele>640</ele>
        <time>2011-04-10T08:43:54Z</time>
      </trkpt>
      <trkpt lat="45.90543" lon="6.16527">
        <ele>640</ele>
        <time>2011-04-10T08:43:55Z</time>
      </trkpt>
      <trkpt lat="45.90542" lon="6.16527">
        <ele>640</ele>
        <time>2011-04-10T08:43:56Z</time>
      </trkpt>
      <trkpt lat="45.90542" lon="6.16527">
        <ele>640</ele>
        <time>2011-04-10T08:43:57Z</time>
      </trkpt>
      <trkpt lat="45.90541" lon="6.16526">
        <ele>641</ele>
        <time>2011-04-10T08:43:58Z</time>
      </trkpt>
      <trkpt lat="45.90541" lon="6.16526">
        <ele>641</ele>
        <time>2011-04-10T08:43:59Z</time>
      </trkpt>
      <trkpt lat="45.90541" lon="6.16527">
        <ele>641</ele>
        <time>2011-04-10T08:44:00Z</time>
      </trkpt>
      <trkpt lat="45.90541" lon="6.16529">
        <ele>641</ele>
        <time>2011-04-10T08:44:02Z</time>
      </trkpt>
      <trkpt lat="45.90541" lon="6.16531">
        <ele>641</ele>
        <time>2011-04-10T08:44:03Z</time>
      </trkpt>
      <trkpt lat="45.90541" lon="6.16533">
        <ele>641</ele>
        <time>2011-04-10T08:44:04Z</time>
      </trkpt>
      <trkpt lat="45.90541" lon="6.16534">
        <ele>642</ele>
        <time>2011-04-10T08:44:05Z</time>
      </trkpt>
      <trkpt lat="45.90541" lon="6.16535">
        <ele>642</ele>
        <time>2011-04-10T08:44:06Z</time>
      </trkpt>
      <trkpt lat="45.90541" lon="6.16535">
        <ele>642</ele>
        <time>2011-04-10T08:44:07Z</time>
      </trkpt>
      <trkpt lat="45.90541" lon="6.16535">
        <ele>642</ele>
        <time>2011-04-10T08:44:08Z</time>
      </trkpt>
      <trkpt lat="45.90541" lon="6.16535">
        <ele>643</ele>
        <time>2011-04-10T08:44:09Z</time>
      </trkpt>
      <trkpt lat="45.90541" lon="6.16532">
        <ele>643</ele>
        <time>2011-04-10T08:44:10Z</time>
      </trkpt>
      <trkpt lat="45.90544" lon="6.16535">
        <ele>644</ele>
        <time>2011-04-10T08:44:34Z</time>
      </trkpt>
      <trkpt lat="45.90544" lon="6.16537">
        <ele>645</ele>
        <time>2011-04-10T08:44:35Z</time>
      </trkpt>
      <trkpt lat="45.90543" lon="6.1654">
        <ele>646</ele>
        <time>2011-04-10T08:44:36Z</time>
      </trkpt>
      <trkpt lat="45.90543" lon="6.1654">
        <ele>647</ele>
        <time>2011-04-10T08:44:37Z</time>
      </trkpt>
      <trkpt lat="45.90542" lon="6.16541">
        <ele>646</ele>
        <time>2011-04-10T08:44:38Z</time>
      </trkpt>
      <trkpt lat="45.90543" lon="6.16544">
        <ele>647</ele>
        <time>2011-04-10T08:44:39Z</time>
      </trkpt>
      <trkpt lat="45.90544" lon="6.16546">
        <ele>647</ele>
        <time>2011-04-10T08:44:50Z</time>
      </trkpt>
      <trkpt lat="45.90544" lon="6.16547">
        <ele>647</ele>
        <time>2011-04-10T08:44:51Z</time>
      </trkpt>
      <trkpt lat="45.90543" lon="6.16548">
        <ele>646</ele>
        <time>2011-04-10T08:44:52Z</time>
      </trkpt>
      <trkpt lat="45.90543" lon="6.16548">
        <ele>646</ele>
        <time>2011-04-10T08:44:53Z</time>
      </trkpt>
      <trkpt lat="45.90541" lon="6.16548">
        <ele>647</ele>
        <time>2011-04-10T08:44:54Z</time>
      </trkpt>
      <trkpt lat="45.9054" lon="6.1655">
        <ele>648</ele>
        <time>2011-04-10T08:44:55Z</time>
      </trkpt>
      <trkpt lat="45.90541" lon="6.1655">
        <ele>649</ele>
        <time>2011-04-10T08:44:56Z</time>
      </trkpt>
      <trkpt lat="45.90539" lon="6.1655">
        <ele>650</ele>
        <time>2011-04-10T08:44:57Z</time>
      </trkpt>
      <trkpt lat="45.9054" lon="6.16549">
        <ele>650</ele>
        <time>2011-04-10T08:44:58Z</time>
      </trkpt>
      <trkpt lat="45.90541" lon="6.16548">
        <ele>651</ele>
        <time>2011-04-10T08:44:59Z</time>
      </trkpt>
      <trkpt lat="45.9054" lon="6.16548">
        <ele>650</ele>
        <time>2011-04-10T08:45:00Z</time>
      </trkpt>
      <trkpt lat="45.90537" lon="6.16546">
        <ele>652</ele>
        <time>2011-04-10T08:45:02Z</time>
      </trkpt>
      <trkpt lat="45.90537" lon="6.16547">
        <ele>652</ele>
        <time>2011-04-10T08:45:03Z</time>
      </trkpt>
      <trkpt lat="45.90537" lon="6.16545">
        <ele>654</ele>
        <time>2011-04-10T08:45:04Z</time>
      </trkpt>
      <trkpt lat="45.90536" lon="6.16544">
        <ele>655</ele>
        <time>2011-04-10T08:45:05Z</time>
      </trkpt>
      <trkpt lat="45.90535" lon="6.16545">
        <ele>654</ele>
        <time>2011-04-10T08:45:06Z</time>
      </trkpt>
      <trkpt lat="45.90535" lon="6.16545">
        <ele>655</ele>
        <time>2011-04-10T08:45:07Z</time>
      </trkpt>
      <trkpt lat="45.90534" lon="6.16547">
        <ele>657</ele>
        <time>2011-04-10T08:45:22Z</time>
      </trkpt>
      <trkpt lat="45.90533" lon="6.16546">
        <ele>658</ele>
        <time>2011-04-10T08:45:23Z</time>
      </trkpt>
      <trkpt lat="45.90533" lon="6.16545">
        <ele>660</ele>
        <time>2011-04-10T08:45:27Z</time>
      </trkpt>
      <trkpt lat="45.9053" lon="6.16545">
        <ele>662</ele>
        <time>2011-04-10T08:45:28Z</time>
      </trkpt>
      <trkpt lat="45.90528" lon="6.16545">
        <ele>661</ele>
        <time>2011-04-10T08:45:29Z</time>
      </trkpt>
      <trkpt lat="45.90527" lon="6.16545">
        <ele>660</ele>
        <time>2011-04-10T08:45:30Z</time>
      </trkpt>
      <trkpt lat="45.90524" lon="6.16546">
        <ele>661</ele>
        <time>2011-04-10T08:45:31Z</time>
      </trkpt>
      <trkpt lat="45.90524" lon="6.16548">
        <ele>662</ele>
        <time>2011-04-10T08:45:32Z</time>
      </trkpt>
      <trkpt lat="45.90522" lon="6.16546">
        <ele>663</ele>
        <time>2011-04-10T08:45:33Z</time>
      </trkpt>
      <trkpt lat="45.90521" lon="6.16546">
        <ele>664</ele>
        <time>2011-04-10T08:45:34Z</time>
      </trkpt>
      <trkpt lat="45.9052" lon="6.16547">
        <ele>664</ele>
        <time>2011-04-10T08:45:35Z</time>
      </trkpt>
      <trkpt lat="45.9052" lon="6.16548">
        <ele>664</ele>
        <time>2011-04-10T08:45:36Z</time>
      </trkpt>
      <trkpt lat="45.90519" lon="6.16548">
        <ele>665</ele>
        <time>2011-04-10T08:45:37Z</time>
      </trkpt>
      <trkpt lat="45.90519" lon="6.16549">
        <ele>665</ele>
        <time>2011-04-10T08:45:38Z</time>
      </trkpt>
      <trkpt lat="45.90518" lon="6.1655">
        <ele>667</ele>
        <time>2011-04-10T08:45:42Z</time>
      </trkpt>
      <trkpt lat="45.90518" lon="6.16552">
        <ele>669</ele>
        <time>2011-04-10T08:45:58Z</time>
      </trkpt>
      <trkpt lat="45.90518" lon="6.16554">
        <ele>669</ele>
        <time>2011-04-10T08:45:59Z</time>
      </trkpt>
      <trkpt lat="45.90517" lon="6.16554">
        <ele>669</ele>
        <time>2011-04-10T08:46:00Z</time>
      </trkpt>
      <trkpt lat="45.90515" lon="6.16552">
        <ele>670</ele>
        <time>2011-04-10T08:46:05Z</time>
      </trkpt>
      <trkpt lat="45.9051" lon="6.16556">
        <ele>673</ele>
        <time>2011-04-10T08:46:25Z</time>
      </trkpt>
      <trkpt lat="45.90505" lon="6.16555">
        <ele>672</ele>
        <time>2011-04-10T08:46:26Z</time>
      </trkpt>
      <trkpt lat="45.90504" lon="6.16555">
        <ele>672</ele>
        <time>2011-04-10T08:46:27Z</time>
      </trkpt>
      <trkpt lat="45.90504" lon="6.16554">
        <ele>672</ele>
        <time>2011-04-10T08:46:28Z</time>
      </trkpt>
      <trkpt lat="45.90503" lon="6.16554">
        <ele>672</ele>
        <time>2011-04-10T08:46:29Z</time>
      </trkpt>
      <trkpt lat="45.905" lon="6.16554">
        <ele>674</ele>
        <time>2011-04-10T08:46:30Z</time>
      </trkpt>
      <trkpt lat="45.90498" lon="6.16555">
        <ele>674</ele>
        <time>2011-04-10T08:46:31Z</time>
      </trkpt>
      <trkpt lat="45.90497" lon="6.16555">
        <ele>674</ele>
        <time>2011-04-10T08:46:32Z</time>
      </trkpt>
      <trkpt lat="45.90497" lon="6.16554">
        <ele>675</ele>
        <time>2011-04-10T08:46:33Z</time>
      </trkpt>
      <trkpt lat="45.90495" lon="6.16555">
        <ele>674</ele>
        <time>2011-04-10T08:46:34Z</time>
      </trkpt>
      <trkpt lat="45.90492" lon="6.16553">
        <ele>676</ele>
        <time>2011-04-10T08:46:35Z</time>
      </trkpt>
      <trkpt lat="45.90491" lon="6.16554">
        <ele>676</ele>
        <time>2011-04-10T08:46:36Z</time>
      </trkpt>
      <trkpt lat="45.90491" lon="6.16552">
        <ele>678</ele>
        <time>2011-04-10T08:46:40Z</time>
      </trkpt>
      <trkpt lat="45.90489" lon="6.16554">
        <ele>677</ele>
        <time>2011-04-10T08:46:41Z</time>
      </trkpt>
      <trkpt lat="45.90486" lon="6.16552">
        <ele>678</ele>
        <time>2011-04-10T08:46:42Z</time>
      </trkpt>
      <trkpt lat="45.90484" lon="6.16552">
        <ele>679</ele>
        <time>2011-04-10T08:46:43Z</time>
      </trkpt>
      <trkpt lat="45.90481" lon="6.16549">
        <ele>679</ele>
        <time>2011-04-10T08:46:44Z</time>
      </trkpt>
      <trkpt lat="45.90478" lon="6.16551">
        <ele>679</ele>
        <time>2011-04-10T08:46:45Z</time>
      </trkpt>
      <trkpt lat="45.90477" lon="6.1655">
        <ele>679</ele>
        <time>2011-04-10T08:46:46Z</time>
      </trkpt>
      <trkpt lat="45.90475" lon="6.16551">
        <ele>680</ele>
        <time>2011-04-10T08:46:47Z</time>
      </trkpt>
      <trkpt lat="45.90476" lon="6.1655">
        <ele>681</ele>
        <time>2011-04-10T08:46:48Z</time>
      </trkpt>
      <trkpt lat="45.90475" lon="6.16549">
        <ele>682</ele>
        <time>2011-04-10T08:46:49Z</time>
      </trkpt>
      <trkpt lat="45.90475" lon="6.1655">
        <ele>682</ele>
        <time>2011-04-10T08:46:50Z</time>
      </trkpt>
      <trkpt lat="45.90474" lon="6.16549">
        <ele>682</ele>
        <time>2011-04-10T08:46:52Z</time>
      </trkpt>
      <trkpt lat="45.90474" lon="6.16549">
        <ele>682</ele>
        <time>2011-04-10T08:46:53Z</time>
      </trkpt>
      <trkpt lat="45.90473" lon="6.16549">
        <ele>681</ele>
        <time>2011-04-10T08:46:54Z</time>
      </trkpt>
      <trkpt lat="45.90473" lon="6.16549">
        <ele>681</ele>
        <time>2011-04-10T08:46:55Z</time>
      </trkpt>
      <trkpt lat="45.9047" lon="6.16548">
        <ele>682</ele>
        <time>2011-04-10T08:46:56Z</time>
      </trkpt>
      <trkpt lat="45.9047" lon="6.16548">
        <ele>682</ele>
        <time>2011-04-10T08:46:57Z</time>
      </trkpt>
      <trkpt lat="45.90468" lon="6.16549">
        <ele>683</ele>
        <time>2011-04-10T08:46:58Z</time>
      </trkpt>
      <trkpt lat="45.90467" lon="6.16548">
        <ele>683</ele>
        <time>2011-04-10T08:46:59Z</time>
      </trkpt>
      <trkpt lat="45.90468" lon="6.16548">
        <ele>684</ele>
        <time>2011-04-10T08:47:24Z</time>
      </trkpt>
      <trkpt lat="45.90469" lon="6.1655">
        <ele>684</ele>
        <time>2011-04-10T08:47:25Z</time>
      </trkpt>
      <trkpt lat="45.90471" lon="6.16554">
        <ele>684</ele>
        <time>2011-04-10T08:47:26Z</time>
      </trkpt>
      <trkpt lat="45.90472" lon="6.16554">
        <ele>684</ele>
        <time>2011-04-10T08:47:27Z</time>
      </trkpt>
      <trkpt lat="45.90474" lon="6.16557">
        <ele>684</ele>
        <time>2011-04-10T08:47:28Z</time>
      </trkpt>
      <trkpt lat="45.90474" lon="6.16559">
        <ele>684</ele>
        <time>2011-04-10T08:47:29Z</time>
      </trkpt>
      <trkpt lat="45.90474" lon="6.16561">
        <ele>685</ele>
        <time>2011-04-10T08:47:30Z</time>
      </trkpt>
      <trkpt lat="45.90475" lon="6.16561">
        <ele>685</ele>
        <time>2011-04-10T08:47:31Z</time>
      </trkpt>
      <trkpt lat="45.90476" lon="6.16562">
        <ele>685</ele>
        <time>2011-04-10T08:47:32Z</time>
      </trkpt>
      <trkpt lat="45.90477" lon="6.16563">
        <ele>686</ele>
        <time>2011-04-10T08:47:39Z</time>
      </trkpt>
      <trkpt lat="45.9048" lon="6.16564">
        <ele>687</ele>
        <time>2011-04-10T08:47:40Z</time>
      </trkpt>
      <trkpt lat="45.9048" lon="6.16564">
        <ele>688</ele>
        <time>2011-04-10T08:47:41Z</time>
      </trkpt>
      <trkpt lat="45.90481" lon="6.16565">
        <ele>688</ele>
        <time>2011-04-10T08:47:42Z</time>
      </trkpt>
      <trkpt lat="45.90482" lon="6.16567">
        <ele>688</ele>
        <time>2011-04-10T08:47:43Z</time>
      </trkpt>
      <trkpt lat="45.90483" lon="6.16567">
        <ele>689</ele>
        <time>2011-04-10T08:47:44Z</time>
      </trkpt>
      <trkpt lat="45.90484" lon="6.16567">
        <ele>689</ele>
        <time>2011-04-10T08:47:45Z</time>
      </trkpt>
      <trkpt lat="45.90482" lon="6.1657">
        <ele>690</ele>
        <time>2011-04-10T08:47:46Z</time>
      </trkpt>
      <trkpt lat="45.90484" lon="6.1657">
        <ele>689</ele>
        <time>2011-04-10T08:47:47Z</time>
      </trkpt>
      <trkpt lat="45.90485" lon="6.16573">
        <ele>690</ele>
        <time>2011-04-10T08:47:48Z</time>
      </trkpt>
      <trkpt lat="45.90486" lon="6.16573">
        <ele>690</ele>
        <time>2011-04-10T08:47:49Z</time>
      </trkpt>
      <trkpt lat="45.90487" lon="6.16576">
        <ele>691</ele>
        <time>2011-04-10T08:47:50Z</time>
      </trkpt>
      <trkpt lat="45.90488" lon="6.16577">
        <ele>691</ele>
        <time>2011-04-10T08:47:51Z</time>
      </trkpt>
      <trkpt lat="45.90489" lon="6.16578">
        <ele>691</ele>
        <time>2011-04-10T08:47:52Z</time>
      </trkpt>
      <trkpt lat="45.90489" lon="6.16579">
        <ele>691</ele>
        <time>2011-04-10T08:47:53Z</time>
      </trkpt>
      <trkpt lat="45.90489" lon="6.16579">
        <ele>692</ele>
        <time>2011-04-10T08:47:54Z</time>
      </trkpt>
      <trkpt lat="45.90489" lon="6.16579">
        <ele>692</ele>
        <time>2011-04-10T08:47:55Z</time>
      </trkpt>
      <trkpt lat="45.9049" lon="6.16581">
        <ele>693</ele>
        <time>2011-04-10T08:47:56Z</time>
      </trkpt>
      <trkpt lat="45.90491" lon="6.16579">
        <ele>693</ele>
        <time>2011-04-10T08:47:57Z</time>
      </trkpt>
      <trkpt lat="45.9049" lon="6.1658">
        <ele>693</ele>
        <time>2011-04-10T08:47:58Z</time>
      </trkpt>
      <trkpt lat="45.9049" lon="6.16579">
        <ele>694</ele>
        <time>2011-04-10T08:47:59Z</time>
      </trkpt>
      <trkpt lat="45.90492" lon="6.1658">
        <ele>694</ele>
        <time>2011-04-10T08:48:00Z</time>
      </trkpt>
      <trkpt lat="45.90493" lon="6.1658">
        <ele>695</ele>
        <time>2011-04-10T08:48:01Z</time>
      </trkpt>
      <trkpt lat="45.90493" lon="6.1658">
        <ele>694</ele>
        <time>2011-04-10T08:48:02Z</time>
      </trkpt>
      <trkpt lat="45.90493" lon="6.1658">
        <ele>695</ele>
        <time>2011-04-10T08:48:03Z</time>
      </trkpt>
      <trkpt lat="45.90493" lon="6.16579">
        <ele>695</ele>
        <time>2011-04-10T08:48:05Z</time>
      </trkpt>
      <trkpt lat="45.90493" lon="6.16579">
        <ele>695</ele>
        <time>2011-04-10T08:48:06Z</time>
      </trkpt>
      <trkpt lat="45.90491" lon="6.16579">
        <ele>695</ele>
        <time>2011-04-10T08:48:07Z</time>
      </trkpt>
      <trkpt lat="45.90491" lon="6.16579">
        <ele>695</ele>
        <time>2011-04-10T08:48:08Z</time>
      </trkpt>
      <trkpt lat="45.90491" lon="6.16581">
        <ele>695</ele>
        <time>2011-04-10T08:48:09Z</time>
      </trkpt>
      <trkpt lat="45.90492" lon="6.16585">
        <ele>695</ele>
        <time>2011-04-10T08:48:10Z</time>
      </trkpt>
      <trkpt lat="45.90491" lon="6.16584">
        <ele>696</ele>
        <time>2011-04-10T08:48:11Z</time>
      </trkpt>
      <trkpt lat="45.90491" lon="6.16585">
        <ele>696</ele>
        <time>2011-04-10T08:48:12Z</time>
      </trkpt>
      <trkpt lat="45.90492" lon="6.16586">
        <ele>696</ele>
        <time>2011-04-10T08:48:13Z</time>
      </trkpt>
      <trkpt lat="45.90491" lon="6.16585">
        <ele>696</ele>
        <time>2011-04-10T08:48:14Z</time>
      </trkpt>
      <trkpt lat="45.90491" lon="6.16587">
        <ele>696</ele>
        <time>2011-04-10T08:48:15Z</time>
      </trkpt>
      <trkpt lat="45.9049" lon="6.16587">
        <ele>696</ele>
        <time>2011-04-10T08:48:16Z</time>
      </trkpt>
      <trkpt lat="45.90491" lon="6.16589">
        <ele>696</ele>
        <time>2011-04-10T08:48:17Z</time>
      </trkpt>
      <trkpt lat="45.90491" lon="6.16591">
        <ele>696</ele>
        <time>2011-04-10T08:48:18Z</time>
      </trkpt>
      <trkpt lat="45.90491" lon="6.1659">
        <ele>697</ele>
        <time>2011-04-10T08:48:19Z</time>
      </trkpt>
      <trkpt lat="45.90491" lon="6.16591">
        <ele>697</ele>
        <time>2011-04-10T08:48:20Z</time>
      </trkpt>
      <trkpt lat="45.90493" lon="6.16592">
        <ele>697</ele>
        <time>2011-04-10T08:48:44Z</time>
      </trkpt>
      <trkpt lat="45.90496" lon="6.16593">
        <ele>697</ele>
        <time>2011-04-10T08:48:45Z</time>
      </trkpt>
      <trkpt lat="45.90498" lon="6.16593">
        <ele>697</ele>
        <time>2011-04-10T08:48:46Z</time>
      </trkpt>
      <trkpt lat="45.90504" lon="6.16593">
        <ele>698</ele>
        <time>2011-04-10T08:48:47Z</time>
      </trkpt>
      <trkpt lat="45.90505" lon="6.16594">
        <ele>697</ele>
        <time>2011-04-10T08:48:48Z</time>
      </trkpt>
      <trkpt lat="45.90505" lon="6.16597">
        <ele>697</ele>
        <time>2011-04-10T08:48:49Z</time>
      </trkpt>
      <trkpt lat="45.90506" lon="6.16598">
        <ele>697</ele>
        <time>2011-04-10T08:48:50Z</time>
      </trkpt>
      <trkpt lat="45.90506" lon="6.16598">
        <ele>698</ele>
        <time>2011-04-10T08:48:51Z</time>
      </trkpt>
      <trkpt lat="45.90507" lon="6.166">
        <ele>698</ele>
        <time>2011-04-10T08:48:52Z</time>
      </trkpt>
      <trkpt lat="45.90509" lon="6.16599">
        <ele>697</ele>
        <time>2011-04-10T08:48:53Z</time>
      </trkpt>
      <trkpt lat="45.90509" lon="6.16598">
        <ele>698</ele>
        <time>2011-04-10T08:48:54Z</time>
      </trkpt>
      <trkpt lat="45.90511" lon="6.16602">
        <ele>698</ele>
        <time>2011-04-10T08:48:56Z</time>
      </trkpt>
      <trkpt lat="45.90512" lon="6.16601">
        <ele>699</ele>
        <time>2011-04-10T08:48:57Z</time>
      </trkpt>
      <trkpt lat="45.90514" lon="6.16602">
        <ele>700</ele>
        <time>2011-04-10T08:48:58Z</time>
      </trkpt>
      <trkpt lat="45.90515" lon="6.16602">
        <ele>700</ele>
        <time>2011-04-10T08:48:59Z</time>
      </trkpt>
      <trkpt lat="45.90518" lon="6.16604">
        <ele>700</ele>
        <time>2011-04-10T08:49:00Z</time>
      </trkpt>
      <trkpt lat="45.90522" lon="6.16609">
        <ele>701</ele>
        <time>2011-04-10T08:49:02Z</time>
      </trkpt>
      <trkpt lat="45.90522" lon="6.16608">
        <ele>701</ele>
        <time>2011-04-10T08:49:03Z</time>
      </trkpt>
      <trkpt lat="45.90522" lon="6.16608">
        <ele>702</ele>
        <time>2011-04-10T08:49:04Z</time>
      </trkpt>
      <trkpt lat="45.90522" lon="6.16608">
        <ele>702</ele>
        <time>2011-04-10T08:49:05Z</time>
      </trkpt>
      <trkpt lat="45.90525" lon="6.16611">
        <ele>704</ele>
        <time>2011-04-10T08:49:11Z</time>
      </trkpt>
      <trkpt lat="45.90526" lon="6.16611">
        <ele>703</ele>
        <time>2011-04-10T08:49:12Z</time>
      </trkpt>
      <trkpt lat="45.90528" lon="6.1661">
        <ele>703</ele>
        <time>2011-04-10T08:49:13Z</time>
      </trkpt>
      <trkpt lat="45.90529" lon="6.16611">
        <ele>704</ele>
        <time>2011-04-10T08:49:14Z</time>
      </trkpt>
      <trkpt lat="45.90527" lon="6.16608">
        <ele>706</ele>
        <time>2011-04-10T08:49:20Z</time>
      </trkpt>
      <trkpt lat="45.90528" lon="6.16606">
        <ele>706</ele>
        <time>2011-04-10T08:49:21Z</time>
      </trkpt>
      <trkpt lat="45.90528" lon="6.16607">
        <ele>705</ele>
        <time>2011-04-10T08:49:22Z</time>
      </trkpt>
      <trkpt lat="45.9053" lon="6.16608">
        <ele>706</ele>
        <time>2011-04-10T08:49:46Z</time>
      </trkpt>
      <trkpt lat="45.90526" lon="6.16616">
        <ele>706</ele>
        <time>2011-04-10T08:49:50Z</time>
      </trkpt>
      <trkpt lat="45.90524" lon="6.16617">
        <ele>706</ele>
        <time>2011-04-10T08:49:51Z</time>
      </trkpt>
      <trkpt lat="45.90524" lon="6.16617">
        <ele>706</ele>
        <time>2011-04-10T08:49:52Z</time>
      </trkpt>
      <trkpt lat="45.90523" lon="6.16617">
        <ele>707</ele>
        <time>2011-04-10T08:49:53Z</time>
      </trkpt>
      <trkpt lat="45.90524" lon="6.16618">
        <ele>707</ele>
        <time>2011-04-10T08:49:54Z</time>
      </trkpt>
      <trkpt lat="45.90523" lon="6.16618">
        <ele>707</ele>
        <time>2011-04-10T08:49:55Z</time>
      </trkpt>
      <trkpt lat="45.90524" lon="6.16618">
        <ele>708</ele>
        <time>2011-04-10T08:49:56Z</time>
      </trkpt>
      <trkpt lat="45.90525" lon="6.16619">
        <ele>709</ele>
        <time>2011-04-10T08:49:57Z</time>
      </trkpt>
      <trkpt lat="45.90525" lon="6.16619">
        <ele>710</ele>
        <time>2011-04-10T08:49:58Z</time>
      </trkpt>
      <trkpt lat="45.90525" lon="6.16621">
        <ele>709</ele>
        <time>2011-04-10T08:49:59Z</time>
      </trkpt>
      <trkpt lat="45.90523" lon="6.16621">
        <ele>709</ele>
        <time>2011-04-10T08:50:00Z</time>
      </trkpt>
      <trkpt lat="45.90524" lon="6.16624">
        <ele>710</ele>
        <time>2011-04-10T08:50:02Z</time>
      </trkpt>
      <trkpt lat="45.90526" lon="6.16627">
        <ele>711</ele>
        <time>2011-04-10T08:50:26Z</time>
      </trkpt>
      <trkpt lat="45.90526" lon="6.16627">
        <ele>711</ele>
        <time>2011-04-10T08:50:27Z</time>
      </trkpt>
      <trkpt lat="45.90528" lon="6.16628">
        <ele>712</ele>
        <time>2011-04-10T08:50:28Z</time>
      </trkpt>
      <trkpt lat="45.9053" lon="6.1663">
        <ele>713</ele>
        <time>2011-04-10T08:50:29Z</time>
      </trkpt>
      <trkpt lat="45.90531" lon="6.1663">
        <ele>713</ele>
        <time>2011-04-10T08:50:30Z</time>
      </trkpt>
      <trkpt lat="45.90533" lon="6.16633">
        <ele>713</ele>
        <time>2011-04-10T08:50:31Z</time>
      </trkpt>
      <trkpt lat="45.90535" lon="6.16636">
        <ele>714</ele>
        <time>2011-04-10T08:50:32Z</time>
      </trkpt>
      <trkpt lat="45.90536" lon="6.16637">
        <ele>714</ele>
        <time>2011-04-10T08:50:33Z</time>
      </trkpt>
      <trkpt lat="45.90537" lon="6.16638">
        <ele>714</ele>
        <time>2011-04-10T08:50:34Z</time>
      </trkpt>
      <trkpt lat="45.90537" lon="6.16637">
        <ele>715</ele>
        <time>2011-04-10T08:50:35Z</time>
      </trkpt>
      <trkpt lat="45.90539" lon="6.16639">
        <ele>716</ele>
        <time>2011-04-10T08:50:36Z</time>
      </trkpt>
      <trkpt lat="45.90541" lon="6.1664">
        <ele>716</ele>
        <time>2011-04-10T08:50:37Z</time>
      </trkpt>
      <trkpt lat="45.90541" lon="6.16642">
        <ele>717</ele>
        <time>2011-04-10T08:50:38Z</time>
      </trkpt>
      <trkpt lat="45.90543" lon="6.16644">
        <ele>717</ele>
        <time>2011-04-10T08:50:39Z</time>
      </trkpt>
      <trkpt lat="45.90543" lon="6.16645">
        <ele>716</ele>
        <time>2011-04-10T08:50:40Z</time>
      </trkpt>
      <trkpt lat="45.90544" lon="6.16646">
        <ele>717</ele>
        <time>2011-04-10T08:50:41Z</time>
      </trkpt>
      <trkpt lat="45.90545" lon="6.16645">
        <ele>717</ele>
        <time>2011-04-10T08:50:42Z</time>
      </trkpt>
      <trkpt lat="45.90547" lon="6.16645">
        <ele>717</ele>
        <time>2011-04-10T08:50:43Z</time>
      </trkpt>
      <trkpt lat="45.90548" lon="6.16645">
        <ele>717</ele>
        <time>2011-04-10T08:50:44Z</time>
      </trkpt>
      <trkpt lat="45.90549" lon="6.16645">
        <ele>717</ele>
        <time>2011-04-10T08:50:45Z</time>
      </trkpt>
      <trkpt lat="45.9055" lon="6.16645">
        <ele>717</ele>
        <time>2011-04-10T08:50:46Z</time>
      </trkpt>
      <trkpt lat="45.90551" lon="6.16646">
        <ele>718</ele>
        <time>2011-04-10T08:50:47Z</time>
      </trkpt>
      <trkpt lat="45.90552" lon="6.16646">
        <ele>718</ele>
        <time>2011-04-10T08:50:48Z</time>
      </trkpt>
      <trkpt lat="45.90552" lon="6.16647">
        <ele>718</ele>
        <time>2011-04-10T08:50:49Z</time>
      </trkpt>
      <trkpt lat="45.90551" lon="6.16648">
        <ele>719</ele>
        <time>2011-04-10T08:50:50Z</time>
      </trkpt>
      <trkpt lat="45.90551" lon="6.16648">
        <ele>719</ele>
        <time>2011-04-10T08:50:51Z</time>
      </trkpt>
      <trkpt lat="45.90552" lon="6.16648">
        <ele>719</ele>
        <time>2011-04-10T08:50:52Z</time>
      </trkpt>
      <trkpt lat="45.90553" lon="6.16648">
        <ele>719</ele>
        <time>2011-04-10T08:50:53Z</time>
      </trkpt>
      <trkpt lat="45.90554" lon="6.16646">
        <ele>720</ele>
        <time>2011-04-10T08:50:54Z</time>
      </trkpt>
      <trkpt lat="45.90555" lon="6.16646">
        <ele>721</ele>
        <time>2011-04-10T08:50:55Z</time>
      </trkpt>
      <trkpt lat="45.90555" lon="6.16647">
        <ele>721</ele>
        <time>2011-04-10T08:50:56Z</time>
      </trkpt>
      <trkpt lat="45.90556" lon="6.16647">
        <ele>721</ele>
        <time>2011-04-10T08:50:57Z</time>
      </trkpt>
      <trkpt lat="45.90556" lon="6.16648">
        <ele>722</ele>
        <time>2011-04-10T08:50:58Z</time>
      </trkpt>
      <trkpt lat="45.90556" lon="6.16648">
        <ele>722</ele>
        <time>2011-04-10T08:50:59Z</time>
      </trkpt>
      <trkpt lat="45.90557" lon="6.16649">
        <ele>722</ele>
        <time>2011-04-10T08:51:00Z</time>
      </trkpt>
      <trkpt lat="45.90559" lon="6.1665">
        <ele>722</ele>
        <time>2011-04-10T08:51:02Z</time>
      </trkpt>
      <trkpt lat="45.90559" lon="6.1665">
        <ele>722</ele>
        <time>2011-04-10T08:51:03Z</time>
      </trkpt>
      <trkpt lat="45.90559" lon="6.16651">
        <ele>723</ele>
        <time>2011-04-10T08:51:04Z</time>
      </trkpt>
      <trkpt lat="45.90561" lon="6.16652">
        <ele>723</ele>
        <time>2011-04-10T08:51:05Z</time>
      </trkpt>
      <trkpt lat="45.90561" lon="6.16652">
        <ele>724</ele>
        <time>2011-04-10T08:51:06Z</time>
      </trkpt>
      <trkpt lat="45.90562" lon="6.16653">
        <ele>724</ele>
        <time>2011-04-10T08:51:07Z</time>
      </trkpt>
      <trkpt lat="45.90561" lon="6.16653">
        <ele>725</ele>
        <time>2011-04-10T08:51:08Z</time>
      </trkpt>
      <trkpt lat="45.90562" lon="6.16654">
        <ele>725</ele>
        <time>2011-04-10T08:51:09Z</time>
      </trkpt>
      <trkpt lat="45.90563" lon="6.16654">
        <ele>726</ele>
        <time>2011-04-10T08:51:10Z</time>
      </trkpt>
      <trkpt lat="45.90563" lon="6.16654">
        <ele>727</ele>
        <time>2011-04-10T08:51:11Z</time>
      </trkpt>
      <trkpt lat="45.90564" lon="6.16655">
        <ele>727</ele>
        <time>2011-04-10T08:51:12Z</time>
      </trkpt>
      <trkpt lat="45.90565" lon="6.16657">
        <ele>728</ele>
        <time>2011-04-10T08:51:13Z</time>
      </trkpt>
      <trkpt lat="45.90566" lon="6.16657">
        <ele>728</ele>
        <time>2011-04-10T08:51:14Z</time>
      </trkpt>
      <trkpt lat="45.90565" lon="6.16658">
        <ele>728</ele>
        <time>2011-04-10T08:51:15Z</time>
      </trkpt>
      <trkpt lat="45.90568" lon="6.16662">
        <ele>728</ele>
        <time>2011-04-10T08:51:16Z</time>
      </trkpt>
      <trkpt lat="45.90568" lon="6.16664">
        <ele>729</ele>
        <time>2011-04-10T08:51:17Z</time>
      </trkpt>
      <trkpt lat="45.90568" lon="6.16665">
        <ele>730</ele>
        <time>2011-04-10T08:51:18Z</time>
      </trkpt>
      <trkpt lat="45.90569" lon="6.16666">
        <ele>731</ele>
        <time>2011-04-10T08:51:19Z</time>
      </trkpt>
      <trkpt lat="45.90569" lon="6.16668">
        <ele>731</ele>
        <time>2011-04-10T08:51:20Z</time>
      </trkpt>
      <trkpt lat="45.90569" lon="6.16667">
        <ele>731</ele>
        <time>2011-04-10T08:51:21Z</time>
      </trkpt>
      <trkpt lat="45.9057" lon="6.16667">
        <ele>732</ele>
        <time>2011-04-10T08:51:22Z</time>
      </trkpt>
      <trkpt lat="45.90571" lon="6.16667">
        <ele>731</ele>
        <time>2011-04-10T08:51:23Z</time>
      </trkpt>
      <trkpt lat="45.90573" lon="6.16667">
        <ele>731</ele>
        <time>2011-04-10T08:51:24Z</time>
      </trkpt>
      <trkpt lat="45.90573" lon="6.16669">
        <ele>731</ele>
        <time>2011-04-10T08:51:25Z</time>
      </trkpt>
      <trkpt lat="45.90574" lon="6.16669">
        <ele>732</ele>
        <time>2011-04-10T08:51:26Z</time>
      </trkpt>
      <trkpt lat="45.90575" lon="6.1667">
        <ele>732</ele>
        <time>2011-04-10T08:51:27Z</time>
      </trkpt>
      <trkpt lat="45.90577" lon="6.16672">
        <ele>732</ele>
        <time>2011-04-10T08:51:29Z</time>
      </trkpt>
      <trkpt lat="45.90578" lon="6.16673">
        <ele>733</ele>
        <time>2011-04-10T08:51:30Z</time>
      </trkpt>
      <trkpt lat="45.90578" lon="6.16672">
        <ele>733</ele>
        <time>2011-04-10T08:51:31Z</time>
      </trkpt>
      <trkpt lat="45.9058" lon="6.16672">
        <ele>733</ele>
        <time>2011-04-10T08:51:32Z</time>
      </trkpt>
      <trkpt lat="45.9058" lon="6.16674">
        <ele>732</ele>
        <time>2011-04-10T08:51:33Z</time>
      </trkpt>
      <trkpt lat="45.9058" lon="6.16675">
        <ele>732</ele>
        <time>2011-04-10T08:51:34Z</time>
      </trkpt>
      <trkpt lat="45.90579" lon="6.16676">
        <ele>732</ele>
        <time>2011-04-10T08:51:35Z</time>
      </trkpt>
      <trkpt lat="45.90579" lon="6.16678">
        <ele>732</ele>
        <time>2011-04-10T08:51:36Z</time>
      </trkpt>
      <trkpt lat="45.90579" lon="6.16679">
        <ele>732</ele>
        <time>2011-04-10T08:51:37Z</time>
      </trkpt>
      <trkpt lat="45.9058" lon="6.16679">
        <ele>732</ele>
        <time>2011-04-10T08:51:38Z</time>
      </trkpt>
      <trkpt lat="45.90579" lon="6.1668">
        <ele>732</ele>
        <time>2011-04-10T08:51:39Z</time>
      </trkpt>
      <trkpt lat="45.9058" lon="6.16682">
        <ele>733</ele>
        <time>2011-04-10T08:51:40Z</time>
      </trkpt>
      <trkpt lat="45.90582" lon="6.16682">
        <ele>732</ele>
        <time>2011-04-10T08:51:41Z</time>
      </trkpt>
      <trkpt lat="45.90581" lon="6.16682">
        <ele>732</ele>
        <time>2011-04-10T08:51:42Z</time>
      </trkpt>
      <trkpt lat="45.90583" lon="6.16681">
        <ele>732</ele>
        <time>2011-04-10T08:51:43Z</time>
      </trkpt>
      <trkpt lat="45.90582" lon="6.16679">
        <ele>733</ele>
        <time>2011-04-10T08:51:44Z</time>
      </trkpt>
      <trkpt lat="45.90583" lon="6.16677">
        <ele>733</ele>
        <time>2011-04-10T08:51:45Z</time>
      </trkpt>
      <trkpt lat="45.90583" lon="6.16677">
        <ele>734</ele>
        <time>2011-04-10T08:51:46Z</time>
      </trkpt>
      <trkpt lat="45.90584" lon="6.16677">
        <ele>734</ele>
        <time>2011-04-10T08:51:47Z</time>
      </trkpt>
      <trkpt lat="45.90584" lon="6.16677">
        <ele>735</ele>
        <time>2011-04-10T08:51:48Z</time>
      </trkpt>
      <trkpt lat="45.90584" lon="6.16676">
        <ele>735</ele>
        <time>2011-04-10T08:51:49Z</time>
      </trkpt>
      <trkpt lat="45.90584" lon="6.16676">
        <ele>734</ele>
        <time>2011-04-10T08:51:50Z</time>
      </trkpt>
      <trkpt lat="45.90584" lon="6.16675">
        <ele>734</ele>
        <time>2011-04-10T08:51:51Z</time>
      </trkpt>
      <trkpt lat="45.90583" lon="6.16675">
        <ele>734</ele>
        <time>2011-04-10T08:51:52Z</time>
      </trkpt>
      <trkpt lat="45.90584" lon="6.16675">
        <ele>734</ele>
        <time>2011-04-10T08:51:53Z</time>
      </trkpt>
      <trkpt lat="45.90585" lon="6.16678">
        <ele>734</ele>
        <time>2011-04-10T08:51:54Z</time>
      </trkpt>
      <trkpt lat="45.90586" lon="6.16679">
        <ele>734</ele>
        <time>2011-04-10T08:51:55Z</time>
      </trkpt>
      <trkpt lat="45.90587" lon="6.16679">
        <ele>734</ele>
        <time>2011-04-10T08:51:56Z</time>
      </trkpt>
      <trkpt lat="45.90586" lon="6.16679">
        <ele>734</ele>
        <time>2011-04-10T08:51:57Z</time>
      </trkpt>
      <trkpt lat="45.90588" lon="6.16679">
        <ele>735</ele>
        <time>2011-04-10T08:51:58Z</time>
      </trkpt>
      <trkpt lat="45.90591" lon="6.16678">
        <ele>736</ele>
        <time>2011-04-10T08:51:59Z</time>
      </trkpt>
      <trkpt lat="45.90592" lon="6.16678">
        <ele>736</ele>
        <time>2011-04-10T08:52:00Z</time>
      </trkpt>
      <trkpt lat="45.90593" lon="6.16676">
        <ele>736</ele>
        <time>2011-04-10T08:52:02Z</time>
      </trkpt>
      <trkpt lat="45.90594" lon="6.16675">
        <ele>737</ele>
        <time>2011-04-10T08:52:03Z</time>
      </trkpt>
      <trkpt lat="45.90595" lon="6.16674">
        <ele>737</ele>
        <time>2011-04-10T08:52:04Z</time>
      </trkpt>
      <trkpt lat="45.90595" lon="6.16674">
        <ele>737</ele>
        <time>2011-04-10T08:52:05Z</time>
      </trkpt>
      <trkpt lat="45.90594" lon="6.16673">
        <ele>737</ele>
        <time>2011-04-10T08:52:06Z</time>
      </trkpt>
      <trkpt lat="45.90594" lon="6.1667">
        <ele>737</ele>
        <time>2011-04-10T08:52:07Z</time>
      </trkpt>
      <trkpt lat="45.90595" lon="6.16668">
        <ele>737</ele>
        <time>2011-04-10T08:52:08Z</time>
      </trkpt>
      <trkpt lat="45.90596" lon="6.16667">
        <ele>738</ele>
        <time>2011-04-10T08:52:09Z</time>
      </trkpt>
      <trkpt lat="45.90595" lon="6.16668">
        <ele>737</ele>
        <time>2011-04-10T08:52:10Z</time>
      </trkpt>
      <trkpt lat="45.90596" lon="6.16669">
        <ele>737</ele>
        <time>2011-04-10T08:52:11Z</time>
      </trkpt>
      <trkpt lat="45.90598" lon="6.1667">
        <ele>738</ele>
        <time>2011-04-10T08:52:12Z</time>
      </trkpt>
      <trkpt lat="45.90598" lon="6.16672">
        <ele>738</ele>
        <time>2011-04-10T08:52:13Z</time>
      </trkpt>
      <trkpt lat="45.906" lon="6.1667">
        <ele>738</ele>
        <time>2011-04-10T08:52:14Z</time>
      </trkpt>
      <trkpt lat="45.90599" lon="6.16671">
        <ele>738</ele>
        <time>2011-04-10T08:52:15Z</time>
      </trkpt>
      <trkpt lat="45.90603" lon="6.16667">
        <ele>740</ele>
        <time>2011-04-10T08:52:32Z</time>
      </trkpt>
      <trkpt lat="45.90607" lon="6.16667">
        <ele>739</ele>
        <time>2011-04-10T08:52:33Z</time>
      </trkpt>
      <trkpt lat="45.9061" lon="6.16667">
        <ele>738</ele>
        <time>2011-04-10T08:52:34Z</time>
      </trkpt>
      <trkpt lat="45.90612" lon="6.16667">
        <ele>739</ele>
        <time>2011-04-10T08:52:35Z</time>
      </trkpt>
      <trkpt lat="45.90613" lon="6.16665">
        <ele>740</ele>
        <time>2011-04-10T08:52:38Z</time>
      </trkpt>
      <trkpt lat="45.90614" lon="6.16665">
        <ele>742</ele>
        <time>2011-04-10T08:52:40Z</time>
      </trkpt>
      <trkpt lat="45.90614" lon="6.16664">
        <ele>742</ele>
        <time>2011-04-10T08:52:41Z</time>
      </trkpt>
      <trkpt lat="45.90614" lon="6.16664">
        <ele>743</ele>
        <time>2011-04-10T08:52:42Z</time>
      </trkpt>
      <trkpt lat="45.90614" lon="6.16665">
        <ele>743</ele>
        <time>2011-04-10T08:52:43Z</time>
      </trkpt>
      <trkpt lat="45.90613" lon="6.16665">
        <ele>743</ele>
        <time>2011-04-10T08:52:44Z</time>
      </trkpt>
      <trkpt lat="45.90613" lon="6.16665">
        <ele>743</ele>
        <time>2011-04-10T08:52:45Z</time>
      </trkpt>
      <trkpt lat="45.90612" lon="6.16665">
        <ele>743</ele>
        <time>2011-04-10T08:52:46Z</time>
      </trkpt>
      <trkpt lat="45.90612" lon="6.16665">
        <ele>743</ele>
        <time>2011-04-10T08:52:47Z</time>
      </trkpt>
      <trkpt lat="45.90612" lon="6.16669">
        <ele>744</ele>
        <time>2011-04-10T08:52:48Z</time>
      </trkpt>
      <trkpt lat="45.90613" lon="6.16669">
        <ele>743</ele>
        <time>2011-04-10T08:52:49Z</time>
      </trkpt>
      <trkpt lat="45.90613" lon="6.1667">
        <ele>742</ele>
        <time>2011-04-10T08:52:50Z</time>
      </trkpt>
      <trkpt lat="45.90613" lon="6.16671">
        <ele>742</ele>
        <time>2011-04-10T08:52:51Z</time>
      </trkpt>
      <trkpt lat="45.90614" lon="6.16672">
        <ele>742</ele>
        <time>2011-04-10T08:52:52Z</time>
      </trkpt>
      <trkpt lat="45.90613" lon="6.16672">
        <ele>741</ele>
        <time>2011-04-10T08:52:53Z</time>
      </trkpt>
      <trkpt lat="45.90613" lon="6.16673">
        <ele>741</ele>
        <time>2011-04-10T08:52:54Z</time>
      </trkpt>
      <trkpt lat="45.90613" lon="6.16674">
        <ele>740</ele>
        <time>2011-04-10T08:52:55Z</time>
      </trkpt>
      <trkpt lat="45.90613" lon="6.16675">
        <ele>739</ele>
        <time>2011-04-10T08:52:56Z</time>
      </trkpt>
      <trkpt lat="45.90613" lon="6.16674">
        <ele>739</ele>
        <time>2011-04-10T08:52:57Z</time>
      </trkpt>
      <trkpt lat="45.90612" lon="6.16674">
        <ele>740</ele>
        <time>2011-04-10T08:52:58Z</time>
      </trkpt>
      <trkpt lat="45.90611" lon="6.16674">
        <ele>740</ele>
        <time>2011-04-10T08:52:59Z</time>
      </trkpt>
      <trkpt lat="45.90609" lon="6.16673">
        <ele>740</ele>
        <time>2011-04-10T08:53:00Z</time>
      </trkpt>
      <trkpt lat="45.90609" lon="6.16675">
        <ele>742</ele>
        <time>2011-04-10T08:53:02Z</time>
      </trkpt>
      <trkpt lat="45.90609" lon="6.16677">
        <ele>741</ele>
        <time>2011-04-10T08:53:03Z</time>
      </trkpt>
      <trkpt lat="45.90609" lon="6.16679">
        <ele>742</ele>
        <time>2011-04-10T08:53:04Z</time>
      </trkpt>
      <trkpt lat="45.90609" lon="6.16679">
        <ele>742</ele>
        <time>2011-04-10T08:53:05Z</time>
      </trkpt>
      <trkpt lat="45.90609" lon="6.16679">
        <ele>742</ele>
        <time>2011-04-10T08:53:06Z</time>
      </trkpt>
      <trkpt lat="45.90608" lon="6.1668">
        <ele>743</ele>
        <time>2011-04-10T08:53:07Z</time>
      </trkpt>
      <trkpt lat="45.90608" lon="6.16681">
        <ele>743</ele>
        <time>2011-04-10T08:53:08Z</time>
      </trkpt>
      <trkpt lat="45.90608" lon="6.16681">
        <ele>743</ele>
        <time>2011-04-10T08:53:09Z</time>
      </trkpt>
      <trkpt lat="45.90608" lon="6.16681">
        <ele>744</ele>
        <time>2011-04-10T08:53:10Z</time>
      </trkpt>
      <trkpt lat="45.90606" lon="6.16682">
        <ele>745</ele>
        <time>2011-04-10T08:53:39Z</time>
      </trkpt>
      <trkpt lat="45.90607" lon="6.16684">
        <ele>746</ele>
        <time>2011-04-10T08:53:40Z</time>
      </trkpt>
      <trkpt lat="45.90608" lon="6.16687">
        <ele>747</ele>
        <time>2011-04-10T08:53:41Z</time>
      </trkpt>
      <trkpt lat="45.90608" lon="6.16688">
        <ele>748</ele>
        <time>2011-04-10T08:53:42Z</time>
      </trkpt>
      <trkpt lat="45.90609" lon="6.16689">
        <ele>748</ele>
        <time>2011-04-10T08:53:43Z</time>
      </trkpt>
      <trkpt lat="45.90609" lon="6.1669">
        <ele>748</ele>
        <time>2011-04-10T08:53:44Z</time>
      </trkpt>
      <trkpt lat="45.9061" lon="6.16692">
        <ele>748</ele>
        <time>2011-04-10T08:53:45Z</time>
      </trkpt>
      <trkpt lat="45.90612" lon="6.16694">
        <ele>748</ele>
        <time>2011-04-10T08:53:46Z</time>
      </trkpt>
      <trkpt lat="45.90614" lon="6.16694">
        <ele>749</ele>
        <time>2011-04-10T08:53:47Z</time>
      </trkpt>
      <trkpt lat="45.90614" lon="6.16695">
        <ele>749</ele>
        <time>2011-04-10T08:53:48Z</time>
      </trkpt>
      <trkpt lat="45.90614" lon="6.16695">
        <ele>749</ele>
        <time>2011-04-10T08:53:49Z</time>
      </trkpt>
      <trkpt lat="45.90614" lon="6.16695">
        <ele>750</ele>
        <time>2011-04-10T08:53:50Z</time>
      </trkpt>
      <trkpt lat="45.90615" lon="6.16695">
        <ele>750</ele>
        <time>2011-04-10T08:53:51Z</time>
      </trkpt>
      <trkpt lat="45.90615" lon="6.16695">
        <ele>750</ele>
        <time>2011-04-10T08:53:52Z</time>
      </trkpt>
      <trkpt lat="45.90615" lon="6.16695">
        <ele>751</ele>
        <time>2011-04-10T08:53:53Z</time>
      </trkpt>
      <trkpt lat="45.90616" lon="6.16695">
        <ele>751</ele>
        <time>2011-04-10T08:53:54Z</time>
      </trkpt>
      <trkpt lat="45.90617" lon="6.16697">
        <ele>751</ele>
        <time>2011-04-10T08:53:55Z</time>
      </trkpt>
      <trkpt lat="45.90617" lon="6.16699">
        <ele>751</ele>
        <time>2011-04-10T08:53:56Z</time>
      </trkpt>
      <trkpt lat="45.90618" lon="6.16699">
        <ele>752</ele>
        <time>2011-04-10T08:53:57Z</time>
      </trkpt>
      <trkpt lat="45.90619" lon="6.167">
        <ele>752</ele>
        <time>2011-04-10T08:53:58Z</time>
      </trkpt>
      <trkpt lat="45.9062" lon="6.16699">
        <ele>752</ele>
        <time>2011-04-10T08:53:59Z</time>
      </trkpt>
      <trkpt lat="45.90618" lon="6.16698">
        <ele>752</ele>
        <time>2011-04-10T08:54:00Z</time>
      </trkpt>
      <trkpt lat="45.90619" lon="6.16698">
        <ele>752</ele>
        <time>2011-04-10T08:54:01Z</time>
      </trkpt>
      <trkpt lat="45.9062" lon="6.16698">
        <ele>752</ele>
        <time>2011-04-10T08:54:02Z</time>
      </trkpt>
      <trkpt lat="45.90622" lon="6.16698">
        <ele>751</ele>
        <time>2011-04-10T08:54:03Z</time>
      </trkpt>
      <trkpt lat="45.90622" lon="6.16697">
        <ele>751</ele>
        <time>2011-04-10T08:54:04Z</time>
      </trkpt>
      <trkpt lat="45.90622" lon="6.16696">
        <ele>751</ele>
        <time>2011-04-10T08:54:05Z</time>
      </trkpt>
      <trkpt lat="45.90623" lon="6.16695">
        <ele>752</ele>
        <time>2011-04-10T08:54:06Z</time>
      </trkpt>
      <trkpt lat="45.90624" lon="6.16696">
        <ele>752</ele>
        <time>2011-04-10T08:54:07Z</time>
      </trkpt>
      <trkpt lat="45.90624" lon="6.16696">
        <ele>752</ele>
        <time>2011-04-10T08:54:08Z</time>
      </trkpt>
      <trkpt lat="45.90625" lon="6.16697">
        <ele>752</ele>
        <time>2011-04-10T08:54:09Z</time>
      </trkpt>
      <trkpt lat="45.90625" lon="6.16696">
        <ele>753</ele>
        <time>2011-04-10T08:54:10Z</time>
      </trkpt>
      <trkpt lat="45.90627" lon="6.16695">
        <ele>753</ele>
        <time>2011-04-10T08:54:11Z</time>
      </trkpt>
      <trkpt lat="45.90627" lon="6.16694">
        <ele>753</ele>
        <time>2011-04-10T08:54:12Z</time>
      </trkpt>
      <trkpt lat="45.90628" lon="6.16694">
        <ele>752</ele>
        <time>2011-04-10T08:54:13Z</time>
      </trkpt>
      <trkpt lat="45.90628" lon="6.16693">
        <ele>753</ele>
        <time>2011-04-10T08:54:14Z</time>
      </trkpt>
      <trkpt lat="45.90628" lon="6.16692">
        <ele>753</ele>
        <time>2011-04-10T08:54:15Z</time>
      </trkpt>
      <trkpt lat="45.90628" lon="6.16692">
        <ele>754</ele>
        <time>2011-04-10T08:54:16Z</time>
      </trkpt>
      <trkpt lat="45.90628" lon="6.16692">
        <ele>754</ele>
        <time>2011-04-10T08:54:17Z</time>
      </trkpt>
      <trkpt lat="45.90628" lon="6.1669">
        <ele>755</ele>
        <time>2011-04-10T08:54:19Z</time>
      </trkpt>
      <trkpt lat="45.90629" lon="6.16688">
        <ele>755</ele>
        <time>2011-04-10T08:54:24Z</time>
      </trkpt>
      <trkpt lat="45.90629" lon="6.16689">
        <ele>756</ele>
        <time>2011-04-10T08:54:25Z</time>
      </trkpt>
      <trkpt lat="45.90629" lon="6.16689">
        <ele>755</ele>
        <time>2011-04-10T08:54:26Z</time>
      </trkpt>
      <trkpt lat="45.90629" lon="6.16689">
        <ele>756</ele>
        <time>2011-04-10T08:54:27Z</time>
      </trkpt>
      <trkpt lat="45.90629" lon="6.16688">
        <ele>757</ele>
        <time>2011-04-10T08:54:28Z</time>
      </trkpt>
      <trkpt lat="45.90629" lon="6.1669">
        <ele>757</ele>
        <time>2011-04-10T08:54:29Z</time>
      </trkpt>
      <trkpt lat="45.90628" lon="6.1669">
        <ele>757</ele>
        <time>2011-04-10T08:54:30Z</time>
      </trkpt>
      <trkpt lat="45.90629" lon="6.1669">
        <ele>757</ele>
        <time>2011-04-10T08:54:31Z</time>
      </trkpt>
      <trkpt lat="45.90629" lon="6.16691">
        <ele>757</ele>
        <time>2011-04-10T08:54:32Z</time>
      </trkpt>
      <trkpt lat="45.90629" lon="6.16691">
        <ele>756</ele>
        <time>2011-04-10T08:54:40Z</time>
      </trkpt>
      <trkpt lat="45.90629" lon="6.16692">
        <ele>755</ele>
        <time>2011-04-10T08:54:41Z</time>
      </trkpt>
      <trkpt lat="45.90628" lon="6.16692">
        <ele>757</ele>
        <time>2011-04-10T08:54:42Z</time>
      </trkpt>
      <trkpt lat="45.90628" lon="6.16694">
        <ele>757</ele>
        <time>2011-04-10T08:54:43Z</time>
      </trkpt>
      <trkpt lat="45.90628" lon="6.16694">
        <ele>757</ele>
        <time>2011-04-10T08:54:44Z</time>
      </trkpt>
      <trkpt lat="45.90628" lon="6.16696">
        <ele>757</ele>
        <time>2011-04-10T08:54:45Z</time>
      </trkpt>
      <trkpt lat="45.90627" lon="6.16696">
        <ele>757</ele>
        <time>2011-04-10T08:54:46Z</time>
      </trkpt>
      <trkpt lat="45.90626" lon="6.16697">
        <ele>757</ele>
        <time>2011-04-10T08:54:47Z</time>
      </trkpt>
      <trkpt lat="45.90626" lon="6.16699">
        <ele>757</ele>
        <time>2011-04-10T08:54:48Z</time>
      </trkpt>
      <trkpt lat="45.90626" lon="6.16701">
        <ele>758</ele>
        <time>2011-04-10T08:54:49Z</time>
      </trkpt>
      <trkpt lat="45.90626" lon="6.16703">
        <ele>758</ele>
        <time>2011-04-10T08:54:50Z</time>
      </trkpt>
      <trkpt lat="45.90627" lon="6.16702">
        <ele>758</ele>
        <time>2011-04-10T08:54:51Z</time>
      </trkpt>
      <trkpt lat="45.90627" lon="6.16704">
        <ele>759</ele>
        <time>2011-04-10T08:54:52Z</time>
      </trkpt>
      <trkpt lat="45.90628" lon="6.16705">
        <ele>759</ele>
        <time>2011-04-10T08:54:53Z</time>
      </trkpt>
      <trkpt lat="45.90627" lon="6.16705">
        <ele>760</ele>
        <time>2011-04-10T08:54:54Z</time>
      </trkpt>
      <trkpt lat="45.90626" lon="6.16706">
        <ele>759</ele>
        <time>2011-04-10T08:54:55Z</time>
      </trkpt>
      <trkpt lat="45.90625" lon="6.16706">
        <ele>760</ele>
        <time>2011-04-10T08:54:56Z</time>
      </trkpt>
      <trkpt lat="45.90625" lon="6.16707">
        <ele>760</ele>
        <time>2011-04-10T08:54:57Z</time>
      </trkpt>
      <trkpt lat="45.90625" lon="6.16709">
        <ele>760</ele>
        <time>2011-04-10T08:54:58Z</time>
      </trkpt>
      <trkpt lat="45.90625" lon="6.16708">
        <ele>761</ele>
        <time>2011-04-10T08:54:59Z</time>
      </trkpt>
      <trkpt lat="45.90625" lon="6.1671">
        <ele>761</ele>
        <time>2011-04-10T08:55:00Z</time>
      </trkpt>
      <trkpt lat="45.90624" lon="6.16709">
        <ele>761</ele>
        <time>2011-04-10T08:55:01Z</time>
      </trkpt>
      <trkpt lat="45.90623" lon="6.1671">
        <ele>762</ele>
        <time>2011-04-10T08:55:02Z</time>
      </trkpt>
      <trkpt lat="45.90622" lon="6.1671">
        <ele>762</ele>
        <time>2011-04-10T08:55:03Z</time>
      </trkpt>
      <trkpt lat="45.90621" lon="6.16711">
        <ele>762</ele>
        <time>2011-04-10T08:55:04Z</time>
      </trkpt>
      <trkpt lat="45.90621" lon="6.16711">
        <ele>762</ele>
        <time>2011-04-10T08:55:05Z</time>
      </trkpt>
      <trkpt lat="45.90621" lon="6.16713">
        <ele>762</ele>
        <time>2011-04-10T08:55:06Z</time>
      </trkpt>
      <trkpt lat="45.90622" lon="6.16713">
        <ele>762</ele>
        <time>2011-04-10T08:55:07Z</time>
      </trkpt>
      <trkpt lat="45.90623" lon="6.16713">
        <ele>762</ele>
        <time>2011-04-10T08:55:08Z</time>
      </trkpt>
      <trkpt lat="45.90624" lon="6.16713">
        <ele>762</ele>
        <time>2011-04-10T08:55:09Z</time>
      </trkpt>
      <trkpt lat="45.90625" lon="6.16714">
        <ele>762</ele>
        <time>2011-04-10T08:55:10Z</time>
      </trkpt>
      <trkpt lat="45.90625" lon="6.16713">
        <ele>762</ele>
        <time>2011-04-10T08:55:11Z</time>
      </trkpt>
      <trkpt lat="45.90626" lon="6.16713">
        <ele>763</ele>
        <time>2011-04-10T08:55:12Z</time>
      </trkpt>
      <trkpt lat="45.90625" lon="6.16712">
        <ele>763</ele>
        <time>2011-04-10T08:55:13Z</time>
      </trkpt>
      <trkpt lat="45.90625" lon="6.16712">
        <ele>763</ele>
        <time>2011-04-10T08:55:14Z</time>
      </trkpt>
      <trkpt lat="45.90625" lon="6.16712">
        <ele>763</ele>
        <time>2011-04-10T08:55:15Z</time>
      </trkpt>
      <trkpt lat="45.90626" lon="6.16713">
        <ele>763</ele>
        <time>2011-04-10T08:55:16Z</time>
      </trkpt>
      <trkpt lat="45.90627" lon="6.16714">
        <ele>764</ele>
        <time>2011-04-10T08:55:17Z</time>
      </trkpt>
      <trkpt lat="45.90628" lon="6.16713">
        <ele>764</ele>
        <time>2011-04-10T08:55:18Z</time>
      </trkpt>
      <trkpt lat="45.9063" lon="6.16712">
        <ele>765</ele>
        <time>2011-04-10T08:55:29Z</time>
      </trkpt>
      <trkpt lat="45.90632" lon="6.16713">
        <ele>764</ele>
        <time>2011-04-10T08:55:30Z</time>
      </trkpt>
      <trkpt lat="45.90632" lon="6.16711">
        <ele>764</ele>
        <time>2011-04-10T08:55:31Z</time>
      </trkpt>
      <trkpt lat="45.90635" lon="6.16711">
        <ele>764</ele>
        <time>2011-04-10T08:55:32Z</time>
      </trkpt>
      <trkpt lat="45.90636" lon="6.1671">
        <ele>765</ele>
        <time>2011-04-10T08:55:33Z</time>
      </trkpt>
      <trkpt lat="45.90637" lon="6.16709">
        <ele>767</ele>
        <time>2011-04-10T08:55:34Z</time>
      </trkpt>
      <trkpt lat="45.90638" lon="6.16708">
        <ele>767</ele>
        <time>2011-04-10T08:55:35Z</time>
      </trkpt>
      <trkpt lat="45.90638" lon="6.16707">
        <ele>767</ele>
        <time>2011-04-10T08:55:36Z</time>
      </trkpt>
      <trkpt lat="45.90639" lon="6.16707">
        <ele>767</ele>
        <time>2011-04-10T08:55:37Z</time>
      </trkpt>
      <trkpt lat="45.90641" lon="6.16707">
        <ele>767</ele>
        <time>2011-04-10T08:55:38Z</time>
      </trkpt>
      <trkpt lat="45.90643" lon="6.16708">
        <ele>767</ele>
        <time>2011-04-10T08:55:39Z</time>
      </trkpt>
      <trkpt lat="45.90645" lon="6.16709">
        <ele>769</ele>
        <time>2011-04-10T08:56:06Z</time>
      </trkpt>
      <trkpt lat="45.90647" lon="6.16709">
        <ele>769</ele>
        <time>2011-04-10T08:56:07Z</time>
      </trkpt>
      <trkpt lat="45.90652" lon="6.16709">
        <ele>768</ele>
        <time>2011-04-10T08:56:08Z</time>
      </trkpt>
      <trkpt lat="45.90655" lon="6.1671">
        <ele>768</ele>
        <time>2011-04-10T08:56:09Z</time>
      </trkpt>
      <trkpt lat="45.90655" lon="6.16709">
        <ele>768</ele>
        <time>2011-04-10T08:56:10Z</time>
      </trkpt>
      <trkpt lat="45.90657" lon="6.16709">
        <ele>769</ele>
        <time>2011-04-10T08:56:11Z</time>
      </trkpt>
      <trkpt lat="45.90657" lon="6.16709">
        <ele>769</ele>
        <time>2011-04-10T08:56:12Z</time>
      </trkpt>
      <trkpt lat="45.90661" lon="6.1671">
        <ele>769</ele>
        <time>2011-04-10T08:56:13Z</time>
      </trkpt>
      <trkpt lat="45.90663" lon="6.16711">
        <ele>769</ele>
        <time>2011-04-10T08:56:14Z</time>
      </trkpt>
      <trkpt lat="45.90664" lon="6.16711">
        <ele>770</ele>
        <time>2011-04-10T08:56:15Z</time>
      </trkpt>
      <trkpt lat="45.90666" lon="6.16711">
        <ele>770</ele>
        <time>2011-04-10T08:56:16Z</time>
      </trkpt>
      <trkpt lat="45.90667" lon="6.16712">
        <ele>770</ele>
        <time>2011-04-10T08:56:17Z</time>
      </trkpt>
      <trkpt lat="45.90669" lon="6.16712">
        <ele>771</ele>
        <time>2011-04-10T08:56:18Z</time>
      </trkpt>
      <trkpt lat="45.90669" lon="6.16714">
        <ele>772</ele>
        <time>2011-04-10T08:56:19Z</time>
      </trkpt>
      <trkpt lat="45.90671" lon="6.16716">
        <ele>772</ele>
        <time>2011-04-10T08:56:20Z</time>
      </trkpt>
      <trkpt lat="45.90672" lon="6.16717">
        <ele>772</ele>
        <time>2011-04-10T08:56:21Z</time>
      </trkpt>
      <trkpt lat="45.90672" lon="6.16717">
        <ele>772</ele>
        <time>2011-04-10T08:56:22Z</time>
      </trkpt>
      <trkpt lat="45.90674" lon="6.16717">
        <ele>773</ele>
        <time>2011-04-10T08:56:23Z</time>
      </trkpt>
      <trkpt lat="45.90674" lon="6.16718">
        <ele>773</ele>
        <time>2011-04-10T08:56:24Z</time>
      </trkpt>
      <trkpt lat="45.90674" lon="6.1672">
        <ele>773</ele>
        <time>2011-04-10T08:56:25Z</time>
      </trkpt>
      <trkpt lat="45.90675" lon="6.16719">
        <ele>773</ele>
        <time>2011-04-10T08:56:26Z</time>
      </trkpt>
      <trkpt lat="45.90676" lon="6.16719">
        <ele>773</ele>
        <time>2011-04-10T08:56:27Z</time>
      </trkpt>
      <trkpt lat="45.90677" lon="6.16718">
        <ele>773</ele>
        <time>2011-04-10T08:56:28Z</time>
      </trkpt>
      <trkpt lat="45.90678" lon="6.16717">
        <ele>773</ele>
        <time>2011-04-10T08:56:29Z</time>
      </trkpt>
      <trkpt lat="45.9068" lon="6.16716">
        <ele>774</ele>
        <time>2011-04-10T08:56:30Z</time>
      </trkpt>
      <trkpt lat="45.90681" lon="6.16716">
        <ele>774</ele>
        <time>2011-04-10T08:56:31Z</time>
      </trkpt>
      <trkpt lat="45.90681" lon="6.16716">
        <ele>774</ele>
        <time>2011-04-10T08:56:32Z</time>
      </trkpt>
      <trkpt lat="45.90683" lon="6.16716">
        <ele>774</ele>
        <time>2011-04-10T08:56:33Z</time>
      </trkpt>
      <trkpt lat="45.90684" lon="6.16716">
        <ele>774</ele>
        <time>2011-04-10T08:56:34Z</time>
      </trkpt>
      <trkpt lat="45.90685" lon="6.16716">
        <ele>774</ele>
        <time>2011-04-10T08:56:35Z</time>
      </trkpt>
      <trkpt lat="45.90685" lon="6.16717">
        <ele>774</ele>
        <time>2011-04-10T08:56:36Z</time>
      </trkpt>
      <trkpt lat="45.90686" lon="6.16718">
        <ele>774</ele>
        <time>2011-04-10T08:56:37Z</time>
      </trkpt>
      <trkpt lat="45.90687" lon="6.16717">
        <ele>774</ele>
        <time>2011-04-10T08:56:38Z</time>
      </trkpt>
      <trkpt lat="45.90686" lon="6.16718">
        <ele>775</ele>
        <time>2011-04-10T08:56:39Z</time>
      </trkpt>
      <trkpt lat="45.90686" lon="6.16719">
        <ele>776</ele>
        <time>2011-04-10T08:56:40Z</time>
      </trkpt>
      <trkpt lat="45.90686" lon="6.16718">
        <ele>776</ele>
        <time>2011-04-10T08:56:41Z</time>
      </trkpt>
      <trkpt lat="45.90688" lon="6.16718">
        <ele>776</ele>
        <time>2011-04-10T08:56:42Z</time>
      </trkpt>
      <trkpt lat="45.90689" lon="6.16719">
        <ele>777</ele>
        <time>2011-04-10T08:56:43Z</time>
      </trkpt>
      <trkpt lat="45.90689" lon="6.16718">
        <ele>778</ele>
        <time>2011-04-10T08:56:44Z</time>
      </trkpt>
      <trkpt lat="45.9069" lon="6.16717">
        <ele>778</ele>
        <time>2011-04-10T08:56:45Z</time>
      </trkpt>
      <trkpt lat="45.90693" lon="6.16716">
        <ele>777</ele>
        <time>2011-04-10T08:56:46Z</time>
      </trkpt>
      <trkpt lat="45.90694" lon="6.16717">
        <ele>778</ele>
        <time>2011-04-10T08:56:53Z</time>
      </trkpt>
      <trkpt lat="45.90693" lon="6.16717">
        <ele>778</ele>
        <time>2011-04-10T08:56:54Z</time>
      </trkpt>
      <trkpt lat="45.90693" lon="6.16714">
        <ele>778</ele>
        <time>2011-04-10T08:56:55Z</time>
      </trkpt>
      <trkpt lat="45.90691" lon="6.16714">
        <ele>778</ele>
        <time>2011-04-10T08:56:56Z</time>
      </trkpt>
      <trkpt lat="45.9069" lon="6.16713">
        <ele>777</ele>
        <time>2011-04-10T08:56:57Z</time>
      </trkpt>
      <trkpt lat="45.90689" lon="6.16717">
        <ele>780</ele>
        <time>2011-04-10T08:57:21Z</time>
      </trkpt>
      <trkpt lat="45.90687" lon="6.16726">
        <ele>776</ele>
        <time>2011-04-10T08:57:22Z</time>
      </trkpt>
      <trkpt lat="45.90683" lon="6.16729">
        <ele>775</ele>
        <time>2011-04-10T08:57:23Z</time>
      </trkpt>
      <trkpt lat="45.90679" lon="6.16733">
        <ele>774</ele>
        <time>2011-04-10T08:57:25Z</time>
      </trkpt>
      <trkpt lat="45.90678" lon="6.16733">
        <ele>774</ele>
        <time>2011-04-10T08:57:26Z</time>
      </trkpt>
      <trkpt lat="45.90676" lon="6.16735">
        <ele>773</ele>
        <time>2011-04-10T08:57:27Z</time>
      </trkpt>
      <trkpt lat="45.90673" lon="6.16734">
        <ele>773</ele>
        <time>2011-04-10T08:57:28Z</time>
      </trkpt>
      <trkpt lat="45.90672" lon="6.16735">
        <ele>774</ele>
        <time>2011-04-10T08:57:29Z</time>
      </trkpt>
      <trkpt lat="45.90672" lon="6.16736">
        <ele>774</ele>
        <time>2011-04-10T08:57:30Z</time>
      </trkpt>
      <trkpt lat="45.90671" lon="6.16736">
        <ele>774</ele>
        <time>2011-04-10T08:57:31Z</time>
      </trkpt>
      <trkpt lat="45.90671" lon="6.16738">
        <ele>774</ele>
        <time>2011-04-10T08:57:32Z</time>
      </trkpt>
      <trkpt lat="45.90669" lon="6.16738">
        <ele>775</ele>
        <time>2011-04-10T08:57:33Z</time>
      </trkpt>
      <trkpt lat="45.90668" lon="6.16738">
        <ele>775</ele>
        <time>2011-04-10T08:57:34Z</time>
      </trkpt>
      <trkpt lat="45.90667" lon="6.16738">
        <ele>775</ele>
        <time>2011-04-10T08:57:35Z</time>
      </trkpt>
      <trkpt lat="45.90661" lon="6.16739">
        <ele>777</ele>
        <time>2011-04-10T08:58:03Z</time>
      </trkpt>
      <trkpt lat="45.9066" lon="6.16741">
        <ele>777</ele>
        <time>2011-04-10T08:58:04Z</time>
      </trkpt>
      <trkpt lat="45.90655" lon="6.16743">
        <ele>777</ele>
        <time>2011-04-10T08:58:06Z</time>
      </trkpt>
      <trkpt lat="45.90654" lon="6.16747">
        <ele>777</ele>
        <time>2011-04-10T08:58:07Z</time>
      </trkpt>
      <trkpt lat="45.90652" lon="6.16746">
        <ele>777</ele>
        <time>2011-04-10T08:58:08Z</time>
      </trkpt>
      <trkpt lat="45.90649" lon="6.16749">
        <ele>777</ele>
        <time>2011-04-10T08:58:10Z</time>
      </trkpt>
      <trkpt lat="45.90649" lon="6.16753">
        <ele>778</ele>
        <time>2011-04-10T08:58:11Z</time>
      </trkpt>
      <trkpt lat="45.90648" lon="6.16755">
        <ele>778</ele>
        <time>2011-04-10T08:58:12Z</time>
      </trkpt>
      <trkpt lat="45.90646" lon="6.16759">
        <ele>778</ele>
        <time>2011-04-10T08:58:13Z</time>
      </trkpt>
      <trkpt lat="45.90643" lon="6.16761">
        <ele>778</ele>
        <time>2011-04-10T08:58:14Z</time>
      </trkpt>
      <trkpt lat="45.90643" lon="6.16761">
        <ele>779</ele>
        <time>2011-04-10T08:58:15Z</time>
      </trkpt>
      <trkpt lat="45.90643" lon="6.16763">
        <ele>780</ele>
        <time>2011-04-10T08:58:16Z</time>
      </trkpt>
      <trkpt lat="45.90643" lon="6.16768">
        <ele>782</ele>
        <time>2011-04-10T08:59:17Z</time>
      </trkpt>
      <trkpt lat="45.90644" lon="6.16768">
        <ele>785</ele>
        <time>2011-04-10T08:59:18Z</time>
      </trkpt>
      <trkpt lat="45.90646" lon="6.16769">
        <ele>785</ele>
        <time>2011-04-10T08:59:19Z</time>
      </trkpt>
      <trkpt lat="45.90647" lon="6.16772">
        <ele>786</ele>
        <time>2011-04-10T08:59:20Z</time>
      </trkpt>
      <trkpt lat="45.9065" lon="6.1677">
        <ele>787</ele>
        <time>2011-04-10T08:59:21Z</time>
      </trkpt>
      <trkpt lat="45.90652" lon="6.1677">
        <ele>787</ele>
        <time>2011-04-10T08:59:22Z</time>
      </trkpt>
      <trkpt lat="45.90658" lon="6.16772">
        <ele>789</ele>
        <time>2011-04-10T08:59:30Z</time>
      </trkpt>
      <trkpt lat="45.9066" lon="6.16775">
        <ele>787</ele>
        <time>2011-04-10T08:59:31Z</time>
      </trkpt>
      <trkpt lat="45.90661" lon="6.16776">
        <ele>788</ele>
        <time>2011-04-10T08:59:33Z</time>
      </trkpt>
      <trkpt lat="45.9066" lon="6.16778">
        <ele>788</ele>
        <time>2011-04-10T08:59:34Z</time>
      </trkpt>
      <trkpt lat="45.9066" lon="6.1678">
        <ele>787</ele>
        <time>2011-04-10T08:59:35Z</time>
      </trkpt>
      <trkpt lat="45.90661" lon="6.16782">
        <ele>788</ele>
        <time>2011-04-10T08:59:36Z</time>
      </trkpt>
      <trkpt lat="45.90661" lon="6.16782">
        <ele>789</ele>
        <time>2011-04-10T08:59:37Z</time>
      </trkpt>
      <trkpt lat="45.90661" lon="6.16783">
        <ele>789</ele>
        <time>2011-04-10T08:59:38Z</time>
      </trkpt>
      <trkpt lat="45.90661" lon="6.16784">
        <ele>789</ele>
        <time>2011-04-10T08:59:39Z</time>
      </trkpt>
      <trkpt lat="45.90661" lon="6.16787">
        <ele>790</ele>
        <time>2011-04-10T08:59:41Z</time>
      </trkpt>
      <trkpt lat="45.9066" lon="6.16788">
        <ele>790</ele>
        <time>2011-04-10T08:59:42Z</time>
      </trkpt>
      <trkpt lat="45.90658" lon="6.16787">
        <ele>790</ele>
        <time>2011-04-10T08:59:43Z</time>
      </trkpt>
      <trkpt lat="45.90658" lon="6.16788">
        <ele>789</ele>
        <time>2011-04-10T08:59:44Z</time>
      </trkpt>
      <trkpt lat="45.90658" lon="6.16789">
        <ele>790</ele>
        <time>2011-04-10T08:59:45Z</time>
      </trkpt>
      <trkpt lat="45.90658" lon="6.16791">
        <ele>790</ele>
        <time>2011-04-10T08:59:46Z</time>
      </trkpt>
      <trkpt lat="45.90658" lon="6.16793">
        <ele>790</ele>
        <time>2011-04-10T08:59:47Z</time>
      </trkpt>
      <trkpt lat="45.90659" lon="6.16794">
        <ele>790</ele>
        <time>2011-04-10T08:59:48Z</time>
      </trkpt>
      <trkpt lat="45.90658" lon="6.16795">
        <ele>790</ele>
        <time>2011-04-10T08:59:49Z</time>
      </trkpt>
      <trkpt lat="45.90657" lon="6.16797">
        <ele>791</ele>
        <time>2011-04-10T08:59:50Z</time>
      </trkpt>
      <trkpt lat="45.90656" lon="6.16798">
        <ele>791</ele>
        <time>2011-04-10T08:59:51Z</time>
      </trkpt>
      <trkpt lat="45.90655" lon="6.16798">
        <ele>791</ele>
        <time>2011-04-10T08:59:52Z</time>
      </trkpt>
      <trkpt lat="45.90653" lon="6.16798">
        <ele>792</ele>
        <time>2011-04-10T08:59:53Z</time>
      </trkpt>
      <trkpt lat="45.90651" lon="6.16799">
        <ele>793</ele>
        <time>2011-04-10T08:59:54Z</time>
      </trkpt>
      <trkpt lat="45.9065" lon="6.16799">
        <ele>793</ele>
        <time>2011-04-10T08:59:55Z</time>
      </trkpt>
      <trkpt lat="45.9065" lon="6.16798">
        <ele>793</ele>
        <time>2011-04-10T08:59:56Z</time>
      </trkpt>
      <trkpt lat="45.90649" lon="6.16798">
        <ele>793</ele>
        <time>2011-04-10T08:59:57Z</time>
      </trkpt>
      <trkpt lat="45.90648" lon="6.16798">
        <ele>794</ele>
        <time>2011-04-10T08:59:58Z</time>
      </trkpt>
      <trkpt lat="45.90649" lon="6.16801">
        <ele>793</ele>
        <time>2011-04-10T08:59:59Z</time>
      </trkpt>
      <trkpt lat="45.90649" lon="6.16802">
        <ele>794</ele>
        <time>2011-04-10T09:00:00Z</time>
      </trkpt>
      <trkpt lat="45.9065" lon="6.16803">
        <ele>798</ele>
        <time>2011-04-10T09:00:40Z</time>
      </trkpt>
      <trkpt lat="45.90652" lon="6.16802">
        <ele>799</ele>
        <time>2011-04-10T09:00:41Z</time>
      </trkpt>
      <trkpt lat="45.90654" lon="6.16802">
        <ele>799</ele>
        <time>2011-04-10T09:00:42Z</time>
      </trkpt>
      <trkpt lat="45.90657" lon="6.16802">
        <ele>799</ele>
        <time>2011-04-10T09:00:43Z</time>
      </trkpt>
      <trkpt lat="45.90659" lon="6.16802">
        <ele>799</ele>
        <time>2011-04-10T09:00:44Z</time>
      </trkpt>
      <trkpt lat="45.90662" lon="6.16801">
        <ele>800</ele>
        <time>2011-04-10T09:00:45Z</time>
      </trkpt>
      <trkpt lat="45.9068" lon="6.16798">
        <ele>800</ele>
        <time>2011-04-10T09:01:21Z</time>
      </trkpt>
      <trkpt lat="45.90679" lon="6.16804">
        <ele>800</ele>
        <time>2011-04-10T09:01:22Z</time>
      </trkpt>
      <trkpt lat="45.9068" lon="6.16806">
        <ele>799</ele>
        <time>2011-04-10T09:01:23Z</time>
      </trkpt>
      <trkpt lat="45.90681" lon="6.16807">
        <ele>800</ele>
        <time>2011-04-10T09:01:24Z</time>
      </trkpt>
      <trkpt lat="45.9068" lon="6.16809">
        <ele>799</ele>
        <time>2011-04-10T09:01:25Z</time>
      </trkpt>
      <trkpt lat="45.90676" lon="6.16808">
        <ele>800</ele>
        <time>2011-04-10T09:01:26Z</time>
      </trkpt>
      <trkpt lat="45.90676" lon="6.16809">
        <ele>801</ele>
        <time>2011-04-10T09:01:27Z</time>
      </trkpt>
      <trkpt lat="45.90676" lon="6.16809">
        <ele>801</ele>
        <time>2011-04-10T09:01:28Z</time>
      </trkpt>
      <trkpt lat="45.90677" lon="6.1681">
        <ele>800</ele>
        <time>2011-04-10T09:01:29Z</time>
      </trkpt>
      <trkpt lat="45.90676" lon="6.1681">
        <ele>800</ele>
        <time>2011-04-10T09:01:30Z</time>
      </trkpt>
      <trkpt lat="45.90677" lon="6.1681">
        <ele>800</ele>
        <time>2011-04-10T09:01:31Z</time>
      </trkpt>
      <trkpt lat="45.90676" lon="6.16811">
        <ele>801</ele>
        <time>2011-04-10T09:01:32Z</time>
      </trkpt>
      <trkpt lat="45.90674" lon="6.1681">
        <ele>802</ele>
        <time>2011-04-10T09:01:33Z</time>
      </trkpt>
      <trkpt lat="45.90673" lon="6.16812">
        <ele>802</ele>
        <time>2011-04-10T09:01:34Z</time>
      </trkpt>
      <trkpt lat="45.90673" lon="6.16813">
        <ele>802</ele>
        <time>2011-04-10T09:01:35Z</time>
      </trkpt>
      <trkpt lat="45.90673" lon="6.16814">
        <ele>801</ele>
        <time>2011-04-10T09:01:36Z</time>
      </trkpt>
      <trkpt lat="45.90673" lon="6.16815">
        <ele>801</ele>
        <time>2011-04-10T09:01:37Z</time>
      </trkpt>
      <trkpt lat="45.90673" lon="6.16815">
        <ele>801</ele>
        <time>2011-04-10T09:01:38Z</time>
      </trkpt>
      <trkpt lat="45.90672" lon="6.16815">
        <ele>801</ele>
        <time>2011-04-10T09:01:39Z</time>
      </trkpt>
      <trkpt lat="45.90671" lon="6.16816">
        <ele>802</ele>
        <time>2011-04-10T09:01:40Z</time>
      </trkpt>
      <trkpt lat="45.9067" lon="6.16817">
        <ele>802</ele>
        <time>2011-04-10T09:01:41Z</time>
      </trkpt>
      <trkpt lat="45.90669" lon="6.16819">
        <ele>801</ele>
        <time>2011-04-10T09:01:42Z</time>
      </trkpt>
      <trkpt lat="45.90669" lon="6.16822">
        <ele>803</ele>
        <time>2011-04-10T09:01:51Z</time>
      </trkpt>
      <trkpt lat="45.90667" lon="6.16824">
        <ele>803</ele>
        <time>2011-04-10T09:01:52Z</time>
      </trkpt>
      <trkpt lat="45.90666" lon="6.16826">
        <ele>803</ele>
        <time>2011-04-10T09:01:53Z</time>
      </trkpt>
      <trkpt lat="45.90665" lon="6.16826">
        <ele>803</ele>
        <time>2011-04-10T09:01:54Z</time>
      </trkpt>
      <trkpt lat="45.90664" lon="6.16827">
        <ele>804</ele>
        <time>2011-04-10T09:01:55Z</time>
      </trkpt>
      <trkpt lat="45.90665" lon="6.16828">
        <ele>803</ele>
        <time>2011-04-10T09:01:56Z</time>
      </trkpt>
      <trkpt lat="45.90661" lon="6.16828">
        <ele>804</ele>
        <time>2011-04-10T09:01:57Z</time>
      </trkpt>
      <trkpt lat="45.90661" lon="6.1683">
        <ele>805</ele>
        <time>2011-04-10T09:01:58Z</time>
      </trkpt>
      <trkpt lat="45.90659" lon="6.16832">
        <ele>806</ele>
        <time>2011-04-10T09:01:59Z</time>
      </trkpt>
      <trkpt lat="45.90658" lon="6.16832">
        <ele>807</ele>
        <time>2011-04-10T09:02:00Z</time>
      </trkpt>
      <trkpt lat="45.90658" lon="6.16832">
        <ele>807</ele>
        <time>2011-04-10T09:02:01Z</time>
      </trkpt>
      <trkpt lat="45.90657" lon="6.16833">
        <ele>807</ele>
        <time>2011-04-10T09:02:02Z</time>
      </trkpt>
      <trkpt lat="45.90655" lon="6.16833">
        <ele>808</ele>
        <time>2011-04-10T09:02:03Z</time>
      </trkpt>
      <trkpt lat="45.90655" lon="6.16835">
        <ele>809</ele>
        <time>2011-04-10T09:02:04Z</time>
      </trkpt>
      <trkpt lat="45.90654" lon="6.16836">
        <ele>810</ele>
        <time>2011-04-10T09:02:05Z</time>
      </trkpt>
      <trkpt lat="45.90654" lon="6.16836">
        <ele>810</ele>
        <time>2011-04-10T09:02:06Z</time>
      </trkpt>
      <trkpt lat="45.90654" lon="6.16837">
        <ele>811</ele>
        <time>2011-04-10T09:02:07Z</time>
      </trkpt>
      <trkpt lat="45.90653" lon="6.16837">
        <ele>811</ele>
        <time>2011-04-10T09:02:08Z</time>
      </trkpt>
      <trkpt lat="45.90654" lon="6.16837">
        <ele>811</ele>
        <time>2011-04-10T09:02:09Z</time>
      </trkpt>
      <trkpt lat="45.90654" lon="6.16839">
        <ele>811</ele>
        <time>2011-04-10T09:02:10Z</time>
      </trkpt>
      <trkpt lat="45.90654" lon="6.16839">
        <ele>812</ele>
        <time>2011-04-10T09:02:11Z</time>
      </trkpt>
      <trkpt lat="45.90655" lon="6.16842">
        <ele>812</ele>
        <time>2011-04-10T09:02:12Z</time>
      </trkpt>
      <trkpt lat="45.90655" lon="6.16843">
        <ele>813</ele>
        <time>2011-04-10T09:02:13Z</time>
      </trkpt>
      <trkpt lat="45.90656" lon="6.16844">
        <ele>814</ele>
        <time>2011-04-10T09:02:14Z</time>
      </trkpt>
      <trkpt lat="45.90655" lon="6.16842">
        <ele>814</ele>
        <time>2011-04-10T09:02:15Z</time>
      </trkpt>
      <trkpt lat="45.90656" lon="6.16842">
        <ele>814</ele>
        <time>2011-04-10T09:02:16Z</time>
      </trkpt>
      <trkpt lat="45.90655" lon="6.16844">
        <ele>814</ele>
        <time>2011-04-10T09:02:17Z</time>
      </trkpt>
      <trkpt lat="45.90657" lon="6.16843">
        <ele>814</ele>
        <time>2011-04-10T09:02:19Z</time>
      </trkpt>
      <trkpt lat="45.90659" lon="6.16844">
        <ele>817</ele>
        <time>2011-04-10T09:02:57Z</time>
      </trkpt>
      <trkpt lat="45.90661" lon="6.16846">
        <ele>817</ele>
        <time>2011-04-10T09:02:58Z</time>
      </trkpt>
      <trkpt lat="45.90667" lon="6.16845">
        <ele>817</ele>
        <time>2011-04-10T09:02:59Z</time>
      </trkpt>
      <trkpt lat="45.90673" lon="6.16844">
        <ele>816</ele>
        <time>2011-04-10T09:03:00Z</time>
      </trkpt>
      <trkpt lat="45.90675" lon="6.16843">
        <ele>816</ele>
        <time>2011-04-10T09:03:01Z</time>
      </trkpt>
      <trkpt lat="45.90678" lon="6.16842">
        <ele>817</ele>
        <time>2011-04-10T09:03:02Z</time>
      </trkpt>
      <trkpt lat="45.90681" lon="6.16841">
        <ele>818</ele>
        <time>2011-04-10T09:03:03Z</time>
      </trkpt>
      <trkpt lat="45.90684" lon="6.16841">
        <ele>818</ele>
        <time>2011-04-10T09:03:04Z</time>
      </trkpt>
      <trkpt lat="45.90687" lon="6.16841">
        <ele>819</ele>
        <time>2011-04-10T09:03:05Z</time>
      </trkpt>
      <trkpt lat="45.90689" lon="6.16841">
        <ele>820</ele>
        <time>2011-04-10T09:03:06Z</time>
      </trkpt>
      <trkpt lat="45.90689" lon="6.16838">
        <ele>820</ele>
        <time>2011-04-10T09:03:07Z</time>
      </trkpt>
      <trkpt lat="45.9069" lon="6.16839">
        <ele>820</ele>
        <time>2011-04-10T09:03:08Z</time>
      </trkpt>
      <trkpt lat="45.90691" lon="6.16839">
        <ele>819</ele>
        <time>2011-04-10T09:03:09Z</time>
      </trkpt>
      <trkpt lat="45.90691" lon="6.16839">
        <ele>819</ele>
        <time>2011-04-10T09:03:10Z</time>
      </trkpt>
      <trkpt lat="45.90691" lon="6.16838">
        <ele>820</ele>
        <time>2011-04-10T09:03:11Z</time>
      </trkpt>
      <trkpt lat="45.90691" lon="6.16839">
        <ele>820</ele>
        <time>2011-04-10T09:03:12Z</time>
      </trkpt>
      <trkpt lat="45.90692" lon="6.16839">
        <ele>820</ele>
        <time>2011-04-10T09:03:13Z</time>
      </trkpt>
      <trkpt lat="45.90693" lon="6.16841">
        <ele>820</ele>
        <time>2011-04-10T09:03:14Z</time>
      </trkpt>
      <trkpt lat="45.90695" lon="6.16841">
        <ele>821</ele>
        <time>2011-04-10T09:03:17Z</time>
      </trkpt>
      <trkpt lat="45.90696" lon="6.16839">
        <ele>821</ele>
        <time>2011-04-10T09:03:18Z</time>
      </trkpt>
      <trkpt lat="45.90697" lon="6.1684">
        <ele>821</ele>
        <time>2011-04-10T09:03:19Z</time>
      </trkpt>
      <trkpt lat="45.90698" lon="6.16839">
        <ele>822</ele>
        <time>2011-04-10T09:03:21Z</time>
      </trkpt>
      <trkpt lat="45.90699" lon="6.16839">
        <ele>822</ele>
        <time>2011-04-10T09:03:22Z</time>
      </trkpt>
      <trkpt lat="45.90701" lon="6.16839">
        <ele>821</ele>
        <time>2011-04-10T09:03:23Z</time>
      </trkpt>
      <trkpt lat="45.90703" lon="6.1684">
        <ele>822</ele>
        <time>2011-04-10T09:03:24Z</time>
      </trkpt>
      <trkpt lat="45.90704" lon="6.16839">
        <ele>822</ele>
        <time>2011-04-10T09:03:25Z</time>
      </trkpt>
      <trkpt lat="45.90703" lon="6.16837">
        <ele>822</ele>
        <time>2011-04-10T09:03:26Z</time>
      </trkpt>
      <trkpt lat="45.90703" lon="6.16836">
        <ele>822</ele>
        <time>2011-04-10T09:03:27Z</time>
      </trkpt>
      <trkpt lat="45.90704" lon="6.16835">
        <ele>823</ele>
        <time>2011-04-10T09:03:28Z</time>
      </trkpt>
      <trkpt lat="45.90706" lon="6.16836">
        <ele>823</ele>
        <time>2011-04-10T09:03:30Z</time>
      </trkpt>
      <trkpt lat="45.90708" lon="6.16837">
        <ele>823</ele>
        <time>2011-04-10T09:03:31Z</time>
      </trkpt>
      <trkpt lat="45.90708" lon="6.16837">
        <ele>823</ele>
        <time>2011-04-10T09:03:32Z</time>
      </trkpt>
      <trkpt lat="45.90708" lon="6.16837">
        <ele>823</ele>
        <time>2011-04-10T09:03:33Z</time>
      </trkpt>
      <trkpt lat="45.90707" lon="6.16836">
        <ele>823</ele>
        <time>2011-04-10T09:03:35Z</time>
      </trkpt>
      <trkpt lat="45.90708" lon="6.16836">
        <ele>823</ele>
        <time>2011-04-10T09:03:36Z</time>
      </trkpt>
      <trkpt lat="45.9071" lon="6.16838">
        <ele>824</ele>
        <time>2011-04-10T09:03:37Z</time>
      </trkpt>
      <trkpt lat="45.90711" lon="6.16835">
        <ele>824</ele>
        <time>2011-04-10T09:03:38Z</time>
      </trkpt>
      <trkpt lat="45.90711" lon="6.16834">
        <ele>825</ele>
        <time>2011-04-10T09:03:39Z</time>
      </trkpt>
      <trkpt lat="45.90713" lon="6.16835">
        <ele>825</ele>
        <time>2011-04-10T09:03:40Z</time>
      </trkpt>
      <trkpt lat="45.90712" lon="6.16835">
        <ele>825</ele>
        <time>2011-04-10T09:03:41Z</time>
      </trkpt>
      <trkpt lat="45.90715" lon="6.16834">
        <ele>825</ele>
        <time>2011-04-10T09:03:42Z</time>
      </trkpt>
      <trkpt lat="45.90717" lon="6.16828">
        <ele>826</ele>
        <time>2011-04-10T09:03:44Z</time>
      </trkpt>
      <trkpt lat="45.90717" lon="6.16826">
        <ele>826</ele>
        <time>2011-04-10T09:03:45Z</time>
      </trkpt>
      <trkpt lat="45.90718" lon="6.16826">
        <ele>825</ele>
        <time>2011-04-10T09:03:46Z</time>
      </trkpt>
      <trkpt lat="45.90719" lon="6.16824">
        <ele>826</ele>
        <time>2011-04-10T09:03:47Z</time>
      </trkpt>
      <trkpt lat="45.90719" lon="6.16824">
        <ele>826</ele>
        <time>2011-04-10T09:03:48Z</time>
      </trkpt>
      <trkpt lat="45.90719" lon="6.16824">
        <ele>827</ele>
        <time>2011-04-10T09:03:50Z</time>
      </trkpt>
      <trkpt lat="45.90719" lon="6.16823">
        <ele>828</ele>
        <time>2011-04-10T09:03:51Z</time>
      </trkpt>
      <trkpt lat="45.9072" lon="6.16824">
        <ele>828</ele>
        <time>2011-04-10T09:03:52Z</time>
      </trkpt>
      <trkpt lat="45.90722" lon="6.16826">
        <ele>829</ele>
        <time>2011-04-10T09:03:53Z</time>
      </trkpt>
      <trkpt lat="45.90722" lon="6.16826">
        <ele>830</ele>
        <time>2011-04-10T09:03:54Z</time>
      </trkpt>
      <trkpt lat="45.90724" lon="6.16826">
        <ele>830</ele>
        <time>2011-04-10T09:03:55Z</time>
      </trkpt>
      <trkpt lat="45.90724" lon="6.16824">
        <ele>831</ele>
        <time>2011-04-10T09:04:03Z</time>
      </trkpt>
      <trkpt lat="45.90725" lon="6.16823">
        <ele>831</ele>
        <time>2011-04-10T09:04:04Z</time>
      </trkpt>
      <trkpt lat="45.90725" lon="6.16824">
        <ele>831</ele>
        <time>2011-04-10T09:04:05Z</time>
      </trkpt>
      <trkpt lat="45.90726" lon="6.16825">
        <ele>831</ele>
        <time>2011-04-10T09:04:06Z</time>
      </trkpt>
      <trkpt lat="45.90726" lon="6.16827">
        <ele>832</ele>
        <time>2011-04-10T09:04:07Z</time>
      </trkpt>
      <trkpt lat="45.90725" lon="6.16827">
        <ele>833</ele>
        <time>2011-04-10T09:04:08Z</time>
      </trkpt>
      <trkpt lat="45.90724" lon="6.16827">
        <ele>833</ele>
        <time>2011-04-10T09:04:09Z</time>
      </trkpt>
      <trkpt lat="45.90723" lon="6.16828">
        <ele>833</ele>
        <time>2011-04-10T09:04:10Z</time>
      </trkpt>
      <trkpt lat="45.90723" lon="6.16828">
        <ele>833</ele>
        <time>2011-04-10T09:04:11Z</time>
      </trkpt>
      <trkpt lat="45.90722" lon="6.16829">
        <ele>833</ele>
        <time>2011-04-10T09:04:12Z</time>
      </trkpt>
      <trkpt lat="45.90721" lon="6.16831">
        <ele>834</ele>
        <time>2011-04-10T09:04:13Z</time>
      </trkpt>
      <trkpt lat="45.90721" lon="6.16832">
        <ele>834</ele>
        <time>2011-04-10T09:04:14Z</time>
      </trkpt>
      <trkpt lat="45.90721" lon="6.16833">
        <ele>835</ele>
        <time>2011-04-10T09:04:15Z</time>
      </trkpt>
      <trkpt lat="45.90721" lon="6.16834">
        <ele>836</ele>
        <time>2011-04-10T09:04:16Z</time>
      </trkpt>
      <trkpt lat="45.90719" lon="6.16835">
        <ele>836</ele>
        <time>2011-04-10T09:04:17Z</time>
      </trkpt>
      <trkpt lat="45.90719" lon="6.16837">
        <ele>836</ele>
        <time>2011-04-10T09:04:19Z</time>
      </trkpt>
      <trkpt lat="45.9072" lon="6.16839">
        <ele>835</ele>
        <time>2011-04-10T09:04:20Z</time>
      </trkpt>
      <trkpt lat="45.90718" lon="6.16839">
        <ele>836</ele>
        <time>2011-04-10T09:04:21Z</time>
      </trkpt>
      <trkpt lat="45.90717" lon="6.1684">
        <ele>835</ele>
        <time>2011-04-10T09:04:22Z</time>
      </trkpt>
      <trkpt lat="45.90717" lon="6.16842">
        <ele>835</ele>
        <time>2011-04-10T09:04:23Z</time>
      </trkpt>
      <trkpt lat="45.90716" lon="6.16843">
        <ele>835</ele>
        <time>2011-04-10T09:04:24Z</time>
      </trkpt>
      <trkpt lat="45.90716" lon="6.16844">
        <ele>835</ele>
        <time>2011-04-10T09:04:25Z</time>
      </trkpt>
      <trkpt lat="45.90715" lon="6.16844">
        <ele>835</ele>
        <time>2011-04-10T09:04:26Z</time>
      </trkpt>
      <trkpt lat="45.90715" lon="6.16844">
        <ele>835</ele>
        <time>2011-04-10T09:04:27Z</time>
      </trkpt>
      <trkpt lat="45.90714" lon="6.16846">
        <ele>836</ele>
        <time>2011-04-10T09:04:28Z</time>
      </trkpt>
      <trkpt lat="45.90713" lon="6.16846">
        <ele>836</ele>
        <time>2011-04-10T09:04:29Z</time>
      </trkpt>
      <trkpt lat="45.90713" lon="6.16846">
        <ele>836</ele>
        <time>2011-04-10T09:04:30Z</time>
      </trkpt>
      <trkpt lat="45.90712" lon="6.16846">
        <ele>833</ele>
        <time>2011-04-10T09:04:31Z</time>
      </trkpt>
      <trkpt lat="45.90712" lon="6.16847">
        <ele>833</ele>
        <time>2011-04-10T09:04:32Z</time>
      </trkpt>
      <trkpt lat="45.90711" lon="6.16848">
        <ele>834</ele>
        <time>2011-04-10T09:04:33Z</time>
      </trkpt>
      <trkpt lat="45.9071" lon="6.16849">
        <ele>834</ele>
        <time>2011-04-10T09:04:38Z</time>
      </trkpt>
      <trkpt lat="45.9071" lon="6.16851">
        <ele>833</ele>
        <time>2011-04-10T09:04:39Z</time>
      </trkpt>
      <trkpt lat="45.90708" lon="6.16852">
        <ele>836</ele>
        <time>2011-04-10T09:04:48Z</time>
      </trkpt>
      <trkpt lat="45.90705" lon="6.16852">
        <ele>838</ele>
        <time>2011-04-10T09:04:49Z</time>
      </trkpt>
      <trkpt lat="45.90704" lon="6.16853">
        <ele>838</ele>
        <time>2011-04-10T09:04:50Z</time>
      </trkpt>
      <trkpt lat="45.90703" lon="6.16856">
        <ele>838</ele>
        <time>2011-04-10T09:04:51Z</time>
      </trkpt>
      <trkpt lat="45.90701" lon="6.16855">
        <ele>838</ele>
        <time>2011-04-10T09:04:52Z</time>
      </trkpt>
      <trkpt lat="45.90701" lon="6.16857">
        <ele>839</ele>
        <time>2011-04-10T09:04:53Z</time>
      </trkpt>
      <trkpt lat="45.907" lon="6.16857">
        <ele>839</ele>
        <time>2011-04-10T09:04:54Z</time>
      </trkpt>
      <trkpt lat="45.90699" lon="6.16858">
        <ele>839</ele>
        <time>2011-04-10T09:04:55Z</time>
      </trkpt>
      <trkpt lat="45.90698" lon="6.16857">
        <ele>839</ele>
        <time>2011-04-10T09:04:56Z</time>
      </trkpt>
      <trkpt lat="45.90697" lon="6.16857">
        <ele>839</ele>
        <time>2011-04-10T09:04:57Z</time>
      </trkpt>
      <trkpt lat="45.90696" lon="6.16856">
        <ele>839</ele>
        <time>2011-04-10T09:04:58Z</time>
      </trkpt>
      <trkpt lat="45.90696" lon="6.16859">
        <ele>839</ele>
        <time>2011-04-10T09:05:00Z</time>
      </trkpt>
      <trkpt lat="45.90695" lon="6.16859">
        <ele>840</ele>
        <time>2011-04-10T09:05:01Z</time>
      </trkpt>
      <trkpt lat="45.90694" lon="6.1686">
        <ele>840</ele>
        <time>2011-04-10T09:05:02Z</time>
      </trkpt>
      <trkpt lat="45.90693" lon="6.1686">
        <ele>840</ele>
        <time>2011-04-10T09:05:03Z</time>
      </trkpt>
      <trkpt lat="45.9069" lon="6.16866">
        <ele>841</ele>
        <time>2011-04-10T09:05:25Z</time>
      </trkpt>
      <trkpt lat="45.90685" lon="6.16872">
        <ele>847</ele>
        <time>2011-04-10T09:06:05Z</time>
      </trkpt>
      <trkpt lat="45.90682" lon="6.16876">
        <ele>847</ele>
        <time>2011-04-10T09:06:06Z</time>
      </trkpt>
      <trkpt lat="45.9068" lon="6.16879">
        <ele>847</ele>
        <time>2011-04-10T09:06:07Z</time>
      </trkpt>
      <trkpt lat="45.90676" lon="6.16885">
        <ele>847</ele>
        <time>2011-04-10T09:06:08Z</time>
      </trkpt>
      <trkpt lat="45.90675" lon="6.16887">
        <ele>847</ele>
        <time>2011-04-10T09:06:09Z</time>
      </trkpt>
      <trkpt lat="45.90673" lon="6.1689">
        <ele>847</ele>
        <time>2011-04-10T09:06:10Z</time>
      </trkpt>
      <trkpt lat="45.90671" lon="6.169">
        <ele>848</ele>
        <time>2011-04-10T09:06:11Z</time>
      </trkpt>
      <trkpt lat="45.90667" lon="6.16901">
        <ele>849</ele>
        <time>2011-04-10T09:06:12Z</time>
      </trkpt>
      <trkpt lat="45.90665" lon="6.16904">
        <ele>849</ele>
        <time>2011-04-10T09:06:13Z</time>
      </trkpt>
      <trkpt lat="45.90664" lon="6.16905">
        <ele>849</ele>
        <time>2011-04-10T09:06:14Z</time>
      </trkpt>
      <trkpt lat="45.90663" lon="6.1691">
        <ele>849</ele>
        <time>2011-04-10T09:06:15Z</time>
      </trkpt>
      <trkpt lat="45.90662" lon="6.16913">
        <ele>849</ele>
        <time>2011-04-10T09:06:16Z</time>
      </trkpt>
      <trkpt lat="45.9066" lon="6.16915">
        <ele>849</ele>
        <time>2011-04-10T09:06:17Z</time>
      </trkpt>
      <trkpt lat="45.90658" lon="6.1692">
        <ele>849</ele>
        <time>2011-04-10T09:06:18Z</time>
      </trkpt>
      <trkpt lat="45.90657" lon="6.16922">
        <ele>849</ele>
        <time>2011-04-10T09:06:19Z</time>
      </trkpt>
      <trkpt lat="45.90658" lon="6.16926">
        <ele>850</ele>
        <time>2011-04-10T09:06:20Z</time>
      </trkpt>
      <trkpt lat="45.90657" lon="6.16925">
        <ele>850</ele>
        <time>2011-04-10T09:06:21Z</time>
      </trkpt>
      <trkpt lat="45.90657" lon="6.16926">
        <ele>851</ele>
        <time>2011-04-10T09:06:22Z</time>
      </trkpt>
      <trkpt lat="45.90656" lon="6.16927">
        <ele>851</ele>
        <time>2011-04-10T09:06:23Z</time>
      </trkpt>
      <trkpt lat="45.90656" lon="6.16929">
        <ele>851</ele>
        <time>2011-04-10T09:06:24Z</time>
      </trkpt>
      <trkpt lat="45.90655" lon="6.16931">
        <ele>851</ele>
        <time>2011-04-10T09:06:25Z</time>
      </trkpt>
      <trkpt lat="45.90655" lon="6.16932">
        <ele>851</ele>
        <time>2011-04-10T09:06:26Z</time>
      </trkpt>
      <trkpt lat="45.90652" lon="6.16936">
        <ele>851</ele>
        <time>2011-04-10T09:06:27Z</time>
      </trkpt>
      <trkpt lat="45.90647" lon="6.16935">
        <ele>852</ele>
        <time>2011-04-10T09:07:01Z</time>
      </trkpt>
      <trkpt lat="45.90636" lon="6.1694">
        <ele>853</ele>
        <time>2011-04-10T09:07:04Z</time>
      </trkpt>
      <trkpt lat="45.90635" lon="6.1694">
        <ele>853</ele>
        <time>2011-04-10T09:07:05Z</time>
      </trkpt>
      <trkpt lat="45.90632" lon="6.16942">
        <ele>854</ele>
        <time>2011-04-10T09:07:06Z</time>
      </trkpt>
      <trkpt lat="45.9063" lon="6.16945">
        <ele>854</ele>
        <time>2011-04-10T09:07:07Z</time>
      </trkpt>
      <trkpt lat="45.90628" lon="6.16946">
        <ele>854</ele>
        <time>2011-04-10T09:07:08Z</time>
      </trkpt>
      <trkpt lat="45.90627" lon="6.16945">
        <ele>854</ele>
        <time>2011-04-10T09:07:09Z</time>
      </trkpt>
      <trkpt lat="45.90624" lon="6.16946">
        <ele>854</ele>
        <time>2011-04-10T09:07:12Z</time>
      </trkpt>
      <trkpt lat="45.90623" lon="6.16948">
        <ele>854</ele>
        <time>2011-04-10T09:07:13Z</time>
      </trkpt>
      <trkpt lat="45.90623" lon="6.16947">
        <ele>853</ele>
        <time>2011-04-10T09:07:14Z</time>
      </trkpt>
      <trkpt lat="45.90621" lon="6.16948">
        <ele>854</ele>
        <time>2011-04-10T09:07:15Z</time>
      </trkpt>
      <trkpt lat="45.90621" lon="6.16952">
        <ele>853</ele>
        <time>2011-04-10T09:07:20Z</time>
      </trkpt>
      <trkpt lat="45.90621" lon="6.16953">
        <ele>854</ele>
        <time>2011-04-10T09:07:21Z</time>
      </trkpt>
      <trkpt lat="45.9062" lon="6.16957">
        <ele>854</ele>
        <time>2011-04-10T09:07:22Z</time>
      </trkpt>
      <trkpt lat="45.9062" lon="6.1696">
        <ele>854</ele>
        <time>2011-04-10T09:07:23Z</time>
      </trkpt>
      <trkpt lat="45.90619" lon="6.16961">
        <ele>855</ele>
        <time>2011-04-10T09:07:24Z</time>
      </trkpt>
      <trkpt lat="45.90619" lon="6.16963">
        <ele>855</ele>
        <time>2011-04-10T09:07:25Z</time>
      </trkpt>
      <trkpt lat="45.90618" lon="6.16964">
        <ele>855</ele>
        <time>2011-04-10T09:07:26Z</time>
      </trkpt>
      <trkpt lat="45.90618" lon="6.16966">
        <ele>856</ele>
        <time>2011-04-10T09:07:27Z</time>
      </trkpt>
      <trkpt lat="45.90618" lon="6.16966">
        <ele>856</ele>
        <time>2011-04-10T09:07:28Z</time>
      </trkpt>
      <trkpt lat="45.90618" lon="6.16967">
        <ele>856</ele>
        <time>2011-04-10T09:07:29Z</time>
      </trkpt>
      <trkpt lat="45.90619" lon="6.16966">
        <ele>856</ele>
        <time>2011-04-10T09:07:30Z</time>
      </trkpt>
      <trkpt lat="45.9062" lon="6.16967">
        <ele>856</ele>
        <time>2011-04-10T09:07:31Z</time>
      </trkpt>
      <trkpt lat="45.90621" lon="6.16968">
        <ele>856</ele>
        <time>2011-04-10T09:07:32Z</time>
      </trkpt>
      <trkpt lat="45.9062" lon="6.16969">
        <ele>856</ele>
        <time>2011-04-10T09:07:33Z</time>
      </trkpt>
      <trkpt lat="45.90621" lon="6.1697">
        <ele>857</ele>
        <time>2011-04-10T09:07:34Z</time>
      </trkpt>
      <trkpt lat="45.90622" lon="6.1697">
        <ele>857</ele>
        <time>2011-04-10T09:07:35Z</time>
      </trkpt>
      <trkpt lat="45.9062" lon="6.1697">
        <ele>856</ele>
        <time>2011-04-10T09:07:36Z</time>
      </trkpt>
      <trkpt lat="45.9062" lon="6.1697">
        <ele>857</ele>
        <time>2011-04-10T09:07:37Z</time>
      </trkpt>
      <trkpt lat="45.90621" lon="6.1697">
        <ele>857</ele>
        <time>2011-04-10T09:07:38Z</time>
      </trkpt>
      <trkpt lat="45.9062" lon="6.16971">
        <ele>857</ele>
        <time>2011-04-10T09:07:39Z</time>
      </trkpt>
      <trkpt lat="45.90621" lon="6.16972">
        <ele>857</ele>
        <time>2011-04-10T09:07:40Z</time>
      </trkpt>
      <trkpt lat="45.90622" lon="6.16975">
        <ele>857</ele>
        <time>2011-04-10T09:07:41Z</time>
      </trkpt>
      <trkpt lat="45.90623" lon="6.16977">
        <ele>857</ele>
        <time>2011-04-10T09:07:42Z</time>
      </trkpt>
      <trkpt lat="45.90624" lon="6.16979">
        <ele>857</ele>
        <time>2011-04-10T09:07:43Z</time>
      </trkpt>
      <trkpt lat="45.90624" lon="6.16981">
        <ele>856</ele>
        <time>2011-04-10T09:07:44Z</time>
      </trkpt>
      <trkpt lat="45.90624" lon="6.16981">
        <ele>856</ele>
        <time>2011-04-10T09:07:45Z</time>
      </trkpt>
      <trkpt lat="45.90625" lon="6.16982">
        <ele>856</ele>
        <time>2011-04-10T09:07:46Z</time>
      </trkpt>
      <trkpt lat="45.90627" lon="6.16982">
        <ele>856</ele>
        <time>2011-04-10T09:07:47Z</time>
      </trkpt>
      <trkpt lat="45.90625" lon="6.16981">
        <ele>856</ele>
        <time>2011-04-10T09:07:48Z</time>
      </trkpt>
      <trkpt lat="45.90631" lon="6.16983">
        <ele>858</ele>
        <time>2011-04-10T09:08:34Z</time>
      </trkpt>
      <trkpt lat="45.90638" lon="6.16984">
        <ele>859</ele>
        <time>2011-04-10T09:08:35Z</time>
      </trkpt>
      <trkpt lat="45.90639" lon="6.16986">
        <ele>859</ele>
        <time>2011-04-10T09:08:36Z</time>
      </trkpt>
      <trkpt lat="45.90641" lon="6.16987">
        <ele>859</ele>
        <time>2011-04-10T09:08:37Z</time>
      </trkpt>
      <trkpt lat="45.90644" lon="6.1699">
        <ele>860</ele>
        <time>2011-04-10T09:08:38Z</time>
      </trkpt>
      <trkpt lat="45.90645" lon="6.1699">
        <ele>861</ele>
        <time>2011-04-10T09:08:39Z</time>
      </trkpt>
      <trkpt lat="45.90649" lon="6.1699">
        <ele>861</ele>
        <time>2011-04-10T09:08:40Z</time>
      </trkpt>
      <trkpt lat="45.9065" lon="6.16991">
        <ele>862</ele>
        <time>2011-04-10T09:08:41Z</time>
      </trkpt>
      <trkpt lat="45.9065" lon="6.16994">
        <ele>862</ele>
        <time>2011-04-10T09:08:42Z</time>
      </trkpt>
      <trkpt lat="45.90651" lon="6.16995">
        <ele>862</ele>
        <time>2011-04-10T09:08:43Z</time>
      </trkpt>
      <trkpt lat="45.90653" lon="6.16997">
        <ele>863</ele>
        <time>2011-04-10T09:08:44Z</time>
      </trkpt>
      <trkpt lat="45.90654" lon="6.16998">
        <ele>863</ele>
        <time>2011-04-10T09:08:45Z</time>
      </trkpt>
      <trkpt lat="45.90657" lon="6.16997">
        <ele>863</ele>
        <time>2011-04-10T09:08:46Z</time>
      </trkpt>
      <trkpt lat="45.90658" lon="6.16996">
        <ele>863</ele>
        <time>2011-04-10T09:08:47Z</time>
      </trkpt>
      <trkpt lat="45.90658" lon="6.16997">
        <ele>863</ele>
        <time>2011-04-10T09:08:48Z</time>
      </trkpt>
      <trkpt lat="45.9066" lon="6.16998">
        <ele>863</ele>
        <time>2011-04-10T09:08:49Z</time>
      </trkpt>
      <trkpt lat="45.90664" lon="6.16998">
        <ele>863</ele>
        <time>2011-04-10T09:08:50Z</time>
      </trkpt>
      <trkpt lat="45.90666" lon="6.17">
        <ele>863</ele>
        <time>2011-04-10T09:08:51Z</time>
      </trkpt>
      <trkpt lat="45.90667" lon="6.17001">
        <ele>863</ele>
        <time>2011-04-10T09:08:52Z</time>
      </trkpt>
      <trkpt lat="45.90667" lon="6.17">
        <ele>863</ele>
        <time>2011-04-10T09:08:53Z</time>
      </trkpt>
      <trkpt lat="45.9067" lon="6.16999">
        <ele>863</ele>
        <time>2011-04-10T09:08:54Z</time>
      </trkpt>
      <trkpt lat="45.90671" lon="6.16999">
        <ele>863</ele>
        <time>2011-04-10T09:08:55Z</time>
      </trkpt>
      <trkpt lat="45.9067" lon="6.17">
        <ele>863</ele>
        <time>2011-04-10T09:08:56Z</time>
      </trkpt>
      <trkpt lat="45.9067" lon="6.17">
        <ele>864</ele>
        <time>2011-04-10T09:08:57Z</time>
      </trkpt>
      <trkpt lat="45.90672" lon="6.16998">
        <ele>863</ele>
        <time>2011-04-10T09:08:58Z</time>
      </trkpt>
      <trkpt lat="45.90672" lon="6.16996">
        <ele>864</ele>
        <time>2011-04-10T09:08:59Z</time>
      </trkpt>
      <trkpt lat="45.90671" lon="6.16996">
        <ele>863</ele>
        <time>2011-04-10T09:09:00Z</time>
      </trkpt>
      <trkpt lat="45.90672" lon="6.16995">
        <ele>863</ele>
        <time>2011-04-10T09:09:01Z</time>
      </trkpt>
      <trkpt lat="45.90672" lon="6.16996">
        <ele>862</ele>
        <time>2011-04-10T09:09:03Z</time>
      </trkpt>
      <trkpt lat="45.90674" lon="6.16995">
        <ele>862</ele>
        <time>2011-04-10T09:09:04Z</time>
      </trkpt>
      <trkpt lat="45.90676" lon="6.16994">
        <ele>863</ele>
        <time>2011-04-10T09:09:05Z</time>
      </trkpt>
      <trkpt lat="45.90676" lon="6.16996">
        <ele>863</ele>
        <time>2011-04-10T09:09:06Z</time>
      </trkpt>
      <trkpt lat="45.9068" lon="6.16998">
        <ele>863</ele>
        <time>2011-04-10T09:11:52Z</time>
      </trkpt>
      <trkpt lat="45.90681" lon="6.17003">
        <ele>865</ele>
        <time>2011-04-10T09:11:53Z</time>
      </trkpt>
      <trkpt lat="45.90686" lon="6.17005">
        <ele>865</ele>
        <time>2011-04-10T09:11:54Z</time>
      </trkpt>
      <trkpt lat="45.90688" lon="6.1701">
        <ele>866</ele>
        <time>2011-04-10T09:11:55Z</time>
      </trkpt>
      <trkpt lat="45.90692" lon="6.17013">
        <ele>867</ele>
        <time>2011-04-10T09:11:56Z</time>
      </trkpt>
      <trkpt lat="45.90693" lon="6.17015">
        <ele>867</ele>
        <time>2011-04-10T09:11:57Z</time>
      </trkpt>
      <trkpt lat="45.90692" lon="6.17019">
        <ele>868</ele>
        <time>2011-04-10T09:11:58Z</time>
      </trkpt>
      <trkpt lat="45.90694" lon="6.1702">
        <ele>868</ele>
        <time>2011-04-10T09:11:59Z</time>
      </trkpt>
      <trkpt lat="45.90694" lon="6.1702">
        <ele>868</ele>
        <time>2011-04-10T09:12:00Z</time>
      </trkpt>
      <trkpt lat="45.90694" lon="6.17021">
        <ele>868</ele>
        <time>2011-04-10T09:12:01Z</time>
      </trkpt>
      <trkpt lat="45.90694" lon="6.17026">
        <ele>868</ele>
        <time>2011-04-10T09:12:03Z</time>
      </trkpt>
      <trkpt lat="45.90696" lon="6.17026">
        <ele>869</ele>
        <time>2011-04-10T09:12:04Z</time>
      </trkpt>
      <trkpt lat="45.90697" lon="6.17029">
        <ele>869</ele>
        <time>2011-04-10T09:12:05Z</time>
      </trkpt>
      <trkpt lat="45.90698" lon="6.17032">
        <ele>869</ele>
        <time>2011-04-10T09:12:06Z</time>
      </trkpt>
      <trkpt lat="45.90698" lon="6.17034">
        <ele>870</ele>
        <time>2011-04-10T09:12:07Z</time>
      </trkpt>
      <trkpt lat="45.90699" lon="6.17036">
        <ele>870</ele>
        <time>2011-04-10T09:12:08Z</time>
      </trkpt>
      <trkpt lat="45.90699" lon="6.17037">
        <ele>870</ele>
        <time>2011-04-10T09:12:09Z</time>
      </trkpt>
      <trkpt lat="45.90699" lon="6.17038">
        <ele>869</ele>
        <time>2011-04-10T09:12:10Z</time>
      </trkpt>
      <trkpt lat="45.907" lon="6.1704">
        <ele>869</ele>
        <time>2011-04-10T09:12:11Z</time>
      </trkpt>
      <trkpt lat="45.90699" lon="6.1704">
        <ele>869</ele>
        <time>2011-04-10T09:12:12Z</time>
      </trkpt>
      <trkpt lat="45.90699" lon="6.1704">
        <ele>870</ele>
        <time>2011-04-10T09:12:13Z</time>
      </trkpt>
      <trkpt lat="45.90698" lon="6.17049">
        <ele>871</ele>
        <time>2011-04-10T09:14:38Z</time>
      </trkpt>
      <trkpt lat="45.90697" lon="6.17058">
        <ele>874</ele>
        <time>2011-04-10T09:14:39Z</time>
      </trkpt>
      <trkpt lat="45.90699" lon="6.17066">
        <ele>876</ele>
        <time>2011-04-10T09:14:40Z</time>
      </trkpt>
      <trkpt lat="45.90701" lon="6.17071">
        <ele>877</ele>
        <time>2011-04-10T09:14:41Z</time>
      </trkpt>
      <trkpt lat="45.90702" lon="6.17077">
        <ele>880</ele>
        <time>2011-04-10T09:14:42Z</time>
      </trkpt>
      <trkpt lat="45.90703" lon="6.17083">
        <ele>884</ele>
        <time>2011-04-10T09:14:43Z</time>
      </trkpt>
      <trkpt lat="45.90704" lon="6.17086">
        <ele>885</ele>
        <time>2011-04-10T09:14:44Z</time>
      </trkpt>
      <trkpt lat="45.90705" lon="6.17087">
        <ele>888</ele>
        <time>2011-04-10T09:14:45Z</time>
      </trkpt>
      <trkpt lat="45.90706" lon="6.17088">
        <ele>890</ele>
        <time>2011-04-10T09:14:46Z</time>
      </trkpt>
      <trkpt lat="45.90708" lon="6.17088">
        <ele>891</ele>
        <time>2011-04-10T09:14:47Z</time>
      </trkpt>
      <trkpt lat="45.90709" lon="6.17087">
        <ele>893</ele>
        <time>2011-04-10T09:14:48Z</time>
      </trkpt>
      <trkpt lat="45.9071" lon="6.17088">
        <ele>893</ele>
        <time>2011-04-10T09:14:49Z</time>
      </trkpt>
      <trkpt lat="45.90712" lon="6.17087">
        <ele>895</ele>
        <time>2011-04-10T09:14:50Z</time>
      </trkpt>
      <trkpt lat="45.90712" lon="6.17092">
        <ele>895</ele>
        <time>2011-04-10T09:14:51Z</time>
      </trkpt>
      <trkpt lat="45.90711" lon="6.17092">
        <ele>897</ele>
        <time>2011-04-10T09:14:52Z</time>
      </trkpt>
      <trkpt lat="45.90709" lon="6.17095">
        <ele>899</ele>
        <time>2011-04-10T09:14:53Z</time>
      </trkpt>
      <trkpt lat="45.90711" lon="6.17096">
        <ele>901</ele>
        <time>2011-04-10T09:14:55Z</time>
      </trkpt>
      <trkpt lat="45.9071" lon="6.17101">
        <ele>904</ele>
        <time>2011-04-10T09:14:56Z</time>
      </trkpt>
      <trkpt lat="45.9071" lon="6.17103">
        <ele>906</ele>
        <time>2011-04-10T09:14:57Z</time>
      </trkpt>
      <trkpt lat="45.90711" lon="6.17104">
        <ele>908</ele>
        <time>2011-04-10T09:14:58Z</time>
      </trkpt>
      <trkpt lat="45.90715" lon="6.17106">
        <ele>908</ele>
        <time>2011-04-10T09:14:59Z</time>
      </trkpt>
      <trkpt lat="45.90716" lon="6.17106">
        <ele>910</ele>
        <time>2011-04-10T09:15:00Z</time>
      </trkpt>
      <trkpt lat="45.90716" lon="6.17107">
        <ele>911</ele>
        <time>2011-04-10T09:15:01Z</time>
      </trkpt>
      <trkpt lat="45.90719" lon="6.17106">
        <ele>916</ele>
        <time>2011-04-10T09:15:37Z</time>
      </trkpt>
      <trkpt lat="45.90719" lon="6.17111">
        <ele>917</ele>
        <time>2011-04-10T09:15:38Z</time>
      </trkpt>
      <trkpt lat="45.90731" lon="6.17116">
        <ele>920</ele>
        <time>2011-04-10T09:15:52Z</time>
      </trkpt>
      <trkpt lat="45.90733" lon="6.17119">
        <ele>920</ele>
        <time>2011-04-10T09:15:53Z</time>
      </trkpt>
      <trkpt lat="45.90733" lon="6.17123">
        <ele>921</ele>
        <time>2011-04-10T09:15:54Z</time>
      </trkpt>
      <trkpt lat="45.90734" lon="6.17127">
        <ele>922</ele>
        <time>2011-04-10T09:15:55Z</time>
      </trkpt>
      <trkpt lat="45.90735" lon="6.17128">
        <ele>922</ele>
        <time>2011-04-10T09:15:56Z</time>
      </trkpt>
      <trkpt lat="45.90739" lon="6.1713">
        <ele>922</ele>
        <time>2011-04-10T09:15:57Z</time>
      </trkpt>
      <trkpt lat="45.90741" lon="6.17133">
        <ele>922</ele>
        <time>2011-04-10T09:15:58Z</time>
      </trkpt>
      <trkpt lat="45.90743" lon="6.17135">
        <ele>923</ele>
        <time>2011-04-10T09:15:59Z</time>
      </trkpt>
      <trkpt lat="45.90743" lon="6.17137">
        <ele>923</ele>
        <time>2011-04-10T09:16:00Z</time>
      </trkpt>
      <trkpt lat="45.90746" lon="6.17138">
        <ele>923</ele>
        <time>2011-04-10T09:16:01Z</time>
      </trkpt>
      <trkpt lat="45.90746" lon="6.17142">
        <ele>925</ele>
        <time>2011-04-10T09:16:03Z</time>
      </trkpt>
      <trkpt lat="45.90747" lon="6.17143">
        <ele>926</ele>
        <time>2011-04-10T09:16:04Z</time>
      </trkpt>
      <trkpt lat="45.90748" lon="6.17145">
        <ele>926</ele>
        <time>2011-04-10T09:16:05Z</time>
      </trkpt>
      <trkpt lat="45.90747" lon="6.17147">
        <ele>927</ele>
        <time>2011-04-10T09:16:06Z</time>
      </trkpt>
      <trkpt lat="45.90748" lon="6.17148">
        <ele>928</ele>
        <time>2011-04-10T09:16:07Z</time>
      </trkpt>
      <trkpt lat="45.90749" lon="6.17148">
        <ele>929</ele>
        <time>2011-04-10T09:16:08Z</time>
      </trkpt>
      <trkpt lat="45.90752" lon="6.17152">
        <ele>929</ele>
        <time>2011-04-10T09:16:09Z</time>
      </trkpt>
      <trkpt lat="45.90752" lon="6.17153">
        <ele>930</ele>
        <time>2011-04-10T09:16:10Z</time>
      </trkpt>
      <trkpt lat="45.90753" lon="6.17154">
        <ele>930</ele>
        <time>2011-04-10T09:16:11Z</time>
      </trkpt>
      <trkpt lat="45.90752" lon="6.17155">
        <ele>930</ele>
        <time>2011-04-10T09:16:12Z</time>
      </trkpt>
      <trkpt lat="45.90753" lon="6.17158">
        <ele>930</ele>
        <time>2011-04-10T09:16:13Z</time>
      </trkpt>
      <trkpt lat="45.90753" lon="6.17163">
        <ele>929</ele>
        <time>2011-04-10T09:16:14Z</time>
      </trkpt>
      <trkpt lat="45.90753" lon="6.17165">
        <ele>930</ele>
        <time>2011-04-10T09:16:15Z</time>
      </trkpt>
      <trkpt lat="45.90753" lon="6.17165">
        <ele>929</ele>
        <time>2011-04-10T09:16:16Z</time>
      </trkpt>
      <trkpt lat="45.90754" lon="6.17168">
        <ele>930</ele>
        <time>2011-04-10T09:16:17Z</time>
      </trkpt>
      <trkpt lat="45.90754" lon="6.17169">
        <ele>930</ele>
        <time>2011-04-10T09:16:18Z</time>
      </trkpt>
      <trkpt lat="45.90755" lon="6.17169">
        <ele>929</ele>
        <time>2011-04-10T09:16:19Z</time>
      </trkpt>
      <trkpt lat="45.90756" lon="6.17168">
        <ele>931</ele>
        <time>2011-04-10T09:16:20Z</time>
      </trkpt>
      <trkpt lat="45.90757" lon="6.17169">
        <ele>932</ele>
        <time>2011-04-10T09:16:21Z</time>
      </trkpt>
      <trkpt lat="45.90759" lon="6.1717">
        <ele>932</ele>
        <time>2011-04-10T09:16:22Z</time>
      </trkpt>
      <trkpt lat="45.90758" lon="6.17171">
        <ele>933</ele>
        <time>2011-04-10T09:16:23Z</time>
      </trkpt>
      <trkpt lat="45.90761" lon="6.17173">
        <ele>933</ele>
        <time>2011-04-10T09:16:24Z</time>
      </trkpt>
      <trkpt lat="45.90761" lon="6.17175">
        <ele>933</ele>
        <time>2011-04-10T09:16:25Z</time>
      </trkpt>
      <trkpt lat="45.90761" lon="6.17177">
        <ele>932</ele>
        <time>2011-04-10T09:16:26Z</time>
      </trkpt>
      <trkpt lat="45.90761" lon="6.17177">
        <ele>933</ele>
        <time>2011-04-10T09:16:27Z</time>
      </trkpt>
      <trkpt lat="45.9076" lon="6.17177">
        <ele>934</ele>
        <time>2011-04-10T09:16:28Z</time>
      </trkpt>
      <trkpt lat="45.9076" lon="6.17174">
        <ele>934</ele>
        <time>2011-04-10T09:16:29Z</time>
      </trkpt>
      <trkpt lat="45.90762" lon="6.17175">
        <ele>936</ele>
        <time>2011-04-10T09:16:30Z</time>
      </trkpt>
      <trkpt lat="45.90761" lon="6.17175">
        <ele>936</ele>
        <time>2011-04-10T09:16:31Z</time>
      </trkpt>
      <trkpt lat="45.90762" lon="6.17173">
        <ele>939</ele>
        <time>2011-04-10T09:16:32Z</time>
      </trkpt>
      <trkpt lat="45.90762" lon="6.17176">
        <ele>939</ele>
        <time>2011-04-10T09:16:33Z</time>
      </trkpt>
      <trkpt lat="45.90762" lon="6.17175">
        <ele>939</ele>
        <time>2011-04-10T09:16:34Z</time>
      </trkpt>
      <trkpt lat="45.90762" lon="6.17177">
        <ele>940</ele>
        <time>2011-04-10T09:16:35Z</time>
      </trkpt>
      <trkpt lat="45.90772" lon="6.17184">
        <ele>941</ele>
        <time>2011-04-10T09:16:54Z</time>
      </trkpt>
      <trkpt lat="45.90774" lon="6.17185">
        <ele>940</ele>
        <time>2011-04-10T09:16:55Z</time>
      </trkpt>
      <trkpt lat="45.90775" lon="6.17189">
        <ele>940</ele>
        <time>2011-04-10T09:16:56Z</time>
      </trkpt>
      <trkpt lat="45.90777" lon="6.1719">
        <ele>939</ele>
        <time>2011-04-10T09:16:57Z</time>
      </trkpt>
      <trkpt lat="45.90779" lon="6.17189">
        <ele>939</ele>
        <time>2011-04-10T09:16:58Z</time>
      </trkpt>
      <trkpt lat="45.9078" lon="6.17191">
        <ele>940</ele>
        <time>2011-04-10T09:16:59Z</time>
      </trkpt>
      <trkpt lat="45.90781" lon="6.17193">
        <ele>940</ele>
        <time>2011-04-10T09:17:00Z</time>
      </trkpt>
      <trkpt lat="45.9078" lon="6.17197">
        <ele>940</ele>
        <time>2011-04-10T09:17:01Z</time>
      </trkpt>
      <trkpt lat="45.9078" lon="6.172">
        <ele>940</ele>
        <time>2011-04-10T09:17:02Z</time>
      </trkpt>
      <trkpt lat="45.9078" lon="6.17201">
        <ele>942</ele>
        <time>2011-04-10T09:17:03Z</time>
      </trkpt>
      <trkpt lat="45.90782" lon="6.17201">
        <ele>943</ele>
        <time>2011-04-10T09:17:04Z</time>
      </trkpt>
      <trkpt lat="45.90784" lon="6.17202">
        <ele>944</ele>
        <time>2011-04-10T09:17:45Z</time>
      </trkpt>
      <trkpt lat="45.90787" lon="6.17206">
        <ele>946</ele>
        <time>2011-04-10T09:17:46Z</time>
      </trkpt>
      <trkpt lat="45.9079" lon="6.17209">
        <ele>947</ele>
        <time>2011-04-10T09:17:47Z</time>
      </trkpt>
      <trkpt lat="45.90789" lon="6.17214">
        <ele>948</ele>
        <time>2011-04-10T09:17:48Z</time>
      </trkpt>
      <trkpt lat="45.9079" lon="6.1722">
        <ele>949</ele>
        <time>2011-04-10T09:17:49Z</time>
      </trkpt>
      <trkpt lat="45.90792" lon="6.17222">
        <ele>949</ele>
        <time>2011-04-10T09:17:50Z</time>
      </trkpt>
      <trkpt lat="45.90794" lon="6.17227">
        <ele>948</ele>
        <time>2011-04-10T09:17:51Z</time>
      </trkpt>
      <trkpt lat="45.90797" lon="6.17229">
        <ele>949</ele>
        <time>2011-04-10T09:17:52Z</time>
      </trkpt>
      <trkpt lat="45.90798" lon="6.1723">
        <ele>951</ele>
        <time>2011-04-10T09:17:53Z</time>
      </trkpt>
      <trkpt lat="45.90799" lon="6.1723">
        <ele>952</ele>
        <time>2011-04-10T09:17:54Z</time>
      </trkpt>
      <trkpt lat="45.908" lon="6.17231">
        <ele>953</ele>
        <time>2011-04-10T09:17:55Z</time>
      </trkpt>
      <trkpt lat="45.908" lon="6.17232">
        <ele>953</ele>
        <time>2011-04-10T09:17:56Z</time>
      </trkpt>
      <trkpt lat="45.90799" lon="6.17231">
        <ele>953</ele>
        <time>2011-04-10T09:17:57Z</time>
      </trkpt>
      <trkpt lat="45.90801" lon="6.17229">
        <ele>953</ele>
        <time>2011-04-10T09:17:58Z</time>
      </trkpt>
      <trkpt lat="45.90801" lon="6.17228">
        <ele>954</ele>
        <time>2011-04-10T09:17:59Z</time>
      </trkpt>
      <trkpt lat="45.908" lon="6.17229">
        <ele>953</ele>
        <time>2011-04-10T09:18:00Z</time>
      </trkpt>
      <trkpt lat="45.90798" lon="6.1723">
        <ele>953</ele>
        <time>2011-04-10T09:18:01Z</time>
      </trkpt>
      <trkpt lat="45.90798" lon="6.17229">
        <ele>953</ele>
        <time>2011-04-10T09:18:03Z</time>
      </trkpt>
      <trkpt lat="45.90797" lon="6.17229">
        <ele>956</ele>
        <time>2011-04-10T09:18:04Z</time>
      </trkpt>
      <trkpt lat="45.90795" lon="6.17231">
        <ele>956</ele>
        <time>2011-04-10T09:18:05Z</time>
      </trkpt>
      <trkpt lat="45.90794" lon="6.17231">
        <ele>956</ele>
        <time>2011-04-10T09:18:06Z</time>
      </trkpt>
      <trkpt lat="45.90794" lon="6.17229">
        <ele>957</ele>
        <time>2011-04-10T09:18:07Z</time>
      </trkpt>
      <trkpt lat="45.90793" lon="6.17228">
        <ele>958</ele>
        <time>2011-04-10T09:18:08Z</time>
      </trkpt>
      <trkpt lat="45.90792" lon="6.17227">
        <ele>957</ele>
        <time>2011-04-10T09:18:09Z</time>
      </trkpt>
      <trkpt lat="45.90791" lon="6.17227">
        <ele>957</ele>
        <time>2011-04-10T09:18:10Z</time>
      </trkpt>
      <trkpt lat="45.90791" lon="6.17227">
        <ele>958</ele>
        <time>2011-04-10T09:18:11Z</time>
      </trkpt>
      <trkpt lat="45.90791" lon="6.17228">
        <ele>958</ele>
        <time>2011-04-10T09:18:12Z</time>
      </trkpt>
      <trkpt lat="45.9079" lon="6.17228">
        <ele>959</ele>
        <time>2011-04-10T09:18:13Z</time>
      </trkpt>
      <trkpt lat="45.9079" lon="6.17227">
        <ele>958</ele>
        <time>2011-04-10T09:18:14Z</time>
      </trkpt>
      <trkpt lat="45.90789" lon="6.17227">
        <ele>958</ele>
        <time>2011-04-10T09:18:15Z</time>
      </trkpt>
      <trkpt lat="45.90787" lon="6.17226">
        <ele>958</ele>
        <time>2011-04-10T09:18:16Z</time>
      </trkpt>
      <trkpt lat="45.90786" lon="6.17228">
        <ele>959</ele>
        <time>2011-04-10T09:18:17Z</time>
      </trkpt>
      <trkpt lat="45.90785" lon="6.17228">
        <ele>959</ele>
        <time>2011-04-10T09:18:18Z</time>
      </trkpt>
      <trkpt lat="45.90785" lon="6.17227">
        <ele>959</ele>
        <time>2011-04-10T09:18:19Z</time>
      </trkpt>
      <trkpt lat="45.90783" lon="6.17228">
        <ele>959</ele>
        <time>2011-04-10T09:18:20Z</time>
      </trkpt>
      <trkpt lat="45.90782" lon="6.17227">
        <ele>959</ele>
        <time>2011-04-10T09:18:21Z</time>
      </trkpt>
      <trkpt lat="45.90779" lon="6.17225">
        <ele>960</ele>
        <time>2011-04-10T09:18:22Z</time>
      </trkpt>
      <trkpt lat="45.9078" lon="6.17226">
        <ele>961</ele>
        <time>2011-04-10T09:18:23Z</time>
      </trkpt>
      <trkpt lat="45.90779" lon="6.17226">
        <ele>963</ele>
        <time>2011-04-10T09:18:24Z</time>
      </trkpt>
      <trkpt lat="45.90779" lon="6.17226">
        <ele>964</ele>
        <time>2011-04-10T09:18:25Z</time>
      </trkpt>
      <trkpt lat="45.9078" lon="6.17226">
        <ele>964</ele>
        <time>2011-04-10T09:18:26Z</time>
      </trkpt>
      <trkpt lat="45.90779" lon="6.17226">
        <ele>965</ele>
        <time>2011-04-10T09:18:27Z</time>
      </trkpt>
      <trkpt lat="45.90779" lon="6.17225">
        <ele>965</ele>
        <time>2011-04-10T09:18:28Z</time>
      </trkpt>
      <trkpt lat="45.90778" lon="6.17226">
        <ele>965</ele>
        <time>2011-04-10T09:18:29Z</time>
      </trkpt>
      <trkpt lat="45.90778" lon="6.17227">
        <ele>965</ele>
        <time>2011-04-10T09:18:30Z</time>
      </trkpt>
      <trkpt lat="45.90778" lon="6.17228">
        <ele>966</ele>
        <time>2011-04-10T09:18:31Z</time>
      </trkpt>
      <trkpt lat="45.90778" lon="6.17229">
        <ele>966</ele>
        <time>2011-04-10T09:18:32Z</time>
      </trkpt>
      <trkpt lat="45.90777" lon="6.17227">
        <ele>966</ele>
        <time>2011-04-10T09:18:33Z</time>
      </trkpt>
      <trkpt lat="45.90778" lon="6.17226">
        <ele>967</ele>
        <time>2011-04-10T09:18:34Z</time>
      </trkpt>
      <trkpt lat="45.90779" lon="6.17225">
        <ele>967</ele>
        <time>2011-04-10T09:18:35Z</time>
      </trkpt>
      <trkpt lat="45.90778" lon="6.17223">
        <ele>967</ele>
        <time>2011-04-10T09:18:36Z</time>
      </trkpt>
      <trkpt lat="45.90777" lon="6.17222">
        <ele>967</ele>
        <time>2011-04-10T09:18:37Z</time>
      </trkpt>
      <trkpt lat="45.90776" lon="6.17221">
        <ele>966</ele>
        <time>2011-04-10T09:18:38Z</time>
      </trkpt>
      <trkpt lat="45.90772" lon="6.17219">
        <ele>966</ele>
        <time>2011-04-10T09:18:39Z</time>
      </trkpt>
      <trkpt lat="45.90771" lon="6.17219">
        <ele>966</ele>
        <time>2011-04-10T09:18:40Z</time>
      </trkpt>
      <trkpt lat="45.90769" lon="6.1722">
        <ele>965</ele>
        <time>2011-04-10T09:18:41Z</time>
      </trkpt>
      <trkpt lat="45.90767" lon="6.1722">
        <ele>965</ele>
        <time>2011-04-10T09:18:42Z</time>
      </trkpt>
      <trkpt lat="45.90767" lon="6.17219">
        <ele>965</ele>
        <time>2011-04-10T09:18:43Z</time>
      </trkpt>
      <trkpt lat="45.90767" lon="6.17219">
        <ele>966</ele>
        <time>2011-04-10T09:18:44Z</time>
      </trkpt>
      <trkpt lat="45.90767" lon="6.17219">
        <ele>967</ele>
        <time>2011-04-10T09:18:45Z</time>
      </trkpt>
      <trkpt lat="45.90765" lon="6.17216">
        <ele>967</ele>
        <time>2011-04-10T09:18:46Z</time>
      </trkpt>
      <trkpt lat="45.90765" lon="6.17214">
        <ele>967</ele>
        <time>2011-04-10T09:18:47Z</time>
      </trkpt>
      <trkpt lat="45.90765" lon="6.17214">
        <ele>967</ele>
        <time>2011-04-10T09:18:48Z</time>
      </trkpt>
      <trkpt lat="45.90766" lon="6.17211">
        <ele>967</ele>
        <time>2011-04-10T09:18:49Z</time>
      </trkpt>
      <trkpt lat="45.90765" lon="6.17212">
        <ele>967</ele>
        <time>2011-04-10T09:18:50Z</time>
      </trkpt>
      <trkpt lat="45.90764" lon="6.17212">
        <ele>967</ele>
        <time>2011-04-10T09:18:51Z</time>
      </trkpt>
      <trkpt lat="45.90764" lon="6.17211">
        <ele>968</ele>
        <time>2011-04-10T09:18:52Z</time>
      </trkpt>
      <trkpt lat="45.90762" lon="6.1721">
        <ele>967</ele>
        <time>2011-04-10T09:18:53Z</time>
      </trkpt>
      <trkpt lat="45.90761" lon="6.1721">
        <ele>968</ele>
        <time>2011-04-10T09:18:54Z</time>
      </trkpt>
      <trkpt lat="45.9076" lon="6.17209">
        <ele>968</ele>
        <time>2011-04-10T09:18:55Z</time>
      </trkpt>
      <trkpt lat="45.9076" lon="6.17209">
        <ele>968</ele>
        <time>2011-04-10T09:18:56Z</time>
      </trkpt>
      <trkpt lat="45.90757" lon="6.1721">
        <ele>968</ele>
        <time>2011-04-10T09:18:57Z</time>
      </trkpt>
      <trkpt lat="45.90757" lon="6.1721">
        <ele>969</ele>
        <time>2011-04-10T09:18:58Z</time>
      </trkpt>
      <trkpt lat="45.90756" lon="6.17211">
        <ele>969</ele>
        <time>2011-04-10T09:18:59Z</time>
      </trkpt>
      <trkpt lat="45.90754" lon="6.17211">
        <ele>969</ele>
        <time>2011-04-10T09:19:00Z</time>
      </trkpt>
      <trkpt lat="45.90753" lon="6.17211">
        <ele>969</ele>
        <time>2011-04-10T09:19:01Z</time>
      </trkpt>
      <trkpt lat="45.90752" lon="6.17211">
        <ele>969</ele>
        <time>2011-04-10T09:19:03Z</time>
      </trkpt>
      <trkpt lat="45.90752" lon="6.17211">
        <ele>969</ele>
        <time>2011-04-10T09:19:04Z</time>
      </trkpt>
      <trkpt lat="45.90752" lon="6.17211">
        <ele>969</ele>
        <time>2011-04-10T09:19:05Z</time>
      </trkpt>
      <trkpt lat="45.90752" lon="6.1721">
        <ele>969</ele>
        <time>2011-04-10T09:19:06Z</time>
      </trkpt>
      <trkpt lat="45.90748" lon="6.17206">
        <ele>970</ele>
        <time>2011-04-10T09:19:08Z</time>
      </trkpt>
      <trkpt lat="45.90747" lon="6.17204">
        <ele>970</ele>
        <time>2011-04-10T09:19:09Z</time>
      </trkpt>
      <trkpt lat="45.90745" lon="6.17204">
        <ele>970</ele>
        <time>2011-04-10T09:19:10Z</time>
      </trkpt>
      <trkpt lat="45.90745" lon="6.17203">
        <ele>970</ele>
        <time>2011-04-10T09:19:11Z</time>
      </trkpt>
      <trkpt lat="45.90743" lon="6.17202">
        <ele>969</ele>
        <time>2011-04-10T09:19:12Z</time>
      </trkpt>
      <trkpt lat="45.90743" lon="6.17202">
        <ele>969</ele>
        <time>2011-04-10T09:19:13Z</time>
      </trkpt>
      <trkpt lat="45.90743" lon="6.17203">
        <ele>970</ele>
        <time>2011-04-10T09:19:14Z</time>
      </trkpt>
      <trkpt lat="45.90743" lon="6.17203">
        <ele>970</ele>
        <time>2011-04-10T09:19:15Z</time>
      </trkpt>
      <trkpt lat="45.90742" lon="6.17203">
        <ele>969</ele>
        <time>2011-04-10T09:19:16Z</time>
      </trkpt>
      <trkpt lat="45.90742" lon="6.17204">
        <ele>970</ele>
        <time>2011-04-10T09:19:17Z</time>
      </trkpt>
      <trkpt lat="45.90742" lon="6.17204">
        <ele>971</ele>
        <time>2011-04-10T09:19:18Z</time>
      </trkpt>
      <trkpt lat="45.90743" lon="6.17206">
        <ele>971</ele>
        <time>2011-04-10T09:19:19Z</time>
      </trkpt>
      <trkpt lat="45.90743" lon="6.17206">
        <ele>971</ele>
        <time>2011-04-10T09:19:20Z</time>
      </trkpt>
      <trkpt lat="45.90743" lon="6.17208">
        <ele>970</ele>
        <time>2011-04-10T09:19:21Z</time>
      </trkpt>
      <trkpt lat="45.90742" lon="6.17207">
        <ele>971</ele>
        <time>2011-04-10T09:19:22Z</time>
      </trkpt>
      <trkpt lat="45.90741" lon="6.17208">
        <ele>972</ele>
        <time>2011-04-10T09:19:23Z</time>
      </trkpt>
      <trkpt lat="45.90741" lon="6.17209">
        <ele>972</ele>
        <time>2011-04-10T09:19:24Z</time>
      </trkpt>
      <trkpt lat="45.90741" lon="6.17209">
        <ele>973</ele>
        <time>2011-04-10T09:19:25Z</time>
      </trkpt>
      <trkpt lat="45.9074" lon="6.1721">
        <ele>972</ele>
        <time>2011-04-10T09:19:26Z</time>
      </trkpt>
      <trkpt lat="45.9074" lon="6.17211">
        <ele>972</ele>
        <time>2011-04-10T09:19:27Z</time>
      </trkpt>
      <trkpt lat="45.9074" lon="6.17211">
        <ele>973</ele>
        <time>2011-04-10T09:19:28Z</time>
      </trkpt>
      <trkpt lat="45.90741" lon="6.17213">
        <ele>974</ele>
        <time>2011-04-10T09:19:29Z</time>
      </trkpt>
      <trkpt lat="45.90742" lon="6.17214">
        <ele>974</ele>
        <time>2011-04-10T09:19:30Z</time>
      </trkpt>
      <trkpt lat="45.90742" lon="6.17217">
        <ele>974</ele>
        <time>2011-04-10T09:19:31Z</time>
      </trkpt>
      <trkpt lat="45.90745" lon="6.17217">
        <ele>974</ele>
        <time>2011-04-10T09:19:32Z</time>
      </trkpt>
      <trkpt lat="45.90747" lon="6.17218">
        <ele>974</ele>
        <time>2011-04-10T09:19:34Z</time>
      </trkpt>
      <trkpt lat="45.90747" lon="6.17219">
        <ele>975</ele>
        <time>2011-04-10T09:19:35Z</time>
      </trkpt>
      <trkpt lat="45.90748" lon="6.17221">
        <ele>975</ele>
        <time>2011-04-10T09:19:36Z</time>
      </trkpt>
      <trkpt lat="45.90747" lon="6.17223">
        <ele>976</ele>
        <time>2011-04-10T09:19:37Z</time>
      </trkpt>
      <trkpt lat="45.90747" lon="6.17224">
        <ele>976</ele>
        <time>2011-04-10T09:19:38Z</time>
      </trkpt>
      <trkpt lat="45.90749" lon="6.17224">
        <ele>977</ele>
        <time>2011-04-10T09:19:39Z</time>
      </trkpt>
      <trkpt lat="45.9075" lon="6.17225">
        <ele>978</ele>
        <time>2011-04-10T09:19:40Z</time>
      </trkpt>
      <trkpt lat="45.90751" lon="6.17229">
        <ele>977</ele>
        <time>2011-04-10T09:19:59Z</time>
      </trkpt>
      <trkpt lat="45.90751" lon="6.17234">
        <ele>979</ele>
        <time>2011-04-10T09:20:00Z</time>
      </trkpt>
      <trkpt lat="45.90751" lon="6.17236">
        <ele>979</ele>
        <time>2011-04-10T09:20:01Z</time>
      </trkpt>
      <trkpt lat="45.90753" lon="6.1724">
        <ele>980</ele>
        <time>2011-04-10T09:20:03Z</time>
      </trkpt>
      <trkpt lat="45.90754" lon="6.17241">
        <ele>981</ele>
        <time>2011-04-10T09:20:04Z</time>
      </trkpt>
      <trkpt lat="45.90754" lon="6.17242">
        <ele>981</ele>
        <time>2011-04-10T09:20:05Z</time>
      </trkpt>
      <trkpt lat="45.90755" lon="6.17244">
        <ele>982</ele>
        <time>2011-04-10T09:20:06Z</time>
      </trkpt>
      <trkpt lat="45.90756" lon="6.17244">
        <ele>983</ele>
        <time>2011-04-10T09:20:07Z</time>
      </trkpt>
      <trkpt lat="45.90757" lon="6.17246">
        <ele>983</ele>
        <time>2011-04-10T09:20:08Z</time>
      </trkpt>
      <trkpt lat="45.90756" lon="6.17249">
        <ele>983</ele>
        <time>2011-04-10T09:20:09Z</time>
      </trkpt>
      <trkpt lat="45.90757" lon="6.17249">
        <ele>984</ele>
        <time>2011-04-10T09:20:10Z</time>
      </trkpt>
      <trkpt lat="45.90758" lon="6.17251">
        <ele>985</ele>
        <time>2011-04-10T09:20:11Z</time>
      </trkpt>
      <trkpt lat="45.9076" lon="6.17252">
        <ele>985</ele>
        <time>2011-04-10T09:20:12Z</time>
      </trkpt>
      <trkpt lat="45.90762" lon="6.17255">
        <ele>985</ele>
        <time>2011-04-10T09:20:13Z</time>
      </trkpt>
      <trkpt lat="45.90763" lon="6.17256">
        <ele>985</ele>
        <time>2011-04-10T09:20:14Z</time>
      </trkpt>
      <trkpt lat="45.90763" lon="6.17258">
        <ele>985</ele>
        <time>2011-04-10T09:20:15Z</time>
      </trkpt>
      <trkpt lat="45.90763" lon="6.17259">
        <ele>985</ele>
        <time>2011-04-10T09:20:16Z</time>
      </trkpt>
      <trkpt lat="45.90764" lon="6.17259">
        <ele>985</ele>
        <time>2011-04-10T09:20:17Z</time>
      </trkpt>
      <trkpt lat="45.90765" lon="6.17261">
        <ele>985</ele>
        <time>2011-04-10T09:20:18Z</time>
      </trkpt>
      <trkpt lat="45.90767" lon="6.17262">
        <ele>985</ele>
        <time>2011-04-10T09:20:19Z</time>
      </trkpt>
      <trkpt lat="45.90768" lon="6.17265">
        <ele>986</ele>
        <time>2011-04-10T09:20:20Z</time>
      </trkpt>
      <trkpt lat="45.90768" lon="6.17268">
        <ele>986</ele>
        <time>2011-04-10T09:20:21Z</time>
      </trkpt>
      <trkpt lat="45.90769" lon="6.17269">
        <ele>985</ele>
        <time>2011-04-10T09:20:22Z</time>
      </trkpt>
      <trkpt lat="45.90768" lon="6.1727">
        <ele>986</ele>
        <time>2011-04-10T09:20:23Z</time>
      </trkpt>
      <trkpt lat="45.90769" lon="6.17271">
        <ele>985</ele>
        <time>2011-04-10T09:20:24Z</time>
      </trkpt>
      <trkpt lat="45.90771" lon="6.17273">
        <ele>985</ele>
        <time>2011-04-10T09:20:25Z</time>
      </trkpt>
      <trkpt lat="45.90771" lon="6.17273">
        <ele>985</ele>
        <time>2011-04-10T09:20:26Z</time>
      </trkpt>
      <trkpt lat="45.9077" lon="6.17275">
        <ele>985</ele>
        <time>2011-04-10T09:20:27Z</time>
      </trkpt>
      <trkpt lat="45.9077" lon="6.17277">
        <ele>984</ele>
        <time>2011-04-10T09:20:28Z</time>
      </trkpt>
      <trkpt lat="45.90769" lon="6.17278">
        <ele>984</ele>
        <time>2011-04-10T09:20:29Z</time>
      </trkpt>
      <trkpt lat="45.9077" lon="6.17281">
        <ele>985</ele>
        <time>2011-04-10T09:20:30Z</time>
      </trkpt>
      <trkpt lat="45.90772" lon="6.17281">
        <ele>986</ele>
        <time>2011-04-10T09:20:31Z</time>
      </trkpt>
      <trkpt lat="45.90774" lon="6.17281">
        <ele>986</ele>
        <time>2011-04-10T09:20:32Z</time>
      </trkpt>
      <trkpt lat="45.90772" lon="6.17281">
        <ele>986</ele>
        <time>2011-04-10T09:20:33Z</time>
      </trkpt>
      <trkpt lat="45.90771" lon="6.17283">
        <ele>986</ele>
        <time>2011-04-10T09:20:34Z</time>
      </trkpt>
      <trkpt lat="45.90772" lon="6.17283">
        <ele>986</ele>
        <time>2011-04-10T09:20:35Z</time>
      </trkpt>
      <trkpt lat="45.90773" lon="6.17282">
        <ele>986</ele>
        <time>2011-04-10T09:20:36Z</time>
      </trkpt>
      <trkpt lat="45.90774" lon="6.17283">
        <ele>987</ele>
        <time>2011-04-10T09:20:37Z</time>
      </trkpt>
      <trkpt lat="45.90774" lon="6.17286">
        <ele>986</ele>
        <time>2011-04-10T09:20:40Z</time>
      </trkpt>
      <trkpt lat="45.90775" lon="6.17288">
        <ele>986</ele>
        <time>2011-04-10T09:20:41Z</time>
      </trkpt>
      <trkpt lat="45.90775" lon="6.1729">
        <ele>986</ele>
        <time>2011-04-10T09:20:42Z</time>
      </trkpt>
      <trkpt lat="45.90776" lon="6.17293">
        <ele>986</ele>
        <time>2011-04-10T09:20:43Z</time>
      </trkpt>
      <trkpt lat="45.90776" lon="6.17297">
        <ele>988</ele>
        <time>2011-04-10T09:20:44Z</time>
      </trkpt>
      <trkpt lat="45.90776" lon="6.173">
        <ele>987</ele>
        <time>2011-04-10T09:20:45Z</time>
      </trkpt>
      <trkpt lat="45.90776" lon="6.17301">
        <ele>987</ele>
        <time>2011-04-10T09:20:46Z</time>
      </trkpt>
      <trkpt lat="45.90778" lon="6.17305">
        <ele>989</ele>
        <time>2011-04-10T09:21:09Z</time>
      </trkpt>
      <trkpt lat="45.9078" lon="6.17309">
        <ele>988</ele>
        <time>2011-04-10T09:21:10Z</time>
      </trkpt>
      <trkpt lat="45.90781" lon="6.1731">
        <ele>988</ele>
        <time>2011-04-10T09:21:11Z</time>
      </trkpt>
      <trkpt lat="45.90782" lon="6.17312">
        <ele>988</ele>
        <time>2011-04-10T09:21:12Z</time>
      </trkpt>
      <trkpt lat="45.90784" lon="6.17315">
        <ele>988</ele>
        <time>2011-04-10T09:21:13Z</time>
      </trkpt>
      <trkpt lat="45.90783" lon="6.17319">
        <ele>988</ele>
        <time>2011-04-10T09:21:15Z</time>
      </trkpt>
      <trkpt lat="45.90786" lon="6.17319">
        <ele>989</ele>
        <time>2011-04-10T09:21:16Z</time>
      </trkpt>
      <trkpt lat="45.90785" lon="6.17319">
        <ele>989</ele>
        <time>2011-04-10T09:21:17Z</time>
      </trkpt>
      <trkpt lat="45.90786" lon="6.17319">
        <ele>989</ele>
        <time>2011-04-10T09:21:18Z</time>
      </trkpt>
      <trkpt lat="45.90787" lon="6.1732">
        <ele>991</ele>
        <time>2011-04-10T09:21:19Z</time>
      </trkpt>
      <trkpt lat="45.90784" lon="6.1732">
        <ele>992</ele>
        <time>2011-04-10T09:21:20Z</time>
      </trkpt>
      <trkpt lat="45.90785" lon="6.17322">
        <ele>991</ele>
        <time>2011-04-10T09:21:21Z</time>
      </trkpt>
      <trkpt lat="45.90782" lon="6.17323">
        <ele>990</ele>
        <time>2011-04-10T09:21:31Z</time>
      </trkpt>
      <trkpt lat="45.90777" lon="6.17324">
        <ele>989</ele>
        <time>2011-04-10T09:21:32Z</time>
      </trkpt>
      <trkpt lat="45.90776" lon="6.17324">
        <ele>990</ele>
        <time>2011-04-10T09:21:33Z</time>
      </trkpt>
      <trkpt lat="45.90777" lon="6.17322">
        <ele>990</ele>
        <time>2011-04-10T09:21:34Z</time>
      </trkpt>
      <trkpt lat="45.90776" lon="6.17322">
        <ele>991</ele>
        <time>2011-04-10T09:21:35Z</time>
      </trkpt>
      <trkpt lat="45.90776" lon="6.17322">
        <ele>991</ele>
        <time>2011-04-10T09:21:36Z</time>
      </trkpt>
      <trkpt lat="45.90777" lon="6.17324">
        <ele>992</ele>
        <time>2011-04-10T09:21:49Z</time>
      </trkpt>
      <trkpt lat="45.90775" lon="6.17326">
        <ele>992</ele>
        <time>2011-04-10T09:21:50Z</time>
      </trkpt>
      <trkpt lat="45.90774" lon="6.17326">
        <ele>992</ele>
        <time>2011-04-10T09:21:51Z</time>
      </trkpt>
      <trkpt lat="45.90773" lon="6.17327">
        <ele>992</ele>
        <time>2011-04-10T09:21:52Z</time>
      </trkpt>
      <trkpt lat="45.90774" lon="6.17328">
        <ele>993</ele>
        <time>2011-04-10T09:21:53Z</time>
      </trkpt>
      <trkpt lat="45.90774" lon="6.17331">
        <ele>993</ele>
        <time>2011-04-10T09:21:54Z</time>
      </trkpt>
      <trkpt lat="45.90774" lon="6.17331">
        <ele>994</ele>
        <time>2011-04-10T09:21:55Z</time>
      </trkpt>
      <trkpt lat="45.90774" lon="6.17332">
        <ele>993</ele>
        <time>2011-04-10T09:21:56Z</time>
      </trkpt>
      <trkpt lat="45.90775" lon="6.17332">
        <ele>992</ele>
        <time>2011-04-10T09:21:57Z</time>
      </trkpt>
      <trkpt lat="45.90778" lon="6.17336">
        <ele>993</ele>
        <time>2011-04-10T09:21:58Z</time>
      </trkpt>
      <trkpt lat="45.90778" lon="6.17346">
        <ele>991</ele>
        <time>2011-04-10T09:21:59Z</time>
      </trkpt>
      <trkpt lat="45.90781" lon="6.17347">
        <ele>992</ele>
        <time>2011-04-10T09:22:00Z</time>
      </trkpt>
      <trkpt lat="45.90779" lon="6.17352">
        <ele>993</ele>
        <time>2011-04-10T09:22:01Z</time>
      </trkpt>
      <trkpt lat="45.90778" lon="6.17351">
        <ele>993</ele>
        <time>2011-04-10T09:22:02Z</time>
      </trkpt>
      <trkpt lat="45.90777" lon="6.1736">
        <ele>990</ele>
        <time>2011-04-10T09:22:03Z</time>
      </trkpt>
      <trkpt lat="45.90778" lon="6.17362">
        <ele>990</ele>
        <time>2011-04-10T09:22:04Z</time>
      </trkpt>
      <trkpt lat="45.90779" lon="6.17366">
        <ele>991</ele>
        <time>2011-04-10T09:22:05Z</time>
      </trkpt>
      <trkpt lat="45.90779" lon="6.17364">
        <ele>993</ele>
        <time>2011-04-10T09:22:06Z</time>
      </trkpt>
      <trkpt lat="45.90777" lon="6.17364">
        <ele>994</ele>
        <time>2011-04-10T09:22:07Z</time>
      </trkpt>
      <trkpt lat="45.90775" lon="6.17366">
        <ele>993</ele>
        <time>2011-04-10T09:22:08Z</time>
      </trkpt>
      <trkpt lat="45.90774" lon="6.17367">
        <ele>993</ele>
        <time>2011-04-10T09:22:09Z</time>
      </trkpt>
      <trkpt lat="45.90771" lon="6.1737">
        <ele>992</ele>
        <time>2011-04-10T09:22:10Z</time>
      </trkpt>
      <trkpt lat="45.90771" lon="6.17369">
        <ele>993</ele>
        <time>2011-04-10T09:22:11Z</time>
      </trkpt>
      <trkpt lat="45.9077" lon="6.1737">
        <ele>993</ele>
        <time>2011-04-10T09:22:12Z</time>
      </trkpt>
      <trkpt lat="45.90772" lon="6.17366">
        <ele>993</ele>
        <time>2011-04-10T09:22:13Z</time>
      </trkpt>
      <trkpt lat="45.90776" lon="6.17365">
        <ele>993</ele>
        <time>2011-04-10T09:22:14Z</time>
      </trkpt>
      <trkpt lat="45.90772" lon="6.17368">
        <ele>992</ele>
        <time>2011-04-10T09:22:15Z</time>
      </trkpt>
      <trkpt lat="45.90774" lon="6.17369">
        <ele>991</ele>
        <time>2011-04-10T09:22:16Z</time>
      </trkpt>
      <trkpt lat="45.90772" lon="6.17369">
        <ele>992</ele>
        <time>2011-04-10T09:22:17Z</time>
      </trkpt>
      <trkpt lat="45.90772" lon="6.17368">
        <ele>993</ele>
        <time>2011-04-10T09:22:18Z</time>
      </trkpt>
      <trkpt lat="45.90775" lon="6.17368">
        <ele>993</ele>
        <time>2011-04-10T09:22:19Z</time>
      </trkpt>
      <trkpt lat="45.90775" lon="6.1737">
        <ele>993</ele>
        <time>2011-04-10T09:22:20Z</time>
      </trkpt>
      <trkpt lat="45.90774" lon="6.17371">
        <ele>994</ele>
        <time>2011-04-10T09:22:22Z</time>
      </trkpt>
      <trkpt lat="45.90775" lon="6.17373">
        <ele>995</ele>
        <time>2011-04-10T09:22:23Z</time>
      </trkpt>
      <trkpt lat="45.90776" lon="6.17375">
        <ele>996</ele>
        <time>2011-04-10T09:22:24Z</time>
      </trkpt>
      <trkpt lat="45.90776" lon="6.17372">
        <ele>1000</ele>
        <time>2011-04-10T09:22:40Z</time>
      </trkpt>
      <trkpt lat="45.90778" lon="6.17371">
        <ele>1000</ele>
        <time>2011-04-10T09:22:41Z</time>
      </trkpt>
      <trkpt lat="45.90777" lon="6.17372">
        <ele>1002</ele>
        <time>2011-04-10T09:22:42Z</time>
      </trkpt>
      <trkpt lat="45.90774" lon="6.17373">
        <ele>1002</ele>
        <time>2011-04-10T09:22:43Z</time>
      </trkpt>
      <trkpt lat="45.90773" lon="6.17375">
        <ele>1003</ele>
        <time>2011-04-10T09:22:44Z</time>
      </trkpt>
      <trkpt lat="45.90774" lon="6.17375">
        <ele>1004</ele>
        <time>2011-04-10T09:23:37Z</time>
      </trkpt>
      <trkpt lat="45.90773" lon="6.17372">
        <ele>1006</ele>
        <time>2011-04-10T09:23:38Z</time>
      </trkpt>
      <trkpt lat="45.90771" lon="6.17373">
        <ele>1007</ele>
        <time>2011-04-10T09:23:39Z</time>
      </trkpt>
      <trkpt lat="45.90771" lon="6.1737">
        <ele>1008</ele>
        <time>2011-04-10T09:23:40Z</time>
      </trkpt>
      <trkpt lat="45.9077" lon="6.17371">
        <ele>1008</ele>
        <time>2011-04-10T09:23:41Z</time>
      </trkpt>
      <trkpt lat="45.9077" lon="6.1737">
        <ele>1007</ele>
        <time>2011-04-10T09:23:42Z</time>
      </trkpt>
      <trkpt lat="45.9077" lon="6.17368">
        <ele>1007</ele>
        <time>2011-04-10T09:23:43Z</time>
      </trkpt>
      <trkpt lat="45.9077" lon="6.17367">
        <ele>1008</ele>
        <time>2011-04-10T09:23:44Z</time>
      </trkpt>
      <trkpt lat="45.9077" lon="6.17366">
        <ele>1008</ele>
        <time>2011-04-10T09:23:45Z</time>
      </trkpt>
      <trkpt lat="45.9077" lon="6.17365">
        <ele>1008</ele>
        <time>2011-04-10T09:23:46Z</time>
      </trkpt>
      <trkpt lat="45.90768" lon="6.17365">
        <ele>1008</ele>
        <time>2011-04-10T09:23:47Z</time>
      </trkpt>
      <trkpt lat="45.90766" lon="6.17363">
        <ele>1008</ele>
        <time>2011-04-10T09:23:48Z</time>
      </trkpt>
      <trkpt lat="45.90767" lon="6.1736">
        <ele>1008</ele>
        <time>2011-04-10T09:23:49Z</time>
      </trkpt>
      <trkpt lat="45.90766" lon="6.17359">
        <ele>1007</ele>
        <time>2011-04-10T09:23:50Z</time>
      </trkpt>
      <trkpt lat="45.90766" lon="6.17357">
        <ele>1006</ele>
        <time>2011-04-10T09:23:51Z</time>
      </trkpt>
      <trkpt lat="45.90766" lon="6.17357">
        <ele>1007</ele>
        <time>2011-04-10T09:23:52Z</time>
      </trkpt>
      <trkpt lat="45.90765" lon="6.17357">
        <ele>1007</ele>
        <time>2011-04-10T09:23:53Z</time>
      </trkpt>
      <trkpt lat="45.90765" lon="6.17355">
        <ele>1007</ele>
        <time>2011-04-10T09:23:54Z</time>
      </trkpt>
      <trkpt lat="45.90764" lon="6.17354">
        <ele>1008</ele>
        <time>2011-04-10T09:23:55Z</time>
      </trkpt>
      <trkpt lat="45.90763" lon="6.17353">
        <ele>1008</ele>
        <time>2011-04-10T09:23:56Z</time>
      </trkpt>
      <trkpt lat="45.90761" lon="6.17353">
        <ele>1008</ele>
        <time>2011-04-10T09:23:57Z</time>
      </trkpt>
      <trkpt lat="45.9076" lon="6.17353">
        <ele>1008</ele>
        <time>2011-04-10T09:23:58Z</time>
      </trkpt>
      <trkpt lat="45.9076" lon="6.17353">
        <ele>1008</ele>
        <time>2011-04-10T09:23:59Z</time>
      </trkpt>
      <trkpt lat="45.90758" lon="6.17354">
        <ele>1008</ele>
        <time>2011-04-10T09:24:00Z</time>
      </trkpt>
      <trkpt lat="45.90757" lon="6.17354">
        <ele>1009</ele>
        <time>2011-04-10T09:24:02Z</time>
      </trkpt>
      <trkpt lat="45.90757" lon="6.17357">
        <ele>1009</ele>
        <time>2011-04-10T09:24:03Z</time>
      </trkpt>
      <trkpt lat="45.90756" lon="6.17359">
        <ele>1009</ele>
        <time>2011-04-10T09:24:04Z</time>
      </trkpt>
      <trkpt lat="45.90755" lon="6.1736">
        <ele>1009</ele>
        <time>2011-04-10T09:24:05Z</time>
      </trkpt>
      <trkpt lat="45.90755" lon="6.17361">
        <ele>1009</ele>
        <time>2011-04-10T09:24:06Z</time>
      </trkpt>
      <trkpt lat="45.90754" lon="6.17362">
        <ele>1009</ele>
        <time>2011-04-10T09:24:07Z</time>
      </trkpt>
      <trkpt lat="45.90753" lon="6.17362">
        <ele>1010</ele>
        <time>2011-04-10T09:24:08Z</time>
      </trkpt>
      <trkpt lat="45.90753" lon="6.17364">
        <ele>1009</ele>
        <time>2011-04-10T09:24:09Z</time>
      </trkpt>
      <trkpt lat="45.90753" lon="6.17365">
        <ele>1009</ele>
        <time>2011-04-10T09:24:10Z</time>
      </trkpt>
      <trkpt lat="45.90753" lon="6.17366">
        <ele>1009</ele>
        <time>2011-04-10T09:24:11Z</time>
      </trkpt>
      <trkpt lat="45.90752" lon="6.17367">
        <ele>1009</ele>
        <time>2011-04-10T09:24:12Z</time>
      </trkpt>
      <trkpt lat="45.90753" lon="6.17368">
        <ele>1009</ele>
        <time>2011-04-10T09:24:13Z</time>
      </trkpt>
      <trkpt lat="45.90753" lon="6.1737">
        <ele>1009</ele>
        <time>2011-04-10T09:24:14Z</time>
      </trkpt>
      <trkpt lat="45.90752" lon="6.17371">
        <ele>1009</ele>
        <time>2011-04-10T09:24:15Z</time>
      </trkpt>
      <trkpt lat="45.90752" lon="6.17372">
        <ele>1010</ele>
        <time>2011-04-10T09:24:16Z</time>
      </trkpt>
      <trkpt lat="45.90754" lon="6.17371">
        <ele>1010</ele>
        <time>2011-04-10T09:24:17Z</time>
      </trkpt>
      <trkpt lat="45.90754" lon="6.17372">
        <ele>1011</ele>
        <time>2011-04-10T09:24:18Z</time>
      </trkpt>
      <trkpt lat="45.90754" lon="6.17373">
        <ele>1011</ele>
        <time>2011-04-10T09:24:19Z</time>
      </trkpt>
      <trkpt lat="45.90753" lon="6.17376">
        <ele>1012</ele>
        <time>2011-04-10T09:24:21Z</time>
      </trkpt>
      <trkpt lat="45.90753" lon="6.17379">
        <ele>1013</ele>
        <time>2011-04-10T09:24:22Z</time>
      </trkpt>
      <trkpt lat="45.90753" lon="6.17382">
        <ele>1014</ele>
        <time>2011-04-10T09:24:23Z</time>
      </trkpt>
      <trkpt lat="45.90753" lon="6.17383">
        <ele>1014</ele>
        <time>2011-04-10T09:24:24Z</time>
      </trkpt>
      <trkpt lat="45.90752" lon="6.17386">
        <ele>1014</ele>
        <time>2011-04-10T09:24:25Z</time>
      </trkpt>
      <trkpt lat="45.9075" lon="6.17388">
        <ele>1014</ele>
        <time>2011-04-10T09:24:26Z</time>
      </trkpt>
      <trkpt lat="45.9075" lon="6.1739">
        <ele>1015</ele>
        <time>2011-04-10T09:24:27Z</time>
      </trkpt>
      <trkpt lat="45.9075" lon="6.17391">
        <ele>1016</ele>
        <time>2011-04-10T09:24:28Z</time>
      </trkpt>
      <trkpt lat="45.90751" lon="6.17391">
        <ele>1016</ele>
        <time>2011-04-10T09:24:29Z</time>
      </trkpt>
      <trkpt lat="45.90751" lon="6.17393">
        <ele>1016</ele>
        <time>2011-04-10T09:24:30Z</time>
      </trkpt>
      <trkpt lat="45.9075" lon="6.17395">
        <ele>1016</ele>
        <time>2011-04-10T09:24:31Z</time>
      </trkpt>
      <trkpt lat="45.90749" lon="6.17396">
        <ele>1017</ele>
        <time>2011-04-10T09:24:32Z</time>
      </trkpt>
      <trkpt lat="45.90748" lon="6.17397">
        <ele>1017</ele>
        <time>2011-04-10T09:24:33Z</time>
      </trkpt>
      <trkpt lat="45.90747" lon="6.17398">
        <ele>1018</ele>
        <time>2011-04-10T09:24:34Z</time>
      </trkpt>
      <trkpt lat="45.9075" lon="6.17397">
        <ele>1019</ele>
        <time>2011-04-10T09:24:35Z</time>
      </trkpt>
      <trkpt lat="45.90749" lon="6.17398">
        <ele>1019</ele>
        <time>2011-04-10T09:24:36Z</time>
      </trkpt>
      <trkpt lat="45.90749" lon="6.17398">
        <ele>1019</ele>
        <time>2011-04-10T09:24:37Z</time>
      </trkpt>
      <trkpt lat="45.90751" lon="6.17397">
        <ele>1019</ele>
        <time>2011-04-10T09:24:38Z</time>
      </trkpt>
      <trkpt lat="45.90751" lon="6.17397">
        <ele>1019</ele>
        <time>2011-04-10T09:24:39Z</time>
      </trkpt>
      <trkpt lat="45.90749" lon="6.17397">
        <ele>1019</ele>
        <time>2011-04-10T09:24:40Z</time>
      </trkpt>
      <trkpt lat="45.9075" lon="6.17397">
        <ele>1019</ele>
        <time>2011-04-10T09:24:41Z</time>
      </trkpt>
      <trkpt lat="45.9075" lon="6.17396">
        <ele>1019</ele>
        <time>2011-04-10T09:24:42Z</time>
      </trkpt>
      <trkpt lat="45.9075" lon="6.17396">
        <ele>1019</ele>
        <time>2011-04-10T09:24:43Z</time>
      </trkpt>
      <trkpt lat="45.90749" lon="6.17395">
        <ele>1020</ele>
        <time>2011-04-10T09:24:44Z</time>
      </trkpt>
      <trkpt lat="45.90748" lon="6.17395">
        <ele>1021</ele>
        <time>2011-04-10T09:24:45Z</time>
      </trkpt>
      <trkpt lat="45.90748" lon="6.17395">
        <ele>1021</ele>
        <time>2011-04-10T09:24:46Z</time>
      </trkpt>
      <trkpt lat="45.90748" lon="6.17395">
        <ele>1021</ele>
        <time>2011-04-10T09:24:49Z</time>
      </trkpt>
      <trkpt lat="45.90746" lon="6.17395">
        <ele>1022</ele>
        <time>2011-04-10T09:24:50Z</time>
      </trkpt>
      <trkpt lat="45.90746" lon="6.17394">
        <ele>1023</ele>
        <time>2011-04-10T09:24:51Z</time>
      </trkpt>
      <trkpt lat="45.90745" lon="6.17394">
        <ele>1023</ele>
        <time>2011-04-10T09:24:52Z</time>
      </trkpt>
      <trkpt lat="45.90746" lon="6.17391">
        <ele>1024</ele>
        <time>2011-04-10T09:24:53Z</time>
      </trkpt>
      <trkpt lat="45.90745" lon="6.1739">
        <ele>1024</ele>
        <time>2011-04-10T09:24:54Z</time>
      </trkpt>
      <trkpt lat="45.90746" lon="6.17389">
        <ele>1025</ele>
        <time>2011-04-10T09:24:55Z</time>
      </trkpt>
      <trkpt lat="45.90744" lon="6.1739">
        <ele>1025</ele>
        <time>2011-04-10T09:24:56Z</time>
      </trkpt>
      <trkpt lat="45.90742" lon="6.17389">
        <ele>1025</ele>
        <time>2011-04-10T09:24:57Z</time>
      </trkpt>
      <trkpt lat="45.90742" lon="6.17389">
        <ele>1025</ele>
        <time>2011-04-10T09:24:59Z</time>
      </trkpt>
      <trkpt lat="45.90742" lon="6.17388">
        <ele>1025</ele>
        <time>2011-04-10T09:25:00Z</time>
      </trkpt>
      <trkpt lat="45.90743" lon="6.17387">
        <ele>1025</ele>
        <time>2011-04-10T09:25:01Z</time>
      </trkpt>
      <trkpt lat="45.90741" lon="6.17388">
        <ele>1025</ele>
        <time>2011-04-10T09:25:02Z</time>
      </trkpt>
      <trkpt lat="45.90741" lon="6.17387">
        <ele>1025</ele>
        <time>2011-04-10T09:25:03Z</time>
      </trkpt>
      <trkpt lat="45.90739" lon="6.17386">
        <ele>1024</ele>
        <time>2011-04-10T09:25:04Z</time>
      </trkpt>
      <trkpt lat="45.90738" lon="6.17384">
        <ele>1024</ele>
        <time>2011-04-10T09:25:05Z</time>
      </trkpt>
      <trkpt lat="45.90738" lon="6.17383">
        <ele>1024</ele>
        <time>2011-04-10T09:25:06Z</time>
      </trkpt>
      <trkpt lat="45.90738" lon="6.17381">
        <ele>1024</ele>
        <time>2011-04-10T09:25:07Z</time>
      </trkpt>
      <trkpt lat="45.90737" lon="6.17377">
        <ele>1023</ele>
        <time>2011-04-10T09:25:08Z</time>
      </trkpt>
      <trkpt lat="45.90735" lon="6.17378">
        <ele>1023</ele>
        <time>2011-04-10T09:25:09Z</time>
      </trkpt>
      <trkpt lat="45.90735" lon="6.17377">
        <ele>1023</ele>
        <time>2011-04-10T09:25:10Z</time>
      </trkpt>
      <trkpt lat="45.90733" lon="6.17376">
        <ele>1023</ele>
        <time>2011-04-10T09:25:11Z</time>
      </trkpt>
      <trkpt lat="45.90732" lon="6.17375">
        <ele>1023</ele>
        <time>2011-04-10T09:25:12Z</time>
      </trkpt>
      <trkpt lat="45.90733" lon="6.17374">
        <ele>1023</ele>
        <time>2011-04-10T09:25:13Z</time>
      </trkpt>
      <trkpt lat="45.90732" lon="6.17373">
        <ele>1023</ele>
        <time>2011-04-10T09:25:14Z</time>
      </trkpt>
      <trkpt lat="45.90731" lon="6.17373">
        <ele>1024</ele>
        <time>2011-04-10T09:25:15Z</time>
      </trkpt>
      <trkpt lat="45.90731" lon="6.17373">
        <ele>1024</ele>
        <time>2011-04-10T09:25:16Z</time>
      </trkpt>
      <trkpt lat="45.9073" lon="6.17373">
        <ele>1025</ele>
        <time>2011-04-10T09:25:17Z</time>
      </trkpt>
      <trkpt lat="45.9073" lon="6.17372">
        <ele>1025</ele>
        <time>2011-04-10T09:25:18Z</time>
      </trkpt>
      <trkpt lat="45.90729" lon="6.17371">
        <ele>1025</ele>
        <time>2011-04-10T09:25:19Z</time>
      </trkpt>
      <trkpt lat="45.90728" lon="6.17371">
        <ele>1025</ele>
        <time>2011-04-10T09:25:20Z</time>
      </trkpt>
      <trkpt lat="45.90728" lon="6.17369">
        <ele>1026</ele>
        <time>2011-04-10T09:25:21Z</time>
      </trkpt>
      <trkpt lat="45.90728" lon="6.17368">
        <ele>1026</ele>
        <time>2011-04-10T09:25:22Z</time>
      </trkpt>
      <trkpt lat="45.90727" lon="6.17367">
        <ele>1025</ele>
        <time>2011-04-10T09:25:23Z</time>
      </trkpt>
      <trkpt lat="45.90726" lon="6.17368">
        <ele>1025</ele>
        <time>2011-04-10T09:25:24Z</time>
      </trkpt>
      <trkpt lat="45.90726" lon="6.17367">
        <ele>1025</ele>
        <time>2011-04-10T09:25:25Z</time>
      </trkpt>
      <trkpt lat="45.90727" lon="6.17366">
        <ele>1025</ele>
        <time>2011-04-10T09:25:26Z</time>
      </trkpt>
      <trkpt lat="45.90726" lon="6.17364">
        <ele>1025</ele>
        <time>2011-04-10T09:25:27Z</time>
      </trkpt>
      <trkpt lat="45.90726" lon="6.17364">
        <ele>1025</ele>
        <time>2011-04-10T09:25:28Z</time>
      </trkpt>
      <trkpt lat="45.90726" lon="6.17361">
        <ele>1026</ele>
        <time>2011-04-10T09:25:31Z</time>
      </trkpt>
      <trkpt lat="45.90726" lon="6.17361">
        <ele>1025</ele>
        <time>2011-04-10T09:25:32Z</time>
      </trkpt>
      <trkpt lat="45.90726" lon="6.17359">
        <ele>1025</ele>
        <time>2011-04-10T09:25:33Z</time>
      </trkpt>
      <trkpt lat="45.90725" lon="6.17359">
        <ele>1025</ele>
        <time>2011-04-10T09:25:34Z</time>
      </trkpt>
      <trkpt lat="45.90724" lon="6.17358">
        <ele>1025</ele>
        <time>2011-04-10T09:25:35Z</time>
      </trkpt>
      <trkpt lat="45.90721" lon="6.17357">
        <ele>1026</ele>
        <time>2011-04-10T09:25:36Z</time>
      </trkpt>
      <trkpt lat="45.90721" lon="6.17356">
        <ele>1026</ele>
        <time>2011-04-10T09:25:37Z</time>
      </trkpt>
      <trkpt lat="45.9072" lon="6.17356">
        <ele>1027</ele>
        <time>2011-04-10T09:25:38Z</time>
      </trkpt>
      <trkpt lat="45.90719" lon="6.17354">
        <ele>1026</ele>
        <time>2011-04-10T09:25:39Z</time>
      </trkpt>
      <trkpt lat="45.90718" lon="6.17353">
        <ele>1027</ele>
        <time>2011-04-10T09:25:40Z</time>
      </trkpt>
      <trkpt lat="45.90718" lon="6.17354">
        <ele>1028</ele>
        <time>2011-04-10T09:25:41Z</time>
      </trkpt>
      <trkpt lat="45.90717" lon="6.17353">
        <ele>1029</ele>
        <time>2011-04-10T09:25:42Z</time>
      </trkpt>
      <trkpt lat="45.90716" lon="6.17352">
        <ele>1028</ele>
        <time>2011-04-10T09:25:43Z</time>
      </trkpt>
      <trkpt lat="45.90713" lon="6.17352">
        <ele>1028</ele>
        <time>2011-04-10T09:25:44Z</time>
      </trkpt>
      <trkpt lat="45.90712" lon="6.17351">
        <ele>1028</ele>
        <time>2011-04-10T09:25:45Z</time>
      </trkpt>
      <trkpt lat="45.90711" lon="6.1735">
        <ele>1028</ele>
        <time>2011-04-10T09:25:46Z</time>
      </trkpt>
      <trkpt lat="45.90711" lon="6.17347">
        <ele>1028</ele>
        <time>2011-04-10T09:25:47Z</time>
      </trkpt>
      <trkpt lat="45.90712" lon="6.17346">
        <ele>1028</ele>
        <time>2011-04-10T09:25:48Z</time>
      </trkpt>
      <trkpt lat="45.90714" lon="6.17344">
        <ele>1028</ele>
        <time>2011-04-10T09:25:49Z</time>
      </trkpt>
      <trkpt lat="45.90715" lon="6.17343">
        <ele>1028</ele>
        <time>2011-04-10T09:25:50Z</time>
      </trkpt>
      <trkpt lat="45.90715" lon="6.17342">
        <ele>1028</ele>
        <time>2011-04-10T09:25:51Z</time>
      </trkpt>
      <trkpt lat="45.90715" lon="6.17342">
        <ele>1028</ele>
        <time>2011-04-10T09:25:52Z</time>
      </trkpt>
      <trkpt lat="45.90714" lon="6.17342">
        <ele>1028</ele>
        <time>2011-04-10T09:25:53Z</time>
      </trkpt>
      <trkpt lat="45.90714" lon="6.17342">
        <ele>1028</ele>
        <time>2011-04-10T09:25:54Z</time>
      </trkpt>
      <trkpt lat="45.90714" lon="6.1734">
        <ele>1028</ele>
        <time>2011-04-10T09:25:55Z</time>
      </trkpt>
      <trkpt lat="45.90715" lon="6.17339">
        <ele>1028</ele>
        <time>2011-04-10T09:25:56Z</time>
      </trkpt>
      <trkpt lat="45.90715" lon="6.17338">
        <ele>1029</ele>
        <time>2011-04-10T09:25:57Z</time>
      </trkpt>
      <trkpt lat="45.90713" lon="6.17337">
        <ele>1028</ele>
        <time>2011-04-10T09:25:58Z</time>
      </trkpt>
      <trkpt lat="45.90713" lon="6.17337">
        <ele>1028</ele>
        <time>2011-04-10T09:25:59Z</time>
      </trkpt>
      <trkpt lat="45.90714" lon="6.17337">
        <ele>1028</ele>
        <time>2011-04-10T09:26:00Z</time>
      </trkpt>
      <trkpt lat="45.90712" lon="6.17333">
        <ele>1028</ele>
        <time>2011-04-10T09:26:02Z</time>
      </trkpt>
      <trkpt lat="45.90705" lon="6.1733">
        <ele>1028</ele>
        <time>2011-04-10T09:26:25Z</time>
      </trkpt>
      <trkpt lat="45.90703" lon="6.17328">
        <ele>1029</ele>
        <time>2011-04-10T09:26:26Z</time>
      </trkpt>
      <trkpt lat="45.90701" lon="6.17325">
        <ele>1030</ele>
        <time>2011-04-10T09:26:27Z</time>
      </trkpt>
      <trkpt lat="45.90699" lon="6.17323">
        <ele>1030</ele>
        <time>2011-04-10T09:26:28Z</time>
      </trkpt>
      <trkpt lat="45.90699" lon="6.17321">
        <ele>1030</ele>
        <time>2011-04-10T09:26:29Z</time>
      </trkpt>
      <trkpt lat="45.90697" lon="6.1731">
        <ele>1033</ele>
        <time>2011-04-10T09:26:47Z</time>
      </trkpt>
      <trkpt lat="45.90694" lon="6.17309">
        <ele>1034</ele>
        <time>2011-04-10T09:26:48Z</time>
      </trkpt>
      <trkpt lat="45.90696" lon="6.17304">
        <ele>1035</ele>
        <time>2011-04-10T09:26:49Z</time>
      </trkpt>
      <trkpt lat="45.90695" lon="6.17303">
        <ele>1036</ele>
        <time>2011-04-10T09:26:50Z</time>
      </trkpt>
      <trkpt lat="45.90693" lon="6.17301">
        <ele>1036</ele>
        <time>2011-04-10T09:26:51Z</time>
      </trkpt>
      <trkpt lat="45.90691" lon="6.173">
        <ele>1036</ele>
        <time>2011-04-10T09:26:52Z</time>
      </trkpt>
      <trkpt lat="45.90688" lon="6.173">
        <ele>1037</ele>
        <time>2011-04-10T09:26:53Z</time>
      </trkpt>
      <trkpt lat="45.90685" lon="6.17299">
        <ele>1037</ele>
        <time>2011-04-10T09:26:54Z</time>
      </trkpt>
      <trkpt lat="45.90682" lon="6.17298">
        <ele>1037</ele>
        <time>2011-04-10T09:26:55Z</time>
      </trkpt>
      <trkpt lat="45.90679" lon="6.17298">
        <ele>1037</ele>
        <time>2011-04-10T09:26:56Z</time>
      </trkpt>
      <trkpt lat="45.90676" lon="6.17297">
        <ele>1036</ele>
        <time>2011-04-10T09:26:57Z</time>
      </trkpt>
      <trkpt lat="45.90675" lon="6.17297">
        <ele>1036</ele>
        <time>2011-04-10T09:26:58Z</time>
      </trkpt>
      <trkpt lat="45.90674" lon="6.17295">
        <ele>1036</ele>
        <time>2011-04-10T09:26:59Z</time>
      </trkpt>
      <trkpt lat="45.90674" lon="6.17294">
        <ele>1036</ele>
        <time>2011-04-10T09:27:00Z</time>
      </trkpt>
      <trkpt lat="45.90674" lon="6.17291">
        <ele>1036</ele>
        <time>2011-04-10T09:27:02Z</time>
      </trkpt>
      <trkpt lat="45.90673" lon="6.1729">
        <ele>1037</ele>
        <time>2011-04-10T09:27:03Z</time>
      </trkpt>
      <trkpt lat="45.90672" lon="6.17289">
        <ele>1037</ele>
        <time>2011-04-10T09:27:04Z</time>
      </trkpt>
      <trkpt lat="45.90672" lon="6.17288">
        <ele>1037</ele>
        <time>2011-04-10T09:27:05Z</time>
      </trkpt>
      <trkpt lat="45.90671" lon="6.17288">
        <ele>1037</ele>
        <time>2011-04-10T09:27:06Z</time>
      </trkpt>
      <trkpt lat="45.9067" lon="6.17288">
        <ele>1037</ele>
        <time>2011-04-10T09:27:07Z</time>
      </trkpt>
      <trkpt lat="45.9067" lon="6.17287">
        <ele>1038</ele>
        <time>2011-04-10T09:27:08Z</time>
      </trkpt>
      <trkpt lat="45.9067" lon="6.17287">
        <ele>1037</ele>
        <time>2011-04-10T09:27:09Z</time>
      </trkpt>
      <trkpt lat="45.90669" lon="6.17285">
        <ele>1038</ele>
        <time>2011-04-10T09:27:52Z</time>
      </trkpt>
      <trkpt lat="45.90666" lon="6.17287">
        <ele>1039</ele>
        <time>2011-04-10T09:27:53Z</time>
      </trkpt>
      <trkpt lat="45.90664" lon="6.17287">
        <ele>1040</ele>
        <time>2011-04-10T09:27:54Z</time>
      </trkpt>
      <trkpt lat="45.9066" lon="6.17287">
        <ele>1041</ele>
        <time>2011-04-10T09:27:55Z</time>
      </trkpt>
      <trkpt lat="45.90658" lon="6.17286">
        <ele>1041</ele>
        <time>2011-04-10T09:27:56Z</time>
      </trkpt>
      <trkpt lat="45.90653" lon="6.17286">
        <ele>1040</ele>
        <time>2011-04-10T09:27:57Z</time>
      </trkpt>
      <trkpt lat="45.9065" lon="6.17288">
        <ele>1040</ele>
        <time>2011-04-10T09:27:58Z</time>
      </trkpt>
      <trkpt lat="45.90649" lon="6.1729">
        <ele>1041</ele>
        <time>2011-04-10T09:27:59Z</time>
      </trkpt>
      <trkpt lat="45.90645" lon="6.1729">
        <ele>1041</ele>
        <time>2011-04-10T09:28:00Z</time>
      </trkpt>
      <trkpt lat="45.90642" lon="6.17291">
        <ele>1043</ele>
        <time>2011-04-10T09:28:02Z</time>
      </trkpt>
      <trkpt lat="45.9064" lon="6.17293">
        <ele>1043</ele>
        <time>2011-04-10T09:28:03Z</time>
      </trkpt>
      <trkpt lat="45.90638" lon="6.17294">
        <ele>1044</ele>
        <time>2011-04-10T09:28:04Z</time>
      </trkpt>
      <trkpt lat="45.90638" lon="6.17293">
        <ele>1044</ele>
        <time>2011-04-10T09:28:05Z</time>
      </trkpt>
      <trkpt lat="45.90636" lon="6.17294">
        <ele>1045</ele>
        <time>2011-04-10T09:28:06Z</time>
      </trkpt>
      <trkpt lat="45.90632" lon="6.17291">
        <ele>1046</ele>
        <time>2011-04-10T09:28:23Z</time>
      </trkpt>
      <trkpt lat="45.9063" lon="6.1729">
        <ele>1046</ele>
        <time>2011-04-10T09:28:24Z</time>
      </trkpt>
      <trkpt lat="45.90627" lon="6.17288">
        <ele>1045</ele>
        <time>2011-04-10T09:28:25Z</time>
      </trkpt>
      <trkpt lat="45.90625" lon="6.17287">
        <ele>1044</ele>
        <time>2011-04-10T09:28:26Z</time>
      </trkpt>
      <trkpt lat="45.90623" lon="6.17284">
        <ele>1044</ele>
        <time>2011-04-10T09:28:27Z</time>
      </trkpt>
      <trkpt lat="45.90622" lon="6.17283">
        <ele>1043</ele>
        <time>2011-04-10T09:28:28Z</time>
      </trkpt>
      <trkpt lat="45.9062" lon="6.17285">
        <ele>1043</ele>
        <time>2011-04-10T09:28:29Z</time>
      </trkpt>
      <trkpt lat="45.90619" lon="6.17285">
        <ele>1044</ele>
        <time>2011-04-10T09:28:30Z</time>
      </trkpt>
      <trkpt lat="45.90619" lon="6.17285">
        <ele>1044</ele>
        <time>2011-04-10T09:28:31Z</time>
      </trkpt>
      <trkpt lat="45.90618" lon="6.17284">
        <ele>1043</ele>
        <time>2011-04-10T09:28:32Z</time>
      </trkpt>
      <trkpt lat="45.90617" lon="6.17283">
        <ele>1043</ele>
        <time>2011-04-10T09:28:33Z</time>
      </trkpt>
      <trkpt lat="45.90615" lon="6.17282">
        <ele>1042</ele>
        <time>2011-04-10T09:28:34Z</time>
      </trkpt>
      <trkpt lat="45.90615" lon="6.1728">
        <ele>1042</ele>
        <time>2011-04-10T09:28:35Z</time>
      </trkpt>
      <trkpt lat="45.90614" lon="6.17279">
        <ele>1042</ele>
        <time>2011-04-10T09:28:36Z</time>
      </trkpt>
      <trkpt lat="45.90612" lon="6.17279">
        <ele>1042</ele>
        <time>2011-04-10T09:28:37Z</time>
      </trkpt>
      <trkpt lat="45.90612" lon="6.17277">
        <ele>1042</ele>
        <time>2011-04-10T09:28:38Z</time>
      </trkpt>
      <trkpt lat="45.90611" lon="6.17276">
        <ele>1042</ele>
        <time>2011-04-10T09:28:39Z</time>
      </trkpt>
      <trkpt lat="45.90609" lon="6.17274">
        <ele>1042</ele>
        <time>2011-04-10T09:28:40Z</time>
      </trkpt>
      <trkpt lat="45.90607" lon="6.17271">
        <ele>1041</ele>
        <time>2011-04-10T09:28:41Z</time>
      </trkpt>
      <trkpt lat="45.90605" lon="6.1727">
        <ele>1041</ele>
        <time>2011-04-10T09:28:42Z</time>
      </trkpt>
      <trkpt lat="45.90603" lon="6.17269">
        <ele>1041</ele>
        <time>2011-04-10T09:28:43Z</time>
      </trkpt>
      <trkpt lat="45.90603" lon="6.17268">
        <ele>1042</ele>
        <time>2011-04-10T09:28:44Z</time>
      </trkpt>
      <trkpt lat="45.90602" lon="6.17265">
        <ele>1042</ele>
        <time>2011-04-10T09:28:45Z</time>
      </trkpt>
      <trkpt lat="45.90596" lon="6.17262">
        <ele>1044</ele>
        <time>2011-04-10T09:29:06Z</time>
      </trkpt>
      <trkpt lat="45.90594" lon="6.17259">
        <ele>1043</ele>
        <time>2011-04-10T09:29:07Z</time>
      </trkpt>
      <trkpt lat="45.90589" lon="6.17254">
        <ele>1044</ele>
        <time>2011-04-10T09:29:19Z</time>
      </trkpt>
      <trkpt lat="45.90585" lon="6.17251">
        <ele>1043</ele>
        <time>2011-04-10T09:29:20Z</time>
      </trkpt>
      <trkpt lat="45.90578" lon="6.17242">
        <ele>1044</ele>
        <time>2011-04-10T09:31:28Z</time>
      </trkpt>
      <trkpt lat="45.90579" lon="6.17241">
        <ele>1045</ele>
        <time>2011-04-10T09:31:29Z</time>
      </trkpt>
      <trkpt lat="45.90578" lon="6.1724">
        <ele>1045</ele>
        <time>2011-04-10T09:31:30Z</time>
      </trkpt>
      <trkpt lat="45.90578" lon="6.17239">
        <ele>1045</ele>
        <time>2011-04-10T09:31:31Z</time>
      </trkpt>
      <trkpt lat="45.90576" lon="6.17236">
        <ele>1045</ele>
        <time>2011-04-10T09:31:32Z</time>
      </trkpt>
      <trkpt lat="45.90575" lon="6.17235">
        <ele>1046</ele>
        <time>2011-04-10T09:31:33Z</time>
      </trkpt>
      <trkpt lat="45.90571" lon="6.17232">
        <ele>1046</ele>
        <time>2011-04-10T09:31:36Z</time>
      </trkpt>
      <trkpt lat="45.9057" lon="6.17233">
        <ele>1046</ele>
        <time>2011-04-10T09:31:37Z</time>
      </trkpt>
      <trkpt lat="45.9057" lon="6.17233">
        <ele>1045</ele>
        <time>2011-04-10T09:31:38Z</time>
      </trkpt>
      <trkpt lat="45.90569" lon="6.17231">
        <ele>1046</ele>
        <time>2011-04-10T09:31:39Z</time>
      </trkpt>
      <trkpt lat="45.90569" lon="6.17229">
        <ele>1046</ele>
        <time>2011-04-10T09:31:40Z</time>
      </trkpt>
      <trkpt lat="45.90569" lon="6.17229">
        <ele>1047</ele>
        <time>2011-04-10T09:31:44Z</time>
      </trkpt>
      <trkpt lat="45.90569" lon="6.17229">
        <ele>1047</ele>
        <time>2011-04-10T09:31:45Z</time>
      </trkpt>
      <trkpt lat="45.90566" lon="6.1723">
        <ele>1048</ele>
        <time>2011-04-10T09:31:46Z</time>
      </trkpt>
      <trkpt lat="45.90565" lon="6.1723">
        <ele>1048</ele>
        <time>2011-04-10T09:31:47Z</time>
      </trkpt>
      <trkpt lat="45.90564" lon="6.17231">
        <ele>1048</ele>
        <time>2011-04-10T09:31:48Z</time>
      </trkpt>
      <trkpt lat="45.90562" lon="6.17229">
        <ele>1049</ele>
        <time>2011-04-10T09:31:49Z</time>
      </trkpt>
      <trkpt lat="45.90561" lon="6.1723">
        <ele>1049</ele>
        <time>2011-04-10T09:31:50Z</time>
      </trkpt>
      <trkpt lat="45.9056" lon="6.17229">
        <ele>1050</ele>
        <time>2011-04-10T09:31:51Z</time>
      </trkpt>
      <trkpt lat="45.90559" lon="6.17229">
        <ele>1049</ele>
        <time>2011-04-10T09:31:52Z</time>
      </trkpt>
      <trkpt lat="45.90558" lon="6.17231">
        <ele>1049</ele>
        <time>2011-04-10T09:31:53Z</time>
      </trkpt>
      <trkpt lat="45.90558" lon="6.17231">
        <ele>1049</ele>
        <time>2011-04-10T09:31:54Z</time>
      </trkpt>
      <trkpt lat="45.90557" lon="6.17232">
        <ele>1049</ele>
        <time>2011-04-10T09:31:55Z</time>
      </trkpt>
      <trkpt lat="45.90557" lon="6.17231">
        <ele>1049</ele>
        <time>2011-04-10T09:31:56Z</time>
      </trkpt>
      <trkpt lat="45.90554" lon="6.17231">
        <ele>1049</ele>
        <time>2011-04-10T09:31:57Z</time>
      </trkpt>
      <trkpt lat="45.90553" lon="6.17232">
        <ele>1048</ele>
        <time>2011-04-10T09:31:58Z</time>
      </trkpt>
      <trkpt lat="45.90551" lon="6.17232">
        <ele>1048</ele>
        <time>2011-04-10T09:31:59Z</time>
      </trkpt>
      <trkpt lat="45.9055" lon="6.17233">
        <ele>1048</ele>
        <time>2011-04-10T09:32:00Z</time>
      </trkpt>
      <trkpt lat="45.90549" lon="6.17233">
        <ele>1049</ele>
        <time>2011-04-10T09:32:01Z</time>
      </trkpt>
      <trkpt lat="45.90548" lon="6.17234">
        <ele>1048</ele>
        <time>2011-04-10T09:32:02Z</time>
      </trkpt>
      <trkpt lat="45.90547" lon="6.17234">
        <ele>1048</ele>
        <time>2011-04-10T09:32:03Z</time>
      </trkpt>
      <trkpt lat="45.90546" lon="6.17236">
        <ele>1049</ele>
        <time>2011-04-10T09:32:04Z</time>
      </trkpt>
      <trkpt lat="45.90547" lon="6.17235">
        <ele>1049</ele>
        <time>2011-04-10T09:32:05Z</time>
      </trkpt>
      <trkpt lat="45.90545" lon="6.17234">
        <ele>1050</ele>
        <time>2011-04-10T09:32:06Z</time>
      </trkpt>
      <trkpt lat="45.90544" lon="6.17234">
        <ele>1050</ele>
        <time>2011-04-10T09:32:07Z</time>
      </trkpt>
      <trkpt lat="45.90543" lon="6.17233">
        <ele>1050</ele>
        <time>2011-04-10T09:32:08Z</time>
      </trkpt>
      <trkpt lat="45.90543" lon="6.17233">
        <ele>1050</ele>
        <time>2011-04-10T09:32:09Z</time>
      </trkpt>
      <trkpt lat="45.9054" lon="6.17233">
        <ele>1050</ele>
        <time>2011-04-10T09:32:10Z</time>
      </trkpt>
      <trkpt lat="45.9054" lon="6.17234">
        <ele>1050</ele>
        <time>2011-04-10T09:32:11Z</time>
      </trkpt>
      <trkpt lat="45.9054" lon="6.17234">
        <ele>1050</ele>
        <time>2011-04-10T09:32:12Z</time>
      </trkpt>
      <trkpt lat="45.90539" lon="6.17234">
        <ele>1050</ele>
        <time>2011-04-10T09:32:13Z</time>
      </trkpt>
      <trkpt lat="45.90537" lon="6.17234">
        <ele>1050</ele>
        <time>2011-04-10T09:32:14Z</time>
      </trkpt>
      <trkpt lat="45.90539" lon="6.17234">
        <ele>1051</ele>
        <time>2011-04-10T09:32:15Z</time>
      </trkpt>
      <trkpt lat="45.90539" lon="6.17236">
        <ele>1051</ele>
        <time>2011-04-10T09:32:16Z</time>
      </trkpt>
      <trkpt lat="45.90539" lon="6.17237">
        <ele>1051</ele>
        <time>2011-04-10T09:32:17Z</time>
      </trkpt>
      <trkpt lat="45.90541" lon="6.17239">
        <ele>1051</ele>
        <time>2011-04-10T09:32:18Z</time>
      </trkpt>
      <trkpt lat="45.90541" lon="6.17237">
        <ele>1052</ele>
        <time>2011-04-10T09:32:19Z</time>
      </trkpt>
      <trkpt lat="45.90542" lon="6.17239">
        <ele>1052</ele>
        <time>2011-04-10T09:32:20Z</time>
      </trkpt>
      <trkpt lat="45.90542" lon="6.1724">
        <ele>1052</ele>
        <time>2011-04-10T09:32:21Z</time>
      </trkpt>
      <trkpt lat="45.90544" lon="6.1724">
        <ele>1053</ele>
        <time>2011-04-10T09:32:22Z</time>
      </trkpt>
      <trkpt lat="45.90544" lon="6.17241">
        <ele>1053</ele>
        <time>2011-04-10T09:32:23Z</time>
      </trkpt>
      <trkpt lat="45.90543" lon="6.17243">
        <ele>1053</ele>
        <time>2011-04-10T09:32:28Z</time>
      </trkpt>
      <trkpt lat="45.90542" lon="6.17243">
        <ele>1054</ele>
        <time>2011-04-10T09:32:29Z</time>
      </trkpt>
      <trkpt lat="45.90542" lon="6.17242">
        <ele>1054</ele>
        <time>2011-04-10T09:32:30Z</time>
      </trkpt>
      <trkpt lat="45.90541" lon="6.17241">
        <ele>1055</ele>
        <time>2011-04-10T09:32:31Z</time>
      </trkpt>
      <trkpt lat="45.90541" lon="6.17242">
        <ele>1055</ele>
        <time>2011-04-10T09:32:32Z</time>
      </trkpt>
      <trkpt lat="45.9054" lon="6.17243">
        <ele>1056</ele>
        <time>2011-04-10T09:32:33Z</time>
      </trkpt>
      <trkpt lat="45.90541" lon="6.17243">
        <ele>1056</ele>
        <time>2011-04-10T09:32:34Z</time>
      </trkpt>
      <trkpt lat="45.90543" lon="6.17246">
        <ele>1057</ele>
        <time>2011-04-10T09:32:59Z</time>
      </trkpt>
      <trkpt lat="45.90542" lon="6.17253">
        <ele>1058</ele>
        <time>2011-04-10T09:33:07Z</time>
      </trkpt>
      <trkpt lat="45.90542" lon="6.17254">
        <ele>1059</ele>
        <time>2011-04-10T09:33:08Z</time>
      </trkpt>
      <trkpt lat="45.90542" lon="6.17255">
        <ele>1059</ele>
        <time>2011-04-10T09:33:09Z</time>
      </trkpt>
      <trkpt lat="45.90541" lon="6.17257">
        <ele>1059</ele>
        <time>2011-04-10T09:33:10Z</time>
      </trkpt>
      <trkpt lat="45.90539" lon="6.17258">
        <ele>1059</ele>
        <time>2011-04-10T09:33:11Z</time>
      </trkpt>
      <trkpt lat="45.90539" lon="6.17259">
        <ele>1058</ele>
        <time>2011-04-10T09:33:12Z</time>
      </trkpt>
      <trkpt lat="45.90539" lon="6.17259">
        <ele>1059</ele>
        <time>2011-04-10T09:33:13Z</time>
      </trkpt>
      <trkpt lat="45.90539" lon="6.17261">
        <ele>1058</ele>
        <time>2011-04-10T09:33:14Z</time>
      </trkpt>
      <trkpt lat="45.90537" lon="6.1726">
        <ele>1059</ele>
        <time>2011-04-10T09:33:15Z</time>
      </trkpt>
      <trkpt lat="45.90537" lon="6.17259">
        <ele>1059</ele>
        <time>2011-04-10T09:33:16Z</time>
      </trkpt>
      <trkpt lat="45.90536" lon="6.17258">
        <ele>1060</ele>
        <time>2011-04-10T09:33:17Z</time>
      </trkpt>
      <trkpt lat="45.90534" lon="6.17258">
        <ele>1060</ele>
        <time>2011-04-10T09:33:18Z</time>
      </trkpt>
      <trkpt lat="45.90533" lon="6.17259">
        <ele>1060</ele>
        <time>2011-04-10T09:33:19Z</time>
      </trkpt>
      <trkpt lat="45.90532" lon="6.17258">
        <ele>1061</ele>
        <time>2011-04-10T09:33:20Z</time>
      </trkpt>
      <trkpt lat="45.90534" lon="6.17262">
        <ele>1062</ele>
        <time>2011-04-10T09:33:52Z</time>
      </trkpt>
      <trkpt lat="45.90532" lon="6.17265">
        <ele>1063</ele>
        <time>2011-04-10T09:33:53Z</time>
      </trkpt>
      <trkpt lat="45.90534" lon="6.17269">
        <ele>1064</ele>
        <time>2011-04-10T09:33:58Z</time>
      </trkpt>
      <trkpt lat="45.90535" lon="6.17271">
        <ele>1063</ele>
        <time>2011-04-10T09:33:59Z</time>
      </trkpt>
      <trkpt lat="45.90534" lon="6.17272">
        <ele>1064</ele>
        <time>2011-04-10T09:34:00Z</time>
      </trkpt>
      <trkpt lat="45.90535" lon="6.17273">
        <ele>1064</ele>
        <time>2011-04-10T09:34:02Z</time>
      </trkpt>
      <trkpt lat="45.90535" lon="6.17274">
        <ele>1065</ele>
        <time>2011-04-10T09:34:03Z</time>
      </trkpt>
      <trkpt lat="45.90536" lon="6.17275">
        <ele>1066</ele>
        <time>2011-04-10T09:34:04Z</time>
      </trkpt>
      <trkpt lat="45.90536" lon="6.17277">
        <ele>1066</ele>
        <time>2011-04-10T09:34:05Z</time>
      </trkpt>
      <trkpt lat="45.90536" lon="6.17278">
        <ele>1067</ele>
        <time>2011-04-10T09:34:06Z</time>
      </trkpt>
      <trkpt lat="45.90535" lon="6.17279">
        <ele>1067</ele>
        <time>2011-04-10T09:34:07Z</time>
      </trkpt>
      <trkpt lat="45.90535" lon="6.1728">
        <ele>1067</ele>
        <time>2011-04-10T09:34:08Z</time>
      </trkpt>
      <trkpt lat="45.90535" lon="6.1728">
        <ele>1067</ele>
        <time>2011-04-10T09:34:09Z</time>
      </trkpt>
      <trkpt lat="45.90535" lon="6.17282">
        <ele>1067</ele>
        <time>2011-04-10T09:34:10Z</time>
      </trkpt>
      <trkpt lat="45.90535" lon="6.17281">
        <ele>1067</ele>
        <time>2011-04-10T09:34:11Z</time>
      </trkpt>
      <trkpt lat="45.90534" lon="6.17281">
        <ele>1067</ele>
        <time>2011-04-10T09:34:12Z</time>
      </trkpt>
      <trkpt lat="45.90533" lon="6.17284">
        <ele>1067</ele>
        <time>2011-04-10T09:34:13Z</time>
      </trkpt>
      <trkpt lat="45.90533" lon="6.17283">
        <ele>1067</ele>
        <time>2011-04-10T09:34:14Z</time>
      </trkpt>
      <trkpt lat="45.90533" lon="6.17282">
        <ele>1067</ele>
        <time>2011-04-10T09:34:15Z</time>
      </trkpt>
      <trkpt lat="45.90532" lon="6.17281">
        <ele>1068</ele>
        <time>2011-04-10T09:34:16Z</time>
      </trkpt>
      <trkpt lat="45.90531" lon="6.1728">
        <ele>1068</ele>
        <time>2011-04-10T09:34:17Z</time>
      </trkpt>
      <trkpt lat="45.90532" lon="6.17279">
        <ele>1069</ele>
        <time>2011-04-10T09:34:19Z</time>
      </trkpt>
      <trkpt lat="45.90534" lon="6.17281">
        <ele>1071</ele>
        <time>2011-04-10T09:34:21Z</time>
      </trkpt>
      <trkpt lat="45.90533" lon="6.17281">
        <ele>1071</ele>
        <time>2011-04-10T09:34:22Z</time>
      </trkpt>
      <trkpt lat="45.90533" lon="6.17281">
        <ele>1071</ele>
        <time>2011-04-10T09:34:23Z</time>
      </trkpt>
      <trkpt lat="45.90534" lon="6.17284">
        <ele>1071</ele>
        <time>2011-04-10T09:34:24Z</time>
      </trkpt>
      <trkpt lat="45.90534" lon="6.17286">
        <ele>1071</ele>
        <time>2011-04-10T09:34:25Z</time>
      </trkpt>
      <trkpt lat="45.90535" lon="6.17289">
        <ele>1072</ele>
        <time>2011-04-10T09:34:26Z</time>
      </trkpt>
      <trkpt lat="45.90536" lon="6.17289">
        <ele>1072</ele>
        <time>2011-04-10T09:34:27Z</time>
      </trkpt>
      <trkpt lat="45.90535" lon="6.1729">
        <ele>1072</ele>
        <time>2011-04-10T09:34:28Z</time>
      </trkpt>
      <trkpt lat="45.90534" lon="6.17291">
        <ele>1072</ele>
        <time>2011-04-10T09:34:29Z</time>
      </trkpt>
      <trkpt lat="45.90534" lon="6.17291">
        <ele>1073</ele>
        <time>2011-04-10T09:34:30Z</time>
      </trkpt>
      <trkpt lat="45.90535" lon="6.17292">
        <ele>1073</ele>
        <time>2011-04-10T09:34:31Z</time>
      </trkpt>
      <trkpt lat="45.90535" lon="6.17293">
        <ele>1074</ele>
        <time>2011-04-10T09:34:42Z</time>
      </trkpt>
      <trkpt lat="45.90535" lon="6.17295">
        <ele>1074</ele>
        <time>2011-04-10T09:34:43Z</time>
      </trkpt>
      <trkpt lat="45.90538" lon="6.17297">
        <ele>1075</ele>
        <time>2011-04-10T09:34:44Z</time>
      </trkpt>
      <trkpt lat="45.9054" lon="6.17297">
        <ele>1075</ele>
        <time>2011-04-10T09:34:45Z</time>
      </trkpt>
      <trkpt lat="45.90541" lon="6.17297">
        <ele>1076</ele>
        <time>2011-04-10T09:34:46Z</time>
      </trkpt>
      <trkpt lat="45.90542" lon="6.17298">
        <ele>1076</ele>
        <time>2011-04-10T09:34:47Z</time>
      </trkpt>
      <trkpt lat="45.90542" lon="6.17299">
        <ele>1076</ele>
        <time>2011-04-10T09:34:48Z</time>
      </trkpt>
      <trkpt lat="45.90542" lon="6.17301">
        <ele>1076</ele>
        <time>2011-04-10T09:34:49Z</time>
      </trkpt>
      <trkpt lat="45.90541" lon="6.17307">
        <ele>1075</ele>
        <time>2011-04-10T09:34:50Z</time>
      </trkpt>
      <trkpt lat="45.90542" lon="6.17308">
        <ele>1075</ele>
        <time>2011-04-10T09:34:51Z</time>
      </trkpt>
      <trkpt lat="45.90543" lon="6.1731">
        <ele>1075</ele>
        <time>2011-04-10T09:34:52Z</time>
      </trkpt>
      <trkpt lat="45.90543" lon="6.17312">
        <ele>1076</ele>
        <time>2011-04-10T09:34:53Z</time>
      </trkpt>
      <trkpt lat="45.90544" lon="6.17312">
        <ele>1076</ele>
        <time>2011-04-10T09:34:54Z</time>
      </trkpt>
      <trkpt lat="45.90545" lon="6.17312">
        <ele>1077</ele>
        <time>2011-04-10T09:34:55Z</time>
      </trkpt>
      <trkpt lat="45.90544" lon="6.17313">
        <ele>1077</ele>
        <time>2011-04-10T09:34:56Z</time>
      </trkpt>
      <trkpt lat="45.90544" lon="6.17313">
        <ele>1078</ele>
        <time>2011-04-10T09:34:57Z</time>
      </trkpt>
      <trkpt lat="45.90545" lon="6.17312">
        <ele>1078</ele>
        <time>2011-04-10T09:34:58Z</time>
      </trkpt>
      <trkpt lat="45.90547" lon="6.17313">
        <ele>1079</ele>
        <time>2011-04-10T09:34:59Z</time>
      </trkpt>
      <trkpt lat="45.90547" lon="6.17313">
        <ele>1079</ele>
        <time>2011-04-10T09:35:00Z</time>
      </trkpt>
      <trkpt lat="45.90548" lon="6.17312">
        <ele>1080</ele>
        <time>2011-04-10T09:35:02Z</time>
      </trkpt>
      <trkpt lat="45.90548" lon="6.17313">
        <ele>1081</ele>
        <time>2011-04-10T09:35:03Z</time>
      </trkpt>
      <trkpt lat="45.90548" lon="6.17313">
        <ele>1081</ele>
        <time>2011-04-10T09:35:04Z</time>
      </trkpt>
      <trkpt lat="45.90547" lon="6.17313">
        <ele>1081</ele>
        <time>2011-04-10T09:35:05Z</time>
      </trkpt>
      <trkpt lat="45.90548" lon="6.17312">
        <ele>1084</ele>
        <time>2011-04-10T09:35:43Z</time>
      </trkpt>
      <trkpt lat="45.9055" lon="6.17315">
        <ele>1086</ele>
        <time>2011-04-10T09:35:44Z</time>
      </trkpt>
      <trkpt lat="45.9055" lon="6.17316">
        <ele>1087</ele>
        <time>2011-04-10T09:35:45Z</time>
      </trkpt>
      <trkpt lat="45.9055" lon="6.17319">
        <ele>1087</ele>
        <time>2011-04-10T09:35:46Z</time>
      </trkpt>
      <trkpt lat="45.90552" lon="6.17323">
        <ele>1087</ele>
        <time>2011-04-10T09:35:47Z</time>
      </trkpt>
      <trkpt lat="45.90551" lon="6.17325">
        <ele>1087</ele>
        <time>2011-04-10T09:35:48Z</time>
      </trkpt>
      <trkpt lat="45.90551" lon="6.17327">
        <ele>1088</ele>
        <time>2011-04-10T09:35:49Z</time>
      </trkpt>
      <trkpt lat="45.90552" lon="6.17328">
        <ele>1088</ele>
        <time>2011-04-10T09:35:50Z</time>
      </trkpt>
      <trkpt lat="45.90554" lon="6.17329">
        <ele>1089</ele>
        <time>2011-04-10T09:35:51Z</time>
      </trkpt>
      <trkpt lat="45.90554" lon="6.17328">
        <ele>1090</ele>
        <time>2011-04-10T09:35:52Z</time>
      </trkpt>
      <trkpt lat="45.90554" lon="6.17329">
        <ele>1091</ele>
        <time>2011-04-10T09:35:53Z</time>
      </trkpt>
      <trkpt lat="45.90554" lon="6.17329">
        <ele>1092</ele>
        <time>2011-04-10T09:35:54Z</time>
      </trkpt>
      <trkpt lat="45.90555" lon="6.1733">
        <ele>1091</ele>
        <time>2011-04-10T09:35:55Z</time>
      </trkpt>
      <trkpt lat="45.90556" lon="6.1733">
        <ele>1093</ele>
        <time>2011-04-10T09:35:56Z</time>
      </trkpt>
      <trkpt lat="45.90556" lon="6.17331">
        <ele>1093</ele>
        <time>2011-04-10T09:35:57Z</time>
      </trkpt>
      <trkpt lat="45.90556" lon="6.17332">
        <ele>1094</ele>
        <time>2011-04-10T09:35:58Z</time>
      </trkpt>
      <trkpt lat="45.90557" lon="6.17336">
        <ele>1096</ele>
        <time>2011-04-10T09:36:17Z</time>
      </trkpt>
      <trkpt lat="45.90556" lon="6.17338">
        <ele>1097</ele>
        <time>2011-04-10T09:36:18Z</time>
      </trkpt>
      <trkpt lat="45.90557" lon="6.17342">
        <ele>1097</ele>
        <time>2011-04-10T09:36:19Z</time>
      </trkpt>
      <trkpt lat="45.90558" lon="6.17343">
        <ele>1098</ele>
        <time>2011-04-10T09:36:20Z</time>
      </trkpt>
      <trkpt lat="45.90558" lon="6.17345">
        <ele>1099</ele>
        <time>2011-04-10T09:36:21Z</time>
      </trkpt>
      <trkpt lat="45.90558" lon="6.17349">
        <ele>1100</ele>
        <time>2011-04-10T09:36:22Z</time>
      </trkpt>
      <trkpt lat="45.90561" lon="6.17352">
        <ele>1098</ele>
        <time>2011-04-10T09:36:23Z</time>
      </trkpt>
      <trkpt lat="45.90562" lon="6.17354">
        <ele>1100</ele>
        <time>2011-04-10T09:36:24Z</time>
      </trkpt>
      <trkpt lat="45.90561" lon="6.17357">
        <ele>1100</ele>
        <time>2011-04-10T09:36:25Z</time>
      </trkpt>
      <trkpt lat="45.90563" lon="6.17361">
        <ele>1100</ele>
        <time>2011-04-10T09:36:26Z</time>
      </trkpt>
      <trkpt lat="45.90565" lon="6.17362">
        <ele>1100</ele>
        <time>2011-04-10T09:36:27Z</time>
      </trkpt>
      <trkpt lat="45.90565" lon="6.17362">
        <ele>1100</ele>
        <time>2011-04-10T09:36:28Z</time>
      </trkpt>
      <trkpt lat="45.90565" lon="6.17364">
        <ele>1101</ele>
        <time>2011-04-10T09:36:29Z</time>
      </trkpt>
      <trkpt lat="45.90565" lon="6.17364">
        <ele>1102</ele>
        <time>2011-04-10T09:36:30Z</time>
      </trkpt>
      <trkpt lat="45.90565" lon="6.17366">
        <ele>1102</ele>
        <time>2011-04-10T09:36:31Z</time>
      </trkpt>
      <trkpt lat="45.90566" lon="6.17367">
        <ele>1102</ele>
        <time>2011-04-10T09:36:32Z</time>
      </trkpt>
      <trkpt lat="45.90565" lon="6.1737">
        <ele>1104</ele>
        <time>2011-04-10T09:37:02Z</time>
      </trkpt>
      <trkpt lat="45.90565" lon="6.17376">
        <ele>1104</ele>
        <time>2011-04-10T09:37:03Z</time>
      </trkpt>
      <trkpt lat="45.90562" lon="6.17379">
        <ele>1104</ele>
        <time>2011-04-10T09:37:04Z</time>
      </trkpt>
      <trkpt lat="45.90561" lon="6.1738">
        <ele>1105</ele>
        <time>2011-04-10T09:37:05Z</time>
      </trkpt>
      <trkpt lat="45.9056" lon="6.17384">
        <ele>1105</ele>
        <time>2011-04-10T09:37:06Z</time>
      </trkpt>
      <trkpt lat="45.90559" lon="6.17386">
        <ele>1106</ele>
        <time>2011-04-10T09:37:07Z</time>
      </trkpt>
      <trkpt lat="45.90558" lon="6.17387">
        <ele>1107</ele>
        <time>2011-04-10T09:37:08Z</time>
      </trkpt>
      <trkpt lat="45.90557" lon="6.17389">
        <ele>1108</ele>
        <time>2011-04-10T09:37:09Z</time>
      </trkpt>
      <trkpt lat="45.90557" lon="6.1739">
        <ele>1108</ele>
        <time>2011-04-10T09:37:10Z</time>
      </trkpt>
      <trkpt lat="45.90556" lon="6.17391">
        <ele>1109</ele>
        <time>2011-04-10T09:37:11Z</time>
      </trkpt>
      <trkpt lat="45.90556" lon="6.17392">
        <ele>1109</ele>
        <time>2011-04-10T09:37:12Z</time>
      </trkpt>
      <trkpt lat="45.90555" lon="6.17393">
        <ele>1109</ele>
        <time>2011-04-10T09:37:13Z</time>
      </trkpt>
      <trkpt lat="45.90553" lon="6.17395">
        <ele>1108</ele>
        <time>2011-04-10T09:37:14Z</time>
      </trkpt>
      <trkpt lat="45.90552" lon="6.17396">
        <ele>1109</ele>
        <time>2011-04-10T09:37:15Z</time>
      </trkpt>
      <trkpt lat="45.90552" lon="6.17396">
        <ele>1109</ele>
        <time>2011-04-10T09:37:16Z</time>
      </trkpt>
      <trkpt lat="45.90553" lon="6.17397">
        <ele>1110</ele>
        <time>2011-04-10T09:37:17Z</time>
      </trkpt>
      <trkpt lat="45.90553" lon="6.17397">
        <ele>1111</ele>
        <time>2011-04-10T09:37:18Z</time>
      </trkpt>
      <trkpt lat="45.90553" lon="6.17396">
        <ele>1111</ele>
        <time>2011-04-10T09:37:19Z</time>
      </trkpt>
      <trkpt lat="45.90553" lon="6.17396">
        <ele>1112</ele>
        <time>2011-04-10T09:37:20Z</time>
      </trkpt>
      <trkpt lat="45.90554" lon="6.17396">
        <ele>1111</ele>
        <time>2011-04-10T09:37:21Z</time>
      </trkpt>
      <trkpt lat="45.90554" lon="6.17396">
        <ele>1112</ele>
        <time>2011-04-10T09:37:22Z</time>
      </trkpt>
      <trkpt lat="45.90553" lon="6.17397">
        <ele>1111</ele>
        <time>2011-04-10T09:37:23Z</time>
      </trkpt>
      <trkpt lat="45.90552" lon="6.17398">
        <ele>1111</ele>
        <time>2011-04-10T09:37:24Z</time>
      </trkpt>
      <trkpt lat="45.90552" lon="6.174">
        <ele>1111</ele>
        <time>2011-04-10T09:37:25Z</time>
      </trkpt>
      <trkpt lat="45.90553" lon="6.17399">
        <ele>1112</ele>
        <time>2011-04-10T09:37:26Z</time>
      </trkpt>
      <trkpt lat="45.90553" lon="6.17399">
        <ele>1112</ele>
        <time>2011-04-10T09:37:27Z</time>
      </trkpt>
      <trkpt lat="45.90553" lon="6.17399">
        <ele>1111</ele>
        <time>2011-04-10T09:37:28Z</time>
      </trkpt>
      <trkpt lat="45.90552" lon="6.174">
        <ele>1112</ele>
        <time>2011-04-10T09:37:29Z</time>
      </trkpt>
      <trkpt lat="45.90554" lon="6.17398">
        <ele>1112</ele>
        <time>2011-04-10T09:37:30Z</time>
      </trkpt>
      <trkpt lat="45.90554" lon="6.17398">
        <ele>1112</ele>
        <time>2011-04-10T09:37:31Z</time>
      </trkpt>
      <trkpt lat="45.90553" lon="6.17398">
        <ele>1112</ele>
        <time>2011-04-10T09:37:32Z</time>
      </trkpt>
      <trkpt lat="45.90555" lon="6.17398">
        <ele>1112</ele>
        <time>2011-04-10T09:37:33Z</time>
      </trkpt>
      <trkpt lat="45.90555" lon="6.17398">
        <ele>1113</ele>
        <time>2011-04-10T09:37:34Z</time>
      </trkpt>
      <trkpt lat="45.90555" lon="6.17396">
        <ele>1113</ele>
        <time>2011-04-10T09:37:35Z</time>
      </trkpt>
      <trkpt lat="45.90555" lon="6.17396">
        <ele>1113</ele>
        <time>2011-04-10T09:37:36Z</time>
      </trkpt>
      <trkpt lat="45.90555" lon="6.17396">
        <ele>1113</ele>
        <time>2011-04-10T09:37:38Z</time>
      </trkpt>
      <trkpt lat="45.90556" lon="6.17396">
        <ele>1113</ele>
        <time>2011-04-10T09:37:39Z</time>
      </trkpt>
      <trkpt lat="45.90551" lon="6.17395">
        <ele>1115</ele>
        <time>2011-04-10T09:38:06Z</time>
      </trkpt>
      <trkpt lat="45.9055" lon="6.17391">
        <ele>1116</ele>
        <time>2011-04-10T09:38:07Z</time>
      </trkpt>
      <trkpt lat="45.90547" lon="6.1739">
        <ele>1116</ele>
        <time>2011-04-10T09:38:08Z</time>
      </trkpt>
      <trkpt lat="45.90547" lon="6.17389">
        <ele>1117</ele>
        <time>2011-04-10T09:38:09Z</time>
      </trkpt>
      <trkpt lat="45.90544" lon="6.17389">
        <ele>1117</ele>
        <time>2011-04-10T09:38:10Z</time>
      </trkpt>
      <trkpt lat="45.90542" lon="6.17387">
        <ele>1118</ele>
        <time>2011-04-10T09:38:11Z</time>
      </trkpt>
      <trkpt lat="45.90542" lon="6.17386">
        <ele>1119</ele>
        <time>2011-04-10T09:38:12Z</time>
      </trkpt>
      <trkpt lat="45.90541" lon="6.17386">
        <ele>1119</ele>
        <time>2011-04-10T09:38:13Z</time>
      </trkpt>
      <trkpt lat="45.9054" lon="6.17386">
        <ele>1119</ele>
        <time>2011-04-10T09:38:14Z</time>
      </trkpt>
      <trkpt lat="45.90539" lon="6.17387">
        <ele>1119</ele>
        <time>2011-04-10T09:38:15Z</time>
      </trkpt>
      <trkpt lat="45.90539" lon="6.17387">
        <ele>1119</ele>
        <time>2011-04-10T09:38:17Z</time>
      </trkpt>
      <trkpt lat="45.9054" lon="6.17387">
        <ele>1120</ele>
        <time>2011-04-10T09:38:18Z</time>
      </trkpt>
      <trkpt lat="45.90539" lon="6.17388">
        <ele>1120</ele>
        <time>2011-04-10T09:38:19Z</time>
      </trkpt>
      <trkpt lat="45.90539" lon="6.17388">
        <ele>1120</ele>
        <time>2011-04-10T09:38:20Z</time>
      </trkpt>
      <trkpt lat="45.90537" lon="6.17388">
        <ele>1120</ele>
        <time>2011-04-10T09:38:21Z</time>
      </trkpt>
      <trkpt lat="45.90536" lon="6.17388">
        <ele>1119</ele>
        <time>2011-04-10T09:38:22Z</time>
      </trkpt>
      <trkpt lat="45.90534" lon="6.17389">
        <ele>1119</ele>
        <time>2011-04-10T09:38:56Z</time>
      </trkpt>
      <trkpt lat="45.90534" lon="6.17393">
        <ele>1120</ele>
        <time>2011-04-10T09:38:57Z</time>
      </trkpt>
      <trkpt lat="45.90533" lon="6.174">
        <ele>1124</ele>
        <time>2011-04-10T09:39:35Z</time>
      </trkpt>
      <trkpt lat="45.90532" lon="6.1741">
        <ele>1130</ele>
        <time>2011-04-10T09:40:03Z</time>
      </trkpt>
      <trkpt lat="45.90534" lon="6.17415">
        <ele>1129</ele>
        <time>2011-04-10T09:40:04Z</time>
      </trkpt>
      <trkpt lat="45.90534" lon="6.17417">
        <ele>1129</ele>
        <time>2011-04-10T09:40:05Z</time>
      </trkpt>
      <trkpt lat="45.90534" lon="6.17421">
        <ele>1130</ele>
        <time>2011-04-10T09:40:06Z</time>
      </trkpt>
      <trkpt lat="45.9053" lon="6.17425">
        <ele>1130</ele>
        <time>2011-04-10T09:40:07Z</time>
      </trkpt>
      <trkpt lat="45.90529" lon="6.17427">
        <ele>1130</ele>
        <time>2011-04-10T09:40:08Z</time>
      </trkpt>
      <trkpt lat="45.9053" lon="6.17427">
        <ele>1130</ele>
        <time>2011-04-10T09:40:09Z</time>
      </trkpt>
      <trkpt lat="45.90529" lon="6.1743">
        <ele>1130</ele>
        <time>2011-04-10T09:40:10Z</time>
      </trkpt>
      <trkpt lat="45.90529" lon="6.17433">
        <ele>1131</ele>
        <time>2011-04-10T09:40:11Z</time>
      </trkpt>
      <trkpt lat="45.90529" lon="6.17435">
        <ele>1132</ele>
        <time>2011-04-10T09:40:12Z</time>
      </trkpt>
      <trkpt lat="45.9053" lon="6.17437">
        <ele>1132</ele>
        <time>2011-04-10T09:40:13Z</time>
      </trkpt>
      <trkpt lat="45.90529" lon="6.17439">
        <ele>1132</ele>
        <time>2011-04-10T09:40:14Z</time>
      </trkpt>
      <trkpt lat="45.90531" lon="6.17442">
        <ele>1134</ele>
        <time>2011-04-10T09:40:15Z</time>
      </trkpt>
      <trkpt lat="45.90532" lon="6.17445">
        <ele>1135</ele>
        <time>2011-04-10T09:40:16Z</time>
      </trkpt>
      <trkpt lat="45.90534" lon="6.17446">
        <ele>1134</ele>
        <time>2011-04-10T09:40:17Z</time>
      </trkpt>
      <trkpt lat="45.90533" lon="6.1745">
        <ele>1134</ele>
        <time>2011-04-10T09:40:49Z</time>
      </trkpt>
      <trkpt lat="45.90532" lon="6.17453">
        <ele>1136</ele>
        <time>2011-04-10T09:40:50Z</time>
      </trkpt>
      <trkpt lat="45.90532" lon="6.17453">
        <ele>1136</ele>
        <time>2011-04-10T09:40:51Z</time>
      </trkpt>
      <trkpt lat="45.90531" lon="6.17456">
        <ele>1137</ele>
        <time>2011-04-10T09:40:52Z</time>
      </trkpt>
      <trkpt lat="45.9053" lon="6.17459">
        <ele>1138</ele>
        <time>2011-04-10T09:40:53Z</time>
      </trkpt>
      <trkpt lat="45.90531" lon="6.17462">
        <ele>1141</ele>
        <time>2011-04-10T09:41:30Z</time>
      </trkpt>
      <trkpt lat="45.90528" lon="6.17467">
        <ele>1144</ele>
        <time>2011-04-10T09:41:31Z</time>
      </trkpt>
      <trkpt lat="45.90528" lon="6.17468">
        <ele>1145</ele>
        <time>2011-04-10T09:41:32Z</time>
      </trkpt>
      <trkpt lat="45.90528" lon="6.17468">
        <ele>1146</ele>
        <time>2011-04-10T09:41:33Z</time>
      </trkpt>
      <trkpt lat="45.90528" lon="6.17469">
        <ele>1146</ele>
        <time>2011-04-10T09:41:34Z</time>
      </trkpt>
      <trkpt lat="45.90523" lon="6.17473">
        <ele>1146</ele>
        <time>2011-04-10T09:42:08Z</time>
      </trkpt>
      <trkpt lat="45.90519" lon="6.17477">
        <ele>1148</ele>
        <time>2011-04-10T09:42:35Z</time>
      </trkpt>
      <trkpt lat="45.90517" lon="6.17478">
        <ele>1148</ele>
        <time>2011-04-10T09:42:36Z</time>
      </trkpt>
      <trkpt lat="45.90517" lon="6.17477">
        <ele>1149</ele>
        <time>2011-04-10T09:42:37Z</time>
      </trkpt>
      <trkpt lat="45.90514" lon="6.17478">
        <ele>1150</ele>
        <time>2011-04-10T09:42:38Z</time>
      </trkpt>
      <trkpt lat="45.90514" lon="6.17478">
        <ele>1151</ele>
        <time>2011-04-10T09:42:39Z</time>
      </trkpt>
      <trkpt lat="45.90511" lon="6.17481">
        <ele>1151</ele>
        <time>2011-04-10T09:42:40Z</time>
      </trkpt>
      <trkpt lat="45.9051" lon="6.17479">
        <ele>1152</ele>
        <time>2011-04-10T09:42:41Z</time>
      </trkpt>
      <trkpt lat="45.90507" lon="6.17479">
        <ele>1151</ele>
        <time>2011-04-10T09:42:42Z</time>
      </trkpt>
      <trkpt lat="45.90506" lon="6.17481">
        <ele>1151</ele>
        <time>2011-04-10T09:42:43Z</time>
      </trkpt>
      <trkpt lat="45.90505" lon="6.17479">
        <ele>1152</ele>
        <time>2011-04-10T09:42:44Z</time>
      </trkpt>
      <trkpt lat="45.90505" lon="6.17479">
        <ele>1152</ele>
        <time>2011-04-10T09:42:45Z</time>
      </trkpt>
      <trkpt lat="45.90503" lon="6.17479">
        <ele>1153</ele>
        <time>2011-04-10T09:42:46Z</time>
      </trkpt>
      <trkpt lat="45.90503" lon="6.17479">
        <ele>1153</ele>
        <time>2011-04-10T09:42:47Z</time>
      </trkpt>
      <trkpt lat="45.90503" lon="6.17478">
        <ele>1153</ele>
        <time>2011-04-10T09:42:48Z</time>
      </trkpt>
      <trkpt lat="45.90503" lon="6.17477">
        <ele>1154</ele>
        <time>2011-04-10T09:42:49Z</time>
      </trkpt>
      <trkpt lat="45.90502" lon="6.17477">
        <ele>1154</ele>
        <time>2011-04-10T09:42:50Z</time>
      </trkpt>
      <trkpt lat="45.90501" lon="6.17477">
        <ele>1154</ele>
        <time>2011-04-10T09:42:51Z</time>
      </trkpt>
      <trkpt lat="45.90501" lon="6.17476">
        <ele>1156</ele>
        <time>2011-04-10T09:42:52Z</time>
      </trkpt>
      <trkpt lat="45.90501" lon="6.17477">
        <ele>1156</ele>
        <time>2011-04-10T09:42:53Z</time>
      </trkpt>
      <trkpt lat="45.90499" lon="6.17476">
        <ele>1156</ele>
        <time>2011-04-10T09:42:54Z</time>
      </trkpt>
      <trkpt lat="45.90498" lon="6.17475">
        <ele>1157</ele>
        <time>2011-04-10T09:42:55Z</time>
      </trkpt>
      <trkpt lat="45.90498" lon="6.17471">
        <ele>1160</ele>
        <time>2011-04-10T09:43:19Z</time>
      </trkpt>
      <trkpt lat="45.90497" lon="6.1747">
        <ele>1161</ele>
        <time>2011-04-10T09:43:20Z</time>
      </trkpt>
      <trkpt lat="45.90496" lon="6.17468">
        <ele>1161</ele>
        <time>2011-04-10T09:43:21Z</time>
      </trkpt>
      <trkpt lat="45.90496" lon="6.17467">
        <ele>1161</ele>
        <time>2011-04-10T09:43:22Z</time>
      </trkpt>
      <trkpt lat="45.90498" lon="6.17464">
        <ele>1163</ele>
        <time>2011-04-10T09:43:23Z</time>
      </trkpt>
      <trkpt lat="45.90495" lon="6.17459">
        <ele>1164</ele>
        <time>2011-04-10T09:43:24Z</time>
      </trkpt>
      <trkpt lat="45.90493" lon="6.17458">
        <ele>1164</ele>
        <time>2011-04-10T09:43:25Z</time>
      </trkpt>
      <trkpt lat="45.90491" lon="6.17458">
        <ele>1164</ele>
        <time>2011-04-10T09:43:26Z</time>
      </trkpt>
      <trkpt lat="45.90489" lon="6.17457">
        <ele>1165</ele>
        <time>2011-04-10T09:43:27Z</time>
      </trkpt>
      <trkpt lat="45.90489" lon="6.17455">
        <ele>1165</ele>
        <time>2011-04-10T09:43:28Z</time>
      </trkpt>
      <trkpt lat="45.90489" lon="6.17454">
        <ele>1166</ele>
        <time>2011-04-10T09:43:29Z</time>
      </trkpt>
      <trkpt lat="45.90489" lon="6.17453">
        <ele>1166</ele>
        <time>2011-04-10T09:43:30Z</time>
      </trkpt>
      <trkpt lat="45.90489" lon="6.17452">
        <ele>1167</ele>
        <time>2011-04-10T09:43:31Z</time>
      </trkpt>
      <trkpt lat="45.90488" lon="6.17452">
        <ele>1167</ele>
        <time>2011-04-10T09:43:32Z</time>
      </trkpt>
      <trkpt lat="45.90487" lon="6.17452">
        <ele>1167</ele>
        <time>2011-04-10T09:43:33Z</time>
      </trkpt>
      <trkpt lat="45.90486" lon="6.17452">
        <ele>1167</ele>
        <time>2011-04-10T09:43:34Z</time>
      </trkpt>
      <trkpt lat="45.90487" lon="6.17448">
        <ele>1168</ele>
        <time>2011-04-10T09:43:35Z</time>
      </trkpt>
      <trkpt lat="45.90487" lon="6.17449">
        <ele>1168</ele>
        <time>2011-04-10T09:43:36Z</time>
      </trkpt>
      <trkpt lat="45.90486" lon="6.17446">
        <ele>1169</ele>
        <time>2011-04-10T09:43:37Z</time>
      </trkpt>
      <trkpt lat="45.90482" lon="6.17443">
        <ele>1168</ele>
        <time>2011-04-10T09:44:03Z</time>
      </trkpt>
      <trkpt lat="45.9048" lon="6.17445">
        <ele>1168</ele>
        <time>2011-04-10T09:44:04Z</time>
      </trkpt>
      <trkpt lat="45.90478" lon="6.17444">
        <ele>1167</ele>
        <time>2011-04-10T09:44:05Z</time>
      </trkpt>
      <trkpt lat="45.90476" lon="6.1744">
        <ele>1168</ele>
        <time>2011-04-10T09:44:06Z</time>
      </trkpt>
      <trkpt lat="45.90475" lon="6.17437">
        <ele>1169</ele>
        <time>2011-04-10T09:44:07Z</time>
      </trkpt>
      <trkpt lat="45.90475" lon="6.17435">
        <ele>1169</ele>
        <time>2011-04-10T09:44:08Z</time>
      </trkpt>
      <trkpt lat="45.90474" lon="6.17437">
        <ele>1169</ele>
        <time>2011-04-10T09:44:09Z</time>
      </trkpt>
      <trkpt lat="45.90469" lon="6.17435">
        <ele>1170</ele>
        <time>2011-04-10T09:44:43Z</time>
      </trkpt>
      <trkpt lat="45.90466" lon="6.17435">
        <ele>1171</ele>
        <time>2011-04-10T09:44:44Z</time>
      </trkpt>
      <trkpt lat="45.90465" lon="6.17434">
        <ele>1171</ele>
        <time>2011-04-10T09:44:45Z</time>
      </trkpt>
      <trkpt lat="45.90462" lon="6.17434">
        <ele>1172</ele>
        <time>2011-04-10T09:44:46Z</time>
      </trkpt>
      <trkpt lat="45.90461" lon="6.17433">
        <ele>1173</ele>
        <time>2011-04-10T09:44:47Z</time>
      </trkpt>
      <trkpt lat="45.9046" lon="6.17432">
        <ele>1173</ele>
        <time>2011-04-10T09:44:48Z</time>
      </trkpt>
      <trkpt lat="45.9046" lon="6.1743">
        <ele>1174</ele>
        <time>2011-04-10T09:44:49Z</time>
      </trkpt>
      <trkpt lat="45.90459" lon="6.17431">
        <ele>1174</ele>
        <time>2011-04-10T09:44:50Z</time>
      </trkpt>
      <trkpt lat="45.90458" lon="6.17431">
        <ele>1175</ele>
        <time>2011-04-10T09:44:51Z</time>
      </trkpt>
      <trkpt lat="45.90458" lon="6.1743">
        <ele>1175</ele>
        <time>2011-04-10T09:44:52Z</time>
      </trkpt>
      <trkpt lat="45.90456" lon="6.17429">
        <ele>1175</ele>
        <time>2011-04-10T09:44:53Z</time>
      </trkpt>
      <trkpt lat="45.90455" lon="6.17427">
        <ele>1176</ele>
        <time>2011-04-10T09:44:54Z</time>
      </trkpt>
      <trkpt lat="45.90452" lon="6.17427">
        <ele>1177</ele>
        <time>2011-04-10T09:45:20Z</time>
      </trkpt>
      <trkpt lat="45.90451" lon="6.17428">
        <ele>1176</ele>
        <time>2011-04-10T09:45:21Z</time>
      </trkpt>
      <trkpt lat="45.90447" lon="6.17428">
        <ele>1176</ele>
        <time>2011-04-10T09:45:22Z</time>
      </trkpt>
      <trkpt lat="45.90446" lon="6.17428">
        <ele>1175</ele>
        <time>2011-04-10T09:45:23Z</time>
      </trkpt>
      <trkpt lat="45.90445" lon="6.17428">
        <ele>1176</ele>
        <time>2011-04-10T09:45:24Z</time>
      </trkpt>
      <trkpt lat="45.90444" lon="6.17428">
        <ele>1176</ele>
        <time>2011-04-10T09:45:25Z</time>
      </trkpt>
      <trkpt lat="45.90444" lon="6.17428">
        <ele>1176</ele>
        <time>2011-04-10T09:45:26Z</time>
      </trkpt>
      <trkpt lat="45.90443" lon="6.17426">
        <ele>1177</ele>
        <time>2011-04-10T09:45:27Z</time>
      </trkpt>
      <trkpt lat="45.90441" lon="6.17427">
        <ele>1178</ele>
        <time>2011-04-10T09:45:28Z</time>
      </trkpt>
      <trkpt lat="45.90439" lon="6.17425">
        <ele>1178</ele>
        <time>2011-04-10T09:45:29Z</time>
      </trkpt>
      <trkpt lat="45.90439" lon="6.17424">
        <ele>1177</ele>
        <time>2011-04-10T09:45:30Z</time>
      </trkpt>
      <trkpt lat="45.90438" lon="6.17424">
        <ele>1179</ele>
        <time>2011-04-10T09:45:31Z</time>
      </trkpt>
      <trkpt lat="45.90436" lon="6.17422">
        <ele>1178</ele>
        <time>2011-04-10T09:45:32Z</time>
      </trkpt>
      <trkpt lat="45.90436" lon="6.17424">
        <ele>1180</ele>
        <time>2011-04-10T09:45:36Z</time>
      </trkpt>
      <trkpt lat="45.90433" lon="6.17426">
        <ele>1182</ele>
        <time>2011-04-10T09:45:39Z</time>
      </trkpt>
      <trkpt lat="45.90431" lon="6.17419">
        <ele>1182</ele>
        <time>2011-04-10T09:45:40Z</time>
      </trkpt>
      <trkpt lat="45.90438" lon="6.17418">
        <ele>1181</ele>
        <time>2011-04-10T09:45:41Z</time>
      </trkpt>
      <trkpt lat="45.9044" lon="6.17413">
        <ele>1181</ele>
        <time>2011-04-10T09:45:42Z</time>
      </trkpt>
      <trkpt lat="45.90439" lon="6.17421">
        <ele>1179</ele>
        <time>2011-04-10T09:45:43Z</time>
      </trkpt>
      <trkpt lat="45.9044" lon="6.17421">
        <ele>1180</ele>
        <time>2011-04-10T09:45:44Z</time>
      </trkpt>
      <trkpt lat="45.9044" lon="6.1742">
        <ele>1180</ele>
        <time>2011-04-10T09:45:45Z</time>
      </trkpt>
      <trkpt lat="45.90438" lon="6.1742">
        <ele>1180</ele>
        <time>2011-04-10T09:45:46Z</time>
      </trkpt>
      <trkpt lat="45.90438" lon="6.17424">
        <ele>1181</ele>
        <time>2011-04-10T09:45:47Z</time>
      </trkpt>
      <trkpt lat="45.90439" lon="6.17423">
        <ele>1181</ele>
        <time>2011-04-10T09:45:48Z</time>
      </trkpt>
      <trkpt lat="45.90432" lon="6.17417">
        <ele>1181</ele>
        <time>2011-04-10T09:45:50Z</time>
      </trkpt>
      <trkpt lat="45.90429" lon="6.17418">
        <ele>1181</ele>
        <time>2011-04-10T09:45:51Z</time>
      </trkpt>
      <trkpt lat="45.9043" lon="6.17417">
        <ele>1182</ele>
        <time>2011-04-10T09:45:52Z</time>
      </trkpt>
      <trkpt lat="45.90429" lon="6.17417">
        <ele>1182</ele>
        <time>2011-04-10T09:45:53Z</time>
      </trkpt>
      <trkpt lat="45.9043" lon="6.17416">
        <ele>1182</ele>
        <time>2011-04-10T09:45:54Z</time>
      </trkpt>
      <trkpt lat="45.90426" lon="6.17416">
        <ele>1181</ele>
        <time>2011-04-10T09:45:55Z</time>
      </trkpt>
      <trkpt lat="45.90424" lon="6.17416">
        <ele>1182</ele>
        <time>2011-04-10T09:45:56Z</time>
      </trkpt>
      <trkpt lat="45.90424" lon="6.17418">
        <ele>1181</ele>
        <time>2011-04-10T09:45:57Z</time>
      </trkpt>
      <trkpt lat="45.90423" lon="6.17419">
        <ele>1181</ele>
        <time>2011-04-10T09:45:58Z</time>
      </trkpt>
      <trkpt lat="45.90423" lon="6.17417">
        <ele>1182</ele>
        <time>2011-04-10T09:45:59Z</time>
      </trkpt>
      <trkpt lat="45.90425" lon="6.17415">
        <ele>1183</ele>
        <time>2011-04-10T09:46:00Z</time>
      </trkpt>
      <trkpt lat="45.90423" lon="6.17409">
        <ele>1185</ele>
        <time>2011-04-10T09:46:02Z</time>
      </trkpt>
      <trkpt lat="45.90422" lon="6.1741">
        <ele>1185</ele>
        <time>2011-04-10T09:46:03Z</time>
      </trkpt>
      <trkpt lat="45.90422" lon="6.1741">
        <ele>1185</ele>
        <time>2011-04-10T09:46:04Z</time>
      </trkpt>
      <trkpt lat="45.90421" lon="6.17411">
        <ele>1184</ele>
        <time>2011-04-10T09:46:05Z</time>
      </trkpt>
      <trkpt lat="45.90421" lon="6.17413">
        <ele>1185</ele>
        <time>2011-04-10T09:46:06Z</time>
      </trkpt>
      <trkpt lat="45.90421" lon="6.17413">
        <ele>1185</ele>
        <time>2011-04-10T09:46:07Z</time>
      </trkpt>
      <trkpt lat="45.9042" lon="6.17412">
        <ele>1185</ele>
        <time>2011-04-10T09:46:08Z</time>
      </trkpt>
      <trkpt lat="45.90419" lon="6.17413">
        <ele>1185</ele>
        <time>2011-04-10T09:46:09Z</time>
      </trkpt>
      <trkpt lat="45.90418" lon="6.17411">
        <ele>1186</ele>
        <time>2011-04-10T09:46:10Z</time>
      </trkpt>
      <trkpt lat="45.90418" lon="6.17411">
        <ele>1186</ele>
        <time>2011-04-10T09:46:11Z</time>
      </trkpt>
      <trkpt lat="45.90418" lon="6.17411">
        <ele>1187</ele>
        <time>2011-04-10T09:46:12Z</time>
      </trkpt>
      <trkpt lat="45.90418" lon="6.17411">
        <ele>1187</ele>
        <time>2011-04-10T09:46:13Z</time>
      </trkpt>
      <trkpt lat="45.90418" lon="6.17409">
        <ele>1187</ele>
        <time>2011-04-10T09:46:14Z</time>
      </trkpt>
      <trkpt lat="45.90417" lon="6.17408">
        <ele>1187</ele>
        <time>2011-04-10T09:46:15Z</time>
      </trkpt>
      <trkpt lat="45.90416" lon="6.17408">
        <ele>1188</ele>
        <time>2011-04-10T09:46:16Z</time>
      </trkpt>
      <trkpt lat="45.90416" lon="6.17408">
        <ele>1189</ele>
        <time>2011-04-10T09:46:17Z</time>
      </trkpt>
      <trkpt lat="45.90416" lon="6.17404">
        <ele>1190</ele>
        <time>2011-04-10T09:46:53Z</time>
      </trkpt>
      <trkpt lat="45.90414" lon="6.17403">
        <ele>1190</ele>
        <time>2011-04-10T09:46:54Z</time>
      </trkpt>
      <trkpt lat="45.9041" lon="6.17404">
        <ele>1188</ele>
        <time>2011-04-10T09:46:55Z</time>
      </trkpt>
      <trkpt lat="45.90405" lon="6.17402">
        <ele>1187</ele>
        <time>2011-04-10T09:46:56Z</time>
      </trkpt>
      <trkpt lat="45.90404" lon="6.17402">
        <ele>1188</ele>
        <time>2011-04-10T09:46:57Z</time>
      </trkpt>
      <trkpt lat="45.90402" lon="6.17402">
        <ele>1188</ele>
        <time>2011-04-10T09:46:58Z</time>
      </trkpt>
      <trkpt lat="45.90399" lon="6.17401">
        <ele>1187</ele>
        <time>2011-04-10T09:46:59Z</time>
      </trkpt>
      <trkpt lat="45.90397" lon="6.17395">
        <ele>1187</ele>
        <time>2011-04-10T09:47:00Z</time>
      </trkpt>
      <trkpt lat="45.90395" lon="6.174">
        <ele>1187</ele>
        <time>2011-04-10T09:47:01Z</time>
      </trkpt>
      <trkpt lat="45.90397" lon="6.17395">
        <ele>1187</ele>
        <time>2011-04-10T09:47:02Z</time>
      </trkpt>
      <trkpt lat="45.90394" lon="6.17391">
        <ele>1188</ele>
        <time>2011-04-10T09:47:03Z</time>
      </trkpt>
      <trkpt lat="45.90396" lon="6.17388">
        <ele>1188</ele>
        <time>2011-04-10T09:47:04Z</time>
      </trkpt>
      <trkpt lat="45.904" lon="6.17386">
        <ele>1189</ele>
        <time>2011-04-10T09:47:05Z</time>
      </trkpt>
      <trkpt lat="45.90399" lon="6.17382">
        <ele>1189</ele>
        <time>2011-04-10T09:47:06Z</time>
      </trkpt>
      <trkpt lat="45.90396" lon="6.17383">
        <ele>1189</ele>
        <time>2011-04-10T09:47:07Z</time>
      </trkpt>
      <trkpt lat="45.90396" lon="6.17389">
        <ele>1189</ele>
        <time>2011-04-10T09:47:08Z</time>
      </trkpt>
      <trkpt lat="45.90394" lon="6.17389">
        <ele>1190</ele>
        <time>2011-04-10T09:47:09Z</time>
      </trkpt>
      <trkpt lat="45.90393" lon="6.1739">
        <ele>1189</ele>
        <time>2011-04-10T09:47:10Z</time>
      </trkpt>
      <trkpt lat="45.9039" lon="6.17388">
        <ele>1188</ele>
        <time>2011-04-10T09:47:11Z</time>
      </trkpt>
      <trkpt lat="45.90389" lon="6.17391">
        <ele>1187</ele>
        <time>2011-04-10T09:47:12Z</time>
      </trkpt>
      <trkpt lat="45.90386" lon="6.17394">
        <ele>1188</ele>
        <time>2011-04-10T09:47:13Z</time>
      </trkpt>
      <trkpt lat="45.90389" lon="6.17393">
        <ele>1188</ele>
        <time>2011-04-10T09:47:14Z</time>
      </trkpt>
      <trkpt lat="45.90389" lon="6.17395">
        <ele>1188</ele>
        <time>2011-04-10T09:47:15Z</time>
      </trkpt>
      <trkpt lat="45.90389" lon="6.174">
        <ele>1188</ele>
        <time>2011-04-10T09:47:16Z</time>
      </trkpt>
      <trkpt lat="45.9039" lon="6.17401">
        <ele>1188</ele>
        <time>2011-04-10T09:47:17Z</time>
      </trkpt>
      <trkpt lat="45.9039" lon="6.17403">
        <ele>1188</ele>
        <time>2011-04-10T09:47:18Z</time>
      </trkpt>
      <trkpt lat="45.90391" lon="6.17408">
        <ele>1189</ele>
        <time>2011-04-10T09:47:19Z</time>
      </trkpt>
      <trkpt lat="45.9039" lon="6.17411">
        <ele>1189</ele>
        <time>2011-04-10T09:47:20Z</time>
      </trkpt>
      <trkpt lat="45.9039" lon="6.17418">
        <ele>1191</ele>
        <time>2011-04-10T09:47:21Z</time>
      </trkpt>
      <trkpt lat="45.90388" lon="6.17421">
        <ele>1193</ele>
        <time>2011-04-10T09:47:22Z</time>
      </trkpt>
      <trkpt lat="45.90384" lon="6.17424">
        <ele>1193</ele>
        <time>2011-04-10T09:47:23Z</time>
      </trkpt>
      <trkpt lat="45.90381" lon="6.17424">
        <ele>1193</ele>
        <time>2011-04-10T09:47:24Z</time>
      </trkpt>
      <trkpt lat="45.90383" lon="6.17419">
        <ele>1194</ele>
        <time>2011-04-10T09:47:25Z</time>
      </trkpt>
      <trkpt lat="45.90382" lon="6.1742">
        <ele>1194</ele>
        <time>2011-04-10T09:47:26Z</time>
      </trkpt>
      <trkpt lat="45.90382" lon="6.17421">
        <ele>1194</ele>
        <time>2011-04-10T09:47:27Z</time>
      </trkpt>
      <trkpt lat="45.9038" lon="6.1742">
        <ele>1194</ele>
        <time>2011-04-10T09:47:28Z</time>
      </trkpt>
      <trkpt lat="45.90379" lon="6.17421">
        <ele>1193</ele>
        <time>2011-04-10T09:47:29Z</time>
      </trkpt>
      <trkpt lat="45.90379" lon="6.17421">
        <ele>1194</ele>
        <time>2011-04-10T09:47:30Z</time>
      </trkpt>
      <trkpt lat="45.90377" lon="6.17422">
        <ele>1194</ele>
        <time>2011-04-10T09:47:31Z</time>
      </trkpt>
      <trkpt lat="45.90377" lon="6.17422">
        <ele>1194</ele>
        <time>2011-04-10T09:47:32Z</time>
      </trkpt>
      <trkpt lat="45.90377" lon="6.17423">
        <ele>1194</ele>
        <time>2011-04-10T09:47:33Z</time>
      </trkpt>
      <trkpt lat="45.90376" lon="6.17421">
        <ele>1194</ele>
        <time>2011-04-10T09:47:34Z</time>
      </trkpt>
      <trkpt lat="45.90375" lon="6.17423">
        <ele>1195</ele>
        <time>2011-04-10T09:47:35Z</time>
      </trkpt>
      <trkpt lat="45.90374" lon="6.17423">
        <ele>1196</ele>
        <time>2011-04-10T09:47:36Z</time>
      </trkpt>
      <trkpt lat="45.90374" lon="6.17423">
        <ele>1196</ele>
        <time>2011-04-10T09:47:37Z</time>
      </trkpt>
      <trkpt lat="45.90373" lon="6.17423">
        <ele>1196</ele>
        <time>2011-04-10T09:47:38Z</time>
      </trkpt>
      <trkpt lat="45.90373" lon="6.17423">
        <ele>1196</ele>
        <time>2011-04-10T09:47:39Z</time>
      </trkpt>
      <trkpt lat="45.90372" lon="6.17421">
        <ele>1198</ele>
        <time>2011-04-10T09:48:15Z</time>
      </trkpt>
      <trkpt lat="45.90371" lon="6.17422">
        <ele>1198</ele>
        <time>2011-04-10T09:48:16Z</time>
      </trkpt>
      <trkpt lat="45.90367" lon="6.17422">
        <ele>1198</ele>
        <time>2011-04-10T09:48:17Z</time>
      </trkpt>
      <trkpt lat="45.90366" lon="6.17421">
        <ele>1197</ele>
        <time>2011-04-10T09:48:18Z</time>
      </trkpt>
      <trkpt lat="45.90364" lon="6.17419">
        <ele>1197</ele>
        <time>2011-04-10T09:48:19Z</time>
      </trkpt>
      <trkpt lat="45.90362" lon="6.17419">
        <ele>1196</ele>
        <time>2011-04-10T09:48:20Z</time>
      </trkpt>
      <trkpt lat="45.9036" lon="6.17419">
        <ele>1196</ele>
        <time>2011-04-10T09:48:21Z</time>
      </trkpt>
      <trkpt lat="45.90359" lon="6.17419">
        <ele>1196</ele>
        <time>2011-04-10T09:48:22Z</time>
      </trkpt>
      <trkpt lat="45.90358" lon="6.17417">
        <ele>1197</ele>
        <time>2011-04-10T09:48:23Z</time>
      </trkpt>
      <trkpt lat="45.90356" lon="6.17413">
        <ele>1198</ele>
        <time>2011-04-10T09:48:24Z</time>
      </trkpt>
      <trkpt lat="45.90356" lon="6.17412">
        <ele>1198</ele>
        <time>2011-04-10T09:48:25Z</time>
      </trkpt>
      <trkpt lat="45.90356" lon="6.17413">
        <ele>1198</ele>
        <time>2011-04-10T09:48:26Z</time>
      </trkpt>
      <trkpt lat="45.90357" lon="6.17414">
        <ele>1198</ele>
        <time>2011-04-10T09:48:27Z</time>
      </trkpt>
      <trkpt lat="45.90352" lon="6.17413">
        <ele>1197</ele>
        <time>2011-04-10T09:48:28Z</time>
      </trkpt>
      <trkpt lat="45.90351" lon="6.17414">
        <ele>1197</ele>
        <time>2011-04-10T09:48:29Z</time>
      </trkpt>
      <trkpt lat="45.90351" lon="6.17412">
        <ele>1198</ele>
        <time>2011-04-10T09:48:30Z</time>
      </trkpt>
      <trkpt lat="45.9035" lon="6.1741">
        <ele>1198</ele>
        <time>2011-04-10T09:48:31Z</time>
      </trkpt>
      <trkpt lat="45.90348" lon="6.17411">
        <ele>1199</ele>
        <time>2011-04-10T09:48:32Z</time>
      </trkpt>
      <trkpt lat="45.90348" lon="6.17411">
        <ele>1199</ele>
        <time>2011-04-10T09:48:33Z</time>
      </trkpt>
      <trkpt lat="45.90348" lon="6.17411">
        <ele>1200</ele>
        <time>2011-04-10T09:48:34Z</time>
      </trkpt>
      <trkpt lat="45.90345" lon="6.17408">
        <ele>1201</ele>
        <time>2011-04-10T09:49:04Z</time>
      </trkpt>
      <trkpt lat="45.90344" lon="6.17411">
        <ele>1200</ele>
        <time>2011-04-10T09:49:05Z</time>
      </trkpt>
      <trkpt lat="45.90341" lon="6.17415">
        <ele>1201</ele>
        <time>2011-04-10T09:49:06Z</time>
      </trkpt>
      <trkpt lat="45.9034" lon="6.1742">
        <ele>1199</ele>
        <time>2011-04-10T09:49:07Z</time>
      </trkpt>
      <trkpt lat="45.90339" lon="6.1742">
        <ele>1200</ele>
        <time>2011-04-10T09:49:09Z</time>
      </trkpt>
      <trkpt lat="45.90338" lon="6.17423">
        <ele>1200</ele>
        <time>2011-04-10T09:49:10Z</time>
      </trkpt>
      <trkpt lat="45.90336" lon="6.17424">
        <ele>1200</ele>
        <time>2011-04-10T09:49:11Z</time>
      </trkpt>
      <trkpt lat="45.90334" lon="6.17424">
        <ele>1202</ele>
        <time>2011-04-10T09:49:12Z</time>
      </trkpt>
      <trkpt lat="45.90333" lon="6.17424">
        <ele>1202</ele>
        <time>2011-04-10T09:49:13Z</time>
      </trkpt>
      <trkpt lat="45.90331" lon="6.17425">
        <ele>1202</ele>
        <time>2011-04-10T09:49:14Z</time>
      </trkpt>
      <trkpt lat="45.90329" lon="6.17425">
        <ele>1204</ele>
        <time>2011-04-10T09:49:15Z</time>
      </trkpt>
      <trkpt lat="45.90329" lon="6.17425">
        <ele>1204</ele>
        <time>2011-04-10T09:49:16Z</time>
      </trkpt>
      <trkpt lat="45.90328" lon="6.17426">
        <ele>1206</ele>
        <time>2011-04-10T09:49:17Z</time>
      </trkpt>
      <trkpt lat="45.90327" lon="6.17427">
        <ele>1206</ele>
        <time>2011-04-10T09:49:18Z</time>
      </trkpt>
      <trkpt lat="45.90327" lon="6.17429">
        <ele>1206</ele>
        <time>2011-04-10T09:49:19Z</time>
      </trkpt>
      <trkpt lat="45.90326" lon="6.1743">
        <ele>1207</ele>
        <time>2011-04-10T09:49:20Z</time>
      </trkpt>
      <trkpt lat="45.90325" lon="6.1743">
        <ele>1208</ele>
        <time>2011-04-10T09:49:21Z</time>
      </trkpt>
      <trkpt lat="45.90326" lon="6.17432">
        <ele>1209</ele>
        <time>2011-04-10T09:49:22Z</time>
      </trkpt>
      <trkpt lat="45.90326" lon="6.17433">
        <ele>1210</ele>
        <time>2011-04-10T09:49:23Z</time>
      </trkpt>
      <trkpt lat="45.90326" lon="6.17434">
        <ele>1210</ele>
        <time>2011-04-10T09:49:24Z</time>
      </trkpt>
      <trkpt lat="45.90327" lon="6.17437">
        <ele>1210</ele>
        <time>2011-04-10T09:49:25Z</time>
      </trkpt>
      <trkpt lat="45.90327" lon="6.17437">
        <ele>1212</ele>
        <time>2011-04-10T09:49:26Z</time>
      </trkpt>
      <trkpt lat="45.90327" lon="6.17438">
        <ele>1212</ele>
        <time>2011-04-10T09:49:27Z</time>
      </trkpt>
      <trkpt lat="45.90327" lon="6.17441">
        <ele>1213</ele>
        <time>2011-04-10T09:49:28Z</time>
      </trkpt>
      <trkpt lat="45.90325" lon="6.17438">
        <ele>1214</ele>
        <time>2011-04-10T09:51:30Z</time>
      </trkpt>
      <trkpt lat="45.90326" lon="6.17438">
        <ele>1216</ele>
        <time>2011-04-10T09:52:17Z</time>
      </trkpt>
      <trkpt lat="45.90326" lon="6.1744">
        <ele>1216</ele>
        <time>2011-04-10T09:52:18Z</time>
      </trkpt>
      <trkpt lat="45.90328" lon="6.17442">
        <ele>1216</ele>
        <time>2011-04-10T09:52:19Z</time>
      </trkpt>
      <trkpt lat="45.90329" lon="6.17444">
        <ele>1215</ele>
        <time>2011-04-10T09:52:20Z</time>
      </trkpt>
      <trkpt lat="45.90329" lon="6.17446">
        <ele>1215</ele>
        <time>2011-04-10T09:52:21Z</time>
      </trkpt>
      <trkpt lat="45.90328" lon="6.17447">
        <ele>1215</ele>
        <time>2011-04-10T09:52:22Z</time>
      </trkpt>
      <trkpt lat="45.90327" lon="6.17448">
        <ele>1214</ele>
        <time>2011-04-10T09:52:23Z</time>
      </trkpt>
      <trkpt lat="45.90328" lon="6.1745">
        <ele>1214</ele>
        <time>2011-04-10T09:52:24Z</time>
      </trkpt>
      <trkpt lat="45.90328" lon="6.17452">
        <ele>1214</ele>
        <time>2011-04-10T09:52:25Z</time>
      </trkpt>
      <trkpt lat="45.90327" lon="6.17452">
        <ele>1214</ele>
        <time>2011-04-10T09:52:26Z</time>
      </trkpt>
      <trkpt lat="45.90328" lon="6.17452">
        <ele>1214</ele>
        <time>2011-04-10T09:52:27Z</time>
      </trkpt>
      <trkpt lat="45.90328" lon="6.17453">
        <ele>1214</ele>
        <time>2011-04-10T09:52:28Z</time>
      </trkpt>
      <trkpt lat="45.90328" lon="6.17454">
        <ele>1214</ele>
        <time>2011-04-10T09:52:29Z</time>
      </trkpt>
      <trkpt lat="45.90328" lon="6.17455">
        <ele>1214</ele>
        <time>2011-04-10T09:52:30Z</time>
      </trkpt>
      <trkpt lat="45.90328" lon="6.17457">
        <ele>1213</ele>
        <time>2011-04-10T09:52:31Z</time>
      </trkpt>
      <trkpt lat="45.90328" lon="6.17459">
        <ele>1213</ele>
        <time>2011-04-10T09:52:32Z</time>
      </trkpt>
      <trkpt lat="45.90329" lon="6.17461">
        <ele>1213</ele>
        <time>2011-04-10T09:52:33Z</time>
      </trkpt>
      <trkpt lat="45.9033" lon="6.17462">
        <ele>1214</ele>
        <time>2011-04-10T09:52:34Z</time>
      </trkpt>
      <trkpt lat="45.90331" lon="6.17463">
        <ele>1214</ele>
        <time>2011-04-10T09:52:35Z</time>
      </trkpt>
      <trkpt lat="45.90331" lon="6.17465">
        <ele>1213</ele>
        <time>2011-04-10T09:52:36Z</time>
      </trkpt>
      <trkpt lat="45.90333" lon="6.17468">
        <ele>1213</ele>
        <time>2011-04-10T09:52:37Z</time>
      </trkpt>
      <trkpt lat="45.90334" lon="6.17469">
        <ele>1214</ele>
        <time>2011-04-10T09:52:38Z</time>
      </trkpt>
      <trkpt lat="45.90336" lon="6.1747">
        <ele>1215</ele>
        <time>2011-04-10T09:52:39Z</time>
      </trkpt>
      <trkpt lat="45.90335" lon="6.1747">
        <ele>1215</ele>
        <time>2011-04-10T09:52:40Z</time>
      </trkpt>
      <trkpt lat="45.90336" lon="6.17471">
        <ele>1214</ele>
        <time>2011-04-10T09:52:41Z</time>
      </trkpt>
      <trkpt lat="45.90335" lon="6.17471">
        <ele>1214</ele>
        <time>2011-04-10T09:52:42Z</time>
      </trkpt>
      <trkpt lat="45.90335" lon="6.17471">
        <ele>1214</ele>
        <time>2011-04-10T09:52:43Z</time>
      </trkpt>
      <trkpt lat="45.90335" lon="6.17472">
        <ele>1215</ele>
        <time>2011-04-10T09:52:44Z</time>
      </trkpt>
      <trkpt lat="45.90333" lon="6.17473">
        <ele>1215</ele>
        <time>2011-04-10T09:52:45Z</time>
      </trkpt>
      <trkpt lat="45.90333" lon="6.17474">
        <ele>1215</ele>
        <time>2011-04-10T09:52:46Z</time>
      </trkpt>
      <trkpt lat="45.90333" lon="6.17475">
        <ele>1214</ele>
        <time>2011-04-10T09:52:49Z</time>
      </trkpt>
      <trkpt lat="45.90333" lon="6.17477">
        <ele>1215</ele>
        <time>2011-04-10T09:52:50Z</time>
      </trkpt>
      <trkpt lat="45.90333" lon="6.17477">
        <ele>1215</ele>
        <time>2011-04-10T09:52:51Z</time>
      </trkpt>
      <trkpt lat="45.90334" lon="6.17479">
        <ele>1215</ele>
        <time>2011-04-10T09:52:52Z</time>
      </trkpt>
      <trkpt lat="45.90334" lon="6.17479">
        <ele>1215</ele>
        <time>2011-04-10T09:52:53Z</time>
      </trkpt>
      <trkpt lat="45.90335" lon="6.1748">
        <ele>1215</ele>
        <time>2011-04-10T09:52:54Z</time>
      </trkpt>
      <trkpt lat="45.90335" lon="6.17482">
        <ele>1215</ele>
        <time>2011-04-10T09:52:55Z</time>
      </trkpt>
      <trkpt lat="45.90335" lon="6.17483">
        <ele>1215</ele>
        <time>2011-04-10T09:52:56Z</time>
      </trkpt>
      <trkpt lat="45.90336" lon="6.17485">
        <ele>1215</ele>
        <time>2011-04-10T09:52:57Z</time>
      </trkpt>
      <trkpt lat="45.90336" lon="6.17485">
        <ele>1216</ele>
        <time>2011-04-10T09:52:58Z</time>
      </trkpt>
      <trkpt lat="45.90338" lon="6.17487">
        <ele>1216</ele>
        <time>2011-04-10T09:52:59Z</time>
      </trkpt>
      <trkpt lat="45.90337" lon="6.17488">
        <ele>1216</ele>
        <time>2011-04-10T09:53:00Z</time>
      </trkpt>
      <trkpt lat="45.90337" lon="6.1749">
        <ele>1217</ele>
        <time>2011-04-10T09:53:03Z</time>
      </trkpt>
      <trkpt lat="45.90336" lon="6.1749">
        <ele>1217</ele>
        <time>2011-04-10T09:53:04Z</time>
      </trkpt>
      <trkpt lat="45.90336" lon="6.17491">
        <ele>1217</ele>
        <time>2011-04-10T09:53:05Z</time>
      </trkpt>
      <trkpt lat="45.90338" lon="6.17492">
        <ele>1217</ele>
        <time>2011-04-10T09:53:06Z</time>
      </trkpt>
      <trkpt lat="45.90338" lon="6.17493">
        <ele>1217</ele>
        <time>2011-04-10T09:53:07Z</time>
      </trkpt>
      <trkpt lat="45.90339" lon="6.17494">
        <ele>1218</ele>
        <time>2011-04-10T09:53:08Z</time>
      </trkpt>
      <trkpt lat="45.90338" lon="6.17494">
        <ele>1218</ele>
        <time>2011-04-10T09:53:09Z</time>
      </trkpt>
      <trkpt lat="45.90338" lon="6.17496">
        <ele>1218</ele>
        <time>2011-04-10T09:53:10Z</time>
      </trkpt>
      <trkpt lat="45.90338" lon="6.17497">
        <ele>1218</ele>
        <time>2011-04-10T09:53:11Z</time>
      </trkpt>
      <trkpt lat="45.90338" lon="6.17498">
        <ele>1218</ele>
        <time>2011-04-10T09:53:12Z</time>
      </trkpt>
      <trkpt lat="45.90338" lon="6.17499">
        <ele>1218</ele>
        <time>2011-04-10T09:53:13Z</time>
      </trkpt>
      <trkpt lat="45.90338" lon="6.175">
        <ele>1218</ele>
        <time>2011-04-10T09:53:14Z</time>
      </trkpt>
      <trkpt lat="45.90339" lon="6.175">
        <ele>1218</ele>
        <time>2011-04-10T09:53:15Z</time>
      </trkpt>
      <trkpt lat="45.90339" lon="6.175">
        <ele>1218</ele>
        <time>2011-04-10T09:53:16Z</time>
      </trkpt>
      <trkpt lat="45.90338" lon="6.17501">
        <ele>1219</ele>
        <time>2011-04-10T09:53:17Z</time>
      </trkpt>
      <trkpt lat="45.90338" lon="6.17503">
        <ele>1219</ele>
        <time>2011-04-10T09:53:18Z</time>
      </trkpt>
      <trkpt lat="45.90338" lon="6.17504">
        <ele>1218</ele>
        <time>2011-04-10T09:53:19Z</time>
      </trkpt>
      <trkpt lat="45.90338" lon="6.17504">
        <ele>1219</ele>
        <time>2011-04-10T09:53:20Z</time>
      </trkpt>
      <trkpt lat="45.90339" lon="6.17505">
        <ele>1218</ele>
        <time>2011-04-10T09:53:21Z</time>
      </trkpt>
      <trkpt lat="45.9034" lon="6.17505">
        <ele>1219</ele>
        <time>2011-04-10T09:53:22Z</time>
      </trkpt>
      <trkpt lat="45.90338" lon="6.17506">
        <ele>1219</ele>
        <time>2011-04-10T09:53:23Z</time>
      </trkpt>
      <trkpt lat="45.90339" lon="6.17508">
        <ele>1219</ele>
        <time>2011-04-10T09:53:24Z</time>
      </trkpt>
      <trkpt lat="45.90338" lon="6.17508">
        <ele>1219</ele>
        <time>2011-04-10T09:53:25Z</time>
      </trkpt>
      <trkpt lat="45.90338" lon="6.1751">
        <ele>1219</ele>
        <time>2011-04-10T09:53:26Z</time>
      </trkpt>
      <trkpt lat="45.90338" lon="6.1751">
        <ele>1219</ele>
        <time>2011-04-10T09:53:27Z</time>
      </trkpt>
      <trkpt lat="45.90338" lon="6.17511">
        <ele>1219</ele>
        <time>2011-04-10T09:53:28Z</time>
      </trkpt>
      <trkpt lat="45.90338" lon="6.17511">
        <ele>1220</ele>
        <time>2011-04-10T09:53:29Z</time>
      </trkpt>
      <trkpt lat="45.90338" lon="6.17512">
        <ele>1220</ele>
        <time>2011-04-10T09:53:30Z</time>
      </trkpt>
      <trkpt lat="45.90338" lon="6.17514">
        <ele>1220</ele>
        <time>2011-04-10T09:53:31Z</time>
      </trkpt>
      <trkpt lat="45.90336" lon="6.17516">
        <ele>1220</ele>
        <time>2011-04-10T09:53:32Z</time>
      </trkpt>
      <trkpt lat="45.90336" lon="6.17519">
        <ele>1220</ele>
        <time>2011-04-10T09:53:33Z</time>
      </trkpt>
      <trkpt lat="45.90335" lon="6.17521">
        <ele>1220</ele>
        <time>2011-04-10T09:53:34Z</time>
      </trkpt>
      <trkpt lat="45.90336" lon="6.17522">
        <ele>1220</ele>
        <time>2011-04-10T09:53:35Z</time>
      </trkpt>
      <trkpt lat="45.90335" lon="6.17523">
        <ele>1221</ele>
        <time>2011-04-10T09:53:36Z</time>
      </trkpt>
      <trkpt lat="45.90335" lon="6.17523">
        <ele>1221</ele>
        <time>2011-04-10T09:53:37Z</time>
      </trkpt>
      <trkpt lat="45.90335" lon="6.17523">
        <ele>1221</ele>
        <time>2011-04-10T09:53:38Z</time>
      </trkpt>
      <trkpt lat="45.90334" lon="6.17523">
        <ele>1221</ele>
        <time>2011-04-10T09:53:39Z</time>
      </trkpt>
      <trkpt lat="45.90333" lon="6.17524">
        <ele>1221</ele>
        <time>2011-04-10T09:53:40Z</time>
      </trkpt>
      <trkpt lat="45.90331" lon="6.17526">
        <ele>1222</ele>
        <time>2011-04-10T09:53:41Z</time>
      </trkpt>
      <trkpt lat="45.90331" lon="6.17528">
        <ele>1222</ele>
        <time>2011-04-10T09:53:42Z</time>
      </trkpt>
      <trkpt lat="45.90331" lon="6.17528">
        <ele>1222</ele>
        <time>2011-04-10T09:53:43Z</time>
      </trkpt>
      <trkpt lat="45.90331" lon="6.17529">
        <ele>1222</ele>
        <time>2011-04-10T09:53:44Z</time>
      </trkpt>
      <trkpt lat="45.90332" lon="6.17531">
        <ele>1222</ele>
        <time>2011-04-10T09:53:45Z</time>
      </trkpt>
      <trkpt lat="45.90331" lon="6.17533">
        <ele>1222</ele>
        <time>2011-04-10T09:53:46Z</time>
      </trkpt>
      <trkpt lat="45.90332" lon="6.17535">
        <ele>1222</ele>
        <time>2011-04-10T09:53:47Z</time>
      </trkpt>
      <trkpt lat="45.90331" lon="6.17537">
        <ele>1222</ele>
        <time>2011-04-10T09:53:48Z</time>
      </trkpt>
      <trkpt lat="45.90331" lon="6.17537">
        <ele>1222</ele>
        <time>2011-04-10T09:53:49Z</time>
      </trkpt>
      <trkpt lat="45.90332" lon="6.17539">
        <ele>1222</ele>
        <time>2011-04-10T09:53:50Z</time>
      </trkpt>
      <trkpt lat="45.90332" lon="6.1754">
        <ele>1222</ele>
        <time>2011-04-10T09:53:51Z</time>
      </trkpt>
      <trkpt lat="45.90333" lon="6.1754">
        <ele>1222</ele>
        <time>2011-04-10T09:53:52Z</time>
      </trkpt>
      <trkpt lat="45.90334" lon="6.17541">
        <ele>1222</ele>
        <time>2011-04-10T09:53:53Z</time>
      </trkpt>
      <trkpt lat="45.90334" lon="6.17542">
        <ele>1222</ele>
        <time>2011-04-10T09:53:54Z</time>
      </trkpt>
      <trkpt lat="45.90335" lon="6.17543">
        <ele>1222</ele>
        <time>2011-04-10T09:53:55Z</time>
      </trkpt>
      <trkpt lat="45.90334" lon="6.17543">
        <ele>1222</ele>
        <time>2011-04-10T09:53:56Z</time>
      </trkpt>
      <trkpt lat="45.90335" lon="6.17544">
        <ele>1222</ele>
        <time>2011-04-10T09:53:57Z</time>
      </trkpt>
      <trkpt lat="45.90336" lon="6.17544">
        <ele>1222</ele>
        <time>2011-04-10T09:53:58Z</time>
      </trkpt>
      <trkpt lat="45.90335" lon="6.17544">
        <ele>1222</ele>
        <time>2011-04-10T09:53:59Z</time>
      </trkpt>
      <trkpt lat="45.90335" lon="6.17545">
        <ele>1222</ele>
        <time>2011-04-10T09:54:00Z</time>
      </trkpt>
      <trkpt lat="45.90335" lon="6.17546">
        <ele>1222</ele>
        <time>2011-04-10T09:54:01Z</time>
      </trkpt>
      <trkpt lat="45.90336" lon="6.17549">
        <ele>1222</ele>
        <time>2011-04-10T09:54:02Z</time>
      </trkpt>
      <trkpt lat="45.90337" lon="6.17548">
        <ele>1222</ele>
        <time>2011-04-10T09:54:03Z</time>
      </trkpt>
      <trkpt lat="45.90337" lon="6.17548">
        <ele>1222</ele>
        <time>2011-04-10T09:54:04Z</time>
      </trkpt>
      <trkpt lat="45.90336" lon="6.17548">
        <ele>1223</ele>
        <time>2011-04-10T09:54:05Z</time>
      </trkpt>
      <trkpt lat="45.90337" lon="6.17549">
        <ele>1223</ele>
        <time>2011-04-10T09:54:06Z</time>
      </trkpt>
      <trkpt lat="45.9034" lon="6.17553">
        <ele>1224</ele>
        <time>2011-04-10T09:54:07Z</time>
      </trkpt>
      <trkpt lat="45.90341" lon="6.17555">
        <ele>1224</ele>
        <time>2011-04-10T09:54:08Z</time>
      </trkpt>
      <trkpt lat="45.90341" lon="6.17554">
        <ele>1224</ele>
        <time>2011-04-10T09:54:09Z</time>
      </trkpt>
      <trkpt lat="45.90341" lon="6.17556">
        <ele>1225</ele>
        <time>2011-04-10T09:54:10Z</time>
      </trkpt>
      <trkpt lat="45.90342" lon="6.17556">
        <ele>1224</ele>
        <time>2011-04-10T09:54:11Z</time>
      </trkpt>
      <trkpt lat="45.90342" lon="6.17555">
        <ele>1224</ele>
        <time>2011-04-10T09:54:12Z</time>
      </trkpt>
      <trkpt lat="45.90342" lon="6.17555">
        <ele>1224</ele>
        <time>2011-04-10T09:54:13Z</time>
      </trkpt>
      <trkpt lat="45.90342" lon="6.17556">
        <ele>1225</ele>
        <time>2011-04-10T09:54:14Z</time>
      </trkpt>
      <trkpt lat="45.90344" lon="6.17555">
        <ele>1226</ele>
        <time>2011-04-10T09:54:15Z</time>
      </trkpt>
      <trkpt lat="45.90344" lon="6.17553">
        <ele>1226</ele>
        <time>2011-04-10T09:54:16Z</time>
      </trkpt>
      <trkpt lat="45.90345" lon="6.17553">
        <ele>1226</ele>
        <time>2011-04-10T09:54:17Z</time>
      </trkpt>
      <trkpt lat="45.90344" lon="6.17555">
        <ele>1226</ele>
        <time>2011-04-10T09:54:18Z</time>
      </trkpt>
      <trkpt lat="45.90344" lon="6.17555">
        <ele>1226</ele>
        <time>2011-04-10T09:54:19Z</time>
      </trkpt>
      <trkpt lat="45.90345" lon="6.17556">
        <ele>1225</ele>
        <time>2011-04-10T09:54:20Z</time>
      </trkpt>
      <trkpt lat="45.90345" lon="6.17555">
        <ele>1225</ele>
        <time>2011-04-10T09:54:21Z</time>
      </trkpt>
      <trkpt lat="45.90346" lon="6.17557">
        <ele>1226</ele>
        <time>2011-04-10T09:54:22Z</time>
      </trkpt>
      <trkpt lat="45.90346" lon="6.17558">
        <ele>1227</ele>
        <time>2011-04-10T09:54:23Z</time>
      </trkpt>
      <trkpt lat="45.90348" lon="6.17558">
        <ele>1227</ele>
        <time>2011-04-10T09:54:24Z</time>
      </trkpt>
      <trkpt lat="45.90349" lon="6.17559">
        <ele>1227</ele>
        <time>2011-04-10T09:54:25Z</time>
      </trkpt>
      <trkpt lat="45.9035" lon="6.1756">
        <ele>1227</ele>
        <time>2011-04-10T09:54:26Z</time>
      </trkpt>
      <trkpt lat="45.90351" lon="6.17561">
        <ele>1227</ele>
        <time>2011-04-10T09:54:27Z</time>
      </trkpt>
      <trkpt lat="45.90351" lon="6.17563">
        <ele>1227</ele>
        <time>2011-04-10T09:54:28Z</time>
      </trkpt>
      <trkpt lat="45.90352" lon="6.17563">
        <ele>1227</ele>
        <time>2011-04-10T09:54:29Z</time>
      </trkpt>
      <trkpt lat="45.9035" lon="6.17564">
        <ele>1227</ele>
        <time>2011-04-10T09:54:30Z</time>
      </trkpt>
      <trkpt lat="45.90349" lon="6.17565">
        <ele>1228</ele>
        <time>2011-04-10T09:54:31Z</time>
      </trkpt>
      <trkpt lat="45.9035" lon="6.17564">
        <ele>1228</ele>
        <time>2011-04-10T09:54:32Z</time>
      </trkpt>
      <trkpt lat="45.90351" lon="6.17565">
        <ele>1228</ele>
        <time>2011-04-10T09:54:33Z</time>
      </trkpt>
      <trkpt lat="45.9035" lon="6.17566">
        <ele>1229</ele>
        <time>2011-04-10T09:54:34Z</time>
      </trkpt>
      <trkpt lat="45.90351" lon="6.17565">
        <ele>1230</ele>
        <time>2011-04-10T09:54:35Z</time>
      </trkpt>
      <trkpt lat="45.90352" lon="6.17565">
        <ele>1230</ele>
        <time>2011-04-10T09:54:36Z</time>
      </trkpt>
      <trkpt lat="45.90352" lon="6.17564">
        <ele>1230</ele>
        <time>2011-04-10T09:54:37Z</time>
      </trkpt>
      <trkpt lat="45.90352" lon="6.17566">
        <ele>1231</ele>
        <time>2011-04-10T09:54:38Z</time>
      </trkpt>
      <trkpt lat="45.90353" lon="6.17567">
        <ele>1231</ele>
        <time>2011-04-10T09:54:39Z</time>
      </trkpt>
      <trkpt lat="45.90353" lon="6.17568">
        <ele>1231</ele>
        <time>2011-04-10T09:54:40Z</time>
      </trkpt>
      <trkpt lat="45.90355" lon="6.17568">
        <ele>1232</ele>
        <time>2011-04-10T09:54:41Z</time>
      </trkpt>
      <trkpt lat="45.90356" lon="6.1757">
        <ele>1232</ele>
        <time>2011-04-10T09:54:42Z</time>
      </trkpt>
      <trkpt lat="45.90356" lon="6.17571">
        <ele>1231</ele>
        <time>2011-04-10T09:54:43Z</time>
      </trkpt>
      <trkpt lat="45.90356" lon="6.1757">
        <ele>1232</ele>
        <time>2011-04-10T09:54:44Z</time>
      </trkpt>
      <trkpt lat="45.90357" lon="6.17571">
        <ele>1232</ele>
        <time>2011-04-10T09:54:45Z</time>
      </trkpt>
      <trkpt lat="45.90357" lon="6.17571">
        <ele>1232</ele>
        <time>2011-04-10T09:54:46Z</time>
      </trkpt>
      <trkpt lat="45.90357" lon="6.17571">
        <ele>1232</ele>
        <time>2011-04-10T09:54:47Z</time>
      </trkpt>
      <trkpt lat="45.90358" lon="6.1757">
        <ele>1233</ele>
        <time>2011-04-10T09:54:48Z</time>
      </trkpt>
      <trkpt lat="45.90359" lon="6.17569">
        <ele>1233</ele>
        <time>2011-04-10T09:54:49Z</time>
      </trkpt>
      <trkpt lat="45.90359" lon="6.17569">
        <ele>1233</ele>
        <time>2011-04-10T09:54:50Z</time>
      </trkpt>
      <trkpt lat="45.90359" lon="6.17568">
        <ele>1233</ele>
        <time>2011-04-10T09:54:51Z</time>
      </trkpt>
      <trkpt lat="45.9036" lon="6.17569">
        <ele>1233</ele>
        <time>2011-04-10T09:54:52Z</time>
      </trkpt>
      <trkpt lat="45.90362" lon="6.17567">
        <ele>1233</ele>
        <time>2011-04-10T09:54:53Z</time>
      </trkpt>
      <trkpt lat="45.90362" lon="6.17566">
        <ele>1233</ele>
        <time>2011-04-10T09:54:54Z</time>
      </trkpt>
      <trkpt lat="45.90362" lon="6.17567">
        <ele>1233</ele>
        <time>2011-04-10T09:54:55Z</time>
      </trkpt>
      <trkpt lat="45.90367" lon="6.17563">
        <ele>1233</ele>
        <time>2011-04-10T09:54:56Z</time>
      </trkpt>
      <trkpt lat="45.9037" lon="6.17563">
        <ele>1236</ele>
        <time>2011-04-10T09:54:57Z</time>
      </trkpt>
      <trkpt lat="45.90374" lon="6.17575">
        <ele>1236</ele>
        <time>2011-04-10T09:54:58Z</time>
      </trkpt>
      <trkpt lat="45.90366" lon="6.17567">
        <ele>1240</ele>
        <time>2011-04-10T09:54:59Z</time>
      </trkpt>
      <trkpt lat="45.90367" lon="6.17556">
        <ele>1238</ele>
        <time>2011-04-10T09:55:00Z</time>
      </trkpt>
      <trkpt lat="45.90367" lon="6.17556">
        <ele>1238</ele>
        <time>2011-04-10T09:55:01Z</time>
      </trkpt>
      <trkpt lat="45.90368" lon="6.17555">
        <ele>1237</ele>
        <time>2011-04-10T09:55:02Z</time>
      </trkpt>
      <trkpt lat="45.9037" lon="6.17557">
        <ele>1237</ele>
        <time>2011-04-10T09:55:03Z</time>
      </trkpt>
      <trkpt lat="45.90371" lon="6.17559">
        <ele>1238</ele>
        <time>2011-04-10T09:55:04Z</time>
      </trkpt>
      <trkpt lat="45.90372" lon="6.17562">
        <ele>1237</ele>
        <time>2011-04-10T09:55:05Z</time>
      </trkpt>
      <trkpt lat="45.90372" lon="6.17565">
        <ele>1237</ele>
        <time>2011-04-10T09:55:06Z</time>
      </trkpt>
      <trkpt lat="45.90373" lon="6.17565">
        <ele>1237</ele>
        <time>2011-04-10T09:55:07Z</time>
      </trkpt>
      <trkpt lat="45.90371" lon="6.17567">
        <ele>1237</ele>
        <time>2011-04-10T09:55:08Z</time>
      </trkpt>
      <trkpt lat="45.90371" lon="6.17566">
        <ele>1238</ele>
        <time>2011-04-10T09:55:09Z</time>
      </trkpt>
      <trkpt lat="45.90372" lon="6.17566">
        <ele>1238</ele>
        <time>2011-04-10T09:55:10Z</time>
      </trkpt>
      <trkpt lat="45.90371" lon="6.17566">
        <ele>1238</ele>
        <time>2011-04-10T09:55:11Z</time>
      </trkpt>
      <trkpt lat="45.90365" lon="6.17564">
        <ele>1239</ele>
        <time>2011-04-10T09:55:13Z</time>
      </trkpt>
      <trkpt lat="45.90364" lon="6.17563">
        <ele>1241</ele>
        <time>2011-04-10T09:55:15Z</time>
      </trkpt>
      <trkpt lat="45.90363" lon="6.17562">
        <ele>1241</ele>
        <time>2011-04-10T09:55:16Z</time>
      </trkpt>
      <trkpt lat="45.9036" lon="6.1756">
        <ele>1240</ele>
        <time>2011-04-10T09:55:17Z</time>
      </trkpt>
      <trkpt lat="45.9036" lon="6.17558">
        <ele>1240</ele>
        <time>2011-04-10T09:55:18Z</time>
      </trkpt>
      <trkpt lat="45.90359" lon="6.17558">
        <ele>1245</ele>
        <time>2011-04-10T09:56:37Z</time>
      </trkpt>
      <trkpt lat="45.90363" lon="6.17564">
        <ele>1249</ele>
        <time>2011-04-10T09:56:38Z</time>
      </trkpt>
      <trkpt lat="45.9036" lon="6.17566">
        <ele>1251</ele>
        <time>2011-04-10T09:56:39Z</time>
      </trkpt>
      <trkpt lat="45.9036" lon="6.17568">
        <ele>1252</ele>
        <time>2011-04-10T09:56:40Z</time>
      </trkpt>
      <trkpt lat="45.90359" lon="6.1757">
        <ele>1251</ele>
        <time>2011-04-10T09:56:41Z</time>
      </trkpt>
      <trkpt lat="45.90359" lon="6.17573">
        <ele>1251</ele>
        <time>2011-04-10T09:56:42Z</time>
      </trkpt>
      <trkpt lat="45.9036" lon="6.17577">
        <ele>1251</ele>
        <time>2011-04-10T09:56:43Z</time>
      </trkpt>
      <trkpt lat="45.9036" lon="6.1758">
        <ele>1250</ele>
        <time>2011-04-10T09:56:44Z</time>
      </trkpt>
      <trkpt lat="45.9036" lon="6.17583">
        <ele>1250</ele>
        <time>2011-04-10T09:56:45Z</time>
      </trkpt>
      <trkpt lat="45.90359" lon="6.17586">
        <ele>1250</ele>
        <time>2011-04-10T09:56:46Z</time>
      </trkpt>
      <trkpt lat="45.90359" lon="6.17588">
        <ele>1251</ele>
        <time>2011-04-10T09:56:47Z</time>
      </trkpt>
      <trkpt lat="45.9036" lon="6.1759">
        <ele>1251</ele>
        <time>2011-04-10T09:56:48Z</time>
      </trkpt>
      <trkpt lat="45.90361" lon="6.17588">
        <ele>1251</ele>
        <time>2011-04-10T09:56:49Z</time>
      </trkpt>
      <trkpt lat="45.9036" lon="6.17591">
        <ele>1251</ele>
        <time>2011-04-10T09:56:50Z</time>
      </trkpt>
      <trkpt lat="45.90359" lon="6.17594">
        <ele>1251</ele>
        <time>2011-04-10T09:56:51Z</time>
      </trkpt>
      <trkpt lat="45.90356" lon="6.17594">
        <ele>1254</ele>
        <time>2011-04-10T09:57:13Z</time>
      </trkpt>
      <trkpt lat="45.90356" lon="6.17596">
        <ele>1254</ele>
        <time>2011-04-10T09:57:14Z</time>
      </trkpt>
      <trkpt lat="45.90355" lon="6.176">
        <ele>1254</ele>
        <time>2011-04-10T09:57:15Z</time>
      </trkpt>
      <trkpt lat="45.90353" lon="6.17601">
        <ele>1254</ele>
        <time>2011-04-10T09:57:16Z</time>
      </trkpt>
      <trkpt lat="45.90353" lon="6.17602">
        <ele>1254</ele>
        <time>2011-04-10T09:57:17Z</time>
      </trkpt>
      <trkpt lat="45.90351" lon="6.17602">
        <ele>1255</ele>
        <time>2011-04-10T09:57:18Z</time>
      </trkpt>
      <trkpt lat="45.90351" lon="6.17603">
        <ele>1255</ele>
        <time>2011-04-10T09:57:19Z</time>
      </trkpt>
      <trkpt lat="45.90351" lon="6.17603">
        <ele>1255</ele>
        <time>2011-04-10T09:57:20Z</time>
      </trkpt>
      <trkpt lat="45.9035" lon="6.17604">
        <ele>1255</ele>
        <time>2011-04-10T09:57:21Z</time>
      </trkpt>
      <trkpt lat="45.90349" lon="6.17607">
        <ele>1254</ele>
        <time>2011-04-10T09:57:22Z</time>
      </trkpt>
      <trkpt lat="45.90349" lon="6.17605">
        <ele>1255</ele>
        <time>2011-04-10T09:57:23Z</time>
      </trkpt>
      <trkpt lat="45.90349" lon="6.17604">
        <ele>1255</ele>
        <time>2011-04-10T09:57:24Z</time>
      </trkpt>
      <trkpt lat="45.90348" lon="6.17603">
        <ele>1256</ele>
        <time>2011-04-10T09:57:25Z</time>
      </trkpt>
      <trkpt lat="45.90346" lon="6.17604">
        <ele>1257</ele>
        <time>2011-04-10T09:57:50Z</time>
      </trkpt>
      <trkpt lat="45.90344" lon="6.17605">
        <ele>1258</ele>
        <time>2011-04-10T09:57:51Z</time>
      </trkpt>
      <trkpt lat="45.90343" lon="6.17608">
        <ele>1258</ele>
        <time>2011-04-10T09:57:52Z</time>
      </trkpt>
      <trkpt lat="45.90342" lon="6.17608">
        <ele>1258</ele>
        <time>2011-04-10T09:57:53Z</time>
      </trkpt>
      <trkpt lat="45.90337" lon="6.17612">
        <ele>1260</ele>
        <time>2011-04-10T09:58:24Z</time>
      </trkpt>
      <trkpt lat="45.90337" lon="6.17612">
        <ele>1260</ele>
        <time>2011-04-10T09:58:25Z</time>
      </trkpt>
      <trkpt lat="45.90335" lon="6.17613">
        <ele>1260</ele>
        <time>2011-04-10T09:58:26Z</time>
      </trkpt>
      <trkpt lat="45.90333" lon="6.17616">
        <ele>1260</ele>
        <time>2011-04-10T09:58:27Z</time>
      </trkpt>
      <trkpt lat="45.90331" lon="6.1762">
        <ele>1260</ele>
        <time>2011-04-10T09:58:28Z</time>
      </trkpt>
      <trkpt lat="45.90328" lon="6.17623">
        <ele>1259</ele>
        <time>2011-04-10T09:58:29Z</time>
      </trkpt>
      <trkpt lat="45.90328" lon="6.17623">
        <ele>1260</ele>
        <time>2011-04-10T09:58:30Z</time>
      </trkpt>
      <trkpt lat="45.90327" lon="6.17624">
        <ele>1259</ele>
        <time>2011-04-10T09:58:31Z</time>
      </trkpt>
      <trkpt lat="45.90324" lon="6.17628">
        <ele>1262</ele>
        <time>2011-04-10T09:58:57Z</time>
      </trkpt>
      <trkpt lat="45.90323" lon="6.17629">
        <ele>1262</ele>
        <time>2011-04-10T09:58:58Z</time>
      </trkpt>
      <trkpt lat="45.90323" lon="6.17631">
        <ele>1263</ele>
        <time>2011-04-10T09:58:59Z</time>
      </trkpt>
      <trkpt lat="45.90321" lon="6.17632">
        <ele>1262</ele>
        <time>2011-04-10T09:59:00Z</time>
      </trkpt>
      <trkpt lat="45.90318" lon="6.17636">
        <ele>1262</ele>
        <time>2011-04-10T09:59:02Z</time>
      </trkpt>
      <trkpt lat="45.90316" lon="6.17638">
        <ele>1262</ele>
        <time>2011-04-10T09:59:03Z</time>
      </trkpt>
      <trkpt lat="45.90314" lon="6.17641">
        <ele>1263</ele>
        <time>2011-04-10T09:59:04Z</time>
      </trkpt>
      <trkpt lat="45.90313" lon="6.17643">
        <ele>1264</ele>
        <time>2011-04-10T09:59:05Z</time>
      </trkpt>
      <trkpt lat="45.90312" lon="6.17644">
        <ele>1265</ele>
        <time>2011-04-10T09:59:06Z</time>
      </trkpt>
      <trkpt lat="45.90312" lon="6.17644">
        <ele>1265</ele>
        <time>2011-04-10T09:59:07Z</time>
      </trkpt>
      <trkpt lat="45.90313" lon="6.17644">
        <ele>1265</ele>
        <time>2011-04-10T09:59:08Z</time>
      </trkpt>
      <trkpt lat="45.90311" lon="6.17645">
        <ele>1266</ele>
        <time>2011-04-10T09:59:09Z</time>
      </trkpt>
      <trkpt lat="45.9031" lon="6.17646">
        <ele>1266</ele>
        <time>2011-04-10T09:59:10Z</time>
      </trkpt>
      <trkpt lat="45.90308" lon="6.17647">
        <ele>1268</ele>
        <time>2011-04-10T09:59:11Z</time>
      </trkpt>
      <trkpt lat="45.90307" lon="6.17647">
        <ele>1268</ele>
        <time>2011-04-10T09:59:12Z</time>
      </trkpt>
      <trkpt lat="45.90304" lon="6.17649">
        <ele>1269</ele>
        <time>2011-04-10T09:59:13Z</time>
      </trkpt>
      <trkpt lat="45.90304" lon="6.1765">
        <ele>1271</ele>
        <time>2011-04-10T09:59:14Z</time>
      </trkpt>
      <trkpt lat="45.90302" lon="6.17651">
        <ele>1272</ele>
        <time>2011-04-10T09:59:15Z</time>
      </trkpt>
      <trkpt lat="45.90301" lon="6.17652">
        <ele>1271</ele>
        <time>2011-04-10T09:59:16Z</time>
      </trkpt>
      <trkpt lat="45.903" lon="6.17652">
        <ele>1272</ele>
        <time>2011-04-10T09:59:17Z</time>
      </trkpt>
      <trkpt lat="45.90299" lon="6.17651">
        <ele>1272</ele>
        <time>2011-04-10T09:59:18Z</time>
      </trkpt>
      <trkpt lat="45.90297" lon="6.17651">
        <ele>1272</ele>
        <time>2011-04-10T09:59:19Z</time>
      </trkpt>
      <trkpt lat="45.90295" lon="6.17653">
        <ele>1273</ele>
        <time>2011-04-10T09:59:20Z</time>
      </trkpt>
      <trkpt lat="45.90293" lon="6.17652">
        <ele>1272</ele>
        <time>2011-04-10T09:59:21Z</time>
      </trkpt>
      <trkpt lat="45.90292" lon="6.17653">
        <ele>1273</ele>
        <time>2011-04-10T09:59:22Z</time>
      </trkpt>
      <trkpt lat="45.90293" lon="6.17652">
        <ele>1272</ele>
        <time>2011-04-10T09:59:24Z</time>
      </trkpt>
      <trkpt lat="45.90292" lon="6.17652">
        <ele>1272</ele>
        <time>2011-04-10T09:59:25Z</time>
      </trkpt>
      <trkpt lat="45.90291" lon="6.17653">
        <ele>1272</ele>
        <time>2011-04-10T09:59:59Z</time>
      </trkpt>
      <trkpt lat="45.90291" lon="6.17656">
        <ele>1272</ele>
        <time>2011-04-10T10:00:00Z</time>
      </trkpt>
      <trkpt lat="45.90285" lon="6.17662">
        <ele>1273</ele>
        <time>2011-04-10T10:00:05Z</time>
      </trkpt>
      <trkpt lat="45.90283" lon="6.17663">
        <ele>1275</ele>
        <time>2011-04-10T10:00:07Z</time>
      </trkpt>
      <trkpt lat="45.90281" lon="6.17665">
        <ele>1275</ele>
        <time>2011-04-10T10:00:08Z</time>
      </trkpt>
      <trkpt lat="45.90276" lon="6.17665">
        <ele>1275</ele>
        <time>2011-04-10T10:00:09Z</time>
      </trkpt>
      <trkpt lat="45.90273" lon="6.1767">
        <ele>1275</ele>
        <time>2011-04-10T10:00:10Z</time>
      </trkpt>
      <trkpt lat="45.90269" lon="6.17675">
        <ele>1274</ele>
        <time>2011-04-10T10:00:11Z</time>
      </trkpt>
      <trkpt lat="45.90271" lon="6.17677">
        <ele>1275</ele>
        <time>2011-04-10T10:00:12Z</time>
      </trkpt>
      <trkpt lat="45.90272" lon="6.17675">
        <ele>1275</ele>
        <time>2011-04-10T10:00:13Z</time>
      </trkpt>
      <trkpt lat="45.90271" lon="6.17675">
        <ele>1276</ele>
        <time>2011-04-10T10:00:14Z</time>
      </trkpt>
      <trkpt lat="45.9027" lon="6.17676">
        <ele>1275</ele>
        <time>2011-04-10T10:00:15Z</time>
      </trkpt>
      <trkpt lat="45.90271" lon="6.17679">
        <ele>1275</ele>
        <time>2011-04-10T10:00:16Z</time>
      </trkpt>
      <trkpt lat="45.90267" lon="6.1768">
        <ele>1274</ele>
        <time>2011-04-10T10:00:18Z</time>
      </trkpt>
      <trkpt lat="45.90267" lon="6.17681">
        <ele>1274</ele>
        <time>2011-04-10T10:00:19Z</time>
      </trkpt>
      <trkpt lat="45.90268" lon="6.17682">
        <ele>1274</ele>
        <time>2011-04-10T10:00:20Z</time>
      </trkpt>
      <trkpt lat="45.90267" lon="6.17684">
        <ele>1274</ele>
        <time>2011-04-10T10:00:21Z</time>
      </trkpt>
      <trkpt lat="45.90266" lon="6.17685">
        <ele>1274</ele>
        <time>2011-04-10T10:00:22Z</time>
      </trkpt>
      <trkpt lat="45.90265" lon="6.17689">
        <ele>1274</ele>
        <time>2011-04-10T10:00:23Z</time>
      </trkpt>
      <trkpt lat="45.90266" lon="6.17694">
        <ele>1275</ele>
        <time>2011-04-10T10:00:25Z</time>
      </trkpt>
      <trkpt lat="45.90266" lon="6.17696">
        <ele>1274</ele>
        <time>2011-04-10T10:00:26Z</time>
      </trkpt>
      <trkpt lat="45.90266" lon="6.17696">
        <ele>1275</ele>
        <time>2011-04-10T10:00:27Z</time>
      </trkpt>
      <trkpt lat="45.90266" lon="6.17698">
        <ele>1275</ele>
        <time>2011-04-10T10:00:28Z</time>
      </trkpt>
      <trkpt lat="45.90267" lon="6.177">
        <ele>1275</ele>
        <time>2011-04-10T10:00:30Z</time>
      </trkpt>
      <trkpt lat="45.90264" lon="6.177">
        <ele>1276</ele>
        <time>2011-04-10T10:00:32Z</time>
      </trkpt>
      <trkpt lat="45.90264" lon="6.17702">
        <ele>1276</ele>
        <time>2011-04-10T10:00:34Z</time>
      </trkpt>
      <trkpt lat="45.90263" lon="6.17704">
        <ele>1277</ele>
        <time>2011-04-10T10:00:35Z</time>
      </trkpt>
      <trkpt lat="45.90263" lon="6.17705">
        <ele>1277</ele>
        <time>2011-04-10T10:00:36Z</time>
      </trkpt>
      <trkpt lat="45.90262" lon="6.17705">
        <ele>1277</ele>
        <time>2011-04-10T10:00:37Z</time>
      </trkpt>
      <trkpt lat="45.90261" lon="6.17706">
        <ele>1277</ele>
        <time>2011-04-10T10:00:38Z</time>
      </trkpt>
      <trkpt lat="45.9026" lon="6.17707">
        <ele>1277</ele>
        <time>2011-04-10T10:00:40Z</time>
      </trkpt>
      <trkpt lat="45.90261" lon="6.17708">
        <ele>1277</ele>
        <time>2011-04-10T10:00:41Z</time>
      </trkpt>
      <trkpt lat="45.90261" lon="6.17708">
        <ele>1277</ele>
        <time>2011-04-10T10:00:42Z</time>
      </trkpt>
      <trkpt lat="45.90261" lon="6.17708">
        <ele>1277</ele>
        <time>2011-04-10T10:00:43Z</time>
      </trkpt>
      <trkpt lat="45.90259" lon="6.1771">
        <ele>1277</ele>
        <time>2011-04-10T10:00:44Z</time>
      </trkpt>
      <trkpt lat="45.90258" lon="6.1771">
        <ele>1277</ele>
        <time>2011-04-10T10:00:45Z</time>
      </trkpt>
      <trkpt lat="45.90256" lon="6.17712">
        <ele>1277</ele>
        <time>2011-04-10T10:00:46Z</time>
      </trkpt>
      <trkpt lat="45.90256" lon="6.17713">
        <ele>1276</ele>
        <time>2011-04-10T10:00:47Z</time>
      </trkpt>
      <trkpt lat="45.90255" lon="6.17714">
        <ele>1276</ele>
        <time>2011-04-10T10:00:48Z</time>
      </trkpt>
      <trkpt lat="45.90254" lon="6.17714">
        <ele>1277</ele>
        <time>2011-04-10T10:00:49Z</time>
      </trkpt>
      <trkpt lat="45.90254" lon="6.17715">
        <ele>1277</ele>
        <time>2011-04-10T10:00:50Z</time>
      </trkpt>
      <trkpt lat="45.90254" lon="6.17716">
        <ele>1277</ele>
        <time>2011-04-10T10:00:51Z</time>
      </trkpt>
      <trkpt lat="45.90253" lon="6.17717">
        <ele>1277</ele>
        <time>2011-04-10T10:00:52Z</time>
      </trkpt>
      <trkpt lat="45.90254" lon="6.17718">
        <ele>1277</ele>
        <time>2011-04-10T10:00:53Z</time>
      </trkpt>
      <trkpt lat="45.90253" lon="6.17716">
        <ele>1277</ele>
        <time>2011-04-10T10:00:54Z</time>
      </trkpt>
      <trkpt lat="45.90253" lon="6.17717">
        <ele>1278</ele>
        <time>2011-04-10T10:00:55Z</time>
      </trkpt>
      <trkpt lat="45.90252" lon="6.17716">
        <ele>1277</ele>
        <time>2011-04-10T10:00:56Z</time>
      </trkpt>
      <trkpt lat="45.90251" lon="6.17717">
        <ele>1277</ele>
        <time>2011-04-10T10:00:57Z</time>
      </trkpt>
      <trkpt lat="45.90251" lon="6.17717">
        <ele>1277</ele>
        <time>2011-04-10T10:00:58Z</time>
      </trkpt>
      <trkpt lat="45.9025" lon="6.17718">
        <ele>1278</ele>
        <time>2011-04-10T10:00:59Z</time>
      </trkpt>
      <trkpt lat="45.9025" lon="6.1772">
        <ele>1278</ele>
        <time>2011-04-10T10:01:00Z</time>
      </trkpt>
      <trkpt lat="45.90248" lon="6.17721">
        <ele>1280</ele>
        <time>2011-04-10T10:01:32Z</time>
      </trkpt>
      <trkpt lat="45.90247" lon="6.17724">
        <ele>1280</ele>
        <time>2011-04-10T10:01:33Z</time>
      </trkpt>
      <trkpt lat="45.90247" lon="6.17726">
        <ele>1281</ele>
        <time>2011-04-10T10:01:34Z</time>
      </trkpt>
      <trkpt lat="45.90247" lon="6.17728">
        <ele>1281</ele>
        <time>2011-04-10T10:01:35Z</time>
      </trkpt>
      <trkpt lat="45.90246" lon="6.17728">
        <ele>1281</ele>
        <time>2011-04-10T10:01:36Z</time>
      </trkpt>
      <trkpt lat="45.90245" lon="6.17732">
        <ele>1282</ele>
        <time>2011-04-10T10:01:37Z</time>
      </trkpt>
      <trkpt lat="45.90245" lon="6.17734">
        <ele>1281</ele>
        <time>2011-04-10T10:01:38Z</time>
      </trkpt>
      <trkpt lat="45.90245" lon="6.17738">
        <ele>1281</ele>
        <time>2011-04-10T10:01:39Z</time>
      </trkpt>
      <trkpt lat="45.90243" lon="6.17743">
        <ele>1281</ele>
        <time>2011-04-10T10:01:40Z</time>
      </trkpt>
      <trkpt lat="45.90243" lon="6.17744">
        <ele>1281</ele>
        <time>2011-04-10T10:01:41Z</time>
      </trkpt>
      <trkpt lat="45.90242" lon="6.17745">
        <ele>1281</ele>
        <time>2011-04-10T10:01:42Z</time>
      </trkpt>
      <trkpt lat="45.90242" lon="6.17749">
        <ele>1280</ele>
        <time>2011-04-10T10:01:43Z</time>
      </trkpt>
      <trkpt lat="45.90241" lon="6.17751">
        <ele>1281</ele>
        <time>2011-04-10T10:01:44Z</time>
      </trkpt>
      <trkpt lat="45.9024" lon="6.17751">
        <ele>1281</ele>
        <time>2011-04-10T10:01:45Z</time>
      </trkpt>
      <trkpt lat="45.9024" lon="6.17754">
        <ele>1281</ele>
        <time>2011-04-10T10:01:46Z</time>
      </trkpt>
      <trkpt lat="45.90238" lon="6.17755">
        <ele>1281</ele>
        <time>2011-04-10T10:01:47Z</time>
      </trkpt>
      <trkpt lat="45.90237" lon="6.17757">
        <ele>1280</ele>
        <time>2011-04-10T10:01:48Z</time>
      </trkpt>
      <trkpt lat="45.90233" lon="6.17759">
        <ele>1280</ele>
        <time>2011-04-10T10:01:49Z</time>
      </trkpt>
      <trkpt lat="45.90227" lon="6.17767">
        <ele>1280</ele>
        <time>2011-04-10T10:01:51Z</time>
      </trkpt>
      <trkpt lat="45.90224" lon="6.17771">
        <ele>1280</ele>
        <time>2011-04-10T10:01:52Z</time>
      </trkpt>
      <trkpt lat="45.90221" lon="6.17778">
        <ele>1280</ele>
        <time>2011-04-10T10:01:53Z</time>
      </trkpt>
      <trkpt lat="45.90222" lon="6.17777">
        <ele>1280</ele>
        <time>2011-04-10T10:01:54Z</time>
      </trkpt>
      <trkpt lat="45.90224" lon="6.17776">
        <ele>1280</ele>
        <time>2011-04-10T10:01:55Z</time>
      </trkpt>
      <trkpt lat="45.90224" lon="6.17777">
        <ele>1280</ele>
        <time>2011-04-10T10:01:56Z</time>
      </trkpt>
      <trkpt lat="45.90219" lon="6.17776">
        <ele>1280</ele>
        <time>2011-04-10T10:01:57Z</time>
      </trkpt>
      <trkpt lat="45.90226" lon="6.17774">
        <ele>1281</ele>
        <time>2011-04-10T10:01:58Z</time>
      </trkpt>
      <trkpt lat="45.90224" lon="6.17775">
        <ele>1281</ele>
        <time>2011-04-10T10:01:59Z</time>
      </trkpt>
      <trkpt lat="45.90222" lon="6.17773">
        <ele>1282</ele>
        <time>2011-04-10T10:02:00Z</time>
      </trkpt>
      <trkpt lat="45.90222" lon="6.17774">
        <ele>1284</ele>
        <time>2011-04-10T10:02:01Z</time>
      </trkpt>
      <trkpt lat="45.90222" lon="6.17776">
        <ele>1284</ele>
        <time>2011-04-10T10:02:02Z</time>
      </trkpt>
      <trkpt lat="45.90222" lon="6.17776">
        <ele>1284</ele>
        <time>2011-04-10T10:02:03Z</time>
      </trkpt>
      <trkpt lat="45.90223" lon="6.17776">
        <ele>1285</ele>
        <time>2011-04-10T10:02:04Z</time>
      </trkpt>
      <trkpt lat="45.90223" lon="6.17777">
        <ele>1284</ele>
        <time>2011-04-10T10:02:05Z</time>
      </trkpt>
      <trkpt lat="45.90222" lon="6.17778">
        <ele>1285</ele>
        <time>2011-04-10T10:02:06Z</time>
      </trkpt>
      <trkpt lat="45.90221" lon="6.17778">
        <ele>1286</ele>
        <time>2011-04-10T10:02:07Z</time>
      </trkpt>
      <trkpt lat="45.90222" lon="6.17779">
        <ele>1285</ele>
        <time>2011-04-10T10:02:08Z</time>
      </trkpt>
      <trkpt lat="45.90221" lon="6.17778">
        <ele>1285</ele>
        <time>2011-04-10T10:02:09Z</time>
      </trkpt>
      <trkpt lat="45.9022" lon="6.17779">
        <ele>1285</ele>
        <time>2011-04-10T10:02:10Z</time>
      </trkpt>
      <trkpt lat="45.90221" lon="6.17781">
        <ele>1284</ele>
        <time>2011-04-10T10:02:11Z</time>
      </trkpt>
      <trkpt lat="45.90218" lon="6.17784">
        <ele>1286</ele>
        <time>2011-04-10T10:02:13Z</time>
      </trkpt>
      <trkpt lat="45.90217" lon="6.17787">
        <ele>1285</ele>
        <time>2011-04-10T10:02:14Z</time>
      </trkpt>
      <trkpt lat="45.90219" lon="6.17787">
        <ele>1285</ele>
        <time>2011-04-10T10:02:15Z</time>
      </trkpt>
      <trkpt lat="45.9022" lon="6.17786">
        <ele>1285</ele>
        <time>2011-04-10T10:02:16Z</time>
      </trkpt>
      <trkpt lat="45.90219" lon="6.17785">
        <ele>1286</ele>
        <time>2011-04-10T10:02:17Z</time>
      </trkpt>
      <trkpt lat="45.90215" lon="6.17781">
        <ele>1285</ele>
        <time>2011-04-10T10:02:18Z</time>
      </trkpt>
      <trkpt lat="45.90215" lon="6.17787">
        <ele>1284</ele>
        <time>2011-04-10T10:02:19Z</time>
      </trkpt>
      <trkpt lat="45.90216" lon="6.17789">
        <ele>1285</ele>
        <time>2011-04-10T10:02:20Z</time>
      </trkpt>
      <trkpt lat="45.90216" lon="6.1779">
        <ele>1285</ele>
        <time>2011-04-10T10:02:21Z</time>
      </trkpt>
      <trkpt lat="45.90216" lon="6.17791">
        <ele>1285</ele>
        <time>2011-04-10T10:02:22Z</time>
      </trkpt>
      <trkpt lat="45.90217" lon="6.17789">
        <ele>1285</ele>
        <time>2011-04-10T10:02:23Z</time>
      </trkpt>
      <trkpt lat="45.90219" lon="6.17791">
        <ele>1285</ele>
        <time>2011-04-10T10:02:24Z</time>
      </trkpt>
      <trkpt lat="45.90221" lon="6.17793">
        <ele>1285</ele>
        <time>2011-04-10T10:02:25Z</time>
      </trkpt>
      <trkpt lat="45.90223" lon="6.17795">
        <ele>1285</ele>
        <time>2011-04-10T10:02:26Z</time>
      </trkpt>
      <trkpt lat="45.90222" lon="6.17794">
        <ele>1286</ele>
        <time>2011-04-10T10:02:27Z</time>
      </trkpt>
      <trkpt lat="45.90223" lon="6.17795">
        <ele>1286</ele>
        <time>2011-04-10T10:02:28Z</time>
      </trkpt>
      <trkpt lat="45.90223" lon="6.17795">
        <ele>1285</ele>
        <time>2011-04-10T10:02:29Z</time>
      </trkpt>
      <trkpt lat="45.90223" lon="6.17798">
        <ele>1286</ele>
        <time>2011-04-10T10:02:30Z</time>
      </trkpt>
      <trkpt lat="45.90223" lon="6.17801">
        <ele>1285</ele>
        <time>2011-04-10T10:02:31Z</time>
      </trkpt>
      <trkpt lat="45.90222" lon="6.17803">
        <ele>1285</ele>
        <time>2011-04-10T10:02:32Z</time>
      </trkpt>
      <trkpt lat="45.90222" lon="6.17806">
        <ele>1285</ele>
        <time>2011-04-10T10:02:33Z</time>
      </trkpt>
      <trkpt lat="45.90222" lon="6.17807">
        <ele>1284</ele>
        <time>2011-04-10T10:02:34Z</time>
      </trkpt>
      <trkpt lat="45.90222" lon="6.17807">
        <ele>1284</ele>
        <time>2011-04-10T10:02:35Z</time>
      </trkpt>
      <trkpt lat="45.90223" lon="6.17808">
        <ele>1284</ele>
        <time>2011-04-10T10:02:36Z</time>
      </trkpt>
      <trkpt lat="45.90223" lon="6.17808">
        <ele>1285</ele>
        <time>2011-04-10T10:02:37Z</time>
      </trkpt>
      <trkpt lat="45.90223" lon="6.17808">
        <ele>1285</ele>
        <time>2011-04-10T10:02:38Z</time>
      </trkpt>
      <trkpt lat="45.90222" lon="6.17808">
        <ele>1285</ele>
        <time>2011-04-10T10:02:39Z</time>
      </trkpt>
      <trkpt lat="45.90222" lon="6.17809">
        <ele>1286</ele>
        <time>2011-04-10T10:02:40Z</time>
      </trkpt>
      <trkpt lat="45.90223" lon="6.17808">
        <ele>1287</ele>
        <time>2011-04-10T10:02:41Z</time>
      </trkpt>
      <trkpt lat="45.90224" lon="6.17809">
        <ele>1287</ele>
        <time>2011-04-10T10:02:42Z</time>
      </trkpt>
      <trkpt lat="45.90225" lon="6.17808">
        <ele>1288</ele>
        <time>2011-04-10T10:02:43Z</time>
      </trkpt>
      <trkpt lat="45.90224" lon="6.17808">
        <ele>1287</ele>
        <time>2011-04-10T10:02:44Z</time>
      </trkpt>
      <trkpt lat="45.90225" lon="6.17808">
        <ele>1287</ele>
        <time>2011-04-10T10:02:45Z</time>
      </trkpt>
      <trkpt lat="45.90225" lon="6.17808">
        <ele>1287</ele>
        <time>2011-04-10T10:02:46Z</time>
      </trkpt>
      <trkpt lat="45.90226" lon="6.17809">
        <ele>1287</ele>
        <time>2011-04-10T10:02:47Z</time>
      </trkpt>
      <trkpt lat="45.90226" lon="6.1781">
        <ele>1288</ele>
        <time>2011-04-10T10:02:48Z</time>
      </trkpt>
      <trkpt lat="45.90226" lon="6.17812">
        <ele>1288</ele>
        <time>2011-04-10T10:02:49Z</time>
      </trkpt>
      <trkpt lat="45.90226" lon="6.17812">
        <ele>1287</ele>
        <time>2011-04-10T10:02:50Z</time>
      </trkpt>
      <trkpt lat="45.90227" lon="6.17814">
        <ele>1287</ele>
        <time>2011-04-10T10:02:51Z</time>
      </trkpt>
      <trkpt lat="45.90226" lon="6.17815">
        <ele>1287</ele>
        <time>2011-04-10T10:02:52Z</time>
      </trkpt>
      <trkpt lat="45.90226" lon="6.17814">
        <ele>1288</ele>
        <time>2011-04-10T10:02:53Z</time>
      </trkpt>
      <trkpt lat="45.90228" lon="6.17817">
        <ele>1289</ele>
        <time>2011-04-10T10:03:54Z</time>
      </trkpt>
      <trkpt lat="45.90226" lon="6.1782">
        <ele>1290</ele>
        <time>2011-04-10T10:03:55Z</time>
      </trkpt>
      <trkpt lat="45.90225" lon="6.17822">
        <ele>1291</ele>
        <time>2011-04-10T10:03:56Z</time>
      </trkpt>
      <trkpt lat="45.90223" lon="6.17826">
        <ele>1291</ele>
        <time>2011-04-10T10:03:57Z</time>
      </trkpt>
      <trkpt lat="45.90222" lon="6.17829">
        <ele>1291</ele>
        <time>2011-04-10T10:03:58Z</time>
      </trkpt>
      <trkpt lat="45.9022" lon="6.17831">
        <ele>1290</ele>
        <time>2011-04-10T10:03:59Z</time>
      </trkpt>
      <trkpt lat="45.9022" lon="6.17832">
        <ele>1290</ele>
        <time>2011-04-10T10:04:00Z</time>
      </trkpt>
      <trkpt lat="45.90218" lon="6.17837">
        <ele>1292</ele>
        <time>2011-04-10T10:04:02Z</time>
      </trkpt>
      <trkpt lat="45.90218" lon="6.17838">
        <ele>1292</ele>
        <time>2011-04-10T10:04:03Z</time>
      </trkpt>
      <trkpt lat="45.90216" lon="6.17839">
        <ele>1292</ele>
        <time>2011-04-10T10:04:04Z</time>
      </trkpt>
      <trkpt lat="45.90215" lon="6.17841">
        <ele>1294</ele>
        <time>2011-04-10T10:04:06Z</time>
      </trkpt>
      <trkpt lat="45.90215" lon="6.17843">
        <ele>1294</ele>
        <time>2011-04-10T10:04:07Z</time>
      </trkpt>
      <trkpt lat="45.90215" lon="6.17844">
        <ele>1293</ele>
        <time>2011-04-10T10:04:08Z</time>
      </trkpt>
      <trkpt lat="45.90214" lon="6.17845">
        <ele>1292</ele>
        <time>2011-04-10T10:04:09Z</time>
      </trkpt>
      <trkpt lat="45.90214" lon="6.17846">
        <ele>1293</ele>
        <time>2011-04-10T10:04:10Z</time>
      </trkpt>
      <trkpt lat="45.90213" lon="6.17846">
        <ele>1293</ele>
        <time>2011-04-10T10:04:11Z</time>
      </trkpt>
      <trkpt lat="45.90213" lon="6.17848">
        <ele>1292</ele>
        <time>2011-04-10T10:04:12Z</time>
      </trkpt>
      <trkpt lat="45.90213" lon="6.17851">
        <ele>1292</ele>
        <time>2011-04-10T10:04:13Z</time>
      </trkpt>
      <trkpt lat="45.90213" lon="6.17852">
        <ele>1292</ele>
        <time>2011-04-10T10:04:14Z</time>
      </trkpt>
      <trkpt lat="45.9021" lon="6.17849">
        <ele>1292</ele>
        <time>2011-04-10T10:04:15Z</time>
      </trkpt>
      <trkpt lat="45.90208" lon="6.17848">
        <ele>1292</ele>
        <time>2011-04-10T10:04:16Z</time>
      </trkpt>
      <trkpt lat="45.90211" lon="6.17851">
        <ele>1292</ele>
        <time>2011-04-10T10:04:17Z</time>
      </trkpt>
      <trkpt lat="45.90212" lon="6.17851">
        <ele>1293</ele>
        <time>2011-04-10T10:04:18Z</time>
      </trkpt>
      <trkpt lat="45.90212" lon="6.17851">
        <ele>1295</ele>
        <time>2011-04-10T10:04:19Z</time>
      </trkpt>
      <trkpt lat="45.90212" lon="6.1785">
        <ele>1297</ele>
        <time>2011-04-10T10:04:20Z</time>
      </trkpt>
      <trkpt lat="45.90213" lon="6.1785">
        <ele>1297</ele>
        <time>2011-04-10T10:04:21Z</time>
      </trkpt>
      <trkpt lat="45.90212" lon="6.17849">
        <ele>1298</ele>
        <time>2011-04-10T10:04:22Z</time>
      </trkpt>
      <trkpt lat="45.90211" lon="6.17847">
        <ele>1300</ele>
        <time>2011-04-10T10:04:23Z</time>
      </trkpt>
      <trkpt lat="45.90211" lon="6.17846">
        <ele>1300</ele>
        <time>2011-04-10T10:04:24Z</time>
      </trkpt>
      <trkpt lat="45.9021" lon="6.17845">
        <ele>1300</ele>
        <time>2011-04-10T10:04:25Z</time>
      </trkpt>
      <trkpt lat="45.90209" lon="6.17845">
        <ele>1300</ele>
        <time>2011-04-10T10:04:26Z</time>
      </trkpt>
      <trkpt lat="45.90209" lon="6.17846">
        <ele>1300</ele>
        <time>2011-04-10T10:04:27Z</time>
      </trkpt>
      <trkpt lat="45.90209" lon="6.17843">
        <ele>1301</ele>
        <time>2011-04-10T10:04:28Z</time>
      </trkpt>
      <trkpt lat="45.90208" lon="6.17842">
        <ele>1302</ele>
        <time>2011-04-10T10:04:29Z</time>
      </trkpt>
      <trkpt lat="45.90208" lon="6.17842">
        <ele>1302</ele>
        <time>2011-04-10T10:04:30Z</time>
      </trkpt>
      <trkpt lat="45.90208" lon="6.17844">
        <ele>1302</ele>
        <time>2011-04-10T10:04:31Z</time>
      </trkpt>
      <trkpt lat="45.9021" lon="6.17847">
        <ele>1304</ele>
        <time>2011-04-10T10:04:48Z</time>
      </trkpt>
      <trkpt lat="45.9021" lon="6.17847">
        <ele>1304</ele>
        <time>2011-04-10T10:04:49Z</time>
      </trkpt>
      <trkpt lat="45.9021" lon="6.17849">
        <ele>1304</ele>
        <time>2011-04-10T10:04:50Z</time>
      </trkpt>
      <trkpt lat="45.9021" lon="6.1785">
        <ele>1305</ele>
        <time>2011-04-10T10:05:28Z</time>
      </trkpt>
      <trkpt lat="45.90206" lon="6.17852">
        <ele>1306</ele>
        <time>2011-04-10T10:05:29Z</time>
      </trkpt>
      <trkpt lat="45.90205" lon="6.17853">
        <ele>1307</ele>
        <time>2011-04-10T10:05:30Z</time>
      </trkpt>
      <trkpt lat="45.90205" lon="6.17855">
        <ele>1306</ele>
        <time>2011-04-10T10:05:31Z</time>
      </trkpt>
      <trkpt lat="45.90204" lon="6.17858">
        <ele>1306</ele>
        <time>2011-04-10T10:05:54Z</time>
      </trkpt>
      <trkpt lat="45.90202" lon="6.17861">
        <ele>1306</ele>
        <time>2011-04-10T10:05:55Z</time>
      </trkpt>
      <trkpt lat="45.902" lon="6.17864">
        <ele>1305</ele>
        <time>2011-04-10T10:05:56Z</time>
      </trkpt>
      <trkpt lat="45.90201" lon="6.17866">
        <ele>1304</ele>
        <time>2011-04-10T10:05:57Z</time>
      </trkpt>
      <trkpt lat="45.902" lon="6.17866">
        <ele>1305</ele>
        <time>2011-04-10T10:05:58Z</time>
      </trkpt>
      <trkpt lat="45.90199" lon="6.17867">
        <ele>1305</ele>
        <time>2011-04-10T10:05:59Z</time>
      </trkpt>
      <trkpt lat="45.90199" lon="6.17868">
        <ele>1304</ele>
        <time>2011-04-10T10:06:00Z</time>
      </trkpt>
      <trkpt lat="45.90198" lon="6.1787">
        <ele>1304</ele>
        <time>2011-04-10T10:06:01Z</time>
      </trkpt>
      <trkpt lat="45.90198" lon="6.17871">
        <ele>1304</ele>
        <time>2011-04-10T10:06:02Z</time>
      </trkpt>
      <trkpt lat="45.90197" lon="6.17871">
        <ele>1305</ele>
        <time>2011-04-10T10:06:03Z</time>
      </trkpt>
      <trkpt lat="45.90198" lon="6.17871">
        <ele>1305</ele>
        <time>2011-04-10T10:06:04Z</time>
      </trkpt>
      <trkpt lat="45.90198" lon="6.17872">
        <ele>1305</ele>
        <time>2011-04-10T10:06:05Z</time>
      </trkpt>
      <trkpt lat="45.90198" lon="6.17872">
        <ele>1305</ele>
        <time>2011-04-10T10:06:06Z</time>
      </trkpt>
      <trkpt lat="45.90198" lon="6.17873">
        <ele>1305</ele>
        <time>2011-04-10T10:06:07Z</time>
      </trkpt>
      <trkpt lat="45.902" lon="6.17874">
        <ele>1305</ele>
        <time>2011-04-10T10:06:08Z</time>
      </trkpt>
      <trkpt lat="45.90199" lon="6.17875">
        <ele>1305</ele>
        <time>2011-04-10T10:06:09Z</time>
      </trkpt>
      <trkpt lat="45.902" lon="6.17875">
        <ele>1305</ele>
        <time>2011-04-10T10:06:10Z</time>
      </trkpt>
      <trkpt lat="45.90201" lon="6.17876">
        <ele>1305</ele>
        <time>2011-04-10T10:06:11Z</time>
      </trkpt>
      <trkpt lat="45.90201" lon="6.17877">
        <ele>1305</ele>
        <time>2011-04-10T10:06:12Z</time>
      </trkpt>
      <trkpt lat="45.90201" lon="6.17878">
        <ele>1306</ele>
        <time>2011-04-10T10:06:13Z</time>
      </trkpt>
      <trkpt lat="45.90201" lon="6.17879">
        <ele>1306</ele>
        <time>2011-04-10T10:06:14Z</time>
      </trkpt>
      <trkpt lat="45.90201" lon="6.1788">
        <ele>1306</ele>
        <time>2011-04-10T10:06:15Z</time>
      </trkpt>
      <trkpt lat="45.90202" lon="6.1788">
        <ele>1306</ele>
        <time>2011-04-10T10:06:16Z</time>
      </trkpt>
      <trkpt lat="45.90201" lon="6.17882">
        <ele>1306</ele>
        <time>2011-04-10T10:06:17Z</time>
      </trkpt>
      <trkpt lat="45.902" lon="6.17883">
        <ele>1306</ele>
        <time>2011-04-10T10:06:18Z</time>
      </trkpt>
      <trkpt lat="45.90199" lon="6.17883">
        <ele>1306</ele>
        <time>2011-04-10T10:06:19Z</time>
      </trkpt>
      <trkpt lat="45.90198" lon="6.17884">
        <ele>1307</ele>
        <time>2011-04-10T10:06:20Z</time>
      </trkpt>
      <trkpt lat="45.90199" lon="6.17884">
        <ele>1306</ele>
        <time>2011-04-10T10:06:21Z</time>
      </trkpt>
      <trkpt lat="45.90197" lon="6.17885">
        <ele>1307</ele>
        <time>2011-04-10T10:06:22Z</time>
      </trkpt>
      <trkpt lat="45.90198" lon="6.17885">
        <ele>1306</ele>
        <time>2011-04-10T10:06:23Z</time>
      </trkpt>
      <trkpt lat="45.90197" lon="6.17886">
        <ele>1307</ele>
        <time>2011-04-10T10:06:24Z</time>
      </trkpt>
      <trkpt lat="45.90197" lon="6.17884">
        <ele>1306</ele>
        <time>2011-04-10T10:06:25Z</time>
      </trkpt>
      <trkpt lat="45.90197" lon="6.17884">
        <ele>1307</ele>
        <time>2011-04-10T10:06:26Z</time>
      </trkpt>
      <trkpt lat="45.90196" lon="6.17886">
        <ele>1307</ele>
        <time>2011-04-10T10:06:27Z</time>
      </trkpt>
      <trkpt lat="45.90197" lon="6.17888">
        <ele>1308</ele>
        <time>2011-04-10T10:06:28Z</time>
      </trkpt>
      <trkpt lat="45.90197" lon="6.17888">
        <ele>1308</ele>
        <time>2011-04-10T10:06:29Z</time>
      </trkpt>
      <trkpt lat="45.90198" lon="6.17889">
        <ele>1307</ele>
        <time>2011-04-10T10:06:30Z</time>
      </trkpt>
      <trkpt lat="45.90198" lon="6.17889">
        <ele>1306</ele>
        <time>2011-04-10T10:06:31Z</time>
      </trkpt>
      <trkpt lat="45.90198" lon="6.17892">
        <ele>1307</ele>
        <time>2011-04-10T10:06:32Z</time>
      </trkpt>
      <trkpt lat="45.90196" lon="6.17898">
        <ele>1307</ele>
        <time>2011-04-10T10:06:49Z</time>
      </trkpt>
      <trkpt lat="45.90195" lon="6.17902">
        <ele>1307</ele>
        <time>2011-04-10T10:06:50Z</time>
      </trkpt>
      <trkpt lat="45.9019" lon="6.17905">
        <ele>1306</ele>
        <time>2011-04-10T10:06:51Z</time>
      </trkpt>
      <trkpt lat="45.9019" lon="6.17908">
        <ele>1306</ele>
        <time>2011-04-10T10:06:52Z</time>
      </trkpt>
      <trkpt lat="45.90191" lon="6.17908">
        <ele>1305</ele>
        <time>2011-04-10T10:06:53Z</time>
      </trkpt>
      <trkpt lat="45.90191" lon="6.17909">
        <ele>1305</ele>
        <time>2011-04-10T10:06:54Z</time>
      </trkpt>
      <trkpt lat="45.90192" lon="6.1791">
        <ele>1306</ele>
        <time>2011-04-10T10:06:55Z</time>
      </trkpt>
      <trkpt lat="45.90191" lon="6.17912">
        <ele>1307</ele>
        <time>2011-04-10T10:06:56Z</time>
      </trkpt>
      <trkpt lat="45.90191" lon="6.17916">
        <ele>1307</ele>
        <time>2011-04-10T10:06:57Z</time>
      </trkpt>
      <trkpt lat="45.90192" lon="6.17919">
        <ele>1306</ele>
        <time>2011-04-10T10:06:58Z</time>
      </trkpt>
      <trkpt lat="45.90191" lon="6.1792">
        <ele>1307</ele>
        <time>2011-04-10T10:06:59Z</time>
      </trkpt>
      <trkpt lat="45.9019" lon="6.17922">
        <ele>1308</ele>
        <time>2011-04-10T10:07:00Z</time>
      </trkpt>
      <trkpt lat="45.9019" lon="6.17923">
        <ele>1308</ele>
        <time>2011-04-10T10:07:01Z</time>
      </trkpt>
      <trkpt lat="45.9019" lon="6.17924">
        <ele>1308</ele>
        <time>2011-04-10T10:07:02Z</time>
      </trkpt>
      <trkpt lat="45.90188" lon="6.17925">
        <ele>1308</ele>
        <time>2011-04-10T10:07:03Z</time>
      </trkpt>
      <trkpt lat="45.90188" lon="6.17926">
        <ele>1309</ele>
        <time>2011-04-10T10:07:04Z</time>
      </trkpt>
      <trkpt lat="45.90189" lon="6.17928">
        <ele>1307</ele>
        <time>2011-04-10T10:07:07Z</time>
      </trkpt>
      <trkpt lat="45.90189" lon="6.17929">
        <ele>1307</ele>
        <time>2011-04-10T10:07:08Z</time>
      </trkpt>
      <trkpt lat="45.90189" lon="6.17929">
        <ele>1308</ele>
        <time>2011-04-10T10:07:09Z</time>
      </trkpt>
      <trkpt lat="45.90188" lon="6.1793">
        <ele>1308</ele>
        <time>2011-04-10T10:07:10Z</time>
      </trkpt>
      <trkpt lat="45.90188" lon="6.17931">
        <ele>1308</ele>
        <time>2011-04-10T10:07:11Z</time>
      </trkpt>
      <trkpt lat="45.90187" lon="6.17932">
        <ele>1308</ele>
        <time>2011-04-10T10:07:12Z</time>
      </trkpt>
      <trkpt lat="45.90188" lon="6.17934">
        <ele>1308</ele>
        <time>2011-04-10T10:07:13Z</time>
      </trkpt>
      <trkpt lat="45.90188" lon="6.17935">
        <ele>1308</ele>
        <time>2011-04-10T10:07:14Z</time>
      </trkpt>
      <trkpt lat="45.90189" lon="6.17937">
        <ele>1309</ele>
        <time>2011-04-10T10:07:15Z</time>
      </trkpt>
      <trkpt lat="45.90188" lon="6.17939">
        <ele>1309</ele>
        <time>2011-04-10T10:07:16Z</time>
      </trkpt>
      <trkpt lat="45.90188" lon="6.17941">
        <ele>1309</ele>
        <time>2011-04-10T10:07:17Z</time>
      </trkpt>
      <trkpt lat="45.90187" lon="6.17942">
        <ele>1310</ele>
        <time>2011-04-10T10:07:18Z</time>
      </trkpt>
      <trkpt lat="45.90187" lon="6.17942">
        <ele>1309</ele>
        <time>2011-04-10T10:07:19Z</time>
      </trkpt>
      <trkpt lat="45.90188" lon="6.17944">
        <ele>1310</ele>
        <time>2011-04-10T10:07:20Z</time>
      </trkpt>
      <trkpt lat="45.90188" lon="6.17944">
        <ele>1311</ele>
        <time>2011-04-10T10:07:21Z</time>
      </trkpt>
      <trkpt lat="45.90189" lon="6.17945">
        <ele>1310</ele>
        <time>2011-04-10T10:07:22Z</time>
      </trkpt>
      <trkpt lat="45.9019" lon="6.17946">
        <ele>1310</ele>
        <time>2011-04-10T10:07:23Z</time>
      </trkpt>
      <trkpt lat="45.9019" lon="6.17946">
        <ele>1310</ele>
        <time>2011-04-10T10:07:24Z</time>
      </trkpt>
      <trkpt lat="45.90189" lon="6.17947">
        <ele>1310</ele>
        <time>2011-04-10T10:07:25Z</time>
      </trkpt>
      <trkpt lat="45.90189" lon="6.17948">
        <ele>1310</ele>
        <time>2011-04-10T10:07:26Z</time>
      </trkpt>
      <trkpt lat="45.90189" lon="6.17949">
        <ele>1309</ele>
        <time>2011-04-10T10:07:27Z</time>
      </trkpt>
      <trkpt lat="45.90188" lon="6.1795">
        <ele>1309</ele>
        <time>2011-04-10T10:07:28Z</time>
      </trkpt>
      <trkpt lat="45.90187" lon="6.17952">
        <ele>1310</ele>
        <time>2011-04-10T10:07:29Z</time>
      </trkpt>
      <trkpt lat="45.90188" lon="6.17953">
        <ele>1310</ele>
        <time>2011-04-10T10:07:30Z</time>
      </trkpt>
      <trkpt lat="45.90188" lon="6.17954">
        <ele>1310</ele>
        <time>2011-04-10T10:07:31Z</time>
      </trkpt>
      <trkpt lat="45.90188" lon="6.17955">
        <ele>1310</ele>
        <time>2011-04-10T10:07:32Z</time>
      </trkpt>
      <trkpt lat="45.90188" lon="6.17955">
        <ele>1310</ele>
        <time>2011-04-10T10:07:33Z</time>
      </trkpt>
      <trkpt lat="45.90188" lon="6.17956">
        <ele>1311</ele>
        <time>2011-04-10T10:07:34Z</time>
      </trkpt>
      <trkpt lat="45.90189" lon="6.17958">
        <ele>1311</ele>
        <time>2011-04-10T10:07:35Z</time>
      </trkpt>
      <trkpt lat="45.9019" lon="6.17959">
        <ele>1310</ele>
        <time>2011-04-10T10:07:37Z</time>
      </trkpt>
      <trkpt lat="45.90191" lon="6.17961">
        <ele>1310</ele>
        <time>2011-04-10T10:07:38Z</time>
      </trkpt>
      <trkpt lat="45.90192" lon="6.17963">
        <ele>1310</ele>
        <time>2011-04-10T10:07:39Z</time>
      </trkpt>
      <trkpt lat="45.90192" lon="6.17963">
        <ele>1310</ele>
        <time>2011-04-10T10:07:40Z</time>
      </trkpt>
      <trkpt lat="45.90191" lon="6.17964">
        <ele>1310</ele>
        <time>2011-04-10T10:07:41Z</time>
      </trkpt>
      <trkpt lat="45.9019" lon="6.17966">
        <ele>1311</ele>
        <time>2011-04-10T10:07:42Z</time>
      </trkpt>
      <trkpt lat="45.90191" lon="6.17967">
        <ele>1311</ele>
        <time>2011-04-10T10:07:43Z</time>
      </trkpt>
      <trkpt lat="45.90191" lon="6.17968">
        <ele>1310</ele>
        <time>2011-04-10T10:07:44Z</time>
      </trkpt>
      <trkpt lat="45.90191" lon="6.17969">
        <ele>1310</ele>
        <time>2011-04-10T10:07:45Z</time>
      </trkpt>
      <trkpt lat="45.90191" lon="6.1797">
        <ele>1311</ele>
        <time>2011-04-10T10:07:46Z</time>
      </trkpt>
      <trkpt lat="45.90191" lon="6.17971">
        <ele>1310</ele>
        <time>2011-04-10T10:07:47Z</time>
      </trkpt>
      <trkpt lat="45.90192" lon="6.17971">
        <ele>1310</ele>
        <time>2011-04-10T10:07:48Z</time>
      </trkpt>
      <trkpt lat="45.90193" lon="6.17972">
        <ele>1310</ele>
        <time>2011-04-10T10:07:49Z</time>
      </trkpt>
      <trkpt lat="45.90193" lon="6.17972">
        <ele>1309</ele>
        <time>2011-04-10T10:07:50Z</time>
      </trkpt>
      <trkpt lat="45.90193" lon="6.17972">
        <ele>1309</ele>
        <time>2011-04-10T10:07:51Z</time>
      </trkpt>
      <trkpt lat="45.90193" lon="6.17972">
        <ele>1309</ele>
        <time>2011-04-10T10:07:52Z</time>
      </trkpt>
      <trkpt lat="45.90192" lon="6.17973">
        <ele>1309</ele>
        <time>2011-04-10T10:07:53Z</time>
      </trkpt>
      <trkpt lat="45.90192" lon="6.17973">
        <ele>1309</ele>
        <time>2011-04-10T10:07:54Z</time>
      </trkpt>
      <trkpt lat="45.90193" lon="6.17973">
        <ele>1308</ele>
        <time>2011-04-10T10:07:55Z</time>
      </trkpt>
      <trkpt lat="45.90192" lon="6.17974">
        <ele>1308</ele>
        <time>2011-04-10T10:07:56Z</time>
      </trkpt>
      <trkpt lat="45.90193" lon="6.17976">
        <ele>1308</ele>
        <time>2011-04-10T10:07:57Z</time>
      </trkpt>
      <trkpt lat="45.90194" lon="6.17977">
        <ele>1307</ele>
        <time>2011-04-10T10:07:58Z</time>
      </trkpt>
      <trkpt lat="45.90193" lon="6.17977">
        <ele>1308</ele>
        <time>2011-04-10T10:07:59Z</time>
      </trkpt>
      <trkpt lat="45.90193" lon="6.17977">
        <ele>1308</ele>
        <time>2011-04-10T10:08:00Z</time>
      </trkpt>
      <trkpt lat="45.90193" lon="6.17979">
        <ele>1308</ele>
        <time>2011-04-10T10:08:02Z</time>
      </trkpt>
      <trkpt lat="45.90193" lon="6.1798">
        <ele>1307</ele>
        <time>2011-04-10T10:08:03Z</time>
      </trkpt>
      <trkpt lat="45.90193" lon="6.17979">
        <ele>1308</ele>
        <time>2011-04-10T10:08:04Z</time>
      </trkpt>
      <trkpt lat="45.90191" lon="6.17979">
        <ele>1308</ele>
        <time>2011-04-10T10:08:05Z</time>
      </trkpt>
      <trkpt lat="45.90191" lon="6.17979">
        <ele>1307</ele>
        <time>2011-04-10T10:08:06Z</time>
      </trkpt>
      <trkpt lat="45.90191" lon="6.17979">
        <ele>1307</ele>
        <time>2011-04-10T10:08:07Z</time>
      </trkpt>
      <trkpt lat="45.9019" lon="6.17979">
        <ele>1307</ele>
        <time>2011-04-10T10:08:08Z</time>
      </trkpt>
      <trkpt lat="45.90189" lon="6.17978">
        <ele>1307</ele>
        <time>2011-04-10T10:08:09Z</time>
      </trkpt>
      <trkpt lat="45.90189" lon="6.17979">
        <ele>1307</ele>
        <time>2011-04-10T10:08:10Z</time>
      </trkpt>
      <trkpt lat="45.90189" lon="6.17979">
        <ele>1307</ele>
        <time>2011-04-10T10:08:11Z</time>
      </trkpt>
      <trkpt lat="45.9019" lon="6.17979">
        <ele>1307</ele>
        <time>2011-04-10T10:08:12Z</time>
      </trkpt>
      <trkpt lat="45.90189" lon="6.17978">
        <ele>1307</ele>
        <time>2011-04-10T10:08:13Z</time>
      </trkpt>
      <trkpt lat="45.90189" lon="6.17978">
        <ele>1307</ele>
        <time>2011-04-10T10:08:14Z</time>
      </trkpt>
      <trkpt lat="45.90189" lon="6.17979">
        <ele>1307</ele>
        <time>2011-04-10T10:08:15Z</time>
      </trkpt>
      <trkpt lat="45.90189" lon="6.17979">
        <ele>1307</ele>
        <time>2011-04-10T10:08:16Z</time>
      </trkpt>
      <trkpt lat="45.90189" lon="6.1798">
        <ele>1307</ele>
        <time>2011-04-10T10:08:17Z</time>
      </trkpt>
      <trkpt lat="45.9019" lon="6.17983">
        <ele>1308</ele>
        <time>2011-04-10T10:08:18Z</time>
      </trkpt>
      <trkpt lat="45.9019" lon="6.17984">
        <ele>1307</ele>
        <time>2011-04-10T10:08:19Z</time>
      </trkpt>
      <trkpt lat="45.90187" lon="6.17984">
        <ele>1307</ele>
        <time>2011-04-10T10:08:20Z</time>
      </trkpt>
      <trkpt lat="45.90187" lon="6.17984">
        <ele>1306</ele>
        <time>2011-04-10T10:08:21Z</time>
      </trkpt>
      <trkpt lat="45.90185" lon="6.17986">
        <ele>1306</ele>
        <time>2011-04-10T10:08:23Z</time>
      </trkpt>
      <trkpt lat="45.90185" lon="6.17987">
        <ele>1306</ele>
        <time>2011-04-10T10:08:24Z</time>
      </trkpt>
      <trkpt lat="45.90186" lon="6.17988">
        <ele>1305</ele>
        <time>2011-04-10T10:08:25Z</time>
      </trkpt>
      <trkpt lat="45.90186" lon="6.17987">
        <ele>1306</ele>
        <time>2011-04-10T10:08:26Z</time>
      </trkpt>
      <trkpt lat="45.90186" lon="6.17987">
        <ele>1305</ele>
        <time>2011-04-10T10:08:27Z</time>
      </trkpt>
      <trkpt lat="45.90187" lon="6.17988">
        <ele>1305</ele>
        <time>2011-04-10T10:08:28Z</time>
      </trkpt>
      <trkpt lat="45.90184" lon="6.17989">
        <ele>1306</ele>
        <time>2011-04-10T10:08:29Z</time>
      </trkpt>
      <trkpt lat="45.90183" lon="6.17989">
        <ele>1306</ele>
        <time>2011-04-10T10:08:30Z</time>
      </trkpt>
      <trkpt lat="45.90183" lon="6.17989">
        <ele>1306</ele>
        <time>2011-04-10T10:08:31Z</time>
      </trkpt>
      <trkpt lat="45.90183" lon="6.17989">
        <ele>1306</ele>
        <time>2011-04-10T10:08:32Z</time>
      </trkpt>
      <trkpt lat="45.9018" lon="6.17989">
        <ele>1308</ele>
        <time>2011-04-10T10:08:34Z</time>
      </trkpt>
      <trkpt lat="45.9018" lon="6.18">
        <ele>1301</ele>
        <time>2011-04-10T10:09:36Z</time>
      </trkpt>
      <trkpt lat="45.9018" lon="6.18001">
        <ele>1300</ele>
        <time>2011-04-10T10:09:37Z</time>
      </trkpt>
      <trkpt lat="45.90179" lon="6.18003">
        <ele>1301</ele>
        <time>2011-04-10T10:09:38Z</time>
      </trkpt>
      <trkpt lat="45.90179" lon="6.18004">
        <ele>1301</ele>
        <time>2011-04-10T10:09:39Z</time>
      </trkpt>
      <trkpt lat="45.90176" lon="6.18006">
        <ele>1303</ele>
        <time>2011-04-10T10:09:40Z</time>
      </trkpt>
      <trkpt lat="45.90175" lon="6.18006">
        <ele>1303</ele>
        <time>2011-04-10T10:09:41Z</time>
      </trkpt>
      <trkpt lat="45.90174" lon="6.18006">
        <ele>1303</ele>
        <time>2011-04-10T10:09:42Z</time>
      </trkpt>
      <trkpt lat="45.90174" lon="6.18006">
        <ele>1303</ele>
        <time>2011-04-10T10:09:43Z</time>
      </trkpt>
      <trkpt lat="45.90173" lon="6.18006">
        <ele>1302</ele>
        <time>2011-04-10T10:09:44Z</time>
      </trkpt>
      <trkpt lat="45.90172" lon="6.18007">
        <ele>1302</ele>
        <time>2011-04-10T10:09:45Z</time>
      </trkpt>
      <trkpt lat="45.90171" lon="6.18008">
        <ele>1302</ele>
        <time>2011-04-10T10:09:46Z</time>
      </trkpt>
      <trkpt lat="45.90168" lon="6.18007">
        <ele>1302</ele>
        <time>2011-04-10T10:09:47Z</time>
      </trkpt>
      <trkpt lat="45.90169" lon="6.18008">
        <ele>1303</ele>
        <time>2011-04-10T10:09:48Z</time>
      </trkpt>
      <trkpt lat="45.90169" lon="6.1801">
        <ele>1304</ele>
        <time>2011-04-10T10:09:49Z</time>
      </trkpt>
      <trkpt lat="45.90168" lon="6.18009">
        <ele>1304</ele>
        <time>2011-04-10T10:09:50Z</time>
      </trkpt>
      <trkpt lat="45.90167" lon="6.1801">
        <ele>1303</ele>
        <time>2011-04-10T10:09:51Z</time>
      </trkpt>
      <trkpt lat="45.90167" lon="6.18012">
        <ele>1303</ele>
        <time>2011-04-10T10:09:52Z</time>
      </trkpt>
      <trkpt lat="45.90167" lon="6.18014">
        <ele>1303</ele>
        <time>2011-04-10T10:09:53Z</time>
      </trkpt>
      <trkpt lat="45.90164" lon="6.18014">
        <ele>1303</ele>
        <time>2011-04-10T10:09:54Z</time>
      </trkpt>
      <trkpt lat="45.90164" lon="6.18013">
        <ele>1302</ele>
        <time>2011-04-10T10:09:55Z</time>
      </trkpt>
      <trkpt lat="45.90162" lon="6.18014">
        <ele>1301</ele>
        <time>2011-04-10T10:09:56Z</time>
      </trkpt>
      <trkpt lat="45.90161" lon="6.18014">
        <ele>1301</ele>
        <time>2011-04-10T10:09:57Z</time>
      </trkpt>
      <trkpt lat="45.90161" lon="6.18015">
        <ele>1301</ele>
        <time>2011-04-10T10:09:58Z</time>
      </trkpt>
      <trkpt lat="45.90161" lon="6.18016">
        <ele>1302</ele>
        <time>2011-04-10T10:09:59Z</time>
      </trkpt>
      <trkpt lat="45.9016" lon="6.18017">
        <ele>1302</ele>
        <time>2011-04-10T10:10:00Z</time>
      </trkpt>
      <trkpt lat="45.90155" lon="6.1802">
        <ele>1300</ele>
        <time>2011-04-10T10:10:03Z</time>
      </trkpt>
      <trkpt lat="45.90154" lon="6.18019">
        <ele>1301</ele>
        <time>2011-04-10T10:10:04Z</time>
      </trkpt>
      <trkpt lat="45.90153" lon="6.18019">
        <ele>1300</ele>
        <time>2011-04-10T10:10:05Z</time>
      </trkpt>
      <trkpt lat="45.90151" lon="6.1802">
        <ele>1300</ele>
        <time>2011-04-10T10:10:06Z</time>
      </trkpt>
      <trkpt lat="45.90148" lon="6.18022">
        <ele>1301</ele>
        <time>2011-04-10T10:10:07Z</time>
      </trkpt>
      <trkpt lat="45.90146" lon="6.18024">
        <ele>1300</ele>
        <time>2011-04-10T10:10:08Z</time>
      </trkpt>
      <trkpt lat="45.90146" lon="6.18024">
        <ele>1299</ele>
        <time>2011-04-10T10:10:09Z</time>
      </trkpt>
      <trkpt lat="45.90145" lon="6.18025">
        <ele>1299</ele>
        <time>2011-04-10T10:10:10Z</time>
      </trkpt>
      <trkpt lat="45.90144" lon="6.18026">
        <ele>1299</ele>
        <time>2011-04-10T10:10:11Z</time>
      </trkpt>
      <trkpt lat="45.90144" lon="6.18027">
        <ele>1299</ele>
        <time>2011-04-10T10:10:12Z</time>
      </trkpt>
      <trkpt lat="45.90142" lon="6.18028">
        <ele>1299</ele>
        <time>2011-04-10T10:10:13Z</time>
      </trkpt>
      <trkpt lat="45.90139" lon="6.18029">
        <ele>1299</ele>
        <time>2011-04-10T10:10:14Z</time>
      </trkpt>
      <trkpt lat="45.90138" lon="6.1803">
        <ele>1299</ele>
        <time>2011-04-10T10:10:15Z</time>
      </trkpt>
      <trkpt lat="45.90137" lon="6.18033">
        <ele>1299</ele>
        <time>2011-04-10T10:10:16Z</time>
      </trkpt>
      <trkpt lat="45.90135" lon="6.18031">
        <ele>1299</ele>
        <time>2011-04-10T10:10:17Z</time>
      </trkpt>
      <trkpt lat="45.90134" lon="6.18032">
        <ele>1299</ele>
        <time>2011-04-10T10:10:18Z</time>
      </trkpt>
      <trkpt lat="45.90133" lon="6.18031">
        <ele>1299</ele>
        <time>2011-04-10T10:10:19Z</time>
      </trkpt>
      <trkpt lat="45.90131" lon="6.18034">
        <ele>1298</ele>
        <time>2011-04-10T10:10:20Z</time>
      </trkpt>
      <trkpt lat="45.9013" lon="6.18038">
        <ele>1298</ele>
        <time>2011-04-10T10:10:21Z</time>
      </trkpt>
      <trkpt lat="45.90129" lon="6.18039">
        <ele>1299</ele>
        <time>2011-04-10T10:10:22Z</time>
      </trkpt>
      <trkpt lat="45.90129" lon="6.18039">
        <ele>1299</ele>
        <time>2011-04-10T10:10:23Z</time>
      </trkpt>
      <trkpt lat="45.90128" lon="6.18041">
        <ele>1299</ele>
        <time>2011-04-10T10:10:24Z</time>
      </trkpt>
      <trkpt lat="45.90127" lon="6.18042">
        <ele>1299</ele>
        <time>2011-04-10T10:10:25Z</time>
      </trkpt>
      <trkpt lat="45.90127" lon="6.18042">
        <ele>1300</ele>
        <time>2011-04-10T10:10:26Z</time>
      </trkpt>
      <trkpt lat="45.90127" lon="6.18044">
        <ele>1300</ele>
        <time>2011-04-10T10:10:27Z</time>
      </trkpt>
      <trkpt lat="45.90125" lon="6.18045">
        <ele>1300</ele>
        <time>2011-04-10T10:10:28Z</time>
      </trkpt>
      <trkpt lat="45.90125" lon="6.18046">
        <ele>1299</ele>
        <time>2011-04-10T10:10:29Z</time>
      </trkpt>
      <trkpt lat="45.90125" lon="6.18047">
        <ele>1299</ele>
        <time>2011-04-10T10:10:30Z</time>
      </trkpt>
      <trkpt lat="45.90124" lon="6.18049">
        <ele>1300</ele>
        <time>2011-04-10T10:10:31Z</time>
      </trkpt>
      <trkpt lat="45.90123" lon="6.1805">
        <ele>1300</ele>
        <time>2011-04-10T10:10:32Z</time>
      </trkpt>
      <trkpt lat="45.90123" lon="6.1805">
        <ele>1300</ele>
        <time>2011-04-10T10:10:33Z</time>
      </trkpt>
      <trkpt lat="45.90122" lon="6.18051">
        <ele>1300</ele>
        <time>2011-04-10T10:10:34Z</time>
      </trkpt>
      <trkpt lat="45.90122" lon="6.18051">
        <ele>1300</ele>
        <time>2011-04-10T10:10:35Z</time>
      </trkpt>
      <trkpt lat="45.9012" lon="6.18053">
        <ele>1300</ele>
        <time>2011-04-10T10:10:36Z</time>
      </trkpt>
      <trkpt lat="45.90119" lon="6.18052">
        <ele>1300</ele>
        <time>2011-04-10T10:10:37Z</time>
      </trkpt>
      <trkpt lat="45.90119" lon="6.18054">
        <ele>1301</ele>
        <time>2011-04-10T10:10:38Z</time>
      </trkpt>
      <trkpt lat="45.90117" lon="6.18055">
        <ele>1301</ele>
        <time>2011-04-10T10:10:39Z</time>
      </trkpt>
      <trkpt lat="45.90117" lon="6.18056">
        <ele>1301</ele>
        <time>2011-04-10T10:10:40Z</time>
      </trkpt>
      <trkpt lat="45.90116" lon="6.18056">
        <ele>1301</ele>
        <time>2011-04-10T10:10:41Z</time>
      </trkpt>
      <trkpt lat="45.90115" lon="6.18056">
        <ele>1302</ele>
        <time>2011-04-10T10:10:42Z</time>
      </trkpt>
      <trkpt lat="45.90115" lon="6.18058">
        <ele>1303</ele>
        <time>2011-04-10T10:10:43Z</time>
      </trkpt>
      <trkpt lat="45.90114" lon="6.1806">
        <ele>1303</ele>
        <time>2011-04-10T10:10:44Z</time>
      </trkpt>
      <trkpt lat="45.90115" lon="6.1806">
        <ele>1302</ele>
        <time>2011-04-10T10:10:45Z</time>
      </trkpt>
      <trkpt lat="45.90114" lon="6.18061">
        <ele>1302</ele>
        <time>2011-04-10T10:10:46Z</time>
      </trkpt>
      <trkpt lat="45.90114" lon="6.18063">
        <ele>1301</ele>
        <time>2011-04-10T10:10:47Z</time>
      </trkpt>
      <trkpt lat="45.90114" lon="6.18062">
        <ele>1302</ele>
        <time>2011-04-10T10:10:48Z</time>
      </trkpt>
      <trkpt lat="45.90114" lon="6.18063">
        <ele>1303</ele>
        <time>2011-04-10T10:10:49Z</time>
      </trkpt>
      <trkpt lat="45.90113" lon="6.18062">
        <ele>1304</ele>
        <time>2011-04-10T10:10:50Z</time>
      </trkpt>
      <trkpt lat="45.90113" lon="6.18062">
        <ele>1305</ele>
        <time>2011-04-10T10:10:51Z</time>
      </trkpt>
      <trkpt lat="45.90113" lon="6.18064">
        <ele>1305</ele>
        <time>2011-04-10T10:10:52Z</time>
      </trkpt>
      <trkpt lat="45.90112" lon="6.18066">
        <ele>1305</ele>
        <time>2011-04-10T10:10:53Z</time>
      </trkpt>
      <trkpt lat="45.90112" lon="6.18068">
        <ele>1305</ele>
        <time>2011-04-10T10:10:54Z</time>
      </trkpt>
      <trkpt lat="45.9011" lon="6.18071">
        <ele>1304</ele>
        <time>2011-04-10T10:10:55Z</time>
      </trkpt>
      <trkpt lat="45.9011" lon="6.18074">
        <ele>1304</ele>
        <time>2011-04-10T10:10:56Z</time>
      </trkpt>
      <trkpt lat="45.90109" lon="6.18075">
        <ele>1305</ele>
        <time>2011-04-10T10:10:57Z</time>
      </trkpt>
      <trkpt lat="45.90109" lon="6.18077">
        <ele>1306</ele>
        <time>2011-04-10T10:10:58Z</time>
      </trkpt>
      <trkpt lat="45.90109" lon="6.18078">
        <ele>1306</ele>
        <time>2011-04-10T10:10:59Z</time>
      </trkpt>
      <trkpt lat="45.90109" lon="6.18079">
        <ele>1306</ele>
        <time>2011-04-10T10:11:00Z</time>
      </trkpt>
      <trkpt lat="45.90109" lon="6.18081">
        <ele>1307</ele>
        <time>2011-04-10T10:11:02Z</time>
      </trkpt>
      <trkpt lat="45.90109" lon="6.18081">
        <ele>1306</ele>
        <time>2011-04-10T10:11:03Z</time>
      </trkpt>
      <trkpt lat="45.90109" lon="6.18081">
        <ele>1306</ele>
        <time>2011-04-10T10:11:04Z</time>
      </trkpt>
      <trkpt lat="45.90109" lon="6.18081">
        <ele>1306</ele>
        <time>2011-04-10T10:11:05Z</time>
      </trkpt>
      <trkpt lat="45.90108" lon="6.1808">
        <ele>1307</ele>
        <time>2011-04-10T10:11:06Z</time>
      </trkpt>
      <trkpt lat="45.9011" lon="6.18083">
        <ele>1307</ele>
        <time>2011-04-10T10:11:25Z</time>
      </trkpt>
      <trkpt lat="45.90111" lon="6.18087">
        <ele>1307</ele>
        <time>2011-04-10T10:11:26Z</time>
      </trkpt>
      <trkpt lat="45.90113" lon="6.18088">
        <ele>1307</ele>
        <time>2011-04-10T10:11:27Z</time>
      </trkpt>
      <trkpt lat="45.90114" lon="6.1809">
        <ele>1308</ele>
        <time>2011-04-10T10:11:28Z</time>
      </trkpt>
      <trkpt lat="45.90115" lon="6.18092">
        <ele>1308</ele>
        <time>2011-04-10T10:11:29Z</time>
      </trkpt>
      <trkpt lat="45.90115" lon="6.18092">
        <ele>1308</ele>
        <time>2011-04-10T10:11:30Z</time>
      </trkpt>
      <trkpt lat="45.90115" lon="6.18092">
        <ele>1309</ele>
        <time>2011-04-10T10:11:31Z</time>
      </trkpt>
      <trkpt lat="45.90117" lon="6.18094">
        <ele>1309</ele>
        <time>2011-04-10T10:11:32Z</time>
      </trkpt>
      <trkpt lat="45.90119" lon="6.18097">
        <ele>1308</ele>
        <time>2011-04-10T10:11:33Z</time>
      </trkpt>
      <trkpt lat="45.90119" lon="6.18098">
        <ele>1309</ele>
        <time>2011-04-10T10:11:34Z</time>
      </trkpt>
      <trkpt lat="45.9012" lon="6.18099">
        <ele>1309</ele>
        <time>2011-04-10T10:11:35Z</time>
      </trkpt>
      <trkpt lat="45.9012" lon="6.181">
        <ele>1310</ele>
        <time>2011-04-10T10:11:36Z</time>
      </trkpt>
      <trkpt lat="45.9012" lon="6.18101">
        <ele>1309</ele>
        <time>2011-04-10T10:11:37Z</time>
      </trkpt>
      <trkpt lat="45.9012" lon="6.18101">
        <ele>1309</ele>
        <time>2011-04-10T10:11:38Z</time>
      </trkpt>
      <trkpt lat="45.90123" lon="6.181">
        <ele>1310</ele>
        <time>2011-04-10T10:12:11Z</time>
      </trkpt>
      <trkpt lat="45.90123" lon="6.18102">
        <ele>1309</ele>
        <time>2011-04-10T10:12:12Z</time>
      </trkpt>
      <trkpt lat="45.90121" lon="6.18105">
        <ele>1310</ele>
        <time>2011-04-10T10:12:13Z</time>
      </trkpt>
      <trkpt lat="45.90118" lon="6.18107">
        <ele>1309</ele>
        <time>2011-04-10T10:12:14Z</time>
      </trkpt>
      <trkpt lat="45.90117" lon="6.18108">
        <ele>1309</ele>
        <time>2011-04-10T10:12:15Z</time>
      </trkpt>
      <trkpt lat="45.90115" lon="6.18109">
        <ele>1311</ele>
        <time>2011-04-10T10:12:16Z</time>
      </trkpt>
      <trkpt lat="45.90114" lon="6.18109">
        <ele>1311</ele>
        <time>2011-04-10T10:12:17Z</time>
      </trkpt>
      <trkpt lat="45.90113" lon="6.1811">
        <ele>1313</ele>
        <time>2011-04-10T10:12:18Z</time>
      </trkpt>
      <trkpt lat="45.90112" lon="6.18109">
        <ele>1315</ele>
        <time>2011-04-10T10:12:19Z</time>
      </trkpt>
      <trkpt lat="45.90111" lon="6.1811">
        <ele>1315</ele>
        <time>2011-04-10T10:12:20Z</time>
      </trkpt>
      <trkpt lat="45.90111" lon="6.18111">
        <ele>1315</ele>
        <time>2011-04-10T10:12:21Z</time>
      </trkpt>
      <trkpt lat="45.90111" lon="6.18111">
        <ele>1315</ele>
        <time>2011-04-10T10:12:22Z</time>
      </trkpt>
      <trkpt lat="45.90111" lon="6.18112">
        <ele>1315</ele>
        <time>2011-04-10T10:12:23Z</time>
      </trkpt>
      <trkpt lat="45.90112" lon="6.18114">
        <ele>1315</ele>
        <time>2011-04-10T10:12:24Z</time>
      </trkpt>
      <trkpt lat="45.90112" lon="6.18115">
        <ele>1315</ele>
        <time>2011-04-10T10:12:25Z</time>
      </trkpt>
      <trkpt lat="45.90112" lon="6.18115">
        <ele>1316</ele>
        <time>2011-04-10T10:12:26Z</time>
      </trkpt>
      <trkpt lat="45.90111" lon="6.18116">
        <ele>1317</ele>
        <time>2011-04-10T10:12:27Z</time>
      </trkpt>
      <trkpt lat="45.90111" lon="6.18116">
        <ele>1318</ele>
        <time>2011-04-10T10:12:28Z</time>
      </trkpt>
      <trkpt lat="45.90111" lon="6.18116">
        <ele>1318</ele>
        <time>2011-04-10T10:12:29Z</time>
      </trkpt>
      <trkpt lat="45.90111" lon="6.18118">
        <ele>1319</ele>
        <time>2011-04-10T10:12:30Z</time>
      </trkpt>
      <trkpt lat="45.90112" lon="6.18122">
        <ele>1318</ele>
        <time>2011-04-10T10:12:31Z</time>
      </trkpt>
      <trkpt lat="45.90112" lon="6.18122">
        <ele>1318</ele>
        <time>2011-04-10T10:12:32Z</time>
      </trkpt>
      <trkpt lat="45.90112" lon="6.18123">
        <ele>1318</ele>
        <time>2011-04-10T10:12:33Z</time>
      </trkpt>
      <trkpt lat="45.9011" lon="6.18124">
        <ele>1319</ele>
        <time>2011-04-10T10:12:41Z</time>
      </trkpt>
      <trkpt lat="45.90112" lon="6.18126">
        <ele>1319</ele>
        <time>2011-04-10T10:12:42Z</time>
      </trkpt>
      <trkpt lat="45.9011" lon="6.18125">
        <ele>1319</ele>
        <time>2011-04-10T10:12:43Z</time>
      </trkpt>
      <trkpt lat="45.90109" lon="6.18126">
        <ele>1319</ele>
        <time>2011-04-10T10:12:44Z</time>
      </trkpt>
      <trkpt lat="45.90107" lon="6.18126">
        <ele>1319</ele>
        <time>2011-04-10T10:12:45Z</time>
      </trkpt>
      <trkpt lat="45.90107" lon="6.18127">
        <ele>1320</ele>
        <time>2011-04-10T10:12:46Z</time>
      </trkpt>
      <trkpt lat="45.90107" lon="6.18127">
        <ele>1320</ele>
        <time>2011-04-10T10:12:47Z</time>
      </trkpt>
      <trkpt lat="45.90106" lon="6.18129">
        <ele>1320</ele>
        <time>2011-04-10T10:12:48Z</time>
      </trkpt>
      <trkpt lat="45.90105" lon="6.1813">
        <ele>1321</ele>
        <time>2011-04-10T10:12:49Z</time>
      </trkpt>
      <trkpt lat="45.90105" lon="6.1813">
        <ele>1321</ele>
        <time>2011-04-10T10:12:50Z</time>
      </trkpt>
      <trkpt lat="45.90103" lon="6.18132">
        <ele>1321</ele>
        <time>2011-04-10T10:12:51Z</time>
      </trkpt>
      <trkpt lat="45.90103" lon="6.18133">
        <ele>1321</ele>
        <time>2011-04-10T10:12:52Z</time>
      </trkpt>
      <trkpt lat="45.90102" lon="6.18133">
        <ele>1322</ele>
        <time>2011-04-10T10:12:53Z</time>
      </trkpt>
      <trkpt lat="45.90102" lon="6.18134">
        <ele>1322</ele>
        <time>2011-04-10T10:12:54Z</time>
      </trkpt>
      <trkpt lat="45.90101" lon="6.18136">
        <ele>1324</ele>
        <time>2011-04-10T10:12:55Z</time>
      </trkpt>
      <trkpt lat="45.90101" lon="6.18137">
        <ele>1324</ele>
        <time>2011-04-10T10:12:56Z</time>
      </trkpt>
      <trkpt lat="45.90102" lon="6.18137">
        <ele>1324</ele>
        <time>2011-04-10T10:12:57Z</time>
      </trkpt>
      <trkpt lat="45.90102" lon="6.18138">
        <ele>1324</ele>
        <time>2011-04-10T10:12:58Z</time>
      </trkpt>
      <trkpt lat="45.90102" lon="6.18138">
        <ele>1324</ele>
        <time>2011-04-10T10:13:04Z</time>
      </trkpt>
      <trkpt lat="45.90102" lon="6.18138">
        <ele>1324</ele>
        <time>2011-04-10T10:13:05Z</time>
      </trkpt>
      <trkpt lat="45.90101" lon="6.18138">
        <ele>1324</ele>
        <time>2011-04-10T10:13:06Z</time>
      </trkpt>
      <trkpt lat="45.90101" lon="6.18138">
        <ele>1324</ele>
        <time>2011-04-10T10:13:07Z</time>
      </trkpt>
      <trkpt lat="45.90102" lon="6.18142">
        <ele>1324</ele>
        <time>2011-04-10T10:13:08Z</time>
      </trkpt>
      <trkpt lat="45.90102" lon="6.18144">
        <ele>1324</ele>
        <time>2011-04-10T10:13:09Z</time>
      </trkpt>
      <trkpt lat="45.90102" lon="6.18145">
        <ele>1324</ele>
        <time>2011-04-10T10:13:10Z</time>
      </trkpt>
      <trkpt lat="45.90101" lon="6.18146">
        <ele>1324</ele>
        <time>2011-04-10T10:13:11Z</time>
      </trkpt>
      <trkpt lat="45.90101" lon="6.18146">
        <ele>1324</ele>
        <time>2011-04-10T10:13:12Z</time>
      </trkpt>
      <trkpt lat="45.90101" lon="6.18147">
        <ele>1324</ele>
        <time>2011-04-10T10:13:13Z</time>
      </trkpt>
      <trkpt lat="45.90101" lon="6.18148">
        <ele>1324</ele>
        <time>2011-04-10T10:13:14Z</time>
      </trkpt>
      <trkpt lat="45.90101" lon="6.1815">
        <ele>1324</ele>
        <time>2011-04-10T10:13:15Z</time>
      </trkpt>
      <trkpt lat="45.90101" lon="6.18151">
        <ele>1324</ele>
        <time>2011-04-10T10:13:16Z</time>
      </trkpt>
      <trkpt lat="45.90101" lon="6.18152">
        <ele>1324</ele>
        <time>2011-04-10T10:13:17Z</time>
      </trkpt>
      <trkpt lat="45.90101" lon="6.18153">
        <ele>1324</ele>
        <time>2011-04-10T10:13:18Z</time>
      </trkpt>
      <trkpt lat="45.90101" lon="6.18155">
        <ele>1324</ele>
        <time>2011-04-10T10:13:19Z</time>
      </trkpt>
      <trkpt lat="45.90101" lon="6.18156">
        <ele>1324</ele>
        <time>2011-04-10T10:13:20Z</time>
      </trkpt>
      <trkpt lat="45.901" lon="6.18156">
        <ele>1324</ele>
        <time>2011-04-10T10:13:21Z</time>
      </trkpt>
      <trkpt lat="45.901" lon="6.18158">
        <ele>1324</ele>
        <time>2011-04-10T10:13:22Z</time>
      </trkpt>
      <trkpt lat="45.90099" lon="6.18158">
        <ele>1324</ele>
        <time>2011-04-10T10:13:23Z</time>
      </trkpt>
      <trkpt lat="45.90099" lon="6.1816">
        <ele>1324</ele>
        <time>2011-04-10T10:13:24Z</time>
      </trkpt>
      <trkpt lat="45.90099" lon="6.1816">
        <ele>1324</ele>
        <time>2011-04-10T10:13:25Z</time>
      </trkpt>
      <trkpt lat="45.90099" lon="6.1816">
        <ele>1324</ele>
        <time>2011-04-10T10:13:26Z</time>
      </trkpt>
      <trkpt lat="45.90098" lon="6.18161">
        <ele>1324</ele>
        <time>2011-04-10T10:13:27Z</time>
      </trkpt>
      <trkpt lat="45.90097" lon="6.18161">
        <ele>1324</ele>
        <time>2011-04-10T10:13:28Z</time>
      </trkpt>
      <trkpt lat="45.90097" lon="6.18162">
        <ele>1324</ele>
        <time>2011-04-10T10:13:29Z</time>
      </trkpt>
      <trkpt lat="45.90097" lon="6.18162">
        <ele>1324</ele>
        <time>2011-04-10T10:13:30Z</time>
      </trkpt>
      <trkpt lat="45.90096" lon="6.18162">
        <ele>1324</ele>
        <time>2011-04-10T10:13:31Z</time>
      </trkpt>
      <trkpt lat="45.90098" lon="6.18163">
        <ele>1325</ele>
        <time>2011-04-10T10:13:33Z</time>
      </trkpt>
      <trkpt lat="45.90096" lon="6.18164">
        <ele>1324</ele>
        <time>2011-04-10T10:13:34Z</time>
      </trkpt>
      <trkpt lat="45.90095" lon="6.18164">
        <ele>1324</ele>
        <time>2011-04-10T10:13:35Z</time>
      </trkpt>
      <trkpt lat="45.90095" lon="6.18164">
        <ele>1324</ele>
        <time>2011-04-10T10:13:36Z</time>
      </trkpt>
      <trkpt lat="45.90094" lon="6.18164">
        <ele>1324</ele>
        <time>2011-04-10T10:13:37Z</time>
      </trkpt>
      <trkpt lat="45.90094" lon="6.18165">
        <ele>1324</ele>
        <time>2011-04-10T10:13:38Z</time>
      </trkpt>
      <trkpt lat="45.90093" lon="6.18167">
        <ele>1325</ele>
        <time>2011-04-10T10:13:39Z</time>
      </trkpt>
      <trkpt lat="45.90091" lon="6.18167">
        <ele>1325</ele>
        <time>2011-04-10T10:13:40Z</time>
      </trkpt>
      <trkpt lat="45.9009" lon="6.18168">
        <ele>1325</ele>
        <time>2011-04-10T10:13:41Z</time>
      </trkpt>
      <trkpt lat="45.90089" lon="6.18171">
        <ele>1325</ele>
        <time>2011-04-10T10:13:43Z</time>
      </trkpt>
      <trkpt lat="45.90089" lon="6.18173">
        <ele>1325</ele>
        <time>2011-04-10T10:13:44Z</time>
      </trkpt>
      <trkpt lat="45.90088" lon="6.18173">
        <ele>1325</ele>
        <time>2011-04-10T10:13:45Z</time>
      </trkpt>
      <trkpt lat="45.90088" lon="6.18175">
        <ele>1325</ele>
        <time>2011-04-10T10:13:46Z</time>
      </trkpt>
      <trkpt lat="45.90088" lon="6.18177">
        <ele>1325</ele>
        <time>2011-04-10T10:13:47Z</time>
      </trkpt>
      <trkpt lat="45.90089" lon="6.18177">
        <ele>1325</ele>
        <time>2011-04-10T10:13:48Z</time>
      </trkpt>
      <trkpt lat="45.90088" lon="6.18177">
        <ele>1326</ele>
        <time>2011-04-10T10:13:49Z</time>
      </trkpt>
      <trkpt lat="45.90088" lon="6.18177">
        <ele>1326</ele>
        <time>2011-04-10T10:13:50Z</time>
      </trkpt>
      <trkpt lat="45.90089" lon="6.18178">
        <ele>1326</ele>
        <time>2011-04-10T10:13:51Z</time>
      </trkpt>
      <trkpt lat="45.90089" lon="6.18179">
        <ele>1326</ele>
        <time>2011-04-10T10:13:52Z</time>
      </trkpt>
      <trkpt lat="45.90088" lon="6.1818">
        <ele>1326</ele>
        <time>2011-04-10T10:13:53Z</time>
      </trkpt>
      <trkpt lat="45.90088" lon="6.1818">
        <ele>1326</ele>
        <time>2011-04-10T10:13:54Z</time>
      </trkpt>
      <trkpt lat="45.90088" lon="6.18181">
        <ele>1326</ele>
        <time>2011-04-10T10:13:55Z</time>
      </trkpt>
      <trkpt lat="45.90088" lon="6.18181">
        <ele>1326</ele>
        <time>2011-04-10T10:13:56Z</time>
      </trkpt>
      <trkpt lat="45.90087" lon="6.18181">
        <ele>1326</ele>
        <time>2011-04-10T10:13:57Z</time>
      </trkpt>
      <trkpt lat="45.90087" lon="6.18184">
        <ele>1326</ele>
        <time>2011-04-10T10:13:58Z</time>
      </trkpt>
      <trkpt lat="45.90086" lon="6.18185">
        <ele>1326</ele>
        <time>2011-04-10T10:13:59Z</time>
      </trkpt>
      <trkpt lat="45.90086" lon="6.18186">
        <ele>1326</ele>
        <time>2011-04-10T10:14:00Z</time>
      </trkpt>
      <trkpt lat="45.90087" lon="6.18187">
        <ele>1326</ele>
        <time>2011-04-10T10:14:02Z</time>
      </trkpt>
      <trkpt lat="45.90088" lon="6.18188">
        <ele>1326</ele>
        <time>2011-04-10T10:14:03Z</time>
      </trkpt>
      <trkpt lat="45.90087" lon="6.18188">
        <ele>1326</ele>
        <time>2011-04-10T10:14:04Z</time>
      </trkpt>
      <trkpt lat="45.90086" lon="6.18189">
        <ele>1327</ele>
        <time>2011-04-10T10:14:05Z</time>
      </trkpt>
      <trkpt lat="45.90086" lon="6.1819">
        <ele>1327</ele>
        <time>2011-04-10T10:14:06Z</time>
      </trkpt>
      <trkpt lat="45.90086" lon="6.18191">
        <ele>1326</ele>
        <time>2011-04-10T10:14:07Z</time>
      </trkpt>
      <trkpt lat="45.90086" lon="6.18191">
        <ele>1327</ele>
        <time>2011-04-10T10:14:08Z</time>
      </trkpt>
      <trkpt lat="45.90086" lon="6.18191">
        <ele>1327</ele>
        <time>2011-04-10T10:14:09Z</time>
      </trkpt>
      <trkpt lat="45.90083" lon="6.18189">
        <ele>1327</ele>
        <time>2011-04-10T10:14:10Z</time>
      </trkpt>
      <trkpt lat="45.90079" lon="6.18187">
        <ele>1326</ele>
        <time>2011-04-10T10:14:11Z</time>
      </trkpt>
      <trkpt lat="45.90079" lon="6.1819">
        <ele>1327</ele>
        <time>2011-04-10T10:14:12Z</time>
      </trkpt>
      <trkpt lat="45.90081" lon="6.18192">
        <ele>1328</ele>
        <time>2011-04-10T10:14:13Z</time>
      </trkpt>
      <trkpt lat="45.9008" lon="6.18192">
        <ele>1328</ele>
        <time>2011-04-10T10:14:14Z</time>
      </trkpt>
      <trkpt lat="45.90079" lon="6.18195">
        <ele>1328</ele>
        <time>2011-04-10T10:14:15Z</time>
      </trkpt>
      <trkpt lat="45.90076" lon="6.18196">
        <ele>1328</ele>
        <time>2011-04-10T10:14:16Z</time>
      </trkpt>
      <trkpt lat="45.90072" lon="6.182">
        <ele>1329</ele>
        <time>2011-04-10T10:14:17Z</time>
      </trkpt>
      <trkpt lat="45.90073" lon="6.18203">
        <ele>1329</ele>
        <time>2011-04-10T10:14:18Z</time>
      </trkpt>
      <trkpt lat="45.90072" lon="6.18205">
        <ele>1329</ele>
        <time>2011-04-10T10:14:19Z</time>
      </trkpt>
      <trkpt lat="45.90073" lon="6.18207">
        <ele>1328</ele>
        <time>2011-04-10T10:14:21Z</time>
      </trkpt>
      <trkpt lat="45.90075" lon="6.18212">
        <ele>1328</ele>
        <time>2011-04-10T10:14:22Z</time>
      </trkpt>
      <trkpt lat="45.90075" lon="6.18215">
        <ele>1328</ele>
        <time>2011-04-10T10:14:23Z</time>
      </trkpt>
      <trkpt lat="45.90073" lon="6.18218">
        <ele>1328</ele>
        <time>2011-04-10T10:14:24Z</time>
      </trkpt>
      <trkpt lat="45.90077" lon="6.18219">
        <ele>1328</ele>
        <time>2011-04-10T10:14:25Z</time>
      </trkpt>
      <trkpt lat="45.90076" lon="6.18218">
        <ele>1327</ele>
        <time>2011-04-10T10:14:26Z</time>
      </trkpt>
      <trkpt lat="45.90076" lon="6.18218">
        <ele>1327</ele>
        <time>2011-04-10T10:14:27Z</time>
      </trkpt>
      <trkpt lat="45.90075" lon="6.18219">
        <ele>1327</ele>
        <time>2011-04-10T10:14:28Z</time>
      </trkpt>
      <trkpt lat="45.90076" lon="6.18219">
        <ele>1327</ele>
        <time>2011-04-10T10:14:29Z</time>
      </trkpt>
      <trkpt lat="45.90076" lon="6.1822">
        <ele>1327</ele>
        <time>2011-04-10T10:14:30Z</time>
      </trkpt>
      <trkpt lat="45.90076" lon="6.18223">
        <ele>1327</ele>
        <time>2011-04-10T10:14:32Z</time>
      </trkpt>
      <trkpt lat="45.90076" lon="6.18225">
        <ele>1327</ele>
        <time>2011-04-10T10:14:34Z</time>
      </trkpt>
      <trkpt lat="45.90077" lon="6.18225">
        <ele>1327</ele>
        <time>2011-04-10T10:14:35Z</time>
      </trkpt>
      <trkpt lat="45.90078" lon="6.18227">
        <ele>1326</ele>
        <time>2011-04-10T10:14:36Z</time>
      </trkpt>
      <trkpt lat="45.90078" lon="6.18228">
        <ele>1326</ele>
        <time>2011-04-10T10:14:38Z</time>
      </trkpt>
      <trkpt lat="45.90078" lon="6.18228">
        <ele>1326</ele>
        <time>2011-04-10T10:14:39Z</time>
      </trkpt>
      <trkpt lat="45.90077" lon="6.18227">
        <ele>1327</ele>
        <time>2011-04-10T10:14:40Z</time>
      </trkpt>
      <trkpt lat="45.90075" lon="6.18228">
        <ele>1327</ele>
        <time>2011-04-10T10:14:41Z</time>
      </trkpt>
      <trkpt lat="45.90075" lon="6.18228">
        <ele>1327</ele>
        <time>2011-04-10T10:14:42Z</time>
      </trkpt>
      <trkpt lat="45.90074" lon="6.18228">
        <ele>1326</ele>
        <time>2011-04-10T10:14:43Z</time>
      </trkpt>
      <trkpt lat="45.90075" lon="6.18233">
        <ele>1327</ele>
        <time>2011-04-10T10:14:57Z</time>
      </trkpt>
      <trkpt lat="45.90076" lon="6.18235">
        <ele>1327</ele>
        <time>2011-04-10T10:14:59Z</time>
      </trkpt>
      <trkpt lat="45.90076" lon="6.18235">
        <ele>1327</ele>
        <time>2011-04-10T10:15:00Z</time>
      </trkpt>
      <trkpt lat="45.90079" lon="6.1824">
        <ele>1326</ele>
        <time>2011-04-10T10:15:02Z</time>
      </trkpt>
      <trkpt lat="45.90079" lon="6.1824">
        <ele>1327</ele>
        <time>2011-04-10T10:15:03Z</time>
      </trkpt>
      <trkpt lat="45.90079" lon="6.18241">
        <ele>1327</ele>
        <time>2011-04-10T10:15:04Z</time>
      </trkpt>
      <trkpt lat="45.90078" lon="6.18243">
        <ele>1327</ele>
        <time>2011-04-10T10:15:05Z</time>
      </trkpt>
      <trkpt lat="45.90078" lon="6.18243">
        <ele>1327</ele>
        <time>2011-04-10T10:15:06Z</time>
      </trkpt>
      <trkpt lat="45.90078" lon="6.18244">
        <ele>1327</ele>
        <time>2011-04-10T10:15:07Z</time>
      </trkpt>
      <trkpt lat="45.90077" lon="6.18245">
        <ele>1328</ele>
        <time>2011-04-10T10:15:08Z</time>
      </trkpt>
      <trkpt lat="45.90076" lon="6.18247">
        <ele>1328</ele>
        <time>2011-04-10T10:15:09Z</time>
      </trkpt>
      <trkpt lat="45.90076" lon="6.18248">
        <ele>1329</ele>
        <time>2011-04-10T10:15:11Z</time>
      </trkpt>
      <trkpt lat="45.90076" lon="6.18248">
        <ele>1329</ele>
        <time>2011-04-10T10:15:12Z</time>
      </trkpt>
      <trkpt lat="45.90075" lon="6.18248">
        <ele>1329</ele>
        <time>2011-04-10T10:15:13Z</time>
      </trkpt>
      <trkpt lat="45.90075" lon="6.18248">
        <ele>1329</ele>
        <time>2011-04-10T10:15:14Z</time>
      </trkpt>
      <trkpt lat="45.90075" lon="6.18249">
        <ele>1328</ele>
        <time>2011-04-10T10:15:15Z</time>
      </trkpt>
      <trkpt lat="45.90075" lon="6.18249">
        <ele>1329</ele>
        <time>2011-04-10T10:15:16Z</time>
      </trkpt>
      <trkpt lat="45.90075" lon="6.1825">
        <ele>1329</ele>
        <time>2011-04-10T10:15:17Z</time>
      </trkpt>
      <trkpt lat="45.90075" lon="6.18252">
        <ele>1329</ele>
        <time>2011-04-10T10:15:18Z</time>
      </trkpt>
      <trkpt lat="45.90074" lon="6.18253">
        <ele>1330</ele>
        <time>2011-04-10T10:15:19Z</time>
      </trkpt>
      <trkpt lat="45.90072" lon="6.18254">
        <ele>1330</ele>
        <time>2011-04-10T10:15:21Z</time>
      </trkpt>
      <trkpt lat="45.90069" lon="6.18256">
        <ele>1331</ele>
        <time>2011-04-10T10:15:43Z</time>
      </trkpt>
      <trkpt lat="45.90065" lon="6.18256">
        <ele>1330</ele>
        <time>2011-04-10T10:15:44Z</time>
      </trkpt>
      <trkpt lat="45.90061" lon="6.18256">
        <ele>1332</ele>
        <time>2011-04-10T10:21:57Z</time>
      </trkpt>
      <trkpt lat="45.90058" lon="6.18258">
        <ele>1333</ele>
        <time>2011-04-10T10:21:58Z</time>
      </trkpt>
      <trkpt lat="45.90055" lon="6.1826">
        <ele>1334</ele>
        <time>2011-04-10T10:21:59Z</time>
      </trkpt>
      <trkpt lat="45.90053" lon="6.18263">
        <ele>1334</ele>
        <time>2011-04-10T10:22:00Z</time>
      </trkpt>
      <trkpt lat="45.9005" lon="6.18263">
        <ele>1335</ele>
        <time>2011-04-10T10:22:02Z</time>
      </trkpt>
      <trkpt lat="45.90047" lon="6.18264">
        <ele>1334</ele>
        <time>2011-04-10T10:22:03Z</time>
      </trkpt>
      <trkpt lat="45.90045" lon="6.18265">
        <ele>1335</ele>
        <time>2011-04-10T10:22:04Z</time>
      </trkpt>
      <trkpt lat="45.90044" lon="6.18265">
        <ele>1336</ele>
        <time>2011-04-10T10:22:05Z</time>
      </trkpt>
      <trkpt lat="45.90043" lon="6.18266">
        <ele>1336</ele>
        <time>2011-04-10T10:22:06Z</time>
      </trkpt>
      <trkpt lat="45.90043" lon="6.1827">
        <ele>1335</ele>
        <time>2011-04-10T10:22:07Z</time>
      </trkpt>
      <trkpt lat="45.90043" lon="6.18271">
        <ele>1334</ele>
        <time>2011-04-10T10:22:08Z</time>
      </trkpt>
      <trkpt lat="45.90043" lon="6.18273">
        <ele>1334</ele>
        <time>2011-04-10T10:22:09Z</time>
      </trkpt>
      <trkpt lat="45.90042" lon="6.18274">
        <ele>1334</ele>
        <time>2011-04-10T10:22:10Z</time>
      </trkpt>
      <trkpt lat="45.90041" lon="6.18274">
        <ele>1334</ele>
        <time>2011-04-10T10:22:11Z</time>
      </trkpt>
      <trkpt lat="45.90041" lon="6.18275">
        <ele>1334</ele>
        <time>2011-04-10T10:22:12Z</time>
      </trkpt>
      <trkpt lat="45.90041" lon="6.18276">
        <ele>1334</ele>
        <time>2011-04-10T10:22:13Z</time>
      </trkpt>
      <trkpt lat="45.9004" lon="6.18276">
        <ele>1334</ele>
        <time>2011-04-10T10:22:14Z</time>
      </trkpt>
      <trkpt lat="45.90036" lon="6.18279">
        <ele>1334</ele>
        <time>2011-04-10T10:22:18Z</time>
      </trkpt>
      <trkpt lat="45.90036" lon="6.1828">
        <ele>1334</ele>
        <time>2011-04-10T10:22:19Z</time>
      </trkpt>
      <trkpt lat="45.90036" lon="6.18281">
        <ele>1334</ele>
        <time>2011-04-10T10:22:20Z</time>
      </trkpt>
      <trkpt lat="45.90035" lon="6.18282">
        <ele>1334</ele>
        <time>2011-04-10T10:22:21Z</time>
      </trkpt>
      <trkpt lat="45.90036" lon="6.18284">
        <ele>1334</ele>
        <time>2011-04-10T10:22:22Z</time>
      </trkpt>
      <trkpt lat="45.90035" lon="6.18285">
        <ele>1333</ele>
        <time>2011-04-10T10:22:23Z</time>
      </trkpt>
      <trkpt lat="45.90033" lon="6.18286">
        <ele>1334</ele>
        <time>2011-04-10T10:22:24Z</time>
      </trkpt>
      <trkpt lat="45.90033" lon="6.18287">
        <ele>1333</ele>
        <time>2011-04-10T10:22:25Z</time>
      </trkpt>
      <trkpt lat="45.90033" lon="6.18288">
        <ele>1333</ele>
        <time>2011-04-10T10:22:26Z</time>
      </trkpt>
      <trkpt lat="45.90032" lon="6.18292">
        <ele>1333</ele>
        <time>2011-04-10T10:22:28Z</time>
      </trkpt>
      <trkpt lat="45.90032" lon="6.18293">
        <ele>1333</ele>
        <time>2011-04-10T10:22:29Z</time>
      </trkpt>
      <trkpt lat="45.90031" lon="6.18294">
        <ele>1333</ele>
        <time>2011-04-10T10:22:30Z</time>
      </trkpt>
      <trkpt lat="45.90031" lon="6.18296">
        <ele>1333</ele>
        <time>2011-04-10T10:22:31Z</time>
      </trkpt>
      <trkpt lat="45.90025" lon="6.183">
        <ele>1334</ele>
        <time>2011-04-10T10:22:49Z</time>
      </trkpt>
      <trkpt lat="45.90022" lon="6.18301">
        <ele>1334</ele>
        <time>2011-04-10T10:22:50Z</time>
      </trkpt>
      <trkpt lat="45.90021" lon="6.18302">
        <ele>1335</ele>
        <time>2011-04-10T10:22:51Z</time>
      </trkpt>
      <trkpt lat="45.9002" lon="6.18304">
        <ele>1334</ele>
        <time>2011-04-10T10:22:52Z</time>
      </trkpt>
      <trkpt lat="45.90019" lon="6.18305">
        <ele>1334</ele>
        <time>2011-04-10T10:22:54Z</time>
      </trkpt>
      <trkpt lat="45.90018" lon="6.18307">
        <ele>1334</ele>
        <time>2011-04-10T10:22:55Z</time>
      </trkpt>
      <trkpt lat="45.90017" lon="6.18307">
        <ele>1334</ele>
        <time>2011-04-10T10:22:56Z</time>
      </trkpt>
      <trkpt lat="45.90016" lon="6.18308">
        <ele>1335</ele>
        <time>2011-04-10T10:22:57Z</time>
      </trkpt>
      <trkpt lat="45.90014" lon="6.18307">
        <ele>1335</ele>
        <time>2011-04-10T10:22:58Z</time>
      </trkpt>
      <trkpt lat="45.90013" lon="6.18308">
        <ele>1335</ele>
        <time>2011-04-10T10:22:59Z</time>
      </trkpt>
      <trkpt lat="45.90012" lon="6.18309">
        <ele>1334</ele>
        <time>2011-04-10T10:23:00Z</time>
      </trkpt>
      <trkpt lat="45.9001" lon="6.1831">
        <ele>1334</ele>
        <time>2011-04-10T10:23:02Z</time>
      </trkpt>
      <trkpt lat="45.90009" lon="6.1831">
        <ele>1334</ele>
        <time>2011-04-10T10:23:03Z</time>
      </trkpt>
      <trkpt lat="45.90009" lon="6.18312">
        <ele>1333</ele>
        <time>2011-04-10T10:23:04Z</time>
      </trkpt>
      <trkpt lat="45.90009" lon="6.18314">
        <ele>1332</ele>
        <time>2011-04-10T10:23:05Z</time>
      </trkpt>
      <trkpt lat="45.90009" lon="6.18315">
        <ele>1332</ele>
        <time>2011-04-10T10:23:06Z</time>
      </trkpt>
      <trkpt lat="45.90007" lon="6.18317">
        <ele>1332</ele>
        <time>2011-04-10T10:23:07Z</time>
      </trkpt>
      <trkpt lat="45.90007" lon="6.18318">
        <ele>1332</ele>
        <time>2011-04-10T10:23:08Z</time>
      </trkpt>
      <trkpt lat="45.90006" lon="6.18318">
        <ele>1332</ele>
        <time>2011-04-10T10:23:09Z</time>
      </trkpt>
      <trkpt lat="45.90005" lon="6.1832">
        <ele>1331</ele>
        <time>2011-04-10T10:23:10Z</time>
      </trkpt>
      <trkpt lat="45.90004" lon="6.1832">
        <ele>1331</ele>
        <time>2011-04-10T10:23:11Z</time>
      </trkpt>
      <trkpt lat="45.90003" lon="6.18321">
        <ele>1330</ele>
        <time>2011-04-10T10:23:12Z</time>
      </trkpt>
      <trkpt lat="45.90002" lon="6.18322">
        <ele>1330</ele>
        <time>2011-04-10T10:23:13Z</time>
      </trkpt>
      <trkpt lat="45.90001" lon="6.18323">
        <ele>1330</ele>
        <time>2011-04-10T10:23:14Z</time>
      </trkpt>
      <trkpt lat="45.90001" lon="6.18324">
        <ele>1331</ele>
        <time>2011-04-10T10:23:15Z</time>
      </trkpt>
      <trkpt lat="45.89998" lon="6.18324">
        <ele>1330</ele>
        <time>2011-04-10T10:23:16Z</time>
      </trkpt>
      <trkpt lat="45.89997" lon="6.18325">
        <ele>1330</ele>
        <time>2011-04-10T10:23:17Z</time>
      </trkpt>
      <trkpt lat="45.89997" lon="6.18328">
        <ele>1329</ele>
        <time>2011-04-10T10:23:18Z</time>
      </trkpt>
      <trkpt lat="45.89997" lon="6.1833">
        <ele>1329</ele>
        <time>2011-04-10T10:23:19Z</time>
      </trkpt>
      <trkpt lat="45.89996" lon="6.18333">
        <ele>1329</ele>
        <time>2011-04-10T10:23:25Z</time>
      </trkpt>
      <trkpt lat="45.89995" lon="6.18335">
        <ele>1329</ele>
        <time>2011-04-10T10:23:26Z</time>
      </trkpt>
      <trkpt lat="45.89995" lon="6.18337">
        <ele>1329</ele>
        <time>2011-04-10T10:23:27Z</time>
      </trkpt>
      <trkpt lat="45.89995" lon="6.18339">
        <ele>1327</ele>
        <time>2011-04-10T10:23:28Z</time>
      </trkpt>
      <trkpt lat="45.89994" lon="6.18341">
        <ele>1327</ele>
        <time>2011-04-10T10:23:29Z</time>
      </trkpt>
      <trkpt lat="45.89994" lon="6.18343">
        <ele>1326</ele>
        <time>2011-04-10T10:23:30Z</time>
      </trkpt>
      <trkpt lat="45.89994" lon="6.18344">
        <ele>1326</ele>
        <time>2011-04-10T10:23:31Z</time>
      </trkpt>
      <trkpt lat="45.89993" lon="6.18345">
        <ele>1326</ele>
        <time>2011-04-10T10:23:32Z</time>
      </trkpt>
      <trkpt lat="45.89994" lon="6.18347">
        <ele>1324</ele>
        <time>2011-04-10T10:23:33Z</time>
      </trkpt>
      <trkpt lat="45.89994" lon="6.18348">
        <ele>1323</ele>
        <time>2011-04-10T10:23:34Z</time>
      </trkpt>
      <trkpt lat="45.89994" lon="6.18349">
        <ele>1323</ele>
        <time>2011-04-10T10:23:35Z</time>
      </trkpt>
      <trkpt lat="45.89995" lon="6.18351">
        <ele>1323</ele>
        <time>2011-04-10T10:23:36Z</time>
      </trkpt>
      <trkpt lat="45.89994" lon="6.18352">
        <ele>1324</ele>
        <time>2011-04-10T10:23:37Z</time>
      </trkpt>
      <trkpt lat="45.89994" lon="6.18353">
        <ele>1323</ele>
        <time>2011-04-10T10:23:38Z</time>
      </trkpt>
      <trkpt lat="45.89993" lon="6.18354">
        <ele>1324</ele>
        <time>2011-04-10T10:23:39Z</time>
      </trkpt>
      <trkpt lat="45.89992" lon="6.18355">
        <ele>1323</ele>
        <time>2011-04-10T10:23:40Z</time>
      </trkpt>
      <trkpt lat="45.89994" lon="6.18358">
        <ele>1323</ele>
        <time>2011-04-10T10:23:41Z</time>
      </trkpt>
      <trkpt lat="45.89993" lon="6.18359">
        <ele>1323</ele>
        <time>2011-04-10T10:23:42Z</time>
      </trkpt>
      <trkpt lat="45.89992" lon="6.1836">
        <ele>1323</ele>
        <time>2011-04-10T10:23:43Z</time>
      </trkpt>
      <trkpt lat="45.89992" lon="6.18362">
        <ele>1323</ele>
        <time>2011-04-10T10:23:44Z</time>
      </trkpt>
      <trkpt lat="45.89992" lon="6.18361">
        <ele>1323</ele>
        <time>2011-04-10T10:23:45Z</time>
      </trkpt>
      <trkpt lat="45.89992" lon="6.18362">
        <ele>1323</ele>
        <time>2011-04-10T10:23:46Z</time>
      </trkpt>
      <trkpt lat="45.89989" lon="6.18366">
        <ele>1322</ele>
        <time>2011-04-10T10:23:49Z</time>
      </trkpt>
      <trkpt lat="45.89987" lon="6.18366">
        <ele>1322</ele>
        <time>2011-04-10T10:23:50Z</time>
      </trkpt>
      <trkpt lat="45.89986" lon="6.18366">
        <ele>1322</ele>
        <time>2011-04-10T10:23:51Z</time>
      </trkpt>
      <trkpt lat="45.89985" lon="6.18367">
        <ele>1322</ele>
        <time>2011-04-10T10:23:52Z</time>
      </trkpt>
      <trkpt lat="45.89984" lon="6.18367">
        <ele>1321</ele>
        <time>2011-04-10T10:23:53Z</time>
      </trkpt>
      <trkpt lat="45.89982" lon="6.18368">
        <ele>1321</ele>
        <time>2011-04-10T10:23:55Z</time>
      </trkpt>
      <trkpt lat="45.8998" lon="6.18368">
        <ele>1322</ele>
        <time>2011-04-10T10:23:56Z</time>
      </trkpt>
      <trkpt lat="45.89979" lon="6.1837">
        <ele>1322</ele>
        <time>2011-04-10T10:23:57Z</time>
      </trkpt>
      <trkpt lat="45.89978" lon="6.1837">
        <ele>1322</ele>
        <time>2011-04-10T10:23:58Z</time>
      </trkpt>
      <trkpt lat="45.89977" lon="6.18372">
        <ele>1322</ele>
        <time>2011-04-10T10:23:59Z</time>
      </trkpt>
      <trkpt lat="45.89976" lon="6.18374">
        <ele>1322</ele>
        <time>2011-04-10T10:24:00Z</time>
      </trkpt>
      <trkpt lat="45.89975" lon="6.18378">
        <ele>1321</ele>
        <time>2011-04-10T10:24:02Z</time>
      </trkpt>
      <trkpt lat="45.89974" lon="6.18379">
        <ele>1321</ele>
        <time>2011-04-10T10:24:03Z</time>
      </trkpt>
      <trkpt lat="45.89974" lon="6.18381">
        <ele>1321</ele>
        <time>2011-04-10T10:24:04Z</time>
      </trkpt>
      <trkpt lat="45.89973" lon="6.18381">
        <ele>1321</ele>
        <time>2011-04-10T10:24:05Z</time>
      </trkpt>
      <trkpt lat="45.89971" lon="6.18383">
        <ele>1321</ele>
        <time>2011-04-10T10:24:06Z</time>
      </trkpt>
      <trkpt lat="45.8997" lon="6.18383">
        <ele>1321</ele>
        <time>2011-04-10T10:24:07Z</time>
      </trkpt>
      <trkpt lat="45.89969" lon="6.18384">
        <ele>1323</ele>
        <time>2011-04-10T10:24:08Z</time>
      </trkpt>
      <trkpt lat="45.89968" lon="6.18384">
        <ele>1322</ele>
        <time>2011-04-10T10:24:09Z</time>
      </trkpt>
      <trkpt lat="45.89967" lon="6.18386">
        <ele>1322</ele>
        <time>2011-04-10T10:24:10Z</time>
      </trkpt>
      <trkpt lat="45.89966" lon="6.18387">
        <ele>1321</ele>
        <time>2011-04-10T10:24:11Z</time>
      </trkpt>
      <trkpt lat="45.89966" lon="6.18389">
        <ele>1321</ele>
        <time>2011-04-10T10:24:12Z</time>
      </trkpt>
      <trkpt lat="45.89966" lon="6.1839">
        <ele>1321</ele>
        <time>2011-04-10T10:24:13Z</time>
      </trkpt>
      <trkpt lat="45.89966" lon="6.1839">
        <ele>1321</ele>
        <time>2011-04-10T10:24:14Z</time>
      </trkpt>
      <trkpt lat="45.89965" lon="6.1839">
        <ele>1321</ele>
        <time>2011-04-10T10:24:15Z</time>
      </trkpt>
      <trkpt lat="45.89965" lon="6.18391">
        <ele>1321</ele>
        <time>2011-04-10T10:24:16Z</time>
      </trkpt>
      <trkpt lat="45.89963" lon="6.18393">
        <ele>1321</ele>
        <time>2011-04-10T10:24:17Z</time>
      </trkpt>
      <trkpt lat="45.89963" lon="6.18394">
        <ele>1321</ele>
        <time>2011-04-10T10:24:18Z</time>
      </trkpt>
      <trkpt lat="45.89962" lon="6.18396">
        <ele>1321</ele>
        <time>2011-04-10T10:24:19Z</time>
      </trkpt>
      <trkpt lat="45.89962" lon="6.18396">
        <ele>1321</ele>
        <time>2011-04-10T10:24:20Z</time>
      </trkpt>
      <trkpt lat="45.8996" lon="6.18397">
        <ele>1321</ele>
        <time>2011-04-10T10:24:21Z</time>
      </trkpt>
      <trkpt lat="45.89959" lon="6.18397">
        <ele>1321</ele>
        <time>2011-04-10T10:24:22Z</time>
      </trkpt>
      <trkpt lat="45.89959" lon="6.18397">
        <ele>1320</ele>
        <time>2011-04-10T10:24:23Z</time>
      </trkpt>
      <trkpt lat="45.89958" lon="6.18397">
        <ele>1320</ele>
        <time>2011-04-10T10:24:24Z</time>
      </trkpt>
      <trkpt lat="45.89958" lon="6.18398">
        <ele>1320</ele>
        <time>2011-04-10T10:24:25Z</time>
      </trkpt>
      <trkpt lat="45.89957" lon="6.18399">
        <ele>1319</ele>
        <time>2011-04-10T10:24:26Z</time>
      </trkpt>
      <trkpt lat="45.89955" lon="6.18399">
        <ele>1319</ele>
        <time>2011-04-10T10:24:27Z</time>
      </trkpt>
      <trkpt lat="45.89955" lon="6.184">
        <ele>1318</ele>
        <time>2011-04-10T10:24:28Z</time>
      </trkpt>
      <trkpt lat="45.89954" lon="6.18401">
        <ele>1318</ele>
        <time>2011-04-10T10:24:29Z</time>
      </trkpt>
      <trkpt lat="45.89953" lon="6.18401">
        <ele>1319</ele>
        <time>2011-04-10T10:24:30Z</time>
      </trkpt>
      <trkpt lat="45.89953" lon="6.18401">
        <ele>1318</ele>
        <time>2011-04-10T10:24:31Z</time>
      </trkpt>
      <trkpt lat="45.89953" lon="6.18402">
        <ele>1318</ele>
        <time>2011-04-10T10:24:32Z</time>
      </trkpt>
      <trkpt lat="45.89953" lon="6.18402">
        <ele>1318</ele>
        <time>2011-04-10T10:24:33Z</time>
      </trkpt>
      <trkpt lat="45.89954" lon="6.18403">
        <ele>1318</ele>
        <time>2011-04-10T10:24:36Z</time>
      </trkpt>
      <trkpt lat="45.89953" lon="6.18404">
        <ele>1320</ele>
        <time>2011-04-10T10:24:48Z</time>
      </trkpt>
      <trkpt lat="45.89951" lon="6.18407">
        <ele>1319</ele>
        <time>2011-04-10T10:24:49Z</time>
      </trkpt>
      <trkpt lat="45.8995" lon="6.18409">
        <ele>1319</ele>
        <time>2011-04-10T10:24:50Z</time>
      </trkpt>
      <trkpt lat="45.89948" lon="6.1841">
        <ele>1319</ele>
        <time>2011-04-10T10:24:51Z</time>
      </trkpt>
      <trkpt lat="45.89948" lon="6.1841">
        <ele>1320</ele>
        <time>2011-04-10T10:24:52Z</time>
      </trkpt>
      <trkpt lat="45.89947" lon="6.18411">
        <ele>1320</ele>
        <time>2011-04-10T10:24:53Z</time>
      </trkpt>
      <trkpt lat="45.89946" lon="6.18411">
        <ele>1319</ele>
        <time>2011-04-10T10:24:54Z</time>
      </trkpt>
      <trkpt lat="45.89945" lon="6.1841">
        <ele>1318</ele>
        <time>2011-04-10T10:24:55Z</time>
      </trkpt>
      <trkpt lat="45.89944" lon="6.18409">
        <ele>1318</ele>
        <time>2011-04-10T10:24:56Z</time>
      </trkpt>
      <trkpt lat="45.89943" lon="6.18411">
        <ele>1318</ele>
        <time>2011-04-10T10:24:57Z</time>
      </trkpt>
      <trkpt lat="45.89942" lon="6.18413">
        <ele>1318</ele>
        <time>2011-04-10T10:24:58Z</time>
      </trkpt>
      <trkpt lat="45.89941" lon="6.18414">
        <ele>1317</ele>
        <time>2011-04-10T10:24:59Z</time>
      </trkpt>
      <trkpt lat="45.8994" lon="6.18416">
        <ele>1318</ele>
        <time>2011-04-10T10:25:00Z</time>
      </trkpt>
      <trkpt lat="45.89938" lon="6.18418">
        <ele>1317</ele>
        <time>2011-04-10T10:25:02Z</time>
      </trkpt>
      <trkpt lat="45.89938" lon="6.1842">
        <ele>1317</ele>
        <time>2011-04-10T10:25:03Z</time>
      </trkpt>
      <trkpt lat="45.89938" lon="6.18421">
        <ele>1317</ele>
        <time>2011-04-10T10:25:04Z</time>
      </trkpt>
      <trkpt lat="45.89938" lon="6.18421">
        <ele>1317</ele>
        <time>2011-04-10T10:25:05Z</time>
      </trkpt>
      <trkpt lat="45.89938" lon="6.18421">
        <ele>1318</ele>
        <time>2011-04-10T10:25:06Z</time>
      </trkpt>
      <trkpt lat="45.89937" lon="6.18419">
        <ele>1318</ele>
        <time>2011-04-10T10:25:15Z</time>
      </trkpt>
      <trkpt lat="45.89936" lon="6.1842">
        <ele>1318</ele>
        <time>2011-04-10T10:25:16Z</time>
      </trkpt>
      <trkpt lat="45.89935" lon="6.18421">
        <ele>1318</ele>
        <time>2011-04-10T10:25:17Z</time>
      </trkpt>
      <trkpt lat="45.89935" lon="6.18422">
        <ele>1317</ele>
        <time>2011-04-10T10:25:18Z</time>
      </trkpt>
      <trkpt lat="45.89935" lon="6.18424">
        <ele>1318</ele>
        <time>2011-04-10T10:25:19Z</time>
      </trkpt>
      <trkpt lat="45.89933" lon="6.18424">
        <ele>1318</ele>
        <time>2011-04-10T10:25:20Z</time>
      </trkpt>
      <trkpt lat="45.89933" lon="6.18425">
        <ele>1318</ele>
        <time>2011-04-10T10:25:21Z</time>
      </trkpt>
      <trkpt lat="45.89931" lon="6.18427">
        <ele>1319</ele>
        <time>2011-04-10T10:25:22Z</time>
      </trkpt>
      <trkpt lat="45.8993" lon="6.18428">
        <ele>1319</ele>
        <time>2011-04-10T10:25:23Z</time>
      </trkpt>
      <trkpt lat="45.89929" lon="6.18429">
        <ele>1318</ele>
        <time>2011-04-10T10:25:24Z</time>
      </trkpt>
      <trkpt lat="45.89927" lon="6.1843">
        <ele>1318</ele>
        <time>2011-04-10T10:25:25Z</time>
      </trkpt>
      <trkpt lat="45.89926" lon="6.18431">
        <ele>1318</ele>
        <time>2011-04-10T10:25:26Z</time>
      </trkpt>
      <trkpt lat="45.89925" lon="6.18432">
        <ele>1317</ele>
        <time>2011-04-10T10:25:27Z</time>
      </trkpt>
      <trkpt lat="45.89924" lon="6.18433">
        <ele>1318</ele>
        <time>2011-04-10T10:25:28Z</time>
      </trkpt>
      <trkpt lat="45.89923" lon="6.18433">
        <ele>1318</ele>
        <time>2011-04-10T10:25:29Z</time>
      </trkpt>
      <trkpt lat="45.89922" lon="6.18434">
        <ele>1318</ele>
        <time>2011-04-10T10:25:30Z</time>
      </trkpt>
      <trkpt lat="45.89922" lon="6.18436">
        <ele>1318</ele>
        <time>2011-04-10T10:25:31Z</time>
      </trkpt>
      <trkpt lat="45.89921" lon="6.18438">
        <ele>1317</ele>
        <time>2011-04-10T10:25:32Z</time>
      </trkpt>
      <trkpt lat="45.89919" lon="6.18437">
        <ele>1317</ele>
        <time>2011-04-10T10:25:33Z</time>
      </trkpt>
      <trkpt lat="45.89918" lon="6.18438">
        <ele>1317</ele>
        <time>2011-04-10T10:25:34Z</time>
      </trkpt>
      <trkpt lat="45.89916" lon="6.18438">
        <ele>1317</ele>
        <time>2011-04-10T10:25:35Z</time>
      </trkpt>
      <trkpt lat="45.89915" lon="6.18439">
        <ele>1318</ele>
        <time>2011-04-10T10:25:36Z</time>
      </trkpt>
      <trkpt lat="45.89913" lon="6.18438">
        <ele>1318</ele>
        <time>2011-04-10T10:25:37Z</time>
      </trkpt>
      <trkpt lat="45.89913" lon="6.18439">
        <ele>1318</ele>
        <time>2011-04-10T10:25:38Z</time>
      </trkpt>
      <trkpt lat="45.89912" lon="6.1844">
        <ele>1319</ele>
        <time>2011-04-10T10:25:39Z</time>
      </trkpt>
      <trkpt lat="45.8991" lon="6.18441">
        <ele>1319</ele>
        <time>2011-04-10T10:25:40Z</time>
      </trkpt>
      <trkpt lat="45.8991" lon="6.18442">
        <ele>1319</ele>
        <time>2011-04-10T10:25:41Z</time>
      </trkpt>
      <trkpt lat="45.89909" lon="6.18444">
        <ele>1318</ele>
        <time>2011-04-10T10:25:42Z</time>
      </trkpt>
      <trkpt lat="45.89908" lon="6.18444">
        <ele>1318</ele>
        <time>2011-04-10T10:25:43Z</time>
      </trkpt>
      <trkpt lat="45.89907" lon="6.18446">
        <ele>1318</ele>
        <time>2011-04-10T10:25:44Z</time>
      </trkpt>
      <trkpt lat="45.89907" lon="6.18446">
        <ele>1319</ele>
        <time>2011-04-10T10:25:45Z</time>
      </trkpt>
      <trkpt lat="45.89906" lon="6.18449">
        <ele>1318</ele>
        <time>2011-04-10T10:25:46Z</time>
      </trkpt>
      <trkpt lat="45.89906" lon="6.18452">
        <ele>1318</ele>
        <time>2011-04-10T10:25:47Z</time>
      </trkpt>
      <trkpt lat="45.89905" lon="6.18454">
        <ele>1319</ele>
        <time>2011-04-10T10:25:48Z</time>
      </trkpt>
      <trkpt lat="45.89904" lon="6.18454">
        <ele>1319</ele>
        <time>2011-04-10T10:25:49Z</time>
      </trkpt>
      <trkpt lat="45.89903" lon="6.18454">
        <ele>1318</ele>
        <time>2011-04-10T10:25:50Z</time>
      </trkpt>
      <trkpt lat="45.89902" lon="6.18455">
        <ele>1318</ele>
        <time>2011-04-10T10:25:51Z</time>
      </trkpt>
      <trkpt lat="45.89902" lon="6.18456">
        <ele>1318</ele>
        <time>2011-04-10T10:25:52Z</time>
      </trkpt>
      <trkpt lat="45.89902" lon="6.18456">
        <ele>1318</ele>
        <time>2011-04-10T10:25:53Z</time>
      </trkpt>
      <trkpt lat="45.89901" lon="6.18457">
        <ele>1317</ele>
        <time>2011-04-10T10:25:54Z</time>
      </trkpt>
      <trkpt lat="45.89901" lon="6.18458">
        <ele>1317</ele>
        <time>2011-04-10T10:25:55Z</time>
      </trkpt>
      <trkpt lat="45.899" lon="6.18459">
        <ele>1317</ele>
        <time>2011-04-10T10:25:56Z</time>
      </trkpt>
      <trkpt lat="45.899" lon="6.18461">
        <ele>1316</ele>
        <time>2011-04-10T10:25:57Z</time>
      </trkpt>
      <trkpt lat="45.89898" lon="6.18462">
        <ele>1317</ele>
        <time>2011-04-10T10:25:58Z</time>
      </trkpt>
      <trkpt lat="45.89896" lon="6.18462">
        <ele>1316</ele>
        <time>2011-04-10T10:25:59Z</time>
      </trkpt>
      <trkpt lat="45.89895" lon="6.18463">
        <ele>1317</ele>
        <time>2011-04-10T10:26:00Z</time>
      </trkpt>
      <trkpt lat="45.89895" lon="6.18466">
        <ele>1317</ele>
        <time>2011-04-10T10:26:02Z</time>
      </trkpt>
      <trkpt lat="45.89894" lon="6.18467">
        <ele>1317</ele>
        <time>2011-04-10T10:26:03Z</time>
      </trkpt>
      <trkpt lat="45.89893" lon="6.18468">
        <ele>1318</ele>
        <time>2011-04-10T10:26:04Z</time>
      </trkpt>
      <trkpt lat="45.89892" lon="6.18468">
        <ele>1318</ele>
        <time>2011-04-10T10:26:05Z</time>
      </trkpt>
      <trkpt lat="45.89891" lon="6.18468">
        <ele>1319</ele>
        <time>2011-04-10T10:26:06Z</time>
      </trkpt>
      <trkpt lat="45.89891" lon="6.18467">
        <ele>1318</ele>
        <time>2011-04-10T10:26:07Z</time>
      </trkpt>
      <trkpt lat="45.8989" lon="6.18468">
        <ele>1318</ele>
        <time>2011-04-10T10:26:08Z</time>
      </trkpt>
      <trkpt lat="45.89889" lon="6.18467">
        <ele>1318</ele>
        <time>2011-04-10T10:26:09Z</time>
      </trkpt>
      <trkpt lat="45.89887" lon="6.18468">
        <ele>1318</ele>
        <time>2011-04-10T10:26:10Z</time>
      </trkpt>
      <trkpt lat="45.89886" lon="6.18466">
        <ele>1319</ele>
        <time>2011-04-10T10:26:11Z</time>
      </trkpt>
      <trkpt lat="45.89886" lon="6.18466">
        <ele>1319</ele>
        <time>2011-04-10T10:26:12Z</time>
      </trkpt>
      <trkpt lat="45.89885" lon="6.18466">
        <ele>1319</ele>
        <time>2011-04-10T10:26:13Z</time>
      </trkpt>
      <trkpt lat="45.89885" lon="6.18466">
        <ele>1319</ele>
        <time>2011-04-10T10:26:14Z</time>
      </trkpt>
      <trkpt lat="45.89884" lon="6.18465">
        <ele>1318</ele>
        <time>2011-04-10T10:26:15Z</time>
      </trkpt>
      <trkpt lat="45.89883" lon="6.18465">
        <ele>1318</ele>
        <time>2011-04-10T10:26:16Z</time>
      </trkpt>
      <trkpt lat="45.89883" lon="6.18466">
        <ele>1318</ele>
        <time>2011-04-10T10:26:17Z</time>
      </trkpt>
      <trkpt lat="45.89882" lon="6.18467">
        <ele>1318</ele>
        <time>2011-04-10T10:26:18Z</time>
      </trkpt>
      <trkpt lat="45.8988" lon="6.18468">
        <ele>1318</ele>
        <time>2011-04-10T10:26:19Z</time>
      </trkpt>
      <trkpt lat="45.8988" lon="6.18469">
        <ele>1317</ele>
        <time>2011-04-10T10:26:20Z</time>
      </trkpt>
      <trkpt lat="45.89879" lon="6.18469">
        <ele>1316</ele>
        <time>2011-04-10T10:26:21Z</time>
      </trkpt>
      <trkpt lat="45.89878" lon="6.1847">
        <ele>1316</ele>
        <time>2011-04-10T10:26:22Z</time>
      </trkpt>
      <trkpt lat="45.89877" lon="6.1847">
        <ele>1317</ele>
        <time>2011-04-10T10:26:23Z</time>
      </trkpt>
      <trkpt lat="45.89876" lon="6.1847">
        <ele>1317</ele>
        <time>2011-04-10T10:26:24Z</time>
      </trkpt>
      <trkpt lat="45.89876" lon="6.18471">
        <ele>1317</ele>
        <time>2011-04-10T10:26:25Z</time>
      </trkpt>
      <trkpt lat="45.89876" lon="6.18474">
        <ele>1317</ele>
        <time>2011-04-10T10:26:26Z</time>
      </trkpt>
      <trkpt lat="45.89875" lon="6.18475">
        <ele>1316</ele>
        <time>2011-04-10T10:26:27Z</time>
      </trkpt>
      <trkpt lat="45.89874" lon="6.18475">
        <ele>1316</ele>
        <time>2011-04-10T10:26:28Z</time>
      </trkpt>
      <trkpt lat="45.89874" lon="6.18477">
        <ele>1317</ele>
        <time>2011-04-10T10:26:29Z</time>
      </trkpt>
      <trkpt lat="45.89874" lon="6.18478">
        <ele>1316</ele>
        <time>2011-04-10T10:26:30Z</time>
      </trkpt>
      <trkpt lat="45.89873" lon="6.1848">
        <ele>1317</ele>
        <time>2011-04-10T10:26:31Z</time>
      </trkpt>
      <trkpt lat="45.89872" lon="6.18482">
        <ele>1316</ele>
        <time>2011-04-10T10:26:32Z</time>
      </trkpt>
      <trkpt lat="45.89871" lon="6.18482">
        <ele>1316</ele>
        <time>2011-04-10T10:26:33Z</time>
      </trkpt>
      <trkpt lat="45.8987" lon="6.18482">
        <ele>1316</ele>
        <time>2011-04-10T10:26:34Z</time>
      </trkpt>
      <trkpt lat="45.89869" lon="6.18482">
        <ele>1317</ele>
        <time>2011-04-10T10:26:35Z</time>
      </trkpt>
      <trkpt lat="45.89868" lon="6.18483">
        <ele>1317</ele>
        <time>2011-04-10T10:26:36Z</time>
      </trkpt>
      <trkpt lat="45.89868" lon="6.18481">
        <ele>1317</ele>
        <time>2011-04-10T10:26:37Z</time>
      </trkpt>
      <trkpt lat="45.89868" lon="6.18483">
        <ele>1317</ele>
        <time>2011-04-10T10:26:38Z</time>
      </trkpt>
      <trkpt lat="45.89867" lon="6.18483">
        <ele>1318</ele>
        <time>2011-04-10T10:26:39Z</time>
      </trkpt>
      <trkpt lat="45.89866" lon="6.18482">
        <ele>1317</ele>
        <time>2011-04-10T10:26:40Z</time>
      </trkpt>
      <trkpt lat="45.89866" lon="6.18483">
        <ele>1317</ele>
        <time>2011-04-10T10:26:41Z</time>
      </trkpt>
      <trkpt lat="45.89865" lon="6.18483">
        <ele>1317</ele>
        <time>2011-04-10T10:26:42Z</time>
      </trkpt>
      <trkpt lat="45.89865" lon="6.18484">
        <ele>1317</ele>
        <time>2011-04-10T10:26:43Z</time>
      </trkpt>
      <trkpt lat="45.89864" lon="6.18484">
        <ele>1317</ele>
        <time>2011-04-10T10:26:44Z</time>
      </trkpt>
      <trkpt lat="45.89864" lon="6.18484">
        <ele>1318</ele>
        <time>2011-04-10T10:26:45Z</time>
      </trkpt>
      <trkpt lat="45.89864" lon="6.18484">
        <ele>1318</ele>
        <time>2011-04-10T10:26:46Z</time>
      </trkpt>
      <trkpt lat="45.89863" lon="6.18485">
        <ele>1318</ele>
        <time>2011-04-10T10:26:47Z</time>
      </trkpt>
      <trkpt lat="45.89862" lon="6.18487">
        <ele>1318</ele>
        <time>2011-04-10T10:26:48Z</time>
      </trkpt>
      <trkpt lat="45.89861" lon="6.18488">
        <ele>1318</ele>
        <time>2011-04-10T10:26:49Z</time>
      </trkpt>
      <trkpt lat="45.8986" lon="6.18488">
        <ele>1318</ele>
        <time>2011-04-10T10:26:50Z</time>
      </trkpt>
      <trkpt lat="45.89859" lon="6.18487">
        <ele>1319</ele>
        <time>2011-04-10T10:26:51Z</time>
      </trkpt>
      <trkpt lat="45.89858" lon="6.18487">
        <ele>1319</ele>
        <time>2011-04-10T10:26:52Z</time>
      </trkpt>
      <trkpt lat="45.89857" lon="6.18488">
        <ele>1319</ele>
        <time>2011-04-10T10:26:53Z</time>
      </trkpt>
      <trkpt lat="45.89857" lon="6.18488">
        <ele>1319</ele>
        <time>2011-04-10T10:26:54Z</time>
      </trkpt>
      <trkpt lat="45.89857" lon="6.18488">
        <ele>1319</ele>
        <time>2011-04-10T10:26:55Z</time>
      </trkpt>
      <trkpt lat="45.89856" lon="6.18489">
        <ele>1319</ele>
        <time>2011-04-10T10:26:56Z</time>
      </trkpt>
      <trkpt lat="45.89855" lon="6.18491">
        <ele>1320</ele>
        <time>2011-04-10T10:26:57Z</time>
      </trkpt>
      <trkpt lat="45.89854" lon="6.1849">
        <ele>1320</ele>
        <time>2011-04-10T10:26:58Z</time>
      </trkpt>
      <trkpt lat="45.89854" lon="6.18492">
        <ele>1320</ele>
        <time>2011-04-10T10:26:59Z</time>
      </trkpt>
      <trkpt lat="45.89854" lon="6.18492">
        <ele>1320</ele>
        <time>2011-04-10T10:27:00Z</time>
      </trkpt>
      <trkpt lat="45.89854" lon="6.18494">
        <ele>1320</ele>
        <time>2011-04-10T10:27:02Z</time>
      </trkpt>
      <trkpt lat="45.89854" lon="6.18495">
        <ele>1320</ele>
        <time>2011-04-10T10:27:03Z</time>
      </trkpt>
      <trkpt lat="45.89854" lon="6.18495">
        <ele>1319</ele>
        <time>2011-04-10T10:27:04Z</time>
      </trkpt>
      <trkpt lat="45.89852" lon="6.18497">
        <ele>1320</ele>
        <time>2011-04-10T10:27:05Z</time>
      </trkpt>
      <trkpt lat="45.89852" lon="6.18497">
        <ele>1320</ele>
        <time>2011-04-10T10:27:06Z</time>
      </trkpt>
      <trkpt lat="45.89845" lon="6.18501">
        <ele>1317</ele>
        <time>2011-04-10T10:28:30Z</time>
      </trkpt>
      <trkpt lat="45.89842" lon="6.18502">
        <ele>1319</ele>
        <time>2011-04-10T10:28:31Z</time>
      </trkpt>
      <trkpt lat="45.8984" lon="6.18505">
        <ele>1320</ele>
        <time>2011-04-10T10:28:32Z</time>
      </trkpt>
      <trkpt lat="45.89838" lon="6.18506">
        <ele>1319</ele>
        <time>2011-04-10T10:28:33Z</time>
      </trkpt>
      <trkpt lat="45.89835" lon="6.18506">
        <ele>1320</ele>
        <time>2011-04-10T10:28:34Z</time>
      </trkpt>
      <trkpt lat="45.89833" lon="6.18508">
        <ele>1320</ele>
        <time>2011-04-10T10:28:35Z</time>
      </trkpt>
      <trkpt lat="45.89832" lon="6.18506">
        <ele>1319</ele>
        <time>2011-04-10T10:28:36Z</time>
      </trkpt>
      <trkpt lat="45.89829" lon="6.18506">
        <ele>1321</ele>
        <time>2011-04-10T10:28:37Z</time>
      </trkpt>
      <trkpt lat="45.89827" lon="6.18509">
        <ele>1321</ele>
        <time>2011-04-10T10:28:38Z</time>
      </trkpt>
      <trkpt lat="45.89826" lon="6.18509">
        <ele>1321</ele>
        <time>2011-04-10T10:28:39Z</time>
      </trkpt>
      <trkpt lat="45.89825" lon="6.18509">
        <ele>1322</ele>
        <time>2011-04-10T10:28:40Z</time>
      </trkpt>
      <trkpt lat="45.89824" lon="6.18509">
        <ele>1322</ele>
        <time>2011-04-10T10:28:41Z</time>
      </trkpt>
      <trkpt lat="45.89823" lon="6.18508">
        <ele>1322</ele>
        <time>2011-04-10T10:28:42Z</time>
      </trkpt>
      <trkpt lat="45.89823" lon="6.18509">
        <ele>1322</ele>
        <time>2011-04-10T10:28:43Z</time>
      </trkpt>
      <trkpt lat="45.89822" lon="6.18509">
        <ele>1322</ele>
        <time>2011-04-10T10:28:44Z</time>
      </trkpt>
      <trkpt lat="45.89821" lon="6.1851">
        <ele>1322</ele>
        <time>2011-04-10T10:28:45Z</time>
      </trkpt>
      <trkpt lat="45.89821" lon="6.18512">
        <ele>1321</ele>
        <time>2011-04-10T10:28:46Z</time>
      </trkpt>
      <trkpt lat="45.8982" lon="6.18512">
        <ele>1321</ele>
        <time>2011-04-10T10:28:47Z</time>
      </trkpt>
      <trkpt lat="45.8982" lon="6.18513">
        <ele>1322</ele>
        <time>2011-04-10T10:28:48Z</time>
      </trkpt>
      <trkpt lat="45.89819" lon="6.18513">
        <ele>1323</ele>
        <time>2011-04-10T10:28:49Z</time>
      </trkpt>
      <trkpt lat="45.89818" lon="6.18514">
        <ele>1323</ele>
        <time>2011-04-10T10:28:50Z</time>
      </trkpt>
      <trkpt lat="45.89818" lon="6.18515">
        <ele>1324</ele>
        <time>2011-04-10T10:28:51Z</time>
      </trkpt>
      <trkpt lat="45.89818" lon="6.18516">
        <ele>1324</ele>
        <time>2011-04-10T10:28:52Z</time>
      </trkpt>
      <trkpt lat="45.89817" lon="6.18517">
        <ele>1324</ele>
        <time>2011-04-10T10:28:53Z</time>
      </trkpt>
      <trkpt lat="45.89816" lon="6.18517">
        <ele>1325</ele>
        <time>2011-04-10T10:28:54Z</time>
      </trkpt>
      <trkpt lat="45.89815" lon="6.18519">
        <ele>1325</ele>
        <time>2011-04-10T10:28:55Z</time>
      </trkpt>
      <trkpt lat="45.89815" lon="6.18519">
        <ele>1325</ele>
        <time>2011-04-10T10:28:56Z</time>
      </trkpt>
      <trkpt lat="45.89815" lon="6.18519">
        <ele>1324</ele>
        <time>2011-04-10T10:28:57Z</time>
      </trkpt>
      <trkpt lat="45.89815" lon="6.1852">
        <ele>1324</ele>
        <time>2011-04-10T10:28:58Z</time>
      </trkpt>
      <trkpt lat="45.89813" lon="6.18522">
        <ele>1325</ele>
        <time>2011-04-10T10:28:59Z</time>
      </trkpt>
      <trkpt lat="45.89812" lon="6.18522">
        <ele>1325</ele>
        <time>2011-04-10T10:29:00Z</time>
      </trkpt>
      <trkpt lat="45.8981" lon="6.18525">
        <ele>1325</ele>
        <time>2011-04-10T10:29:02Z</time>
      </trkpt>
      <trkpt lat="45.89809" lon="6.18527">
        <ele>1325</ele>
        <time>2011-04-10T10:29:03Z</time>
      </trkpt>
      <trkpt lat="45.89807" lon="6.18527">
        <ele>1326</ele>
        <time>2011-04-10T10:29:04Z</time>
      </trkpt>
      <trkpt lat="45.89807" lon="6.18528">
        <ele>1327</ele>
        <time>2011-04-10T10:29:05Z</time>
      </trkpt>
      <trkpt lat="45.89806" lon="6.18532">
        <ele>1325</ele>
        <time>2011-04-10T10:29:38Z</time>
      </trkpt>
      <trkpt lat="45.89804" lon="6.18533">
        <ele>1324</ele>
        <time>2011-04-10T10:29:39Z</time>
      </trkpt>
      <trkpt lat="45.89801" lon="6.18534">
        <ele>1325</ele>
        <time>2011-04-10T10:29:40Z</time>
      </trkpt>
      <trkpt lat="45.89801" lon="6.18534">
        <ele>1324</ele>
        <time>2011-04-10T10:29:41Z</time>
      </trkpt>
      <trkpt lat="45.89799" lon="6.18535">
        <ele>1324</ele>
        <time>2011-04-10T10:29:42Z</time>
      </trkpt>
      <trkpt lat="45.89797" lon="6.18537">
        <ele>1324</ele>
        <time>2011-04-10T10:29:43Z</time>
      </trkpt>
      <trkpt lat="45.89796" lon="6.18537">
        <ele>1325</ele>
        <time>2011-04-10T10:29:44Z</time>
      </trkpt>
      <trkpt lat="45.89793" lon="6.18536">
        <ele>1324</ele>
        <time>2011-04-10T10:29:45Z</time>
      </trkpt>
      <trkpt lat="45.89793" lon="6.18537">
        <ele>1324</ele>
        <time>2011-04-10T10:29:46Z</time>
      </trkpt>
      <trkpt lat="45.89792" lon="6.18538">
        <ele>1324</ele>
        <time>2011-04-10T10:29:47Z</time>
      </trkpt>
      <trkpt lat="45.89792" lon="6.18537">
        <ele>1325</ele>
        <time>2011-04-10T10:29:48Z</time>
      </trkpt>
      <trkpt lat="45.89789" lon="6.18537">
        <ele>1324</ele>
        <time>2011-04-10T10:29:49Z</time>
      </trkpt>
      <trkpt lat="45.89788" lon="6.18539">
        <ele>1324</ele>
        <time>2011-04-10T10:29:50Z</time>
      </trkpt>
      <trkpt lat="45.89785" lon="6.18538">
        <ele>1324</ele>
        <time>2011-04-10T10:29:51Z</time>
      </trkpt>
      <trkpt lat="45.89784" lon="6.18538">
        <ele>1324</ele>
        <time>2011-04-10T10:29:52Z</time>
      </trkpt>
      <trkpt lat="45.89783" lon="6.18538">
        <ele>1324</ele>
        <time>2011-04-10T10:29:53Z</time>
      </trkpt>
      <trkpt lat="45.89782" lon="6.18538">
        <ele>1324</ele>
        <time>2011-04-10T10:29:54Z</time>
      </trkpt>
      <trkpt lat="45.89781" lon="6.18538">
        <ele>1324</ele>
        <time>2011-04-10T10:29:55Z</time>
      </trkpt>
      <trkpt lat="45.89781" lon="6.18539">
        <ele>1324</ele>
        <time>2011-04-10T10:29:56Z</time>
      </trkpt>
      <trkpt lat="45.8978" lon="6.18539">
        <ele>1324</ele>
        <time>2011-04-10T10:29:57Z</time>
      </trkpt>
      <trkpt lat="45.89779" lon="6.18541">
        <ele>1324</ele>
        <time>2011-04-10T10:29:58Z</time>
      </trkpt>
      <trkpt lat="45.89778" lon="6.1854">
        <ele>1324</ele>
        <time>2011-04-10T10:29:59Z</time>
      </trkpt>
      <trkpt lat="45.89777" lon="6.18541">
        <ele>1325</ele>
        <time>2011-04-10T10:30:00Z</time>
      </trkpt>
      <trkpt lat="45.89777" lon="6.18542">
        <ele>1325</ele>
        <time>2011-04-10T10:30:01Z</time>
      </trkpt>
      <trkpt lat="45.89775" lon="6.18543">
        <ele>1324</ele>
        <time>2011-04-10T10:30:02Z</time>
      </trkpt>
      <trkpt lat="45.89775" lon="6.18544">
        <ele>1325</ele>
        <time>2011-04-10T10:30:03Z</time>
      </trkpt>
      <trkpt lat="45.89773" lon="6.18544">
        <ele>1325</ele>
        <time>2011-04-10T10:30:04Z</time>
      </trkpt>
      <trkpt lat="45.89772" lon="6.18544">
        <ele>1325</ele>
        <time>2011-04-10T10:30:05Z</time>
      </trkpt>
      <trkpt lat="45.89771" lon="6.18545">
        <ele>1324</ele>
        <time>2011-04-10T10:30:06Z</time>
      </trkpt>
      <trkpt lat="45.89769" lon="6.18546">
        <ele>1325</ele>
        <time>2011-04-10T10:30:07Z</time>
      </trkpt>
      <trkpt lat="45.89768" lon="6.18549">
        <ele>1325</ele>
        <time>2011-04-10T10:30:08Z</time>
      </trkpt>
      <trkpt lat="45.89767" lon="6.18551">
        <ele>1325</ele>
        <time>2011-04-10T10:30:09Z</time>
      </trkpt>
      <trkpt lat="45.89767" lon="6.18551">
        <ele>1326</ele>
        <time>2011-04-10T10:30:10Z</time>
      </trkpt>
      <trkpt lat="45.89766" lon="6.18552">
        <ele>1325</ele>
        <time>2011-04-10T10:30:11Z</time>
      </trkpt>
      <trkpt lat="45.89763" lon="6.18551">
        <ele>1325</ele>
        <time>2011-04-10T10:30:12Z</time>
      </trkpt>
      <trkpt lat="45.89763" lon="6.18552">
        <ele>1325</ele>
        <time>2011-04-10T10:30:13Z</time>
      </trkpt>
      <trkpt lat="45.89761" lon="6.18552">
        <ele>1326</ele>
        <time>2011-04-10T10:30:14Z</time>
      </trkpt>
      <trkpt lat="45.8976" lon="6.18553">
        <ele>1325</ele>
        <time>2011-04-10T10:30:15Z</time>
      </trkpt>
      <trkpt lat="45.8976" lon="6.18553">
        <ele>1326</ele>
        <time>2011-04-10T10:30:16Z</time>
      </trkpt>
      <trkpt lat="45.8976" lon="6.18552">
        <ele>1326</ele>
        <time>2011-04-10T10:30:17Z</time>
      </trkpt>
      <trkpt lat="45.89758" lon="6.18553">
        <ele>1327</ele>
        <time>2011-04-10T10:30:18Z</time>
      </trkpt>
      <trkpt lat="45.89759" lon="6.18553">
        <ele>1327</ele>
        <time>2011-04-10T10:30:19Z</time>
      </trkpt>
      <trkpt lat="45.89758" lon="6.18554">
        <ele>1327</ele>
        <time>2011-04-10T10:30:20Z</time>
      </trkpt>
      <trkpt lat="45.89757" lon="6.18554">
        <ele>1327</ele>
        <time>2011-04-10T10:30:21Z</time>
      </trkpt>
      <trkpt lat="45.89757" lon="6.18558">
        <ele>1327</ele>
        <time>2011-04-10T10:30:22Z</time>
      </trkpt>
      <trkpt lat="45.89756" lon="6.18559">
        <ele>1327</ele>
        <time>2011-04-10T10:30:23Z</time>
      </trkpt>
      <trkpt lat="45.89755" lon="6.18561">
        <ele>1327</ele>
        <time>2011-04-10T10:30:24Z</time>
      </trkpt>
      <trkpt lat="45.89754" lon="6.1856">
        <ele>1328</ele>
        <time>2011-04-10T10:30:25Z</time>
      </trkpt>
      <trkpt lat="45.89754" lon="6.18559">
        <ele>1328</ele>
        <time>2011-04-10T10:30:26Z</time>
      </trkpt>
      <trkpt lat="45.89754" lon="6.18558">
        <ele>1329</ele>
        <time>2011-04-10T10:30:27Z</time>
      </trkpt>
      <trkpt lat="45.89753" lon="6.18559">
        <ele>1329</ele>
        <time>2011-04-10T10:30:28Z</time>
      </trkpt>
      <trkpt lat="45.89753" lon="6.1856">
        <ele>1329</ele>
        <time>2011-04-10T10:30:29Z</time>
      </trkpt>
      <trkpt lat="45.89751" lon="6.1856">
        <ele>1330</ele>
        <time>2011-04-10T10:30:30Z</time>
      </trkpt>
      <trkpt lat="45.89749" lon="6.18561">
        <ele>1330</ele>
        <time>2011-04-10T10:30:31Z</time>
      </trkpt>
      <trkpt lat="45.89748" lon="6.18565">
        <ele>1329</ele>
        <time>2011-04-10T10:31:00Z</time>
      </trkpt>
      <trkpt lat="45.89744" lon="6.18567">
        <ele>1331</ele>
        <time>2011-04-10T10:31:02Z</time>
      </trkpt>
      <trkpt lat="45.89742" lon="6.18567">
        <ele>1331</ele>
        <time>2011-04-10T10:31:03Z</time>
      </trkpt>
      <trkpt lat="45.89742" lon="6.18568">
        <ele>1331</ele>
        <time>2011-04-10T10:31:04Z</time>
      </trkpt>
      <trkpt lat="45.89741" lon="6.18569">
        <ele>1331</ele>
        <time>2011-04-10T10:31:05Z</time>
      </trkpt>
      <trkpt lat="45.8974" lon="6.18568">
        <ele>1331</ele>
        <time>2011-04-10T10:31:06Z</time>
      </trkpt>
      <trkpt lat="45.89739" lon="6.18569">
        <ele>1331</ele>
        <time>2011-04-10T10:31:07Z</time>
      </trkpt>
      <trkpt lat="45.89734" lon="6.18571">
        <ele>1331</ele>
        <time>2011-04-10T10:31:08Z</time>
      </trkpt>
      <trkpt lat="45.89729" lon="6.18574">
        <ele>1330</ele>
        <time>2011-04-10T10:31:09Z</time>
      </trkpt>
      <trkpt lat="45.89725" lon="6.18574">
        <ele>1329</ele>
        <time>2011-04-10T10:31:10Z</time>
      </trkpt>
      <trkpt lat="45.89722" lon="6.18576">
        <ele>1328</ele>
        <time>2011-04-10T10:31:11Z</time>
      </trkpt>
      <trkpt lat="45.89719" lon="6.18577">
        <ele>1328</ele>
        <time>2011-04-10T10:31:12Z</time>
      </trkpt>
      <trkpt lat="45.89718" lon="6.18578">
        <ele>1328</ele>
        <time>2011-04-10T10:31:13Z</time>
      </trkpt>
      <trkpt lat="45.89717" lon="6.18579">
        <ele>1328</ele>
        <time>2011-04-10T10:31:14Z</time>
      </trkpt>
      <trkpt lat="45.89716" lon="6.1858">
        <ele>1329</ele>
        <time>2011-04-10T10:31:15Z</time>
      </trkpt>
      <trkpt lat="45.89714" lon="6.1858">
        <ele>1329</ele>
        <time>2011-04-10T10:31:16Z</time>
      </trkpt>
      <trkpt lat="45.89712" lon="6.1858">
        <ele>1329</ele>
        <time>2011-04-10T10:31:17Z</time>
      </trkpt>
      <trkpt lat="45.8971" lon="6.1858">
        <ele>1329</ele>
        <time>2011-04-10T10:31:18Z</time>
      </trkpt>
      <trkpt lat="45.89708" lon="6.1858">
        <ele>1330</ele>
        <time>2011-04-10T10:31:19Z</time>
      </trkpt>
      <trkpt lat="45.89707" lon="6.1858">
        <ele>1330</ele>
        <time>2011-04-10T10:31:20Z</time>
      </trkpt>
      <trkpt lat="45.89706" lon="6.18581">
        <ele>1330</ele>
        <time>2011-04-10T10:31:21Z</time>
      </trkpt>
      <trkpt lat="45.89704" lon="6.1858">
        <ele>1330</ele>
        <time>2011-04-10T10:31:22Z</time>
      </trkpt>
      <trkpt lat="45.89703" lon="6.18581">
        <ele>1330</ele>
        <time>2011-04-10T10:31:23Z</time>
      </trkpt>
      <trkpt lat="45.89702" lon="6.18581">
        <ele>1331</ele>
        <time>2011-04-10T10:31:24Z</time>
      </trkpt>
      <trkpt lat="45.89701" lon="6.18582">
        <ele>1331</ele>
        <time>2011-04-10T10:31:25Z</time>
      </trkpt>
      <trkpt lat="45.89701" lon="6.18582">
        <ele>1331</ele>
        <time>2011-04-10T10:31:26Z</time>
      </trkpt>
      <trkpt lat="45.897" lon="6.18582">
        <ele>1332</ele>
        <time>2011-04-10T10:31:27Z</time>
      </trkpt>
      <trkpt lat="45.897" lon="6.18583">
        <ele>1332</ele>
        <time>2011-04-10T10:31:28Z</time>
      </trkpt>
      <trkpt lat="45.89699" lon="6.18585">
        <ele>1332</ele>
        <time>2011-04-10T10:31:29Z</time>
      </trkpt>
      <trkpt lat="45.89699" lon="6.18587">
        <ele>1332</ele>
        <time>2011-04-10T10:31:30Z</time>
      </trkpt>
      <trkpt lat="45.897" lon="6.18589">
        <ele>1332</ele>
        <time>2011-04-10T10:31:31Z</time>
      </trkpt>
      <trkpt lat="45.89698" lon="6.18589">
        <ele>1332</ele>
        <time>2011-04-10T10:31:32Z</time>
      </trkpt>
      <trkpt lat="45.89698" lon="6.1859">
        <ele>1333</ele>
        <time>2011-04-10T10:31:33Z</time>
      </trkpt>
      <trkpt lat="45.89697" lon="6.18591">
        <ele>1333</ele>
        <time>2011-04-10T10:31:34Z</time>
      </trkpt>
      <trkpt lat="45.89696" lon="6.18589">
        <ele>1334</ele>
        <time>2011-04-10T10:31:35Z</time>
      </trkpt>
      <trkpt lat="45.89696" lon="6.1859">
        <ele>1334</ele>
        <time>2011-04-10T10:31:36Z</time>
      </trkpt>
      <trkpt lat="45.89694" lon="6.18589">
        <ele>1334</ele>
        <time>2011-04-10T10:31:37Z</time>
      </trkpt>
      <trkpt lat="45.89693" lon="6.18589">
        <ele>1334</ele>
        <time>2011-04-10T10:31:38Z</time>
      </trkpt>
      <trkpt lat="45.89693" lon="6.1859">
        <ele>1334</ele>
        <time>2011-04-10T10:31:39Z</time>
      </trkpt>
      <trkpt lat="45.89692" lon="6.18592">
        <ele>1334</ele>
        <time>2011-04-10T10:31:40Z</time>
      </trkpt>
      <trkpt lat="45.89691" lon="6.18593">
        <ele>1333</ele>
        <time>2011-04-10T10:31:41Z</time>
      </trkpt>
      <trkpt lat="45.89691" lon="6.18594">
        <ele>1333</ele>
        <time>2011-04-10T10:31:43Z</time>
      </trkpt>
      <trkpt lat="45.89691" lon="6.18595">
        <ele>1333</ele>
        <time>2011-04-10T10:31:44Z</time>
      </trkpt>
      <trkpt lat="45.8969" lon="6.18594">
        <ele>1332</ele>
        <time>2011-04-10T10:31:50Z</time>
      </trkpt>
      <trkpt lat="45.89689" lon="6.18597">
        <ele>1332</ele>
        <time>2011-04-10T10:31:51Z</time>
      </trkpt>
      <trkpt lat="45.89689" lon="6.18598">
        <ele>1332</ele>
        <time>2011-04-10T10:31:52Z</time>
      </trkpt>
      <trkpt lat="45.89688" lon="6.18597">
        <ele>1333</ele>
        <time>2011-04-10T10:31:53Z</time>
      </trkpt>
      <trkpt lat="45.89688" lon="6.18598">
        <ele>1334</ele>
        <time>2011-04-10T10:31:54Z</time>
      </trkpt>
      <trkpt lat="45.89687" lon="6.186">
        <ele>1334</ele>
        <time>2011-04-10T10:31:55Z</time>
      </trkpt>
      <trkpt lat="45.89687" lon="6.18601">
        <ele>1334</ele>
        <time>2011-04-10T10:31:56Z</time>
      </trkpt>
      <trkpt lat="45.89688" lon="6.18601">
        <ele>1334</ele>
        <time>2011-04-10T10:31:57Z</time>
      </trkpt>
      <trkpt lat="45.89688" lon="6.18601">
        <ele>1335</ele>
        <time>2011-04-10T10:31:58Z</time>
      </trkpt>
      <trkpt lat="45.89688" lon="6.18601">
        <ele>1334</ele>
        <time>2011-04-10T10:33:16Z</time>
      </trkpt>
      <trkpt lat="45.8969" lon="6.18601">
        <ele>1335</ele>
        <time>2011-04-10T10:33:17Z</time>
      </trkpt>
      <trkpt lat="45.89692" lon="6.186">
        <ele>1334</ele>
        <time>2011-04-10T10:33:18Z</time>
      </trkpt>
      <trkpt lat="45.89693" lon="6.186">
        <ele>1334</ele>
        <time>2011-04-10T10:33:19Z</time>
      </trkpt>
      <trkpt lat="45.89693" lon="6.18601">
        <ele>1335</ele>
        <time>2011-04-10T10:33:20Z</time>
      </trkpt>
      <trkpt lat="45.89694" lon="6.18602">
        <ele>1335</ele>
        <time>2011-04-10T10:33:21Z</time>
      </trkpt>
      <trkpt lat="45.89695" lon="6.18605">
        <ele>1335</ele>
        <time>2011-04-10T10:33:22Z</time>
      </trkpt>
      <trkpt lat="45.89696" lon="6.18606">
        <ele>1335</ele>
        <time>2011-04-10T10:33:23Z</time>
      </trkpt>
      <trkpt lat="45.89698" lon="6.18608">
        <ele>1335</ele>
        <time>2011-04-10T10:33:24Z</time>
      </trkpt>
      <trkpt lat="45.89698" lon="6.18608">
        <ele>1335</ele>
        <time>2011-04-10T10:33:25Z</time>
      </trkpt>
      <trkpt lat="45.897" lon="6.18608">
        <ele>1336</ele>
        <time>2011-04-10T10:33:26Z</time>
      </trkpt>
      <trkpt lat="45.897" lon="6.18608">
        <ele>1337</ele>
        <time>2011-04-10T10:33:27Z</time>
      </trkpt>
      <trkpt lat="45.897" lon="6.1861">
        <ele>1338</ele>
        <time>2011-04-10T10:33:28Z</time>
      </trkpt>
      <trkpt lat="45.897" lon="6.18612">
        <ele>1339</ele>
        <time>2011-04-10T10:33:29Z</time>
      </trkpt>
      <trkpt lat="45.897" lon="6.18613">
        <ele>1339</ele>
        <time>2011-04-10T10:33:30Z</time>
      </trkpt>
      <trkpt lat="45.89701" lon="6.18614">
        <ele>1339</ele>
        <time>2011-04-10T10:33:31Z</time>
      </trkpt>
      <trkpt lat="45.89702" lon="6.18615">
        <ele>1338</ele>
        <time>2011-04-10T10:33:32Z</time>
      </trkpt>
      <trkpt lat="45.89704" lon="6.18615">
        <ele>1339</ele>
        <time>2011-04-10T10:33:33Z</time>
      </trkpt>
      <trkpt lat="45.89704" lon="6.18616">
        <ele>1338</ele>
        <time>2011-04-10T10:33:34Z</time>
      </trkpt>
      <trkpt lat="45.89705" lon="6.18615">
        <ele>1339</ele>
        <time>2011-04-10T10:33:35Z</time>
      </trkpt>
      <trkpt lat="45.89706" lon="6.18615">
        <ele>1339</ele>
        <time>2011-04-10T10:33:36Z</time>
      </trkpt>
      <trkpt lat="45.89707" lon="6.18616">
        <ele>1339</ele>
        <time>2011-04-10T10:33:37Z</time>
      </trkpt>
      <trkpt lat="45.89707" lon="6.18616">
        <ele>1338</ele>
        <time>2011-04-10T10:33:38Z</time>
      </trkpt>
      <trkpt lat="45.89708" lon="6.18617">
        <ele>1338</ele>
        <time>2011-04-10T10:33:39Z</time>
      </trkpt>
      <trkpt lat="45.89708" lon="6.18617">
        <ele>1339</ele>
        <time>2011-04-10T10:33:40Z</time>
      </trkpt>
      <trkpt lat="45.89709" lon="6.18617">
        <ele>1339</ele>
        <time>2011-04-10T10:33:41Z</time>
      </trkpt>
      <trkpt lat="45.89711" lon="6.18619">
        <ele>1339</ele>
        <time>2011-04-10T10:33:42Z</time>
      </trkpt>
      <trkpt lat="45.89712" lon="6.18619">
        <ele>1338</ele>
        <time>2011-04-10T10:33:43Z</time>
      </trkpt>
      <trkpt lat="45.89713" lon="6.18618">
        <ele>1338</ele>
        <time>2011-04-10T10:33:44Z</time>
      </trkpt>
      <trkpt lat="45.89714" lon="6.18617">
        <ele>1338</ele>
        <time>2011-04-10T10:33:45Z</time>
      </trkpt>
      <trkpt lat="45.89716" lon="6.18616">
        <ele>1338</ele>
        <time>2011-04-10T10:33:46Z</time>
      </trkpt>
      <trkpt lat="45.89715" lon="6.18616">
        <ele>1338</ele>
        <time>2011-04-10T10:33:47Z</time>
      </trkpt>
      <trkpt lat="45.89717" lon="6.18615">
        <ele>1338</ele>
        <time>2011-04-10T10:33:48Z</time>
      </trkpt>
      <trkpt lat="45.89719" lon="6.18615">
        <ele>1339</ele>
        <time>2011-04-10T10:33:49Z</time>
      </trkpt>
      <trkpt lat="45.89721" lon="6.18615">
        <ele>1339</ele>
        <time>2011-04-10T10:33:50Z</time>
      </trkpt>
      <trkpt lat="45.89723" lon="6.18615">
        <ele>1339</ele>
        <time>2011-04-10T10:33:51Z</time>
      </trkpt>
      <trkpt lat="45.89723" lon="6.18613">
        <ele>1339</ele>
        <time>2011-04-10T10:33:52Z</time>
      </trkpt>
      <trkpt lat="45.89725" lon="6.18614">
        <ele>1339</ele>
        <time>2011-04-10T10:33:53Z</time>
      </trkpt>
      <trkpt lat="45.89726" lon="6.18613">
        <ele>1339</ele>
        <time>2011-04-10T10:33:54Z</time>
      </trkpt>
      <trkpt lat="45.89726" lon="6.18613">
        <ele>1340</ele>
        <time>2011-04-10T10:33:55Z</time>
      </trkpt>
      <trkpt lat="45.89728" lon="6.18613">
        <ele>1340</ele>
        <time>2011-04-10T10:33:56Z</time>
      </trkpt>
      <trkpt lat="45.89729" lon="6.18613">
        <ele>1340</ele>
        <time>2011-04-10T10:33:57Z</time>
      </trkpt>
      <trkpt lat="45.8973" lon="6.18613">
        <ele>1340</ele>
        <time>2011-04-10T10:33:58Z</time>
      </trkpt>
      <trkpt lat="45.89731" lon="6.18613">
        <ele>1341</ele>
        <time>2011-04-10T10:33:59Z</time>
      </trkpt>
      <trkpt lat="45.89732" lon="6.18613">
        <ele>1341</ele>
        <time>2011-04-10T10:34:00Z</time>
      </trkpt>
      <trkpt lat="45.89733" lon="6.18611">
        <ele>1341</ele>
        <time>2011-04-10T10:34:02Z</time>
      </trkpt>
      <trkpt lat="45.89735" lon="6.18611">
        <ele>1343</ele>
        <time>2011-04-10T10:34:03Z</time>
      </trkpt>
      <trkpt lat="45.89738" lon="6.1861">
        <ele>1343</ele>
        <time>2011-04-10T10:34:06Z</time>
      </trkpt>
      <trkpt lat="45.89739" lon="6.18609">
        <ele>1343</ele>
        <time>2011-04-10T10:34:07Z</time>
      </trkpt>
      <trkpt lat="45.8974" lon="6.18608">
        <ele>1342</ele>
        <time>2011-04-10T10:34:08Z</time>
      </trkpt>
      <trkpt lat="45.8974" lon="6.18608">
        <ele>1343</ele>
        <time>2011-04-10T10:34:09Z</time>
      </trkpt>
      <trkpt lat="45.89741" lon="6.18608">
        <ele>1343</ele>
        <time>2011-04-10T10:34:10Z</time>
      </trkpt>
      <trkpt lat="45.89743" lon="6.18608">
        <ele>1343</ele>
        <time>2011-04-10T10:34:11Z</time>
      </trkpt>
      <trkpt lat="45.89744" lon="6.18608">
        <ele>1343</ele>
        <time>2011-04-10T10:34:12Z</time>
      </trkpt>
      <trkpt lat="45.89745" lon="6.18609">
        <ele>1343</ele>
        <time>2011-04-10T10:34:13Z</time>
      </trkpt>
      <trkpt lat="45.89745" lon="6.18609">
        <ele>1343</ele>
        <time>2011-04-10T10:34:14Z</time>
      </trkpt>
      <trkpt lat="45.89747" lon="6.18609">
        <ele>1344</ele>
        <time>2011-04-10T10:34:15Z</time>
      </trkpt>
      <trkpt lat="45.89749" lon="6.1861">
        <ele>1345</ele>
        <time>2011-04-10T10:34:16Z</time>
      </trkpt>
      <trkpt lat="45.8975" lon="6.1861">
        <ele>1344</ele>
        <time>2011-04-10T10:34:17Z</time>
      </trkpt>
      <trkpt lat="45.89753" lon="6.18609">
        <ele>1344</ele>
        <time>2011-04-10T10:34:19Z</time>
      </trkpt>
      <trkpt lat="45.89755" lon="6.18608">
        <ele>1343</ele>
        <time>2011-04-10T10:34:20Z</time>
      </trkpt>
      <trkpt lat="45.89757" lon="6.18607">
        <ele>1342</ele>
        <time>2011-04-10T10:34:21Z</time>
      </trkpt>
      <trkpt lat="45.89758" lon="6.18607">
        <ele>1342</ele>
        <time>2011-04-10T10:34:22Z</time>
      </trkpt>
      <trkpt lat="45.89759" lon="6.18606">
        <ele>1341</ele>
        <time>2011-04-10T10:34:23Z</time>
      </trkpt>
      <trkpt lat="45.8976" lon="6.18606">
        <ele>1341</ele>
        <time>2011-04-10T10:34:24Z</time>
      </trkpt>
      <trkpt lat="45.89761" lon="6.18605">
        <ele>1340</ele>
        <time>2011-04-10T10:34:25Z</time>
      </trkpt>
      <trkpt lat="45.89763" lon="6.18605">
        <ele>1339</ele>
        <time>2011-04-10T10:34:26Z</time>
      </trkpt>
      <trkpt lat="45.89766" lon="6.18605">
        <ele>1340</ele>
        <time>2011-04-10T10:34:27Z</time>
      </trkpt>
      <trkpt lat="45.89767" lon="6.18604">
        <ele>1339</ele>
        <time>2011-04-10T10:34:28Z</time>
      </trkpt>
      <trkpt lat="45.89768" lon="6.18604">
        <ele>1339</ele>
        <time>2011-04-10T10:34:29Z</time>
      </trkpt>
      <trkpt lat="45.89769" lon="6.18603">
        <ele>1339</ele>
        <time>2011-04-10T10:34:30Z</time>
      </trkpt>
      <trkpt lat="45.89771" lon="6.18602">
        <ele>1339</ele>
        <time>2011-04-10T10:34:31Z</time>
      </trkpt>
      <trkpt lat="45.89772" lon="6.18603">
        <ele>1339</ele>
        <time>2011-04-10T10:34:32Z</time>
      </trkpt>
      <trkpt lat="45.89772" lon="6.18602">
        <ele>1339</ele>
        <time>2011-04-10T10:34:33Z</time>
      </trkpt>
      <trkpt lat="45.89775" lon="6.18605">
        <ele>1338</ele>
        <time>2011-04-10T10:34:34Z</time>
      </trkpt>
      <trkpt lat="45.89776" lon="6.18606">
        <ele>1338</ele>
        <time>2011-04-10T10:34:35Z</time>
      </trkpt>
      <trkpt lat="45.89777" lon="6.18606">
        <ele>1338</ele>
        <time>2011-04-10T10:34:36Z</time>
      </trkpt>
      <trkpt lat="45.89778" lon="6.18606">
        <ele>1338</ele>
        <time>2011-04-10T10:34:37Z</time>
      </trkpt>
      <trkpt lat="45.89781" lon="6.18605">
        <ele>1338</ele>
        <time>2011-04-10T10:34:38Z</time>
      </trkpt>
      <trkpt lat="45.8978" lon="6.18604">
        <ele>1338</ele>
        <time>2011-04-10T10:34:39Z</time>
      </trkpt>
      <trkpt lat="45.89782" lon="6.18604">
        <ele>1338</ele>
        <time>2011-04-10T10:34:40Z</time>
      </trkpt>
      <trkpt lat="45.89783" lon="6.18603">
        <ele>1338</ele>
        <time>2011-04-10T10:34:41Z</time>
      </trkpt>
      <trkpt lat="45.89785" lon="6.18603">
        <ele>1337</ele>
        <time>2011-04-10T10:34:42Z</time>
      </trkpt>
      <trkpt lat="45.89785" lon="6.18603">
        <ele>1337</ele>
        <time>2011-04-10T10:34:43Z</time>
      </trkpt>
      <trkpt lat="45.89784" lon="6.18603">
        <ele>1338</ele>
        <time>2011-04-10T10:34:44Z</time>
      </trkpt>
      <trkpt lat="45.89784" lon="6.18602">
        <ele>1339</ele>
        <time>2011-04-10T10:34:45Z</time>
      </trkpt>
      <trkpt lat="45.89785" lon="6.18603">
        <ele>1339</ele>
        <time>2011-04-10T10:34:48Z</time>
      </trkpt>
      <trkpt lat="45.89788" lon="6.18603">
        <ele>1339</ele>
        <time>2011-04-10T10:34:50Z</time>
      </trkpt>
      <trkpt lat="45.8979" lon="6.18604">
        <ele>1338</ele>
        <time>2011-04-10T10:34:51Z</time>
      </trkpt>
      <trkpt lat="45.89791" lon="6.18604">
        <ele>1339</ele>
        <time>2011-04-10T10:34:52Z</time>
      </trkpt>
      <trkpt lat="45.89791" lon="6.18603">
        <ele>1339</ele>
        <time>2011-04-10T10:34:53Z</time>
      </trkpt>
      <trkpt lat="45.89793" lon="6.18602">
        <ele>1338</ele>
        <time>2011-04-10T10:34:54Z</time>
      </trkpt>
      <trkpt lat="45.89797" lon="6.18602">
        <ele>1338</ele>
        <time>2011-04-10T10:34:55Z</time>
      </trkpt>
      <trkpt lat="45.89798" lon="6.18603">
        <ele>1338</ele>
        <time>2011-04-10T10:34:56Z</time>
      </trkpt>
      <trkpt lat="45.898" lon="6.18603">
        <ele>1338</ele>
        <time>2011-04-10T10:34:57Z</time>
      </trkpt>
      <trkpt lat="45.89801" lon="6.18603">
        <ele>1338</ele>
        <time>2011-04-10T10:34:58Z</time>
      </trkpt>
      <trkpt lat="45.89803" lon="6.18604">
        <ele>1338</ele>
        <time>2011-04-10T10:34:59Z</time>
      </trkpt>
      <trkpt lat="45.89803" lon="6.18604">
        <ele>1338</ele>
        <time>2011-04-10T10:35:00Z</time>
      </trkpt>
      <trkpt lat="45.8981" lon="6.18604">
        <ele>1338</ele>
        <time>2011-04-10T10:35:03Z</time>
      </trkpt>
      <trkpt lat="45.89813" lon="6.18605">
        <ele>1338</ele>
        <time>2011-04-10T10:35:04Z</time>
      </trkpt>
      <trkpt lat="45.89815" lon="6.18605">
        <ele>1337</ele>
        <time>2011-04-10T10:35:05Z</time>
      </trkpt>
      <trkpt lat="45.89817" lon="6.18603">
        <ele>1337</ele>
        <time>2011-04-10T10:35:06Z</time>
      </trkpt>
      <trkpt lat="45.89818" lon="6.18601">
        <ele>1339</ele>
        <time>2011-04-10T10:35:07Z</time>
      </trkpt>
      <trkpt lat="45.8982" lon="6.18603">
        <ele>1339</ele>
        <time>2011-04-10T10:35:08Z</time>
      </trkpt>
      <trkpt lat="45.89827" lon="6.18605">
        <ele>1332</ele>
        <time>2011-04-10T10:35:09Z</time>
      </trkpt>
      <trkpt lat="45.89828" lon="6.18604">
        <ele>1333</ele>
        <time>2011-04-10T10:35:10Z</time>
      </trkpt>
      <trkpt lat="45.89829" lon="6.18607">
        <ele>1332</ele>
        <time>2011-04-10T10:35:11Z</time>
      </trkpt>
      <trkpt lat="45.89829" lon="6.18606">
        <ele>1331</ele>
        <time>2011-04-10T10:35:12Z</time>
      </trkpt>
      <trkpt lat="45.89832" lon="6.18608">
        <ele>1331</ele>
        <time>2011-04-10T10:35:13Z</time>
      </trkpt>
      <trkpt lat="45.89835" lon="6.18608">
        <ele>1331</ele>
        <time>2011-04-10T10:35:14Z</time>
      </trkpt>
      <trkpt lat="45.89837" lon="6.1861">
        <ele>1332</ele>
        <time>2011-04-10T10:35:15Z</time>
      </trkpt>
      <trkpt lat="45.89841" lon="6.18613">
        <ele>1332</ele>
        <time>2011-04-10T10:35:55Z</time>
      </trkpt>
      <trkpt lat="45.89844" lon="6.18615">
        <ele>1332</ele>
        <time>2011-04-10T10:35:56Z</time>
      </trkpt>
      <trkpt lat="45.89847" lon="6.18615">
        <ele>1331</ele>
        <time>2011-04-10T10:35:57Z</time>
      </trkpt>
      <trkpt lat="45.89849" lon="6.18613">
        <ele>1330</ele>
        <time>2011-04-10T10:35:58Z</time>
      </trkpt>
      <trkpt lat="45.8985" lon="6.18612">
        <ele>1331</ele>
        <time>2011-04-10T10:35:59Z</time>
      </trkpt>
      <trkpt lat="45.89849" lon="6.18611">
        <ele>1332</ele>
        <time>2011-04-10T10:36:00Z</time>
      </trkpt>
      <trkpt lat="45.8985" lon="6.18612">
        <ele>1333</ele>
        <time>2011-04-10T10:36:01Z</time>
      </trkpt>
      <trkpt lat="45.89854" lon="6.18613">
        <ele>1332</ele>
        <time>2011-04-10T10:36:02Z</time>
      </trkpt>
      <trkpt lat="45.89855" lon="6.18615">
        <ele>1332</ele>
        <time>2011-04-10T10:36:03Z</time>
      </trkpt>
      <trkpt lat="45.89864" lon="6.1862">
        <ele>1333</ele>
        <time>2011-04-10T10:36:04Z</time>
      </trkpt>
      <trkpt lat="45.89864" lon="6.18619">
        <ele>1332</ele>
        <time>2011-04-10T10:36:05Z</time>
      </trkpt>
      <trkpt lat="45.89868" lon="6.18618">
        <ele>1332</ele>
        <time>2011-04-10T10:36:06Z</time>
      </trkpt>
      <trkpt lat="45.8987" lon="6.18613">
        <ele>1329</ele>
        <time>2011-04-10T10:36:07Z</time>
      </trkpt>
      <trkpt lat="45.89871" lon="6.18612">
        <ele>1329</ele>
        <time>2011-04-10T10:36:08Z</time>
      </trkpt>
      <trkpt lat="45.89873" lon="6.18611">
        <ele>1328</ele>
        <time>2011-04-10T10:36:09Z</time>
      </trkpt>
      <trkpt lat="45.89873" lon="6.1861">
        <ele>1328</ele>
        <time>2011-04-10T10:36:10Z</time>
      </trkpt>
      <trkpt lat="45.89875" lon="6.18611">
        <ele>1327</ele>
        <time>2011-04-10T10:36:11Z</time>
      </trkpt>
      <trkpt lat="45.89877" lon="6.18613">
        <ele>1327</ele>
        <time>2011-04-10T10:36:12Z</time>
      </trkpt>
      <trkpt lat="45.89879" lon="6.18613">
        <ele>1328</ele>
        <time>2011-04-10T10:36:13Z</time>
      </trkpt>
      <trkpt lat="45.8988" lon="6.18613">
        <ele>1328</ele>
        <time>2011-04-10T10:36:14Z</time>
      </trkpt>
      <trkpt lat="45.89881" lon="6.18612">
        <ele>1328</ele>
        <time>2011-04-10T10:36:15Z</time>
      </trkpt>
      <trkpt lat="45.8988" lon="6.18609">
        <ele>1327</ele>
        <time>2011-04-10T10:36:16Z</time>
      </trkpt>
      <trkpt lat="45.89878" lon="6.18606">
        <ele>1327</ele>
        <time>2011-04-10T10:36:17Z</time>
      </trkpt>
      <trkpt lat="45.89878" lon="6.18606">
        <ele>1327</ele>
        <time>2011-04-10T10:36:18Z</time>
      </trkpt>
      <trkpt lat="45.89878" lon="6.18605">
        <ele>1326</ele>
        <time>2011-04-10T10:36:19Z</time>
      </trkpt>
      <trkpt lat="45.8988" lon="6.186">
        <ele>1326</ele>
        <time>2011-04-10T10:37:11Z</time>
      </trkpt>
      <trkpt lat="45.89881" lon="6.18598">
        <ele>1326</ele>
        <time>2011-04-10T10:37:12Z</time>
      </trkpt>
      <trkpt lat="45.89887" lon="6.18598">
        <ele>1326</ele>
        <time>2011-04-10T10:37:13Z</time>
      </trkpt>
      <trkpt lat="45.89888" lon="6.18598">
        <ele>1325</ele>
        <time>2011-04-10T10:37:14Z</time>
      </trkpt>
      <trkpt lat="45.89889" lon="6.18597">
        <ele>1326</ele>
        <time>2011-04-10T10:37:15Z</time>
      </trkpt>
      <trkpt lat="45.89889" lon="6.18596">
        <ele>1325</ele>
        <time>2011-04-10T10:37:16Z</time>
      </trkpt>
      <trkpt lat="45.89891" lon="6.18595">
        <ele>1325</ele>
        <time>2011-04-10T10:37:17Z</time>
      </trkpt>
      <trkpt lat="45.89892" lon="6.18595">
        <ele>1324</ele>
        <time>2011-04-10T10:37:18Z</time>
      </trkpt>
      <trkpt lat="45.89896" lon="6.18595">
        <ele>1324</ele>
        <time>2011-04-10T10:37:19Z</time>
      </trkpt>
      <trkpt lat="45.899" lon="6.18594">
        <ele>1324</ele>
        <time>2011-04-10T10:37:20Z</time>
      </trkpt>
      <trkpt lat="45.89901" lon="6.18593">
        <ele>1323</ele>
        <time>2011-04-10T10:37:21Z</time>
      </trkpt>
      <trkpt lat="45.89905" lon="6.1859">
        <ele>1322</ele>
        <time>2011-04-10T10:37:22Z</time>
      </trkpt>
      <trkpt lat="45.89907" lon="6.1859">
        <ele>1321</ele>
        <time>2011-04-10T10:37:23Z</time>
      </trkpt>
      <trkpt lat="45.89909" lon="6.18588">
        <ele>1321</ele>
        <time>2011-04-10T10:37:24Z</time>
      </trkpt>
      <trkpt lat="45.89909" lon="6.18586">
        <ele>1320</ele>
        <time>2011-04-10T10:37:25Z</time>
      </trkpt>
      <trkpt lat="45.89911" lon="6.18585">
        <ele>1321</ele>
        <time>2011-04-10T10:37:26Z</time>
      </trkpt>
      <trkpt lat="45.89913" lon="6.18582">
        <ele>1321</ele>
        <time>2011-04-10T10:37:27Z</time>
      </trkpt>
      <trkpt lat="45.89913" lon="6.18581">
        <ele>1321</ele>
        <time>2011-04-10T10:37:28Z</time>
      </trkpt>
      <trkpt lat="45.89913" lon="6.1858">
        <ele>1321</ele>
        <time>2011-04-10T10:37:29Z</time>
      </trkpt>
      <trkpt lat="45.89914" lon="6.1858">
        <ele>1322</ele>
        <time>2011-04-10T10:37:30Z</time>
      </trkpt>
      <trkpt lat="45.89915" lon="6.18581">
        <ele>1321</ele>
        <time>2011-04-10T10:37:31Z</time>
      </trkpt>
      <trkpt lat="45.89915" lon="6.1858">
        <ele>1321</ele>
        <time>2011-04-10T10:37:32Z</time>
      </trkpt>
      <trkpt lat="45.89916" lon="6.1858">
        <ele>1321</ele>
        <time>2011-04-10T10:37:33Z</time>
      </trkpt>
      <trkpt lat="45.89919" lon="6.18578">
        <ele>1321</ele>
        <time>2011-04-10T10:37:34Z</time>
      </trkpt>
      <trkpt lat="45.89922" lon="6.18577">
        <ele>1320</ele>
        <time>2011-04-10T10:37:35Z</time>
      </trkpt>
      <trkpt lat="45.89924" lon="6.18578">
        <ele>1319</ele>
        <time>2011-04-10T10:37:36Z</time>
      </trkpt>
      <trkpt lat="45.89925" lon="6.18579">
        <ele>1319</ele>
        <time>2011-04-10T10:37:37Z</time>
      </trkpt>
      <trkpt lat="45.89925" lon="6.18579">
        <ele>1319</ele>
        <time>2011-04-10T10:37:38Z</time>
      </trkpt>
      <trkpt lat="45.89926" lon="6.18579">
        <ele>1318</ele>
        <time>2011-04-10T10:37:39Z</time>
      </trkpt>
      <trkpt lat="45.89928" lon="6.18579">
        <ele>1318</ele>
        <time>2011-04-10T10:37:40Z</time>
      </trkpt>
      <trkpt lat="45.89928" lon="6.18579">
        <ele>1317</ele>
        <time>2011-04-10T10:37:41Z</time>
      </trkpt>
      <trkpt lat="45.89929" lon="6.18579">
        <ele>1317</ele>
        <time>2011-04-10T10:37:42Z</time>
      </trkpt>
      <trkpt lat="45.89929" lon="6.1858">
        <ele>1317</ele>
        <time>2011-04-10T10:37:43Z</time>
      </trkpt>
      <trkpt lat="45.8993" lon="6.18579">
        <ele>1316</ele>
        <time>2011-04-10T10:37:44Z</time>
      </trkpt>
      <trkpt lat="45.8993" lon="6.18578">
        <ele>1315</ele>
        <time>2011-04-10T10:37:45Z</time>
      </trkpt>
      <trkpt lat="45.89932" lon="6.18577">
        <ele>1315</ele>
        <time>2011-04-10T10:37:46Z</time>
      </trkpt>
      <trkpt lat="45.89934" lon="6.18578">
        <ele>1315</ele>
        <time>2011-04-10T10:37:47Z</time>
      </trkpt>
      <trkpt lat="45.89935" lon="6.18576">
        <ele>1316</ele>
        <time>2011-04-10T10:37:48Z</time>
      </trkpt>
      <trkpt lat="45.89934" lon="6.18576">
        <ele>1316</ele>
        <time>2011-04-10T10:37:49Z</time>
      </trkpt>
      <trkpt lat="45.89935" lon="6.18576">
        <ele>1316</ele>
        <time>2011-04-10T10:37:50Z</time>
      </trkpt>
      <trkpt lat="45.89936" lon="6.18577">
        <ele>1316</ele>
        <time>2011-04-10T10:37:51Z</time>
      </trkpt>
      <trkpt lat="45.89938" lon="6.18577">
        <ele>1317</ele>
        <time>2011-04-10T10:37:52Z</time>
      </trkpt>
      <trkpt lat="45.89939" lon="6.18576">
        <ele>1317</ele>
        <time>2011-04-10T10:37:53Z</time>
      </trkpt>
      <trkpt lat="45.8994" lon="6.18577">
        <ele>1317</ele>
        <time>2011-04-10T10:37:54Z</time>
      </trkpt>
      <trkpt lat="45.89941" lon="6.18575">
        <ele>1317</ele>
        <time>2011-04-10T10:37:55Z</time>
      </trkpt>
      <trkpt lat="45.89941" lon="6.18575">
        <ele>1317</ele>
        <time>2011-04-10T10:37:56Z</time>
      </trkpt>
      <trkpt lat="45.89943" lon="6.18577">
        <ele>1317</ele>
        <time>2011-04-10T10:37:57Z</time>
      </trkpt>
      <trkpt lat="45.89944" lon="6.18576">
        <ele>1317</ele>
        <time>2011-04-10T10:37:58Z</time>
      </trkpt>
      <trkpt lat="45.89945" lon="6.18577">
        <ele>1317</ele>
        <time>2011-04-10T10:37:59Z</time>
      </trkpt>
      <trkpt lat="45.89945" lon="6.18577">
        <ele>1317</ele>
        <time>2011-04-10T10:38:00Z</time>
      </trkpt>
      <trkpt lat="45.89946" lon="6.18579">
        <ele>1317</ele>
        <time>2011-04-10T10:38:01Z</time>
      </trkpt>
      <trkpt lat="45.89947" lon="6.18579">
        <ele>1317</ele>
        <time>2011-04-10T10:38:03Z</time>
      </trkpt>
      <trkpt lat="45.89947" lon="6.18579">
        <ele>1317</ele>
        <time>2011-04-10T10:38:04Z</time>
      </trkpt>
      <trkpt lat="45.89948" lon="6.18577">
        <ele>1317</ele>
        <time>2011-04-10T10:38:05Z</time>
      </trkpt>
      <trkpt lat="45.89947" lon="6.18576">
        <ele>1317</ele>
        <time>2011-04-10T10:38:06Z</time>
      </trkpt>
      <trkpt lat="45.89951" lon="6.18576">
        <ele>1317</ele>
        <time>2011-04-10T10:38:07Z</time>
      </trkpt>
      <trkpt lat="45.89952" lon="6.18574">
        <ele>1318</ele>
        <time>2011-04-10T10:38:08Z</time>
      </trkpt>
      <trkpt lat="45.89952" lon="6.18574">
        <ele>1317</ele>
        <time>2011-04-10T10:38:09Z</time>
      </trkpt>
      <trkpt lat="45.89953" lon="6.18574">
        <ele>1317</ele>
        <time>2011-04-10T10:38:10Z</time>
      </trkpt>
      <trkpt lat="45.89953" lon="6.18573">
        <ele>1318</ele>
        <time>2011-04-10T10:38:11Z</time>
      </trkpt>
      <trkpt lat="45.89954" lon="6.18572">
        <ele>1318</ele>
        <time>2011-04-10T10:38:12Z</time>
      </trkpt>
      <trkpt lat="45.89956" lon="6.18572">
        <ele>1317</ele>
        <time>2011-04-10T10:38:13Z</time>
      </trkpt>
      <trkpt lat="45.89957" lon="6.18572">
        <ele>1317</ele>
        <time>2011-04-10T10:38:14Z</time>
      </trkpt>
      <trkpt lat="45.89955" lon="6.18573">
        <ele>1316</ele>
        <time>2011-04-10T10:38:15Z</time>
      </trkpt>
      <trkpt lat="45.89956" lon="6.18573">
        <ele>1316</ele>
        <time>2011-04-10T10:38:16Z</time>
      </trkpt>
      <trkpt lat="45.89957" lon="6.18571">
        <ele>1315</ele>
        <time>2011-04-10T10:38:17Z</time>
      </trkpt>
      <trkpt lat="45.89956" lon="6.1857">
        <ele>1315</ele>
        <time>2011-04-10T10:38:18Z</time>
      </trkpt>
      <trkpt lat="45.89958" lon="6.18569">
        <ele>1314</ele>
        <time>2011-04-10T10:38:19Z</time>
      </trkpt>
      <trkpt lat="45.89958" lon="6.18569">
        <ele>1314</ele>
        <time>2011-04-10T10:38:20Z</time>
      </trkpt>
      <trkpt lat="45.89959" lon="6.18569">
        <ele>1314</ele>
        <time>2011-04-10T10:38:21Z</time>
      </trkpt>
      <trkpt lat="45.89961" lon="6.1857">
        <ele>1314</ele>
        <time>2011-04-10T10:38:22Z</time>
      </trkpt>
      <trkpt lat="45.89962" lon="6.18571">
        <ele>1313</ele>
        <time>2011-04-10T10:38:23Z</time>
      </trkpt>
      <trkpt lat="45.89961" lon="6.18571">
        <ele>1313</ele>
        <time>2011-04-10T10:38:24Z</time>
      </trkpt>
      <trkpt lat="45.89962" lon="6.18569">
        <ele>1313</ele>
        <time>2011-04-10T10:38:25Z</time>
      </trkpt>
      <trkpt lat="45.89961" lon="6.18567">
        <ele>1312</ele>
        <time>2011-04-10T10:38:26Z</time>
      </trkpt>
      <trkpt lat="45.89962" lon="6.18566">
        <ele>1312</ele>
        <time>2011-04-10T10:38:27Z</time>
      </trkpt>
      <trkpt lat="45.89963" lon="6.18567">
        <ele>1312</ele>
        <time>2011-04-10T10:38:28Z</time>
      </trkpt>
      <trkpt lat="45.89965" lon="6.18568">
        <ele>1312</ele>
        <time>2011-04-10T10:38:29Z</time>
      </trkpt>
      <trkpt lat="45.89965" lon="6.18567">
        <ele>1311</ele>
        <time>2011-04-10T10:38:30Z</time>
      </trkpt>
      <trkpt lat="45.89965" lon="6.18567">
        <ele>1311</ele>
        <time>2011-04-10T10:38:31Z</time>
      </trkpt>
      <trkpt lat="45.89966" lon="6.18567">
        <ele>1311</ele>
        <time>2011-04-10T10:38:32Z</time>
      </trkpt>
      <trkpt lat="45.89963" lon="6.18567">
        <ele>1311</ele>
        <time>2011-04-10T10:38:33Z</time>
      </trkpt>
      <trkpt lat="45.89963" lon="6.18566">
        <ele>1311</ele>
        <time>2011-04-10T10:38:34Z</time>
      </trkpt>
      <trkpt lat="45.89962" lon="6.18566">
        <ele>1312</ele>
        <time>2011-04-10T10:38:35Z</time>
      </trkpt>
      <trkpt lat="45.89962" lon="6.18564">
        <ele>1313</ele>
        <time>2011-04-10T10:38:36Z</time>
      </trkpt>
      <trkpt lat="45.89958" lon="6.18557">
        <ele>1313</ele>
        <time>2011-04-10T10:38:37Z</time>
      </trkpt>
      <trkpt lat="45.8996" lon="6.18547">
        <ele>1314</ele>
        <time>2011-04-10T10:38:38Z</time>
      </trkpt>
      <trkpt lat="45.89968" lon="6.18552">
        <ele>1315</ele>
        <time>2011-04-10T10:38:39Z</time>
      </trkpt>
      <trkpt lat="45.89972" lon="6.18557">
        <ele>1316</ele>
        <time>2011-04-10T10:38:40Z</time>
      </trkpt>
      <trkpt lat="45.89977" lon="6.18563">
        <ele>1316</ele>
        <time>2011-04-10T10:38:41Z</time>
      </trkpt>
      <trkpt lat="45.89979" lon="6.18563">
        <ele>1316</ele>
        <time>2011-04-10T10:38:42Z</time>
      </trkpt>
      <trkpt lat="45.8998" lon="6.18554">
        <ele>1316</ele>
        <time>2011-04-10T10:38:43Z</time>
      </trkpt>
      <trkpt lat="45.89984" lon="6.18547">
        <ele>1315</ele>
        <time>2011-04-10T10:38:44Z</time>
      </trkpt>
      <trkpt lat="45.89968" lon="6.18554">
        <ele>1314</ele>
        <time>2011-04-10T10:38:45Z</time>
      </trkpt>
      <trkpt lat="45.89968" lon="6.18553">
        <ele>1313</ele>
        <time>2011-04-10T10:38:46Z</time>
      </trkpt>
      <trkpt lat="45.89968" lon="6.18552">
        <ele>1312</ele>
        <time>2011-04-10T10:38:47Z</time>
      </trkpt>
      <trkpt lat="45.89966" lon="6.18552">
        <ele>1313</ele>
        <time>2011-04-10T10:38:48Z</time>
      </trkpt>
      <trkpt lat="45.89965" lon="6.18553">
        <ele>1313</ele>
        <time>2011-04-10T10:38:49Z</time>
      </trkpt>
      <trkpt lat="45.89959" lon="6.18558">
        <ele>1314</ele>
        <time>2011-04-10T10:38:50Z</time>
      </trkpt>
      <trkpt lat="45.89962" lon="6.18554">
        <ele>1314</ele>
        <time>2011-04-10T10:38:51Z</time>
      </trkpt>
      <trkpt lat="45.89962" lon="6.18554">
        <ele>1315</ele>
        <time>2011-04-10T10:38:52Z</time>
      </trkpt>
      <trkpt lat="45.89965" lon="6.18558">
        <ele>1315</ele>
        <time>2011-04-10T10:38:53Z</time>
      </trkpt>
      <trkpt lat="45.89967" lon="6.18558">
        <ele>1314</ele>
        <time>2011-04-10T10:38:54Z</time>
      </trkpt>
      <trkpt lat="45.89969" lon="6.18559">
        <ele>1314</ele>
        <time>2011-04-10T10:38:55Z</time>
      </trkpt>
      <trkpt lat="45.89973" lon="6.1856">
        <ele>1314</ele>
        <time>2011-04-10T10:38:56Z</time>
      </trkpt>
      <trkpt lat="45.89974" lon="6.1856">
        <ele>1314</ele>
        <time>2011-04-10T10:38:57Z</time>
      </trkpt>
      <trkpt lat="45.89972" lon="6.18561">
        <ele>1314</ele>
        <time>2011-04-10T10:38:58Z</time>
      </trkpt>
      <trkpt lat="45.8997" lon="6.18561">
        <ele>1314</ele>
        <time>2011-04-10T10:38:59Z</time>
      </trkpt>
      <trkpt lat="45.89974" lon="6.18561">
        <ele>1313</ele>
        <time>2011-04-10T10:39:00Z</time>
      </trkpt>
      <trkpt lat="45.89977" lon="6.18559">
        <ele>1313</ele>
        <time>2011-04-10T10:39:01Z</time>
      </trkpt>
      <trkpt lat="45.89978" lon="6.18559">
        <ele>1312</ele>
        <time>2011-04-10T10:39:02Z</time>
      </trkpt>
      <trkpt lat="45.89982" lon="6.18558">
        <ele>1311</ele>
        <time>2011-04-10T10:39:03Z</time>
      </trkpt>
      <trkpt lat="45.89983" lon="6.18558">
        <ele>1311</ele>
        <time>2011-04-10T10:39:04Z</time>
      </trkpt>
      <trkpt lat="45.89983" lon="6.18558">
        <ele>1310</ele>
        <time>2011-04-10T10:39:05Z</time>
      </trkpt>
      <trkpt lat="45.89983" lon="6.18559">
        <ele>1310</ele>
        <time>2011-04-10T10:39:06Z</time>
      </trkpt>
      <trkpt lat="45.89984" lon="6.18559">
        <ele>1309</ele>
        <time>2011-04-10T10:39:07Z</time>
      </trkpt>
      <trkpt lat="45.89984" lon="6.18559">
        <ele>1308</ele>
        <time>2011-04-10T10:39:08Z</time>
      </trkpt>
      <trkpt lat="45.89986" lon="6.1856">
        <ele>1307</ele>
        <time>2011-04-10T10:39:09Z</time>
      </trkpt>
      <trkpt lat="45.89986" lon="6.18561">
        <ele>1307</ele>
        <time>2011-04-10T10:39:10Z</time>
      </trkpt>
      <trkpt lat="45.89989" lon="6.1856">
        <ele>1305</ele>
        <time>2011-04-10T10:42:27Z</time>
      </trkpt>
      <trkpt lat="45.89992" lon="6.18562">
        <ele>1305</ele>
        <time>2011-04-10T10:42:28Z</time>
      </trkpt>
      <trkpt lat="45.90004" lon="6.18572">
        <ele>1304</ele>
        <time>2011-04-10T10:42:29Z</time>
      </trkpt>
      <trkpt lat="45.90013" lon="6.18574">
        <ele>1304</ele>
        <time>2011-04-10T10:42:30Z</time>
      </trkpt>
      <trkpt lat="45.90018" lon="6.18576">
        <ele>1303</ele>
        <time>2011-04-10T10:42:31Z</time>
      </trkpt>
      <trkpt lat="45.90025" lon="6.18579">
        <ele>1303</ele>
        <time>2011-04-10T10:42:32Z</time>
      </trkpt>
      <trkpt lat="45.90026" lon="6.18579">
        <ele>1304</ele>
        <time>2011-04-10T10:42:33Z</time>
      </trkpt>
      <trkpt lat="45.90029" lon="6.1858">
        <ele>1303</ele>
        <time>2011-04-10T10:42:34Z</time>
      </trkpt>
      <trkpt lat="45.90032" lon="6.18581">
        <ele>1303</ele>
        <time>2011-04-10T10:42:35Z</time>
      </trkpt>
      <trkpt lat="45.90036" lon="6.18583">
        <ele>1304</ele>
        <time>2011-04-10T10:42:36Z</time>
      </trkpt>
      <trkpt lat="45.90039" lon="6.18584">
        <ele>1304</ele>
        <time>2011-04-10T10:42:37Z</time>
      </trkpt>
      <trkpt lat="45.90041" lon="6.18585">
        <ele>1303</ele>
        <time>2011-04-10T10:42:38Z</time>
      </trkpt>
      <trkpt lat="45.90043" lon="6.18587">
        <ele>1303</ele>
        <time>2011-04-10T10:42:39Z</time>
      </trkpt>
      <trkpt lat="45.90046" lon="6.18591">
        <ele>1302</ele>
        <time>2011-04-10T10:42:40Z</time>
      </trkpt>
      <trkpt lat="45.90047" lon="6.18591">
        <ele>1302</ele>
        <time>2011-04-10T10:42:41Z</time>
      </trkpt>
      <trkpt lat="45.90048" lon="6.18592">
        <ele>1301</ele>
        <time>2011-04-10T10:42:42Z</time>
      </trkpt>
      <trkpt lat="45.90049" lon="6.18591">
        <ele>1301</ele>
        <time>2011-04-10T10:42:43Z</time>
      </trkpt>
      <trkpt lat="45.9005" lon="6.1859">
        <ele>1300</ele>
        <time>2011-04-10T10:42:44Z</time>
      </trkpt>
      <trkpt lat="45.90051" lon="6.18591">
        <ele>1300</ele>
        <time>2011-04-10T10:42:46Z</time>
      </trkpt>
      <trkpt lat="45.90055" lon="6.1859">
        <ele>1300</ele>
        <time>2011-04-10T10:42:47Z</time>
      </trkpt>
      <trkpt lat="45.90056" lon="6.1859">
        <ele>1299</ele>
        <time>2011-04-10T10:42:48Z</time>
      </trkpt>
      <trkpt lat="45.90056" lon="6.18591">
        <ele>1298</ele>
        <time>2011-04-10T10:42:49Z</time>
      </trkpt>
      <trkpt lat="45.90056" lon="6.18594">
        <ele>1296</ele>
        <time>2011-04-10T10:42:50Z</time>
      </trkpt>
      <trkpt lat="45.90055" lon="6.18593">
        <ele>1296</ele>
        <time>2011-04-10T10:42:51Z</time>
      </trkpt>
      <trkpt lat="45.90058" lon="6.18596">
        <ele>1296</ele>
        <time>2011-04-10T10:42:52Z</time>
      </trkpt>
      <trkpt lat="45.90058" lon="6.18597">
        <ele>1296</ele>
        <time>2011-04-10T10:42:53Z</time>
      </trkpt>
      <trkpt lat="45.9006" lon="6.18596">
        <ele>1296</ele>
        <time>2011-04-10T10:42:54Z</time>
      </trkpt>
      <trkpt lat="45.90061" lon="6.18596">
        <ele>1296</ele>
        <time>2011-04-10T10:42:55Z</time>
      </trkpt>
      <trkpt lat="45.90062" lon="6.18597">
        <ele>1295</ele>
        <time>2011-04-10T10:42:56Z</time>
      </trkpt>
      <trkpt lat="45.90064" lon="6.18597">
        <ele>1295</ele>
        <time>2011-04-10T10:42:57Z</time>
      </trkpt>
      <trkpt lat="45.90062" lon="6.18597">
        <ele>1295</ele>
        <time>2011-04-10T10:42:58Z</time>
      </trkpt>
      <trkpt lat="45.90061" lon="6.18598">
        <ele>1294</ele>
        <time>2011-04-10T10:42:59Z</time>
      </trkpt>
      <trkpt lat="45.90061" lon="6.18599">
        <ele>1292</ele>
        <time>2011-04-10T10:43:00Z</time>
      </trkpt>
      <trkpt lat="45.90061" lon="6.186">
        <ele>1291</ele>
        <time>2011-04-10T10:43:01Z</time>
      </trkpt>
      <trkpt lat="45.90061" lon="6.186">
        <ele>1290</ele>
        <time>2011-04-10T10:43:02Z</time>
      </trkpt>
      <trkpt lat="45.9006" lon="6.186">
        <ele>1290</ele>
        <time>2011-04-10T10:43:03Z</time>
      </trkpt>
      <trkpt lat="45.9006" lon="6.186">
        <ele>1289</ele>
        <time>2011-04-10T10:43:04Z</time>
      </trkpt>
      <trkpt lat="45.90059" lon="6.18599">
        <ele>1289</ele>
        <time>2011-04-10T10:43:05Z</time>
      </trkpt>
      <trkpt lat="45.90058" lon="6.18599">
        <ele>1288</ele>
        <time>2011-04-10T10:43:06Z</time>
      </trkpt>
      <trkpt lat="45.90058" lon="6.186">
        <ele>1288</ele>
        <time>2011-04-10T10:43:07Z</time>
      </trkpt>
      <trkpt lat="45.90063" lon="6.18601">
        <ele>1287</ele>
        <time>2011-04-10T10:43:08Z</time>
      </trkpt>
      <trkpt lat="45.90064" lon="6.18602">
        <ele>1287</ele>
        <time>2011-04-10T10:43:09Z</time>
      </trkpt>
      <trkpt lat="45.90062" lon="6.18602">
        <ele>1287</ele>
        <time>2011-04-10T10:43:10Z</time>
      </trkpt>
      <trkpt lat="45.90062" lon="6.18602">
        <ele>1287</ele>
        <time>2011-04-10T10:43:11Z</time>
      </trkpt>
      <trkpt lat="45.90061" lon="6.18603">
        <ele>1288</ele>
        <time>2011-04-10T10:43:12Z</time>
      </trkpt>
      <trkpt lat="45.90061" lon="6.18604">
        <ele>1288</ele>
        <time>2011-04-10T10:43:13Z</time>
      </trkpt>
      <trkpt lat="45.90062" lon="6.18605">
        <ele>1288</ele>
        <time>2011-04-10T10:43:14Z</time>
      </trkpt>
      <trkpt lat="45.90061" lon="6.18606">
        <ele>1288</ele>
        <time>2011-04-10T10:43:15Z</time>
      </trkpt>
      <trkpt lat="45.90059" lon="6.18607">
        <ele>1289</ele>
        <time>2011-04-10T10:43:16Z</time>
      </trkpt>
      <trkpt lat="45.90058" lon="6.18606">
        <ele>1289</ele>
        <time>2011-04-10T10:43:17Z</time>
      </trkpt>
      <trkpt lat="45.90058" lon="6.18606">
        <ele>1289</ele>
        <time>2011-04-10T10:43:18Z</time>
      </trkpt>
      <trkpt lat="45.9006" lon="6.18608">
        <ele>1288</ele>
        <time>2011-04-10T10:43:19Z</time>
      </trkpt>
      <trkpt lat="45.90061" lon="6.18609">
        <ele>1288</ele>
        <time>2011-04-10T10:43:20Z</time>
      </trkpt>
      <trkpt lat="45.90062" lon="6.18608">
        <ele>1288</ele>
        <time>2011-04-10T10:43:21Z</time>
      </trkpt>
      <trkpt lat="45.90063" lon="6.18608">
        <ele>1288</ele>
        <time>2011-04-10T10:43:22Z</time>
      </trkpt>
      <trkpt lat="45.90065" lon="6.18608">
        <ele>1288</ele>
        <time>2011-04-10T10:43:23Z</time>
      </trkpt>
      <trkpt lat="45.90066" lon="6.18607">
        <ele>1287</ele>
        <time>2011-04-10T10:43:24Z</time>
      </trkpt>
      <trkpt lat="45.90067" lon="6.18609">
        <ele>1287</ele>
        <time>2011-04-10T10:43:25Z</time>
      </trkpt>
      <trkpt lat="45.90068" lon="6.18609">
        <ele>1287</ele>
        <time>2011-04-10T10:43:26Z</time>
      </trkpt>
      <trkpt lat="45.90066" lon="6.1861">
        <ele>1286</ele>
        <time>2011-04-10T10:43:27Z</time>
      </trkpt>
      <trkpt lat="45.90066" lon="6.18609">
        <ele>1285</ele>
        <time>2011-04-10T10:43:28Z</time>
      </trkpt>
      <trkpt lat="45.90067" lon="6.18609">
        <ele>1285</ele>
        <time>2011-04-10T10:43:29Z</time>
      </trkpt>
      <trkpt lat="45.90067" lon="6.18608">
        <ele>1285</ele>
        <time>2011-04-10T10:43:30Z</time>
      </trkpt>
      <trkpt lat="45.90068" lon="6.18609">
        <ele>1285</ele>
        <time>2011-04-10T10:43:31Z</time>
      </trkpt>
      <trkpt lat="45.90069" lon="6.1861">
        <ele>1284</ele>
        <time>2011-04-10T10:43:32Z</time>
      </trkpt>
      <trkpt lat="45.90071" lon="6.1861">
        <ele>1284</ele>
        <time>2011-04-10T10:43:33Z</time>
      </trkpt>
      <trkpt lat="45.9007" lon="6.18612">
        <ele>1284</ele>
        <time>2011-04-10T10:43:34Z</time>
      </trkpt>
      <trkpt lat="45.90069" lon="6.18612">
        <ele>1284</ele>
        <time>2011-04-10T10:43:35Z</time>
      </trkpt>
      <trkpt lat="45.90069" lon="6.18612">
        <ele>1283</ele>
        <time>2011-04-10T10:43:36Z</time>
      </trkpt>
      <trkpt lat="45.9007" lon="6.18613">
        <ele>1283</ele>
        <time>2011-04-10T10:43:37Z</time>
      </trkpt>
      <trkpt lat="45.90069" lon="6.18612">
        <ele>1283</ele>
        <time>2011-04-10T10:43:38Z</time>
      </trkpt>
      <trkpt lat="45.90074" lon="6.18611">
        <ele>1285</ele>
        <time>2011-04-10T10:45:07Z</time>
      </trkpt>
      <trkpt lat="45.90082" lon="6.18609">
        <ele>1283</ele>
        <time>2011-04-10T10:45:08Z</time>
      </trkpt>
      <trkpt lat="45.90094" lon="6.18607">
        <ele>1278</ele>
        <time>2011-04-10T10:45:43Z</time>
      </trkpt>
      <trkpt lat="45.90096" lon="6.18606">
        <ele>1277</ele>
        <time>2011-04-10T10:45:44Z</time>
      </trkpt>
      <trkpt lat="45.90098" lon="6.18607">
        <ele>1276</ele>
        <time>2011-04-10T10:45:45Z</time>
      </trkpt>
      <trkpt lat="45.901" lon="6.18605">
        <ele>1275</ele>
        <time>2011-04-10T10:45:46Z</time>
      </trkpt>
      <trkpt lat="45.90105" lon="6.18604">
        <ele>1271</ele>
        <time>2011-04-10T10:45:47Z</time>
      </trkpt>
      <trkpt lat="45.90106" lon="6.18605">
        <ele>1269</ele>
        <time>2011-04-10T10:45:48Z</time>
      </trkpt>
      <trkpt lat="45.90106" lon="6.18603">
        <ele>1269</ele>
        <time>2011-04-10T10:45:49Z</time>
      </trkpt>
      <trkpt lat="45.90107" lon="6.18604">
        <ele>1268</ele>
        <time>2011-04-10T10:45:51Z</time>
      </trkpt>
      <trkpt lat="45.90108" lon="6.18604">
        <ele>1268</ele>
        <time>2011-04-10T10:45:52Z</time>
      </trkpt>
      <trkpt lat="45.9011" lon="6.18603">
        <ele>1267</ele>
        <time>2011-04-10T10:45:53Z</time>
      </trkpt>
      <trkpt lat="45.90113" lon="6.18602">
        <ele>1266</ele>
        <time>2011-04-10T10:45:54Z</time>
      </trkpt>
      <trkpt lat="45.90115" lon="6.18601">
        <ele>1265</ele>
        <time>2011-04-10T10:45:55Z</time>
      </trkpt>
      <trkpt lat="45.90116" lon="6.18602">
        <ele>1265</ele>
        <time>2011-04-10T10:45:56Z</time>
      </trkpt>
      <trkpt lat="45.90117" lon="6.18602">
        <ele>1264</ele>
        <time>2011-04-10T10:45:57Z</time>
      </trkpt>
      <trkpt lat="45.90118" lon="6.18601">
        <ele>1263</ele>
        <time>2011-04-10T10:45:58Z</time>
      </trkpt>
      <trkpt lat="45.90119" lon="6.18601">
        <ele>1263</ele>
        <time>2011-04-10T10:45:59Z</time>
      </trkpt>
      <trkpt lat="45.90123" lon="6.186">
        <ele>1262</ele>
        <time>2011-04-10T10:46:00Z</time>
      </trkpt>
      <trkpt lat="45.90124" lon="6.18597">
        <ele>1259</ele>
        <time>2011-04-10T10:46:34Z</time>
      </trkpt>
      <trkpt lat="45.90128" lon="6.18592">
        <ele>1259</ele>
        <time>2011-04-10T10:46:35Z</time>
      </trkpt>
      <trkpt lat="45.90129" lon="6.18587">
        <ele>1259</ele>
        <time>2011-04-10T10:46:36Z</time>
      </trkpt>
      <trkpt lat="45.90131" lon="6.18583">
        <ele>1258</ele>
        <time>2011-04-10T10:46:37Z</time>
      </trkpt>
      <trkpt lat="45.90135" lon="6.18581">
        <ele>1255</ele>
        <time>2011-04-10T10:46:38Z</time>
      </trkpt>
      <trkpt lat="45.90139" lon="6.18577">
        <ele>1254</ele>
        <time>2011-04-10T10:47:09Z</time>
      </trkpt>
      <trkpt lat="45.90143" lon="6.18576">
        <ele>1254</ele>
        <time>2011-04-10T10:47:10Z</time>
      </trkpt>
      <trkpt lat="45.90145" lon="6.18574">
        <ele>1253</ele>
        <time>2011-04-10T10:47:11Z</time>
      </trkpt>
      <trkpt lat="45.90145" lon="6.18573">
        <ele>1253</ele>
        <time>2011-04-10T10:47:12Z</time>
      </trkpt>
      <trkpt lat="45.90146" lon="6.1857">
        <ele>1253</ele>
        <time>2011-04-10T10:47:13Z</time>
      </trkpt>
      <trkpt lat="45.90149" lon="6.18568">
        <ele>1252</ele>
        <time>2011-04-10T10:47:14Z</time>
      </trkpt>
      <trkpt lat="45.90156" lon="6.18566">
        <ele>1251</ele>
        <time>2011-04-10T10:47:15Z</time>
      </trkpt>
      <trkpt lat="45.9016" lon="6.18567">
        <ele>1251</ele>
        <time>2011-04-10T10:47:16Z</time>
      </trkpt>
      <trkpt lat="45.90164" lon="6.18563">
        <ele>1249</ele>
        <time>2011-04-10T10:47:17Z</time>
      </trkpt>
      <trkpt lat="45.90166" lon="6.1856">
        <ele>1248</ele>
        <time>2011-04-10T10:47:18Z</time>
      </trkpt>
      <trkpt lat="45.90169" lon="6.18557">
        <ele>1247</ele>
        <time>2011-04-10T10:47:19Z</time>
      </trkpt>
      <trkpt lat="45.90171" lon="6.18555">
        <ele>1247</ele>
        <time>2011-04-10T10:47:20Z</time>
      </trkpt>
      <trkpt lat="45.90174" lon="6.18554">
        <ele>1248</ele>
        <time>2011-04-10T10:47:21Z</time>
      </trkpt>
      <trkpt lat="45.90175" lon="6.18554">
        <ele>1249</ele>
        <time>2011-04-10T10:47:22Z</time>
      </trkpt>
      <trkpt lat="45.90176" lon="6.18553">
        <ele>1249</ele>
        <time>2011-04-10T10:47:23Z</time>
      </trkpt>
      <trkpt lat="45.90178" lon="6.18553">
        <ele>1248</ele>
        <time>2011-04-10T10:47:24Z</time>
      </trkpt>
      <trkpt lat="45.90179" lon="6.18553">
        <ele>1248</ele>
        <time>2011-04-10T10:47:25Z</time>
      </trkpt>
      <trkpt lat="45.9018" lon="6.18551">
        <ele>1248</ele>
        <time>2011-04-10T10:47:27Z</time>
      </trkpt>
      <trkpt lat="45.90181" lon="6.18551">
        <ele>1248</ele>
        <time>2011-04-10T10:47:28Z</time>
      </trkpt>
      <trkpt lat="45.90182" lon="6.1855">
        <ele>1247</ele>
        <time>2011-04-10T10:47:29Z</time>
      </trkpt>
      <trkpt lat="45.90183" lon="6.1855">
        <ele>1246</ele>
        <time>2011-04-10T10:47:30Z</time>
      </trkpt>
      <trkpt lat="45.90185" lon="6.18547">
        <ele>1245</ele>
        <time>2011-04-10T10:47:31Z</time>
      </trkpt>
      <trkpt lat="45.90186" lon="6.18547">
        <ele>1244</ele>
        <time>2011-04-10T10:47:32Z</time>
      </trkpt>
      <trkpt lat="45.90187" lon="6.18547">
        <ele>1244</ele>
        <time>2011-04-10T10:47:33Z</time>
      </trkpt>
      <trkpt lat="45.90188" lon="6.18546">
        <ele>1244</ele>
        <time>2011-04-10T10:47:34Z</time>
      </trkpt>
      <trkpt lat="45.90189" lon="6.18546">
        <ele>1244</ele>
        <time>2011-04-10T10:47:35Z</time>
      </trkpt>
      <trkpt lat="45.9019" lon="6.18545">
        <ele>1244</ele>
        <time>2011-04-10T10:47:36Z</time>
      </trkpt>
      <trkpt lat="45.90191" lon="6.18545">
        <ele>1244</ele>
        <time>2011-04-10T10:47:37Z</time>
      </trkpt>
      <trkpt lat="45.90191" lon="6.18545">
        <ele>1244</ele>
        <time>2011-04-10T10:47:38Z</time>
      </trkpt>
      <trkpt lat="45.90192" lon="6.18544">
        <ele>1245</ele>
        <time>2011-04-10T10:47:39Z</time>
      </trkpt>
      <trkpt lat="45.90194" lon="6.18544">
        <ele>1245</ele>
        <time>2011-04-10T10:47:40Z</time>
      </trkpt>
      <trkpt lat="45.90194" lon="6.18544">
        <ele>1244</ele>
        <time>2011-04-10T10:47:41Z</time>
      </trkpt>
      <trkpt lat="45.90197" lon="6.18543">
        <ele>1244</ele>
        <time>2011-04-10T10:47:42Z</time>
      </trkpt>
      <trkpt lat="45.90197" lon="6.18543">
        <ele>1244</ele>
        <time>2011-04-10T10:47:43Z</time>
      </trkpt>
      <trkpt lat="45.90199" lon="6.18544">
        <ele>1245</ele>
        <time>2011-04-10T10:47:44Z</time>
      </trkpt>
      <trkpt lat="45.90201" lon="6.18544">
        <ele>1244</ele>
        <time>2011-04-10T10:47:45Z</time>
      </trkpt>
      <trkpt lat="45.90201" lon="6.18543">
        <ele>1244</ele>
        <time>2011-04-10T10:47:46Z</time>
      </trkpt>
      <trkpt lat="45.90203" lon="6.18544">
        <ele>1243</ele>
        <time>2011-04-10T10:47:47Z</time>
      </trkpt>
      <trkpt lat="45.90204" lon="6.18544">
        <ele>1243</ele>
        <time>2011-04-10T10:47:48Z</time>
      </trkpt>
      <trkpt lat="45.90205" lon="6.18542">
        <ele>1244</ele>
        <time>2011-04-10T10:47:49Z</time>
      </trkpt>
      <trkpt lat="45.90206" lon="6.18543">
        <ele>1243</ele>
        <time>2011-04-10T10:47:50Z</time>
      </trkpt>
      <trkpt lat="45.90208" lon="6.18542">
        <ele>1243</ele>
        <time>2011-04-10T10:47:51Z</time>
      </trkpt>
      <trkpt lat="45.90209" lon="6.18541">
        <ele>1243</ele>
        <time>2011-04-10T10:47:52Z</time>
      </trkpt>
      <trkpt lat="45.9021" lon="6.18539">
        <ele>1243</ele>
        <time>2011-04-10T10:47:53Z</time>
      </trkpt>
      <trkpt lat="45.9021" lon="6.18541">
        <ele>1243</ele>
        <time>2011-04-10T10:47:54Z</time>
      </trkpt>
      <trkpt lat="45.90212" lon="6.18541">
        <ele>1243</ele>
        <time>2011-04-10T10:47:55Z</time>
      </trkpt>
      <trkpt lat="45.90213" lon="6.18542">
        <ele>1243</ele>
        <time>2011-04-10T10:47:56Z</time>
      </trkpt>
      <trkpt lat="45.90216" lon="6.18543">
        <ele>1242</ele>
        <time>2011-04-10T10:47:57Z</time>
      </trkpt>
      <trkpt lat="45.90218" lon="6.18543">
        <ele>1241</ele>
        <time>2011-04-10T10:47:58Z</time>
      </trkpt>
      <trkpt lat="45.90219" lon="6.18543">
        <ele>1241</ele>
        <time>2011-04-10T10:47:59Z</time>
      </trkpt>
      <trkpt lat="45.90222" lon="6.18543">
        <ele>1240</ele>
        <time>2011-04-10T10:48:00Z</time>
      </trkpt>
      <trkpt lat="45.90222" lon="6.18544">
        <ele>1240</ele>
        <time>2011-04-10T10:48:01Z</time>
      </trkpt>
      <trkpt lat="45.90226" lon="6.18543">
        <ele>1238</ele>
        <time>2011-04-10T10:48:03Z</time>
      </trkpt>
      <trkpt lat="45.90227" lon="6.18542">
        <ele>1238</ele>
        <time>2011-04-10T10:48:04Z</time>
      </trkpt>
      <trkpt lat="45.90227" lon="6.18541">
        <ele>1237</ele>
        <time>2011-04-10T10:48:05Z</time>
      </trkpt>
      <trkpt lat="45.90231" lon="6.1854">
        <ele>1237</ele>
        <time>2011-04-10T10:48:06Z</time>
      </trkpt>
      <trkpt lat="45.90231" lon="6.18538">
        <ele>1238</ele>
        <time>2011-04-10T10:48:07Z</time>
      </trkpt>
      <trkpt lat="45.90232" lon="6.18537">
        <ele>1237</ele>
        <time>2011-04-10T10:48:08Z</time>
      </trkpt>
      <trkpt lat="45.90233" lon="6.18536">
        <ele>1237</ele>
        <time>2011-04-10T10:48:09Z</time>
      </trkpt>
      <trkpt lat="45.90235" lon="6.18532">
        <ele>1236</ele>
        <time>2011-04-10T10:48:10Z</time>
      </trkpt>
      <trkpt lat="45.90238" lon="6.1853">
        <ele>1235</ele>
        <time>2011-04-10T10:48:11Z</time>
      </trkpt>
      <trkpt lat="45.90238" lon="6.18531">
        <ele>1236</ele>
        <time>2011-04-10T10:48:12Z</time>
      </trkpt>
      <trkpt lat="45.90239" lon="6.18531">
        <ele>1236</ele>
        <time>2011-04-10T10:48:13Z</time>
      </trkpt>
      <trkpt lat="45.90239" lon="6.1853">
        <ele>1235</ele>
        <time>2011-04-10T10:48:14Z</time>
      </trkpt>
      <trkpt lat="45.90242" lon="6.18527">
        <ele>1233</ele>
        <time>2011-04-10T10:48:15Z</time>
      </trkpt>
      <trkpt lat="45.90246" lon="6.18525">
        <ele>1231</ele>
        <time>2011-04-10T10:48:16Z</time>
      </trkpt>
      <trkpt lat="45.90249" lon="6.18524">
        <ele>1230</ele>
        <time>2011-04-10T10:48:17Z</time>
      </trkpt>
      <trkpt lat="45.9025" lon="6.1852">
        <ele>1229</ele>
        <time>2011-04-10T10:48:18Z</time>
      </trkpt>
      <trkpt lat="45.90252" lon="6.18519">
        <ele>1228</ele>
        <time>2011-04-10T10:48:19Z</time>
      </trkpt>
      <trkpt lat="45.90253" lon="6.18517">
        <ele>1228</ele>
        <time>2011-04-10T10:48:20Z</time>
      </trkpt>
      <trkpt lat="45.90254" lon="6.18516">
        <ele>1228</ele>
        <time>2011-04-10T10:48:21Z</time>
      </trkpt>
      <trkpt lat="45.90256" lon="6.18515">
        <ele>1227</ele>
        <time>2011-04-10T10:48:22Z</time>
      </trkpt>
      <trkpt lat="45.90258" lon="6.18515">
        <ele>1228</ele>
        <time>2011-04-10T10:49:00Z</time>
      </trkpt>
      <trkpt lat="45.90262" lon="6.18512">
        <ele>1227</ele>
        <time>2011-04-10T10:49:01Z</time>
      </trkpt>
      <trkpt lat="45.90264" lon="6.18509">
        <ele>1226</ele>
        <time>2011-04-10T10:49:02Z</time>
      </trkpt>
      <trkpt lat="45.90265" lon="6.18509">
        <ele>1226</ele>
        <time>2011-04-10T10:49:03Z</time>
      </trkpt>
      <trkpt lat="45.90267" lon="6.1851">
        <ele>1226</ele>
        <time>2011-04-10T10:49:04Z</time>
      </trkpt>
      <trkpt lat="45.90271" lon="6.18509">
        <ele>1227</ele>
        <time>2011-04-10T10:49:05Z</time>
      </trkpt>
      <trkpt lat="45.90272" lon="6.18509">
        <ele>1227</ele>
        <time>2011-04-10T10:49:06Z</time>
      </trkpt>
      <trkpt lat="45.90273" lon="6.18508">
        <ele>1226</ele>
        <time>2011-04-10T10:49:07Z</time>
      </trkpt>
      <trkpt lat="45.90274" lon="6.18506">
        <ele>1225</ele>
        <time>2011-04-10T10:49:08Z</time>
      </trkpt>
      <trkpt lat="45.90276" lon="6.18505">
        <ele>1224</ele>
        <time>2011-04-10T10:49:09Z</time>
      </trkpt>
      <trkpt lat="45.90277" lon="6.18504">
        <ele>1223</ele>
        <time>2011-04-10T10:49:10Z</time>
      </trkpt>
      <trkpt lat="45.90277" lon="6.18504">
        <ele>1223</ele>
        <time>2011-04-10T10:49:11Z</time>
      </trkpt>
      <trkpt lat="45.90279" lon="6.18502">
        <ele>1223</ele>
        <time>2011-04-10T10:49:12Z</time>
      </trkpt>
      <trkpt lat="45.90281" lon="6.18502">
        <ele>1223</ele>
        <time>2011-04-10T10:49:13Z</time>
      </trkpt>
      <trkpt lat="45.90282" lon="6.18504">
        <ele>1223</ele>
        <time>2011-04-10T10:49:14Z</time>
      </trkpt>
      <trkpt lat="45.90284" lon="6.18502">
        <ele>1223</ele>
        <time>2011-04-10T10:49:15Z</time>
      </trkpt>
      <trkpt lat="45.90285" lon="6.18501">
        <ele>1222</ele>
        <time>2011-04-10T10:49:16Z</time>
      </trkpt>
      <trkpt lat="45.90286" lon="6.185">
        <ele>1222</ele>
        <time>2011-04-10T10:49:17Z</time>
      </trkpt>
      <trkpt lat="45.90287" lon="6.185">
        <ele>1221</ele>
        <time>2011-04-10T10:49:18Z</time>
      </trkpt>
      <trkpt lat="45.90289" lon="6.18499">
        <ele>1220</ele>
        <time>2011-04-10T10:49:19Z</time>
      </trkpt>
      <trkpt lat="45.90289" lon="6.185">
        <ele>1220</ele>
        <time>2011-04-10T10:49:20Z</time>
      </trkpt>
      <trkpt lat="45.9029" lon="6.18499">
        <ele>1221</ele>
        <time>2011-04-10T10:49:21Z</time>
      </trkpt>
      <trkpt lat="45.90292" lon="6.18499">
        <ele>1221</ele>
        <time>2011-04-10T10:49:22Z</time>
      </trkpt>
      <trkpt lat="45.90291" lon="6.18498">
        <ele>1220</ele>
        <time>2011-04-10T10:49:23Z</time>
      </trkpt>
      <trkpt lat="45.90293" lon="6.18499">
        <ele>1220</ele>
        <time>2011-04-10T10:49:24Z</time>
      </trkpt>
      <trkpt lat="45.90294" lon="6.18501">
        <ele>1219</ele>
        <time>2011-04-10T10:49:25Z</time>
      </trkpt>
      <trkpt lat="45.90293" lon="6.18501">
        <ele>1218</ele>
        <time>2011-04-10T10:49:26Z</time>
      </trkpt>
      <trkpt lat="45.90294" lon="6.18501">
        <ele>1218</ele>
        <time>2011-04-10T10:49:27Z</time>
      </trkpt>
      <trkpt lat="45.90296" lon="6.18501">
        <ele>1219</ele>
        <time>2011-04-10T10:49:28Z</time>
      </trkpt>
      <trkpt lat="45.90297" lon="6.18501">
        <ele>1219</ele>
        <time>2011-04-10T10:49:29Z</time>
      </trkpt>
      <trkpt lat="45.90299" lon="6.18502">
        <ele>1218</ele>
        <time>2011-04-10T10:49:30Z</time>
      </trkpt>
      <trkpt lat="45.903" lon="6.18503">
        <ele>1218</ele>
        <time>2011-04-10T10:49:31Z</time>
      </trkpt>
      <trkpt lat="45.90301" lon="6.18503">
        <ele>1218</ele>
        <time>2011-04-10T10:49:32Z</time>
      </trkpt>
      <trkpt lat="45.90302" lon="6.18503">
        <ele>1217</ele>
        <time>2011-04-10T10:49:33Z</time>
      </trkpt>
      <trkpt lat="45.90302" lon="6.18503">
        <ele>1217</ele>
        <time>2011-04-10T10:49:34Z</time>
      </trkpt>
      <trkpt lat="45.90302" lon="6.18502">
        <ele>1217</ele>
        <time>2011-04-10T10:49:35Z</time>
      </trkpt>
      <trkpt lat="45.90303" lon="6.18502">
        <ele>1217</ele>
        <time>2011-04-10T10:49:36Z</time>
      </trkpt>
      <trkpt lat="45.90305" lon="6.18504">
        <ele>1217</ele>
        <time>2011-04-10T10:49:37Z</time>
      </trkpt>
      <trkpt lat="45.90306" lon="6.18503">
        <ele>1218</ele>
        <time>2011-04-10T10:49:38Z</time>
      </trkpt>
      <trkpt lat="45.90306" lon="6.18504">
        <ele>1217</ele>
        <time>2011-04-10T10:49:39Z</time>
      </trkpt>
      <trkpt lat="45.90308" lon="6.18503">
        <ele>1216</ele>
        <time>2011-04-10T10:49:40Z</time>
      </trkpt>
      <trkpt lat="45.90311" lon="6.185">
        <ele>1215</ele>
        <time>2011-04-10T10:49:41Z</time>
      </trkpt>
      <trkpt lat="45.90311" lon="6.18498">
        <ele>1215</ele>
        <time>2011-04-10T10:49:42Z</time>
      </trkpt>
      <trkpt lat="45.90311" lon="6.18498">
        <ele>1215</ele>
        <time>2011-04-10T10:49:43Z</time>
      </trkpt>
      <trkpt lat="45.90312" lon="6.18497">
        <ele>1215</ele>
        <time>2011-04-10T10:49:44Z</time>
      </trkpt>
      <trkpt lat="45.90314" lon="6.18496">
        <ele>1215</ele>
        <time>2011-04-10T10:49:45Z</time>
      </trkpt>
      <trkpt lat="45.90314" lon="6.18495">
        <ele>1215</ele>
        <time>2011-04-10T10:49:46Z</time>
      </trkpt>
      <trkpt lat="45.90314" lon="6.18495">
        <ele>1214</ele>
        <time>2011-04-10T10:49:47Z</time>
      </trkpt>
      <trkpt lat="45.90315" lon="6.18495">
        <ele>1214</ele>
        <time>2011-04-10T10:49:48Z</time>
      </trkpt>
      <trkpt lat="45.90317" lon="6.18494">
        <ele>1214</ele>
        <time>2011-04-10T10:49:49Z</time>
      </trkpt>
      <trkpt lat="45.90317" lon="6.18494">
        <ele>1214</ele>
        <time>2011-04-10T10:49:50Z</time>
      </trkpt>
      <trkpt lat="45.90319" lon="6.18493">
        <ele>1215</ele>
        <time>2011-04-10T10:49:51Z</time>
      </trkpt>
      <trkpt lat="45.90321" lon="6.18492">
        <ele>1214</ele>
        <time>2011-04-10T10:49:52Z</time>
      </trkpt>
      <trkpt lat="45.9032" lon="6.18492">
        <ele>1214</ele>
        <time>2011-04-10T10:49:53Z</time>
      </trkpt>
      <trkpt lat="45.90322" lon="6.18492">
        <ele>1214</ele>
        <time>2011-04-10T10:49:54Z</time>
      </trkpt>
      <trkpt lat="45.90322" lon="6.18492">
        <ele>1214</ele>
        <time>2011-04-10T10:49:55Z</time>
      </trkpt>
      <trkpt lat="45.90323" lon="6.18492">
        <ele>1214</ele>
        <time>2011-04-10T10:49:56Z</time>
      </trkpt>
      <trkpt lat="45.90323" lon="6.18492">
        <ele>1213</ele>
        <time>2011-04-10T10:49:57Z</time>
      </trkpt>
      <trkpt lat="45.90325" lon="6.18491">
        <ele>1213</ele>
        <time>2011-04-10T10:49:58Z</time>
      </trkpt>
      <trkpt lat="45.90325" lon="6.18491">
        <ele>1213</ele>
        <time>2011-04-10T10:49:59Z</time>
      </trkpt>
      <trkpt lat="45.90327" lon="6.18491">
        <ele>1213</ele>
        <time>2011-04-10T10:50:00Z</time>
      </trkpt>
      <trkpt lat="45.90328" lon="6.18492">
        <ele>1212</ele>
        <time>2011-04-10T10:50:01Z</time>
      </trkpt>
      <trkpt lat="45.9033" lon="6.18495">
        <ele>1211</ele>
        <time>2011-04-10T10:50:03Z</time>
      </trkpt>
      <trkpt lat="45.90331" lon="6.18495">
        <ele>1211</ele>
        <time>2011-04-10T10:50:04Z</time>
      </trkpt>
      <trkpt lat="45.90331" lon="6.18493">
        <ele>1212</ele>
        <time>2011-04-10T10:50:05Z</time>
      </trkpt>
      <trkpt lat="45.90332" lon="6.18493">
        <ele>1212</ele>
        <time>2011-04-10T10:50:06Z</time>
      </trkpt>
      <trkpt lat="45.90333" lon="6.18493">
        <ele>1212</ele>
        <time>2011-04-10T10:50:07Z</time>
      </trkpt>
      <trkpt lat="45.90334" lon="6.18494">
        <ele>1212</ele>
        <time>2011-04-10T10:50:08Z</time>
      </trkpt>
      <trkpt lat="45.90334" lon="6.18495">
        <ele>1212</ele>
        <time>2011-04-10T10:50:09Z</time>
      </trkpt>
      <trkpt lat="45.90334" lon="6.18496">
        <ele>1211</ele>
        <time>2011-04-10T10:50:10Z</time>
      </trkpt>
      <trkpt lat="45.90334" lon="6.18497">
        <ele>1211</ele>
        <time>2011-04-10T10:50:11Z</time>
      </trkpt>
      <trkpt lat="45.90334" lon="6.18497">
        <ele>1211</ele>
        <time>2011-04-10T10:50:12Z</time>
      </trkpt>
      <trkpt lat="45.90332" lon="6.18494">
        <ele>1211</ele>
        <time>2011-04-10T10:50:13Z</time>
      </trkpt>
      <trkpt lat="45.90334" lon="6.18494">
        <ele>1211</ele>
        <time>2011-04-10T10:50:14Z</time>
      </trkpt>
      <trkpt lat="45.90335" lon="6.18495">
        <ele>1211</ele>
        <time>2011-04-10T10:50:15Z</time>
      </trkpt>
      <trkpt lat="45.90336" lon="6.18495">
        <ele>1211</ele>
        <time>2011-04-10T10:50:16Z</time>
      </trkpt>
      <trkpt lat="45.90336" lon="6.18495">
        <ele>1210</ele>
        <time>2011-04-10T10:50:17Z</time>
      </trkpt>
      <trkpt lat="45.90336" lon="6.18495">
        <ele>1209</ele>
        <time>2011-04-10T10:50:18Z</time>
      </trkpt>
      <trkpt lat="45.90336" lon="6.18494">
        <ele>1209</ele>
        <time>2011-04-10T10:50:19Z</time>
      </trkpt>
      <trkpt lat="45.90337" lon="6.18495">
        <ele>1209</ele>
        <time>2011-04-10T10:50:20Z</time>
      </trkpt>
      <trkpt lat="45.90336" lon="6.18495">
        <ele>1209</ele>
        <time>2011-04-10T10:50:21Z</time>
      </trkpt>
      <trkpt lat="45.90336" lon="6.18494">
        <ele>1209</ele>
        <time>2011-04-10T10:50:22Z</time>
      </trkpt>
      <trkpt lat="45.90337" lon="6.18495">
        <ele>1209</ele>
        <time>2011-04-10T10:50:23Z</time>
      </trkpt>
      <trkpt lat="45.90338" lon="6.18494">
        <ele>1209</ele>
        <time>2011-04-10T10:50:24Z</time>
      </trkpt>
      <trkpt lat="45.90339" lon="6.18495">
        <ele>1209</ele>
        <time>2011-04-10T10:50:25Z</time>
      </trkpt>
      <trkpt lat="45.90339" lon="6.18495">
        <ele>1208</ele>
        <time>2011-04-10T10:50:26Z</time>
      </trkpt>
      <trkpt lat="45.9034" lon="6.18497">
        <ele>1208</ele>
        <time>2011-04-10T10:50:27Z</time>
      </trkpt>
      <trkpt lat="45.90341" lon="6.18497">
        <ele>1208</ele>
        <time>2011-04-10T10:50:28Z</time>
      </trkpt>
      <trkpt lat="45.90341" lon="6.18498">
        <ele>1207</ele>
        <time>2011-04-10T10:50:29Z</time>
      </trkpt>
      <trkpt lat="45.90342" lon="6.18498">
        <ele>1207</ele>
        <time>2011-04-10T10:50:30Z</time>
      </trkpt>
      <trkpt lat="45.90342" lon="6.18499">
        <ele>1207</ele>
        <time>2011-04-10T10:50:31Z</time>
      </trkpt>
      <trkpt lat="45.90344" lon="6.18499">
        <ele>1208</ele>
        <time>2011-04-10T10:50:32Z</time>
      </trkpt>
      <trkpt lat="45.90345" lon="6.185">
        <ele>1208</ele>
        <time>2011-04-10T10:50:33Z</time>
      </trkpt>
      <trkpt lat="45.90346" lon="6.185">
        <ele>1208</ele>
        <time>2011-04-10T10:50:34Z</time>
      </trkpt>
      <trkpt lat="45.90347" lon="6.185">
        <ele>1208</ele>
        <time>2011-04-10T10:50:35Z</time>
      </trkpt>
      <trkpt lat="45.9035" lon="6.185">
        <ele>1207</ele>
        <time>2011-04-10T10:50:36Z</time>
      </trkpt>
      <trkpt lat="45.9035" lon="6.18499">
        <ele>1206</ele>
        <time>2011-04-10T10:50:37Z</time>
      </trkpt>
      <trkpt lat="45.90349" lon="6.18499">
        <ele>1206</ele>
        <time>2011-04-10T10:50:38Z</time>
      </trkpt>
      <trkpt lat="45.90349" lon="6.18498">
        <ele>1206</ele>
        <time>2011-04-10T10:50:39Z</time>
      </trkpt>
      <trkpt lat="45.90349" lon="6.18497">
        <ele>1206</ele>
        <time>2011-04-10T10:50:40Z</time>
      </trkpt>
      <trkpt lat="45.90349" lon="6.18497">
        <ele>1206</ele>
        <time>2011-04-10T10:50:41Z</time>
      </trkpt>
      <trkpt lat="45.9035" lon="6.18497">
        <ele>1206</ele>
        <time>2011-04-10T10:50:42Z</time>
      </trkpt>
      <trkpt lat="45.9035" lon="6.18498">
        <ele>1206</ele>
        <time>2011-04-10T10:50:43Z</time>
      </trkpt>
      <trkpt lat="45.9035" lon="6.18497">
        <ele>1205</ele>
        <time>2011-04-10T10:50:44Z</time>
      </trkpt>
      <trkpt lat="45.9035" lon="6.18497">
        <ele>1204</ele>
        <time>2011-04-10T10:50:45Z</time>
      </trkpt>
      <trkpt lat="45.90351" lon="6.18496">
        <ele>1203</ele>
        <time>2011-04-10T10:50:47Z</time>
      </trkpt>
      <trkpt lat="45.90352" lon="6.18495">
        <ele>1202</ele>
        <time>2011-04-10T10:50:48Z</time>
      </trkpt>
      <trkpt lat="45.90352" lon="6.18495">
        <ele>1202</ele>
        <time>2011-04-10T10:50:49Z</time>
      </trkpt>
      <trkpt lat="45.90352" lon="6.18495">
        <ele>1202</ele>
        <time>2011-04-10T10:50:50Z</time>
      </trkpt>
      <trkpt lat="45.90353" lon="6.18497">
        <ele>1202</ele>
        <time>2011-04-10T10:50:51Z</time>
      </trkpt>
      <trkpt lat="45.90353" lon="6.18495">
        <ele>1201</ele>
        <time>2011-04-10T10:50:52Z</time>
      </trkpt>
      <trkpt lat="45.90354" lon="6.18497">
        <ele>1201</ele>
        <time>2011-04-10T10:50:53Z</time>
      </trkpt>
      <trkpt lat="45.90354" lon="6.18497">
        <ele>1201</ele>
        <time>2011-04-10T10:50:54Z</time>
      </trkpt>
      <trkpt lat="45.90355" lon="6.18495">
        <ele>1201</ele>
        <time>2011-04-10T10:50:55Z</time>
      </trkpt>
      <trkpt lat="45.90357" lon="6.18495">
        <ele>1201</ele>
        <time>2011-04-10T10:50:56Z</time>
      </trkpt>
      <trkpt lat="45.90357" lon="6.18495">
        <ele>1201</ele>
        <time>2011-04-10T10:50:57Z</time>
      </trkpt>
      <trkpt lat="45.90357" lon="6.18495">
        <ele>1200</ele>
        <time>2011-04-10T10:50:58Z</time>
      </trkpt>
      <trkpt lat="45.90357" lon="6.18496">
        <ele>1200</ele>
        <time>2011-04-10T10:50:59Z</time>
      </trkpt>
      <trkpt lat="45.90355" lon="6.18499">
        <ele>1199</ele>
        <time>2011-04-10T10:51:00Z</time>
      </trkpt>
      <trkpt lat="45.90356" lon="6.185">
        <ele>1199</ele>
        <time>2011-04-10T10:51:01Z</time>
      </trkpt>
      <trkpt lat="45.90362" lon="6.18504">
        <ele>1200</ele>
        <time>2011-04-10T10:51:03Z</time>
      </trkpt>
      <trkpt lat="45.90363" lon="6.18502">
        <ele>1199</ele>
        <time>2011-04-10T10:51:04Z</time>
      </trkpt>
      <trkpt lat="45.90365" lon="6.18501">
        <ele>1199</ele>
        <time>2011-04-10T10:51:05Z</time>
      </trkpt>
      <trkpt lat="45.90367" lon="6.18499">
        <ele>1198</ele>
        <time>2011-04-10T10:51:06Z</time>
      </trkpt>
      <trkpt lat="45.90368" lon="6.18498">
        <ele>1197</ele>
        <time>2011-04-10T10:51:07Z</time>
      </trkpt>
      <trkpt lat="45.90368" lon="6.18498">
        <ele>1198</ele>
        <time>2011-04-10T10:51:08Z</time>
      </trkpt>
      <trkpt lat="45.9037" lon="6.18497">
        <ele>1197</ele>
        <time>2011-04-10T10:51:09Z</time>
      </trkpt>
      <trkpt lat="45.90371" lon="6.18497">
        <ele>1197</ele>
        <time>2011-04-10T10:51:10Z</time>
      </trkpt>
      <trkpt lat="45.90371" lon="6.18497">
        <ele>1197</ele>
        <time>2011-04-10T10:51:11Z</time>
      </trkpt>
      <trkpt lat="45.90372" lon="6.18496">
        <ele>1197</ele>
        <time>2011-04-10T10:51:12Z</time>
      </trkpt>
      <trkpt lat="45.90372" lon="6.18494">
        <ele>1197</ele>
        <time>2011-04-10T10:51:13Z</time>
      </trkpt>
      <trkpt lat="45.90372" lon="6.18494">
        <ele>1197</ele>
        <time>2011-04-10T10:51:14Z</time>
      </trkpt>
      <trkpt lat="45.90374" lon="6.18494">
        <ele>1197</ele>
        <time>2011-04-10T10:51:15Z</time>
      </trkpt>
      <trkpt lat="45.90375" lon="6.18494">
        <ele>1197</ele>
        <time>2011-04-10T10:51:16Z</time>
      </trkpt>
      <trkpt lat="45.90377" lon="6.18495">
        <ele>1197</ele>
        <time>2011-04-10T10:51:17Z</time>
      </trkpt>
      <trkpt lat="45.90378" lon="6.18494">
        <ele>1196</ele>
        <time>2011-04-10T10:51:18Z</time>
      </trkpt>
      <trkpt lat="45.9038" lon="6.18492">
        <ele>1196</ele>
        <time>2011-04-10T10:51:20Z</time>
      </trkpt>
      <trkpt lat="45.90383" lon="6.1849">
        <ele>1195</ele>
        <time>2011-04-10T10:51:21Z</time>
      </trkpt>
      <trkpt lat="45.90385" lon="6.18489">
        <ele>1194</ele>
        <time>2011-04-10T10:51:22Z</time>
      </trkpt>
      <trkpt lat="45.90385" lon="6.18489">
        <ele>1194</ele>
        <time>2011-04-10T10:51:23Z</time>
      </trkpt>
      <trkpt lat="45.90387" lon="6.18487">
        <ele>1192</ele>
        <time>2011-04-10T10:51:24Z</time>
      </trkpt>
      <trkpt lat="45.90388" lon="6.18486">
        <ele>1192</ele>
        <time>2011-04-10T10:51:25Z</time>
      </trkpt>
      <trkpt lat="45.90389" lon="6.18486">
        <ele>1192</ele>
        <time>2011-04-10T10:51:26Z</time>
      </trkpt>
      <trkpt lat="45.90391" lon="6.18485">
        <ele>1190</ele>
        <time>2011-04-10T10:52:07Z</time>
      </trkpt>
      <trkpt lat="45.90393" lon="6.18484">
        <ele>1189</ele>
        <time>2011-04-10T10:52:08Z</time>
      </trkpt>
      <trkpt lat="45.90397" lon="6.18485">
        <ele>1188</ele>
        <time>2011-04-10T10:52:09Z</time>
      </trkpt>
      <trkpt lat="45.90401" lon="6.18485">
        <ele>1188</ele>
        <time>2011-04-10T10:52:10Z</time>
      </trkpt>
      <trkpt lat="45.90403" lon="6.18485">
        <ele>1188</ele>
        <time>2011-04-10T10:52:11Z</time>
      </trkpt>
      <trkpt lat="45.90406" lon="6.18484">
        <ele>1188</ele>
        <time>2011-04-10T10:52:12Z</time>
      </trkpt>
      <trkpt lat="45.90407" lon="6.18484">
        <ele>1187</ele>
        <time>2011-04-10T10:52:13Z</time>
      </trkpt>
      <trkpt lat="45.90411" lon="6.18483">
        <ele>1186</ele>
        <time>2011-04-10T10:52:14Z</time>
      </trkpt>
      <trkpt lat="45.90414" lon="6.18483">
        <ele>1186</ele>
        <time>2011-04-10T10:52:15Z</time>
      </trkpt>
      <trkpt lat="45.90415" lon="6.18483">
        <ele>1186</ele>
        <time>2011-04-10T10:52:16Z</time>
      </trkpt>
      <trkpt lat="45.90418" lon="6.18483">
        <ele>1186</ele>
        <time>2011-04-10T10:52:17Z</time>
      </trkpt>
      <trkpt lat="45.90422" lon="6.18484">
        <ele>1187</ele>
        <time>2011-04-10T10:52:18Z</time>
      </trkpt>
      <trkpt lat="45.90425" lon="6.18484">
        <ele>1187</ele>
        <time>2011-04-10T10:52:19Z</time>
      </trkpt>
      <trkpt lat="45.90427" lon="6.18486">
        <ele>1186</ele>
        <time>2011-04-10T10:52:20Z</time>
      </trkpt>
      <trkpt lat="45.90427" lon="6.18488">
        <ele>1186</ele>
        <time>2011-04-10T10:52:21Z</time>
      </trkpt>
      <trkpt lat="45.90431" lon="6.18488">
        <ele>1187</ele>
        <time>2011-04-10T10:52:22Z</time>
      </trkpt>
      <trkpt lat="45.90436" lon="6.18486">
        <ele>1187</ele>
        <time>2011-04-10T10:52:23Z</time>
      </trkpt>
      <trkpt lat="45.90436" lon="6.18486">
        <ele>1186</ele>
        <time>2011-04-10T10:52:24Z</time>
      </trkpt>
      <trkpt lat="45.90438" lon="6.18484">
        <ele>1186</ele>
        <time>2011-04-10T10:52:25Z</time>
      </trkpt>
      <trkpt lat="45.90439" lon="6.18484">
        <ele>1186</ele>
        <time>2011-04-10T10:52:26Z</time>
      </trkpt>
      <trkpt lat="45.90441" lon="6.18484">
        <ele>1186</ele>
        <time>2011-04-10T10:52:27Z</time>
      </trkpt>
      <trkpt lat="45.90441" lon="6.18483">
        <ele>1185</ele>
        <time>2011-04-10T10:52:28Z</time>
      </trkpt>
      <trkpt lat="45.90441" lon="6.18483">
        <ele>1185</ele>
        <time>2011-04-10T10:52:29Z</time>
      </trkpt>
      <trkpt lat="45.90441" lon="6.18482">
        <ele>1185</ele>
        <time>2011-04-10T10:52:30Z</time>
      </trkpt>
      <trkpt lat="45.90442" lon="6.18482">
        <ele>1185</ele>
        <time>2011-04-10T10:52:31Z</time>
      </trkpt>
      <trkpt lat="45.90441" lon="6.18482">
        <ele>1185</ele>
        <time>2011-04-10T10:52:32Z</time>
      </trkpt>
      <trkpt lat="45.90442" lon="6.1848">
        <ele>1186</ele>
        <time>2011-04-10T10:52:33Z</time>
      </trkpt>
      <trkpt lat="45.90443" lon="6.18482">
        <ele>1186</ele>
        <time>2011-04-10T10:52:34Z</time>
      </trkpt>
      <trkpt lat="45.90444" lon="6.18481">
        <ele>1186</ele>
        <time>2011-04-10T10:52:35Z</time>
      </trkpt>
      <trkpt lat="45.90444" lon="6.18481">
        <ele>1186</ele>
        <time>2011-04-10T10:52:36Z</time>
      </trkpt>
      <trkpt lat="45.90445" lon="6.18482">
        <ele>1186</ele>
        <time>2011-04-10T10:52:37Z</time>
      </trkpt>
      <trkpt lat="45.90446" lon="6.18481">
        <ele>1185</ele>
        <time>2011-04-10T10:52:38Z</time>
      </trkpt>
      <trkpt lat="45.90446" lon="6.18482">
        <ele>1186</ele>
        <time>2011-04-10T10:52:39Z</time>
      </trkpt>
      <trkpt lat="45.90447" lon="6.18481">
        <ele>1185</ele>
        <time>2011-04-10T10:52:40Z</time>
      </trkpt>
      <trkpt lat="45.90447" lon="6.1848">
        <ele>1185</ele>
        <time>2011-04-10T10:52:41Z</time>
      </trkpt>
      <trkpt lat="45.90448" lon="6.18478">
        <ele>1185</ele>
        <time>2011-04-10T10:52:42Z</time>
      </trkpt>
      <trkpt lat="45.90449" lon="6.18477">
        <ele>1184</ele>
        <time>2011-04-10T10:52:43Z</time>
      </trkpt>
      <trkpt lat="45.90451" lon="6.18476">
        <ele>1185</ele>
        <time>2011-04-10T10:52:44Z</time>
      </trkpt>
      <trkpt lat="45.90453" lon="6.18475">
        <ele>1184</ele>
        <time>2011-04-10T10:52:45Z</time>
      </trkpt>
      <trkpt lat="45.90453" lon="6.18475">
        <ele>1184</ele>
        <time>2011-04-10T10:52:46Z</time>
      </trkpt>
      <trkpt lat="45.90455" lon="6.18473">
        <ele>1184</ele>
        <time>2011-04-10T10:52:47Z</time>
      </trkpt>
      <trkpt lat="45.90456" lon="6.18472">
        <ele>1184</ele>
        <time>2011-04-10T10:52:48Z</time>
      </trkpt>
      <trkpt lat="45.90457" lon="6.18472">
        <ele>1184</ele>
        <time>2011-04-10T10:52:49Z</time>
      </trkpt>
      <trkpt lat="45.90458" lon="6.18473">
        <ele>1184</ele>
        <time>2011-04-10T10:52:50Z</time>
      </trkpt>
      <trkpt lat="45.90459" lon="6.18473">
        <ele>1183</ele>
        <time>2011-04-10T10:52:51Z</time>
      </trkpt>
      <trkpt lat="45.90463" lon="6.18475">
        <ele>1183</ele>
        <time>2011-04-10T10:52:52Z</time>
      </trkpt>
      <trkpt lat="45.90464" lon="6.18475">
        <ele>1181</ele>
        <time>2011-04-10T10:52:53Z</time>
      </trkpt>
      <trkpt lat="45.90466" lon="6.18475">
        <ele>1181</ele>
        <time>2011-04-10T10:52:54Z</time>
      </trkpt>
      <trkpt lat="45.90469" lon="6.18474">
        <ele>1181</ele>
        <time>2011-04-10T10:52:55Z</time>
      </trkpt>
      <trkpt lat="45.9047" lon="6.18472">
        <ele>1180</ele>
        <time>2011-04-10T10:52:56Z</time>
      </trkpt>
      <trkpt lat="45.90473" lon="6.18472">
        <ele>1180</ele>
        <time>2011-04-10T10:52:57Z</time>
      </trkpt>
      <trkpt lat="45.90474" lon="6.18471">
        <ele>1180</ele>
        <time>2011-04-10T10:52:58Z</time>
      </trkpt>
      <trkpt lat="45.90475" lon="6.1847">
        <ele>1180</ele>
        <time>2011-04-10T10:52:59Z</time>
      </trkpt>
      <trkpt lat="45.90478" lon="6.1847">
        <ele>1179</ele>
        <time>2011-04-10T10:53:00Z</time>
      </trkpt>
      <trkpt lat="45.90478" lon="6.18469">
        <ele>1178</ele>
        <time>2011-04-10T10:53:01Z</time>
      </trkpt>
      <trkpt lat="45.90478" lon="6.18465">
        <ele>1177</ele>
        <time>2011-04-10T10:53:03Z</time>
      </trkpt>
      <trkpt lat="45.9048" lon="6.18465">
        <ele>1176</ele>
        <time>2011-04-10T10:53:04Z</time>
      </trkpt>
      <trkpt lat="45.90481" lon="6.18464">
        <ele>1176</ele>
        <time>2011-04-10T10:53:05Z</time>
      </trkpt>
      <trkpt lat="45.90482" lon="6.18461">
        <ele>1174</ele>
        <time>2011-04-10T10:53:06Z</time>
      </trkpt>
      <trkpt lat="45.90483" lon="6.18461">
        <ele>1174</ele>
        <time>2011-04-10T10:53:07Z</time>
      </trkpt>
      <trkpt lat="45.90482" lon="6.1846">
        <ele>1174</ele>
        <time>2011-04-10T10:53:08Z</time>
      </trkpt>
      <trkpt lat="45.90482" lon="6.18458">
        <ele>1174</ele>
        <time>2011-04-10T10:53:09Z</time>
      </trkpt>
      <trkpt lat="45.90482" lon="6.18457">
        <ele>1173</ele>
        <time>2011-04-10T10:53:10Z</time>
      </trkpt>
      <trkpt lat="45.90484" lon="6.18457">
        <ele>1173</ele>
        <time>2011-04-10T10:53:11Z</time>
      </trkpt>
      <trkpt lat="45.90485" lon="6.18457">
        <ele>1173</ele>
        <time>2011-04-10T10:53:12Z</time>
      </trkpt>
      <trkpt lat="45.90485" lon="6.18456">
        <ele>1173</ele>
        <time>2011-04-10T10:53:13Z</time>
      </trkpt>
      <trkpt lat="45.90487" lon="6.18456">
        <ele>1174</ele>
        <time>2011-04-10T10:53:14Z</time>
      </trkpt>
      <trkpt lat="45.90487" lon="6.18454">
        <ele>1172</ele>
        <time>2011-04-10T10:53:15Z</time>
      </trkpt>
      <trkpt lat="45.90487" lon="6.18455">
        <ele>1173</ele>
        <time>2011-04-10T10:53:16Z</time>
      </trkpt>
      <trkpt lat="45.90487" lon="6.18454">
        <ele>1174</ele>
        <time>2011-04-10T10:53:17Z</time>
      </trkpt>
      <trkpt lat="45.90488" lon="6.18454">
        <ele>1174</ele>
        <time>2011-04-10T10:53:18Z</time>
      </trkpt>
      <trkpt lat="45.90488" lon="6.18453">
        <ele>1173</ele>
        <time>2011-04-10T10:53:19Z</time>
      </trkpt>
      <trkpt lat="45.90488" lon="6.18453">
        <ele>1174</ele>
        <time>2011-04-10T10:53:20Z</time>
      </trkpt>
      <trkpt lat="45.90489" lon="6.18454">
        <ele>1174</ele>
        <time>2011-04-10T10:53:21Z</time>
      </trkpt>
      <trkpt lat="45.9049" lon="6.18451">
        <ele>1173</ele>
        <time>2011-04-10T10:53:22Z</time>
      </trkpt>
      <trkpt lat="45.9049" lon="6.18448">
        <ele>1172</ele>
        <time>2011-04-10T10:53:23Z</time>
      </trkpt>
      <trkpt lat="45.9049" lon="6.18444">
        <ele>1172</ele>
        <time>2011-04-10T10:53:24Z</time>
      </trkpt>
      <trkpt lat="45.90492" lon="6.18444">
        <ele>1172</ele>
        <time>2011-04-10T10:53:25Z</time>
      </trkpt>
      <trkpt lat="45.90495" lon="6.18444">
        <ele>1172</ele>
        <time>2011-04-10T10:53:26Z</time>
      </trkpt>
      <trkpt lat="45.90496" lon="6.18444">
        <ele>1171</ele>
        <time>2011-04-10T10:53:27Z</time>
      </trkpt>
      <trkpt lat="45.90496" lon="6.18444">
        <ele>1171</ele>
        <time>2011-04-10T10:53:28Z</time>
      </trkpt>
      <trkpt lat="45.90496" lon="6.18445">
        <ele>1171</ele>
        <time>2011-04-10T10:53:29Z</time>
      </trkpt>
      <trkpt lat="45.90498" lon="6.18446">
        <ele>1171</ele>
        <time>2011-04-10T10:53:30Z</time>
      </trkpt>
      <trkpt lat="45.90499" lon="6.18443">
        <ele>1170</ele>
        <time>2011-04-10T10:53:31Z</time>
      </trkpt>
      <trkpt lat="45.905" lon="6.18443">
        <ele>1170</ele>
        <time>2011-04-10T10:53:32Z</time>
      </trkpt>
      <trkpt lat="45.90502" lon="6.18443">
        <ele>1169</ele>
        <time>2011-04-10T10:53:33Z</time>
      </trkpt>
      <trkpt lat="45.90504" lon="6.18441">
        <ele>1169</ele>
        <time>2011-04-10T10:53:34Z</time>
      </trkpt>
      <trkpt lat="45.90505" lon="6.18441">
        <ele>1169</ele>
        <time>2011-04-10T10:53:35Z</time>
      </trkpt>
      <trkpt lat="45.90506" lon="6.1844">
        <ele>1169</ele>
        <time>2011-04-10T10:53:36Z</time>
      </trkpt>
      <trkpt lat="45.90507" lon="6.18442">
        <ele>1169</ele>
        <time>2011-04-10T10:53:37Z</time>
      </trkpt>
      <trkpt lat="45.90508" lon="6.18443">
        <ele>1169</ele>
        <time>2011-04-10T10:53:38Z</time>
      </trkpt>
      <trkpt lat="45.90511" lon="6.18444">
        <ele>1168</ele>
        <time>2011-04-10T10:53:39Z</time>
      </trkpt>
      <trkpt lat="45.90511" lon="6.18444">
        <ele>1168</ele>
        <time>2011-04-10T10:53:40Z</time>
      </trkpt>
      <trkpt lat="45.90513" lon="6.18442">
        <ele>1167</ele>
        <time>2011-04-10T10:53:41Z</time>
      </trkpt>
      <trkpt lat="45.90514" lon="6.18442">
        <ele>1167</ele>
        <time>2011-04-10T10:53:42Z</time>
      </trkpt>
      <trkpt lat="45.90515" lon="6.18441">
        <ele>1166</ele>
        <time>2011-04-10T10:53:43Z</time>
      </trkpt>
      <trkpt lat="45.90516" lon="6.18439">
        <ele>1166</ele>
        <time>2011-04-10T10:53:44Z</time>
      </trkpt>
      <trkpt lat="45.90515" lon="6.18438">
        <ele>1165</ele>
        <time>2011-04-10T10:53:45Z</time>
      </trkpt>
      <trkpt lat="45.90516" lon="6.18439">
        <ele>1165</ele>
        <time>2011-04-10T10:53:46Z</time>
      </trkpt>
      <trkpt lat="45.90517" lon="6.18438">
        <ele>1166</ele>
        <time>2011-04-10T10:53:47Z</time>
      </trkpt>
      <trkpt lat="45.90518" lon="6.18438">
        <ele>1165</ele>
        <time>2011-04-10T10:53:48Z</time>
      </trkpt>
      <trkpt lat="45.90519" lon="6.18439">
        <ele>1165</ele>
        <time>2011-04-10T10:53:49Z</time>
      </trkpt>
      <trkpt lat="45.9052" lon="6.18439">
        <ele>1164</ele>
        <time>2011-04-10T10:53:50Z</time>
      </trkpt>
      <trkpt lat="45.90521" lon="6.18438">
        <ele>1164</ele>
        <time>2011-04-10T10:53:51Z</time>
      </trkpt>
      <trkpt lat="45.90524" lon="6.18438">
        <ele>1164</ele>
        <time>2011-04-10T10:53:52Z</time>
      </trkpt>
      <trkpt lat="45.90524" lon="6.18438">
        <ele>1164</ele>
        <time>2011-04-10T10:53:53Z</time>
      </trkpt>
      <trkpt lat="45.90524" lon="6.18437">
        <ele>1164</ele>
        <time>2011-04-10T10:53:54Z</time>
      </trkpt>
      <trkpt lat="45.90525" lon="6.18436">
        <ele>1165</ele>
        <time>2011-04-10T10:53:55Z</time>
      </trkpt>
      <trkpt lat="45.90525" lon="6.18435">
        <ele>1165</ele>
        <time>2011-04-10T10:53:56Z</time>
      </trkpt>
      <trkpt lat="45.90527" lon="6.18436">
        <ele>1165</ele>
        <time>2011-04-10T10:53:57Z</time>
      </trkpt>
      <trkpt lat="45.90526" lon="6.18434">
        <ele>1165</ele>
        <time>2011-04-10T10:53:58Z</time>
      </trkpt>
      <trkpt lat="45.90527" lon="6.18434">
        <ele>1165</ele>
        <time>2011-04-10T10:53:59Z</time>
      </trkpt>
      <trkpt lat="45.90527" lon="6.18433">
        <ele>1164</ele>
        <time>2011-04-10T10:54:00Z</time>
      </trkpt>
      <trkpt lat="45.90528" lon="6.18432">
        <ele>1164</ele>
        <time>2011-04-10T10:54:01Z</time>
      </trkpt>
      <trkpt lat="45.90528" lon="6.1843">
        <ele>1164</ele>
        <time>2011-04-10T10:54:02Z</time>
      </trkpt>
      <trkpt lat="45.90529" lon="6.18429">
        <ele>1164</ele>
        <time>2011-04-10T10:54:03Z</time>
      </trkpt>
      <trkpt lat="45.90532" lon="6.18429">
        <ele>1164</ele>
        <time>2011-04-10T10:54:04Z</time>
      </trkpt>
      <trkpt lat="45.90533" lon="6.18428">
        <ele>1164</ele>
        <time>2011-04-10T10:54:05Z</time>
      </trkpt>
      <trkpt lat="45.90533" lon="6.18427">
        <ele>1162</ele>
        <time>2011-04-10T10:54:06Z</time>
      </trkpt>
      <trkpt lat="45.90534" lon="6.18426">
        <ele>1163</ele>
        <time>2011-04-10T10:54:07Z</time>
      </trkpt>
      <trkpt lat="45.90536" lon="6.18424">
        <ele>1162</ele>
        <time>2011-04-10T10:54:08Z</time>
      </trkpt>
      <trkpt lat="45.90536" lon="6.1842">
        <ele>1163</ele>
        <time>2011-04-10T10:54:09Z</time>
      </trkpt>
      <trkpt lat="45.90536" lon="6.18419">
        <ele>1162</ele>
        <time>2011-04-10T10:54:10Z</time>
      </trkpt>
      <trkpt lat="45.90536" lon="6.18417">
        <ele>1162</ele>
        <time>2011-04-10T10:54:11Z</time>
      </trkpt>
      <trkpt lat="45.90537" lon="6.18415">
        <ele>1161</ele>
        <time>2011-04-10T10:54:12Z</time>
      </trkpt>
      <trkpt lat="45.90539" lon="6.18413">
        <ele>1161</ele>
        <time>2011-04-10T10:54:13Z</time>
      </trkpt>
      <trkpt lat="45.90542" lon="6.1841">
        <ele>1159</ele>
        <time>2011-04-10T10:54:14Z</time>
      </trkpt>
      <trkpt lat="45.90543" lon="6.18408">
        <ele>1158</ele>
        <time>2011-04-10T10:54:15Z</time>
      </trkpt>
      <trkpt lat="45.90547" lon="6.18408">
        <ele>1157</ele>
        <time>2011-04-10T10:54:16Z</time>
      </trkpt>
      <trkpt lat="45.90548" lon="6.18405">
        <ele>1157</ele>
        <time>2011-04-10T10:54:17Z</time>
      </trkpt>
      <trkpt lat="45.90548" lon="6.18403">
        <ele>1157</ele>
        <time>2011-04-10T10:54:18Z</time>
      </trkpt>
      <trkpt lat="45.90548" lon="6.18402">
        <ele>1157</ele>
        <time>2011-04-10T10:54:19Z</time>
      </trkpt>
      <trkpt lat="45.90551" lon="6.18398">
        <ele>1155</ele>
        <time>2011-04-10T10:55:08Z</time>
      </trkpt>
      <trkpt lat="45.90557" lon="6.18393">
        <ele>1155</ele>
        <time>2011-04-10T10:55:09Z</time>
      </trkpt>
      <trkpt lat="45.90558" lon="6.18391">
        <ele>1155</ele>
        <time>2011-04-10T10:55:10Z</time>
      </trkpt>
      <trkpt lat="45.90562" lon="6.18387">
        <ele>1155</ele>
        <time>2011-04-10T10:55:11Z</time>
      </trkpt>
      <trkpt lat="45.90565" lon="6.18384">
        <ele>1155</ele>
        <time>2011-04-10T10:55:12Z</time>
      </trkpt>
      <trkpt lat="45.90569" lon="6.18383">
        <ele>1154</ele>
        <time>2011-04-10T10:55:13Z</time>
      </trkpt>
      <trkpt lat="45.90572" lon="6.1838">
        <ele>1153</ele>
        <time>2011-04-10T10:55:14Z</time>
      </trkpt>
      <trkpt lat="45.90574" lon="6.18376">
        <ele>1152</ele>
        <time>2011-04-10T10:55:15Z</time>
      </trkpt>
      <trkpt lat="45.90574" lon="6.18373">
        <ele>1153</ele>
        <time>2011-04-10T10:55:16Z</time>
      </trkpt>
      <trkpt lat="45.90574" lon="6.1837">
        <ele>1152</ele>
        <time>2011-04-10T10:55:17Z</time>
      </trkpt>
      <trkpt lat="45.9058" lon="6.18368">
        <ele>1152</ele>
        <time>2011-04-10T10:55:18Z</time>
      </trkpt>
      <trkpt lat="45.90582" lon="6.18366">
        <ele>1153</ele>
        <time>2011-04-10T10:55:19Z</time>
      </trkpt>
      <trkpt lat="45.90584" lon="6.18365">
        <ele>1152</ele>
        <time>2011-04-10T10:55:20Z</time>
      </trkpt>
      <trkpt lat="45.90586" lon="6.18365">
        <ele>1152</ele>
        <time>2011-04-10T10:55:21Z</time>
      </trkpt>
      <trkpt lat="45.90587" lon="6.18366">
        <ele>1152</ele>
        <time>2011-04-10T10:55:22Z</time>
      </trkpt>
      <trkpt lat="45.90591" lon="6.18365">
        <ele>1152</ele>
        <time>2011-04-10T10:55:23Z</time>
      </trkpt>
      <trkpt lat="45.90592" lon="6.18364">
        <ele>1150</ele>
        <time>2011-04-10T10:55:24Z</time>
      </trkpt>
      <trkpt lat="45.90591" lon="6.18364">
        <ele>1149</ele>
        <time>2011-04-10T10:55:25Z</time>
      </trkpt>
      <trkpt lat="45.90592" lon="6.18363">
        <ele>1148</ele>
        <time>2011-04-10T10:55:26Z</time>
      </trkpt>
      <trkpt lat="45.90592" lon="6.18362">
        <ele>1148</ele>
        <time>2011-04-10T10:55:27Z</time>
      </trkpt>
      <trkpt lat="45.90593" lon="6.18359">
        <ele>1149</ele>
        <time>2011-04-10T10:55:28Z</time>
      </trkpt>
      <trkpt lat="45.90594" lon="6.18358">
        <ele>1149</ele>
        <time>2011-04-10T10:55:29Z</time>
      </trkpt>
      <trkpt lat="45.90596" lon="6.18358">
        <ele>1149</ele>
        <time>2011-04-10T10:55:30Z</time>
      </trkpt>
      <trkpt lat="45.90596" lon="6.18357">
        <ele>1148</ele>
        <time>2011-04-10T10:55:31Z</time>
      </trkpt>
      <trkpt lat="45.90596" lon="6.18355">
        <ele>1148</ele>
        <time>2011-04-10T10:55:32Z</time>
      </trkpt>
      <trkpt lat="45.90597" lon="6.18354">
        <ele>1148</ele>
        <time>2011-04-10T10:55:33Z</time>
      </trkpt>
      <trkpt lat="45.90598" lon="6.18352">
        <ele>1148</ele>
        <time>2011-04-10T10:55:34Z</time>
      </trkpt>
      <trkpt lat="45.90596" lon="6.18348">
        <ele>1148</ele>
        <time>2011-04-10T10:55:35Z</time>
      </trkpt>
      <trkpt lat="45.90597" lon="6.18347">
        <ele>1147</ele>
        <time>2011-04-10T10:55:36Z</time>
      </trkpt>
      <trkpt lat="45.906" lon="6.18345">
        <ele>1147</ele>
        <time>2011-04-10T10:55:37Z</time>
      </trkpt>
      <trkpt lat="45.906" lon="6.18344">
        <ele>1147</ele>
        <time>2011-04-10T10:55:38Z</time>
      </trkpt>
      <trkpt lat="45.906" lon="6.18341">
        <ele>1146</ele>
        <time>2011-04-10T10:55:39Z</time>
      </trkpt>
      <trkpt lat="45.90601" lon="6.18338">
        <ele>1147</ele>
        <time>2011-04-10T10:55:40Z</time>
      </trkpt>
      <trkpt lat="45.90602" lon="6.18338">
        <ele>1147</ele>
        <time>2011-04-10T10:55:41Z</time>
      </trkpt>
      <trkpt lat="45.90601" lon="6.18338">
        <ele>1146</ele>
        <time>2011-04-10T10:55:42Z</time>
      </trkpt>
      <trkpt lat="45.90602" lon="6.18336">
        <ele>1145</ele>
        <time>2011-04-10T10:55:43Z</time>
      </trkpt>
      <trkpt lat="45.90605" lon="6.18333">
        <ele>1145</ele>
        <time>2011-04-10T10:55:44Z</time>
      </trkpt>
      <trkpt lat="45.90606" lon="6.18331">
        <ele>1145</ele>
        <time>2011-04-10T10:55:45Z</time>
      </trkpt>
      <trkpt lat="45.90606" lon="6.18331">
        <ele>1144</ele>
        <time>2011-04-10T10:55:46Z</time>
      </trkpt>
      <trkpt lat="45.90607" lon="6.18329">
        <ele>1144</ele>
        <time>2011-04-10T10:55:47Z</time>
      </trkpt>
      <trkpt lat="45.90608" lon="6.18326">
        <ele>1144</ele>
        <time>2011-04-10T10:55:48Z</time>
      </trkpt>
      <trkpt lat="45.9061" lon="6.18328">
        <ele>1144</ele>
        <time>2011-04-10T10:55:49Z</time>
      </trkpt>
      <trkpt lat="45.90612" lon="6.18327">
        <ele>1144</ele>
        <time>2011-04-10T10:55:50Z</time>
      </trkpt>
      <trkpt lat="45.90611" lon="6.18323">
        <ele>1143</ele>
        <time>2011-04-10T10:55:51Z</time>
      </trkpt>
      <trkpt lat="45.90612" lon="6.18321">
        <ele>1143</ele>
        <time>2011-04-10T10:55:52Z</time>
      </trkpt>
      <trkpt lat="45.90613" lon="6.18322">
        <ele>1142</ele>
        <time>2011-04-10T10:55:53Z</time>
      </trkpt>
      <trkpt lat="45.90614" lon="6.18317">
        <ele>1142</ele>
        <time>2011-04-10T10:55:54Z</time>
      </trkpt>
      <trkpt lat="45.90615" lon="6.18316">
        <ele>1142</ele>
        <time>2011-04-10T10:55:55Z</time>
      </trkpt>
      <trkpt lat="45.90615" lon="6.18313">
        <ele>1142</ele>
        <time>2011-04-10T10:55:56Z</time>
      </trkpt>
      <trkpt lat="45.90616" lon="6.1831">
        <ele>1143</ele>
        <time>2011-04-10T10:55:57Z</time>
      </trkpt>
      <trkpt lat="45.9062" lon="6.18307">
        <ele>1143</ele>
        <time>2011-04-10T10:55:58Z</time>
      </trkpt>
      <trkpt lat="45.90618" lon="6.18307">
        <ele>1142</ele>
        <time>2011-04-10T10:55:59Z</time>
      </trkpt>
      <trkpt lat="45.90621" lon="6.18306">
        <ele>1143</ele>
        <time>2011-04-10T10:56:00Z</time>
      </trkpt>
      <trkpt lat="45.90622" lon="6.18306">
        <ele>1143</ele>
        <time>2011-04-10T10:56:01Z</time>
      </trkpt>
      <trkpt lat="45.90623" lon="6.18308">
        <ele>1143</ele>
        <time>2011-04-10T10:56:03Z</time>
      </trkpt>
      <trkpt lat="45.90623" lon="6.18308">
        <ele>1144</ele>
        <time>2011-04-10T10:56:04Z</time>
      </trkpt>
      <trkpt lat="45.90625" lon="6.18307">
        <ele>1143</ele>
        <time>2011-04-10T10:56:05Z</time>
      </trkpt>
      <trkpt lat="45.90628" lon="6.18308">
        <ele>1143</ele>
        <time>2011-04-10T10:56:06Z</time>
      </trkpt>
      <trkpt lat="45.9063" lon="6.18308">
        <ele>1142</ele>
        <time>2011-04-10T10:56:07Z</time>
      </trkpt>
      <trkpt lat="45.90631" lon="6.18307">
        <ele>1143</ele>
        <time>2011-04-10T10:56:08Z</time>
      </trkpt>
      <trkpt lat="45.90635" lon="6.18304">
        <ele>1141</ele>
        <time>2011-04-10T10:56:09Z</time>
      </trkpt>
      <trkpt lat="45.90636" lon="6.18302">
        <ele>1141</ele>
        <time>2011-04-10T10:56:10Z</time>
      </trkpt>
      <trkpt lat="45.90636" lon="6.183">
        <ele>1141</ele>
        <time>2011-04-10T10:56:11Z</time>
      </trkpt>
      <trkpt lat="45.90635" lon="6.18299">
        <ele>1140</ele>
        <time>2011-04-10T10:56:12Z</time>
      </trkpt>
      <trkpt lat="45.90635" lon="6.18298">
        <ele>1140</ele>
        <time>2011-04-10T10:56:13Z</time>
      </trkpt>
      <trkpt lat="45.90634" lon="6.18297">
        <ele>1139</ele>
        <time>2011-04-10T10:56:14Z</time>
      </trkpt>
      <trkpt lat="45.90633" lon="6.18296">
        <ele>1139</ele>
        <time>2011-04-10T10:56:15Z</time>
      </trkpt>
      <trkpt lat="45.90632" lon="6.18293">
        <ele>1138</ele>
        <time>2011-04-10T10:56:16Z</time>
      </trkpt>
      <trkpt lat="45.90631" lon="6.18291">
        <ele>1138</ele>
        <time>2011-04-10T10:56:17Z</time>
      </trkpt>
      <trkpt lat="45.90631" lon="6.18289">
        <ele>1137</ele>
        <time>2011-04-10T10:56:18Z</time>
      </trkpt>
      <trkpt lat="45.90632" lon="6.18289">
        <ele>1138</ele>
        <time>2011-04-10T10:56:19Z</time>
      </trkpt>
      <trkpt lat="45.90632" lon="6.18287">
        <ele>1138</ele>
        <time>2011-04-10T10:56:20Z</time>
      </trkpt>
      <trkpt lat="45.90632" lon="6.18288">
        <ele>1138</ele>
        <time>2011-04-10T10:56:21Z</time>
      </trkpt>
      <trkpt lat="45.90631" lon="6.18289">
        <ele>1137</ele>
        <time>2011-04-10T10:56:22Z</time>
      </trkpt>
      <trkpt lat="45.9063" lon="6.18288">
        <ele>1137</ele>
        <time>2011-04-10T10:56:23Z</time>
      </trkpt>
      <trkpt lat="45.9063" lon="6.18287">
        <ele>1137</ele>
        <time>2011-04-10T10:56:24Z</time>
      </trkpt>
      <trkpt lat="45.9063" lon="6.18286">
        <ele>1137</ele>
        <time>2011-04-10T10:56:25Z</time>
      </trkpt>
      <trkpt lat="45.9063" lon="6.18285">
        <ele>1137</ele>
        <time>2011-04-10T10:56:26Z</time>
      </trkpt>
      <trkpt lat="45.9063" lon="6.18282">
        <ele>1137</ele>
        <time>2011-04-10T10:56:27Z</time>
      </trkpt>
      <trkpt lat="45.90629" lon="6.18281">
        <ele>1137</ele>
        <time>2011-04-10T10:56:28Z</time>
      </trkpt>
      <trkpt lat="45.90628" lon="6.1828">
        <ele>1138</ele>
        <time>2011-04-10T10:56:29Z</time>
      </trkpt>
      <trkpt lat="45.90628" lon="6.18279">
        <ele>1137</ele>
        <time>2011-04-10T10:56:30Z</time>
      </trkpt>
      <trkpt lat="45.90628" lon="6.18277">
        <ele>1138</ele>
        <time>2011-04-10T10:56:31Z</time>
      </trkpt>
      <trkpt lat="45.90627" lon="6.18274">
        <ele>1138</ele>
        <time>2011-04-10T10:56:32Z</time>
      </trkpt>
      <trkpt lat="45.90626" lon="6.18273">
        <ele>1137</ele>
        <time>2011-04-10T10:56:33Z</time>
      </trkpt>
      <trkpt lat="45.90626" lon="6.18272">
        <ele>1137</ele>
        <time>2011-04-10T10:56:34Z</time>
      </trkpt>
      <trkpt lat="45.90625" lon="6.18269">
        <ele>1136</ele>
        <time>2011-04-10T10:56:35Z</time>
      </trkpt>
      <trkpt lat="45.90623" lon="6.18267">
        <ele>1137</ele>
        <time>2011-04-10T10:56:36Z</time>
      </trkpt>
      <trkpt lat="45.90624" lon="6.18265">
        <ele>1137</ele>
        <time>2011-04-10T10:56:37Z</time>
      </trkpt>
      <trkpt lat="45.90623" lon="6.18266">
        <ele>1136</ele>
        <time>2011-04-10T10:56:38Z</time>
      </trkpt>
      <trkpt lat="45.90624" lon="6.18265">
        <ele>1136</ele>
        <time>2011-04-10T10:56:40Z</time>
      </trkpt>
      <trkpt lat="45.90624" lon="6.18263">
        <ele>1136</ele>
        <time>2011-04-10T10:56:41Z</time>
      </trkpt>
      <trkpt lat="45.90625" lon="6.1826">
        <ele>1136</ele>
        <time>2011-04-10T10:56:42Z</time>
      </trkpt>
      <trkpt lat="45.90626" lon="6.18257">
        <ele>1135</ele>
        <time>2011-04-10T10:56:43Z</time>
      </trkpt>
      <trkpt lat="45.90627" lon="6.18256">
        <ele>1137</ele>
        <time>2011-04-10T10:56:44Z</time>
      </trkpt>
      <trkpt lat="45.90626" lon="6.18255">
        <ele>1135</ele>
        <time>2011-04-10T10:56:45Z</time>
      </trkpt>
      <trkpt lat="45.90624" lon="6.18252">
        <ele>1134</ele>
        <time>2011-04-10T10:56:46Z</time>
      </trkpt>
      <trkpt lat="45.90625" lon="6.18251">
        <ele>1134</ele>
        <time>2011-04-10T10:56:47Z</time>
      </trkpt>
      <trkpt lat="45.90625" lon="6.18249">
        <ele>1134</ele>
        <time>2011-04-10T10:56:48Z</time>
      </trkpt>
      <trkpt lat="45.90625" lon="6.18248">
        <ele>1133</ele>
        <time>2011-04-10T10:56:49Z</time>
      </trkpt>
      <trkpt lat="45.90626" lon="6.18245">
        <ele>1133</ele>
        <time>2011-04-10T10:56:50Z</time>
      </trkpt>
      <trkpt lat="45.9063" lon="6.18243">
        <ele>1132</ele>
        <time>2011-04-10T10:56:51Z</time>
      </trkpt>
      <trkpt lat="45.90632" lon="6.18243">
        <ele>1133</ele>
        <time>2011-04-10T10:56:52Z</time>
      </trkpt>
      <trkpt lat="45.90632" lon="6.18241">
        <ele>1133</ele>
        <time>2011-04-10T10:56:53Z</time>
      </trkpt>
      <trkpt lat="45.90633" lon="6.18238">
        <ele>1133</ele>
        <time>2011-04-10T10:56:54Z</time>
      </trkpt>
      <trkpt lat="45.90634" lon="6.18237">
        <ele>1133</ele>
        <time>2011-04-10T10:56:55Z</time>
      </trkpt>
      <trkpt lat="45.90634" lon="6.18236">
        <ele>1132</ele>
        <time>2011-04-10T10:56:56Z</time>
      </trkpt>
      <trkpt lat="45.90635" lon="6.18235">
        <ele>1132</ele>
        <time>2011-04-10T10:56:57Z</time>
      </trkpt>
      <trkpt lat="45.90635" lon="6.18234">
        <ele>1132</ele>
        <time>2011-04-10T10:56:58Z</time>
      </trkpt>
      <trkpt lat="45.90635" lon="6.18234">
        <ele>1132</ele>
        <time>2011-04-10T10:56:59Z</time>
      </trkpt>
      <trkpt lat="45.90635" lon="6.18233">
        <ele>1132</ele>
        <time>2011-04-10T10:57:00Z</time>
      </trkpt>
      <trkpt lat="45.90636" lon="6.18232">
        <ele>1133</ele>
        <time>2011-04-10T10:57:01Z</time>
      </trkpt>
      <trkpt lat="45.90638" lon="6.18229">
        <ele>1132</ele>
        <time>2011-04-10T10:57:03Z</time>
      </trkpt>
      <trkpt lat="45.90638" lon="6.18227">
        <ele>1132</ele>
        <time>2011-04-10T10:57:04Z</time>
      </trkpt>
      <trkpt lat="45.90639" lon="6.18225">
        <ele>1132</ele>
        <time>2011-04-10T10:57:05Z</time>
      </trkpt>
      <trkpt lat="45.9064" lon="6.18224">
        <ele>1133</ele>
        <time>2011-04-10T10:57:06Z</time>
      </trkpt>
      <trkpt lat="45.90637" lon="6.18222">
        <ele>1132</ele>
        <time>2011-04-10T10:57:07Z</time>
      </trkpt>
      <trkpt lat="45.90639" lon="6.18221">
        <ele>1132</ele>
        <time>2011-04-10T10:57:08Z</time>
      </trkpt>
      <trkpt lat="45.90639" lon="6.18218">
        <ele>1131</ele>
        <time>2011-04-10T10:57:09Z</time>
      </trkpt>
      <trkpt lat="45.9064" lon="6.18215">
        <ele>1131</ele>
        <time>2011-04-10T10:57:10Z</time>
      </trkpt>
      <trkpt lat="45.90639" lon="6.18212">
        <ele>1131</ele>
        <time>2011-04-10T10:57:11Z</time>
      </trkpt>
      <trkpt lat="45.90639" lon="6.18211">
        <ele>1130</ele>
        <time>2011-04-10T10:57:12Z</time>
      </trkpt>
      <trkpt lat="45.9064" lon="6.18209">
        <ele>1129</ele>
        <time>2011-04-10T10:57:13Z</time>
      </trkpt>
      <trkpt lat="45.90641" lon="6.18208">
        <ele>1128</ele>
        <time>2011-04-10T10:57:14Z</time>
      </trkpt>
      <trkpt lat="45.90641" lon="6.18206">
        <ele>1128</ele>
        <time>2011-04-10T10:57:15Z</time>
      </trkpt>
      <trkpt lat="45.90642" lon="6.18207">
        <ele>1128</ele>
        <time>2011-04-10T10:57:16Z</time>
      </trkpt>
      <trkpt lat="45.90641" lon="6.18206">
        <ele>1128</ele>
        <time>2011-04-10T10:57:17Z</time>
      </trkpt>
      <trkpt lat="45.90641" lon="6.18205">
        <ele>1128</ele>
        <time>2011-04-10T10:57:18Z</time>
      </trkpt>
      <trkpt lat="45.90643" lon="6.18202">
        <ele>1126</ele>
        <time>2011-04-10T10:57:19Z</time>
      </trkpt>
      <trkpt lat="45.90644" lon="6.18201">
        <ele>1125</ele>
        <time>2011-04-10T10:57:20Z</time>
      </trkpt>
      <trkpt lat="45.90643" lon="6.182">
        <ele>1124</ele>
        <time>2011-04-10T10:57:21Z</time>
      </trkpt>
      <trkpt lat="45.90644" lon="6.18199">
        <ele>1125</ele>
        <time>2011-04-10T10:57:22Z</time>
      </trkpt>
      <trkpt lat="45.90645" lon="6.18199">
        <ele>1124</ele>
        <time>2011-04-10T10:57:23Z</time>
      </trkpt>
      <trkpt lat="45.90645" lon="6.18197">
        <ele>1124</ele>
        <time>2011-04-10T10:57:24Z</time>
      </trkpt>
      <trkpt lat="45.90645" lon="6.18195">
        <ele>1124</ele>
        <time>2011-04-10T10:57:25Z</time>
      </trkpt>
      <trkpt lat="45.90644" lon="6.18192">
        <ele>1124</ele>
        <time>2011-04-10T10:57:26Z</time>
      </trkpt>
      <trkpt lat="45.90646" lon="6.1819">
        <ele>1124</ele>
        <time>2011-04-10T10:57:27Z</time>
      </trkpt>
      <trkpt lat="45.90647" lon="6.18188">
        <ele>1125</ele>
        <time>2011-04-10T10:57:36Z</time>
      </trkpt>
      <trkpt lat="45.9065" lon="6.18184">
        <ele>1125</ele>
        <time>2011-04-10T10:57:37Z</time>
      </trkpt>
      <trkpt lat="45.90651" lon="6.18182">
        <ele>1126</ele>
        <time>2011-04-10T10:57:38Z</time>
      </trkpt>
      <trkpt lat="45.90652" lon="6.1818">
        <ele>1126</ele>
        <time>2011-04-10T10:57:39Z</time>
      </trkpt>
      <trkpt lat="45.90649" lon="6.18176">
        <ele>1127</ele>
        <time>2011-04-10T10:57:40Z</time>
      </trkpt>
      <trkpt lat="45.90649" lon="6.18173">
        <ele>1126</ele>
        <time>2011-04-10T10:57:41Z</time>
      </trkpt>
      <trkpt lat="45.9065" lon="6.18171">
        <ele>1126</ele>
        <time>2011-04-10T10:57:42Z</time>
      </trkpt>
      <trkpt lat="45.9065" lon="6.18169">
        <ele>1125</ele>
        <time>2011-04-10T10:57:43Z</time>
      </trkpt>
      <trkpt lat="45.9065" lon="6.18168">
        <ele>1125</ele>
        <time>2011-04-10T10:57:44Z</time>
      </trkpt>
      <trkpt lat="45.90651" lon="6.18166">
        <ele>1125</ele>
        <time>2011-04-10T10:57:45Z</time>
      </trkpt>
      <trkpt lat="45.9065" lon="6.18163">
        <ele>1125</ele>
        <time>2011-04-10T10:57:46Z</time>
      </trkpt>
      <trkpt lat="45.90651" lon="6.1816">
        <ele>1124</ele>
        <time>2011-04-10T10:57:47Z</time>
      </trkpt>
      <trkpt lat="45.9065" lon="6.18159">
        <ele>1124</ele>
        <time>2011-04-10T10:57:48Z</time>
      </trkpt>
      <trkpt lat="45.90649" lon="6.18155">
        <ele>1123</ele>
        <time>2011-04-10T10:57:50Z</time>
      </trkpt>
      <trkpt lat="45.9065" lon="6.18152">
        <ele>1123</ele>
        <time>2011-04-10T10:57:51Z</time>
      </trkpt>
      <trkpt lat="45.90652" lon="6.1815">
        <ele>1122</ele>
        <time>2011-04-10T10:57:52Z</time>
      </trkpt>
      <trkpt lat="45.90654" lon="6.18147">
        <ele>1122</ele>
        <time>2011-04-10T10:57:53Z</time>
      </trkpt>
      <trkpt lat="45.90655" lon="6.18144">
        <ele>1122</ele>
        <time>2011-04-10T10:57:54Z</time>
      </trkpt>
      <trkpt lat="45.90657" lon="6.18142">
        <ele>1122</ele>
        <time>2011-04-10T10:57:55Z</time>
      </trkpt>
      <trkpt lat="45.9066" lon="6.1814">
        <ele>1122</ele>
        <time>2011-04-10T10:57:56Z</time>
      </trkpt>
      <trkpt lat="45.9066" lon="6.1814">
        <ele>1122</ele>
        <time>2011-04-10T10:57:57Z</time>
      </trkpt>
      <trkpt lat="45.90665" lon="6.18134">
        <ele>1121</ele>
        <time>2011-04-10T10:57:58Z</time>
      </trkpt>
      <trkpt lat="45.90662" lon="6.18129">
        <ele>1121</ele>
        <time>2011-04-10T10:58:19Z</time>
      </trkpt>
      <trkpt lat="45.90663" lon="6.18126">
        <ele>1121</ele>
        <time>2011-04-10T10:58:20Z</time>
      </trkpt>
      <trkpt lat="45.90663" lon="6.18124">
        <ele>1122</ele>
        <time>2011-04-10T10:58:21Z</time>
      </trkpt>
      <trkpt lat="45.90662" lon="6.18121">
        <ele>1122</ele>
        <time>2011-04-10T10:58:22Z</time>
      </trkpt>
      <trkpt lat="45.90664" lon="6.18118">
        <ele>1121</ele>
        <time>2011-04-10T10:58:23Z</time>
      </trkpt>
      <trkpt lat="45.90664" lon="6.18116">
        <ele>1122</ele>
        <time>2011-04-10T10:58:24Z</time>
      </trkpt>
      <trkpt lat="45.90664" lon="6.18115">
        <ele>1122</ele>
        <time>2011-04-10T10:58:25Z</time>
      </trkpt>
      <trkpt lat="45.90664" lon="6.18111">
        <ele>1121</ele>
        <time>2011-04-10T10:58:26Z</time>
      </trkpt>
      <trkpt lat="45.90665" lon="6.18107">
        <ele>1121</ele>
        <time>2011-04-10T10:58:27Z</time>
      </trkpt>
      <trkpt lat="45.90666" lon="6.18103">
        <ele>1121</ele>
        <time>2011-04-10T10:58:28Z</time>
      </trkpt>
      <trkpt lat="45.90666" lon="6.181">
        <ele>1120</ele>
        <time>2011-04-10T10:58:29Z</time>
      </trkpt>
      <trkpt lat="45.90666" lon="6.18095">
        <ele>1119</ele>
        <time>2011-04-10T10:58:30Z</time>
      </trkpt>
      <trkpt lat="45.90665" lon="6.18089">
        <ele>1119</ele>
        <time>2011-04-10T10:58:32Z</time>
      </trkpt>
      <trkpt lat="45.90665" lon="6.18087">
        <ele>1119</ele>
        <time>2011-04-10T10:58:33Z</time>
      </trkpt>
      <trkpt lat="45.90666" lon="6.18084">
        <ele>1119</ele>
        <time>2011-04-10T10:58:34Z</time>
      </trkpt>
      <trkpt lat="45.90667" lon="6.18081">
        <ele>1117</ele>
        <time>2011-04-10T10:58:35Z</time>
      </trkpt>
      <trkpt lat="45.90671" lon="6.18078">
        <ele>1118</ele>
        <time>2011-04-10T10:58:36Z</time>
      </trkpt>
      <trkpt lat="45.90672" lon="6.18075">
        <ele>1118</ele>
        <time>2011-04-10T10:58:37Z</time>
      </trkpt>
      <trkpt lat="45.90673" lon="6.18073">
        <ele>1117</ele>
        <time>2011-04-10T10:58:41Z</time>
      </trkpt>
      <trkpt lat="45.90674" lon="6.1807">
        <ele>1118</ele>
        <time>2011-04-10T10:58:42Z</time>
      </trkpt>
      <trkpt lat="45.90674" lon="6.18067">
        <ele>1118</ele>
        <time>2011-04-10T10:58:43Z</time>
      </trkpt>
      <trkpt lat="45.90675" lon="6.18066">
        <ele>1117</ele>
        <time>2011-04-10T10:58:44Z</time>
      </trkpt>
      <trkpt lat="45.90677" lon="6.18064">
        <ele>1117</ele>
        <time>2011-04-10T10:58:45Z</time>
      </trkpt>
      <trkpt lat="45.90677" lon="6.18061">
        <ele>1116</ele>
        <time>2011-04-10T10:58:46Z</time>
      </trkpt>
      <trkpt lat="45.90678" lon="6.18058">
        <ele>1116</ele>
        <time>2011-04-10T10:58:47Z</time>
      </trkpt>
      <trkpt lat="45.90679" lon="6.18055">
        <ele>1115</ele>
        <time>2011-04-10T10:58:48Z</time>
      </trkpt>
      <trkpt lat="45.90677" lon="6.18051">
        <ele>1115</ele>
        <time>2011-04-10T10:58:49Z</time>
      </trkpt>
      <trkpt lat="45.90677" lon="6.18046">
        <ele>1115</ele>
        <time>2011-04-10T10:58:50Z</time>
      </trkpt>
      <trkpt lat="45.90679" lon="6.18044">
        <ele>1115</ele>
        <time>2011-04-10T10:58:51Z</time>
      </trkpt>
      <trkpt lat="45.9068" lon="6.18042">
        <ele>1116</ele>
        <time>2011-04-10T10:58:52Z</time>
      </trkpt>
      <trkpt lat="45.90682" lon="6.1804">
        <ele>1116</ele>
        <time>2011-04-10T10:58:53Z</time>
      </trkpt>
      <trkpt lat="45.90683" lon="6.18039">
        <ele>1117</ele>
        <time>2011-04-10T10:58:54Z</time>
      </trkpt>
      <trkpt lat="45.90684" lon="6.18033">
        <ele>1119</ele>
        <time>2011-04-10T10:59:14Z</time>
      </trkpt>
      <trkpt lat="45.90685" lon="6.1803">
        <ele>1119</ele>
        <time>2011-04-10T10:59:15Z</time>
      </trkpt>
      <trkpt lat="45.90688" lon="6.18026">
        <ele>1119</ele>
        <time>2011-04-10T10:59:16Z</time>
      </trkpt>
      <trkpt lat="45.90689" lon="6.18024">
        <ele>1119</ele>
        <time>2011-04-10T10:59:17Z</time>
      </trkpt>
      <trkpt lat="45.90693" lon="6.18006">
        <ele>1117</ele>
        <time>2011-04-10T10:59:32Z</time>
      </trkpt>
      <trkpt lat="45.90694" lon="6.18002">
        <ele>1117</ele>
        <time>2011-04-10T10:59:33Z</time>
      </trkpt>
      <trkpt lat="45.90693" lon="6.17996">
        <ele>1117</ele>
        <time>2011-04-10T10:59:34Z</time>
      </trkpt>
      <trkpt lat="45.90696" lon="6.17989">
        <ele>1115</ele>
        <time>2011-04-10T10:59:41Z</time>
      </trkpt>
      <trkpt lat="45.90695" lon="6.17985">
        <ele>1116</ele>
        <time>2011-04-10T10:59:42Z</time>
      </trkpt>
      <trkpt lat="45.90696" lon="6.17982">
        <ele>1115</ele>
        <time>2011-04-10T10:59:43Z</time>
      </trkpt>
      <trkpt lat="45.90698" lon="6.17979">
        <ele>1115</ele>
        <time>2011-04-10T10:59:44Z</time>
      </trkpt>
      <trkpt lat="45.90698" lon="6.17976">
        <ele>1115</ele>
        <time>2011-04-10T10:59:45Z</time>
      </trkpt>
      <trkpt lat="45.90699" lon="6.17973">
        <ele>1114</ele>
        <time>2011-04-10T10:59:46Z</time>
      </trkpt>
      <trkpt lat="45.90702" lon="6.17964">
        <ele>1112</ele>
        <time>2011-04-10T10:59:50Z</time>
      </trkpt>
      <trkpt lat="45.90702" lon="6.1796">
        <ele>1112</ele>
        <time>2011-04-10T10:59:51Z</time>
      </trkpt>
      <trkpt lat="45.90703" lon="6.17956">
        <ele>1114</ele>
        <time>2011-04-10T10:59:52Z</time>
      </trkpt>
      <trkpt lat="45.90705" lon="6.17953">
        <ele>1114</ele>
        <time>2011-04-10T10:59:53Z</time>
      </trkpt>
      <trkpt lat="45.90705" lon="6.17949">
        <ele>1113</ele>
        <time>2011-04-10T10:59:54Z</time>
      </trkpt>
      <trkpt lat="45.90705" lon="6.17947">
        <ele>1113</ele>
        <time>2011-04-10T10:59:55Z</time>
      </trkpt>
      <trkpt lat="45.90703" lon="6.17943">
        <ele>1113</ele>
        <time>2011-04-10T10:59:56Z</time>
      </trkpt>
      <trkpt lat="45.90702" lon="6.1794">
        <ele>1112</ele>
        <time>2011-04-10T10:59:57Z</time>
      </trkpt>
      <trkpt lat="45.90701" lon="6.17936">
        <ele>1112</ele>
        <time>2011-04-10T10:59:58Z</time>
      </trkpt>
      <trkpt lat="45.90699" lon="6.17934">
        <ele>1112</ele>
        <time>2011-04-10T10:59:59Z</time>
      </trkpt>
      <trkpt lat="45.90697" lon="6.1793">
        <ele>1113</ele>
        <time>2011-04-10T11:00:00Z</time>
      </trkpt>
      <trkpt lat="45.90695" lon="6.1792">
        <ele>1113</ele>
        <time>2011-04-10T11:00:03Z</time>
      </trkpt>
      <trkpt lat="45.90696" lon="6.17916">
        <ele>1113</ele>
        <time>2011-04-10T11:00:07Z</time>
      </trkpt>
      <trkpt lat="45.90696" lon="6.17912">
        <ele>1113</ele>
        <time>2011-04-10T11:00:08Z</time>
      </trkpt>
      <trkpt lat="45.90697" lon="6.17909">
        <ele>1113</ele>
        <time>2011-04-10T11:00:09Z</time>
      </trkpt>
      <trkpt lat="45.90696" lon="6.17907">
        <ele>1113</ele>
        <time>2011-04-10T11:00:10Z</time>
      </trkpt>
      <trkpt lat="45.90695" lon="6.17904">
        <ele>1112</ele>
        <time>2011-04-10T11:00:11Z</time>
      </trkpt>
      <trkpt lat="45.90696" lon="6.17903">
        <ele>1112</ele>
        <time>2011-04-10T11:00:12Z</time>
      </trkpt>
      <trkpt lat="45.90697" lon="6.17898">
        <ele>1111</ele>
        <time>2011-04-10T11:00:18Z</time>
      </trkpt>
      <trkpt lat="45.90698" lon="6.17894">
        <ele>1110</ele>
        <time>2011-04-10T11:00:19Z</time>
      </trkpt>
      <trkpt lat="45.90698" lon="6.17889">
        <ele>1109</ele>
        <time>2011-04-10T11:00:20Z</time>
      </trkpt>
      <trkpt lat="45.90699" lon="6.17888">
        <ele>1110</ele>
        <time>2011-04-10T11:00:21Z</time>
      </trkpt>
      <trkpt lat="45.90703" lon="6.1788">
        <ele>1108</ele>
        <time>2011-04-10T11:00:40Z</time>
      </trkpt>
      <trkpt lat="45.90702" lon="6.17874">
        <ele>1108</ele>
        <time>2011-04-10T11:00:41Z</time>
      </trkpt>
      <trkpt lat="45.90701" lon="6.17867">
        <ele>1109</ele>
        <time>2011-04-10T11:00:42Z</time>
      </trkpt>
      <trkpt lat="45.90702" lon="6.1786">
        <ele>1110</ele>
        <time>2011-04-10T11:00:43Z</time>
      </trkpt>
      <trkpt lat="45.907" lon="6.17855">
        <ele>1110</ele>
        <time>2011-04-10T11:00:44Z</time>
      </trkpt>
      <trkpt lat="45.90704" lon="6.17853">
        <ele>1110</ele>
        <time>2011-04-10T11:00:45Z</time>
      </trkpt>
      <trkpt lat="45.90705" lon="6.1785">
        <ele>1109</ele>
        <time>2011-04-10T11:00:46Z</time>
      </trkpt>
      <trkpt lat="45.90704" lon="6.17845">
        <ele>1107</ele>
        <time>2011-04-10T11:00:47Z</time>
      </trkpt>
      <trkpt lat="45.90707" lon="6.17842">
        <ele>1107</ele>
        <time>2011-04-10T11:00:48Z</time>
      </trkpt>
      <trkpt lat="45.90708" lon="6.17839">
        <ele>1106</ele>
        <time>2011-04-10T11:00:49Z</time>
      </trkpt>
      <trkpt lat="45.90708" lon="6.17836">
        <ele>1106</ele>
        <time>2011-04-10T11:00:50Z</time>
      </trkpt>
      <trkpt lat="45.90708" lon="6.17835">
        <ele>1106</ele>
        <time>2011-04-10T11:00:51Z</time>
      </trkpt>
      <trkpt lat="45.90709" lon="6.17832">
        <ele>1105</ele>
        <time>2011-04-10T11:00:52Z</time>
      </trkpt>
      <trkpt lat="45.9071" lon="6.17829">
        <ele>1104</ele>
        <time>2011-04-10T11:00:53Z</time>
      </trkpt>
      <trkpt lat="45.90712" lon="6.17827">
        <ele>1104</ele>
        <time>2011-04-10T11:00:54Z</time>
      </trkpt>
      <trkpt lat="45.90714" lon="6.17825">
        <ele>1104</ele>
        <time>2011-04-10T11:00:55Z</time>
      </trkpt>
      <trkpt lat="45.90715" lon="6.17823">
        <ele>1104</ele>
        <time>2011-04-10T11:00:56Z</time>
      </trkpt>
      <trkpt lat="45.90713" lon="6.17821">
        <ele>1104</ele>
        <time>2011-04-10T11:00:57Z</time>
      </trkpt>
      <trkpt lat="45.90712" lon="6.1782">
        <ele>1104</ele>
        <time>2011-04-10T11:00:58Z</time>
      </trkpt>
      <trkpt lat="45.90713" lon="6.17819">
        <ele>1104</ele>
        <time>2011-04-10T11:00:59Z</time>
      </trkpt>
      <trkpt lat="45.90714" lon="6.17818">
        <ele>1104</ele>
        <time>2011-04-10T11:01:00Z</time>
      </trkpt>
      <trkpt lat="45.90715" lon="6.17817">
        <ele>1105</ele>
        <time>2011-04-10T11:01:02Z</time>
      </trkpt>
      <trkpt lat="45.90717" lon="6.17816">
        <ele>1105</ele>
        <time>2011-04-10T11:01:03Z</time>
      </trkpt>
      <trkpt lat="45.90718" lon="6.17815">
        <ele>1104</ele>
        <time>2011-04-10T11:01:04Z</time>
      </trkpt>
      <trkpt lat="45.90719" lon="6.17813">
        <ele>1104</ele>
        <time>2011-04-10T11:01:05Z</time>
      </trkpt>
      <trkpt lat="45.90718" lon="6.17807">
        <ele>1102</ele>
        <time>2011-04-10T11:01:33Z</time>
      </trkpt>
      <trkpt lat="45.90718" lon="6.17799">
        <ele>1101</ele>
        <time>2011-04-10T11:01:34Z</time>
      </trkpt>
      <trkpt lat="45.90721" lon="6.17795">
        <ele>1101</ele>
        <time>2011-04-10T11:01:35Z</time>
      </trkpt>
      <trkpt lat="45.90724" lon="6.17791">
        <ele>1102</ele>
        <time>2011-04-10T11:01:36Z</time>
      </trkpt>
      <trkpt lat="45.90726" lon="6.17786">
        <ele>1101</ele>
        <time>2011-04-10T11:01:37Z</time>
      </trkpt>
      <trkpt lat="45.90727" lon="6.17781">
        <ele>1101</ele>
        <time>2011-04-10T11:01:38Z</time>
      </trkpt>
      <trkpt lat="45.90728" lon="6.17775">
        <ele>1100</ele>
        <time>2011-04-10T11:01:39Z</time>
      </trkpt>
      <trkpt lat="45.90728" lon="6.17772">
        <ele>1100</ele>
        <time>2011-04-10T11:01:40Z</time>
      </trkpt>
      <trkpt lat="45.90726" lon="6.17769">
        <ele>1100</ele>
        <time>2011-04-10T11:01:41Z</time>
      </trkpt>
      <trkpt lat="45.90727" lon="6.17766">
        <ele>1099</ele>
        <time>2011-04-10T11:01:42Z</time>
      </trkpt>
      <trkpt lat="45.90727" lon="6.17761">
        <ele>1099</ele>
        <time>2011-04-10T11:01:43Z</time>
      </trkpt>
      <trkpt lat="45.90728" lon="6.17755">
        <ele>1098</ele>
        <time>2011-04-10T11:01:48Z</time>
      </trkpt>
      <trkpt lat="45.90728" lon="6.17752">
        <ele>1098</ele>
        <time>2011-04-10T11:01:49Z</time>
      </trkpt>
      <trkpt lat="45.90731" lon="6.17748">
        <ele>1098</ele>
        <time>2011-04-10T11:01:50Z</time>
      </trkpt>
      <trkpt lat="45.90732" lon="6.17747">
        <ele>1098</ele>
        <time>2011-04-10T11:01:51Z</time>
      </trkpt>
      <trkpt lat="45.90731" lon="6.17742">
        <ele>1097</ele>
        <time>2011-04-10T11:01:52Z</time>
      </trkpt>
      <trkpt lat="45.90732" lon="6.1774">
        <ele>1097</ele>
        <time>2011-04-10T11:01:53Z</time>
      </trkpt>
      <trkpt lat="45.90732" lon="6.17738">
        <ele>1096</ele>
        <time>2011-04-10T11:01:54Z</time>
      </trkpt>
      <trkpt lat="45.90733" lon="6.17737">
        <ele>1095</ele>
        <time>2011-04-10T11:01:55Z</time>
      </trkpt>
      <trkpt lat="45.90734" lon="6.17734">
        <ele>1096</ele>
        <time>2011-04-10T11:01:56Z</time>
      </trkpt>
      <trkpt lat="45.90735" lon="6.17732">
        <ele>1095</ele>
        <time>2011-04-10T11:01:57Z</time>
      </trkpt>
      <trkpt lat="45.90735" lon="6.17729">
        <ele>1095</ele>
        <time>2011-04-10T11:01:58Z</time>
      </trkpt>
      <trkpt lat="45.90737" lon="6.17725">
        <ele>1094</ele>
        <time>2011-04-10T11:01:59Z</time>
      </trkpt>
      <trkpt lat="45.90738" lon="6.17722">
        <ele>1094</ele>
        <time>2011-04-10T11:02:00Z</time>
      </trkpt>
      <trkpt lat="45.90739" lon="6.17721">
        <ele>1094</ele>
        <time>2011-04-10T11:02:01Z</time>
      </trkpt>
      <trkpt lat="45.9074" lon="6.17719">
        <ele>1093</ele>
        <time>2011-04-10T11:02:02Z</time>
      </trkpt>
      <trkpt lat="45.9074" lon="6.17717">
        <ele>1093</ele>
        <time>2011-04-10T11:02:03Z</time>
      </trkpt>
      <trkpt lat="45.90738" lon="6.17715">
        <ele>1093</ele>
        <time>2011-04-10T11:02:04Z</time>
      </trkpt>
      <trkpt lat="45.90739" lon="6.17713">
        <ele>1093</ele>
        <time>2011-04-10T11:02:05Z</time>
      </trkpt>
      <trkpt lat="45.90739" lon="6.1771">
        <ele>1093</ele>
        <time>2011-04-10T11:02:06Z</time>
      </trkpt>
      <trkpt lat="45.90738" lon="6.17708">
        <ele>1093</ele>
        <time>2011-04-10T11:02:07Z</time>
      </trkpt>
      <trkpt lat="45.90738" lon="6.17705">
        <ele>1093</ele>
        <time>2011-04-10T11:02:08Z</time>
      </trkpt>
      <trkpt lat="45.90737" lon="6.17705">
        <ele>1092</ele>
        <time>2011-04-10T11:02:09Z</time>
      </trkpt>
      <trkpt lat="45.90737" lon="6.17703">
        <ele>1091</ele>
        <time>2011-04-10T11:02:10Z</time>
      </trkpt>
      <trkpt lat="45.90739" lon="6.17699">
        <ele>1092</ele>
        <time>2011-04-10T11:02:12Z</time>
      </trkpt>
      <trkpt lat="45.90739" lon="6.17697">
        <ele>1091</ele>
        <time>2011-04-10T11:02:13Z</time>
      </trkpt>
      <trkpt lat="45.90738" lon="6.17695">
        <ele>1089</ele>
        <time>2011-04-10T11:02:14Z</time>
      </trkpt>
      <trkpt lat="45.90739" lon="6.17694">
        <ele>1089</ele>
        <time>2011-04-10T11:02:15Z</time>
      </trkpt>
      <trkpt lat="45.90738" lon="6.17693">
        <ele>1089</ele>
        <time>2011-04-10T11:02:16Z</time>
      </trkpt>
      <trkpt lat="45.90739" lon="6.17693">
        <ele>1089</ele>
        <time>2011-04-10T11:02:17Z</time>
      </trkpt>
      <trkpt lat="45.90736" lon="6.17692">
        <ele>1089</ele>
        <time>2011-04-10T11:02:18Z</time>
      </trkpt>
      <trkpt lat="45.90735" lon="6.17691">
        <ele>1088</ele>
        <time>2011-04-10T11:02:19Z</time>
      </trkpt>
      <trkpt lat="45.90735" lon="6.17687">
        <ele>1087</ele>
        <time>2011-04-10T11:02:20Z</time>
      </trkpt>
      <trkpt lat="45.90735" lon="6.17685">
        <ele>1087</ele>
        <time>2011-04-10T11:02:21Z</time>
      </trkpt>
      <trkpt lat="45.90736" lon="6.17684">
        <ele>1087</ele>
        <time>2011-04-10T11:02:22Z</time>
      </trkpt>
      <trkpt lat="45.90737" lon="6.17683">
        <ele>1087</ele>
        <time>2011-04-10T11:02:23Z</time>
      </trkpt>
      <trkpt lat="45.90737" lon="6.17683">
        <ele>1086</ele>
        <time>2011-04-10T11:02:24Z</time>
      </trkpt>
      <trkpt lat="45.90737" lon="6.1768">
        <ele>1086</ele>
        <time>2011-04-10T11:02:25Z</time>
      </trkpt>
      <trkpt lat="45.90737" lon="6.17681">
        <ele>1085</ele>
        <time>2011-04-10T11:02:26Z</time>
      </trkpt>
      <trkpt lat="45.90738" lon="6.1768">
        <ele>1085</ele>
        <time>2011-04-10T11:02:27Z</time>
      </trkpt>
      <trkpt lat="45.9074" lon="6.1768">
        <ele>1084</ele>
        <time>2011-04-10T11:02:28Z</time>
      </trkpt>
      <trkpt lat="45.90741" lon="6.17677">
        <ele>1084</ele>
        <time>2011-04-10T11:02:29Z</time>
      </trkpt>
      <trkpt lat="45.90742" lon="6.17676">
        <ele>1084</ele>
        <time>2011-04-10T11:02:30Z</time>
      </trkpt>
      <trkpt lat="45.90743" lon="6.17675">
        <ele>1083</ele>
        <time>2011-04-10T11:02:31Z</time>
      </trkpt>
      <trkpt lat="45.90742" lon="6.17675">
        <ele>1083</ele>
        <time>2011-04-10T11:02:32Z</time>
      </trkpt>
      <trkpt lat="45.90743" lon="6.17675">
        <ele>1082</ele>
        <time>2011-04-10T11:02:33Z</time>
      </trkpt>
      <trkpt lat="45.90745" lon="6.17673">
        <ele>1081</ele>
        <time>2011-04-10T11:02:34Z</time>
      </trkpt>
      <trkpt lat="45.90745" lon="6.17672">
        <ele>1081</ele>
        <time>2011-04-10T11:02:35Z</time>
      </trkpt>
      <trkpt lat="45.90745" lon="6.17669">
        <ele>1081</ele>
        <time>2011-04-10T11:02:36Z</time>
      </trkpt>
      <trkpt lat="45.90746" lon="6.17668">
        <ele>1080</ele>
        <time>2011-04-10T11:02:37Z</time>
      </trkpt>
      <trkpt lat="45.90747" lon="6.17661">
        <ele>1078</ele>
        <time>2011-04-10T11:02:58Z</time>
      </trkpt>
      <trkpt lat="45.90748" lon="6.17655">
        <ele>1078</ele>
        <time>2011-04-10T11:02:59Z</time>
      </trkpt>
      <trkpt lat="45.90749" lon="6.17651">
        <ele>1077</ele>
        <time>2011-04-10T11:03:00Z</time>
      </trkpt>
      <trkpt lat="45.9075" lon="6.17645">
        <ele>1076</ele>
        <time>2011-04-10T11:03:01Z</time>
      </trkpt>
      <trkpt lat="45.90752" lon="6.17628">
        <ele>1075</ele>
        <time>2011-04-10T11:03:30Z</time>
      </trkpt>
      <trkpt lat="45.90757" lon="6.17622">
        <ele>1076</ele>
        <time>2011-04-10T11:03:31Z</time>
      </trkpt>
      <trkpt lat="45.90757" lon="6.17616">
        <ele>1075</ele>
        <time>2011-04-10T11:03:32Z</time>
      </trkpt>
      <trkpt lat="45.90758" lon="6.17614">
        <ele>1075</ele>
        <time>2011-04-10T11:03:33Z</time>
      </trkpt>
      <trkpt lat="45.9076" lon="6.17608">
        <ele>1075</ele>
        <time>2011-04-10T11:03:34Z</time>
      </trkpt>
      <trkpt lat="45.90761" lon="6.17602">
        <ele>1075</ele>
        <time>2011-04-10T11:03:35Z</time>
      </trkpt>
      <trkpt lat="45.90761" lon="6.17595">
        <ele>1075</ele>
        <time>2011-04-10T11:03:36Z</time>
      </trkpt>
      <trkpt lat="45.90758" lon="6.17591">
        <ele>1075</ele>
        <time>2011-04-10T11:03:37Z</time>
      </trkpt>
      <trkpt lat="45.9076" lon="6.17588">
        <ele>1075</ele>
        <time>2011-04-10T11:03:38Z</time>
      </trkpt>
      <trkpt lat="45.90761" lon="6.17584">
        <ele>1075</ele>
        <time>2011-04-10T11:03:39Z</time>
      </trkpt>
      <trkpt lat="45.90762" lon="6.17581">
        <ele>1075</ele>
        <time>2011-04-10T11:03:40Z</time>
      </trkpt>
      <trkpt lat="45.90764" lon="6.17579">
        <ele>1074</ele>
        <time>2011-04-10T11:03:41Z</time>
      </trkpt>
      <trkpt lat="45.90762" lon="6.17576">
        <ele>1075</ele>
        <time>2011-04-10T11:03:42Z</time>
      </trkpt>
      <trkpt lat="45.90762" lon="6.17573">
        <ele>1074</ele>
        <time>2011-04-10T11:03:43Z</time>
      </trkpt>
      <trkpt lat="45.90766" lon="6.1757">
        <ele>1073</ele>
        <time>2011-04-10T11:03:44Z</time>
      </trkpt>
      <trkpt lat="45.90769" lon="6.17566">
        <ele>1073</ele>
        <time>2011-04-10T11:03:45Z</time>
      </trkpt>
      <trkpt lat="45.90771" lon="6.17562">
        <ele>1072</ele>
        <time>2011-04-10T11:03:46Z</time>
      </trkpt>
      <trkpt lat="45.90772" lon="6.17559">
        <ele>1072</ele>
        <time>2011-04-10T11:03:47Z</time>
      </trkpt>
      <trkpt lat="45.90772" lon="6.17553">
        <ele>1069</ele>
        <time>2011-04-10T11:03:52Z</time>
      </trkpt>
      <trkpt lat="45.90774" lon="6.17548">
        <ele>1067</ele>
        <time>2011-04-10T11:03:53Z</time>
      </trkpt>
      <trkpt lat="45.90774" lon="6.17544">
        <ele>1067</ele>
        <time>2011-04-10T11:03:54Z</time>
      </trkpt>
      <trkpt lat="45.90772" lon="6.17543">
        <ele>1067</ele>
        <time>2011-04-10T11:03:55Z</time>
      </trkpt>
      <trkpt lat="45.9077" lon="6.17541">
        <ele>1066</ele>
        <time>2011-04-10T11:03:56Z</time>
      </trkpt>
      <trkpt lat="45.90768" lon="6.1754">
        <ele>1065</ele>
        <time>2011-04-10T11:03:57Z</time>
      </trkpt>
      <trkpt lat="45.90769" lon="6.17537">
        <ele>1065</ele>
        <time>2011-04-10T11:03:58Z</time>
      </trkpt>
      <trkpt lat="45.90766" lon="6.17535">
        <ele>1065</ele>
        <time>2011-04-10T11:03:59Z</time>
      </trkpt>
      <trkpt lat="45.90767" lon="6.17534">
        <ele>1063</ele>
        <time>2011-04-10T11:04:00Z</time>
      </trkpt>
      <trkpt lat="45.90769" lon="6.17531">
        <ele>1063</ele>
        <time>2011-04-10T11:04:01Z</time>
      </trkpt>
      <trkpt lat="45.90769" lon="6.17531">
        <ele>1063</ele>
        <time>2011-04-10T11:04:02Z</time>
      </trkpt>
      <trkpt lat="45.90767" lon="6.1753">
        <ele>1063</ele>
        <time>2011-04-10T11:04:03Z</time>
      </trkpt>
      <trkpt lat="45.90767" lon="6.17527">
        <ele>1062</ele>
        <time>2011-04-10T11:04:04Z</time>
      </trkpt>
      <trkpt lat="45.90767" lon="6.17525">
        <ele>1062</ele>
        <time>2011-04-10T11:04:05Z</time>
      </trkpt>
      <trkpt lat="45.90766" lon="6.17524">
        <ele>1062</ele>
        <time>2011-04-10T11:04:06Z</time>
      </trkpt>
      <trkpt lat="45.9077" lon="6.17516">
        <ele>1061</ele>
        <time>2011-04-10T11:04:26Z</time>
      </trkpt>
      <trkpt lat="45.90773" lon="6.17513">
        <ele>1061</ele>
        <time>2011-04-10T11:04:27Z</time>
      </trkpt>
      <trkpt lat="45.90774" lon="6.17509">
        <ele>1060</ele>
        <time>2011-04-10T11:04:28Z</time>
      </trkpt>
      <trkpt lat="45.90776" lon="6.17504">
        <ele>1059</ele>
        <time>2011-04-10T11:04:29Z</time>
      </trkpt>
      <trkpt lat="45.90771" lon="6.175">
        <ele>1058</ele>
        <time>2011-04-10T11:04:30Z</time>
      </trkpt>
      <trkpt lat="45.90773" lon="6.17497">
        <ele>1057</ele>
        <time>2011-04-10T11:04:31Z</time>
      </trkpt>
      <trkpt lat="45.9077" lon="6.17493">
        <ele>1057</ele>
        <time>2011-04-10T11:04:32Z</time>
      </trkpt>
      <trkpt lat="45.90771" lon="6.1749">
        <ele>1057</ele>
        <time>2011-04-10T11:04:33Z</time>
      </trkpt>
      <trkpt lat="45.90771" lon="6.17489">
        <ele>1056</ele>
        <time>2011-04-10T11:04:34Z</time>
      </trkpt>
      <trkpt lat="45.9077" lon="6.17486">
        <ele>1057</ele>
        <time>2011-04-10T11:04:35Z</time>
      </trkpt>
      <trkpt lat="45.90771" lon="6.17485">
        <ele>1056</ele>
        <time>2011-04-10T11:04:36Z</time>
      </trkpt>
      <trkpt lat="45.90771" lon="6.17482">
        <ele>1055</ele>
        <time>2011-04-10T11:04:37Z</time>
      </trkpt>
      <trkpt lat="45.90773" lon="6.1748">
        <ele>1055</ele>
        <time>2011-04-10T11:04:38Z</time>
      </trkpt>
      <trkpt lat="45.90773" lon="6.17479">
        <ele>1055</ele>
        <time>2011-04-10T11:04:39Z</time>
      </trkpt>
      <trkpt lat="45.90772" lon="6.17479">
        <ele>1055</ele>
        <time>2011-04-10T11:04:40Z</time>
      </trkpt>
      <trkpt lat="45.90772" lon="6.17478">
        <ele>1054</ele>
        <time>2011-04-10T11:04:42Z</time>
      </trkpt>
      <trkpt lat="45.90774" lon="6.17476">
        <ele>1055</ele>
        <time>2011-04-10T11:04:43Z</time>
      </trkpt>
      <trkpt lat="45.90772" lon="6.17475">
        <ele>1055</ele>
        <time>2011-04-10T11:04:44Z</time>
      </trkpt>
      <trkpt lat="45.90773" lon="6.17473">
        <ele>1055</ele>
        <time>2011-04-10T11:04:45Z</time>
      </trkpt>
      <trkpt lat="45.90774" lon="6.17472">
        <ele>1055</ele>
        <time>2011-04-10T11:04:46Z</time>
      </trkpt>
      <trkpt lat="45.90774" lon="6.17469">
        <ele>1054</ele>
        <time>2011-04-10T11:04:47Z</time>
      </trkpt>
      <trkpt lat="45.90775" lon="6.17465">
        <ele>1054</ele>
        <time>2011-04-10T11:04:48Z</time>
      </trkpt>
      <trkpt lat="45.90777" lon="6.17464">
        <ele>1054</ele>
        <time>2011-04-10T11:04:49Z</time>
      </trkpt>
      <trkpt lat="45.90776" lon="6.17463">
        <ele>1053</ele>
        <time>2011-04-10T11:04:50Z</time>
      </trkpt>
      <trkpt lat="45.90777" lon="6.17462">
        <ele>1053</ele>
        <time>2011-04-10T11:04:51Z</time>
      </trkpt>
      <trkpt lat="45.90775" lon="6.1746">
        <ele>1052</ele>
        <time>2011-04-10T11:04:52Z</time>
      </trkpt>
      <trkpt lat="45.90775" lon="6.17459">
        <ele>1051</ele>
        <time>2011-04-10T11:04:53Z</time>
      </trkpt>
      <trkpt lat="45.90772" lon="6.17459">
        <ele>1049</ele>
        <time>2011-04-10T11:04:54Z</time>
      </trkpt>
      <trkpt lat="45.90772" lon="6.17455">
        <ele>1049</ele>
        <time>2011-04-10T11:04:55Z</time>
      </trkpt>
      <trkpt lat="45.90772" lon="6.17454">
        <ele>1049</ele>
        <time>2011-04-10T11:04:56Z</time>
      </trkpt>
      <trkpt lat="45.90773" lon="6.17451">
        <ele>1048</ele>
        <time>2011-04-10T11:04:57Z</time>
      </trkpt>
      <trkpt lat="45.90772" lon="6.17449">
        <ele>1048</ele>
        <time>2011-04-10T11:04:58Z</time>
      </trkpt>
      <trkpt lat="45.90773" lon="6.17444">
        <ele>1046</ele>
        <time>2011-04-10T11:05:32Z</time>
      </trkpt>
      <trkpt lat="45.90777" lon="6.17441">
        <ele>1045</ele>
        <time>2011-04-10T11:05:33Z</time>
      </trkpt>
      <trkpt lat="45.90777" lon="6.17435">
        <ele>1044</ele>
        <time>2011-04-10T11:05:34Z</time>
      </trkpt>
      <trkpt lat="45.90777" lon="6.17432">
        <ele>1044</ele>
        <time>2011-04-10T11:05:35Z</time>
      </trkpt>
      <trkpt lat="45.90778" lon="6.1743">
        <ele>1043</ele>
        <time>2011-04-10T11:05:36Z</time>
      </trkpt>
      <trkpt lat="45.90779" lon="6.17429">
        <ele>1043</ele>
        <time>2011-04-10T11:05:37Z</time>
      </trkpt>
      <trkpt lat="45.90781" lon="6.17412">
        <ele>1041</ele>
        <time>2011-04-10T11:06:05Z</time>
      </trkpt>
      <trkpt lat="45.90783" lon="6.17408">
        <ele>1040</ele>
        <time>2011-04-10T11:06:06Z</time>
      </trkpt>
      <trkpt lat="45.90786" lon="6.17404">
        <ele>1041</ele>
        <time>2011-04-10T11:06:07Z</time>
      </trkpt>
      <trkpt lat="45.90789" lon="6.17402">
        <ele>1040</ele>
        <time>2011-04-10T11:06:08Z</time>
      </trkpt>
      <trkpt lat="45.9079" lon="6.174">
        <ele>1039</ele>
        <time>2011-04-10T11:06:09Z</time>
      </trkpt>
      <trkpt lat="45.9079" lon="6.17401">
        <ele>1039</ele>
        <time>2011-04-10T11:06:10Z</time>
      </trkpt>
      <trkpt lat="45.90792" lon="6.17398">
        <ele>1038</ele>
        <time>2011-04-10T11:06:11Z</time>
      </trkpt>
      <trkpt lat="45.90792" lon="6.17397">
        <ele>1037</ele>
        <time>2011-04-10T11:06:12Z</time>
      </trkpt>
      <trkpt lat="45.90793" lon="6.17396">
        <ele>1036</ele>
        <time>2011-04-10T11:06:13Z</time>
      </trkpt>
      <trkpt lat="45.90795" lon="6.17397">
        <ele>1035</ele>
        <time>2011-04-10T11:06:14Z</time>
      </trkpt>
      <trkpt lat="45.90797" lon="6.17393">
        <ele>1032</ele>
        <time>2011-04-10T11:06:48Z</time>
      </trkpt>
      <trkpt lat="45.90799" lon="6.17387">
        <ele>1030</ele>
        <time>2011-04-10T11:06:49Z</time>
      </trkpt>
      <trkpt lat="45.90799" lon="6.17379">
        <ele>1031</ele>
        <time>2011-04-10T11:06:50Z</time>
      </trkpt>
      <trkpt lat="45.90798" lon="6.17376">
        <ele>1031</ele>
        <time>2011-04-10T11:06:51Z</time>
      </trkpt>
      <trkpt lat="45.90798" lon="6.17372">
        <ele>1031</ele>
        <time>2011-04-10T11:06:52Z</time>
      </trkpt>
      <trkpt lat="45.908" lon="6.17368">
        <ele>1031</ele>
        <time>2011-04-10T11:06:53Z</time>
      </trkpt>
      <trkpt lat="45.908" lon="6.17366">
        <ele>1030</ele>
        <time>2011-04-10T11:06:54Z</time>
      </trkpt>
      <trkpt lat="45.908" lon="6.17363">
        <ele>1030</ele>
        <time>2011-04-10T11:06:55Z</time>
      </trkpt>
      <trkpt lat="45.90802" lon="6.1736">
        <ele>1030</ele>
        <time>2011-04-10T11:06:56Z</time>
      </trkpt>
      <trkpt lat="45.90801" lon="6.17358">
        <ele>1029</ele>
        <time>2011-04-10T11:06:57Z</time>
      </trkpt>
      <trkpt lat="45.908" lon="6.17357">
        <ele>1027</ele>
        <time>2011-04-10T11:06:58Z</time>
      </trkpt>
      <trkpt lat="45.908" lon="6.17354">
        <ele>1027</ele>
        <time>2011-04-10T11:06:59Z</time>
      </trkpt>
      <trkpt lat="45.908" lon="6.17353">
        <ele>1027</ele>
        <time>2011-04-10T11:07:00Z</time>
      </trkpt>
      <trkpt lat="45.90801" lon="6.17348">
        <ele>1025</ele>
        <time>2011-04-10T11:07:01Z</time>
      </trkpt>
      <trkpt lat="45.90803" lon="6.17346">
        <ele>1025</ele>
        <time>2011-04-10T11:07:02Z</time>
      </trkpt>
      <trkpt lat="45.90804" lon="6.1734">
        <ele>1023</ele>
        <time>2011-04-10T11:07:04Z</time>
      </trkpt>
      <trkpt lat="45.90803" lon="6.17337">
        <ele>1022</ele>
        <time>2011-04-10T11:07:05Z</time>
      </trkpt>
      <trkpt lat="45.90805" lon="6.17335">
        <ele>1022</ele>
        <time>2011-04-10T11:07:06Z</time>
      </trkpt>
      <trkpt lat="45.90805" lon="6.17334">
        <ele>1022</ele>
        <time>2011-04-10T11:07:07Z</time>
      </trkpt>
      <trkpt lat="45.90806" lon="6.17332">
        <ele>1021</ele>
        <time>2011-04-10T11:07:08Z</time>
      </trkpt>
      <trkpt lat="45.90806" lon="6.17331">
        <ele>1021</ele>
        <time>2011-04-10T11:07:09Z</time>
      </trkpt>
      <trkpt lat="45.90806" lon="6.17328">
        <ele>1021</ele>
        <time>2011-04-10T11:07:10Z</time>
      </trkpt>
      <trkpt lat="45.90806" lon="6.17328">
        <ele>1020</ele>
        <time>2011-04-10T11:07:11Z</time>
      </trkpt>
      <trkpt lat="45.90807" lon="6.17328">
        <ele>1020</ele>
        <time>2011-04-10T11:07:12Z</time>
      </trkpt>
      <trkpt lat="45.90807" lon="6.17325">
        <ele>1021</ele>
        <time>2011-04-10T11:07:13Z</time>
      </trkpt>
      <trkpt lat="45.90807" lon="6.17324">
        <ele>1020</ele>
        <time>2011-04-10T11:07:14Z</time>
      </trkpt>
      <trkpt lat="45.90807" lon="6.17323">
        <ele>1019</ele>
        <time>2011-04-10T11:07:15Z</time>
      </trkpt>
      <trkpt lat="45.90808" lon="6.17319">
        <ele>1018</ele>
        <time>2011-04-10T11:07:16Z</time>
      </trkpt>
      <trkpt lat="45.90808" lon="6.17316">
        <ele>1017</ele>
        <time>2011-04-10T11:07:17Z</time>
      </trkpt>
      <trkpt lat="45.90809" lon="6.17312">
        <ele>1016</ele>
        <time>2011-04-10T11:07:18Z</time>
      </trkpt>
      <trkpt lat="45.9081" lon="6.1731">
        <ele>1016</ele>
        <time>2011-04-10T11:07:19Z</time>
      </trkpt>
      <trkpt lat="45.90812" lon="6.17307">
        <ele>1015</ele>
        <time>2011-04-10T11:07:20Z</time>
      </trkpt>
      <trkpt lat="45.90811" lon="6.17306">
        <ele>1014</ele>
        <time>2011-04-10T11:07:22Z</time>
      </trkpt>
      <trkpt lat="45.90811" lon="6.17305">
        <ele>1013</ele>
        <time>2011-04-10T11:07:23Z</time>
      </trkpt>
      <trkpt lat="45.90811" lon="6.17301">
        <ele>1013</ele>
        <time>2011-04-10T11:07:24Z</time>
      </trkpt>
      <trkpt lat="45.90812" lon="6.17293">
        <ele>1010</ele>
        <time>2011-04-10T11:07:57Z</time>
      </trkpt>
      <trkpt lat="45.90814" lon="6.17289">
        <ele>1009</ele>
        <time>2011-04-10T11:07:58Z</time>
      </trkpt>
      <trkpt lat="45.90814" lon="6.17283">
        <ele>1007</ele>
        <time>2011-04-10T11:07:59Z</time>
      </trkpt>
      <trkpt lat="45.90815" lon="6.17268">
        <ele>1007</ele>
        <time>2011-04-10T11:08:33Z</time>
      </trkpt>
      <trkpt lat="45.90811" lon="6.17256">
        <ele>1004</ele>
        <time>2011-04-10T11:08:34Z</time>
      </trkpt>
      <trkpt lat="45.9081" lon="6.17249">
        <ele>1003</ele>
        <time>2011-04-10T11:08:35Z</time>
      </trkpt>
      <trkpt lat="45.90809" lon="6.17244">
        <ele>1002</ele>
        <time>2011-04-10T11:08:36Z</time>
      </trkpt>
      <trkpt lat="45.90807" lon="6.17239">
        <ele>1002</ele>
        <time>2011-04-10T11:08:37Z</time>
      </trkpt>
      <trkpt lat="45.90804" lon="6.17237">
        <ele>1001</ele>
        <time>2011-04-10T11:08:38Z</time>
      </trkpt>
      <trkpt lat="45.90804" lon="6.17237">
        <ele>1001</ele>
        <time>2011-04-10T11:08:39Z</time>
      </trkpt>
      <trkpt lat="45.90804" lon="6.17235">
        <ele>1001</ele>
        <time>2011-04-10T11:08:40Z</time>
      </trkpt>
      <trkpt lat="45.90802" lon="6.17232">
        <ele>1000</ele>
        <time>2011-04-10T11:08:41Z</time>
      </trkpt>
      <trkpt lat="45.90801" lon="6.17227">
        <ele>1001</ele>
        <time>2011-04-10T11:08:42Z</time>
      </trkpt>
      <trkpt lat="45.908" lon="6.17225">
        <ele>1001</ele>
        <time>2011-04-10T11:08:43Z</time>
      </trkpt>
      <trkpt lat="45.90799" lon="6.17221">
        <ele>1000</ele>
        <time>2011-04-10T11:08:44Z</time>
      </trkpt>
      <trkpt lat="45.90797" lon="6.17219">
        <ele>999</ele>
        <time>2011-04-10T11:08:45Z</time>
      </trkpt>
      <trkpt lat="45.90795" lon="6.17217">
        <ele>1000</ele>
        <time>2011-04-10T11:08:46Z</time>
      </trkpt>
      <trkpt lat="45.90792" lon="6.17214">
        <ele>999</ele>
        <time>2011-04-10T11:08:47Z</time>
      </trkpt>
      <trkpt lat="45.90789" lon="6.17211">
        <ele>999</ele>
        <time>2011-04-10T11:08:48Z</time>
      </trkpt>
      <trkpt lat="45.90789" lon="6.17204">
        <ele>1000</ele>
        <time>2011-04-10T11:08:49Z</time>
      </trkpt>
      <trkpt lat="45.90786" lon="6.172">
        <ele>1000</ele>
        <time>2011-04-10T11:08:50Z</time>
      </trkpt>
      <trkpt lat="45.90786" lon="6.17196">
        <ele>1001</ele>
        <time>2011-04-10T11:08:51Z</time>
      </trkpt>
      <trkpt lat="45.90784" lon="6.17195">
        <ele>1001</ele>
        <time>2011-04-10T11:08:52Z</time>
      </trkpt>
      <trkpt lat="45.90781" lon="6.17189">
        <ele>1001</ele>
        <time>2011-04-10T11:08:55Z</time>
      </trkpt>
      <trkpt lat="45.90779" lon="6.17187">
        <ele>1000</ele>
        <time>2011-04-10T11:08:56Z</time>
      </trkpt>
      <trkpt lat="45.90779" lon="6.17185">
        <ele>1000</ele>
        <time>2011-04-10T11:08:57Z</time>
      </trkpt>
      <trkpt lat="45.90778" lon="6.17185">
        <ele>999</ele>
        <time>2011-04-10T11:08:58Z</time>
      </trkpt>
      <trkpt lat="45.90777" lon="6.17183">
        <ele>999</ele>
        <time>2011-04-10T11:08:59Z</time>
      </trkpt>
      <trkpt lat="45.90775" lon="6.17183">
        <ele>998</ele>
        <time>2011-04-10T11:09:00Z</time>
      </trkpt>
      <trkpt lat="45.90771" lon="6.17181">
        <ele>997</ele>
        <time>2011-04-10T11:09:01Z</time>
      </trkpt>
      <trkpt lat="45.90772" lon="6.17175">
        <ele>996</ele>
        <time>2011-04-10T11:09:03Z</time>
      </trkpt>
      <trkpt lat="45.90771" lon="6.17172">
        <ele>996</ele>
        <time>2011-04-10T11:09:04Z</time>
      </trkpt>
      <trkpt lat="45.90768" lon="6.1717">
        <ele>996</ele>
        <time>2011-04-10T11:09:05Z</time>
      </trkpt>
      <trkpt lat="45.90768" lon="6.17166">
        <ele>996</ele>
        <time>2011-04-10T11:09:06Z</time>
      </trkpt>
      <trkpt lat="45.90767" lon="6.17165">
        <ele>996</ele>
        <time>2011-04-10T11:09:07Z</time>
      </trkpt>
      <trkpt lat="45.90767" lon="6.17161">
        <ele>994</ele>
        <time>2011-04-10T11:09:08Z</time>
      </trkpt>
      <trkpt lat="45.90768" lon="6.1716">
        <ele>993</ele>
        <time>2011-04-10T11:09:09Z</time>
      </trkpt>
      <trkpt lat="45.90765" lon="6.17158">
        <ele>994</ele>
        <time>2011-04-10T11:09:10Z</time>
      </trkpt>
      <trkpt lat="45.90764" lon="6.17158">
        <ele>993</ele>
        <time>2011-04-10T11:09:11Z</time>
      </trkpt>
      <trkpt lat="45.90763" lon="6.17154">
        <ele>994</ele>
        <time>2011-04-10T11:09:12Z</time>
      </trkpt>
      <trkpt lat="45.90763" lon="6.17152">
        <ele>991</ele>
        <time>2011-04-10T11:09:13Z</time>
      </trkpt>
      <trkpt lat="45.90762" lon="6.17152">
        <ele>990</ele>
        <time>2011-04-10T11:09:14Z</time>
      </trkpt>
      <trkpt lat="45.90762" lon="6.17152">
        <ele>990</ele>
        <time>2011-04-10T11:09:15Z</time>
      </trkpt>
      <trkpt lat="45.90763" lon="6.17149">
        <ele>989</ele>
        <time>2011-04-10T11:09:16Z</time>
      </trkpt>
      <trkpt lat="45.90763" lon="6.17147">
        <ele>989</ele>
        <time>2011-04-10T11:09:17Z</time>
      </trkpt>
      <trkpt lat="45.90761" lon="6.17145">
        <ele>989</ele>
        <time>2011-04-10T11:09:18Z</time>
      </trkpt>
      <trkpt lat="45.90761" lon="6.17144">
        <ele>989</ele>
        <time>2011-04-10T11:09:19Z</time>
      </trkpt>
      <trkpt lat="45.90761" lon="6.17143">
        <ele>989</ele>
        <time>2011-04-10T11:09:20Z</time>
      </trkpt>
      <trkpt lat="45.90761" lon="6.17142">
        <ele>989</ele>
        <time>2011-04-10T11:09:21Z</time>
      </trkpt>
      <trkpt lat="45.90761" lon="6.1714">
        <ele>990</ele>
        <time>2011-04-10T11:09:22Z</time>
      </trkpt>
      <trkpt lat="45.9076" lon="6.17138">
        <ele>989</ele>
        <time>2011-04-10T11:09:23Z</time>
      </trkpt>
      <trkpt lat="45.90759" lon="6.17136">
        <ele>989</ele>
        <time>2011-04-10T11:09:24Z</time>
      </trkpt>
      <trkpt lat="45.90759" lon="6.17134">
        <ele>988</ele>
        <time>2011-04-10T11:09:25Z</time>
      </trkpt>
      <trkpt lat="45.90757" lon="6.17132">
        <ele>987</ele>
        <time>2011-04-10T11:09:26Z</time>
      </trkpt>
      <trkpt lat="45.90756" lon="6.17132">
        <ele>987</ele>
        <time>2011-04-10T11:09:27Z</time>
      </trkpt>
      <trkpt lat="45.90754" lon="6.1713">
        <ele>987</ele>
        <time>2011-04-10T11:09:28Z</time>
      </trkpt>
      <trkpt lat="45.90752" lon="6.17129">
        <ele>987</ele>
        <time>2011-04-10T11:09:29Z</time>
      </trkpt>
      <trkpt lat="45.90752" lon="6.17127">
        <ele>986</ele>
        <time>2011-04-10T11:09:30Z</time>
      </trkpt>
      <trkpt lat="45.90749" lon="6.17126">
        <ele>986</ele>
        <time>2011-04-10T11:09:31Z</time>
      </trkpt>
      <trkpt lat="45.90748" lon="6.17125">
        <ele>985</ele>
        <time>2011-04-10T11:09:32Z</time>
      </trkpt>
      <trkpt lat="45.90746" lon="6.17123">
        <ele>984</ele>
        <time>2011-04-10T11:09:33Z</time>
      </trkpt>
      <trkpt lat="45.90743" lon="6.17122">
        <ele>984</ele>
        <time>2011-04-10T11:09:34Z</time>
      </trkpt>
      <trkpt lat="45.90741" lon="6.17122">
        <ele>985</ele>
        <time>2011-04-10T11:09:35Z</time>
      </trkpt>
      <trkpt lat="45.90741" lon="6.17121">
        <ele>985</ele>
        <time>2011-04-10T11:09:36Z</time>
      </trkpt>
      <trkpt lat="45.90739" lon="6.17122">
        <ele>984</ele>
        <time>2011-04-10T11:09:37Z</time>
      </trkpt>
      <trkpt lat="45.90736" lon="6.17121">
        <ele>983</ele>
        <time>2011-04-10T11:09:38Z</time>
      </trkpt>
      <trkpt lat="45.90736" lon="6.17122">
        <ele>983</ele>
        <time>2011-04-10T11:09:39Z</time>
      </trkpt>
      <trkpt lat="45.90736" lon="6.17119">
        <ele>983</ele>
        <time>2011-04-10T11:09:40Z</time>
      </trkpt>
      <trkpt lat="45.90736" lon="6.17118">
        <ele>983</ele>
        <time>2011-04-10T11:09:41Z</time>
      </trkpt>
      <trkpt lat="45.90735" lon="6.17117">
        <ele>983</ele>
        <time>2011-04-10T11:09:42Z</time>
      </trkpt>
      <trkpt lat="45.90735" lon="6.17116">
        <ele>982</ele>
        <time>2011-04-10T11:09:43Z</time>
      </trkpt>
      <trkpt lat="45.90736" lon="6.17114">
        <ele>982</ele>
        <time>2011-04-10T11:09:44Z</time>
      </trkpt>
      <trkpt lat="45.90736" lon="6.17114">
        <ele>982</ele>
        <time>2011-04-10T11:09:45Z</time>
      </trkpt>
      <trkpt lat="45.90735" lon="6.17113">
        <ele>981</ele>
        <time>2011-04-10T11:09:46Z</time>
      </trkpt>
      <trkpt lat="45.90735" lon="6.17114">
        <ele>980</ele>
        <time>2011-04-10T11:09:47Z</time>
      </trkpt>
      <trkpt lat="45.90734" lon="6.17112">
        <ele>980</ele>
        <time>2011-04-10T11:09:48Z</time>
      </trkpt>
      <trkpt lat="45.90732" lon="6.17111">
        <ele>979</ele>
        <time>2011-04-10T11:09:49Z</time>
      </trkpt>
      <trkpt lat="45.90731" lon="6.17109">
        <ele>979</ele>
        <time>2011-04-10T11:09:50Z</time>
      </trkpt>
      <trkpt lat="45.90731" lon="6.17109">
        <ele>979</ele>
        <time>2011-04-10T11:09:51Z</time>
      </trkpt>
      <trkpt lat="45.9073" lon="6.17107">
        <ele>978</ele>
        <time>2011-04-10T11:09:52Z</time>
      </trkpt>
      <trkpt lat="45.90731" lon="6.17107">
        <ele>978</ele>
        <time>2011-04-10T11:09:53Z</time>
      </trkpt>
      <trkpt lat="45.90732" lon="6.17108">
        <ele>977</ele>
        <time>2011-04-10T11:09:54Z</time>
      </trkpt>
      <trkpt lat="45.90732" lon="6.17107">
        <ele>977</ele>
        <time>2011-04-10T11:09:55Z</time>
      </trkpt>
      <trkpt lat="45.90732" lon="6.17106">
        <ele>976</ele>
        <time>2011-04-10T11:09:57Z</time>
      </trkpt>
      <trkpt lat="45.90732" lon="6.17106">
        <ele>976</ele>
        <time>2011-04-10T11:09:58Z</time>
      </trkpt>
      <trkpt lat="45.90732" lon="6.17107">
        <ele>976</ele>
        <time>2011-04-10T11:09:59Z</time>
      </trkpt>
      <trkpt lat="45.90732" lon="6.17106">
        <ele>975</ele>
        <time>2011-04-10T11:10:00Z</time>
      </trkpt>
      <trkpt lat="45.90732" lon="6.17106">
        <ele>975</ele>
        <time>2011-04-10T11:10:01Z</time>
      </trkpt>
      <trkpt lat="45.90731" lon="6.17105">
        <ele>975</ele>
        <time>2011-04-10T11:10:02Z</time>
      </trkpt>
      <trkpt lat="45.90731" lon="6.17102">
        <ele>974</ele>
        <time>2011-04-10T11:10:04Z</time>
      </trkpt>
      <trkpt lat="45.90731" lon="6.17101">
        <ele>973</ele>
        <time>2011-04-10T11:10:05Z</time>
      </trkpt>
      <trkpt lat="45.90731" lon="6.17101">
        <ele>973</ele>
        <time>2011-04-10T11:10:06Z</time>
      </trkpt>
      <trkpt lat="45.90731" lon="6.171">
        <ele>973</ele>
        <time>2011-04-10T11:10:07Z</time>
      </trkpt>
      <trkpt lat="45.9073" lon="6.17099">
        <ele>972</ele>
        <time>2011-04-10T11:10:08Z</time>
      </trkpt>
      <trkpt lat="45.90729" lon="6.17098">
        <ele>973</ele>
        <time>2011-04-10T11:10:09Z</time>
      </trkpt>
      <trkpt lat="45.90728" lon="6.17098">
        <ele>973</ele>
        <time>2011-04-10T11:10:10Z</time>
      </trkpt>
      <trkpt lat="45.90728" lon="6.17095">
        <ele>971</ele>
        <time>2011-04-10T11:10:12Z</time>
      </trkpt>
      <trkpt lat="45.90727" lon="6.17095">
        <ele>971</ele>
        <time>2011-04-10T11:10:13Z</time>
      </trkpt>
      <trkpt lat="45.90726" lon="6.17094">
        <ele>970</ele>
        <time>2011-04-10T11:10:15Z</time>
      </trkpt>
      <trkpt lat="45.90725" lon="6.17092">
        <ele>969</ele>
        <time>2011-04-10T11:10:16Z</time>
      </trkpt>
      <trkpt lat="45.90723" lon="6.17091">
        <ele>969</ele>
        <time>2011-04-10T11:10:17Z</time>
      </trkpt>
      <trkpt lat="45.90724" lon="6.17088">
        <ele>969</ele>
        <time>2011-04-10T11:10:19Z</time>
      </trkpt>
      <trkpt lat="45.90721" lon="6.17085">
        <ele>968</ele>
        <time>2011-04-10T11:10:20Z</time>
      </trkpt>
      <trkpt lat="45.90721" lon="6.17082">
        <ele>968</ele>
        <time>2011-04-10T11:10:21Z</time>
      </trkpt>
      <trkpt lat="45.90719" lon="6.1708">
        <ele>967</ele>
        <time>2011-04-10T11:10:22Z</time>
      </trkpt>
      <trkpt lat="45.9072" lon="6.17078">
        <ele>967</ele>
        <time>2011-04-10T11:10:23Z</time>
      </trkpt>
      <trkpt lat="45.90718" lon="6.17079">
        <ele>966</ele>
        <time>2011-04-10T11:10:24Z</time>
      </trkpt>
      <trkpt lat="45.90718" lon="6.17077">
        <ele>965</ele>
        <time>2011-04-10T11:10:25Z</time>
      </trkpt>
      <trkpt lat="45.90716" lon="6.17073">
        <ele>965</ele>
        <time>2011-04-10T11:10:26Z</time>
      </trkpt>
      <trkpt lat="45.90715" lon="6.17074">
        <ele>965</ele>
        <time>2011-04-10T11:10:27Z</time>
      </trkpt>
      <trkpt lat="45.9071" lon="6.17077">
        <ele>965</ele>
        <time>2011-04-10T11:10:28Z</time>
      </trkpt>
      <trkpt lat="45.90709" lon="6.17076">
        <ele>963</ele>
        <time>2011-04-10T11:10:29Z</time>
      </trkpt>
      <trkpt lat="45.90709" lon="6.17075">
        <ele>964</ele>
        <time>2011-04-10T11:10:30Z</time>
      </trkpt>
      <trkpt lat="45.90708" lon="6.17075">
        <ele>964</ele>
        <time>2011-04-10T11:10:31Z</time>
      </trkpt>
      <trkpt lat="45.90706" lon="6.17075">
        <ele>963</ele>
        <time>2011-04-10T11:10:32Z</time>
      </trkpt>
      <trkpt lat="45.90706" lon="6.17075">
        <ele>963</ele>
        <time>2011-04-10T11:10:33Z</time>
      </trkpt>
      <trkpt lat="45.90705" lon="6.17075">
        <ele>963</ele>
        <time>2011-04-10T11:10:34Z</time>
      </trkpt>
      <trkpt lat="45.90703" lon="6.17077">
        <ele>962</ele>
        <time>2011-04-10T11:10:35Z</time>
      </trkpt>
      <trkpt lat="45.90703" lon="6.1708">
        <ele>962</ele>
        <time>2011-04-10T11:10:36Z</time>
      </trkpt>
      <trkpt lat="45.90702" lon="6.17079">
        <ele>962</ele>
        <time>2011-04-10T11:10:37Z</time>
      </trkpt>
      <trkpt lat="45.90701" lon="6.17078">
        <ele>961</ele>
        <time>2011-04-10T11:10:38Z</time>
      </trkpt>
      <trkpt lat="45.907" lon="6.17078">
        <ele>960</ele>
        <time>2011-04-10T11:10:39Z</time>
      </trkpt>
      <trkpt lat="45.90698" lon="6.17078">
        <ele>960</ele>
        <time>2011-04-10T11:10:40Z</time>
      </trkpt>
      <trkpt lat="45.90699" lon="6.17078">
        <ele>959</ele>
        <time>2011-04-10T11:10:41Z</time>
      </trkpt>
      <trkpt lat="45.90698" lon="6.17077">
        <ele>959</ele>
        <time>2011-04-10T11:10:42Z</time>
      </trkpt>
      <trkpt lat="45.90698" lon="6.17075">
        <ele>958</ele>
        <time>2011-04-10T11:10:43Z</time>
      </trkpt>
      <trkpt lat="45.90697" lon="6.17073">
        <ele>958</ele>
        <time>2011-04-10T11:10:44Z</time>
      </trkpt>
      <trkpt lat="45.90697" lon="6.17071">
        <ele>958</ele>
        <time>2011-04-10T11:10:45Z</time>
      </trkpt>
      <trkpt lat="45.90696" lon="6.17069">
        <ele>958</ele>
        <time>2011-04-10T11:10:46Z</time>
      </trkpt>
      <trkpt lat="45.90696" lon="6.17066">
        <ele>957</ele>
        <time>2011-04-10T11:10:47Z</time>
      </trkpt>
      <trkpt lat="45.90695" lon="6.17065">
        <ele>957</ele>
        <time>2011-04-10T11:10:48Z</time>
      </trkpt>
      <trkpt lat="45.90694" lon="6.17064">
        <ele>956</ele>
        <time>2011-04-10T11:10:49Z</time>
      </trkpt>
      <trkpt lat="45.90693" lon="6.17064">
        <ele>956</ele>
        <time>2011-04-10T11:10:50Z</time>
      </trkpt>
      <trkpt lat="45.90694" lon="6.17063">
        <ele>955</ele>
        <time>2011-04-10T11:10:51Z</time>
      </trkpt>
      <trkpt lat="45.90694" lon="6.17063">
        <ele>955</ele>
        <time>2011-04-10T11:10:52Z</time>
      </trkpt>
      <trkpt lat="45.90695" lon="6.17064">
        <ele>954</ele>
        <time>2011-04-10T11:10:53Z</time>
      </trkpt>
      <trkpt lat="45.90696" lon="6.17063">
        <ele>953</ele>
        <time>2011-04-10T11:10:54Z</time>
      </trkpt>
      <trkpt lat="45.90696" lon="6.17061">
        <ele>953</ele>
        <time>2011-04-10T11:10:55Z</time>
      </trkpt>
      <trkpt lat="45.90697" lon="6.17063">
        <ele>952</ele>
        <time>2011-04-10T11:10:56Z</time>
      </trkpt>
      <trkpt lat="45.90699" lon="6.17062">
        <ele>952</ele>
        <time>2011-04-10T11:10:57Z</time>
      </trkpt>
      <trkpt lat="45.90699" lon="6.17061">
        <ele>952</ele>
        <time>2011-04-10T11:10:58Z</time>
      </trkpt>
      <trkpt lat="45.90701" lon="6.1706">
        <ele>952</ele>
        <time>2011-04-10T11:10:59Z</time>
      </trkpt>
      <trkpt lat="45.90701" lon="6.17058">
        <ele>951</ele>
        <time>2011-04-10T11:11:00Z</time>
      </trkpt>
      <trkpt lat="45.90702" lon="6.17059">
        <ele>951</ele>
        <time>2011-04-10T11:11:01Z</time>
      </trkpt>
      <trkpt lat="45.90703" lon="6.1706">
        <ele>950</ele>
        <time>2011-04-10T11:11:02Z</time>
      </trkpt>
      <trkpt lat="45.90704" lon="6.17062">
        <ele>951</ele>
        <time>2011-04-10T11:11:03Z</time>
      </trkpt>
      <trkpt lat="45.90704" lon="6.17063">
        <ele>951</ele>
        <time>2011-04-10T11:11:04Z</time>
      </trkpt>
      <trkpt lat="45.90705" lon="6.17064">
        <ele>950</ele>
        <time>2011-04-10T11:11:05Z</time>
      </trkpt>
      <trkpt lat="45.90707" lon="6.17063">
        <ele>950</ele>
        <time>2011-04-10T11:11:06Z</time>
      </trkpt>
      <trkpt lat="45.90709" lon="6.17063">
        <ele>950</ele>
        <time>2011-04-10T11:11:07Z</time>
      </trkpt>
      <trkpt lat="45.9071" lon="6.17062">
        <ele>949</ele>
        <time>2011-04-10T11:11:08Z</time>
      </trkpt>
      <trkpt lat="45.90711" lon="6.17062">
        <ele>948</ele>
        <time>2011-04-10T11:11:09Z</time>
      </trkpt>
      <trkpt lat="45.90711" lon="6.1706">
        <ele>947</ele>
        <time>2011-04-10T11:11:10Z</time>
      </trkpt>
      <trkpt lat="45.90711" lon="6.1706">
        <ele>947</ele>
        <time>2011-04-10T11:11:11Z</time>
      </trkpt>
      <trkpt lat="45.90711" lon="6.17061">
        <ele>947</ele>
        <time>2011-04-10T11:11:12Z</time>
      </trkpt>
      <trkpt lat="45.90711" lon="6.1706">
        <ele>947</ele>
        <time>2011-04-10T11:11:13Z</time>
      </trkpt>
      <trkpt lat="45.90709" lon="6.1706">
        <ele>946</ele>
        <time>2011-04-10T11:11:14Z</time>
      </trkpt>
      <trkpt lat="45.90706" lon="6.17058">
        <ele>946</ele>
        <time>2011-04-10T11:11:15Z</time>
      </trkpt>
      <trkpt lat="45.90706" lon="6.17057">
        <ele>947</ele>
        <time>2011-04-10T11:11:16Z</time>
      </trkpt>
      <trkpt lat="45.90705" lon="6.17057">
        <ele>947</ele>
        <time>2011-04-10T11:11:17Z</time>
      </trkpt>
      <trkpt lat="45.90705" lon="6.17058">
        <ele>948</ele>
        <time>2011-04-10T11:11:18Z</time>
      </trkpt>
      <trkpt lat="45.90703" lon="6.17058">
        <ele>948</ele>
        <time>2011-04-10T11:11:19Z</time>
      </trkpt>
      <trkpt lat="45.90701" lon="6.17056">
        <ele>946</ele>
        <time>2011-04-10T11:11:20Z</time>
      </trkpt>
      <trkpt lat="45.90702" lon="6.17054">
        <ele>946</ele>
        <time>2011-04-10T11:11:21Z</time>
      </trkpt>
      <trkpt lat="45.90701" lon="6.17052">
        <ele>946</ele>
        <time>2011-04-10T11:11:22Z</time>
      </trkpt>
      <trkpt lat="45.90701" lon="6.17051">
        <ele>945</ele>
        <time>2011-04-10T11:11:23Z</time>
      </trkpt>
      <trkpt lat="45.90701" lon="6.1705">
        <ele>945</ele>
        <time>2011-04-10T11:11:24Z</time>
      </trkpt>
      <trkpt lat="45.90698" lon="6.17051">
        <ele>945</ele>
        <time>2011-04-10T11:11:25Z</time>
      </trkpt>
      <trkpt lat="45.90697" lon="6.1705">
        <ele>944</ele>
        <time>2011-04-10T11:11:26Z</time>
      </trkpt>
      <trkpt lat="45.90695" lon="6.1705">
        <ele>944</ele>
        <time>2011-04-10T11:11:27Z</time>
      </trkpt>
      <trkpt lat="45.90695" lon="6.17047">
        <ele>944</ele>
        <time>2011-04-10T11:11:28Z</time>
      </trkpt>
      <trkpt lat="45.90693" lon="6.17045">
        <ele>944</ele>
        <time>2011-04-10T11:11:29Z</time>
      </trkpt>
      <trkpt lat="45.90692" lon="6.17044">
        <ele>943</ele>
        <time>2011-04-10T11:11:30Z</time>
      </trkpt>
      <trkpt lat="45.90692" lon="6.17043">
        <ele>943</ele>
        <time>2011-04-10T11:11:31Z</time>
      </trkpt>
      <trkpt lat="45.90691" lon="6.17043">
        <ele>943</ele>
        <time>2011-04-10T11:11:32Z</time>
      </trkpt>
      <trkpt lat="45.90691" lon="6.17043">
        <ele>943</ele>
        <time>2011-04-10T11:11:33Z</time>
      </trkpt>
      <trkpt lat="45.9069" lon="6.17043">
        <ele>943</ele>
        <time>2011-04-10T11:11:34Z</time>
      </trkpt>
      <trkpt lat="45.90691" lon="6.17044">
        <ele>942</ele>
        <time>2011-04-10T11:11:35Z</time>
      </trkpt>
      <trkpt lat="45.9069" lon="6.17044">
        <ele>942</ele>
        <time>2011-04-10T11:11:36Z</time>
      </trkpt>
      <trkpt lat="45.90689" lon="6.17043">
        <ele>942</ele>
        <time>2011-04-10T11:11:37Z</time>
      </trkpt>
      <trkpt lat="45.90688" lon="6.17042">
        <ele>942</ele>
        <time>2011-04-10T11:11:38Z</time>
      </trkpt>
      <trkpt lat="45.90687" lon="6.17042">
        <ele>942</ele>
        <time>2011-04-10T11:11:39Z</time>
      </trkpt>
      <trkpt lat="45.90684" lon="6.1704">
        <ele>941</ele>
        <time>2011-04-10T11:11:41Z</time>
      </trkpt>
      <trkpt lat="45.90685" lon="6.1704">
        <ele>941</ele>
        <time>2011-04-10T11:11:42Z</time>
      </trkpt>
      <trkpt lat="45.90684" lon="6.17041">
        <ele>940</ele>
        <time>2011-04-10T11:11:43Z</time>
      </trkpt>
      <trkpt lat="45.90683" lon="6.17038">
        <ele>939</ele>
        <time>2011-04-10T11:11:45Z</time>
      </trkpt>
      <trkpt lat="45.90685" lon="6.17037">
        <ele>939</ele>
        <time>2011-04-10T11:11:47Z</time>
      </trkpt>
      <trkpt lat="45.90689" lon="6.17038">
        <ele>934</ele>
        <time>2011-04-10T11:13:41Z</time>
      </trkpt>
      <trkpt lat="45.90689" lon="6.17032">
        <ele>934</ele>
        <time>2011-04-10T11:13:42Z</time>
      </trkpt>
      <trkpt lat="45.9069" lon="6.17025">
        <ele>933</ele>
        <time>2011-04-10T11:13:43Z</time>
      </trkpt>
      <trkpt lat="45.90691" lon="6.17025">
        <ele>932</ele>
        <time>2011-04-10T11:13:44Z</time>
      </trkpt>
      <trkpt lat="45.90689" lon="6.17019">
        <ele>933</ele>
        <time>2011-04-10T11:13:45Z</time>
      </trkpt>
      <trkpt lat="45.9069" lon="6.17019">
        <ele>933</ele>
        <time>2011-04-10T11:13:46Z</time>
      </trkpt>
      <trkpt lat="45.90693" lon="6.17016">
        <ele>933</ele>
        <time>2011-04-10T11:13:47Z</time>
      </trkpt>
      <trkpt lat="45.90692" lon="6.17014">
        <ele>933</ele>
        <time>2011-04-10T11:13:48Z</time>
      </trkpt>
      <trkpt lat="45.9069" lon="6.17008">
        <ele>932</ele>
        <time>2011-04-10T11:13:49Z</time>
      </trkpt>
      <trkpt lat="45.90689" lon="6.17004">
        <ele>931</ele>
        <time>2011-04-10T11:13:50Z</time>
      </trkpt>
      <trkpt lat="45.90689" lon="6.17004">
        <ele>931</ele>
        <time>2011-04-10T11:13:51Z</time>
      </trkpt>
      <trkpt lat="45.9069" lon="6.17003">
        <ele>930</ele>
        <time>2011-04-10T11:13:52Z</time>
      </trkpt>
      <trkpt lat="45.90689" lon="6.16999">
        <ele>929</ele>
        <time>2011-04-10T11:13:55Z</time>
      </trkpt>
      <trkpt lat="45.90688" lon="6.16996">
        <ele>928</ele>
        <time>2011-04-10T11:13:56Z</time>
      </trkpt>
      <trkpt lat="45.90688" lon="6.16997">
        <ele>928</ele>
        <time>2011-04-10T11:13:57Z</time>
      </trkpt>
      <trkpt lat="45.90687" lon="6.16995">
        <ele>928</ele>
        <time>2011-04-10T11:13:58Z</time>
      </trkpt>
      <trkpt lat="45.90687" lon="6.16994">
        <ele>927</ele>
        <time>2011-04-10T11:13:59Z</time>
      </trkpt>
      <trkpt lat="45.90685" lon="6.16991">
        <ele>926</ele>
        <time>2011-04-10T11:14:00Z</time>
      </trkpt>
      <trkpt lat="45.90684" lon="6.16989">
        <ele>925</ele>
        <time>2011-04-10T11:14:01Z</time>
      </trkpt>
      <trkpt lat="45.90684" lon="6.16987">
        <ele>924</ele>
        <time>2011-04-10T11:14:02Z</time>
      </trkpt>
      <trkpt lat="45.90684" lon="6.16986">
        <ele>922</ele>
        <time>2011-04-10T11:14:04Z</time>
      </trkpt>
      <trkpt lat="45.90684" lon="6.16983">
        <ele>922</ele>
        <time>2011-04-10T11:14:05Z</time>
      </trkpt>
      <trkpt lat="45.90685" lon="6.16983">
        <ele>921</ele>
        <time>2011-04-10T11:14:06Z</time>
      </trkpt>
      <trkpt lat="45.90684" lon="6.16979">
        <ele>919</ele>
        <time>2011-04-10T11:14:07Z</time>
      </trkpt>
      <trkpt lat="45.90684" lon="6.16977">
        <ele>919</ele>
        <time>2011-04-10T11:14:08Z</time>
      </trkpt>
      <trkpt lat="45.90685" lon="6.16979">
        <ele>918</ele>
        <time>2011-04-10T11:14:09Z</time>
      </trkpt>
      <trkpt lat="45.90685" lon="6.16978">
        <ele>917</ele>
        <time>2011-04-10T11:14:10Z</time>
      </trkpt>
      <trkpt lat="45.90684" lon="6.16978">
        <ele>916</ele>
        <time>2011-04-10T11:14:11Z</time>
      </trkpt>
      <trkpt lat="45.90684" lon="6.16977">
        <ele>916</ele>
        <time>2011-04-10T11:14:12Z</time>
      </trkpt>
      <trkpt lat="45.90684" lon="6.16977">
        <ele>915</ele>
        <time>2011-04-10T11:14:13Z</time>
      </trkpt>
      <trkpt lat="45.90682" lon="6.16974">
        <ele>915</ele>
        <time>2011-04-10T11:14:14Z</time>
      </trkpt>
      <trkpt lat="45.90683" lon="6.16977">
        <ele>914</ele>
        <time>2011-04-10T11:14:15Z</time>
      </trkpt>
      <trkpt lat="45.90683" lon="6.16978">
        <ele>914</ele>
        <time>2011-04-10T11:14:16Z</time>
      </trkpt>
      <trkpt lat="45.90682" lon="6.16975">
        <ele>915</ele>
        <time>2011-04-10T11:14:17Z</time>
      </trkpt>
      <trkpt lat="45.90681" lon="6.16972">
        <ele>915</ele>
        <time>2011-04-10T11:14:18Z</time>
      </trkpt>
      <trkpt lat="45.90679" lon="6.1697">
        <ele>915</ele>
        <time>2011-04-10T11:14:19Z</time>
      </trkpt>
      <trkpt lat="45.90679" lon="6.16968">
        <ele>914</ele>
        <time>2011-04-10T11:14:20Z</time>
      </trkpt>
      <trkpt lat="45.90678" lon="6.1697">
        <ele>912</ele>
        <time>2011-04-10T11:14:21Z</time>
      </trkpt>
      <trkpt lat="45.90677" lon="6.16971">
        <ele>911</ele>
        <time>2011-04-10T11:14:22Z</time>
      </trkpt>
      <trkpt lat="45.90676" lon="6.16972">
        <ele>911</ele>
        <time>2011-04-10T11:14:23Z</time>
      </trkpt>
      <trkpt lat="45.90676" lon="6.16974">
        <ele>910</ele>
        <time>2011-04-10T11:14:24Z</time>
      </trkpt>
      <trkpt lat="45.90676" lon="6.16975">
        <ele>910</ele>
        <time>2011-04-10T11:14:25Z</time>
      </trkpt>
      <trkpt lat="45.90675" lon="6.16976">
        <ele>910</ele>
        <time>2011-04-10T11:14:26Z</time>
      </trkpt>
      <trkpt lat="45.90675" lon="6.16975">
        <ele>909</ele>
        <time>2011-04-10T11:14:27Z</time>
      </trkpt>
      <trkpt lat="45.90676" lon="6.16974">
        <ele>908</ele>
        <time>2011-04-10T11:14:28Z</time>
      </trkpt>
      <trkpt lat="45.90675" lon="6.16969">
        <ele>907</ele>
        <time>2011-04-10T11:14:30Z</time>
      </trkpt>
      <trkpt lat="45.90675" lon="6.16972">
        <ele>907</ele>
        <time>2011-04-10T11:14:31Z</time>
      </trkpt>
      <trkpt lat="45.90675" lon="6.16972">
        <ele>907</ele>
        <time>2011-04-10T11:14:32Z</time>
      </trkpt>
      <trkpt lat="45.90675" lon="6.16971">
        <ele>907</ele>
        <time>2011-04-10T11:14:33Z</time>
      </trkpt>
      <trkpt lat="45.90673" lon="6.1697">
        <ele>906</ele>
        <time>2011-04-10T11:14:34Z</time>
      </trkpt>
      <trkpt lat="45.90672" lon="6.16969">
        <ele>906</ele>
        <time>2011-04-10T11:14:35Z</time>
      </trkpt>
      <trkpt lat="45.90673" lon="6.16969">
        <ele>907</ele>
        <time>2011-04-10T11:14:36Z</time>
      </trkpt>
      <trkpt lat="45.90672" lon="6.16968">
        <ele>906</ele>
        <time>2011-04-10T11:14:37Z</time>
      </trkpt>
      <trkpt lat="45.9067" lon="6.16967">
        <ele>906</ele>
        <time>2011-04-10T11:14:39Z</time>
      </trkpt>
      <trkpt lat="45.90668" lon="6.16966">
        <ele>908</ele>
        <time>2011-04-10T11:14:42Z</time>
      </trkpt>
      <trkpt lat="45.90667" lon="6.16971">
        <ele>907</ele>
        <time>2011-04-10T11:14:43Z</time>
      </trkpt>
      <trkpt lat="45.90666" lon="6.16972">
        <ele>907</ele>
        <time>2011-04-10T11:14:44Z</time>
      </trkpt>
      <trkpt lat="45.90668" lon="6.16976">
        <ele>907</ele>
        <time>2011-04-10T11:14:45Z</time>
      </trkpt>
      <trkpt lat="45.90666" lon="6.16976">
        <ele>906</ele>
        <time>2011-04-10T11:14:46Z</time>
      </trkpt>
      <trkpt lat="45.90664" lon="6.16976">
        <ele>907</ele>
        <time>2011-04-10T11:14:47Z</time>
      </trkpt>
      <trkpt lat="45.90664" lon="6.16975">
        <ele>907</ele>
        <time>2011-04-10T11:14:48Z</time>
      </trkpt>
      <trkpt lat="45.90663" lon="6.16974">
        <ele>906</ele>
        <time>2011-04-10T11:14:49Z</time>
      </trkpt>
      <trkpt lat="45.90663" lon="6.16975">
        <ele>905</ele>
        <time>2011-04-10T11:14:50Z</time>
      </trkpt>
      <trkpt lat="45.90665" lon="6.16976">
        <ele>906</ele>
        <time>2011-04-10T11:14:51Z</time>
      </trkpt>
      <trkpt lat="45.90664" lon="6.16975">
        <ele>906</ele>
        <time>2011-04-10T11:14:52Z</time>
      </trkpt>
      <trkpt lat="45.90665" lon="6.16975">
        <ele>907</ele>
        <time>2011-04-10T11:14:53Z</time>
      </trkpt>
      <trkpt lat="45.90665" lon="6.16975">
        <ele>907</ele>
        <time>2011-04-10T11:14:54Z</time>
      </trkpt>
      <trkpt lat="45.90664" lon="6.16974">
        <ele>907</ele>
        <time>2011-04-10T11:14:55Z</time>
      </trkpt>
      <trkpt lat="45.90662" lon="6.16975">
        <ele>907</ele>
        <time>2011-04-10T11:14:56Z</time>
      </trkpt>
      <trkpt lat="45.9066" lon="6.16973">
        <ele>907</ele>
        <time>2011-04-10T11:14:57Z</time>
      </trkpt>
      <trkpt lat="45.90659" lon="6.16974">
        <ele>907</ele>
        <time>2011-04-10T11:14:58Z</time>
      </trkpt>
      <trkpt lat="45.90658" lon="6.16972">
        <ele>907</ele>
        <time>2011-04-10T11:14:59Z</time>
      </trkpt>
      <trkpt lat="45.90657" lon="6.16972">
        <ele>907</ele>
        <time>2011-04-10T11:15:00Z</time>
      </trkpt>
      <trkpt lat="45.90657" lon="6.16973">
        <ele>906</ele>
        <time>2011-04-10T11:15:01Z</time>
      </trkpt>
      <trkpt lat="45.90657" lon="6.16972">
        <ele>906</ele>
        <time>2011-04-10T11:15:02Z</time>
      </trkpt>
      <trkpt lat="45.90654" lon="6.1697">
        <ele>906</ele>
        <time>2011-04-10T11:15:03Z</time>
      </trkpt>
      <trkpt lat="45.90654" lon="6.16972">
        <ele>906</ele>
        <time>2011-04-10T11:15:04Z</time>
      </trkpt>
      <trkpt lat="45.90653" lon="6.16973">
        <ele>905</ele>
        <time>2011-04-10T11:15:05Z</time>
      </trkpt>
      <trkpt lat="45.90653" lon="6.16973">
        <ele>904</ele>
        <time>2011-04-10T11:15:06Z</time>
      </trkpt>
      <trkpt lat="45.9065" lon="6.16971">
        <ele>903</ele>
        <time>2011-04-10T11:15:07Z</time>
      </trkpt>
      <trkpt lat="45.9065" lon="6.16974">
        <ele>903</ele>
        <time>2011-04-10T11:15:08Z</time>
      </trkpt>
      <trkpt lat="45.90647" lon="6.16975">
        <ele>903</ele>
        <time>2011-04-10T11:15:09Z</time>
      </trkpt>
      <trkpt lat="45.90645" lon="6.16973">
        <ele>903</ele>
        <time>2011-04-10T11:15:10Z</time>
      </trkpt>
      <trkpt lat="45.90646" lon="6.16973">
        <ele>903</ele>
        <time>2011-04-10T11:15:11Z</time>
      </trkpt>
      <trkpt lat="45.90646" lon="6.16976">
        <ele>903</ele>
        <time>2011-04-10T11:15:12Z</time>
      </trkpt>
      <trkpt lat="45.90645" lon="6.16975">
        <ele>903</ele>
        <time>2011-04-10T11:15:13Z</time>
      </trkpt>
      <trkpt lat="45.90645" lon="6.16974">
        <ele>903</ele>
        <time>2011-04-10T11:15:14Z</time>
      </trkpt>
      <trkpt lat="45.90641" lon="6.16969">
        <ele>904</ele>
        <time>2011-04-10T11:15:15Z</time>
      </trkpt>
      <trkpt lat="45.9064" lon="6.16966">
        <ele>904</ele>
        <time>2011-04-10T11:15:16Z</time>
      </trkpt>
      <trkpt lat="45.90639" lon="6.16964">
        <ele>905</ele>
        <time>2011-04-10T11:15:17Z</time>
      </trkpt>
      <trkpt lat="45.90636" lon="6.16962">
        <ele>905</ele>
        <time>2011-04-10T11:15:18Z</time>
      </trkpt>
      <trkpt lat="45.90637" lon="6.16963">
        <ele>905</ele>
        <time>2011-04-10T11:15:19Z</time>
      </trkpt>
      <trkpt lat="45.90636" lon="6.16962">
        <ele>905</ele>
        <time>2011-04-10T11:15:20Z</time>
      </trkpt>
      <trkpt lat="45.90634" lon="6.16959">
        <ele>905</ele>
        <time>2011-04-10T11:15:21Z</time>
      </trkpt>
      <trkpt lat="45.90632" lon="6.16959">
        <ele>904</ele>
        <time>2011-04-10T11:15:22Z</time>
      </trkpt>
      <trkpt lat="45.90631" lon="6.16958">
        <ele>904</ele>
        <time>2011-04-10T11:15:23Z</time>
      </trkpt>
      <trkpt lat="45.90629" lon="6.16958">
        <ele>903</ele>
        <time>2011-04-10T11:15:24Z</time>
      </trkpt>
      <trkpt lat="45.90627" lon="6.16955">
        <ele>904</ele>
        <time>2011-04-10T11:15:25Z</time>
      </trkpt>
      <trkpt lat="45.90623" lon="6.1695">
        <ele>904</ele>
        <time>2011-04-10T11:15:26Z</time>
      </trkpt>
      <trkpt lat="45.90621" lon="6.16948">
        <ele>904</ele>
        <time>2011-04-10T11:15:27Z</time>
      </trkpt>
      <trkpt lat="45.90621" lon="6.16947">
        <ele>904</ele>
        <time>2011-04-10T11:15:28Z</time>
      </trkpt>
      <trkpt lat="45.90621" lon="6.16946">
        <ele>904</ele>
        <time>2011-04-10T11:15:29Z</time>
      </trkpt>
      <trkpt lat="45.90621" lon="6.16943">
        <ele>903</ele>
        <time>2011-04-10T11:15:30Z</time>
      </trkpt>
      <trkpt lat="45.90621" lon="6.16941">
        <ele>904</ele>
        <time>2011-04-10T11:15:31Z</time>
      </trkpt>
      <trkpt lat="45.9062" lon="6.16939">
        <ele>904</ele>
        <time>2011-04-10T11:15:32Z</time>
      </trkpt>
      <trkpt lat="45.9062" lon="6.16939">
        <ele>904</ele>
        <time>2011-04-10T11:15:33Z</time>
      </trkpt>
      <trkpt lat="45.90619" lon="6.16937">
        <ele>903</ele>
        <time>2011-04-10T11:15:34Z</time>
      </trkpt>
      <trkpt lat="45.90617" lon="6.16938">
        <ele>903</ele>
        <time>2011-04-10T11:15:35Z</time>
      </trkpt>
      <trkpt lat="45.90617" lon="6.16936">
        <ele>903</ele>
        <time>2011-04-10T11:15:36Z</time>
      </trkpt>
      <trkpt lat="45.90617" lon="6.16937">
        <ele>903</ele>
        <time>2011-04-10T11:15:37Z</time>
      </trkpt>
      <trkpt lat="45.90616" lon="6.16933">
        <ele>903</ele>
        <time>2011-04-10T11:15:38Z</time>
      </trkpt>
      <trkpt lat="45.90616" lon="6.16931">
        <ele>903</ele>
        <time>2011-04-10T11:15:39Z</time>
      </trkpt>
      <trkpt lat="45.90615" lon="6.1693">
        <ele>902</ele>
        <time>2011-04-10T11:15:40Z</time>
      </trkpt>
      <trkpt lat="45.90614" lon="6.16926">
        <ele>901</ele>
        <time>2011-04-10T11:15:41Z</time>
      </trkpt>
      <trkpt lat="45.90613" lon="6.16926">
        <ele>901</ele>
        <time>2011-04-10T11:15:42Z</time>
      </trkpt>
      <trkpt lat="45.90611" lon="6.16926">
        <ele>899</ele>
        <time>2011-04-10T11:15:43Z</time>
      </trkpt>
      <trkpt lat="45.90611" lon="6.16927">
        <ele>899</ele>
        <time>2011-04-10T11:15:44Z</time>
      </trkpt>
      <trkpt lat="45.90612" lon="6.16926">
        <ele>898</ele>
        <time>2011-04-10T11:15:45Z</time>
      </trkpt>
      <trkpt lat="45.9061" lon="6.16926">
        <ele>897</ele>
        <time>2011-04-10T11:15:46Z</time>
      </trkpt>
      <trkpt lat="45.90609" lon="6.16924">
        <ele>897</ele>
        <time>2011-04-10T11:15:47Z</time>
      </trkpt>
      <trkpt lat="45.90609" lon="6.16926">
        <ele>897</ele>
        <time>2011-04-10T11:15:48Z</time>
      </trkpt>
      <trkpt lat="45.90609" lon="6.16927">
        <ele>897</ele>
        <time>2011-04-10T11:15:49Z</time>
      </trkpt>
      <trkpt lat="45.90609" lon="6.16926">
        <ele>897</ele>
        <time>2011-04-10T11:15:50Z</time>
      </trkpt>
      <trkpt lat="45.90609" lon="6.16927">
        <ele>897</ele>
        <time>2011-04-10T11:15:51Z</time>
      </trkpt>
      <trkpt lat="45.9061" lon="6.16926">
        <ele>897</ele>
        <time>2011-04-10T11:15:52Z</time>
      </trkpt>
      <trkpt lat="45.90611" lon="6.16924">
        <ele>897</ele>
        <time>2011-04-10T11:15:53Z</time>
      </trkpt>
      <trkpt lat="45.90612" lon="6.16925">
        <ele>897</ele>
        <time>2011-04-10T11:15:54Z</time>
      </trkpt>
      <trkpt lat="45.90614" lon="6.16927">
        <ele>897</ele>
        <time>2011-04-10T11:15:55Z</time>
      </trkpt>
      <trkpt lat="45.90613" lon="6.16925">
        <ele>896</ele>
        <time>2011-04-10T11:15:56Z</time>
      </trkpt>
      <trkpt lat="45.90614" lon="6.16927">
        <ele>896</ele>
        <time>2011-04-10T11:15:57Z</time>
      </trkpt>
      <trkpt lat="45.90615" lon="6.16929">
        <ele>895</ele>
        <time>2011-04-10T11:15:58Z</time>
      </trkpt>
      <trkpt lat="45.90617" lon="6.16933">
        <ele>895</ele>
        <time>2011-04-10T11:15:59Z</time>
      </trkpt>
      <trkpt lat="45.90617" lon="6.16931">
        <ele>895</ele>
        <time>2011-04-10T11:16:00Z</time>
      </trkpt>
      <trkpt lat="45.90616" lon="6.16931">
        <ele>895</ele>
        <time>2011-04-10T11:16:01Z</time>
      </trkpt>
      <trkpt lat="45.90617" lon="6.16931">
        <ele>895</ele>
        <time>2011-04-10T11:16:02Z</time>
      </trkpt>
      <trkpt lat="45.90619" lon="6.1693">
        <ele>895</ele>
        <time>2011-04-10T11:16:03Z</time>
      </trkpt>
      <trkpt lat="45.9062" lon="6.16929">
        <ele>895</ele>
        <time>2011-04-10T11:16:04Z</time>
      </trkpt>
      <trkpt lat="45.90621" lon="6.16926">
        <ele>895</ele>
        <time>2011-04-10T11:16:05Z</time>
      </trkpt>
      <trkpt lat="45.90622" lon="6.16926">
        <ele>895</ele>
        <time>2011-04-10T11:16:06Z</time>
      </trkpt>
      <trkpt lat="45.90623" lon="6.16926">
        <ele>894</ele>
        <time>2011-04-10T11:16:07Z</time>
      </trkpt>
      <trkpt lat="45.90623" lon="6.16926">
        <ele>893</ele>
        <time>2011-04-10T11:16:08Z</time>
      </trkpt>
      <trkpt lat="45.90627" lon="6.16929">
        <ele>892</ele>
        <time>2011-04-10T11:16:09Z</time>
      </trkpt>
      <trkpt lat="45.90627" lon="6.16927">
        <ele>892</ele>
        <time>2011-04-10T11:16:10Z</time>
      </trkpt>
      <trkpt lat="45.90628" lon="6.16928">
        <ele>892</ele>
        <time>2011-04-10T11:16:11Z</time>
      </trkpt>
      <trkpt lat="45.9063" lon="6.16929">
        <ele>892</ele>
        <time>2011-04-10T11:16:12Z</time>
      </trkpt>
      <trkpt lat="45.90632" lon="6.16933">
        <ele>892</ele>
        <time>2011-04-10T11:16:13Z</time>
      </trkpt>
      <trkpt lat="45.90633" lon="6.16933">
        <ele>892</ele>
        <time>2011-04-10T11:16:14Z</time>
      </trkpt>
      <trkpt lat="45.90634" lon="6.16932">
        <ele>891</ele>
        <time>2011-04-10T11:16:15Z</time>
      </trkpt>
      <trkpt lat="45.90635" lon="6.16933">
        <ele>891</ele>
        <time>2011-04-10T11:16:16Z</time>
      </trkpt>
      <trkpt lat="45.90635" lon="6.16931">
        <ele>890</ele>
        <time>2011-04-10T11:16:17Z</time>
      </trkpt>
      <trkpt lat="45.90636" lon="6.16934">
        <ele>890</ele>
        <time>2011-04-10T11:16:18Z</time>
      </trkpt>
      <trkpt lat="45.90637" lon="6.16937">
        <ele>891</ele>
        <time>2011-04-10T11:16:19Z</time>
      </trkpt>
      <trkpt lat="45.90639" lon="6.16934">
        <ele>889</ele>
        <time>2011-04-10T11:16:20Z</time>
      </trkpt>
      <trkpt lat="45.90643" lon="6.16927">
        <ele>889</ele>
        <time>2011-04-10T11:16:23Z</time>
      </trkpt>
      <trkpt lat="45.90643" lon="6.1692">
        <ele>888</ele>
        <time>2011-04-10T11:16:24Z</time>
      </trkpt>
      <trkpt lat="45.90646" lon="6.16925">
        <ele>888</ele>
        <time>2011-04-10T11:16:25Z</time>
      </trkpt>
      <trkpt lat="45.90648" lon="6.1693">
        <ele>887</ele>
        <time>2011-04-10T11:16:26Z</time>
      </trkpt>
      <trkpt lat="45.90648" lon="6.16922">
        <ele>886</ele>
        <time>2011-04-10T11:16:27Z</time>
      </trkpt>
      <trkpt lat="45.90649" lon="6.16922">
        <ele>885</ele>
        <time>2011-04-10T11:16:28Z</time>
      </trkpt>
      <trkpt lat="45.9065" lon="6.16923">
        <ele>884</ele>
        <time>2011-04-10T11:16:29Z</time>
      </trkpt>
      <trkpt lat="45.90652" lon="6.1692">
        <ele>883</ele>
        <time>2011-04-10T11:16:30Z</time>
      </trkpt>
      <trkpt lat="45.90655" lon="6.16923">
        <ele>883</ele>
        <time>2011-04-10T11:16:31Z</time>
      </trkpt>
      <trkpt lat="45.90658" lon="6.16924">
        <ele>882</ele>
        <time>2011-04-10T11:16:32Z</time>
      </trkpt>
      <trkpt lat="45.90659" lon="6.16924">
        <ele>882</ele>
        <time>2011-04-10T11:16:33Z</time>
      </trkpt>
      <trkpt lat="45.90659" lon="6.16927">
        <ele>882</ele>
        <time>2011-04-10T11:16:34Z</time>
      </trkpt>
      <trkpt lat="45.90661" lon="6.16926">
        <ele>881</ele>
        <time>2011-04-10T11:16:35Z</time>
      </trkpt>
      <trkpt lat="45.90659" lon="6.16917">
        <ele>881</ele>
        <time>2011-04-10T11:16:36Z</time>
      </trkpt>
      <trkpt lat="45.90661" lon="6.16912">
        <ele>880</ele>
        <time>2011-04-10T11:16:38Z</time>
      </trkpt>
      <trkpt lat="45.90661" lon="6.16912">
        <ele>880</ele>
        <time>2011-04-10T11:16:39Z</time>
      </trkpt>
      <trkpt lat="45.90661" lon="6.16912">
        <ele>880</ele>
        <time>2011-04-10T11:16:40Z</time>
      </trkpt>
      <trkpt lat="45.90662" lon="6.16912">
        <ele>879</ele>
        <time>2011-04-10T11:16:41Z</time>
      </trkpt>
      <trkpt lat="45.90662" lon="6.16911">
        <ele>879</ele>
        <time>2011-04-10T11:16:42Z</time>
      </trkpt>
      <trkpt lat="45.90662" lon="6.16907">
        <ele>879</ele>
        <time>2011-04-10T11:16:43Z</time>
      </trkpt>
      <trkpt lat="45.90661" lon="6.16905">
        <ele>878</ele>
        <time>2011-04-10T11:16:44Z</time>
      </trkpt>
      <trkpt lat="45.90661" lon="6.16902">
        <ele>877</ele>
        <time>2011-04-10T11:16:45Z</time>
      </trkpt>
      <trkpt lat="45.90663" lon="6.16901">
        <ele>877</ele>
        <time>2011-04-10T11:16:46Z</time>
      </trkpt>
      <trkpt lat="45.90664" lon="6.169">
        <ele>876</ele>
        <time>2011-04-10T11:16:47Z</time>
      </trkpt>
      <trkpt lat="45.90665" lon="6.169">
        <ele>877</ele>
        <time>2011-04-10T11:16:48Z</time>
      </trkpt>
      <trkpt lat="45.90667" lon="6.16898">
        <ele>875</ele>
        <time>2011-04-10T11:16:50Z</time>
      </trkpt>
      <trkpt lat="45.90667" lon="6.16899">
        <ele>875</ele>
        <time>2011-04-10T11:16:51Z</time>
      </trkpt>
      <trkpt lat="45.90667" lon="6.16897">
        <ele>874</ele>
        <time>2011-04-10T11:16:52Z</time>
      </trkpt>
      <trkpt lat="45.90666" lon="6.16894">
        <ele>874</ele>
        <time>2011-04-10T11:16:53Z</time>
      </trkpt>
      <trkpt lat="45.90671" lon="6.16895">
        <ele>873</ele>
        <time>2011-04-10T11:16:55Z</time>
      </trkpt>
      <trkpt lat="45.90672" lon="6.16894">
        <ele>873</ele>
        <time>2011-04-10T11:16:56Z</time>
      </trkpt>
      <trkpt lat="45.90673" lon="6.16891">
        <ele>873</ele>
        <time>2011-04-10T11:16:58Z</time>
      </trkpt>
      <trkpt lat="45.90675" lon="6.16887">
        <ele>874</ele>
        <time>2011-04-10T11:16:59Z</time>
      </trkpt>
      <trkpt lat="45.90675" lon="6.16887">
        <ele>874</ele>
        <time>2011-04-10T11:17:00Z</time>
      </trkpt>
      <trkpt lat="45.90675" lon="6.16882">
        <ele>872</ele>
        <time>2011-04-10T11:17:01Z</time>
      </trkpt>
      <trkpt lat="45.90677" lon="6.1688">
        <ele>873</ele>
        <time>2011-04-10T11:17:03Z</time>
      </trkpt>
      <trkpt lat="45.90677" lon="6.16877">
        <ele>874</ele>
        <time>2011-04-10T11:17:04Z</time>
      </trkpt>
      <trkpt lat="45.90679" lon="6.16877">
        <ele>873</ele>
        <time>2011-04-10T11:17:05Z</time>
      </trkpt>
      <trkpt lat="45.90681" lon="6.16876">
        <ele>872</ele>
        <time>2011-04-10T11:17:12Z</time>
      </trkpt>
      <trkpt lat="45.90682" lon="6.16873">
        <ele>872</ele>
        <time>2011-04-10T11:17:13Z</time>
      </trkpt>
      <trkpt lat="45.90683" lon="6.16872">
        <ele>872</ele>
        <time>2011-04-10T11:17:14Z</time>
      </trkpt>
      <trkpt lat="45.90684" lon="6.16871">
        <ele>872</ele>
        <time>2011-04-10T11:17:15Z</time>
      </trkpt>
      <trkpt lat="45.90685" lon="6.16868">
        <ele>871</ele>
        <time>2011-04-10T11:17:16Z</time>
      </trkpt>
      <trkpt lat="45.90687" lon="6.16867">
        <ele>871</ele>
        <time>2011-04-10T11:17:17Z</time>
      </trkpt>
      <trkpt lat="45.90688" lon="6.16866">
        <ele>870</ele>
        <time>2011-04-10T11:17:18Z</time>
      </trkpt>
      <trkpt lat="45.90689" lon="6.16867">
        <ele>870</ele>
        <time>2011-04-10T11:17:19Z</time>
      </trkpt>
      <trkpt lat="45.90689" lon="6.16859">
        <ele>869</ele>
        <time>2011-04-10T11:17:20Z</time>
      </trkpt>
      <trkpt lat="45.90688" lon="6.1685">
        <ele>868</ele>
        <time>2011-04-10T11:17:21Z</time>
      </trkpt>
      <trkpt lat="45.9069" lon="6.16849">
        <ele>867</ele>
        <time>2011-04-10T11:17:22Z</time>
      </trkpt>
      <trkpt lat="45.9069" lon="6.16846">
        <ele>867</ele>
        <time>2011-04-10T11:17:23Z</time>
      </trkpt>
      <trkpt lat="45.90692" lon="6.16845">
        <ele>866</ele>
        <time>2011-04-10T11:17:24Z</time>
      </trkpt>
      <trkpt lat="45.90691" lon="6.16837">
        <ele>865</ele>
        <time>2011-04-10T11:17:25Z</time>
      </trkpt>
      <trkpt lat="45.90694" lon="6.16837">
        <ele>864</ele>
        <time>2011-04-10T11:17:26Z</time>
      </trkpt>
      <trkpt lat="45.90698" lon="6.16842">
        <ele>864</ele>
        <time>2011-04-10T11:17:27Z</time>
      </trkpt>
      <trkpt lat="45.90702" lon="6.16846">
        <ele>863</ele>
        <time>2011-04-10T11:17:28Z</time>
      </trkpt>
      <trkpt lat="45.90703" lon="6.16846">
        <ele>864</ele>
        <time>2011-04-10T11:17:29Z</time>
      </trkpt>
      <trkpt lat="45.90703" lon="6.16846">
        <ele>863</ele>
        <time>2011-04-10T11:17:30Z</time>
      </trkpt>
      <trkpt lat="45.90705" lon="6.16845">
        <ele>862</ele>
        <time>2011-04-10T11:17:31Z</time>
      </trkpt>
      <trkpt lat="45.90707" lon="6.16844">
        <ele>861</ele>
        <time>2011-04-10T11:17:39Z</time>
      </trkpt>
      <trkpt lat="45.9071" lon="6.16842">
        <ele>859</ele>
        <time>2011-04-10T11:17:40Z</time>
      </trkpt>
      <trkpt lat="45.90711" lon="6.16839">
        <ele>859</ele>
        <time>2011-04-10T11:17:41Z</time>
      </trkpt>
      <trkpt lat="45.90713" lon="6.16839">
        <ele>859</ele>
        <time>2011-04-10T11:17:42Z</time>
      </trkpt>
      <trkpt lat="45.90713" lon="6.16837">
        <ele>858</ele>
        <time>2011-04-10T11:17:43Z</time>
      </trkpt>
      <trkpt lat="45.90715" lon="6.16837">
        <ele>858</ele>
        <time>2011-04-10T11:17:44Z</time>
      </trkpt>
      <trkpt lat="45.90715" lon="6.16835">
        <ele>857</ele>
        <time>2011-04-10T11:17:45Z</time>
      </trkpt>
      <trkpt lat="45.90716" lon="6.16835">
        <ele>856</ele>
        <time>2011-04-10T11:17:46Z</time>
      </trkpt>
      <trkpt lat="45.90717" lon="6.16834">
        <ele>856</ele>
        <time>2011-04-10T11:17:47Z</time>
      </trkpt>
      <trkpt lat="45.90717" lon="6.1683">
        <ele>856</ele>
        <time>2011-04-10T11:17:48Z</time>
      </trkpt>
      <trkpt lat="45.90719" lon="6.16831">
        <ele>856</ele>
        <time>2011-04-10T11:17:49Z</time>
      </trkpt>
      <trkpt lat="45.90721" lon="6.16831">
        <ele>855</ele>
        <time>2011-04-10T11:17:50Z</time>
      </trkpt>
      <trkpt lat="45.90723" lon="6.1683">
        <ele>855</ele>
        <time>2011-04-10T11:17:51Z</time>
      </trkpt>
      <trkpt lat="45.90724" lon="6.1683">
        <ele>854</ele>
        <time>2011-04-10T11:17:52Z</time>
      </trkpt>
      <trkpt lat="45.90725" lon="6.16826">
        <ele>853</ele>
        <time>2011-04-10T11:17:53Z</time>
      </trkpt>
      <trkpt lat="45.90725" lon="6.16825">
        <ele>853</ele>
        <time>2011-04-10T11:17:54Z</time>
      </trkpt>
      <trkpt lat="45.90727" lon="6.16825">
        <ele>853</ele>
        <time>2011-04-10T11:17:55Z</time>
      </trkpt>
      <trkpt lat="45.90728" lon="6.16825">
        <ele>852</ele>
        <time>2011-04-10T11:17:56Z</time>
      </trkpt>
      <trkpt lat="45.90729" lon="6.16823">
        <ele>853</ele>
        <time>2011-04-10T11:17:57Z</time>
      </trkpt>
      <trkpt lat="45.9073" lon="6.16823">
        <ele>852</ele>
        <time>2011-04-10T11:17:58Z</time>
      </trkpt>
      <trkpt lat="45.90731" lon="6.1682">
        <ele>852</ele>
        <time>2011-04-10T11:17:59Z</time>
      </trkpt>
      <trkpt lat="45.90732" lon="6.1682">
        <ele>851</ele>
        <time>2011-04-10T11:18:00Z</time>
      </trkpt>
      <trkpt lat="45.90733" lon="6.16822">
        <ele>850</ele>
        <time>2011-04-10T11:18:01Z</time>
      </trkpt>
      <trkpt lat="45.90731" lon="6.16818">
        <ele>850</ele>
        <time>2011-04-10T11:18:02Z</time>
      </trkpt>
      <trkpt lat="45.9073" lon="6.16818">
        <ele>850</ele>
        <time>2011-04-10T11:18:03Z</time>
      </trkpt>
      <trkpt lat="45.90729" lon="6.16818">
        <ele>849</ele>
        <time>2011-04-10T11:18:04Z</time>
      </trkpt>
      <trkpt lat="45.90728" lon="6.16821">
        <ele>849</ele>
        <time>2011-04-10T11:18:06Z</time>
      </trkpt>
      <trkpt lat="45.90728" lon="6.16825">
        <ele>849</ele>
        <time>2011-04-10T11:18:08Z</time>
      </trkpt>
      <trkpt lat="45.90727" lon="6.16824">
        <ele>849</ele>
        <time>2011-04-10T11:18:10Z</time>
      </trkpt>
      <trkpt lat="45.90726" lon="6.16823">
        <ele>848</ele>
        <time>2011-04-10T11:18:11Z</time>
      </trkpt>
      <trkpt lat="45.90725" lon="6.16821">
        <ele>849</ele>
        <time>2011-04-10T11:18:12Z</time>
      </trkpt>
      <trkpt lat="45.90723" lon="6.1682">
        <ele>848</ele>
        <time>2011-04-10T11:18:13Z</time>
      </trkpt>
      <trkpt lat="45.9072" lon="6.16819">
        <ele>848</ele>
        <time>2011-04-10T11:18:14Z</time>
      </trkpt>
      <trkpt lat="45.90719" lon="6.16822">
        <ele>848</ele>
        <time>2011-04-10T11:18:15Z</time>
      </trkpt>
      <trkpt lat="45.90718" lon="6.16825">
        <ele>848</ele>
        <time>2011-04-10T11:18:16Z</time>
      </trkpt>
      <trkpt lat="45.90716" lon="6.16829">
        <ele>847</ele>
        <time>2011-04-10T11:18:17Z</time>
      </trkpt>
      <trkpt lat="45.90713" lon="6.16828">
        <ele>846</ele>
        <time>2011-04-10T11:18:18Z</time>
      </trkpt>
      <trkpt lat="45.90713" lon="6.16829">
        <ele>846</ele>
        <time>2011-04-10T11:18:19Z</time>
      </trkpt>
      <trkpt lat="45.90712" lon="6.16829">
        <ele>846</ele>
        <time>2011-04-10T11:18:20Z</time>
      </trkpt>
      <trkpt lat="45.9071" lon="6.16827">
        <ele>845</ele>
        <time>2011-04-10T11:18:21Z</time>
      </trkpt>
      <trkpt lat="45.90708" lon="6.16826">
        <ele>845</ele>
        <time>2011-04-10T11:18:22Z</time>
      </trkpt>
      <trkpt lat="45.90708" lon="6.16827">
        <ele>845</ele>
        <time>2011-04-10T11:18:23Z</time>
      </trkpt>
      <trkpt lat="45.90706" lon="6.16824">
        <ele>844</ele>
        <time>2011-04-10T11:18:24Z</time>
      </trkpt>
      <trkpt lat="45.90706" lon="6.16824">
        <ele>844</ele>
        <time>2011-04-10T11:18:25Z</time>
      </trkpt>
      <trkpt lat="45.90704" lon="6.16824">
        <ele>844</ele>
        <time>2011-04-10T11:18:26Z</time>
      </trkpt>
      <trkpt lat="45.90703" lon="6.16824">
        <ele>844</ele>
        <time>2011-04-10T11:18:27Z</time>
      </trkpt>
      <trkpt lat="45.90703" lon="6.16827">
        <ele>844</ele>
        <time>2011-04-10T11:18:28Z</time>
      </trkpt>
      <trkpt lat="45.90702" lon="6.16828">
        <ele>844</ele>
        <time>2011-04-10T11:18:29Z</time>
      </trkpt>
      <trkpt lat="45.90701" lon="6.16829">
        <ele>844</ele>
        <time>2011-04-10T11:18:30Z</time>
      </trkpt>
      <trkpt lat="45.907" lon="6.16829">
        <ele>843</ele>
        <time>2011-04-10T11:18:31Z</time>
      </trkpt>
      <trkpt lat="45.90699" lon="6.16829">
        <ele>843</ele>
        <time>2011-04-10T11:18:32Z</time>
      </trkpt>
      <trkpt lat="45.90696" lon="6.16829">
        <ele>842</ele>
        <time>2011-04-10T11:18:33Z</time>
      </trkpt>
      <trkpt lat="45.90695" lon="6.1683">
        <ele>842</ele>
        <time>2011-04-10T11:18:34Z</time>
      </trkpt>
      <trkpt lat="45.90693" lon="6.1683">
        <ele>841</ele>
        <time>2011-04-10T11:18:35Z</time>
      </trkpt>
      <trkpt lat="45.90691" lon="6.1683">
        <ele>842</ele>
        <time>2011-04-10T11:18:36Z</time>
      </trkpt>
      <trkpt lat="45.90691" lon="6.1683">
        <ele>842</ele>
        <time>2011-04-10T11:18:37Z</time>
      </trkpt>
      <trkpt lat="45.9069" lon="6.16831">
        <ele>841</ele>
        <time>2011-04-10T11:18:38Z</time>
      </trkpt>
      <trkpt lat="45.90689" lon="6.16833">
        <ele>841</ele>
        <time>2011-04-10T11:18:39Z</time>
      </trkpt>
      <trkpt lat="45.90689" lon="6.16835">
        <ele>840</ele>
        <time>2011-04-10T11:18:40Z</time>
      </trkpt>
      <trkpt lat="45.90688" lon="6.16836">
        <ele>839</ele>
        <time>2011-04-10T11:18:41Z</time>
      </trkpt>
      <trkpt lat="45.90688" lon="6.16838">
        <ele>839</ele>
        <time>2011-04-10T11:18:42Z</time>
      </trkpt>
      <trkpt lat="45.90686" lon="6.16839">
        <ele>838</ele>
        <time>2011-04-10T11:18:43Z</time>
      </trkpt>
      <trkpt lat="45.90684" lon="6.16839">
        <ele>838</ele>
        <time>2011-04-10T11:18:44Z</time>
      </trkpt>
      <trkpt lat="45.90683" lon="6.16838">
        <ele>837</ele>
        <time>2011-04-10T11:18:45Z</time>
      </trkpt>
      <trkpt lat="45.90683" lon="6.16839">
        <ele>837</ele>
        <time>2011-04-10T11:18:46Z</time>
      </trkpt>
      <trkpt lat="45.90682" lon="6.16842">
        <ele>837</ele>
        <time>2011-04-10T11:18:47Z</time>
      </trkpt>
      <trkpt lat="45.9068" lon="6.16845">
        <ele>836</ele>
        <time>2011-04-10T11:18:48Z</time>
      </trkpt>
      <trkpt lat="45.90678" lon="6.16848">
        <ele>836</ele>
        <time>2011-04-10T11:18:49Z</time>
      </trkpt>
      <trkpt lat="45.90677" lon="6.16849">
        <ele>836</ele>
        <time>2011-04-10T11:18:50Z</time>
      </trkpt>
      <trkpt lat="45.90675" lon="6.16848">
        <ele>836</ele>
        <time>2011-04-10T11:18:51Z</time>
      </trkpt>
      <trkpt lat="45.90673" lon="6.16849">
        <ele>836</ele>
        <time>2011-04-10T11:18:52Z</time>
      </trkpt>
      <trkpt lat="45.90672" lon="6.1685">
        <ele>836</ele>
        <time>2011-04-10T11:18:53Z</time>
      </trkpt>
      <trkpt lat="45.90672" lon="6.16851">
        <ele>834</ele>
        <time>2011-04-10T11:18:54Z</time>
      </trkpt>
      <trkpt lat="45.90668" lon="6.16849">
        <ele>835</ele>
        <time>2011-04-10T11:18:56Z</time>
      </trkpt>
      <trkpt lat="45.90667" lon="6.16847">
        <ele>835</ele>
        <time>2011-04-10T11:18:57Z</time>
      </trkpt>
      <trkpt lat="45.90665" lon="6.16847">
        <ele>835</ele>
        <time>2011-04-10T11:18:58Z</time>
      </trkpt>
      <trkpt lat="45.90663" lon="6.16855">
        <ele>834</ele>
        <time>2011-04-10T11:19:02Z</time>
      </trkpt>
      <trkpt lat="45.90664" lon="6.16856">
        <ele>834</ele>
        <time>2011-04-10T11:19:04Z</time>
      </trkpt>
      <trkpt lat="45.90663" lon="6.16853">
        <ele>834</ele>
        <time>2011-04-10T11:19:05Z</time>
      </trkpt>
      <trkpt lat="45.90661" lon="6.16853">
        <ele>834</ele>
        <time>2011-04-10T11:19:06Z</time>
      </trkpt>
      <trkpt lat="45.90659" lon="6.16848">
        <ele>835</ele>
        <time>2011-04-10T11:19:07Z</time>
      </trkpt>
      <trkpt lat="45.90656" lon="6.16843">
        <ele>834</ele>
        <time>2011-04-10T11:19:10Z</time>
      </trkpt>
      <trkpt lat="45.90657" lon="6.16844">
        <ele>834</ele>
        <time>2011-04-10T11:19:11Z</time>
      </trkpt>
      <trkpt lat="45.90658" lon="6.16843">
        <ele>834</ele>
        <time>2011-04-10T11:19:12Z</time>
      </trkpt>
      <trkpt lat="45.90658" lon="6.16842">
        <ele>834</ele>
        <time>2011-04-10T11:19:13Z</time>
      </trkpt>
      <trkpt lat="45.90657" lon="6.16837">
        <ele>833</ele>
        <time>2011-04-10T11:19:14Z</time>
      </trkpt>
      <trkpt lat="45.90658" lon="6.16835">
        <ele>832</ele>
        <time>2011-04-10T11:19:15Z</time>
      </trkpt>
      <trkpt lat="45.90658" lon="6.16834">
        <ele>832</ele>
        <time>2011-04-10T11:19:16Z</time>
      </trkpt>
      <trkpt lat="45.9066" lon="6.16835">
        <ele>832</ele>
        <time>2011-04-10T11:19:17Z</time>
      </trkpt>
      <trkpt lat="45.90659" lon="6.16831">
        <ele>831</ele>
        <time>2011-04-10T11:19:18Z</time>
      </trkpt>
      <trkpt lat="45.9066" lon="6.1683">
        <ele>830</ele>
        <time>2011-04-10T11:19:19Z</time>
      </trkpt>
      <trkpt lat="45.9066" lon="6.1683">
        <ele>830</ele>
        <time>2011-04-10T11:19:20Z</time>
      </trkpt>
      <trkpt lat="45.9066" lon="6.16822">
        <ele>829</ele>
        <time>2011-04-10T11:19:23Z</time>
      </trkpt>
      <trkpt lat="45.90665" lon="6.16822">
        <ele>827</ele>
        <time>2011-04-10T11:19:40Z</time>
      </trkpt>
      <trkpt lat="45.90667" lon="6.16816">
        <ele>827</ele>
        <time>2011-04-10T11:19:41Z</time>
      </trkpt>
      <trkpt lat="45.90667" lon="6.16813">
        <ele>826</ele>
        <time>2011-04-10T11:19:42Z</time>
      </trkpt>
      <trkpt lat="45.9067" lon="6.16812">
        <ele>826</ele>
        <time>2011-04-10T11:19:43Z</time>
      </trkpt>
      <trkpt lat="45.90673" lon="6.16809">
        <ele>825</ele>
        <time>2011-04-10T11:19:44Z</time>
      </trkpt>
      <trkpt lat="45.90675" lon="6.16809">
        <ele>824</ele>
        <time>2011-04-10T11:19:45Z</time>
      </trkpt>
      <trkpt lat="45.90676" lon="6.16806">
        <ele>824</ele>
        <time>2011-04-10T11:19:46Z</time>
      </trkpt>
      <trkpt lat="45.90679" lon="6.16804">
        <ele>824</ele>
        <time>2011-04-10T11:19:47Z</time>
      </trkpt>
      <trkpt lat="45.90681" lon="6.16804">
        <ele>824</ele>
        <time>2011-04-10T11:19:48Z</time>
      </trkpt>
      <trkpt lat="45.90682" lon="6.16804">
        <ele>824</ele>
        <time>2011-04-10T11:19:49Z</time>
      </trkpt>
      <trkpt lat="45.90685" lon="6.16803">
        <ele>824</ele>
        <time>2011-04-10T11:19:50Z</time>
      </trkpt>
      <trkpt lat="45.90686" lon="6.168">
        <ele>824</ele>
        <time>2011-04-10T11:19:51Z</time>
      </trkpt>
      <trkpt lat="45.90684" lon="6.16796">
        <ele>825</ele>
        <time>2011-04-10T11:19:52Z</time>
      </trkpt>
      <trkpt lat="45.90684" lon="6.16795">
        <ele>824</ele>
        <time>2011-04-10T11:19:53Z</time>
      </trkpt>
      <trkpt lat="45.90683" lon="6.16792">
        <ele>824</ele>
        <time>2011-04-10T11:19:54Z</time>
      </trkpt>
      <trkpt lat="45.90683" lon="6.16791">
        <ele>824</ele>
        <time>2011-04-10T11:19:55Z</time>
      </trkpt>
      <trkpt lat="45.90684" lon="6.16791">
        <ele>824</ele>
        <time>2011-04-10T11:19:56Z</time>
      </trkpt>
      <trkpt lat="45.90683" lon="6.16791">
        <ele>824</ele>
        <time>2011-04-10T11:19:57Z</time>
      </trkpt>
      <trkpt lat="45.90684" lon="6.16794">
        <ele>823</ele>
        <time>2011-04-10T11:19:58Z</time>
      </trkpt>
      <trkpt lat="45.90683" lon="6.16793">
        <ele>823</ele>
        <time>2011-04-10T11:19:59Z</time>
      </trkpt>
      <trkpt lat="45.90682" lon="6.16792">
        <ele>822</ele>
        <time>2011-04-10T11:20:00Z</time>
      </trkpt>
      <trkpt lat="45.9068" lon="6.16793">
        <ele>822</ele>
        <time>2011-04-10T11:20:02Z</time>
      </trkpt>
      <trkpt lat="45.90679" lon="6.16795">
        <ele>821</ele>
        <time>2011-04-10T11:20:03Z</time>
      </trkpt>
      <trkpt lat="45.90677" lon="6.16795">
        <ele>821</ele>
        <time>2011-04-10T11:20:04Z</time>
      </trkpt>
      <trkpt lat="45.90676" lon="6.16794">
        <ele>820</ele>
        <time>2011-04-10T11:20:05Z</time>
      </trkpt>
      <trkpt lat="45.90675" lon="6.16793">
        <ele>819</ele>
        <time>2011-04-10T11:20:06Z</time>
      </trkpt>
      <trkpt lat="45.90674" lon="6.16791">
        <ele>819</ele>
        <time>2011-04-10T11:20:07Z</time>
      </trkpt>
      <trkpt lat="45.90673" lon="6.16792">
        <ele>819</ele>
        <time>2011-04-10T11:20:08Z</time>
      </trkpt>
      <trkpt lat="45.90671" lon="6.16793">
        <ele>819</ele>
        <time>2011-04-10T11:20:09Z</time>
      </trkpt>
      <trkpt lat="45.90671" lon="6.16795">
        <ele>819</ele>
        <time>2011-04-10T11:20:10Z</time>
      </trkpt>
      <trkpt lat="45.90669" lon="6.16797">
        <ele>818</ele>
        <time>2011-04-10T11:20:11Z</time>
      </trkpt>
      <trkpt lat="45.90668" lon="6.16798">
        <ele>817</ele>
        <time>2011-04-10T11:20:12Z</time>
      </trkpt>
      <trkpt lat="45.90668" lon="6.16798">
        <ele>817</ele>
        <time>2011-04-10T11:20:13Z</time>
      </trkpt>
      <trkpt lat="45.90667" lon="6.168">
        <ele>818</ele>
        <time>2011-04-10T11:20:14Z</time>
      </trkpt>
      <trkpt lat="45.90666" lon="6.168">
        <ele>817</ele>
        <time>2011-04-10T11:20:15Z</time>
      </trkpt>
      <trkpt lat="45.90665" lon="6.168">
        <ele>816</ele>
        <time>2011-04-10T11:20:16Z</time>
      </trkpt>
      <trkpt lat="45.90663" lon="6.168">
        <ele>816</ele>
        <time>2011-04-10T11:20:17Z</time>
      </trkpt>
      <trkpt lat="45.90662" lon="6.16802">
        <ele>816</ele>
        <time>2011-04-10T11:20:18Z</time>
      </trkpt>
      <trkpt lat="45.90661" lon="6.16802">
        <ele>816</ele>
        <time>2011-04-10T11:20:19Z</time>
      </trkpt>
      <trkpt lat="45.90659" lon="6.16805">
        <ele>815</ele>
        <time>2011-04-10T11:20:20Z</time>
      </trkpt>
      <trkpt lat="45.90658" lon="6.16805">
        <ele>815</ele>
        <time>2011-04-10T11:20:21Z</time>
      </trkpt>
      <trkpt lat="45.90657" lon="6.16806">
        <ele>814</ele>
        <time>2011-04-10T11:20:22Z</time>
      </trkpt>
      <trkpt lat="45.90656" lon="6.16807">
        <ele>815</ele>
        <time>2011-04-10T11:20:23Z</time>
      </trkpt>
      <trkpt lat="45.90654" lon="6.1681">
        <ele>816</ele>
        <time>2011-04-10T11:20:24Z</time>
      </trkpt>
      <trkpt lat="45.90653" lon="6.1681">
        <ele>815</ele>
        <time>2011-04-10T11:20:25Z</time>
      </trkpt>
      <trkpt lat="45.90652" lon="6.16811">
        <ele>815</ele>
        <time>2011-04-10T11:20:27Z</time>
      </trkpt>
      <trkpt lat="45.90651" lon="6.16812">
        <ele>815</ele>
        <time>2011-04-10T11:20:28Z</time>
      </trkpt>
      <trkpt lat="45.90649" lon="6.16812">
        <ele>814</ele>
        <time>2011-04-10T11:20:29Z</time>
      </trkpt>
      <trkpt lat="45.9065" lon="6.16813">
        <ele>814</ele>
        <time>2011-04-10T11:20:30Z</time>
      </trkpt>
      <trkpt lat="45.9065" lon="6.16813">
        <ele>814</ele>
        <time>2011-04-10T11:20:31Z</time>
      </trkpt>
      <trkpt lat="45.90651" lon="6.16811">
        <ele>812</ele>
        <time>2011-04-10T11:20:32Z</time>
      </trkpt>
      <trkpt lat="45.90651" lon="6.16811">
        <ele>814</ele>
        <time>2011-04-10T11:20:33Z</time>
      </trkpt>
      <trkpt lat="45.90652" lon="6.16809">
        <ele>814</ele>
        <time>2011-04-10T11:20:34Z</time>
      </trkpt>
      <trkpt lat="45.90654" lon="6.16808">
        <ele>814</ele>
        <time>2011-04-10T11:20:35Z</time>
      </trkpt>
      <trkpt lat="45.90654" lon="6.16807">
        <ele>815</ele>
        <time>2011-04-10T11:20:36Z</time>
      </trkpt>
      <trkpt lat="45.90655" lon="6.16806">
        <ele>815</ele>
        <time>2011-04-10T11:20:37Z</time>
      </trkpt>
      <trkpt lat="45.90655" lon="6.16801">
        <ele>815</ele>
        <time>2011-04-10T11:20:38Z</time>
      </trkpt>
      <trkpt lat="45.90659" lon="6.16802">
        <ele>814</ele>
        <time>2011-04-10T11:20:39Z</time>
      </trkpt>
      <trkpt lat="45.90661" lon="6.168">
        <ele>814</ele>
        <time>2011-04-10T11:20:40Z</time>
      </trkpt>
      <trkpt lat="45.90661" lon="6.16797">
        <ele>813</ele>
        <time>2011-04-10T11:20:53Z</time>
      </trkpt>
      <trkpt lat="45.90664" lon="6.16791">
        <ele>813</ele>
        <time>2011-04-10T11:20:54Z</time>
      </trkpt>
      <trkpt lat="45.90664" lon="6.16786">
        <ele>813</ele>
        <time>2011-04-10T11:20:55Z</time>
      </trkpt>
      <trkpt lat="45.90666" lon="6.1678">
        <ele>812</ele>
        <time>2011-04-10T11:20:56Z</time>
      </trkpt>
      <trkpt lat="45.90666" lon="6.16779">
        <ele>812</ele>
        <time>2011-04-10T11:20:57Z</time>
      </trkpt>
      <trkpt lat="45.90667" lon="6.16777">
        <ele>812</ele>
        <time>2011-04-10T11:20:58Z</time>
      </trkpt>
      <trkpt lat="45.90668" lon="6.16776">
        <ele>811</ele>
        <time>2011-04-10T11:20:59Z</time>
      </trkpt>
      <trkpt lat="45.9067" lon="6.16776">
        <ele>811</ele>
        <time>2011-04-10T11:21:00Z</time>
      </trkpt>
      <trkpt lat="45.90671" lon="6.1677">
        <ele>809</ele>
        <time>2011-04-10T11:21:03Z</time>
      </trkpt>
      <trkpt lat="45.9067" lon="6.16768">
        <ele>809</ele>
        <time>2011-04-10T11:21:04Z</time>
      </trkpt>
      <trkpt lat="45.90669" lon="6.16767">
        <ele>809</ele>
        <time>2011-04-10T11:21:05Z</time>
      </trkpt>
      <trkpt lat="45.90669" lon="6.16768">
        <ele>809</ele>
        <time>2011-04-10T11:21:06Z</time>
      </trkpt>
      <trkpt lat="45.90666" lon="6.16764">
        <ele>809</ele>
        <time>2011-04-10T11:21:07Z</time>
      </trkpt>
      <trkpt lat="45.90666" lon="6.16768">
        <ele>808</ele>
        <time>2011-04-10T11:21:08Z</time>
      </trkpt>
      <trkpt lat="45.90665" lon="6.16769">
        <ele>809</ele>
        <time>2011-04-10T11:21:09Z</time>
      </trkpt>
      <trkpt lat="45.90665" lon="6.16771">
        <ele>809</ele>
        <time>2011-04-10T11:21:10Z</time>
      </trkpt>
      <trkpt lat="45.90664" lon="6.16772">
        <ele>809</ele>
        <time>2011-04-10T11:21:11Z</time>
      </trkpt>
      <trkpt lat="45.90662" lon="6.16773">
        <ele>810</ele>
        <time>2011-04-10T11:21:12Z</time>
      </trkpt>
      <trkpt lat="45.90662" lon="6.16774">
        <ele>809</ele>
        <time>2011-04-10T11:21:13Z</time>
      </trkpt>
      <trkpt lat="45.90662" lon="6.16773">
        <ele>809</ele>
        <time>2011-04-10T11:21:14Z</time>
      </trkpt>
      <trkpt lat="45.90661" lon="6.16775">
        <ele>810</ele>
        <time>2011-04-10T11:21:15Z</time>
      </trkpt>
      <trkpt lat="45.9066" lon="6.16778">
        <ele>809</ele>
        <time>2011-04-10T11:21:16Z</time>
      </trkpt>
      <trkpt lat="45.90658" lon="6.16778">
        <ele>808</ele>
        <time>2011-04-10T11:21:18Z</time>
      </trkpt>
      <trkpt lat="45.90656" lon="6.16779">
        <ele>808</ele>
        <time>2011-04-10T11:21:19Z</time>
      </trkpt>
      <trkpt lat="45.90654" lon="6.1678">
        <ele>808</ele>
        <time>2011-04-10T11:21:20Z</time>
      </trkpt>
      <trkpt lat="45.90653" lon="6.16779">
        <ele>808</ele>
        <time>2011-04-10T11:21:21Z</time>
      </trkpt>
      <trkpt lat="45.90653" lon="6.16777">
        <ele>809</ele>
        <time>2011-04-10T11:21:22Z</time>
      </trkpt>
      <trkpt lat="45.90651" lon="6.16779">
        <ele>808</ele>
        <time>2011-04-10T11:21:23Z</time>
      </trkpt>
      <trkpt lat="45.9065" lon="6.16779">
        <ele>808</ele>
        <time>2011-04-10T11:21:24Z</time>
      </trkpt>
      <trkpt lat="45.9065" lon="6.16779">
        <ele>808</ele>
        <time>2011-04-10T11:21:25Z</time>
      </trkpt>
      <trkpt lat="45.90649" lon="6.1678">
        <ele>807</ele>
        <time>2011-04-10T11:21:26Z</time>
      </trkpt>
      <trkpt lat="45.90646" lon="6.16782">
        <ele>807</ele>
        <time>2011-04-10T11:21:27Z</time>
      </trkpt>
      <trkpt lat="45.90645" lon="6.16783">
        <ele>807</ele>
        <time>2011-04-10T11:21:28Z</time>
      </trkpt>
      <trkpt lat="45.90644" lon="6.16782">
        <ele>806</ele>
        <time>2011-04-10T11:21:29Z</time>
      </trkpt>
      <trkpt lat="45.90643" lon="6.16783">
        <ele>806</ele>
        <time>2011-04-10T11:21:30Z</time>
      </trkpt>
      <trkpt lat="45.90643" lon="6.16782">
        <ele>807</ele>
        <time>2011-04-10T11:21:31Z</time>
      </trkpt>
      <trkpt lat="45.90642" lon="6.1678">
        <ele>807</ele>
        <time>2011-04-10T11:21:32Z</time>
      </trkpt>
      <trkpt lat="45.9064" lon="6.1678">
        <ele>807</ele>
        <time>2011-04-10T11:21:33Z</time>
      </trkpt>
      <trkpt lat="45.90637" lon="6.16778">
        <ele>807</ele>
        <time>2011-04-10T11:21:34Z</time>
      </trkpt>
      <trkpt lat="45.90636" lon="6.16778">
        <ele>808</ele>
        <time>2011-04-10T11:21:35Z</time>
      </trkpt>
      <trkpt lat="45.90636" lon="6.16778">
        <ele>808</ele>
        <time>2011-04-10T11:21:36Z</time>
      </trkpt>
      <trkpt lat="45.90634" lon="6.16776">
        <ele>807</ele>
        <time>2011-04-10T11:21:37Z</time>
      </trkpt>
      <trkpt lat="45.90635" lon="6.16775">
        <ele>807</ele>
        <time>2011-04-10T11:21:39Z</time>
      </trkpt>
      <trkpt lat="45.90636" lon="6.16776">
        <ele>807</ele>
        <time>2011-04-10T11:21:40Z</time>
      </trkpt>
      <trkpt lat="45.90636" lon="6.16776">
        <ele>807</ele>
        <time>2011-04-10T11:21:41Z</time>
      </trkpt>
      <trkpt lat="45.90635" lon="6.16776">
        <ele>807</ele>
        <time>2011-04-10T11:21:42Z</time>
      </trkpt>
      <trkpt lat="45.90636" lon="6.16776">
        <ele>807</ele>
        <time>2011-04-10T11:21:43Z</time>
      </trkpt>
      <trkpt lat="45.90637" lon="6.16774">
        <ele>807</ele>
        <time>2011-04-10T11:21:44Z</time>
      </trkpt>
      <trkpt lat="45.90638" lon="6.16775">
        <ele>805</ele>
        <time>2011-04-10T11:21:47Z</time>
      </trkpt>
      <trkpt lat="45.90637" lon="6.16772">
        <ele>805</ele>
        <time>2011-04-10T11:21:48Z</time>
      </trkpt>
      <trkpt lat="45.90638" lon="6.1677">
        <ele>805</ele>
        <time>2011-04-10T11:21:49Z</time>
      </trkpt>
      <trkpt lat="45.90645" lon="6.1677">
        <ele>803</ele>
        <time>2011-04-10T11:21:53Z</time>
      </trkpt>
      <trkpt lat="45.90646" lon="6.16765">
        <ele>803</ele>
        <time>2011-04-10T11:21:55Z</time>
      </trkpt>
      <trkpt lat="45.90648" lon="6.16757">
        <ele>802</ele>
        <time>2011-04-10T11:21:58Z</time>
      </trkpt>
      <trkpt lat="45.9065" lon="6.16755">
        <ele>802</ele>
        <time>2011-04-10T11:21:59Z</time>
      </trkpt>
      <trkpt lat="45.90652" lon="6.16756">
        <ele>802</ele>
        <time>2011-04-10T11:22:00Z</time>
      </trkpt>
      <trkpt lat="45.90654" lon="6.16755">
        <ele>801</ele>
        <time>2011-04-10T11:22:01Z</time>
      </trkpt>
      <trkpt lat="45.90657" lon="6.1675">
        <ele>800</ele>
        <time>2011-04-10T11:22:26Z</time>
      </trkpt>
      <trkpt lat="45.90659" lon="6.16749">
        <ele>800</ele>
        <time>2011-04-10T11:22:27Z</time>
      </trkpt>
      <trkpt lat="45.90661" lon="6.16747">
        <ele>800</ele>
        <time>2011-04-10T11:22:28Z</time>
      </trkpt>
      <trkpt lat="45.90664" lon="6.16746">
        <ele>800</ele>
        <time>2011-04-10T11:22:29Z</time>
      </trkpt>
      <trkpt lat="45.90666" lon="6.16742">
        <ele>800</ele>
        <time>2011-04-10T11:22:30Z</time>
      </trkpt>
      <trkpt lat="45.90669" lon="6.16742">
        <ele>800</ele>
        <time>2011-04-10T11:22:31Z</time>
      </trkpt>
      <trkpt lat="45.90671" lon="6.16742">
        <ele>800</ele>
        <time>2011-04-10T11:22:32Z</time>
      </trkpt>
      <trkpt lat="45.90672" lon="6.1674">
        <ele>800</ele>
        <time>2011-04-10T11:22:33Z</time>
      </trkpt>
      <trkpt lat="45.90673" lon="6.16741">
        <ele>800</ele>
        <time>2011-04-10T11:22:34Z</time>
      </trkpt>
      <trkpt lat="45.90675" lon="6.16741">
        <ele>800</ele>
        <time>2011-04-10T11:22:35Z</time>
      </trkpt>
      <trkpt lat="45.90676" lon="6.1674">
        <ele>800</ele>
        <time>2011-04-10T11:22:36Z</time>
      </trkpt>
      <trkpt lat="45.90678" lon="6.16738">
        <ele>800</ele>
        <time>2011-04-10T11:22:37Z</time>
      </trkpt>
      <trkpt lat="45.90679" lon="6.16737">
        <ele>800</ele>
        <time>2011-04-10T11:22:38Z</time>
      </trkpt>
      <trkpt lat="45.90679" lon="6.16735">
        <ele>801</ele>
        <time>2011-04-10T11:22:39Z</time>
      </trkpt>
      <trkpt lat="45.90681" lon="6.16735">
        <ele>801</ele>
        <time>2011-04-10T11:22:40Z</time>
      </trkpt>
      <trkpt lat="45.90682" lon="6.16733">
        <ele>800</ele>
        <time>2011-04-10T11:22:41Z</time>
      </trkpt>
      <trkpt lat="45.90682" lon="6.16732">
        <ele>800</ele>
        <time>2011-04-10T11:22:42Z</time>
      </trkpt>
      <trkpt lat="45.90686" lon="6.16733">
        <ele>799</ele>
        <time>2011-04-10T11:22:43Z</time>
      </trkpt>
      <trkpt lat="45.90687" lon="6.16735">
        <ele>800</ele>
        <time>2011-04-10T11:22:44Z</time>
      </trkpt>
      <trkpt lat="45.90687" lon="6.16732">
        <ele>799</ele>
        <time>2011-04-10T11:22:45Z</time>
      </trkpt>
      <trkpt lat="45.90688" lon="6.16732">
        <ele>799</ele>
        <time>2011-04-10T11:22:46Z</time>
      </trkpt>
      <trkpt lat="45.90686" lon="6.16729">
        <ele>799</ele>
        <time>2011-04-10T11:22:47Z</time>
      </trkpt>
      <trkpt lat="45.90687" lon="6.16727">
        <ele>799</ele>
        <time>2011-04-10T11:22:48Z</time>
      </trkpt>
      <trkpt lat="45.90687" lon="6.16726">
        <ele>799</ele>
        <time>2011-04-10T11:22:49Z</time>
      </trkpt>
      <trkpt lat="45.90688" lon="6.16726">
        <ele>798</ele>
        <time>2011-04-10T11:22:50Z</time>
      </trkpt>
      <trkpt lat="45.90689" lon="6.16725">
        <ele>798</ele>
        <time>2011-04-10T11:22:51Z</time>
      </trkpt>
      <trkpt lat="45.90688" lon="6.16723">
        <ele>798</ele>
        <time>2011-04-10T11:22:52Z</time>
      </trkpt>
      <trkpt lat="45.90687" lon="6.1672">
        <ele>799</ele>
        <time>2011-04-10T11:22:53Z</time>
      </trkpt>
      <trkpt lat="45.90688" lon="6.16719">
        <ele>799</ele>
        <time>2011-04-10T11:22:54Z</time>
      </trkpt>
      <trkpt lat="45.90688" lon="6.16716">
        <ele>798</ele>
        <time>2011-04-10T11:22:55Z</time>
      </trkpt>
      <trkpt lat="45.90686" lon="6.16715">
        <ele>798</ele>
        <time>2011-04-10T11:22:56Z</time>
      </trkpt>
      <trkpt lat="45.90685" lon="6.16713">
        <ele>797</ele>
        <time>2011-04-10T11:22:57Z</time>
      </trkpt>
      <trkpt lat="45.90683" lon="6.16713">
        <ele>797</ele>
        <time>2011-04-10T11:22:58Z</time>
      </trkpt>
      <trkpt lat="45.90683" lon="6.16713">
        <ele>796</ele>
        <time>2011-04-10T11:22:59Z</time>
      </trkpt>
      <trkpt lat="45.90683" lon="6.16712">
        <ele>795</ele>
        <time>2011-04-10T11:23:00Z</time>
      </trkpt>
      <trkpt lat="45.90681" lon="6.16711">
        <ele>794</ele>
        <time>2011-04-10T11:23:01Z</time>
      </trkpt>
      <trkpt lat="45.90676" lon="6.16708">
        <ele>792</ele>
        <time>2011-04-10T11:23:04Z</time>
      </trkpt>
      <trkpt lat="45.90675" lon="6.16708">
        <ele>793</ele>
        <time>2011-04-10T11:23:05Z</time>
      </trkpt>
      <trkpt lat="45.90673" lon="6.16707">
        <ele>792</ele>
        <time>2011-04-10T11:23:06Z</time>
      </trkpt>
      <trkpt lat="45.90673" lon="6.16709">
        <ele>792</ele>
        <time>2011-04-10T11:23:07Z</time>
      </trkpt>
      <trkpt lat="45.90671" lon="6.1671">
        <ele>791</ele>
        <time>2011-04-10T11:23:08Z</time>
      </trkpt>
      <trkpt lat="45.90668" lon="6.16706">
        <ele>791</ele>
        <time>2011-04-10T11:23:11Z</time>
      </trkpt>
      <trkpt lat="45.90667" lon="6.16707">
        <ele>791</ele>
        <time>2011-04-10T11:23:12Z</time>
      </trkpt>
      <trkpt lat="45.90666" lon="6.16709">
        <ele>791</ele>
        <time>2011-04-10T11:23:13Z</time>
      </trkpt>
      <trkpt lat="45.90665" lon="6.16709">
        <ele>791</ele>
        <time>2011-04-10T11:23:14Z</time>
      </trkpt>
      <trkpt lat="45.90665" lon="6.16708">
        <ele>790</ele>
        <time>2011-04-10T11:23:15Z</time>
      </trkpt>
      <trkpt lat="45.90665" lon="6.16709">
        <ele>790</ele>
        <time>2011-04-10T11:23:16Z</time>
      </trkpt>
      <trkpt lat="45.90662" lon="6.16706">
        <ele>791</ele>
        <time>2011-04-10T11:23:17Z</time>
      </trkpt>
      <trkpt lat="45.90661" lon="6.16705">
        <ele>791</ele>
        <time>2011-04-10T11:23:18Z</time>
      </trkpt>
      <trkpt lat="45.9066" lon="6.16707">
        <ele>791</ele>
        <time>2011-04-10T11:23:19Z</time>
      </trkpt>
      <trkpt lat="45.90659" lon="6.16705">
        <ele>791</ele>
        <time>2011-04-10T11:23:20Z</time>
      </trkpt>
      <trkpt lat="45.90658" lon="6.16704">
        <ele>790</ele>
        <time>2011-04-10T11:23:21Z</time>
      </trkpt>
      <trkpt lat="45.90657" lon="6.16704">
        <ele>790</ele>
        <time>2011-04-10T11:23:22Z</time>
      </trkpt>
      <trkpt lat="45.90654" lon="6.16704">
        <ele>790</ele>
        <time>2011-04-10T11:23:23Z</time>
      </trkpt>
      <trkpt lat="45.90654" lon="6.16705">
        <ele>790</ele>
        <time>2011-04-10T11:23:24Z</time>
      </trkpt>
      <trkpt lat="45.90653" lon="6.16705">
        <ele>790</ele>
        <time>2011-04-10T11:23:25Z</time>
      </trkpt>
      <trkpt lat="45.90651" lon="6.16704">
        <ele>789</ele>
        <time>2011-04-10T11:23:26Z</time>
      </trkpt>
      <trkpt lat="45.90649" lon="6.16705">
        <ele>789</ele>
        <time>2011-04-10T11:23:27Z</time>
      </trkpt>
      <trkpt lat="45.90646" lon="6.16707">
        <ele>788</ele>
        <time>2011-04-10T11:23:28Z</time>
      </trkpt>
      <trkpt lat="45.90645" lon="6.16709">
        <ele>787</ele>
        <time>2011-04-10T11:23:29Z</time>
      </trkpt>
      <trkpt lat="45.90645" lon="6.16709">
        <ele>787</ele>
        <time>2011-04-10T11:23:30Z</time>
      </trkpt>
      <trkpt lat="45.90644" lon="6.16709">
        <ele>787</ele>
        <time>2011-04-10T11:23:31Z</time>
      </trkpt>
      <trkpt lat="45.90643" lon="6.16707">
        <ele>787</ele>
        <time>2011-04-10T11:23:32Z</time>
      </trkpt>
      <trkpt lat="45.90642" lon="6.16709">
        <ele>787</ele>
        <time>2011-04-10T11:23:33Z</time>
      </trkpt>
      <trkpt lat="45.9064" lon="6.16707">
        <ele>787</ele>
        <time>2011-04-10T11:23:34Z</time>
      </trkpt>
      <trkpt lat="45.90639" lon="6.16707">
        <ele>787</ele>
        <time>2011-04-10T11:23:35Z</time>
      </trkpt>
      <trkpt lat="45.90638" lon="6.16706">
        <ele>787</ele>
        <time>2011-04-10T11:23:36Z</time>
      </trkpt>
      <trkpt lat="45.90637" lon="6.16707">
        <ele>787</ele>
        <time>2011-04-10T11:23:37Z</time>
      </trkpt>
      <trkpt lat="45.90636" lon="6.16707">
        <ele>787</ele>
        <time>2011-04-10T11:23:38Z</time>
      </trkpt>
      <trkpt lat="45.90635" lon="6.16708">
        <ele>787</ele>
        <time>2011-04-10T11:23:39Z</time>
      </trkpt>
      <trkpt lat="45.90632" lon="6.16709">
        <ele>786</ele>
        <time>2011-04-10T11:23:40Z</time>
      </trkpt>
      <trkpt lat="45.90633" lon="6.16713">
        <ele>786</ele>
        <time>2011-04-10T11:23:41Z</time>
      </trkpt>
      <trkpt lat="45.90631" lon="6.16713">
        <ele>786</ele>
        <time>2011-04-10T11:23:42Z</time>
      </trkpt>
      <trkpt lat="45.9063" lon="6.16713">
        <ele>786</ele>
        <time>2011-04-10T11:23:43Z</time>
      </trkpt>
      <trkpt lat="45.90627" lon="6.16711">
        <ele>786</ele>
        <time>2011-04-10T11:23:44Z</time>
      </trkpt>
      <trkpt lat="45.90625" lon="6.1671">
        <ele>787</ele>
        <time>2011-04-10T11:23:45Z</time>
      </trkpt>
      <trkpt lat="45.90624" lon="6.16711">
        <ele>786</ele>
        <time>2011-04-10T11:23:46Z</time>
      </trkpt>
      <trkpt lat="45.90624" lon="6.16714">
        <ele>786</ele>
        <time>2011-04-10T11:23:47Z</time>
      </trkpt>
      <trkpt lat="45.90622" lon="6.16716">
        <ele>786</ele>
        <time>2011-04-10T11:23:48Z</time>
      </trkpt>
      <trkpt lat="45.90623" lon="6.16717">
        <ele>786</ele>
        <time>2011-04-10T11:23:49Z</time>
      </trkpt>
      <trkpt lat="45.90623" lon="6.16717">
        <ele>786</ele>
        <time>2011-04-10T11:23:50Z</time>
      </trkpt>
      <trkpt lat="45.90621" lon="6.16717">
        <ele>785</ele>
        <time>2011-04-10T11:23:51Z</time>
      </trkpt>
      <trkpt lat="45.90622" lon="6.16717">
        <ele>785</ele>
        <time>2011-04-10T11:23:52Z</time>
      </trkpt>
      <trkpt lat="45.90621" lon="6.16716">
        <ele>784</ele>
        <time>2011-04-10T11:23:53Z</time>
      </trkpt>
      <trkpt lat="45.90622" lon="6.16716">
        <ele>785</ele>
        <time>2011-04-10T11:23:54Z</time>
      </trkpt>
      <trkpt lat="45.90623" lon="6.16716">
        <ele>785</ele>
        <time>2011-04-10T11:23:55Z</time>
      </trkpt>
      <trkpt lat="45.90624" lon="6.16716">
        <ele>785</ele>
        <time>2011-04-10T11:23:56Z</time>
      </trkpt>
      <trkpt lat="45.90624" lon="6.16714">
        <ele>784</ele>
        <time>2011-04-10T11:23:57Z</time>
      </trkpt>
      <trkpt lat="45.90624" lon="6.16712">
        <ele>782</ele>
        <time>2011-04-10T11:23:58Z</time>
      </trkpt>
      <trkpt lat="45.90624" lon="6.16711">
        <ele>782</ele>
        <time>2011-04-10T11:23:59Z</time>
      </trkpt>
      <trkpt lat="45.90625" lon="6.16709">
        <ele>781</ele>
        <time>2011-04-10T11:24:00Z</time>
      </trkpt>
      <trkpt lat="45.90625" lon="6.16705">
        <ele>781</ele>
        <time>2011-04-10T11:24:01Z</time>
      </trkpt>
      <trkpt lat="45.90625" lon="6.16703">
        <ele>780</ele>
        <time>2011-04-10T11:24:02Z</time>
      </trkpt>
      <trkpt lat="45.90627" lon="6.167">
        <ele>780</ele>
        <time>2011-04-10T11:24:04Z</time>
      </trkpt>
      <trkpt lat="45.90629" lon="6.16699">
        <ele>779</ele>
        <time>2011-04-10T11:24:05Z</time>
      </trkpt>
      <trkpt lat="45.9063" lon="6.16697">
        <ele>779</ele>
        <time>2011-04-10T11:24:06Z</time>
      </trkpt>
      <trkpt lat="45.90631" lon="6.16695">
        <ele>779</ele>
        <time>2011-04-10T11:24:07Z</time>
      </trkpt>
      <trkpt lat="45.90631" lon="6.16695">
        <ele>779</ele>
        <time>2011-04-10T11:24:08Z</time>
      </trkpt>
      <trkpt lat="45.90632" lon="6.16691">
        <ele>779</ele>
        <time>2011-04-10T11:24:09Z</time>
      </trkpt>
      <trkpt lat="45.90633" lon="6.1669">
        <ele>778</ele>
        <time>2011-04-10T11:24:10Z</time>
      </trkpt>
      <trkpt lat="45.90631" lon="6.16689">
        <ele>778</ele>
        <time>2011-04-10T11:24:11Z</time>
      </trkpt>
      <trkpt lat="45.90631" lon="6.1669">
        <ele>778</ele>
        <time>2011-04-10T11:24:12Z</time>
      </trkpt>
      <trkpt lat="45.90631" lon="6.16689">
        <ele>778</ele>
        <time>2011-04-10T11:24:13Z</time>
      </trkpt>
      <trkpt lat="45.90631" lon="6.16687">
        <ele>778</ele>
        <time>2011-04-10T11:24:14Z</time>
      </trkpt>
      <trkpt lat="45.90631" lon="6.16687">
        <ele>779</ele>
        <time>2011-04-10T11:24:15Z</time>
      </trkpt>
      <trkpt lat="45.90632" lon="6.16688">
        <ele>778</ele>
        <time>2011-04-10T11:24:16Z</time>
      </trkpt>
      <trkpt lat="45.9063" lon="6.16686">
        <ele>778</ele>
        <time>2011-04-10T11:24:17Z</time>
      </trkpt>
      <trkpt lat="45.90631" lon="6.16685">
        <ele>778</ele>
        <time>2011-04-10T11:24:18Z</time>
      </trkpt>
      <trkpt lat="45.9063" lon="6.16684">
        <ele>778</ele>
        <time>2011-04-10T11:24:19Z</time>
      </trkpt>
      <trkpt lat="45.90629" lon="6.16685">
        <ele>778</ele>
        <time>2011-04-10T11:24:20Z</time>
      </trkpt>
      <trkpt lat="45.90629" lon="6.16685">
        <ele>778</ele>
        <time>2011-04-10T11:24:21Z</time>
      </trkpt>
      <trkpt lat="45.90628" lon="6.16684">
        <ele>777</ele>
        <time>2011-04-10T11:24:22Z</time>
      </trkpt>
      <trkpt lat="45.90627" lon="6.16686">
        <ele>777</ele>
        <time>2011-04-10T11:24:23Z</time>
      </trkpt>
      <trkpt lat="45.90626" lon="6.16688">
        <ele>777</ele>
        <time>2011-04-10T11:24:25Z</time>
      </trkpt>
      <trkpt lat="45.90625" lon="6.16689">
        <ele>776</ele>
        <time>2011-04-10T11:24:26Z</time>
      </trkpt>
      <trkpt lat="45.90624" lon="6.16688">
        <ele>777</ele>
        <time>2011-04-10T11:24:27Z</time>
      </trkpt>
      <trkpt lat="45.90623" lon="6.16688">
        <ele>776</ele>
        <time>2011-04-10T11:24:28Z</time>
      </trkpt>
      <trkpt lat="45.90621" lon="6.16689">
        <ele>776</ele>
        <time>2011-04-10T11:24:29Z</time>
      </trkpt>
      <trkpt lat="45.9062" lon="6.16689">
        <ele>775</ele>
        <time>2011-04-10T11:24:30Z</time>
      </trkpt>
      <trkpt lat="45.9062" lon="6.1669">
        <ele>776</ele>
        <time>2011-04-10T11:24:31Z</time>
      </trkpt>
      <trkpt lat="45.90619" lon="6.16692">
        <ele>775</ele>
        <time>2011-04-10T11:24:32Z</time>
      </trkpt>
      <trkpt lat="45.90617" lon="6.16691">
        <ele>776</ele>
        <time>2011-04-10T11:24:33Z</time>
      </trkpt>
      <trkpt lat="45.90616" lon="6.16692">
        <ele>775</ele>
        <time>2011-04-10T11:24:34Z</time>
      </trkpt>
      <trkpt lat="45.90615" lon="6.16692">
        <ele>775</ele>
        <time>2011-04-10T11:24:35Z</time>
      </trkpt>
      <trkpt lat="45.90613" lon="6.16692">
        <ele>775</ele>
        <time>2011-04-10T11:24:36Z</time>
      </trkpt>
      <trkpt lat="45.90613" lon="6.16691">
        <ele>775</ele>
        <time>2011-04-10T11:24:37Z</time>
      </trkpt>
      <trkpt lat="45.90612" lon="6.1669">
        <ele>774</ele>
        <time>2011-04-10T11:24:38Z</time>
      </trkpt>
      <trkpt lat="45.90609" lon="6.16689">
        <ele>775</ele>
        <time>2011-04-10T11:24:39Z</time>
      </trkpt>
      <trkpt lat="45.90607" lon="6.16691">
        <ele>775</ele>
        <time>2011-04-10T11:24:40Z</time>
      </trkpt>
      <trkpt lat="45.90609" lon="6.16694">
        <ele>775</ele>
        <time>2011-04-10T11:24:41Z</time>
      </trkpt>
      <trkpt lat="45.90608" lon="6.16696">
        <ele>775</ele>
        <time>2011-04-10T11:24:42Z</time>
      </trkpt>
      <trkpt lat="45.90609" lon="6.16698">
        <ele>775</ele>
        <time>2011-04-10T11:24:43Z</time>
      </trkpt>
      <trkpt lat="45.90608" lon="6.16699">
        <ele>775</ele>
        <time>2011-04-10T11:24:44Z</time>
      </trkpt>
      <trkpt lat="45.90607" lon="6.16699">
        <ele>774</ele>
        <time>2011-04-10T11:24:45Z</time>
      </trkpt>
      <trkpt lat="45.90605" lon="6.16701">
        <ele>774</ele>
        <time>2011-04-10T11:24:46Z</time>
      </trkpt>
      <trkpt lat="45.90605" lon="6.16702">
        <ele>773</ele>
        <time>2011-04-10T11:24:48Z</time>
      </trkpt>
      <trkpt lat="45.90603" lon="6.16701">
        <ele>773</ele>
        <time>2011-04-10T11:24:49Z</time>
      </trkpt>
      <trkpt lat="45.90602" lon="6.16703">
        <ele>772</ele>
        <time>2011-04-10T11:24:50Z</time>
      </trkpt>
      <trkpt lat="45.90602" lon="6.16702">
        <ele>771</ele>
        <time>2011-04-10T11:24:51Z</time>
      </trkpt>
      <trkpt lat="45.90602" lon="6.16702">
        <ele>771</ele>
        <time>2011-04-10T11:24:52Z</time>
      </trkpt>
      <trkpt lat="45.90601" lon="6.16701">
        <ele>771</ele>
        <time>2011-04-10T11:24:54Z</time>
      </trkpt>
      <trkpt lat="45.90601" lon="6.16699">
        <ele>771</ele>
        <time>2011-04-10T11:24:55Z</time>
      </trkpt>
      <trkpt lat="45.906" lon="6.167">
        <ele>771</ele>
        <time>2011-04-10T11:24:56Z</time>
      </trkpt>
      <trkpt lat="45.906" lon="6.16698">
        <ele>770</ele>
        <time>2011-04-10T11:24:57Z</time>
      </trkpt>
      <trkpt lat="45.906" lon="6.16695">
        <ele>770</ele>
        <time>2011-04-10T11:24:58Z</time>
      </trkpt>
      <trkpt lat="45.906" lon="6.16694">
        <ele>770</ele>
        <time>2011-04-10T11:24:59Z</time>
      </trkpt>
      <trkpt lat="45.90598" lon="6.16688">
        <ele>770</ele>
        <time>2011-04-10T11:25:00Z</time>
      </trkpt>
      <trkpt lat="45.90599" lon="6.16686">
        <ele>770</ele>
        <time>2011-04-10T11:25:01Z</time>
      </trkpt>
      <trkpt lat="45.906" lon="6.16685">
        <ele>770</ele>
        <time>2011-04-10T11:25:02Z</time>
      </trkpt>
      <trkpt lat="45.90602" lon="6.16685">
        <ele>769</ele>
        <time>2011-04-10T11:25:03Z</time>
      </trkpt>
      <trkpt lat="45.90603" lon="6.16683">
        <ele>769</ele>
        <time>2011-04-10T11:25:04Z</time>
      </trkpt>
      <trkpt lat="45.90606" lon="6.16683">
        <ele>768</ele>
        <time>2011-04-10T11:25:05Z</time>
      </trkpt>
      <trkpt lat="45.90607" lon="6.16683">
        <ele>767</ele>
        <time>2011-04-10T11:25:06Z</time>
      </trkpt>
      <trkpt lat="45.90606" lon="6.1668">
        <ele>768</ele>
        <time>2011-04-10T11:25:07Z</time>
      </trkpt>
      <trkpt lat="45.90605" lon="6.16679">
        <ele>767</ele>
        <time>2011-04-10T11:25:08Z</time>
      </trkpt>
      <trkpt lat="45.90606" lon="6.16676">
        <ele>767</ele>
        <time>2011-04-10T11:25:09Z</time>
      </trkpt>
      <trkpt lat="45.90606" lon="6.16673">
        <ele>766</ele>
        <time>2011-04-10T11:25:10Z</time>
      </trkpt>
      <trkpt lat="45.90606" lon="6.16672">
        <ele>766</ele>
        <time>2011-04-10T11:25:11Z</time>
      </trkpt>
      <trkpt lat="45.90608" lon="6.16666">
        <ele>765</ele>
        <time>2011-04-10T11:25:12Z</time>
      </trkpt>
      <trkpt lat="45.9061" lon="6.16668">
        <ele>764</ele>
        <time>2011-04-10T11:25:13Z</time>
      </trkpt>
      <trkpt lat="45.90611" lon="6.16666">
        <ele>764</ele>
        <time>2011-04-10T11:25:14Z</time>
      </trkpt>
      <trkpt lat="45.90612" lon="6.16665">
        <ele>764</ele>
        <time>2011-04-10T11:25:15Z</time>
      </trkpt>
      <trkpt lat="45.90612" lon="6.16664">
        <ele>763</ele>
        <time>2011-04-10T11:25:16Z</time>
      </trkpt>
      <trkpt lat="45.90612" lon="6.16661">
        <ele>763</ele>
        <time>2011-04-10T11:25:17Z</time>
      </trkpt>
      <trkpt lat="45.9061" lon="6.16657">
        <ele>764</ele>
        <time>2011-04-10T11:25:18Z</time>
      </trkpt>
      <trkpt lat="45.90612" lon="6.16654">
        <ele>762</ele>
        <time>2011-04-10T11:25:19Z</time>
      </trkpt>
      <trkpt lat="45.90612" lon="6.16653">
        <ele>762</ele>
        <time>2011-04-10T11:25:20Z</time>
      </trkpt>
      <trkpt lat="45.90613" lon="6.16654">
        <ele>762</ele>
        <time>2011-04-10T11:25:21Z</time>
      </trkpt>
      <trkpt lat="45.90614" lon="6.16653">
        <ele>762</ele>
        <time>2011-04-10T11:25:22Z</time>
      </trkpt>
      <trkpt lat="45.90615" lon="6.16652">
        <ele>761</ele>
        <time>2011-04-10T11:25:23Z</time>
      </trkpt>
      <trkpt lat="45.90615" lon="6.16652">
        <ele>761</ele>
        <time>2011-04-10T11:25:24Z</time>
      </trkpt>
      <trkpt lat="45.90614" lon="6.16649">
        <ele>761</ele>
        <time>2011-04-10T11:25:25Z</time>
      </trkpt>
      <trkpt lat="45.90616" lon="6.16647">
        <ele>760</ele>
        <time>2011-04-10T11:25:27Z</time>
      </trkpt>
      <trkpt lat="45.90616" lon="6.16648">
        <ele>760</ele>
        <time>2011-04-10T11:25:28Z</time>
      </trkpt>
      <trkpt lat="45.90617" lon="6.16648">
        <ele>760</ele>
        <time>2011-04-10T11:25:29Z</time>
      </trkpt>
      <trkpt lat="45.90615" lon="6.16649">
        <ele>760</ele>
        <time>2011-04-10T11:25:30Z</time>
      </trkpt>
      <trkpt lat="45.90615" lon="6.16646">
        <ele>760</ele>
        <time>2011-04-10T11:25:31Z</time>
      </trkpt>
      <trkpt lat="45.90616" lon="6.16647">
        <ele>759</ele>
        <time>2011-04-10T11:25:32Z</time>
      </trkpt>
      <trkpt lat="45.90615" lon="6.16647">
        <ele>759</ele>
        <time>2011-04-10T11:25:33Z</time>
      </trkpt>
      <trkpt lat="45.90615" lon="6.16648">
        <ele>759</ele>
        <time>2011-04-10T11:25:34Z</time>
      </trkpt>
      <trkpt lat="45.90614" lon="6.16647">
        <ele>758</ele>
        <time>2011-04-10T11:25:35Z</time>
      </trkpt>
      <trkpt lat="45.90614" lon="6.16648">
        <ele>758</ele>
        <time>2011-04-10T11:25:36Z</time>
      </trkpt>
      <trkpt lat="45.90613" lon="6.16648">
        <ele>758</ele>
        <time>2011-04-10T11:25:37Z</time>
      </trkpt>
      <trkpt lat="45.90611" lon="6.1665">
        <ele>758</ele>
        <time>2011-04-10T11:25:38Z</time>
      </trkpt>
      <trkpt lat="45.90609" lon="6.16651">
        <ele>757</ele>
        <time>2011-04-10T11:25:39Z</time>
      </trkpt>
      <trkpt lat="45.90609" lon="6.16651">
        <ele>757</ele>
        <time>2011-04-10T11:25:40Z</time>
      </trkpt>
      <trkpt lat="45.90607" lon="6.16653">
        <ele>756</ele>
        <time>2011-04-10T11:25:44Z</time>
      </trkpt>
      <trkpt lat="45.90607" lon="6.16654">
        <ele>756</ele>
        <time>2011-04-10T11:25:45Z</time>
      </trkpt>
      <trkpt lat="45.90606" lon="6.16657">
        <ele>756</ele>
        <time>2011-04-10T11:25:46Z</time>
      </trkpt>
      <trkpt lat="45.90606" lon="6.16658">
        <ele>756</ele>
        <time>2011-04-10T11:25:47Z</time>
      </trkpt>
      <trkpt lat="45.90606" lon="6.16658">
        <ele>755</ele>
        <time>2011-04-10T11:25:49Z</time>
      </trkpt>
      <trkpt lat="45.90604" lon="6.16658">
        <ele>756</ele>
        <time>2011-04-10T11:25:50Z</time>
      </trkpt>
      <trkpt lat="45.90602" lon="6.1666">
        <ele>756</ele>
        <time>2011-04-10T11:25:51Z</time>
      </trkpt>
      <trkpt lat="45.906" lon="6.16659">
        <ele>756</ele>
        <time>2011-04-10T11:25:52Z</time>
      </trkpt>
      <trkpt lat="45.906" lon="6.1666">
        <ele>756</ele>
        <time>2011-04-10T11:25:53Z</time>
      </trkpt>
      <trkpt lat="45.90599" lon="6.16661">
        <ele>756</ele>
        <time>2011-04-10T11:25:54Z</time>
      </trkpt>
      <trkpt lat="45.90598" lon="6.1666">
        <ele>756</ele>
        <time>2011-04-10T11:25:55Z</time>
      </trkpt>
      <trkpt lat="45.90598" lon="6.16661">
        <ele>755</ele>
        <time>2011-04-10T11:25:56Z</time>
      </trkpt>
      <trkpt lat="45.90597" lon="6.16661">
        <ele>756</ele>
        <time>2011-04-10T11:25:57Z</time>
      </trkpt>
      <trkpt lat="45.90596" lon="6.16662">
        <ele>756</ele>
        <time>2011-04-10T11:25:58Z</time>
      </trkpt>
      <trkpt lat="45.90596" lon="6.16664">
        <ele>756</ele>
        <time>2011-04-10T11:25:59Z</time>
      </trkpt>
      <trkpt lat="45.90597" lon="6.16664">
        <ele>755</ele>
        <time>2011-04-10T11:26:00Z</time>
      </trkpt>
      <trkpt lat="45.90595" lon="6.16665">
        <ele>755</ele>
        <time>2011-04-10T11:26:02Z</time>
      </trkpt>
      <trkpt lat="45.90594" lon="6.16667">
        <ele>755</ele>
        <time>2011-04-10T11:26:03Z</time>
      </trkpt>
      <trkpt lat="45.90593" lon="6.16667">
        <ele>755</ele>
        <time>2011-04-10T11:26:04Z</time>
      </trkpt>
      <trkpt lat="45.90593" lon="6.16667">
        <ele>755</ele>
        <time>2011-04-10T11:26:05Z</time>
      </trkpt>
      <trkpt lat="45.90592" lon="6.16668">
        <ele>755</ele>
        <time>2011-04-10T11:26:06Z</time>
      </trkpt>
      <trkpt lat="45.9059" lon="6.16668">
        <ele>755</ele>
        <time>2011-04-10T11:26:07Z</time>
      </trkpt>
      <trkpt lat="45.90588" lon="6.16667">
        <ele>754</ele>
        <time>2011-04-10T11:26:08Z</time>
      </trkpt>
      <trkpt lat="45.90588" lon="6.16668">
        <ele>754</ele>
        <time>2011-04-10T11:26:09Z</time>
      </trkpt>
      <trkpt lat="45.90588" lon="6.16669">
        <ele>754</ele>
        <time>2011-04-10T11:26:10Z</time>
      </trkpt>
      <trkpt lat="45.90587" lon="6.16666">
        <ele>754</ele>
        <time>2011-04-10T11:26:11Z</time>
      </trkpt>
      <trkpt lat="45.90586" lon="6.16665">
        <ele>754</ele>
        <time>2011-04-10T11:26:12Z</time>
      </trkpt>
      <trkpt lat="45.90587" lon="6.16664">
        <ele>753</ele>
        <time>2011-04-10T11:26:13Z</time>
      </trkpt>
      <trkpt lat="45.90587" lon="6.16662">
        <ele>753</ele>
        <time>2011-04-10T11:26:14Z</time>
      </trkpt>
      <trkpt lat="45.90585" lon="6.16665">
        <ele>754</ele>
        <time>2011-04-10T11:26:15Z</time>
      </trkpt>
      <trkpt lat="45.90585" lon="6.16664">
        <ele>754</ele>
        <time>2011-04-10T11:26:16Z</time>
      </trkpt>
      <trkpt lat="45.90586" lon="6.16665">
        <ele>754</ele>
        <time>2011-04-10T11:26:17Z</time>
      </trkpt>
      <trkpt lat="45.90586" lon="6.16662">
        <ele>754</ele>
        <time>2011-04-10T11:26:18Z</time>
      </trkpt>
      <trkpt lat="45.90585" lon="6.16662">
        <ele>754</ele>
        <time>2011-04-10T11:26:19Z</time>
      </trkpt>
      <trkpt lat="45.90584" lon="6.16662">
        <ele>754</ele>
        <time>2011-04-10T11:26:20Z</time>
      </trkpt>
      <trkpt lat="45.90584" lon="6.16659">
        <ele>754</ele>
        <time>2011-04-10T11:26:21Z</time>
      </trkpt>
      <trkpt lat="45.90582" lon="6.16658">
        <ele>754</ele>
        <time>2011-04-10T11:26:22Z</time>
      </trkpt>
      <trkpt lat="45.90578" lon="6.1666">
        <ele>753</ele>
        <time>2011-04-10T11:26:47Z</time>
      </trkpt>
      <trkpt lat="45.90576" lon="6.16656">
        <ele>754</ele>
        <time>2011-04-10T11:26:48Z</time>
      </trkpt>
      <trkpt lat="45.90573" lon="6.16653">
        <ele>753</ele>
        <time>2011-04-10T11:26:49Z</time>
      </trkpt>
      <trkpt lat="45.90569" lon="6.16646">
        <ele>754</ele>
        <time>2011-04-10T11:26:50Z</time>
      </trkpt>
      <trkpt lat="45.90566" lon="6.16644">
        <ele>754</ele>
        <time>2011-04-10T11:26:51Z</time>
      </trkpt>
      <trkpt lat="45.90563" lon="6.1664">
        <ele>754</ele>
        <time>2011-04-10T11:26:52Z</time>
      </trkpt>
      <trkpt lat="45.90561" lon="6.16637">
        <ele>754</ele>
        <time>2011-04-10T11:26:53Z</time>
      </trkpt>
      <trkpt lat="45.90558" lon="6.16633">
        <ele>755</ele>
        <time>2011-04-10T11:26:54Z</time>
      </trkpt>
      <trkpt lat="45.90558" lon="6.16631">
        <ele>755</ele>
        <time>2011-04-10T11:26:55Z</time>
      </trkpt>
      <trkpt lat="45.90556" lon="6.16632">
        <ele>754</ele>
        <time>2011-04-10T11:26:56Z</time>
      </trkpt>
      <trkpt lat="45.90554" lon="6.1663">
        <ele>754</ele>
        <time>2011-04-10T11:26:57Z</time>
      </trkpt>
      <trkpt lat="45.90552" lon="6.16628">
        <ele>754</ele>
        <time>2011-04-10T11:26:58Z</time>
      </trkpt>
      <trkpt lat="45.90551" lon="6.16626">
        <ele>752</ele>
        <time>2011-04-10T11:26:59Z</time>
      </trkpt>
      <trkpt lat="45.9055" lon="6.16624">
        <ele>752</ele>
        <time>2011-04-10T11:27:00Z</time>
      </trkpt>
      <trkpt lat="45.9055" lon="6.16625">
        <ele>751</ele>
        <time>2011-04-10T11:27:01Z</time>
      </trkpt>
      <trkpt lat="45.90549" lon="6.16625">
        <ele>751</ele>
        <time>2011-04-10T11:27:02Z</time>
      </trkpt>
      <trkpt lat="45.90548" lon="6.16626">
        <ele>750</ele>
        <time>2011-04-10T11:27:03Z</time>
      </trkpt>
      <trkpt lat="45.90542" lon="6.16625">
        <ele>750</ele>
        <time>2011-04-10T11:27:06Z</time>
      </trkpt>
      <trkpt lat="45.90542" lon="6.16627">
        <ele>750</ele>
        <time>2011-04-10T11:27:07Z</time>
      </trkpt>
      <trkpt lat="45.9054" lon="6.16628">
        <ele>749</ele>
        <time>2011-04-10T11:27:08Z</time>
      </trkpt>
      <trkpt lat="45.9054" lon="6.16625">
        <ele>748</ele>
        <time>2011-04-10T11:27:09Z</time>
      </trkpt>
      <trkpt lat="45.90537" lon="6.16629">
        <ele>747</ele>
        <time>2011-04-10T11:27:10Z</time>
      </trkpt>
      <trkpt lat="45.90533" lon="6.16626">
        <ele>746</ele>
        <time>2011-04-10T11:27:11Z</time>
      </trkpt>
      <trkpt lat="45.90535" lon="6.16622">
        <ele>745</ele>
        <time>2011-04-10T11:27:12Z</time>
      </trkpt>
      <trkpt lat="45.90535" lon="6.16614">
        <ele>744</ele>
        <time>2011-04-10T11:27:13Z</time>
      </trkpt>
      <trkpt lat="45.90532" lon="6.16616">
        <ele>743</ele>
        <time>2011-04-10T11:27:14Z</time>
      </trkpt>
      <trkpt lat="45.90532" lon="6.16616">
        <ele>743</ele>
        <time>2011-04-10T11:27:15Z</time>
      </trkpt>
      <trkpt lat="45.90527" lon="6.16608">
        <ele>743</ele>
        <time>2011-04-10T11:27:16Z</time>
      </trkpt>
      <trkpt lat="45.90526" lon="6.16606">
        <ele>743</ele>
        <time>2011-04-10T11:27:17Z</time>
      </trkpt>
      <trkpt lat="45.90528" lon="6.16607">
        <ele>743</ele>
        <time>2011-04-10T11:27:18Z</time>
      </trkpt>
      <trkpt lat="45.90526" lon="6.16607">
        <ele>743</ele>
        <time>2011-04-10T11:27:19Z</time>
      </trkpt>
      <trkpt lat="45.90522" lon="6.16613">
        <ele>742</ele>
        <time>2011-04-10T11:27:20Z</time>
      </trkpt>
      <trkpt lat="45.90519" lon="6.16617">
        <ele>741</ele>
        <time>2011-04-10T11:27:21Z</time>
      </trkpt>
      <trkpt lat="45.9052" lon="6.16619">
        <ele>741</ele>
        <time>2011-04-10T11:27:22Z</time>
      </trkpt>
      <trkpt lat="45.9052" lon="6.16618">
        <ele>740</ele>
        <time>2011-04-10T11:27:23Z</time>
      </trkpt>
      <trkpt lat="45.90521" lon="6.16623">
        <ele>739</ele>
        <time>2011-04-10T11:27:24Z</time>
      </trkpt>
      <trkpt lat="45.90522" lon="6.16625">
        <ele>739</ele>
        <time>2011-04-10T11:27:26Z</time>
      </trkpt>
      <trkpt lat="45.90523" lon="6.16625">
        <ele>738</ele>
        <time>2011-04-10T11:27:27Z</time>
      </trkpt>
      <trkpt lat="45.90525" lon="6.16624">
        <ele>739</ele>
        <time>2011-04-10T11:27:28Z</time>
      </trkpt>
      <trkpt lat="45.90526" lon="6.16622">
        <ele>739</ele>
        <time>2011-04-10T11:27:29Z</time>
      </trkpt>
      <trkpt lat="45.90526" lon="6.16622">
        <ele>739</ele>
        <time>2011-04-10T11:27:30Z</time>
      </trkpt>
      <trkpt lat="45.90527" lon="6.16621">
        <ele>740</ele>
        <time>2011-04-10T11:27:31Z</time>
      </trkpt>
      <trkpt lat="45.90527" lon="6.16621">
        <ele>739</ele>
        <time>2011-04-10T11:27:32Z</time>
      </trkpt>
      <trkpt lat="45.9053" lon="6.1662">
        <ele>739</ele>
        <time>2011-04-10T11:27:33Z</time>
      </trkpt>
      <trkpt lat="45.90532" lon="6.16617">
        <ele>739</ele>
        <time>2011-04-10T11:27:35Z</time>
      </trkpt>
      <trkpt lat="45.90532" lon="6.16615">
        <ele>739</ele>
        <time>2011-04-10T11:27:36Z</time>
      </trkpt>
      <trkpt lat="45.90532" lon="6.16611">
        <ele>739</ele>
        <time>2011-04-10T11:27:37Z</time>
      </trkpt>
      <trkpt lat="45.90535" lon="6.1661">
        <ele>739</ele>
        <time>2011-04-10T11:27:39Z</time>
      </trkpt>
      <trkpt lat="45.90535" lon="6.16611">
        <ele>738</ele>
        <time>2011-04-10T11:27:40Z</time>
      </trkpt>
      <trkpt lat="45.90534" lon="6.16609">
        <ele>738</ele>
        <time>2011-04-10T11:27:41Z</time>
      </trkpt>
      <trkpt lat="45.90534" lon="6.1661">
        <ele>738</ele>
        <time>2011-04-10T11:27:42Z</time>
      </trkpt>
      <trkpt lat="45.90534" lon="6.16606">
        <ele>737</ele>
        <time>2011-04-10T11:27:43Z</time>
      </trkpt>
      <trkpt lat="45.90534" lon="6.16605">
        <ele>738</ele>
        <time>2011-04-10T11:27:44Z</time>
      </trkpt>
      <trkpt lat="45.90532" lon="6.16604">
        <ele>738</ele>
        <time>2011-04-10T11:27:45Z</time>
      </trkpt>
      <trkpt lat="45.90531" lon="6.16604">
        <ele>738</ele>
        <time>2011-04-10T11:27:46Z</time>
      </trkpt>
      <trkpt lat="45.90531" lon="6.16604">
        <ele>738</ele>
        <time>2011-04-10T11:27:47Z</time>
      </trkpt>
      <trkpt lat="45.90531" lon="6.16603">
        <ele>739</ele>
        <time>2011-04-10T11:27:48Z</time>
      </trkpt>
      <trkpt lat="45.90529" lon="6.16603">
        <ele>738</ele>
        <time>2011-04-10T11:27:49Z</time>
      </trkpt>
      <trkpt lat="45.90529" lon="6.16606">
        <ele>737</ele>
        <time>2011-04-10T11:27:50Z</time>
      </trkpt>
      <trkpt lat="45.90529" lon="6.16603">
        <ele>737</ele>
        <time>2011-04-10T11:27:51Z</time>
      </trkpt>
      <trkpt lat="45.90528" lon="6.16602">
        <ele>735</ele>
        <time>2011-04-10T11:28:45Z</time>
      </trkpt>
      <trkpt lat="45.90521" lon="6.16599">
        <ele>735</ele>
        <time>2011-04-10T11:28:46Z</time>
      </trkpt>
      <trkpt lat="45.90515" lon="6.16591">
        <ele>736</ele>
        <time>2011-04-10T11:28:47Z</time>
      </trkpt>
      <trkpt lat="45.9051" lon="6.16584">
        <ele>736</ele>
        <time>2011-04-10T11:28:48Z</time>
      </trkpt>
      <trkpt lat="45.90505" lon="6.16578">
        <ele>736</ele>
        <time>2011-04-10T11:28:49Z</time>
      </trkpt>
      <trkpt lat="45.90502" lon="6.16575">
        <ele>736</ele>
        <time>2011-04-10T11:28:50Z</time>
      </trkpt>
      <trkpt lat="45.90495" lon="6.16573">
        <ele>736</ele>
        <time>2011-04-10T11:28:52Z</time>
      </trkpt>
      <trkpt lat="45.90493" lon="6.16572">
        <ele>736</ele>
        <time>2011-04-10T11:28:53Z</time>
      </trkpt>
      <trkpt lat="45.90492" lon="6.16571">
        <ele>736</ele>
        <time>2011-04-10T11:28:54Z</time>
      </trkpt>
      <trkpt lat="45.90491" lon="6.1657">
        <ele>736</ele>
        <time>2011-04-10T11:28:55Z</time>
      </trkpt>
      <trkpt lat="45.90489" lon="6.16567">
        <ele>736</ele>
        <time>2011-04-10T11:28:56Z</time>
      </trkpt>
      <trkpt lat="45.90487" lon="6.16568">
        <ele>736</ele>
        <time>2011-04-10T11:28:57Z</time>
      </trkpt>
      <trkpt lat="45.90485" lon="6.16567">
        <ele>735</ele>
        <time>2011-04-10T11:28:58Z</time>
      </trkpt>
      <trkpt lat="45.90483" lon="6.16568">
        <ele>735</ele>
        <time>2011-04-10T11:28:59Z</time>
      </trkpt>
      <trkpt lat="45.90481" lon="6.16566">
        <ele>735</ele>
        <time>2011-04-10T11:29:00Z</time>
      </trkpt>
      <trkpt lat="45.90478" lon="6.16563">
        <ele>735</ele>
        <time>2011-04-10T11:29:02Z</time>
      </trkpt>
      <trkpt lat="45.90476" lon="6.16562">
        <ele>735</ele>
        <time>2011-04-10T11:29:03Z</time>
      </trkpt>
      <trkpt lat="45.90476" lon="6.16562">
        <ele>735</ele>
        <time>2011-04-10T11:29:04Z</time>
      </trkpt>
      <trkpt lat="45.90474" lon="6.16562">
        <ele>734</ele>
        <time>2011-04-10T11:29:05Z</time>
      </trkpt>
      <trkpt lat="45.90471" lon="6.16561">
        <ele>734</ele>
        <time>2011-04-10T11:29:06Z</time>
      </trkpt>
      <trkpt lat="45.90469" lon="6.16561">
        <ele>733</ele>
        <time>2011-04-10T11:29:07Z</time>
      </trkpt>
      <trkpt lat="45.90468" lon="6.16558">
        <ele>733</ele>
        <time>2011-04-10T11:29:08Z</time>
      </trkpt>
      <trkpt lat="45.90467" lon="6.16555">
        <ele>733</ele>
        <time>2011-04-10T11:29:09Z</time>
      </trkpt>
      <trkpt lat="45.90466" lon="6.16554">
        <ele>733</ele>
        <time>2011-04-10T11:29:10Z</time>
      </trkpt>
      <trkpt lat="45.90467" lon="6.16551">
        <ele>731</ele>
        <time>2011-04-10T11:29:11Z</time>
      </trkpt>
      <trkpt lat="45.9048" lon="6.16551">
        <ele>729</ele>
        <time>2011-04-10T11:31:02Z</time>
      </trkpt>
      <trkpt lat="45.90485" lon="6.16549">
        <ele>728</ele>
        <time>2011-04-10T11:31:03Z</time>
      </trkpt>
      <trkpt lat="45.9049" lon="6.16549">
        <ele>728</ele>
        <time>2011-04-10T11:31:04Z</time>
      </trkpt>
      <trkpt lat="45.90497" lon="6.1655">
        <ele>728</ele>
        <time>2011-04-10T11:31:05Z</time>
      </trkpt>
      <trkpt lat="45.90503" lon="6.16547">
        <ele>728</ele>
        <time>2011-04-10T11:31:06Z</time>
      </trkpt>
      <trkpt lat="45.90508" lon="6.16546">
        <ele>729</ele>
        <time>2011-04-10T11:31:07Z</time>
      </trkpt>
      <trkpt lat="45.9051" lon="6.16546">
        <ele>729</ele>
        <time>2011-04-10T11:31:08Z</time>
      </trkpt>
      <trkpt lat="45.90512" lon="6.16542">
        <ele>729</ele>
        <time>2011-04-10T11:31:09Z</time>
      </trkpt>
      <trkpt lat="45.90516" lon="6.1654">
        <ele>728</ele>
        <time>2011-04-10T11:31:10Z</time>
      </trkpt>
      <trkpt lat="45.90517" lon="6.16539">
        <ele>726</ele>
        <time>2011-04-10T11:31:11Z</time>
      </trkpt>
      <trkpt lat="45.9052" lon="6.16537">
        <ele>726</ele>
        <time>2011-04-10T11:31:12Z</time>
      </trkpt>
      <trkpt lat="45.90522" lon="6.16535">
        <ele>725</ele>
        <time>2011-04-10T11:31:13Z</time>
      </trkpt>
      <trkpt lat="45.90524" lon="6.16534">
        <ele>724</ele>
        <time>2011-04-10T11:31:14Z</time>
      </trkpt>
      <trkpt lat="45.90526" lon="6.16533">
        <ele>724</ele>
        <time>2011-04-10T11:31:15Z</time>
      </trkpt>
      <trkpt lat="45.90527" lon="6.16534">
        <ele>723</ele>
        <time>2011-04-10T11:31:16Z</time>
      </trkpt>
      <trkpt lat="45.9053" lon="6.16533">
        <ele>723</ele>
        <time>2011-04-10T11:31:17Z</time>
      </trkpt>
      <trkpt lat="45.90533" lon="6.16536">
        <ele>722</ele>
        <time>2011-04-10T11:31:18Z</time>
      </trkpt>
      <trkpt lat="45.90533" lon="6.16534">
        <ele>721</ele>
        <time>2011-04-10T11:31:19Z</time>
      </trkpt>
      <trkpt lat="45.90537" lon="6.16534">
        <ele>720</ele>
        <time>2011-04-10T11:31:20Z</time>
      </trkpt>
      <trkpt lat="45.90539" lon="6.16535">
        <ele>720</ele>
        <time>2011-04-10T11:31:21Z</time>
      </trkpt>
      <trkpt lat="45.90539" lon="6.16539">
        <ele>719</ele>
        <time>2011-04-10T11:31:22Z</time>
      </trkpt>
      <trkpt lat="45.9054" lon="6.16539">
        <ele>719</ele>
        <time>2011-04-10T11:31:23Z</time>
      </trkpt>
      <trkpt lat="45.90541" lon="6.16538">
        <ele>718</ele>
        <time>2011-04-10T11:31:24Z</time>
      </trkpt>
      <trkpt lat="45.90542" lon="6.16536">
        <ele>719</ele>
        <time>2011-04-10T11:31:25Z</time>
      </trkpt>
      <trkpt lat="45.90542" lon="6.16536">
        <ele>718</ele>
        <time>2011-04-10T11:31:26Z</time>
      </trkpt>
      <trkpt lat="45.90543" lon="6.16535">
        <ele>718</ele>
        <time>2011-04-10T11:31:27Z</time>
      </trkpt>
      <trkpt lat="45.90546" lon="6.16534">
        <ele>718</ele>
        <time>2011-04-10T11:31:28Z</time>
      </trkpt>
      <trkpt lat="45.90544" lon="6.16533">
        <ele>714</ele>
        <time>2011-04-10T11:32:57Z</time>
      </trkpt>
      <trkpt lat="45.90545" lon="6.1653">
        <ele>713</ele>
        <time>2011-04-10T11:32:58Z</time>
      </trkpt>
      <trkpt lat="45.90543" lon="6.16525">
        <ele>712</ele>
        <time>2011-04-10T11:32:59Z</time>
      </trkpt>
      <trkpt lat="45.90542" lon="6.16522">
        <ele>712</ele>
        <time>2011-04-10T11:33:00Z</time>
      </trkpt>
      <trkpt lat="45.90539" lon="6.16521">
        <ele>711</ele>
        <time>2011-04-10T11:33:01Z</time>
      </trkpt>
      <trkpt lat="45.9054" lon="6.16516">
        <ele>710</ele>
        <time>2011-04-10T11:33:02Z</time>
      </trkpt>
      <trkpt lat="45.90538" lon="6.16516">
        <ele>709</ele>
        <time>2011-04-10T11:33:03Z</time>
      </trkpt>
      <trkpt lat="45.90537" lon="6.16515">
        <ele>708</ele>
        <time>2011-04-10T11:33:04Z</time>
      </trkpt>
      <trkpt lat="45.90536" lon="6.16515">
        <ele>707</ele>
        <time>2011-04-10T11:33:05Z</time>
      </trkpt>
      <trkpt lat="45.90536" lon="6.16515">
        <ele>707</ele>
        <time>2011-04-10T11:33:06Z</time>
      </trkpt>
      <trkpt lat="45.90536" lon="6.16513">
        <ele>707</ele>
        <time>2011-04-10T11:33:07Z</time>
      </trkpt>
      <trkpt lat="45.90536" lon="6.16512">
        <ele>707</ele>
        <time>2011-04-10T11:33:08Z</time>
      </trkpt>
      <trkpt lat="45.90535" lon="6.16511">
        <ele>706</ele>
        <time>2011-04-10T11:33:09Z</time>
      </trkpt>
      <trkpt lat="45.90534" lon="6.16511">
        <ele>706</ele>
        <time>2011-04-10T11:33:10Z</time>
      </trkpt>
      <trkpt lat="45.90532" lon="6.16511">
        <ele>706</ele>
        <time>2011-04-10T11:33:11Z</time>
      </trkpt>
      <trkpt lat="45.90531" lon="6.1651">
        <ele>705</ele>
        <time>2011-04-10T11:33:12Z</time>
      </trkpt>
      <trkpt lat="45.90531" lon="6.16508">
        <ele>706</ele>
        <time>2011-04-10T11:33:13Z</time>
      </trkpt>
      <trkpt lat="45.9053" lon="6.16507">
        <ele>707</ele>
        <time>2011-04-10T11:33:14Z</time>
      </trkpt>
      <trkpt lat="45.9053" lon="6.16507">
        <ele>706</ele>
        <time>2011-04-10T11:33:15Z</time>
      </trkpt>
      <trkpt lat="45.90531" lon="6.16507">
        <ele>706</ele>
        <time>2011-04-10T11:33:16Z</time>
      </trkpt>
      <trkpt lat="45.90531" lon="6.16504">
        <ele>706</ele>
        <time>2011-04-10T11:33:17Z</time>
      </trkpt>
      <trkpt lat="45.90529" lon="6.16503">
        <ele>706</ele>
        <time>2011-04-10T11:33:18Z</time>
      </trkpt>
      <trkpt lat="45.90529" lon="6.16502">
        <ele>706</ele>
        <time>2011-04-10T11:33:19Z</time>
      </trkpt>
      <trkpt lat="45.90528" lon="6.16503">
        <ele>706</ele>
        <time>2011-04-10T11:33:20Z</time>
      </trkpt>
      <trkpt lat="45.90528" lon="6.16505">
        <ele>705</ele>
        <time>2011-04-10T11:33:21Z</time>
      </trkpt>
      <trkpt lat="45.90527" lon="6.16505">
        <ele>705</ele>
        <time>2011-04-10T11:33:22Z</time>
      </trkpt>
      <trkpt lat="45.90526" lon="6.16504">
        <ele>705</ele>
        <time>2011-04-10T11:33:23Z</time>
      </trkpt>
      <trkpt lat="45.90524" lon="6.16504">
        <ele>703</ele>
        <time>2011-04-10T11:33:24Z</time>
      </trkpt>
      <trkpt lat="45.90525" lon="6.16502">
        <ele>704</ele>
        <time>2011-04-10T11:33:25Z</time>
      </trkpt>
      <trkpt lat="45.90522" lon="6.16501">
        <ele>703</ele>
        <time>2011-04-10T11:33:26Z</time>
      </trkpt>
      <trkpt lat="45.9052" lon="6.165">
        <ele>703</ele>
        <time>2011-04-10T11:33:27Z</time>
      </trkpt>
      <trkpt lat="45.90519" lon="6.16499">
        <ele>704</ele>
        <time>2011-04-10T11:33:28Z</time>
      </trkpt>
      <trkpt lat="45.90517" lon="6.16497">
        <ele>704</ele>
        <time>2011-04-10T11:33:29Z</time>
      </trkpt>
      <trkpt lat="45.90516" lon="6.16498">
        <ele>703</ele>
        <time>2011-04-10T11:33:30Z</time>
      </trkpt>
      <trkpt lat="45.90515" lon="6.16498">
        <ele>703</ele>
        <time>2011-04-10T11:33:31Z</time>
      </trkpt>
      <trkpt lat="45.90515" lon="6.16498">
        <ele>703</ele>
        <time>2011-04-10T11:33:32Z</time>
      </trkpt>
      <trkpt lat="45.90515" lon="6.16499">
        <ele>702</ele>
        <time>2011-04-10T11:33:33Z</time>
      </trkpt>
      <trkpt lat="45.90516" lon="6.165">
        <ele>701</ele>
        <time>2011-04-10T11:33:34Z</time>
      </trkpt>
      <trkpt lat="45.90516" lon="6.16498">
        <ele>701</ele>
        <time>2011-04-10T11:33:35Z</time>
      </trkpt>
      <trkpt lat="45.90516" lon="6.16498">
        <ele>701</ele>
        <time>2011-04-10T11:33:36Z</time>
      </trkpt>
      <trkpt lat="45.90514" lon="6.16497">
        <ele>701</ele>
        <time>2011-04-10T11:33:37Z</time>
      </trkpt>
      <trkpt lat="45.90512" lon="6.16498">
        <ele>699</ele>
        <time>2011-04-10T11:33:38Z</time>
      </trkpt>
      <trkpt lat="45.90511" lon="6.16498">
        <ele>700</ele>
        <time>2011-04-10T11:33:39Z</time>
      </trkpt>
      <trkpt lat="45.90509" lon="6.16496">
        <ele>699</ele>
        <time>2011-04-10T11:33:40Z</time>
      </trkpt>
      <trkpt lat="45.9051" lon="6.16493">
        <ele>698</ele>
        <time>2011-04-10T11:33:41Z</time>
      </trkpt>
      <trkpt lat="45.90508" lon="6.16493">
        <ele>698</ele>
        <time>2011-04-10T11:33:42Z</time>
      </trkpt>
      <trkpt lat="45.90507" lon="6.16492">
        <ele>697</ele>
        <time>2011-04-10T11:33:43Z</time>
      </trkpt>
      <trkpt lat="45.90504" lon="6.16493">
        <ele>697</ele>
        <time>2011-04-10T11:33:44Z</time>
      </trkpt>
      <trkpt lat="45.90502" lon="6.16491">
        <ele>696</ele>
        <time>2011-04-10T11:33:45Z</time>
      </trkpt>
      <trkpt lat="45.90501" lon="6.1649">
        <ele>697</ele>
        <time>2011-04-10T11:33:46Z</time>
      </trkpt>
      <trkpt lat="45.905" lon="6.16489">
        <ele>697</ele>
        <time>2011-04-10T11:33:47Z</time>
      </trkpt>
      <trkpt lat="45.90499" lon="6.16489">
        <ele>696</ele>
        <time>2011-04-10T11:33:48Z</time>
      </trkpt>
      <trkpt lat="45.90497" lon="6.16488">
        <ele>696</ele>
        <time>2011-04-10T11:33:49Z</time>
      </trkpt>
      <trkpt lat="45.90496" lon="6.16487">
        <ele>696</ele>
        <time>2011-04-10T11:33:50Z</time>
      </trkpt>
      <trkpt lat="45.90495" lon="6.16488">
        <ele>695</ele>
        <time>2011-04-10T11:33:51Z</time>
      </trkpt>
      <trkpt lat="45.90495" lon="6.16487">
        <ele>695</ele>
        <time>2011-04-10T11:33:52Z</time>
      </trkpt>
      <trkpt lat="45.90495" lon="6.16487">
        <ele>696</ele>
        <time>2011-04-10T11:33:53Z</time>
      </trkpt>
      <trkpt lat="45.90493" lon="6.16488">
        <ele>695</ele>
        <time>2011-04-10T11:33:54Z</time>
      </trkpt>
      <trkpt lat="45.90493" lon="6.16488">
        <ele>696</ele>
        <time>2011-04-10T11:33:55Z</time>
      </trkpt>
      <trkpt lat="45.90492" lon="6.16489">
        <ele>695</ele>
        <time>2011-04-10T11:33:56Z</time>
      </trkpt>
      <trkpt lat="45.90492" lon="6.16489">
        <ele>694</ele>
        <time>2011-04-10T11:33:57Z</time>
      </trkpt>
      <trkpt lat="45.90491" lon="6.1649">
        <ele>694</ele>
        <time>2011-04-10T11:33:58Z</time>
      </trkpt>
      <trkpt lat="45.90491" lon="6.1649">
        <ele>693</ele>
        <time>2011-04-10T11:33:59Z</time>
      </trkpt>
      <trkpt lat="45.90488" lon="6.16489">
        <ele>692</ele>
        <time>2011-04-10T11:34:00Z</time>
      </trkpt>
      <trkpt lat="45.90487" lon="6.16491">
        <ele>693</ele>
        <time>2011-04-10T11:34:01Z</time>
      </trkpt>
      <trkpt lat="45.90485" lon="6.16488">
        <ele>692</ele>
        <time>2011-04-10T11:34:02Z</time>
      </trkpt>
      <trkpt lat="45.90485" lon="6.16488">
        <ele>691</ele>
        <time>2011-04-10T11:34:03Z</time>
      </trkpt>
      <trkpt lat="45.90482" lon="6.16486">
        <ele>692</ele>
        <time>2011-04-10T11:34:04Z</time>
      </trkpt>
      <trkpt lat="45.90482" lon="6.16487">
        <ele>691</ele>
        <time>2011-04-10T11:34:05Z</time>
      </trkpt>
      <trkpt lat="45.90483" lon="6.16488">
        <ele>691</ele>
        <time>2011-04-10T11:34:06Z</time>
      </trkpt>
      <trkpt lat="45.90483" lon="6.16486">
        <ele>689</ele>
        <time>2011-04-10T11:34:07Z</time>
      </trkpt>
      <trkpt lat="45.90482" lon="6.16485">
        <ele>689</ele>
        <time>2011-04-10T11:34:08Z</time>
      </trkpt>
      <trkpt lat="45.90482" lon="6.16484">
        <ele>688</ele>
        <time>2011-04-10T11:34:09Z</time>
      </trkpt>
      <trkpt lat="45.90482" lon="6.16485">
        <ele>688</ele>
        <time>2011-04-10T11:34:10Z</time>
      </trkpt>
      <trkpt lat="45.9048" lon="6.16482">
        <ele>687</ele>
        <time>2011-04-10T11:34:11Z</time>
      </trkpt>
      <trkpt lat="45.9048" lon="6.16481">
        <ele>687</ele>
        <time>2011-04-10T11:34:12Z</time>
      </trkpt>
      <trkpt lat="45.9048" lon="6.1648">
        <ele>687</ele>
        <time>2011-04-10T11:34:13Z</time>
      </trkpt>
      <trkpt lat="45.90475" lon="6.16479">
        <ele>686</ele>
        <time>2011-04-10T11:34:14Z</time>
      </trkpt>
      <trkpt lat="45.90475" lon="6.1648">
        <ele>686</ele>
        <time>2011-04-10T11:34:15Z</time>
      </trkpt>
      <trkpt lat="45.90474" lon="6.1648">
        <ele>685</ele>
        <time>2011-04-10T11:34:16Z</time>
      </trkpt>
      <trkpt lat="45.90474" lon="6.16478">
        <ele>684</ele>
        <time>2011-04-10T11:34:17Z</time>
      </trkpt>
      <trkpt lat="45.90474" lon="6.16476">
        <ele>683</ele>
        <time>2011-04-10T11:34:18Z</time>
      </trkpt>
      <trkpt lat="45.90473" lon="6.16476">
        <ele>683</ele>
        <time>2011-04-10T11:34:19Z</time>
      </trkpt>
      <trkpt lat="45.90472" lon="6.16471">
        <ele>683</ele>
        <time>2011-04-10T11:34:20Z</time>
      </trkpt>
      <trkpt lat="45.90468" lon="6.16471">
        <ele>682</ele>
        <time>2011-04-10T11:34:21Z</time>
      </trkpt>
      <trkpt lat="45.90466" lon="6.16472">
        <ele>682</ele>
        <time>2011-04-10T11:34:22Z</time>
      </trkpt>
      <trkpt lat="45.90466" lon="6.16473">
        <ele>682</ele>
        <time>2011-04-10T11:34:23Z</time>
      </trkpt>
      <trkpt lat="45.90465" lon="6.16471">
        <ele>680</ele>
        <time>2011-04-10T11:34:24Z</time>
      </trkpt>
      <trkpt lat="45.90462" lon="6.16471">
        <ele>681</ele>
        <time>2011-04-10T11:34:25Z</time>
      </trkpt>
      <trkpt lat="45.90461" lon="6.16471">
        <ele>680</ele>
        <time>2011-04-10T11:34:26Z</time>
      </trkpt>
      <trkpt lat="45.9046" lon="6.16473">
        <ele>680</ele>
        <time>2011-04-10T11:34:27Z</time>
      </trkpt>
      <trkpt lat="45.90459" lon="6.16471">
        <ele>680</ele>
        <time>2011-04-10T11:34:28Z</time>
      </trkpt>
      <trkpt lat="45.90458" lon="6.1647">
        <ele>679</ele>
        <time>2011-04-10T11:34:29Z</time>
      </trkpt>
      <trkpt lat="45.9046" lon="6.16468">
        <ele>679</ele>
        <time>2011-04-10T11:34:47Z</time>
      </trkpt>
      <trkpt lat="45.9046" lon="6.16467">
        <ele>679</ele>
        <time>2011-04-10T11:34:48Z</time>
      </trkpt>
      <trkpt lat="45.9046" lon="6.16467">
        <ele>678</ele>
        <time>2011-04-10T11:34:49Z</time>
      </trkpt>
      <trkpt lat="45.90458" lon="6.16466">
        <ele>678</ele>
        <time>2011-04-10T11:34:50Z</time>
      </trkpt>
      <trkpt lat="45.90456" lon="6.16465">
        <ele>678</ele>
        <time>2011-04-10T11:34:51Z</time>
      </trkpt>
      <trkpt lat="45.90454" lon="6.1646">
        <ele>679</ele>
        <time>2011-04-10T11:34:52Z</time>
      </trkpt>
      <trkpt lat="45.90453" lon="6.16457">
        <ele>679</ele>
        <time>2011-04-10T11:34:53Z</time>
      </trkpt>
      <trkpt lat="45.90452" lon="6.16456">
        <ele>678</ele>
        <time>2011-04-10T11:34:54Z</time>
      </trkpt>
      <trkpt lat="45.90451" lon="6.16453">
        <ele>677</ele>
        <time>2011-04-10T11:34:55Z</time>
      </trkpt>
      <trkpt lat="45.9045" lon="6.16449">
        <ele>677</ele>
        <time>2011-04-10T11:34:56Z</time>
      </trkpt>
      <trkpt lat="45.9045" lon="6.16448">
        <ele>677</ele>
        <time>2011-04-10T11:34:57Z</time>
      </trkpt>
      <trkpt lat="45.9045" lon="6.16445">
        <ele>677</ele>
        <time>2011-04-10T11:34:58Z</time>
      </trkpt>
      <trkpt lat="45.90447" lon="6.16444">
        <ele>676</ele>
        <time>2011-04-10T11:34:59Z</time>
      </trkpt>
      <trkpt lat="45.90445" lon="6.16442">
        <ele>676</ele>
        <time>2011-04-10T11:35:00Z</time>
      </trkpt>
      <trkpt lat="45.90446" lon="6.16442">
        <ele>676</ele>
        <time>2011-04-10T11:35:02Z</time>
      </trkpt>
      <trkpt lat="45.90445" lon="6.1644">
        <ele>675</ele>
        <time>2011-04-10T11:35:03Z</time>
      </trkpt>
      <trkpt lat="45.90444" lon="6.16439">
        <ele>675</ele>
        <time>2011-04-10T11:35:04Z</time>
      </trkpt>
      <trkpt lat="45.90443" lon="6.16438">
        <ele>674</ele>
        <time>2011-04-10T11:35:05Z</time>
      </trkpt>
      <trkpt lat="45.90442" lon="6.16436">
        <ele>674</ele>
        <time>2011-04-10T11:35:06Z</time>
      </trkpt>
      <trkpt lat="45.90439" lon="6.16438">
        <ele>674</ele>
        <time>2011-04-10T11:35:07Z</time>
      </trkpt>
      <trkpt lat="45.90438" lon="6.16437">
        <ele>673</ele>
        <time>2011-04-10T11:35:08Z</time>
      </trkpt>
      <trkpt lat="45.90438" lon="6.16438">
        <ele>673</ele>
        <time>2011-04-10T11:35:09Z</time>
      </trkpt>
      <trkpt lat="45.90436" lon="6.16439">
        <ele>672</ele>
        <time>2011-04-10T11:35:10Z</time>
      </trkpt>
      <trkpt lat="45.90434" lon="6.16439">
        <ele>672</ele>
        <time>2011-04-10T11:35:11Z</time>
      </trkpt>
      <trkpt lat="45.90432" lon="6.16438">
        <ele>671</ele>
        <time>2011-04-10T11:35:12Z</time>
      </trkpt>
      <trkpt lat="45.90432" lon="6.16438">
        <ele>671</ele>
        <time>2011-04-10T11:35:13Z</time>
      </trkpt>
      <trkpt lat="45.90431" lon="6.16438">
        <ele>671</ele>
        <time>2011-04-10T11:35:14Z</time>
      </trkpt>
      <trkpt lat="45.90429" lon="6.16436">
        <ele>671</ele>
        <time>2011-04-10T11:35:15Z</time>
      </trkpt>
      <trkpt lat="45.9043" lon="6.16437">
        <ele>670</ele>
        <time>2011-04-10T11:35:16Z</time>
      </trkpt>
      <trkpt lat="45.90431" lon="6.16435">
        <ele>668</ele>
        <time>2011-04-10T11:35:17Z</time>
      </trkpt>
      <trkpt lat="45.9043" lon="6.16434">
        <ele>668</ele>
        <time>2011-04-10T11:35:18Z</time>
      </trkpt>
      <trkpt lat="45.9043" lon="6.16433">
        <ele>667</ele>
        <time>2011-04-10T11:35:19Z</time>
      </trkpt>
      <trkpt lat="45.90429" lon="6.16435">
        <ele>666</ele>
        <time>2011-04-10T11:35:20Z</time>
      </trkpt>
      <trkpt lat="45.90429" lon="6.16437">
        <ele>665</ele>
        <time>2011-04-10T11:35:21Z</time>
      </trkpt>
      <trkpt lat="45.90428" lon="6.16438">
        <ele>664</ele>
        <time>2011-04-10T11:35:22Z</time>
      </trkpt>
      <trkpt lat="45.90428" lon="6.16437">
        <ele>663</ele>
        <time>2011-04-10T11:35:23Z</time>
      </trkpt>
      <trkpt lat="45.90426" lon="6.16436">
        <ele>662</ele>
        <time>2011-04-10T11:35:24Z</time>
      </trkpt>
      <trkpt lat="45.90425" lon="6.16434">
        <ele>661</ele>
        <time>2011-04-10T11:35:25Z</time>
      </trkpt>
      <trkpt lat="45.90424" lon="6.16433">
        <ele>660</ele>
        <time>2011-04-10T11:35:26Z</time>
      </trkpt>
      <trkpt lat="45.90424" lon="6.16432">
        <ele>660</ele>
        <time>2011-04-10T11:35:27Z</time>
      </trkpt>
      <trkpt lat="45.90424" lon="6.1643">
        <ele>660</ele>
        <time>2011-04-10T11:35:28Z</time>
      </trkpt>
      <trkpt lat="45.90424" lon="6.16429">
        <ele>660</ele>
        <time>2011-04-10T11:35:29Z</time>
      </trkpt>
      <trkpt lat="45.90425" lon="6.16427">
        <ele>660</ele>
        <time>2011-04-10T11:35:30Z</time>
      </trkpt>
      <trkpt lat="45.90426" lon="6.16428">
        <ele>660</ele>
        <time>2011-04-10T11:35:31Z</time>
      </trkpt>
      <trkpt lat="45.90426" lon="6.16428">
        <ele>659</ele>
        <time>2011-04-10T11:35:32Z</time>
      </trkpt>
      <trkpt lat="45.90427" lon="6.16427">
        <ele>659</ele>
        <time>2011-04-10T11:35:33Z</time>
      </trkpt>
      <trkpt lat="45.90428" lon="6.16427">
        <ele>659</ele>
        <time>2011-04-10T11:35:34Z</time>
      </trkpt>
      <trkpt lat="45.90428" lon="6.16425">
        <ele>659</ele>
        <time>2011-04-10T11:35:35Z</time>
      </trkpt>
      <trkpt lat="45.90429" lon="6.16426">
        <ele>658</ele>
        <time>2011-04-10T11:35:36Z</time>
      </trkpt>
      <trkpt lat="45.9043" lon="6.16429">
        <ele>658</ele>
        <time>2011-04-10T11:35:37Z</time>
      </trkpt>
      <trkpt lat="45.90433" lon="6.16428">
        <ele>657</ele>
        <time>2011-04-10T11:35:38Z</time>
      </trkpt>
      <trkpt lat="45.90435" lon="6.16428">
        <ele>657</ele>
        <time>2011-04-10T11:35:39Z</time>
      </trkpt>
      <trkpt lat="45.90436" lon="6.16428">
        <ele>657</ele>
        <time>2011-04-10T11:35:40Z</time>
      </trkpt>
      <trkpt lat="45.90434" lon="6.16427">
        <ele>657</ele>
        <time>2011-04-10T11:35:41Z</time>
      </trkpt>
      <trkpt lat="45.90435" lon="6.16428">
        <ele>657</ele>
        <time>2011-04-10T11:35:42Z</time>
      </trkpt>
      <trkpt lat="45.90437" lon="6.16427">
        <ele>657</ele>
        <time>2011-04-10T11:35:43Z</time>
      </trkpt>
      <trkpt lat="45.90438" lon="6.16427">
        <ele>656</ele>
        <time>2011-04-10T11:35:44Z</time>
      </trkpt>
      <trkpt lat="45.90439" lon="6.16425">
        <ele>656</ele>
        <time>2011-04-10T11:35:45Z</time>
      </trkpt>
      <trkpt lat="45.9044" lon="6.16426">
        <ele>655</ele>
        <time>2011-04-10T11:35:46Z</time>
      </trkpt>
      <trkpt lat="45.9044" lon="6.16429">
        <ele>654</ele>
        <time>2011-04-10T11:35:47Z</time>
      </trkpt>
      <trkpt lat="45.90443" lon="6.16429">
        <ele>654</ele>
        <time>2011-04-10T11:35:48Z</time>
      </trkpt>
      <trkpt lat="45.90441" lon="6.16427">
        <ele>654</ele>
        <time>2011-04-10T11:35:49Z</time>
      </trkpt>
      <trkpt lat="45.90444" lon="6.16427">
        <ele>654</ele>
        <time>2011-04-10T11:35:50Z</time>
      </trkpt>
      <trkpt lat="45.90445" lon="6.16427">
        <ele>654</ele>
        <time>2011-04-10T11:35:51Z</time>
      </trkpt>
      <trkpt lat="45.90446" lon="6.16426">
        <ele>654</ele>
        <time>2011-04-10T11:35:52Z</time>
      </trkpt>
      <trkpt lat="45.90446" lon="6.16428">
        <ele>654</ele>
        <time>2011-04-10T11:35:53Z</time>
      </trkpt>
      <trkpt lat="45.90446" lon="6.16427">
        <ele>654</ele>
        <time>2011-04-10T11:35:54Z</time>
      </trkpt>
      <trkpt lat="45.90447" lon="6.16426">
        <ele>653</ele>
        <time>2011-04-10T11:35:55Z</time>
      </trkpt>
      <trkpt lat="45.90448" lon="6.16426">
        <ele>653</ele>
        <time>2011-04-10T11:35:56Z</time>
      </trkpt>
      <trkpt lat="45.90448" lon="6.16426">
        <ele>654</ele>
        <time>2011-04-10T11:35:57Z</time>
      </trkpt>
      <trkpt lat="45.90451" lon="6.16425">
        <ele>653</ele>
        <time>2011-04-10T11:35:58Z</time>
      </trkpt>
      <trkpt lat="45.90452" lon="6.16424">
        <ele>654</ele>
        <time>2011-04-10T11:35:59Z</time>
      </trkpt>
      <trkpt lat="45.90452" lon="6.16423">
        <ele>653</ele>
        <time>2011-04-10T11:36:00Z</time>
      </trkpt>
      <trkpt lat="45.90452" lon="6.16424">
        <ele>653</ele>
        <time>2011-04-10T11:36:02Z</time>
      </trkpt>
      <trkpt lat="45.90452" lon="6.16423">
        <ele>652</ele>
        <time>2011-04-10T11:36:03Z</time>
      </trkpt>
      <trkpt lat="45.90452" lon="6.16425">
        <ele>654</ele>
        <time>2011-04-10T11:36:04Z</time>
      </trkpt>
      <trkpt lat="45.90452" lon="6.16425">
        <ele>654</ele>
        <time>2011-04-10T11:36:05Z</time>
      </trkpt>
      <trkpt lat="45.90452" lon="6.16424">
        <ele>653</ele>
        <time>2011-04-10T11:36:06Z</time>
      </trkpt>
      <trkpt lat="45.90453" lon="6.16423">
        <ele>654</ele>
        <time>2011-04-10T11:36:07Z</time>
      </trkpt>
      <trkpt lat="45.90456" lon="6.16424">
        <ele>655</ele>
        <time>2011-04-10T11:36:08Z</time>
      </trkpt>
      <trkpt lat="45.90458" lon="6.16424">
        <ele>655</ele>
        <time>2011-04-10T11:36:09Z</time>
      </trkpt>
      <trkpt lat="45.90459" lon="6.16423">
        <ele>655</ele>
        <time>2011-04-10T11:36:10Z</time>
      </trkpt>
      <trkpt lat="45.90461" lon="6.16424">
        <ele>654</ele>
        <time>2011-04-10T11:36:11Z</time>
      </trkpt>
      <trkpt lat="45.90463" lon="6.16425">
        <ele>654</ele>
        <time>2011-04-10T11:36:12Z</time>
      </trkpt>
      <trkpt lat="45.90464" lon="6.16426">
        <ele>653</ele>
        <time>2011-04-10T11:36:13Z</time>
      </trkpt>
      <trkpt lat="45.90466" lon="6.16428">
        <ele>652</ele>
        <time>2011-04-10T11:36:14Z</time>
      </trkpt>
      <trkpt lat="45.9047" lon="6.16429">
        <ele>651</ele>
        <time>2011-04-10T11:36:16Z</time>
      </trkpt>
      <trkpt lat="45.90472" lon="6.16428">
        <ele>651</ele>
        <time>2011-04-10T11:36:17Z</time>
      </trkpt>
      <trkpt lat="45.90472" lon="6.16427">
        <ele>651</ele>
        <time>2011-04-10T11:36:18Z</time>
      </trkpt>
      <trkpt lat="45.90473" lon="6.16427">
        <ele>651</ele>
        <time>2011-04-10T11:36:19Z</time>
      </trkpt>
      <trkpt lat="45.90475" lon="6.16426">
        <ele>651</ele>
        <time>2011-04-10T11:36:21Z</time>
      </trkpt>
      <trkpt lat="45.90477" lon="6.16426">
        <ele>651</ele>
        <time>2011-04-10T11:36:22Z</time>
      </trkpt>
      <trkpt lat="45.90482" lon="6.16428">
        <ele>651</ele>
        <time>2011-04-10T11:36:23Z</time>
      </trkpt>
      <trkpt lat="45.90484" lon="6.16424">
        <ele>651</ele>
        <time>2011-04-10T11:36:24Z</time>
      </trkpt>
      <trkpt lat="45.90486" lon="6.16422">
        <ele>651</ele>
        <time>2011-04-10T11:36:25Z</time>
      </trkpt>
      <trkpt lat="45.90482" lon="6.16422">
        <ele>650</ele>
        <time>2011-04-10T11:36:26Z</time>
      </trkpt>
      <trkpt lat="45.9048" lon="6.16426">
        <ele>649</ele>
        <time>2011-04-10T11:36:27Z</time>
      </trkpt>
      <trkpt lat="45.90479" lon="6.16427">
        <ele>649</ele>
        <time>2011-04-10T11:36:28Z</time>
      </trkpt>
      <trkpt lat="45.90479" lon="6.16429">
        <ele>649</ele>
        <time>2011-04-10T11:36:29Z</time>
      </trkpt>
      <trkpt lat="45.90478" lon="6.16431">
        <ele>648</ele>
        <time>2011-04-10T11:36:30Z</time>
      </trkpt>
      <trkpt lat="45.90481" lon="6.16427">
        <ele>649</ele>
        <time>2011-04-10T11:36:31Z</time>
      </trkpt>
      <trkpt lat="45.90479" lon="6.16426">
        <ele>649</ele>
        <time>2011-04-10T11:36:32Z</time>
      </trkpt>
      <trkpt lat="45.90477" lon="6.16426">
        <ele>648</ele>
        <time>2011-04-10T11:36:33Z</time>
      </trkpt>
      <trkpt lat="45.90476" lon="6.16425">
        <ele>648</ele>
        <time>2011-04-10T11:36:34Z</time>
      </trkpt>
      <trkpt lat="45.90476" lon="6.16423">
        <ele>648</ele>
        <time>2011-04-10T11:36:35Z</time>
      </trkpt>
      <trkpt lat="45.90473" lon="6.16423">
        <ele>648</ele>
        <time>2011-04-10T11:36:36Z</time>
      </trkpt>
      <trkpt lat="45.90469" lon="6.16423">
        <ele>647</ele>
        <time>2011-04-10T11:36:37Z</time>
      </trkpt>
      <trkpt lat="45.90465" lon="6.16425">
        <ele>646</ele>
        <time>2011-04-10T11:36:38Z</time>
      </trkpt>
      <trkpt lat="45.90463" lon="6.16427">
        <ele>647</ele>
        <time>2011-04-10T11:36:39Z</time>
      </trkpt>
      <trkpt lat="45.90458" lon="6.16427">
        <ele>646</ele>
        <time>2011-04-10T11:36:40Z</time>
      </trkpt>
      <trkpt lat="45.90456" lon="6.16425">
        <ele>646</ele>
        <time>2011-04-10T11:36:41Z</time>
      </trkpt>
      <trkpt lat="45.90452" lon="6.16425">
        <ele>645</ele>
        <time>2011-04-10T11:36:42Z</time>
      </trkpt>
      <trkpt lat="45.90453" lon="6.1642">
        <ele>644</ele>
        <time>2011-04-10T11:36:43Z</time>
      </trkpt>
      <trkpt lat="45.90451" lon="6.1642">
        <ele>643</ele>
        <time>2011-04-10T11:36:44Z</time>
      </trkpt>
      <trkpt lat="45.90449" lon="6.16418">
        <ele>643</ele>
        <time>2011-04-10T11:36:45Z</time>
      </trkpt>
      <trkpt lat="45.90447" lon="6.16416">
        <ele>643</ele>
        <time>2011-04-10T11:36:46Z</time>
      </trkpt>
      <trkpt lat="45.90446" lon="6.16416">
        <ele>643</ele>
        <time>2011-04-10T11:36:47Z</time>
      </trkpt>
      <trkpt lat="45.90445" lon="6.16416">
        <ele>643</ele>
        <time>2011-04-10T11:36:48Z</time>
      </trkpt>
      <trkpt lat="45.90444" lon="6.16415">
        <ele>643</ele>
        <time>2011-04-10T11:36:49Z</time>
      </trkpt>
      <trkpt lat="45.90443" lon="6.16417">
        <ele>643</ele>
        <time>2011-04-10T11:36:50Z</time>
      </trkpt>
      <trkpt lat="45.90443" lon="6.16414">
        <ele>643</ele>
        <time>2011-04-10T11:36:51Z</time>
      </trkpt>
      <trkpt lat="45.90441" lon="6.16412">
        <ele>642</ele>
        <time>2011-04-10T11:36:52Z</time>
      </trkpt>
      <trkpt lat="45.90439" lon="6.1641">
        <ele>642</ele>
        <time>2011-04-10T11:36:53Z</time>
      </trkpt>
      <trkpt lat="45.90438" lon="6.16408">
        <ele>641</ele>
        <time>2011-04-10T11:36:54Z</time>
      </trkpt>
      <trkpt lat="45.90438" lon="6.16407">
        <ele>641</ele>
        <time>2011-04-10T11:36:55Z</time>
      </trkpt>
      <trkpt lat="45.90437" lon="6.16406">
        <ele>640</ele>
        <time>2011-04-10T11:36:56Z</time>
      </trkpt>
      <trkpt lat="45.90435" lon="6.16405">
        <ele>641</ele>
        <time>2011-04-10T11:36:57Z</time>
      </trkpt>
      <trkpt lat="45.90436" lon="6.16405">
        <ele>641</ele>
        <time>2011-04-10T11:36:58Z</time>
      </trkpt>
      <trkpt lat="45.90436" lon="6.16405">
        <ele>641</ele>
        <time>2011-04-10T11:36:59Z</time>
      </trkpt>
      <trkpt lat="45.90437" lon="6.16405">
        <ele>640</ele>
        <time>2011-04-10T11:37:00Z</time>
      </trkpt>
      <trkpt lat="45.90439" lon="6.16408">
        <ele>640</ele>
        <time>2011-04-10T11:37:01Z</time>
      </trkpt>
      <trkpt lat="45.9044" lon="6.16407">
        <ele>640</ele>
        <time>2011-04-10T11:37:02Z</time>
      </trkpt>
      <trkpt lat="45.9044" lon="6.16408">
        <ele>640</ele>
        <time>2011-04-10T11:37:03Z</time>
      </trkpt>
      <trkpt lat="45.9044" lon="6.16408">
        <ele>640</ele>
        <time>2011-04-10T11:37:04Z</time>
      </trkpt>
      <trkpt lat="45.90441" lon="6.16408">
        <ele>639</ele>
        <time>2011-04-10T11:37:05Z</time>
      </trkpt>
      <trkpt lat="45.9044" lon="6.16408">
        <ele>639</ele>
        <time>2011-04-10T11:37:06Z</time>
      </trkpt>
      <trkpt lat="45.90441" lon="6.16409">
        <ele>639</ele>
        <time>2011-04-10T11:37:07Z</time>
      </trkpt>
      <trkpt lat="45.90442" lon="6.16409">
        <ele>639</ele>
        <time>2011-04-10T11:37:08Z</time>
      </trkpt>
      <trkpt lat="45.90443" lon="6.16409">
        <ele>639</ele>
        <time>2011-04-10T11:37:09Z</time>
      </trkpt>
      <trkpt lat="45.90446" lon="6.16411">
        <ele>639</ele>
        <time>2011-04-10T11:37:10Z</time>
      </trkpt>
      <trkpt lat="45.90446" lon="6.16409">
        <ele>639</ele>
        <time>2011-04-10T11:37:11Z</time>
      </trkpt>
      <trkpt lat="45.90448" lon="6.1641">
        <ele>637</ele>
        <time>2011-04-10T11:37:12Z</time>
      </trkpt>
      <trkpt lat="45.9045" lon="6.16409">
        <ele>637</ele>
        <time>2011-04-10T11:37:13Z</time>
      </trkpt>
      <trkpt lat="45.90451" lon="6.16407">
        <ele>637</ele>
        <time>2011-04-10T11:37:14Z</time>
      </trkpt>
      <trkpt lat="45.90451" lon="6.16406">
        <ele>636</ele>
        <time>2011-04-10T11:37:15Z</time>
      </trkpt>
      <trkpt lat="45.90452" lon="6.16404">
        <ele>636</ele>
        <time>2011-04-10T11:37:16Z</time>
      </trkpt>
      <trkpt lat="45.90455" lon="6.16402">
        <ele>635</ele>
        <time>2011-04-10T11:37:17Z</time>
      </trkpt>
      <trkpt lat="45.90456" lon="6.16403">
        <ele>635</ele>
        <time>2011-04-10T11:37:18Z</time>
      </trkpt>
      <trkpt lat="45.90457" lon="6.16403">
        <ele>635</ele>
        <time>2011-04-10T11:37:19Z</time>
      </trkpt>
      <trkpt lat="45.90459" lon="6.16401">
        <ele>635</ele>
        <time>2011-04-10T11:37:20Z</time>
      </trkpt>
      <trkpt lat="45.9046" lon="6.16401">
        <ele>634</ele>
        <time>2011-04-10T11:37:21Z</time>
      </trkpt>
      <trkpt lat="45.9046" lon="6.164">
        <ele>634</ele>
        <time>2011-04-10T11:37:22Z</time>
      </trkpt>
      <trkpt lat="45.90462" lon="6.16401">
        <ele>634</ele>
        <time>2011-04-10T11:37:23Z</time>
      </trkpt>
      <trkpt lat="45.90464" lon="6.16397">
        <ele>634</ele>
        <time>2011-04-10T11:37:24Z</time>
      </trkpt>
      <trkpt lat="45.90463" lon="6.16398">
        <ele>634</ele>
        <time>2011-04-10T11:37:25Z</time>
      </trkpt>
      <trkpt lat="45.90466" lon="6.16398">
        <ele>634</ele>
        <time>2011-04-10T11:37:26Z</time>
      </trkpt>
      <trkpt lat="45.90466" lon="6.16398">
        <ele>634</ele>
        <time>2011-04-10T11:37:27Z</time>
      </trkpt>
      <trkpt lat="45.90469" lon="6.16395">
        <ele>633</ele>
        <time>2011-04-10T11:37:28Z</time>
      </trkpt>
      <trkpt lat="45.9047" lon="6.16393">
        <ele>633</ele>
        <time>2011-04-10T11:37:29Z</time>
      </trkpt>
      <trkpt lat="45.90471" lon="6.16392">
        <ele>632</ele>
        <time>2011-04-10T11:37:30Z</time>
      </trkpt>
      <trkpt lat="45.90473" lon="6.16392">
        <ele>632</ele>
        <time>2011-04-10T11:37:31Z</time>
      </trkpt>
      <trkpt lat="45.90474" lon="6.16392">
        <ele>632</ele>
        <time>2011-04-10T11:37:32Z</time>
      </trkpt>
      <trkpt lat="45.90476" lon="6.1639">
        <ele>632</ele>
        <time>2011-04-10T11:37:33Z</time>
      </trkpt>
      <trkpt lat="45.90475" lon="6.16391">
        <ele>632</ele>
        <time>2011-04-10T11:37:34Z</time>
      </trkpt>
      <trkpt lat="45.90473" lon="6.16389">
        <ele>632</ele>
        <time>2011-04-10T11:37:35Z</time>
      </trkpt>
      <trkpt lat="45.90473" lon="6.16389">
        <ele>632</ele>
        <time>2011-04-10T11:37:36Z</time>
      </trkpt>
      <trkpt lat="45.90474" lon="6.16387">
        <ele>631</ele>
        <time>2011-04-10T11:37:37Z</time>
      </trkpt>
      <trkpt lat="45.90475" lon="6.16388">
        <ele>630</ele>
        <time>2011-04-10T11:37:38Z</time>
      </trkpt>
      <trkpt lat="45.90477" lon="6.16386">
        <ele>630</ele>
        <time>2011-04-10T11:37:39Z</time>
      </trkpt>
      <trkpt lat="45.90479" lon="6.16387">
        <ele>630</ele>
        <time>2011-04-10T11:37:40Z</time>
      </trkpt>
      <trkpt lat="45.90481" lon="6.16386">
        <ele>629</ele>
        <time>2011-04-10T11:37:41Z</time>
      </trkpt>
      <trkpt lat="45.90483" lon="6.16388">
        <ele>629</ele>
        <time>2011-04-10T11:37:42Z</time>
      </trkpt>
      <trkpt lat="45.90485" lon="6.1639">
        <ele>629</ele>
        <time>2011-04-10T11:37:43Z</time>
      </trkpt>
      <trkpt lat="45.9049" lon="6.16393">
        <ele>628</ele>
        <time>2011-04-10T11:37:44Z</time>
      </trkpt>
      <trkpt lat="45.90492" lon="6.16393">
        <ele>628</ele>
        <time>2011-04-10T11:37:45Z</time>
      </trkpt>
      <trkpt lat="45.90491" lon="6.16393">
        <ele>628</ele>
        <time>2011-04-10T11:37:46Z</time>
      </trkpt>
      <trkpt lat="45.90494" lon="6.16393">
        <ele>628</ele>
        <time>2011-04-10T11:37:47Z</time>
      </trkpt>
      <trkpt lat="45.90497" lon="6.16393">
        <ele>628</ele>
        <time>2011-04-10T11:37:48Z</time>
      </trkpt>
      <trkpt lat="45.90499" lon="6.16393">
        <ele>627</ele>
        <time>2011-04-10T11:37:49Z</time>
      </trkpt>
      <trkpt lat="45.905" lon="6.16394">
        <ele>627</ele>
        <time>2011-04-10T11:37:50Z</time>
      </trkpt>
      <trkpt lat="45.905" lon="6.16395">
        <ele>627</ele>
        <time>2011-04-10T11:37:51Z</time>
      </trkpt>
      <trkpt lat="45.90502" lon="6.16387">
        <ele>626</ele>
        <time>2011-04-10T11:38:16Z</time>
      </trkpt>
      <trkpt lat="45.90499" lon="6.16385">
        <ele>625</ele>
        <time>2011-04-10T11:38:17Z</time>
      </trkpt>
      <trkpt lat="45.90495" lon="6.16384">
        <ele>624</ele>
        <time>2011-04-10T11:38:18Z</time>
      </trkpt>
      <trkpt lat="45.90492" lon="6.16382">
        <ele>623</ele>
        <time>2011-04-10T11:38:19Z</time>
      </trkpt>
      <trkpt lat="45.90489" lon="6.16381">
        <ele>621</ele>
        <time>2011-04-10T11:38:20Z</time>
      </trkpt>
      <trkpt lat="45.90488" lon="6.1638">
        <ele>620</ele>
        <time>2011-04-10T11:38:21Z</time>
      </trkpt>
      <trkpt lat="45.90487" lon="6.1638">
        <ele>619</ele>
        <time>2011-04-10T11:38:22Z</time>
      </trkpt>
      <trkpt lat="45.90485" lon="6.16379">
        <ele>618</ele>
        <time>2011-04-10T11:38:23Z</time>
      </trkpt>
      <trkpt lat="45.90484" lon="6.16379">
        <ele>618</ele>
        <time>2011-04-10T11:38:24Z</time>
      </trkpt>
      <trkpt lat="45.90482" lon="6.16379">
        <ele>619</ele>
        <time>2011-04-10T11:38:25Z</time>
      </trkpt>
      <trkpt lat="45.90481" lon="6.16379">
        <ele>618</ele>
        <time>2011-04-10T11:38:26Z</time>
      </trkpt>
      <trkpt lat="45.9048" lon="6.16376">
        <ele>618</ele>
        <time>2011-04-10T11:38:27Z</time>
      </trkpt>
      <trkpt lat="45.90479" lon="6.16373">
        <ele>618</ele>
        <time>2011-04-10T11:38:28Z</time>
      </trkpt>
      <trkpt lat="45.90477" lon="6.16371">
        <ele>617</ele>
        <time>2011-04-10T11:38:29Z</time>
      </trkpt>
      <trkpt lat="45.90476" lon="6.1637">
        <ele>617</ele>
        <time>2011-04-10T11:38:30Z</time>
      </trkpt>
      <trkpt lat="45.90477" lon="6.16368">
        <ele>616</ele>
        <time>2011-04-10T11:38:31Z</time>
      </trkpt>
      <trkpt lat="45.90476" lon="6.16368">
        <ele>615</ele>
        <time>2011-04-10T11:38:32Z</time>
      </trkpt>
      <trkpt lat="45.90476" lon="6.1637">
        <ele>615</ele>
        <time>2011-04-10T11:38:33Z</time>
      </trkpt>
      <trkpt lat="45.90475" lon="6.1637">
        <ele>615</ele>
        <time>2011-04-10T11:38:34Z</time>
      </trkpt>
      <trkpt lat="45.90474" lon="6.16365">
        <ele>615</ele>
        <time>2011-04-10T11:38:35Z</time>
      </trkpt>
      <trkpt lat="45.90472" lon="6.16364">
        <ele>615</ele>
        <time>2011-04-10T11:38:36Z</time>
      </trkpt>
      <trkpt lat="45.90471" lon="6.16364">
        <ele>615</ele>
        <time>2011-04-10T11:38:37Z</time>
      </trkpt>
      <trkpt lat="45.90469" lon="6.16364">
        <ele>614</ele>
        <time>2011-04-10T11:38:38Z</time>
      </trkpt>
      <trkpt lat="45.90469" lon="6.16364">
        <ele>614</ele>
        <time>2011-04-10T11:38:39Z</time>
      </trkpt>
      <trkpt lat="45.90467" lon="6.16364">
        <ele>614</ele>
        <time>2011-04-10T11:38:40Z</time>
      </trkpt>
      <trkpt lat="45.90466" lon="6.16364">
        <ele>614</ele>
        <time>2011-04-10T11:38:41Z</time>
      </trkpt>
      <trkpt lat="45.90464" lon="6.16365">
        <ele>613</ele>
        <time>2011-04-10T11:38:42Z</time>
      </trkpt>
      <trkpt lat="45.90463" lon="6.16364">
        <ele>612</ele>
        <time>2011-04-10T11:38:43Z</time>
      </trkpt>
      <trkpt lat="45.90462" lon="6.16363">
        <ele>612</ele>
        <time>2011-04-10T11:38:44Z</time>
      </trkpt>
      <trkpt lat="45.90461" lon="6.1636">
        <ele>612</ele>
        <time>2011-04-10T11:38:45Z</time>
      </trkpt>
      <trkpt lat="45.9046" lon="6.16359">
        <ele>611</ele>
        <time>2011-04-10T11:38:46Z</time>
      </trkpt>
      <trkpt lat="45.90461" lon="6.16357">
        <ele>610</ele>
        <time>2011-04-10T11:38:47Z</time>
      </trkpt>
      <trkpt lat="45.90461" lon="6.16355">
        <ele>610</ele>
        <time>2011-04-10T11:38:48Z</time>
      </trkpt>
      <trkpt lat="45.90459" lon="6.16355">
        <ele>611</ele>
        <time>2011-04-10T11:38:49Z</time>
      </trkpt>
      <trkpt lat="45.9046" lon="6.16353">
        <ele>610</ele>
        <time>2011-04-10T11:38:50Z</time>
      </trkpt>
      <trkpt lat="45.90458" lon="6.16353">
        <ele>610</ele>
        <time>2011-04-10T11:38:51Z</time>
      </trkpt>
      <trkpt lat="45.90459" lon="6.16352">
        <ele>609</ele>
        <time>2011-04-10T11:38:52Z</time>
      </trkpt>
      <trkpt lat="45.90459" lon="6.16348">
        <ele>609</ele>
        <time>2011-04-10T11:38:53Z</time>
      </trkpt>
      <trkpt lat="45.9046" lon="6.16344">
        <ele>609</ele>
        <time>2011-04-10T11:38:54Z</time>
      </trkpt>
      <trkpt lat="45.90461" lon="6.16342">
        <ele>608</ele>
        <time>2011-04-10T11:38:55Z</time>
      </trkpt>
      <trkpt lat="45.90458" lon="6.16342">
        <ele>608</ele>
        <time>2011-04-10T11:38:56Z</time>
      </trkpt>
      <trkpt lat="45.90456" lon="6.16342">
        <ele>607</ele>
        <time>2011-04-10T11:38:57Z</time>
      </trkpt>
      <trkpt lat="45.90454" lon="6.16342">
        <ele>606</ele>
        <time>2011-04-10T11:38:58Z</time>
      </trkpt>
      <trkpt lat="45.90453" lon="6.1634">
        <ele>606</ele>
        <time>2011-04-10T11:38:59Z</time>
      </trkpt>
      <trkpt lat="45.90453" lon="6.16338">
        <ele>606</ele>
        <time>2011-04-10T11:39:00Z</time>
      </trkpt>
      <trkpt lat="45.90451" lon="6.16335">
        <ele>606</ele>
        <time>2011-04-10T11:39:02Z</time>
      </trkpt>
      <trkpt lat="45.90453" lon="6.16332">
        <ele>605</ele>
        <time>2011-04-10T11:39:43Z</time>
      </trkpt>
      <trkpt lat="45.90455" lon="6.16329">
        <ele>604</ele>
        <time>2011-04-10T11:39:44Z</time>
      </trkpt>
      <trkpt lat="45.90456" lon="6.1632">
        <ele>603</ele>
        <time>2011-04-10T11:39:45Z</time>
      </trkpt>
      <trkpt lat="45.90458" lon="6.16315">
        <ele>603</ele>
        <time>2011-04-10T11:39:46Z</time>
      </trkpt>
      <trkpt lat="45.90459" lon="6.16311">
        <ele>603</ele>
        <time>2011-04-10T11:39:47Z</time>
      </trkpt>
      <trkpt lat="45.90458" lon="6.16307">
        <ele>601</ele>
        <time>2011-04-10T11:39:48Z</time>
      </trkpt>
      <trkpt lat="45.90457" lon="6.16305">
        <ele>599</ele>
        <time>2011-04-10T11:39:49Z</time>
      </trkpt>
      <trkpt lat="45.90456" lon="6.16302">
        <ele>598</ele>
        <time>2011-04-10T11:39:50Z</time>
      </trkpt>
      <trkpt lat="45.90456" lon="6.16299">
        <ele>598</ele>
        <time>2011-04-10T11:39:51Z</time>
      </trkpt>
      <trkpt lat="45.90455" lon="6.16298">
        <ele>597</ele>
        <time>2011-04-10T11:39:52Z</time>
      </trkpt>
      <trkpt lat="45.90455" lon="6.16294">
        <ele>597</ele>
        <time>2011-04-10T11:39:53Z</time>
      </trkpt>
      <trkpt lat="45.90458" lon="6.16293">
        <ele>598</ele>
        <time>2011-04-10T11:39:54Z</time>
      </trkpt>
      <trkpt lat="45.90456" lon="6.1629">
        <ele>598</ele>
        <time>2011-04-10T11:39:55Z</time>
      </trkpt>
      <trkpt lat="45.90456" lon="6.16287">
        <ele>598</ele>
        <time>2011-04-10T11:39:56Z</time>
      </trkpt>
      <trkpt lat="45.90456" lon="6.16286">
        <ele>597</ele>
        <time>2011-04-10T11:39:57Z</time>
      </trkpt>
      <trkpt lat="45.90456" lon="6.16283">
        <ele>596</ele>
        <time>2011-04-10T11:39:58Z</time>
      </trkpt>
      <trkpt lat="45.90456" lon="6.16282">
        <ele>596</ele>
        <time>2011-04-10T11:39:59Z</time>
      </trkpt>
      <trkpt lat="45.90458" lon="6.16279">
        <ele>595</ele>
        <time>2011-04-10T11:40:00Z</time>
      </trkpt>
      <trkpt lat="45.90456" lon="6.16276">
        <ele>594</ele>
        <time>2011-04-10T11:40:02Z</time>
      </trkpt>
      <trkpt lat="45.90455" lon="6.16276">
        <ele>593</ele>
        <time>2011-04-10T11:40:03Z</time>
      </trkpt>
      <trkpt lat="45.90455" lon="6.16275">
        <ele>593</ele>
        <time>2011-04-10T11:40:04Z</time>
      </trkpt>
      <trkpt lat="45.90455" lon="6.16272">
        <ele>594</ele>
        <time>2011-04-10T11:40:05Z</time>
      </trkpt>
      <trkpt lat="45.90455" lon="6.16271">
        <ele>594</ele>
        <time>2011-04-10T11:40:06Z</time>
      </trkpt>
      <trkpt lat="45.90454" lon="6.1627">
        <ele>593</ele>
        <time>2011-04-10T11:40:07Z</time>
      </trkpt>
      <trkpt lat="45.90455" lon="6.1627">
        <ele>593</ele>
        <time>2011-04-10T11:40:08Z</time>
      </trkpt>
      <trkpt lat="45.90455" lon="6.1627">
        <ele>593</ele>
        <time>2011-04-10T11:40:09Z</time>
      </trkpt>
      <trkpt lat="45.90456" lon="6.16269">
        <ele>593</ele>
        <time>2011-04-10T11:40:10Z</time>
      </trkpt>
      <trkpt lat="45.90455" lon="6.16268">
        <ele>592</ele>
        <time>2011-04-10T11:40:11Z</time>
      </trkpt>
      <trkpt lat="45.90456" lon="6.16267">
        <ele>592</ele>
        <time>2011-04-10T11:40:12Z</time>
      </trkpt>
      <trkpt lat="45.90455" lon="6.16265">
        <ele>590</ele>
        <time>2011-04-10T11:40:13Z</time>
      </trkpt>
      <trkpt lat="45.90456" lon="6.16264">
        <ele>589</ele>
        <time>2011-04-10T11:40:14Z</time>
      </trkpt>
      <trkpt lat="45.90454" lon="6.16262">
        <ele>588</ele>
        <time>2011-04-10T11:40:15Z</time>
      </trkpt>
      <trkpt lat="45.90453" lon="6.16261">
        <ele>588</ele>
        <time>2011-04-10T11:40:16Z</time>
      </trkpt>
      <trkpt lat="45.90454" lon="6.16261">
        <ele>587</ele>
        <time>2011-04-10T11:40:17Z</time>
      </trkpt>
      <trkpt lat="45.90453" lon="6.16258">
        <ele>587</ele>
        <time>2011-04-10T11:40:18Z</time>
      </trkpt>
      <trkpt lat="45.90453" lon="6.16255">
        <ele>587</ele>
        <time>2011-04-10T11:40:19Z</time>
      </trkpt>
      <trkpt lat="45.90454" lon="6.16255">
        <ele>586</ele>
        <time>2011-04-10T11:40:20Z</time>
      </trkpt>
      <trkpt lat="45.90455" lon="6.16255">
        <ele>585</ele>
        <time>2011-04-10T11:40:21Z</time>
      </trkpt>
      <trkpt lat="45.90456" lon="6.16251">
        <ele>585</ele>
        <time>2011-04-10T11:40:22Z</time>
      </trkpt>
      <trkpt lat="45.90456" lon="6.16249">
        <ele>585</ele>
        <time>2011-04-10T11:40:23Z</time>
      </trkpt>
      <trkpt lat="45.90458" lon="6.16249">
        <ele>585</ele>
        <time>2011-04-10T11:40:24Z</time>
      </trkpt>
      <trkpt lat="45.90459" lon="6.16245">
        <ele>585</ele>
        <time>2011-04-10T11:40:25Z</time>
      </trkpt>
      <trkpt lat="45.90458" lon="6.16244">
        <ele>586</ele>
        <time>2011-04-10T11:40:26Z</time>
      </trkpt>
      <trkpt lat="45.90455" lon="6.1624">
        <ele>584</ele>
        <time>2011-04-10T11:41:07Z</time>
      </trkpt>
      <trkpt lat="45.90458" lon="6.16233">
        <ele>583</ele>
        <time>2011-04-10T11:41:08Z</time>
      </trkpt>
      <trkpt lat="45.90461" lon="6.16223">
        <ele>582</ele>
        <time>2011-04-10T11:41:09Z</time>
      </trkpt>
      <trkpt lat="45.90462" lon="6.16216">
        <ele>582</ele>
        <time>2011-04-10T11:41:10Z</time>
      </trkpt>
      <trkpt lat="45.90465" lon="6.1621">
        <ele>582</ele>
        <time>2011-04-10T11:41:11Z</time>
      </trkpt>
      <trkpt lat="45.90461" lon="6.16203">
        <ele>581</ele>
        <time>2011-04-10T11:41:12Z</time>
      </trkpt>
      <trkpt lat="45.90461" lon="6.16197">
        <ele>579</ele>
        <time>2011-04-10T11:41:13Z</time>
      </trkpt>
      <trkpt lat="45.90461" lon="6.16194">
        <ele>579</ele>
        <time>2011-04-10T11:41:14Z</time>
      </trkpt>
      <trkpt lat="45.90461" lon="6.16193">
        <ele>578</ele>
        <time>2011-04-10T11:41:15Z</time>
      </trkpt>
      <trkpt lat="45.9046" lon="6.16188">
        <ele>578</ele>
        <time>2011-04-10T11:41:16Z</time>
      </trkpt>
      <trkpt lat="45.90461" lon="6.16187">
        <ele>577</ele>
        <time>2011-04-10T11:41:17Z</time>
      </trkpt>
      <trkpt lat="45.9046" lon="6.16185">
        <ele>578</ele>
        <time>2011-04-10T11:41:18Z</time>
      </trkpt>
      <trkpt lat="45.90459" lon="6.16182">
        <ele>578</ele>
        <time>2011-04-10T11:41:19Z</time>
      </trkpt>
      <trkpt lat="45.90459" lon="6.16178">
        <ele>578</ele>
        <time>2011-04-10T11:41:20Z</time>
      </trkpt>
      <trkpt lat="45.90459" lon="6.16176">
        <ele>578</ele>
        <time>2011-04-10T11:41:21Z</time>
      </trkpt>
      <trkpt lat="45.90457" lon="6.16173">
        <ele>578</ele>
        <time>2011-04-10T11:41:22Z</time>
      </trkpt>
      <trkpt lat="45.90455" lon="6.16171">
        <ele>578</ele>
        <time>2011-04-10T11:41:23Z</time>
      </trkpt>
      <trkpt lat="45.9045" lon="6.16165">
        <ele>576</ele>
        <time>2011-04-10T11:41:32Z</time>
      </trkpt>
      <trkpt lat="45.90448" lon="6.16164">
        <ele>577</ele>
        <time>2011-04-10T11:41:33Z</time>
      </trkpt>
      <trkpt lat="45.90448" lon="6.16159">
        <ele>576</ele>
        <time>2011-04-10T11:41:34Z</time>
      </trkpt>
      <trkpt lat="45.90446" lon="6.16157">
        <ele>576</ele>
        <time>2011-04-10T11:41:35Z</time>
      </trkpt>
      <trkpt lat="45.90446" lon="6.16155">
        <ele>576</ele>
        <time>2011-04-10T11:41:36Z</time>
      </trkpt>
      <trkpt lat="45.90445" lon="6.16153">
        <ele>576</ele>
        <time>2011-04-10T11:41:37Z</time>
      </trkpt>
      <trkpt lat="45.90445" lon="6.1615">
        <ele>575</ele>
        <time>2011-04-10T11:41:38Z</time>
      </trkpt>
      <trkpt lat="45.90445" lon="6.16148">
        <ele>574</ele>
        <time>2011-04-10T11:41:39Z</time>
      </trkpt>
      <trkpt lat="45.90444" lon="6.16147">
        <ele>574</ele>
        <time>2011-04-10T11:41:40Z</time>
      </trkpt>
      <trkpt lat="45.90442" lon="6.16146">
        <ele>574</ele>
        <time>2011-04-10T11:41:41Z</time>
      </trkpt>
      <trkpt lat="45.9044" lon="6.16145">
        <ele>575</ele>
        <time>2011-04-10T11:41:42Z</time>
      </trkpt>
      <trkpt lat="45.9044" lon="6.16144">
        <ele>575</ele>
        <time>2011-04-10T11:41:43Z</time>
      </trkpt>
      <trkpt lat="45.90439" lon="6.16143">
        <ele>575</ele>
        <time>2011-04-10T11:41:44Z</time>
      </trkpt>
      <trkpt lat="45.90438" lon="6.16143">
        <ele>575</ele>
        <time>2011-04-10T11:41:45Z</time>
      </trkpt>
      <trkpt lat="45.90436" lon="6.16141">
        <ele>575</ele>
        <time>2011-04-10T11:41:46Z</time>
      </trkpt>
      <trkpt lat="45.90436" lon="6.16138">
        <ele>575</ele>
        <time>2011-04-10T11:41:47Z</time>
      </trkpt>
      <trkpt lat="45.90434" lon="6.16136">
        <ele>574</ele>
        <time>2011-04-10T11:41:48Z</time>
      </trkpt>
      <trkpt lat="45.90433" lon="6.16135">
        <ele>574</ele>
        <time>2011-04-10T11:41:49Z</time>
      </trkpt>
      <trkpt lat="45.90432" lon="6.16134">
        <ele>574</ele>
        <time>2011-04-10T11:41:50Z</time>
      </trkpt>
      <trkpt lat="45.9043" lon="6.16132">
        <ele>574</ele>
        <time>2011-04-10T11:41:51Z</time>
      </trkpt>
      <trkpt lat="45.90429" lon="6.1613">
        <ele>573</ele>
        <time>2011-04-10T11:41:52Z</time>
      </trkpt>
      <trkpt lat="45.9043" lon="6.1613">
        <ele>574</ele>
        <time>2011-04-10T11:41:53Z</time>
      </trkpt>
      <trkpt lat="45.90431" lon="6.16129">
        <ele>573</ele>
        <time>2011-04-10T11:41:54Z</time>
      </trkpt>
      <trkpt lat="45.9043" lon="6.16124">
        <ele>573</ele>
        <time>2011-04-10T11:41:55Z</time>
      </trkpt>
      <trkpt lat="45.90429" lon="6.16124">
        <ele>573</ele>
        <time>2011-04-10T11:41:56Z</time>
      </trkpt>
      <trkpt lat="45.90426" lon="6.16125">
        <ele>571</ele>
        <time>2011-04-10T11:41:57Z</time>
      </trkpt>
      <trkpt lat="45.90424" lon="6.16123">
        <ele>571</ele>
        <time>2011-04-10T11:41:59Z</time>
      </trkpt>
      <trkpt lat="45.90423" lon="6.16116">
        <ele>568</ele>
        <time>2011-04-10T11:42:29Z</time>
      </trkpt>
      <trkpt lat="45.90421" lon="6.16108">
        <ele>567</ele>
        <time>2011-04-10T11:42:30Z</time>
      </trkpt>
      <trkpt lat="45.90417" lon="6.161">
        <ele>568</ele>
        <time>2011-04-10T11:42:31Z</time>
      </trkpt>
      <trkpt lat="45.90416" lon="6.16095">
        <ele>568</ele>
        <time>2011-04-10T11:42:32Z</time>
      </trkpt>
      <trkpt lat="45.90414" lon="6.16091">
        <ele>567</ele>
        <time>2011-04-10T11:42:33Z</time>
      </trkpt>
      <trkpt lat="45.90412" lon="6.16087">
        <ele>567</ele>
        <time>2011-04-10T11:42:34Z</time>
      </trkpt>
      <trkpt lat="45.90412" lon="6.16084">
        <ele>567</ele>
        <time>2011-04-10T11:42:35Z</time>
      </trkpt>
      <trkpt lat="45.90411" lon="6.1608">
        <ele>567</ele>
        <time>2011-04-10T11:42:36Z</time>
      </trkpt>
      <trkpt lat="45.90409" lon="6.16077">
        <ele>566</ele>
        <time>2011-04-10T11:42:37Z</time>
      </trkpt>
      <trkpt lat="45.90408" lon="6.16071">
        <ele>565</ele>
        <time>2011-04-10T11:42:38Z</time>
      </trkpt>
      <trkpt lat="45.90408" lon="6.16067">
        <ele>565</ele>
        <time>2011-04-10T11:42:39Z</time>
      </trkpt>
      <trkpt lat="45.90408" lon="6.16064">
        <ele>564</ele>
        <time>2011-04-10T11:42:40Z</time>
      </trkpt>
      <trkpt lat="45.90407" lon="6.16061">
        <ele>565</ele>
        <time>2011-04-10T11:42:41Z</time>
      </trkpt>
      <trkpt lat="45.90406" lon="6.16051">
        <ele>561</ele>
        <time>2011-04-10T11:43:03Z</time>
      </trkpt>
      <trkpt lat="45.90406" lon="6.16045">
        <ele>561</ele>
        <time>2011-04-10T11:43:04Z</time>
      </trkpt>
      <trkpt lat="45.90403" lon="6.16039">
        <ele>560</ele>
        <time>2011-04-10T11:43:05Z</time>
      </trkpt>
      <trkpt lat="45.904" lon="6.16035">
        <ele>559</ele>
        <time>2011-04-10T11:43:06Z</time>
      </trkpt>
      <trkpt lat="45.90399" lon="6.16032">
        <ele>558</ele>
        <time>2011-04-10T11:43:07Z</time>
      </trkpt>
      <trkpt lat="45.90398" lon="6.16028">
        <ele>557</ele>
        <time>2011-04-10T11:43:08Z</time>
      </trkpt>
      <trkpt lat="45.90398" lon="6.16026">
        <ele>557</ele>
        <time>2011-04-10T11:43:09Z</time>
      </trkpt>
      <trkpt lat="45.90398" lon="6.16025">
        <ele>557</ele>
        <time>2011-04-10T11:43:10Z</time>
      </trkpt>
      <trkpt lat="45.90397" lon="6.1599">
        <ele>554</ele>
        <time>2011-04-10T11:47:07Z</time>
      </trkpt>
      <trkpt lat="45.904" lon="6.15987">
        <ele>552</ele>
        <time>2011-04-10T11:47:08Z</time>
      </trkpt>
      <trkpt lat="45.904" lon="6.15984">
        <ele>550</ele>
        <time>2011-04-10T11:47:09Z</time>
      </trkpt>
      <trkpt lat="45.90401" lon="6.15987">
        <ele>547</ele>
        <time>2011-04-10T11:47:10Z</time>
      </trkpt>
      <trkpt lat="45.90404" lon="6.15988">
        <ele>547</ele>
        <time>2011-04-10T11:47:11Z</time>
      </trkpt>
      <trkpt lat="45.90406" lon="6.15989">
        <ele>545</ele>
        <time>2011-04-10T11:47:12Z</time>
      </trkpt>
      <trkpt lat="45.90408" lon="6.1599">
        <ele>542</ele>
        <time>2011-04-10T11:47:13Z</time>
      </trkpt>
      <trkpt lat="45.90409" lon="6.15991">
        <ele>541</ele>
        <time>2011-04-10T11:47:14Z</time>
      </trkpt>
      <trkpt lat="45.90411" lon="6.1599">
        <ele>538</ele>
        <time>2011-04-10T11:47:15Z</time>
      </trkpt>
      <trkpt lat="45.90412" lon="6.15988">
        <ele>538</ele>
        <time>2011-04-10T11:47:16Z</time>
      </trkpt>
      <trkpt lat="45.90414" lon="6.15988">
        <ele>536</ele>
        <time>2011-04-10T11:47:17Z</time>
      </trkpt>
      <trkpt lat="45.90415" lon="6.15988">
        <ele>538</ele>
        <time>2011-04-10T11:47:18Z</time>
      </trkpt>
      <trkpt lat="45.90421" lon="6.15989">
        <ele>531</ele>
        <time>2011-04-10T11:47:48Z</time>
      </trkpt>
      <trkpt lat="45.90426" lon="6.15985">
        <ele>532</ele>
        <time>2011-04-10T11:47:49Z</time>
      </trkpt>
      <trkpt lat="45.90445" lon="6.15967">
        <ele>525</ele>
        <time>2011-04-10T11:48:02Z</time>
      </trkpt>
      <trkpt lat="45.90449" lon="6.15965">
        <ele>526</ele>
        <time>2011-04-10T11:48:03Z</time>
      </trkpt>
      <trkpt lat="45.90454" lon="6.1596">
        <ele>523</ele>
        <time>2011-04-10T11:48:04Z</time>
      </trkpt>
      <trkpt lat="45.90461" lon="6.15956">
        <ele>523</ele>
        <time>2011-04-10T11:48:05Z</time>
      </trkpt>
      <trkpt lat="45.90467" lon="6.15952">
        <ele>522</ele>
        <time>2011-04-10T11:48:06Z</time>
      </trkpt>
      <trkpt lat="45.9047" lon="6.15951">
        <ele>521</ele>
        <time>2011-04-10T11:48:07Z</time>
      </trkpt>
      <trkpt lat="45.90474" lon="6.15946">
        <ele>520</ele>
        <time>2011-04-10T11:48:08Z</time>
      </trkpt>
      <trkpt lat="45.90477" lon="6.15944">
        <ele>518</ele>
        <time>2011-04-10T11:48:09Z</time>
      </trkpt>
      <trkpt lat="45.90478" lon="6.15941">
        <ele>519</ele>
        <time>2011-04-10T11:48:10Z</time>
      </trkpt>
      <trkpt lat="45.9048" lon="6.1594">
        <ele>519</ele>
        <time>2011-04-10T11:48:11Z</time>
      </trkpt>
      <trkpt lat="45.90482" lon="6.15938">
        <ele>519</ele>
        <time>2011-04-10T11:48:12Z</time>
      </trkpt>
      <trkpt lat="45.90484" lon="6.15937">
        <ele>519</ele>
        <time>2011-04-10T11:48:13Z</time>
      </trkpt>
      <trkpt lat="45.90486" lon="6.15935">
        <ele>520</ele>
        <time>2011-04-10T11:48:14Z</time>
      </trkpt>
      <trkpt lat="45.90487" lon="6.15933">
        <ele>520</ele>
        <time>2011-04-10T11:48:15Z</time>
      </trkpt>
      <trkpt lat="45.90489" lon="6.15932">
        <ele>520</ele>
        <time>2011-04-10T11:48:16Z</time>
      </trkpt>
      <trkpt lat="45.90492" lon="6.15929">
        <ele>521</ele>
        <time>2011-04-10T11:48:17Z</time>
      </trkpt>
      <trkpt lat="45.90493" lon="6.15929">
        <ele>521</ele>
        <time>2011-04-10T11:48:18Z</time>
      </trkpt>
      <trkpt lat="45.90496" lon="6.15929">
        <ele>521</ele>
        <time>2011-04-10T11:48:19Z</time>
      </trkpt>
      <trkpt lat="45.90496" lon="6.15929">
        <ele>521</ele>
        <time>2011-04-10T11:48:20Z</time>
      </trkpt>
      <trkpt lat="45.90498" lon="6.15928">
        <ele>521</ele>
        <time>2011-04-10T11:48:21Z</time>
      </trkpt>
      <trkpt lat="45.905" lon="6.15925">
        <ele>520</ele>
        <time>2011-04-10T11:48:22Z</time>
      </trkpt>
      <trkpt lat="45.905" lon="6.15924">
        <ele>520</ele>
        <time>2011-04-10T11:48:23Z</time>
      </trkpt>
      <trkpt lat="45.90502" lon="6.15923">
        <ele>519</ele>
        <time>2011-04-10T11:48:24Z</time>
      </trkpt>
      <trkpt lat="45.90504" lon="6.15922">
        <ele>518</ele>
        <time>2011-04-10T11:48:25Z</time>
      </trkpt>
      <trkpt lat="45.90505" lon="6.15921">
        <ele>518</ele>
        <time>2011-04-10T11:48:26Z</time>
      </trkpt>
      <trkpt lat="45.90506" lon="6.15919">
        <ele>518</ele>
        <time>2011-04-10T11:48:27Z</time>
      </trkpt>
      <trkpt lat="45.9051" lon="6.15915">
        <ele>514</ele>
        <time>2011-04-10T11:48:28Z</time>
      </trkpt>
      <trkpt lat="45.90512" lon="6.15915">
        <ele>513</ele>
        <time>2011-04-10T11:48:29Z</time>
      </trkpt>
      <trkpt lat="45.90514" lon="6.15912">
        <ele>510</ele>
        <time>2011-04-10T11:48:30Z</time>
      </trkpt>
      <trkpt lat="45.90516" lon="6.15912">
        <ele>510</ele>
        <time>2011-04-10T11:48:31Z</time>
      </trkpt>
      <trkpt lat="45.90518" lon="6.15911">
        <ele>509</ele>
        <time>2011-04-10T11:48:32Z</time>
      </trkpt>
      <trkpt lat="45.9052" lon="6.15912">
        <ele>506</ele>
        <time>2011-04-10T11:48:33Z</time>
      </trkpt>
      <trkpt lat="45.90521" lon="6.1591">
        <ele>506</ele>
        <time>2011-04-10T11:48:34Z</time>
      </trkpt>
      <trkpt lat="45.90521" lon="6.1591">
        <ele>505</ele>
        <time>2011-04-10T11:48:35Z</time>
      </trkpt>
      <trkpt lat="45.90522" lon="6.15912">
        <ele>504</ele>
        <time>2011-04-10T11:48:36Z</time>
      </trkpt>
      <trkpt lat="45.90524" lon="6.15912">
        <ele>503</ele>
        <time>2011-04-10T11:48:37Z</time>
      </trkpt>
      <trkpt lat="45.90525" lon="6.15912">
        <ele>503</ele>
        <time>2011-04-10T11:48:38Z</time>
      </trkpt>
      <trkpt lat="45.90526" lon="6.1591">
        <ele>501</ele>
        <time>2011-04-10T11:48:39Z</time>
      </trkpt>
      <trkpt lat="45.90526" lon="6.15909">
        <ele>501</ele>
        <time>2011-04-10T11:48:40Z</time>
      </trkpt>
      <trkpt lat="45.90527" lon="6.15906">
        <ele>499</ele>
        <time>2011-04-10T11:48:42Z</time>
      </trkpt>
      <trkpt lat="45.90529" lon="6.15905">
        <ele>500</ele>
        <time>2011-04-10T11:48:43Z</time>
      </trkpt>
      <trkpt lat="45.90531" lon="6.15904">
        <ele>498</ele>
        <time>2011-04-10T11:48:44Z</time>
      </trkpt>
      <trkpt lat="45.90532" lon="6.15903">
        <ele>497</ele>
        <time>2011-04-10T11:48:45Z</time>
      </trkpt>
      <trkpt lat="45.90533" lon="6.15903">
        <ele>496</ele>
        <time>2011-04-10T11:48:46Z</time>
      </trkpt>
      <trkpt lat="45.90534" lon="6.15897">
        <ele>496</ele>
        <time>2011-04-10T11:48:48Z</time>
      </trkpt>
      <trkpt lat="45.90535" lon="6.15897">
        <ele>495</ele>
        <time>2011-04-10T11:48:49Z</time>
      </trkpt>
      <trkpt lat="45.90535" lon="6.15896">
        <ele>495</ele>
        <time>2011-04-10T11:48:50Z</time>
      </trkpt>
      <trkpt lat="45.90536" lon="6.15895">
        <ele>494</ele>
        <time>2011-04-10T11:48:51Z</time>
      </trkpt>
      <trkpt lat="45.90536" lon="6.15894">
        <ele>494</ele>
        <time>2011-04-10T11:48:52Z</time>
      </trkpt>
      <trkpt lat="45.90538" lon="6.15893">
        <ele>495</ele>
        <time>2011-04-10T11:48:53Z</time>
      </trkpt>
      <trkpt lat="45.90539" lon="6.15893">
        <ele>496</ele>
        <time>2011-04-10T11:48:54Z</time>
      </trkpt>
      <trkpt lat="45.9054" lon="6.15891">
        <ele>496</ele>
        <time>2011-04-10T11:48:55Z</time>
      </trkpt>
      <trkpt lat="45.90541" lon="6.15889">
        <ele>496</ele>
        <time>2011-04-10T11:48:56Z</time>
      </trkpt>
      <trkpt lat="45.90543" lon="6.15887">
        <ele>497</ele>
        <time>2011-04-10T11:48:57Z</time>
      </trkpt>
      <trkpt lat="45.90543" lon="6.15885">
        <ele>496</ele>
        <time>2011-04-10T11:48:58Z</time>
      </trkpt>
      <trkpt lat="45.90543" lon="6.15882">
        <ele>496</ele>
        <time>2011-04-10T11:48:59Z</time>
      </trkpt>
      <trkpt lat="45.90545" lon="6.15881">
        <ele>497</ele>
        <time>2011-04-10T11:49:00Z</time>
      </trkpt>
      <trkpt lat="45.90547" lon="6.15881">
        <ele>497</ele>
        <time>2011-04-10T11:49:01Z</time>
      </trkpt>
      <trkpt lat="45.90548" lon="6.15879">
        <ele>497</ele>
        <time>2011-04-10T11:49:02Z</time>
      </trkpt>
      <trkpt lat="45.9055" lon="6.15879">
        <ele>497</ele>
        <time>2011-04-10T11:49:03Z</time>
      </trkpt>
      <trkpt lat="45.9055" lon="6.15878">
        <ele>497</ele>
        <time>2011-04-10T11:49:04Z</time>
      </trkpt>
      <trkpt lat="45.90552" lon="6.15878">
        <ele>497</ele>
        <time>2011-04-10T11:49:05Z</time>
      </trkpt>
      <trkpt lat="45.90554" lon="6.15878">
        <ele>498</ele>
        <time>2011-04-10T11:49:13Z</time>
      </trkpt>
      <trkpt lat="45.90556" lon="6.15877">
        <ele>498</ele>
        <time>2011-04-10T11:49:14Z</time>
      </trkpt>
      <trkpt lat="45.90556" lon="6.15873">
        <ele>498</ele>
        <time>2011-04-10T11:49:15Z</time>
      </trkpt>
      <trkpt lat="45.90557" lon="6.15871">
        <ele>498</ele>
        <time>2011-04-10T11:49:16Z</time>
      </trkpt>
      <trkpt lat="45.90558" lon="6.15868">
        <ele>498</ele>
        <time>2011-04-10T11:49:17Z</time>
      </trkpt>
      <trkpt lat="45.90558" lon="6.15865">
        <ele>497</ele>
        <time>2011-04-10T11:49:18Z</time>
      </trkpt>
      <trkpt lat="45.90558" lon="6.15863">
        <ele>497</ele>
        <time>2011-04-10T11:49:19Z</time>
      </trkpt>
      <trkpt lat="45.90558" lon="6.1586">
        <ele>497</ele>
        <time>2011-04-10T11:49:20Z</time>
      </trkpt>
      <trkpt lat="45.90561" lon="6.15857">
        <ele>497</ele>
        <time>2011-04-10T11:49:21Z</time>
      </trkpt>
      <trkpt lat="45.90561" lon="6.15856">
        <ele>496</ele>
        <time>2011-04-10T11:49:22Z</time>
      </trkpt>
      <trkpt lat="45.90563" lon="6.15855">
        <ele>496</ele>
        <time>2011-04-10T11:49:23Z</time>
      </trkpt>
      <trkpt lat="45.90564" lon="6.15853">
        <ele>496</ele>
        <time>2011-04-10T11:49:24Z</time>
      </trkpt>
      <trkpt lat="45.90564" lon="6.15852">
        <ele>496</ele>
        <time>2011-04-10T11:49:25Z</time>
      </trkpt>
      <trkpt lat="45.90566" lon="6.15851">
        <ele>495</ele>
        <time>2011-04-10T11:49:26Z</time>
      </trkpt>
      <trkpt lat="45.90568" lon="6.15849">
        <ele>496</ele>
        <time>2011-04-10T11:49:27Z</time>
      </trkpt>
      <trkpt lat="45.9057" lon="6.15848">
        <ele>496</ele>
        <time>2011-04-10T11:49:28Z</time>
      </trkpt>
      <trkpt lat="45.90572" lon="6.15846">
        <ele>497</ele>
        <time>2011-04-10T11:49:29Z</time>
      </trkpt>
      <trkpt lat="45.90572" lon="6.15844">
        <ele>497</ele>
        <time>2011-04-10T11:49:30Z</time>
      </trkpt>
      <trkpt lat="45.90574" lon="6.15845">
        <ele>497</ele>
        <time>2011-04-10T11:49:31Z</time>
      </trkpt>
      <trkpt lat="45.90577" lon="6.15845">
        <ele>497</ele>
        <time>2011-04-10T11:49:32Z</time>
      </trkpt>
      <trkpt lat="45.90574" lon="6.15845">
        <ele>497</ele>
        <time>2011-04-10T11:49:33Z</time>
      </trkpt>
      <trkpt lat="45.90576" lon="6.15847">
        <ele>497</ele>
        <time>2011-04-10T11:49:34Z</time>
      </trkpt>
      <trkpt lat="45.90577" lon="6.15848">
        <ele>497</ele>
        <time>2011-04-10T11:49:35Z</time>
      </trkpt>
      <trkpt lat="45.90577" lon="6.15849">
        <ele>496</ele>
        <time>2011-04-10T11:49:36Z</time>
      </trkpt>
      <trkpt lat="45.90577" lon="6.15847">
        <ele>496</ele>
        <time>2011-04-10T11:49:37Z</time>
      </trkpt>
      <trkpt lat="45.90579" lon="6.15849">
        <ele>496</ele>
        <time>2011-04-10T11:49:38Z</time>
      </trkpt>
      <trkpt lat="45.90579" lon="6.15849">
        <ele>496</ele>
        <time>2011-04-10T11:49:39Z</time>
      </trkpt>
      <trkpt lat="45.9058" lon="6.1585">
        <ele>496</ele>
        <time>2011-04-10T11:49:40Z</time>
      </trkpt>
      <trkpt lat="45.90582" lon="6.15851">
        <ele>496</ele>
        <time>2011-04-10T11:49:41Z</time>
      </trkpt>
      <trkpt lat="45.90583" lon="6.1585">
        <ele>496</ele>
        <time>2011-04-10T11:49:42Z</time>
      </trkpt>
      <trkpt lat="45.90585" lon="6.1585">
        <ele>495</ele>
        <time>2011-04-10T11:49:43Z</time>
      </trkpt>
      <trkpt lat="45.90587" lon="6.15845">
        <ele>494</ele>
        <time>2011-04-10T11:49:44Z</time>
      </trkpt>
      <trkpt lat="45.90587" lon="6.15845">
        <ele>494</ele>
        <time>2011-04-10T11:49:45Z</time>
      </trkpt>
      <trkpt lat="45.90588" lon="6.15843">
        <ele>495</ele>
        <time>2011-04-10T11:49:46Z</time>
      </trkpt>
      <trkpt lat="45.90589" lon="6.15844">
        <ele>494</ele>
        <time>2011-04-10T11:49:47Z</time>
      </trkpt>
      <trkpt lat="45.9059" lon="6.15843">
        <ele>494</ele>
        <time>2011-04-10T11:49:48Z</time>
      </trkpt>
      <trkpt lat="45.90593" lon="6.15841">
        <ele>493</ele>
        <time>2011-04-10T11:49:49Z</time>
      </trkpt>
      <trkpt lat="45.90594" lon="6.15838">
        <ele>494</ele>
        <time>2011-04-10T11:49:50Z</time>
      </trkpt>
      <trkpt lat="45.90593" lon="6.15836">
        <ele>494</ele>
        <time>2011-04-10T11:49:51Z</time>
      </trkpt>
      <trkpt lat="45.90593" lon="6.15835">
        <ele>494</ele>
        <time>2011-04-10T11:49:52Z</time>
      </trkpt>
      <trkpt lat="45.90593" lon="6.15832">
        <ele>493</ele>
        <time>2011-04-10T11:49:53Z</time>
      </trkpt>
      <trkpt lat="45.90593" lon="6.1583">
        <ele>494</ele>
        <time>2011-04-10T11:49:54Z</time>
      </trkpt>
      <trkpt lat="45.90593" lon="6.15828">
        <ele>495</ele>
        <time>2011-04-10T11:49:55Z</time>
      </trkpt>
      <trkpt lat="45.90593" lon="6.15826">
        <ele>495</ele>
        <time>2011-04-10T11:49:56Z</time>
      </trkpt>
      <trkpt lat="45.90593" lon="6.15823">
        <ele>494</ele>
        <time>2011-04-10T11:49:57Z</time>
      </trkpt>
      <trkpt lat="45.90593" lon="6.1582">
        <ele>494</ele>
        <time>2011-04-10T11:49:58Z</time>
      </trkpt>
      <trkpt lat="45.90593" lon="6.15819">
        <ele>493</ele>
        <time>2011-04-10T11:49:59Z</time>
      </trkpt>
      <trkpt lat="45.90594" lon="6.15817">
        <ele>493</ele>
        <time>2011-04-10T11:50:00Z</time>
      </trkpt>
      <trkpt lat="45.90593" lon="6.15812">
        <ele>494</ele>
        <time>2011-04-10T11:50:02Z</time>
      </trkpt>
      <trkpt lat="45.90594" lon="6.15809">
        <ele>494</ele>
        <time>2011-04-10T11:50:03Z</time>
      </trkpt>
      <trkpt lat="45.90594" lon="6.15807">
        <ele>495</ele>
        <time>2011-04-10T11:50:04Z</time>
      </trkpt>
      <trkpt lat="45.90595" lon="6.15806">
        <ele>495</ele>
        <time>2011-04-10T11:50:05Z</time>
      </trkpt>
      <trkpt lat="45.90595" lon="6.15803">
        <ele>495</ele>
        <time>2011-04-10T11:50:06Z</time>
      </trkpt>
      <trkpt lat="45.90596" lon="6.15801">
        <ele>496</ele>
        <time>2011-04-10T11:50:07Z</time>
      </trkpt>
      <trkpt lat="45.90598" lon="6.158">
        <ele>496</ele>
        <time>2011-04-10T11:50:08Z</time>
      </trkpt>
      <trkpt lat="45.90598" lon="6.15798">
        <ele>497</ele>
        <time>2011-04-10T11:50:09Z</time>
      </trkpt>
      <trkpt lat="45.906" lon="6.15797">
        <ele>496</ele>
        <time>2011-04-10T11:50:10Z</time>
      </trkpt>
      <trkpt lat="45.90601" lon="6.15796">
        <ele>497</ele>
        <time>2011-04-10T11:50:11Z</time>
      </trkpt>
      <trkpt lat="45.90602" lon="6.15796">
        <ele>497</ele>
        <time>2011-04-10T11:50:12Z</time>
      </trkpt>
      <trkpt lat="45.90602" lon="6.15795">
        <ele>497</ele>
        <time>2011-04-10T11:50:13Z</time>
      </trkpt>
      <trkpt lat="45.90604" lon="6.15793">
        <ele>497</ele>
        <time>2011-04-10T11:50:14Z</time>
      </trkpt>
      <trkpt lat="45.90605" lon="6.15793">
        <ele>497</ele>
        <time>2011-04-10T11:50:15Z</time>
      </trkpt>
      <trkpt lat="45.90607" lon="6.15791">
        <ele>498</ele>
        <time>2011-04-10T11:50:16Z</time>
      </trkpt>
      <trkpt lat="45.90608" lon="6.1579">
        <ele>498</ele>
        <time>2011-04-10T11:50:17Z</time>
      </trkpt>
      <trkpt lat="45.90608" lon="6.15789">
        <ele>498</ele>
        <time>2011-04-10T11:50:18Z</time>
      </trkpt>
      <trkpt lat="45.9061" lon="6.15789">
        <ele>499</ele>
        <time>2011-04-10T11:50:19Z</time>
      </trkpt>
      <trkpt lat="45.90611" lon="6.15787">
        <ele>500</ele>
        <time>2011-04-10T11:50:20Z</time>
      </trkpt>
      <trkpt lat="45.90612" lon="6.15787">
        <ele>500</ele>
        <time>2011-04-10T11:50:21Z</time>
      </trkpt>
      <trkpt lat="45.90612" lon="6.15787">
        <ele>500</ele>
        <time>2011-04-10T11:50:25Z</time>
      </trkpt>
      <trkpt lat="45.90612" lon="6.15788">
        <ele>500</ele>
        <time>2011-04-10T11:50:26Z</time>
      </trkpt>
      <trkpt lat="45.90614" lon="6.15788">
        <ele>500</ele>
        <time>2011-04-10T11:50:27Z</time>
      </trkpt>
      <trkpt lat="45.90614" lon="6.15787">
        <ele>500</ele>
        <time>2011-04-10T11:50:28Z</time>
      </trkpt>
      <trkpt lat="45.90616" lon="6.15786">
        <ele>500</ele>
        <time>2011-04-10T11:50:29Z</time>
      </trkpt>
      <trkpt lat="45.90617" lon="6.15786">
        <ele>499</ele>
        <time>2011-04-10T11:50:30Z</time>
      </trkpt>
      <trkpt lat="45.90619" lon="6.15786">
        <ele>498</ele>
        <time>2011-04-10T11:50:31Z</time>
      </trkpt>
      <trkpt lat="45.9062" lon="6.15785">
        <ele>498</ele>
        <time>2011-04-10T11:50:32Z</time>
      </trkpt>
      <trkpt lat="45.90622" lon="6.15783">
        <ele>499</ele>
        <time>2011-04-10T11:50:33Z</time>
      </trkpt>
      <trkpt lat="45.90623" lon="6.15781">
        <ele>500</ele>
        <time>2011-04-10T11:50:34Z</time>
      </trkpt>
      <trkpt lat="45.90625" lon="6.15778">
        <ele>500</ele>
        <time>2011-04-10T11:50:35Z</time>
      </trkpt>
      <trkpt lat="45.90626" lon="6.15775">
        <ele>499</ele>
        <time>2011-04-10T11:50:36Z</time>
      </trkpt>
      <trkpt lat="45.90626" lon="6.15773">
        <ele>500</ele>
        <time>2011-04-10T11:50:37Z</time>
      </trkpt>
      <trkpt lat="45.90627" lon="6.15771">
        <ele>499</ele>
        <time>2011-04-10T11:50:38Z</time>
      </trkpt>
      <trkpt lat="45.90627" lon="6.15768">
        <ele>500</ele>
        <time>2011-04-10T11:50:39Z</time>
      </trkpt>
      <trkpt lat="45.90627" lon="6.15766">
        <ele>499</ele>
        <time>2011-04-10T11:50:40Z</time>
      </trkpt>
      <trkpt lat="45.90627" lon="6.15764">
        <ele>499</ele>
        <time>2011-04-10T11:50:41Z</time>
      </trkpt>
      <trkpt lat="45.90626" lon="6.15763">
        <ele>498</ele>
        <time>2011-04-10T11:50:42Z</time>
      </trkpt>
      <trkpt lat="45.90625" lon="6.15761">
        <ele>497</ele>
        <time>2011-04-10T11:50:43Z</time>
      </trkpt>
      <trkpt lat="45.90625" lon="6.1576">
        <ele>497</ele>
        <time>2011-04-10T11:50:44Z</time>
      </trkpt>
      <trkpt lat="45.90625" lon="6.15758">
        <ele>497</ele>
        <time>2011-04-10T11:50:45Z</time>
      </trkpt>
      <trkpt lat="45.90625" lon="6.15756">
        <ele>498</ele>
        <time>2011-04-10T11:50:46Z</time>
      </trkpt>
      <trkpt lat="45.90625" lon="6.15755">
        <ele>498</ele>
        <time>2011-04-10T11:50:47Z</time>
      </trkpt>
      <trkpt lat="45.90624" lon="6.15754">
        <ele>498</ele>
        <time>2011-04-10T11:50:48Z</time>
      </trkpt>
      <trkpt lat="45.90624" lon="6.15754">
        <ele>498</ele>
        <time>2011-04-10T11:50:49Z</time>
      </trkpt>
      <trkpt lat="45.90626" lon="6.15753">
        <ele>498</ele>
        <time>2011-04-10T11:50:50Z</time>
      </trkpt>
      <trkpt lat="45.90627" lon="6.15753">
        <ele>498</ele>
        <time>2011-04-10T11:50:51Z</time>
      </trkpt>
      <trkpt lat="45.90628" lon="6.15752">
        <ele>498</ele>
        <time>2011-04-10T11:50:52Z</time>
      </trkpt>
      <trkpt lat="45.90628" lon="6.15751">
        <ele>498</ele>
        <time>2011-04-10T11:50:53Z</time>
      </trkpt>
      <trkpt lat="45.90629" lon="6.15749">
        <ele>498</ele>
        <time>2011-04-10T11:50:54Z</time>
      </trkpt>
      <trkpt lat="45.90629" lon="6.15749">
        <ele>498</ele>
        <time>2011-04-10T11:50:55Z</time>
      </trkpt>
      <trkpt lat="45.90627" lon="6.1575">
        <ele>497</ele>
        <time>2011-04-10T11:51:16Z</time>
      </trkpt>
      <trkpt lat="45.90627" lon="6.1575">
        <ele>497</ele>
        <time>2011-04-10T11:51:17Z</time>
      </trkpt>
    </trkseg>
  </trk>
</gpx>